<?xml version="1.0" encoding="UTF-8" standalone="no" ?>
<gpx xmlns="http://www.topografix.com/GPX/1/1" xmlns:xsi="http://www.w3.org/2001/XMLSchema-instance" xsi:schemaLocation="http://www.topografix.com/GPX/1/1 http://www.topografix.com/GPX/1/1/gpx.xsd" version="1.1" creator="VisuGPX - https://www.visugpx.com">
  <metadata>
    <name>Les Gourniers - Trièves</name>
    <desc><![CDATA[6 jours entre Réallon/Les Gourniers et le Trièves (Mens)]]></desc>
  </metadata>
  <trk>
    <name><![CDATA[Les Gourniers - Trièves_1]]></name>
    <trkseg>
      <trkpt lat="44.61537" lon="6.3308">
        <ele>1494.3</ele>
        <time>2015-07-20T05:16:35Z</time>
      </trkpt>
      <trkpt lat="44.61529" lon="6.32966">
        <ele>1539.7</ele>
        <time>2015-07-20T05:18:51Z</time>
      </trkpt>
      <trkpt lat="44.61445" lon="6.32991">
        <ele>1556.1</ele>
        <time>2015-07-20T05:20:41Z</time>
      </trkpt>
      <trkpt lat="44.61364" lon="6.32952">
        <ele>1572.8</ele>
        <time>2015-07-20T05:23:06Z</time>
      </trkpt>
      <trkpt lat="44.61281" lon="6.32959">
        <ele>1580.4</ele>
        <time>2015-07-20T05:24:21Z</time>
      </trkpt>
      <trkpt lat="44.61348" lon="6.32888">
        <ele>1604.6</ele>
        <time>2015-07-20T05:27:16Z</time>
      </trkpt>
      <trkpt lat="44.61417" lon="6.32823">
        <ele>1616.7</ele>
        <time>2015-07-20T05:28:16Z</time>
      </trkpt>
      <trkpt lat="44.61462" lon="6.32728">
        <ele>1642.7</ele>
        <time>2015-07-20T05:29:56Z</time>
      </trkpt>
      <trkpt lat="44.61491" lon="6.32622">
        <ele>1635.6</ele>
        <time>2015-07-20T05:31:03Z</time>
      </trkpt>
      <trkpt lat="44.61516" lon="6.32504">
        <ele>1673.2</ele>
        <time>2015-07-20T05:32:23Z</time>
      </trkpt>
      <trkpt lat="44.61547" lon="6.32397">
        <ele>1703.9</ele>
        <time>2015-07-20T05:33:28Z</time>
      </trkpt>
      <trkpt lat="44.61583" lon="6.32294">
        <ele>1698.2</ele>
        <time>2015-07-20T05:34:23Z</time>
      </trkpt>
      <trkpt lat="44.61626" lon="6.32192">
        <ele>1711.1</ele>
        <time>2015-07-20T05:35:33Z</time>
      </trkpt>
      <trkpt lat="44.61612" lon="6.32077">
        <ele>1695</ele>
        <time>2015-07-20T05:36:38Z</time>
      </trkpt>
      <trkpt lat="44.61616" lon="6.31963">
        <ele>1691.1</ele>
        <time>2015-07-20T05:37:48Z</time>
      </trkpt>
      <trkpt lat="44.61604" lon="6.31846">
        <ele>1704</ele>
        <time>2015-07-20T05:39:18Z</time>
      </trkpt>
      <trkpt lat="44.61577" lon="6.31737">
        <ele>1713.8</ele>
        <time>2015-07-20T05:41:03Z</time>
      </trkpt>
      <trkpt lat="44.61569" lon="6.3162">
        <ele>1732.6</ele>
        <time>2015-07-20T05:42:18Z</time>
      </trkpt>
      <trkpt lat="44.61568" lon="6.31503">
        <ele>1750.9</ele>
        <time>2015-07-20T05:43:58Z</time>
      </trkpt>
      <trkpt lat="44.61555" lon="6.31384">
        <ele>1776.8</ele>
        <time>2015-07-20T05:45:43Z</time>
      </trkpt>
      <trkpt lat="44.61537" lon="6.31272">
        <ele>1786.9</ele>
        <time>2015-07-20T05:46:53Z</time>
      </trkpt>
      <trkpt lat="44.61546" lon="6.31159">
        <ele>1806.3</ele>
        <time>2015-07-20T05:49:33Z</time>
      </trkpt>
      <trkpt lat="44.61498" lon="6.31068">
        <ele>1835</ele>
        <time>2015-07-20T05:51:18Z</time>
      </trkpt>
      <trkpt lat="44.61447" lon="6.30979">
        <ele>1869.6</ele>
        <time>2015-07-20T05:52:58Z</time>
      </trkpt>
      <trkpt lat="44.6142" lon="6.30871">
        <ele>1892.1</ele>
        <time>2015-07-20T05:54:58Z</time>
      </trkpt>
      <trkpt lat="44.6141" lon="6.30751">
        <ele>1914</ele>
        <time>2015-07-20T05:56:38Z</time>
      </trkpt>
      <trkpt lat="44.6143" lon="6.3064">
        <ele>1936.1</ele>
        <time>2015-07-20T05:59:43Z</time>
      </trkpt>
      <trkpt lat="44.61466" lon="6.30538">
        <ele>1964.1</ele>
        <time>2015-07-20T06:04:08Z</time>
      </trkpt>
      <trkpt lat="44.61548" lon="6.30548">
        <ele>2014.9</ele>
        <time>2015-07-20T06:10:43Z</time>
      </trkpt>
      <trkpt lat="44.61568" lon="6.30437">
        <ele>2027.4</ele>
        <time>2015-07-20T06:19:48Z</time>
      </trkpt>
      <trkpt lat="44.61537" lon="6.30331">
        <ele>2038.5</ele>
        <time>2015-07-20T06:22:59Z</time>
      </trkpt>
      <trkpt lat="44.6151" lon="6.30219">
        <ele>2054.7</ele>
        <time>2015-07-20T06:24:49Z</time>
      </trkpt>
      <trkpt lat="44.61498" lon="6.30103">
        <ele>2067.7</ele>
        <time>2015-07-20T06:26:49Z</time>
      </trkpt>
      <trkpt lat="44.61493" lon="6.29989">
        <ele>2087.4</ele>
        <time>2015-07-20T06:29:59Z</time>
      </trkpt>
      <trkpt lat="44.61538" lon="6.29893">
        <ele>2117.1</ele>
        <time>2015-07-20T06:34:14Z</time>
      </trkpt>
      <trkpt lat="44.61595" lon="6.2981">
        <ele>2152.5</ele>
        <time>2015-07-20T06:39:34Z</time>
      </trkpt>
      <trkpt lat="44.61664" lon="6.29748">
        <ele>2197</ele>
        <time>2015-07-20T06:47:44Z</time>
      </trkpt>
      <trkpt lat="44.61705" lon="6.2965">
        <ele>2240.6</ele>
        <time>2015-07-20T06:54:29Z</time>
      </trkpt>
      <trkpt lat="44.61755" lon="6.2956">
        <ele>2304.5</ele>
        <time>2015-07-20T07:03:54Z</time>
      </trkpt>
      <trkpt lat="44.61766" lon="6.29446">
        <ele>2314.4</ele>
        <time>2015-07-20T07:15:16Z</time>
      </trkpt>
      <trkpt lat="44.61845" lon="6.2941">
        <ele>2296.2</ele>
        <time>2015-07-20T07:17:16Z</time>
      </trkpt>
      <trkpt lat="44.61894" lon="6.29319">
        <ele>2276.4</ele>
        <time>2015-07-20T07:18:41Z</time>
      </trkpt>
      <trkpt lat="44.61835" lon="6.29234">
        <ele>2260.7</ele>
        <time>2015-07-20T07:20:16Z</time>
      </trkpt>
      <trkpt lat="44.61878" lon="6.29137">
        <ele>2241.7</ele>
        <time>2015-07-20T07:21:36Z</time>
      </trkpt>
      <trkpt lat="44.61854" lon="6.29025">
        <ele>2225.8</ele>
        <time>2015-07-20T07:23:56Z</time>
      </trkpt>
      <trkpt lat="44.61778" lon="6.28974">
        <ele>2189.1</ele>
        <time>2015-07-20T07:27:36Z</time>
      </trkpt>
      <trkpt lat="44.61733" lon="6.28875">
        <ele>2181.7</ele>
        <time>2015-07-20T07:30:41Z</time>
      </trkpt>
      <trkpt lat="44.61814" lon="6.28888">
        <ele>2161.4</ele>
        <time>2015-07-20T07:32:46Z</time>
      </trkpt>
      <trkpt lat="44.61832" lon="6.28774">
        <ele>2120.4</ele>
        <time>2015-07-20T07:36:51Z</time>
      </trkpt>
      <trkpt lat="44.61823" lon="6.2866">
        <ele>2108.2</ele>
        <time>2015-07-20T07:38:26Z</time>
      </trkpt>
      <trkpt lat="44.61813" lon="6.28547">
        <ele>2090.7</ele>
        <time>2015-07-20T07:39:46Z</time>
      </trkpt>
      <trkpt lat="44.61812" lon="6.28428">
        <ele>2055.2</ele>
        <time>2015-07-20T07:43:06Z</time>
      </trkpt>
      <trkpt lat="44.61896" lon="6.2844">
        <ele>2037.7</ele>
        <time>2015-07-20T07:46:21Z</time>
      </trkpt>
      <trkpt lat="44.61862" lon="6.28335">
        <ele>2013.5</ele>
        <time>2015-07-20T07:53:01Z</time>
      </trkpt>
      <trkpt lat="44.61813" lon="6.28239">
        <ele>1999.9</ele>
        <time>2015-07-20T07:54:06Z</time>
      </trkpt>
      <trkpt lat="44.61772" lon="6.28141">
        <ele>1984.6</ele>
        <time>2015-07-20T07:55:11Z</time>
      </trkpt>
      <trkpt lat="44.61722" lon="6.28046">
        <ele>1965.9</ele>
        <time>2015-07-20T07:56:26Z</time>
      </trkpt>
      <trkpt lat="44.61681" lon="6.27942">
        <ele>1962.4</ele>
        <time>2015-07-20T07:57:31Z</time>
      </trkpt>
      <trkpt lat="44.61643" lon="6.2784">
        <ele>1944.2</ele>
        <time>2015-07-20T07:59:51Z</time>
      </trkpt>
      <trkpt lat="44.61643" lon="6.27725">
        <ele>1931.2</ele>
        <time>2015-07-20T08:01:11Z</time>
      </trkpt>
      <trkpt lat="44.61686" lon="6.27623">
        <ele>1918.9</ele>
        <time>2015-07-20T08:02:16Z</time>
      </trkpt>
      <trkpt lat="44.61741" lon="6.27537">
        <ele>1909</ele>
        <time>2015-07-20T08:03:21Z</time>
      </trkpt>
      <trkpt lat="44.61821" lon="6.27488">
        <ele>1906.3</ele>
        <time>2015-07-20T08:04:31Z</time>
      </trkpt>
      <trkpt lat="44.61907" lon="6.27499">
        <ele>1905.6</ele>
        <time>2015-07-20T08:07:06Z</time>
      </trkpt>
      <trkpt lat="44.61992" lon="6.275">
        <ele>1903.7</ele>
        <time>2015-07-20T08:08:16Z</time>
      </trkpt>
      <trkpt lat="44.62068" lon="6.27458">
        <ele>1892.5</ele>
        <time>2015-07-20T08:09:31Z</time>
      </trkpt>
      <trkpt lat="44.6215" lon="6.27435">
        <ele>1870.4</ele>
        <time>2015-07-20T08:11:06Z</time>
      </trkpt>
      <trkpt lat="44.62232" lon="6.27403">
        <ele>1847.6</ele>
        <time>2015-07-20T08:12:21Z</time>
      </trkpt>
      <trkpt lat="44.62206" lon="6.27521">
        <ele>1832.5</ele>
        <time>2015-07-20T08:15:16Z</time>
      </trkpt>
      <trkpt lat="44.62145" lon="6.27602">
        <ele>1829.7</ele>
        <time>2015-07-20T08:16:21Z</time>
      </trkpt>
      <trkpt lat="44.62111" lon="6.27707">
        <ele>1813.5</ele>
        <time>2015-07-20T08:17:51Z</time>
      </trkpt>
      <trkpt lat="44.62194" lon="6.27676">
        <ele>1808</ele>
        <time>2015-07-20T08:25:06Z</time>
      </trkpt>
      <trkpt lat="44.62283" lon="6.27644">
        <ele>1823.4</ele>
        <time>2015-07-20T08:25:56Z</time>
      </trkpt>
      <trkpt lat="44.62344" lon="6.27564">
        <ele>1831.6</ele>
        <time>2015-07-20T08:26:46Z</time>
      </trkpt>
      <trkpt lat="44.62413" lon="6.27495">
        <ele>1861.7</ele>
        <time>2015-07-20T08:27:31Z</time>
      </trkpt>
      <trkpt lat="44.62467" lon="6.27403">
        <ele>1834.7</ele>
        <time>2015-07-20T08:28:36Z</time>
      </trkpt>
      <trkpt lat="44.62536" lon="6.27335">
        <ele>1845.5</ele>
        <time>2015-07-20T08:29:26Z</time>
      </trkpt>
      <trkpt lat="44.6258" lon="6.27233">
        <ele>1775.3</ele>
        <time>2015-07-20T08:30:46Z</time>
      </trkpt>
      <trkpt lat="44.62591" lon="6.2712">
        <ele>1764.4</ele>
        <time>2015-07-20T08:31:41Z</time>
      </trkpt>
      <trkpt lat="44.62628" lon="6.27015">
        <ele>1746.9</ele>
        <time>2015-07-20T08:32:46Z</time>
      </trkpt>
      <trkpt lat="44.62687" lon="6.26927">
        <ele>1718.5</ele>
        <time>2015-07-20T08:33:56Z</time>
      </trkpt>
      <trkpt lat="44.6269" lon="6.2681">
        <ele>1696.7</ele>
        <time>2015-07-20T08:34:56Z</time>
      </trkpt>
      <trkpt lat="44.62748" lon="6.2673">
        <ele>1670.2</ele>
        <time>2015-07-20T08:36:06Z</time>
      </trkpt>
      <trkpt lat="44.62797" lon="6.26633">
        <ele>1621.1</ele>
        <time>2015-07-20T08:37:41Z</time>
      </trkpt>
      <trkpt lat="44.628" lon="6.26519">
        <ele>1625.3</ele>
        <time>2015-07-20T08:38:41Z</time>
      </trkpt>
      <trkpt lat="44.62788" lon="6.26398">
        <ele>1644.1</ele>
        <time>2015-07-20T09:47:58Z</time>
      </trkpt>
      <trkpt lat="44.62777" lon="6.26284">
        <ele>1628.1</ele>
        <time>2015-07-20T09:49:33Z</time>
      </trkpt>
      <trkpt lat="44.62767" lon="6.26167">
        <ele>1625.5</ele>
        <time>2015-07-20T09:50:43Z</time>
      </trkpt>
      <trkpt lat="44.62722" lon="6.26067">
        <ele>1625.4</ele>
        <time>2015-07-20T09:51:38Z</time>
      </trkpt>
      <trkpt lat="44.6269" lon="6.25959">
        <ele>1606.8</ele>
        <time>2015-07-20T09:52:43Z</time>
      </trkpt>
      <trkpt lat="44.62691" lon="6.25841">
        <ele>1598.1</ele>
        <time>2015-07-20T09:53:43Z</time>
      </trkpt>
      <trkpt lat="44.62647" lon="6.25745">
        <ele>1597.8</ele>
        <time>2015-07-20T09:54:43Z</time>
      </trkpt>
      <trkpt lat="44.62598" lon="6.2565">
        <ele>1584.9</ele>
        <time>2015-07-20T09:55:43Z</time>
      </trkpt>
      <trkpt lat="44.62583" lon="6.25536">
        <ele>1575.6</ele>
        <time>2015-07-20T09:56:43Z</time>
      </trkpt>
      <trkpt lat="44.6258" lon="6.25417">
        <ele>1569.1</ele>
        <time>2015-07-20T09:57:43Z</time>
      </trkpt>
      <trkpt lat="44.62553" lon="6.25299">
        <ele>1566.1</ele>
        <time>2015-07-20T09:58:43Z</time>
      </trkpt>
      <trkpt lat="44.62487" lon="6.25225">
        <ele>1571.9</ele>
        <time>2015-07-20T09:59:43Z</time>
      </trkpt>
      <trkpt lat="44.62416" lon="6.25165">
        <ele>1556</ele>
        <time>2015-07-20T10:00:43Z</time>
      </trkpt>
      <trkpt lat="44.62415" lon="6.25044">
        <ele>1540.1</ele>
        <time>2015-07-20T10:01:58Z</time>
      </trkpt>
      <trkpt lat="44.6238" lon="6.24935">
        <ele>1528.4</ele>
        <time>2015-07-20T10:03:03Z</time>
      </trkpt>
      <trkpt lat="44.62375" lon="6.24821">
        <ele>1519.9</ele>
        <time>2015-07-20T10:04:03Z</time>
      </trkpt>
      <trkpt lat="44.62351" lon="6.24702">
        <ele>1516.9</ele>
        <time>2015-07-20T10:07:28Z</time>
      </trkpt>
      <trkpt lat="44.62336" lon="6.2459">
        <ele>1504.7</ele>
        <time>2015-07-20T10:08:38Z</time>
      </trkpt>
      <trkpt lat="44.62344" lon="6.24469">
        <ele>1504</ele>
        <time>2015-07-20T10:09:38Z</time>
      </trkpt>
      <trkpt lat="44.62312" lon="6.24578">
        <ele>1491.1</ele>
        <time>2015-07-20T10:11:18Z</time>
      </trkpt>
      <trkpt lat="44.62238" lon="6.24518">
        <ele>1503.6</ele>
        <time>2015-07-20T10:13:08Z</time>
      </trkpt>
      <trkpt lat="44.62212" lon="6.2441">
        <ele>1515.1</ele>
        <time>2015-07-20T10:14:33Z</time>
      </trkpt>
      <trkpt lat="44.62241" lon="6.24301">
        <ele>1520.3</ele>
        <time>2015-07-20T10:15:48Z</time>
      </trkpt>
      <trkpt lat="44.62254" lon="6.24182">
        <ele>1505.3</ele>
        <time>2015-07-20T10:16:53Z</time>
      </trkpt>
      <trkpt lat="44.62251" lon="6.24064">
        <ele>1496.1</ele>
        <time>2015-07-20T10:17:53Z</time>
      </trkpt>
      <trkpt lat="44.62238" lon="6.23941">
        <ele>1481.2</ele>
        <time>2015-07-20T10:18:53Z</time>
      </trkpt>
      <trkpt lat="44.62206" lon="6.23833">
        <ele>1467.4</ele>
        <time>2015-07-20T10:19:48Z</time>
      </trkpt>
      <trkpt lat="44.62174" lon="6.23728">
        <ele>1466.3</ele>
        <time>2015-07-20T10:20:38Z</time>
      </trkpt>
      <trkpt lat="44.62132" lon="6.23622">
        <ele>1456.3</ele>
        <time>2015-07-20T10:21:38Z</time>
      </trkpt>
      <trkpt lat="44.62114" lon="6.2351">
        <ele>1441.7</ele>
        <time>2015-07-20T10:22:38Z</time>
      </trkpt>
      <trkpt lat="44.62088" lon="6.23402">
        <ele>1432.8</ele>
        <time>2015-07-20T10:24:53Z</time>
      </trkpt>
      <trkpt lat="44.62088" lon="6.23289">
        <ele>1424.1</ele>
        <time>2015-07-20T10:26:13Z</time>
      </trkpt>
      <trkpt lat="44.62089" lon="6.23174">
        <ele>1417.6</ele>
        <time>2015-07-20T10:27:08Z</time>
      </trkpt>
      <trkpt lat="44.62087" lon="6.23054">
        <ele>1415.2</ele>
        <time>2015-07-20T10:28:08Z</time>
      </trkpt>
      <trkpt lat="44.62066" lon="6.22939">
        <ele>1409.5</ele>
        <time>2015-07-20T10:29:08Z</time>
      </trkpt>
      <trkpt lat="44.62049" lon="6.22821">
        <ele>1406.8</ele>
        <time>2015-07-20T10:30:08Z</time>
      </trkpt>
      <trkpt lat="44.62027" lon="6.22703">
        <ele>1402</ele>
        <time>2015-07-20T10:31:08Z</time>
      </trkpt>
      <trkpt lat="44.6201" lon="6.22589">
        <ele>1399.3</ele>
        <time>2015-07-20T10:32:08Z</time>
      </trkpt>
      <trkpt lat="44.62011" lon="6.22468">
        <ele>1395.2</ele>
        <time>2015-07-20T10:33:13Z</time>
      </trkpt>
      <trkpt lat="44.6203" lon="6.2235">
        <ele>1395.5</ele>
        <time>2015-07-20T10:34:13Z</time>
      </trkpt>
      <trkpt lat="44.62047" lon="6.22232">
        <ele>1387.9</ele>
        <time>2015-07-20T10:35:13Z</time>
      </trkpt>
      <trkpt lat="44.62042" lon="6.22115">
        <ele>1382.2</ele>
        <time>2015-07-20T10:36:13Z</time>
      </trkpt>
      <trkpt lat="44.62045" lon="6.21999">
        <ele>1380.1</ele>
        <time>2015-07-20T10:37:13Z</time>
      </trkpt>
      <trkpt lat="44.62059" lon="6.21878">
        <ele>1382</ele>
        <time>2015-07-20T10:38:48Z</time>
      </trkpt>
      <trkpt lat="44.62078" lon="6.21763">
        <ele>1374.4</ele>
        <time>2015-07-20T10:39:53Z</time>
      </trkpt>
      <trkpt lat="44.621" lon="6.21646">
        <ele>1369.6</ele>
        <time>2015-07-20T10:40:58Z</time>
      </trkpt>
      <trkpt lat="44.62102" lon="6.21528">
        <ele>1367.2</ele>
        <time>2015-07-20T10:41:58Z</time>
      </trkpt>
      <trkpt lat="44.62131" lon="6.2142">
        <ele>1364.5</ele>
        <time>2015-07-20T10:42:58Z</time>
      </trkpt>
      <trkpt lat="44.62153" lon="6.21309">
        <ele>1361.7</ele>
        <time>2015-07-20T10:43:58Z</time>
      </trkpt>
      <trkpt lat="44.62198" lon="6.21214">
        <ele>1361</ele>
        <time>2015-07-20T10:45:53Z</time>
      </trkpt>
      <trkpt lat="44.62223" lon="6.21103">
        <ele>1353</ele>
        <time>2015-07-20T10:46:53Z</time>
      </trkpt>
      <trkpt lat="44.6223" lon="6.20984">
        <ele>1349.4</ele>
        <time>2015-07-20T10:47:58Z</time>
      </trkpt>
      <trkpt lat="44.62292" lon="6.20739">
        <ele>1439.8</ele>
        <time>2015-07-21T06:11:56Z</time>
      </trkpt>
      <trkpt lat="44.6233" lon="6.20635">
        <ele>1375.6</ele>
        <time>2015-07-21T06:14:10Z</time>
      </trkpt>
      <trkpt lat="44.62304" lon="6.20749">
        <ele>1358.8</ele>
        <time>2015-07-21T06:20:00Z</time>
      </trkpt>
      <trkpt lat="44.62319" lon="6.20867">
        <ele>1352.1</ele>
        <time>2015-07-21T06:21:05Z</time>
      </trkpt>
      <trkpt lat="44.623" lon="6.20986">
        <ele>1354.8</ele>
        <time>2015-07-21T06:22:45Z</time>
      </trkpt>
      <trkpt lat="44.62294" lon="6.21104">
        <ele>1354.6</ele>
        <time>2015-07-21T06:23:50Z</time>
      </trkpt>
      <trkpt lat="44.62374" lon="6.2107">
        <ele>1352.4</ele>
        <time>2015-07-21T06:25:05Z</time>
      </trkpt>
      <trkpt lat="44.62431" lon="6.20983">
        <ele>1365</ele>
        <time>2015-07-21T06:26:15Z</time>
      </trkpt>
      <trkpt lat="44.62501" lon="6.2091">
        <ele>1364.4</ele>
        <time>2015-07-21T06:27:25Z</time>
      </trkpt>
      <trkpt lat="44.62565" lon="6.20837">
        <ele>1365.7</ele>
        <time>2015-07-21T06:28:35Z</time>
      </trkpt>
      <trkpt lat="44.62642" lon="6.20784">
        <ele>1354.2</ele>
        <time>2015-07-21T06:29:50Z</time>
      </trkpt>
      <trkpt lat="44.62728" lon="6.20773">
        <ele>1359.3</ele>
        <time>2015-07-21T06:31:00Z</time>
      </trkpt>
      <trkpt lat="44.62812" lon="6.2074">
        <ele>1363.5</ele>
        <time>2015-07-21T06:32:15Z</time>
      </trkpt>
      <trkpt lat="44.6289" lon="6.20696">
        <ele>1365.4</ele>
        <time>2015-07-21T06:36:15Z</time>
      </trkpt>
      <trkpt lat="44.62968" lon="6.20663">
        <ele>1375.7</ele>
        <time>2015-07-21T06:37:25Z</time>
      </trkpt>
      <trkpt lat="44.63047" lon="6.2063">
        <ele>1380.2</ele>
        <time>2015-07-21T06:38:40Z</time>
      </trkpt>
      <trkpt lat="44.63122" lon="6.20583">
        <ele>1376.1</ele>
        <time>2015-07-21T06:40:00Z</time>
      </trkpt>
      <trkpt lat="44.632" lon="6.20547">
        <ele>1383.4</ele>
        <time>2015-07-21T06:41:20Z</time>
      </trkpt>
      <trkpt lat="44.63279" lon="6.20514">
        <ele>1394.6</ele>
        <time>2015-07-21T06:42:45Z</time>
      </trkpt>
      <trkpt lat="44.63361" lon="6.20485">
        <ele>1397.7</ele>
        <time>2015-07-21T06:44:00Z</time>
      </trkpt>
      <trkpt lat="44.6344" lon="6.20457">
        <ele>1406.5</ele>
        <time>2015-07-21T06:45:20Z</time>
      </trkpt>
      <trkpt lat="44.63516" lon="6.20413">
        <ele>1413.6</ele>
        <time>2015-07-21T06:46:35Z</time>
      </trkpt>
      <trkpt lat="44.63582" lon="6.20484">
        <ele>1426.5</ele>
        <time>2015-07-21T06:48:05Z</time>
      </trkpt>
      <trkpt lat="44.63659" lon="6.20534">
        <ele>1437.1</ele>
        <time>2015-07-21T06:51:25Z</time>
      </trkpt>
      <trkpt lat="44.63743" lon="6.2056">
        <ele>1444.1</ele>
        <time>2015-07-21T06:52:40Z</time>
      </trkpt>
      <trkpt lat="44.63818" lon="6.2061">
        <ele>1452.7</ele>
        <time>2015-07-21T06:54:10Z</time>
      </trkpt>
      <trkpt lat="44.63882" lon="6.20683">
        <ele>1454.1</ele>
        <time>2015-07-21T06:55:30Z</time>
      </trkpt>
      <trkpt lat="44.63941" lon="6.20763">
        <ele>1456.4</ele>
        <time>2015-07-21T06:56:45Z</time>
      </trkpt>
      <trkpt lat="44.6393" lon="6.20878">
        <ele>1462.3</ele>
        <time>2015-07-21T06:58:00Z</time>
      </trkpt>
      <trkpt lat="44.6393" lon="6.20999">
        <ele>1454.7</ele>
        <time>2015-07-21T06:59:10Z</time>
      </trkpt>
      <trkpt lat="44.63963" lon="6.21108">
        <ele>1465.1</ele>
        <time>2015-07-21T07:00:30Z</time>
      </trkpt>
      <trkpt lat="44.6404" lon="6.21151">
        <ele>1469.6</ele>
        <time>2015-07-21T07:01:45Z</time>
      </trkpt>
      <trkpt lat="44.64119" lon="6.21121">
        <ele>1473.7</ele>
        <time>2015-07-21T07:03:55Z</time>
      </trkpt>
      <trkpt lat="44.64178" lon="6.21201">
        <ele>1481.2</ele>
        <time>2015-07-21T07:05:15Z</time>
      </trkpt>
      <trkpt lat="44.64238" lon="6.21282">
        <ele>1483.2</ele>
        <time>2015-07-21T07:07:15Z</time>
      </trkpt>
      <trkpt lat="44.643" lon="6.21359">
        <ele>1484.8</ele>
        <time>2015-07-21T07:08:45Z</time>
      </trkpt>
      <trkpt lat="44.64367" lon="6.21429">
        <ele>1482.5</ele>
        <time>2015-07-21T07:09:45Z</time>
      </trkpt>
      <trkpt lat="44.6444" lon="6.21492">
        <ele>1479</ele>
        <time>2015-07-21T07:10:55Z</time>
      </trkpt>
      <trkpt lat="44.64483" lon="6.21592">
        <ele>1469.6</ele>
        <time>2015-07-21T07:12:25Z</time>
      </trkpt>
      <trkpt lat="44.64557" lon="6.2154">
        <ele>1469.8</ele>
        <time>2015-07-21T07:13:45Z</time>
      </trkpt>
      <trkpt lat="44.64583" lon="6.21429">
        <ele>1454.3</ele>
        <time>2015-07-21T07:14:50Z</time>
      </trkpt>
      <trkpt lat="44.64639" lon="6.21521">
        <ele>1410.1</ele>
        <time>2015-07-21T07:16:35Z</time>
      </trkpt>
      <trkpt lat="44.64647" lon="6.21637">
        <ele>1414.6</ele>
        <time>2015-07-21T07:17:35Z</time>
      </trkpt>
      <trkpt lat="44.6467" lon="6.21749">
        <ele>1385.4</ele>
        <time>2015-07-21T07:18:35Z</time>
      </trkpt>
      <trkpt lat="44.64692" lon="6.2186">
        <ele>1392.4</ele>
        <time>2015-07-21T07:19:45Z</time>
      </trkpt>
      <trkpt lat="44.64762" lon="6.21928">
        <ele>1415.4</ele>
        <time>2015-07-21T07:20:50Z</time>
      </trkpt>
      <trkpt lat="44.64833" lon="6.21993">
        <ele>1410.2</ele>
        <time>2015-07-21T07:22:02Z</time>
      </trkpt>
      <trkpt lat="44.64917" lon="6.22004">
        <ele>1414.1</ele>
        <time>2015-07-21T07:23:57Z</time>
      </trkpt>
      <trkpt lat="44.64994" lon="6.2196">
        <ele>1382</ele>
        <time>2015-07-21T07:25:22Z</time>
      </trkpt>
      <trkpt lat="44.65045" lon="6.21865">
        <ele>1353.7</ele>
        <time>2015-07-21T07:27:22Z</time>
      </trkpt>
      <trkpt lat="44.65118" lon="6.21923">
        <ele>1325.3</ele>
        <time>2015-07-21T07:30:04Z</time>
      </trkpt>
      <trkpt lat="44.65143" lon="6.22038">
        <ele>1305.9</ele>
        <time>2015-07-21T07:31:04Z</time>
      </trkpt>
      <trkpt lat="44.65221" lon="6.21992">
        <ele>1305</ele>
        <time>2015-07-21T07:32:14Z</time>
      </trkpt>
      <trkpt lat="44.653" lon="6.21933">
        <ele>1291.1</ele>
        <time>2015-07-21T07:41:49Z</time>
      </trkpt>
      <trkpt lat="44.65358" lon="6.21837">
        <ele>1270.9</ele>
        <time>2015-07-21T07:43:04Z</time>
      </trkpt>
      <trkpt lat="44.6534" lon="6.21723">
        <ele>1264.4</ele>
        <time>2015-07-21T07:44:04Z</time>
      </trkpt>
      <trkpt lat="44.65333" lon="6.21607">
        <ele>1255.3</ele>
        <time>2015-07-21T07:45:19Z</time>
      </trkpt>
      <trkpt lat="44.65272" lon="6.21531">
        <ele>1242.3</ele>
        <time>2015-07-21T07:46:14Z</time>
      </trkpt>
      <trkpt lat="44.65355" lon="6.21539">
        <ele>1224.2</ele>
        <time>2015-07-21T07:48:59Z</time>
      </trkpt>
      <trkpt lat="44.6544" lon="6.21555">
        <ele>1224.4</ele>
        <time>2015-07-21T07:50:10Z</time>
      </trkpt>
      <trkpt lat="44.65524" lon="6.21564">
        <ele>1214.3</ele>
        <time>2015-07-21T07:51:22Z</time>
      </trkpt>
      <trkpt lat="44.65595" lon="6.21622">
        <ele>1193.2</ele>
        <time>2015-07-21T07:52:37Z</time>
      </trkpt>
      <trkpt lat="44.65667" lon="6.21678">
        <ele>1189.6</ele>
        <time>2015-07-21T07:55:22Z</time>
      </trkpt>
      <trkpt lat="44.6573" lon="6.2175">
        <ele>1170.7</ele>
        <time>2015-07-21T07:56:32Z</time>
      </trkpt>
      <trkpt lat="44.65759" lon="6.21865">
        <ele>1170.2</ele>
        <time>2015-07-21T07:57:37Z</time>
      </trkpt>
      <trkpt lat="44.65789" lon="6.21976">
        <ele>1170.4</ele>
        <time>2015-07-21T07:58:42Z</time>
      </trkpt>
      <trkpt lat="44.65815" lon="6.22087">
        <ele>1170.9</ele>
        <time>2015-07-21T07:59:52Z</time>
      </trkpt>
      <trkpt lat="44.65857" lon="6.22189">
        <ele>1174</ele>
        <time>2015-07-21T08:00:57Z</time>
      </trkpt>
      <trkpt lat="44.65931" lon="6.22251">
        <ele>1179.3</ele>
        <time>2015-07-21T08:02:17Z</time>
      </trkpt>
      <trkpt lat="44.65981" lon="6.22353">
        <ele>1170.1</ele>
        <time>2015-07-21T08:03:32Z</time>
      </trkpt>
      <trkpt lat="44.66025" lon="6.2245">
        <ele>1198.5</ele>
        <time>2015-07-21T08:05:12Z</time>
      </trkpt>
      <trkpt lat="44.66109" lon="6.22481">
        <ele>1176.3</ele>
        <time>2015-07-21T08:06:32Z</time>
      </trkpt>
      <trkpt lat="44.66182" lon="6.22542">
        <ele>1176.6</ele>
        <time>2015-07-21T08:08:12Z</time>
      </trkpt>
      <trkpt lat="44.66263" lon="6.22594">
        <ele>1174.6</ele>
        <time>2015-07-21T08:09:32Z</time>
      </trkpt>
      <trkpt lat="44.66312" lon="6.22686">
        <ele>1167.6</ele>
        <time>2015-07-21T08:10:44Z</time>
      </trkpt>
      <trkpt lat="44.66348" lon="6.22797">
        <ele>1168</ele>
        <time>2015-07-21T08:12:09Z</time>
      </trkpt>
      <trkpt lat="44.66382" lon="6.22904">
        <ele>1171.9</ele>
        <time>2015-07-21T08:13:19Z</time>
      </trkpt>
      <trkpt lat="44.66378" lon="6.23026">
        <ele>1178.3</ele>
        <time>2015-07-21T08:14:34Z</time>
      </trkpt>
      <trkpt lat="44.66376" lon="6.23151">
        <ele>1179.4</ele>
        <time>2015-07-21T08:15:52Z</time>
      </trkpt>
      <trkpt lat="44.66374" lon="6.23265">
        <ele>1178.5</ele>
        <time>2015-07-21T08:16:57Z</time>
      </trkpt>
      <trkpt lat="44.66407" lon="6.23375">
        <ele>1175</ele>
        <time>2015-07-21T08:18:02Z</time>
      </trkpt>
      <trkpt lat="44.66433" lon="6.23486">
        <ele>1184.6</ele>
        <time>2015-07-21T08:19:12Z</time>
      </trkpt>
      <trkpt lat="44.66477" lon="6.23595">
        <ele>1200.8</ele>
        <time>2015-07-21T08:20:17Z</time>
      </trkpt>
      <trkpt lat="44.6654" lon="6.23522">
        <ele>1144.1</ele>
        <time>2015-07-21T08:23:17Z</time>
      </trkpt>
      <trkpt lat="44.66524" lon="6.23409">
        <ele>1134.6</ele>
        <time>2015-07-21T08:24:17Z</time>
      </trkpt>
      <trkpt lat="44.66549" lon="6.23291">
        <ele>1136.5</ele>
        <time>2015-07-21T08:25:47Z</time>
      </trkpt>
      <trkpt lat="44.66509" lon="6.23187">
        <ele>1130.4</ele>
        <time>2015-07-21T08:26:42Z</time>
      </trkpt>
      <trkpt lat="44.66512" lon="6.23071">
        <ele>1139.2</ele>
        <time>2015-07-21T08:27:42Z</time>
      </trkpt>
      <trkpt lat="44.66519" lon="6.22958">
        <ele>1135.5</ele>
        <time>2015-07-21T08:28:37Z</time>
      </trkpt>
      <trkpt lat="44.66573" lon="6.22861">
        <ele>1159.1</ele>
        <time>2015-07-21T08:29:52Z</time>
      </trkpt>
      <trkpt lat="44.66649" lon="6.22812">
        <ele>1146.4</ele>
        <time>2015-07-21T08:31:17Z</time>
      </trkpt>
      <trkpt lat="44.66728" lon="6.22834">
        <ele>1148.5</ele>
        <time>2015-07-21T08:32:57Z</time>
      </trkpt>
      <trkpt lat="44.66815" lon="6.22828">
        <ele>1138</ele>
        <time>2015-07-21T08:38:36Z</time>
      </trkpt>
      <trkpt lat="44.66875" lon="6.22741">
        <ele>1132.4</ele>
        <time>2015-07-21T08:39:51Z</time>
      </trkpt>
      <trkpt lat="44.66959" lon="6.22709">
        <ele>1142.9</ele>
        <time>2015-07-21T08:41:16Z</time>
      </trkpt>
      <trkpt lat="44.67043" lon="6.22704">
        <ele>1135.4</ele>
        <time>2015-07-21T08:42:46Z</time>
      </trkpt>
      <trkpt lat="44.6712" lon="6.2266">
        <ele>1143.1</ele>
        <time>2015-07-21T08:44:01Z</time>
      </trkpt>
      <trkpt lat="44.67202" lon="6.22632">
        <ele>1156.7</ele>
        <time>2015-07-21T08:46:46Z</time>
      </trkpt>
      <trkpt lat="44.67269" lon="6.22566">
        <ele>1154.4</ele>
        <time>2015-07-21T08:48:16Z</time>
      </trkpt>
      <trkpt lat="44.67341" lon="6.22491">
        <ele>1184.3</ele>
        <time>2015-07-21T08:49:36Z</time>
      </trkpt>
      <trkpt lat="44.67414" lon="6.22426">
        <ele>1182.1</ele>
        <time>2015-07-21T08:50:53Z</time>
      </trkpt>
      <trkpt lat="44.67492" lon="6.22393">
        <ele>1189.6</ele>
        <time>2015-07-21T08:52:23Z</time>
      </trkpt>
      <trkpt lat="44.67509" lon="6.22278">
        <ele>1191.2</ele>
        <time>2015-07-21T08:53:48Z</time>
      </trkpt>
      <trkpt lat="44.67425" lon="6.22284">
        <ele>1161.2</ele>
        <time>2015-07-21T08:54:48Z</time>
      </trkpt>
      <trkpt lat="44.6735" lon="6.22236">
        <ele>1184.2</ele>
        <time>2015-07-21T08:55:48Z</time>
      </trkpt>
      <trkpt lat="44.67342" lon="6.22123">
        <ele>1201</ele>
        <time>2015-07-21T08:58:44Z</time>
      </trkpt>
      <trkpt lat="44.67415" lon="6.22059">
        <ele>1215</ele>
        <time>2015-07-21T09:16:04Z</time>
      </trkpt>
      <trkpt lat="44.67489" lon="6.22003">
        <ele>1228.6</ele>
        <time>2015-07-21T09:17:29Z</time>
      </trkpt>
      <trkpt lat="44.67542" lon="6.21911">
        <ele>1237.9</ele>
        <time>2015-07-21T09:18:54Z</time>
      </trkpt>
      <trkpt lat="44.67567" lon="6.21801">
        <ele>1247.6</ele>
        <time>2015-07-21T09:20:36Z</time>
      </trkpt>
      <trkpt lat="44.67604" lon="6.217">
        <ele>1257.2</ele>
        <time>2015-07-21T09:22:01Z</time>
      </trkpt>
      <trkpt lat="44.67603" lon="6.21578">
        <ele>1253.8</ele>
        <time>2015-07-21T09:23:21Z</time>
      </trkpt>
      <trkpt lat="44.67524" lon="6.21533">
        <ele>1275.8</ele>
        <time>2015-07-21T09:24:21Z</time>
      </trkpt>
      <trkpt lat="44.67494" lon="6.21423">
        <ele>1254.9</ele>
        <time>2015-07-21T09:25:41Z</time>
      </trkpt>
      <trkpt lat="44.67445" lon="6.21327">
        <ele>1262.7</ele>
        <time>2015-07-21T09:27:01Z</time>
      </trkpt>
      <trkpt lat="44.67429" lon="6.21214">
        <ele>1267.6</ele>
        <time>2015-07-21T09:28:37Z</time>
      </trkpt>
      <trkpt lat="44.6751" lon="6.2124">
        <ele>1287.2</ele>
        <time>2015-07-21T09:32:37Z</time>
      </trkpt>
      <trkpt lat="44.67569" lon="6.21321">
        <ele>1292.6</ele>
        <time>2015-07-21T09:34:02Z</time>
      </trkpt>
      <trkpt lat="44.67576" lon="6.21207">
        <ele>1294.9</ele>
        <time>2015-07-21T09:35:22Z</time>
      </trkpt>
      <trkpt lat="44.67609" lon="6.211">
        <ele>1307.4</ele>
        <time>2015-07-21T09:36:47Z</time>
      </trkpt>
      <trkpt lat="44.67679" lon="6.21037">
        <ele>1312.2</ele>
        <time>2015-07-21T09:38:07Z</time>
      </trkpt>
      <trkpt lat="44.67655" lon="6.20923">
        <ele>1321.5</ele>
        <time>2015-07-21T09:39:32Z</time>
      </trkpt>
      <trkpt lat="44.67686" lon="6.20817">
        <ele>1332.8</ele>
        <time>2015-07-21T09:41:37Z</time>
      </trkpt>
      <trkpt lat="44.67696" lon="6.20703">
        <ele>1341</ele>
        <time>2015-07-21T09:43:07Z</time>
      </trkpt>
      <trkpt lat="44.67767" lon="6.20765">
        <ele>1346.6</ele>
        <time>2015-07-21T09:45:47Z</time>
      </trkpt>
      <trkpt lat="44.67782" lon="6.2088">
        <ele>1357.9</ele>
        <time>2015-07-21T09:47:02Z</time>
      </trkpt>
      <trkpt lat="44.67815" lon="6.20776">
        <ele>1368</ele>
        <time>2015-07-21T09:49:37Z</time>
      </trkpt>
      <trkpt lat="44.67811" lon="6.20659">
        <ele>1372.5</ele>
        <time>2015-07-21T09:51:02Z</time>
      </trkpt>
      <trkpt lat="44.67835" lon="6.20771">
        <ele>1389.9</ele>
        <time>2015-07-21T09:52:42Z</time>
      </trkpt>
      <trkpt lat="44.67877" lon="6.20873">
        <ele>1402.3</ele>
        <time>2015-07-21T09:54:02Z</time>
      </trkpt>
      <trkpt lat="44.67945" lon="6.20946">
        <ele>1419.7</ele>
        <time>2015-07-21T09:55:25Z</time>
      </trkpt>
      <trkpt lat="44.67965" lon="6.2106">
        <ele>1427.4</ele>
        <time>2015-07-21T09:57:00Z</time>
      </trkpt>
      <trkpt lat="44.67971" lon="6.21176">
        <ele>1426.2</ele>
        <time>2015-07-21T09:58:20Z</time>
      </trkpt>
      <trkpt lat="44.68051" lon="6.21157">
        <ele>1418.3</ele>
        <time>2015-07-21T10:00:40Z</time>
      </trkpt>
      <trkpt lat="44.68111" lon="6.21077">
        <ele>1431.3</ele>
        <time>2015-07-21T10:02:20Z</time>
      </trkpt>
      <trkpt lat="44.68168" lon="6.20992">
        <ele>1445</ele>
        <time>2015-07-21T10:06:00Z</time>
      </trkpt>
      <trkpt lat="44.68206" lon="6.20889">
        <ele>1453.5</ele>
        <time>2015-07-21T10:07:25Z</time>
      </trkpt>
      <trkpt lat="44.68198" lon="6.2077">
        <ele>1460.3</ele>
        <time>2015-07-21T10:09:05Z</time>
      </trkpt>
      <trkpt lat="44.68216" lon="6.20658">
        <ele>1469.2</ele>
        <time>2015-07-21T10:11:35Z</time>
      </trkpt>
      <trkpt lat="44.68235" lon="6.20546">
        <ele>1474.2</ele>
        <time>2015-07-21T10:13:45Z</time>
      </trkpt>
      <trkpt lat="44.68242" lon="6.20432">
        <ele>1476.9</ele>
        <time>2015-07-21T10:21:00Z</time>
      </trkpt>
      <trkpt lat="44.68245" lon="6.20317">
        <ele>1477.7</ele>
        <time>2015-07-21T10:22:35Z</time>
      </trkpt>
      <trkpt lat="44.68268" lon="6.20206">
        <ele>1456.8</ele>
        <time>2015-07-21T10:25:55Z</time>
      </trkpt>
      <trkpt lat="44.68334" lon="6.20275">
        <ele>1479.2</ele>
        <time>2015-07-21T10:27:40Z</time>
      </trkpt>
      <trkpt lat="44.68279" lon="6.20186">
        <ele>1473.9</ele>
        <time>2015-07-21T11:39:58Z</time>
      </trkpt>
      <trkpt lat="44.68293" lon="6.2007">
        <ele>1455.5</ele>
        <time>2015-07-21T11:41:43Z</time>
      </trkpt>
      <trkpt lat="44.68351" lon="6.19988">
        <ele>1450.2</ele>
        <time>2015-07-21T11:42:53Z</time>
      </trkpt>
      <trkpt lat="44.6827" lon="6.1996">
        <ele>1461.5</ele>
        <time>2015-07-21T11:44:03Z</time>
      </trkpt>
      <trkpt lat="44.68219" lon="6.1987">
        <ele>1438.2</ele>
        <time>2015-07-21T11:46:08Z</time>
      </trkpt>
      <trkpt lat="44.68178" lon="6.19765">
        <ele>1435.2</ele>
        <time>2015-07-21T11:47:38Z</time>
      </trkpt>
      <trkpt lat="44.6812" lon="6.19683">
        <ele>1439.3</ele>
        <time>2015-07-21T11:49:24Z</time>
      </trkpt>
      <trkpt lat="44.6809" lon="6.19575">
        <ele>1443.8</ele>
        <time>2015-07-21T11:50:29Z</time>
      </trkpt>
      <trkpt lat="44.68021" lon="6.19505">
        <ele>1442.8</ele>
        <time>2015-07-21T11:51:39Z</time>
      </trkpt>
      <trkpt lat="44.67993" lon="6.19392">
        <ele>1457.5</ele>
        <time>2015-07-21T11:52:59Z</time>
      </trkpt>
      <trkpt lat="44.68041" lon="6.19299">
        <ele>1476.5</ele>
        <time>2015-07-21T11:58:04Z</time>
      </trkpt>
      <trkpt lat="44.68115" lon="6.1925">
        <ele>1481.7</ele>
        <time>2015-07-21T12:00:01Z</time>
      </trkpt>
      <trkpt lat="44.68188" lon="6.19194">
        <ele>1488.5</ele>
        <time>2015-07-21T12:01:16Z</time>
      </trkpt>
      <trkpt lat="44.68256" lon="6.19122">
        <ele>1498.1</ele>
        <time>2015-07-21T12:02:41Z</time>
      </trkpt>
      <trkpt lat="44.68339" lon="6.1911">
        <ele>1520.3</ele>
        <time>2015-07-21T12:04:46Z</time>
      </trkpt>
      <trkpt lat="44.68382" lon="6.19011">
        <ele>1527.6</ele>
        <time>2015-07-21T12:06:41Z</time>
      </trkpt>
      <trkpt lat="44.68339" lon="6.18908">
        <ele>1522.9</ele>
        <time>2015-07-21T12:08:11Z</time>
      </trkpt>
      <trkpt lat="44.68342" lon="6.18791">
        <ele>1535.7</ele>
        <time>2015-07-21T12:09:36Z</time>
      </trkpt>
      <trkpt lat="44.68291" lon="6.18693">
        <ele>1551.5</ele>
        <time>2015-07-21T12:11:16Z</time>
      </trkpt>
      <trkpt lat="44.68345" lon="6.18605">
        <ele>1565.5</ele>
        <time>2015-07-21T12:14:31Z</time>
      </trkpt>
      <trkpt lat="44.68403" lon="6.18519">
        <ele>1576.8</ele>
        <time>2015-07-21T12:15:56Z</time>
      </trkpt>
      <trkpt lat="44.68422" lon="6.18408">
        <ele>1583.9</ele>
        <time>2015-07-21T12:17:21Z</time>
      </trkpt>
      <trkpt lat="44.68405" lon="6.18297">
        <ele>1600.8</ele>
        <time>2015-07-21T12:19:31Z</time>
      </trkpt>
      <trkpt lat="44.68323" lon="6.18258">
        <ele>1592</ele>
        <time>2015-07-21T12:20:51Z</time>
      </trkpt>
      <trkpt lat="44.68262" lon="6.18176">
        <ele>1571.1</ele>
        <time>2015-07-21T12:22:46Z</time>
      </trkpt>
      <trkpt lat="44.68237" lon="6.18061">
        <ele>1550.5</ele>
        <time>2015-07-21T12:23:56Z</time>
      </trkpt>
      <trkpt lat="44.68218" lon="6.17948">
        <ele>1531.8</ele>
        <time>2015-07-21T12:26:11Z</time>
      </trkpt>
      <trkpt lat="44.68177" lon="6.17849">
        <ele>1533.5</ele>
        <time>2015-07-21T12:27:11Z</time>
      </trkpt>
      <trkpt lat="44.68139" lon="6.17745">
        <ele>1518.1</ele>
        <time>2015-07-21T12:31:46Z</time>
      </trkpt>
      <trkpt lat="44.68094" lon="6.1765">
        <ele>1505.2</ele>
        <time>2015-07-21T12:32:47Z</time>
      </trkpt>
      <trkpt lat="44.68054" lon="6.17549">
        <ele>1500.6</ele>
        <time>2015-07-21T12:33:52Z</time>
      </trkpt>
      <trkpt lat="44.67996" lon="6.17464">
        <ele>1476.8</ele>
        <time>2015-07-21T12:34:57Z</time>
      </trkpt>
      <trkpt lat="44.67959" lon="6.17361">
        <ele>1462</ele>
        <time>2015-07-21T12:36:12Z</time>
      </trkpt>
      <trkpt lat="44.67901" lon="6.17277">
        <ele>1449.7</ele>
        <time>2015-07-21T12:37:17Z</time>
      </trkpt>
      <trkpt lat="44.67837" lon="6.17201">
        <ele>1443.6</ele>
        <time>2015-07-21T12:50:37Z</time>
      </trkpt>
      <trkpt lat="44.6787" lon="6.1709">
        <ele>1437.3</ele>
        <time>2015-07-22T05:46:20Z</time>
      </trkpt>
      <trkpt lat="44.67908" lon="6.16989">
        <ele>1438.5</ele>
        <time>2015-07-22T05:47:30Z</time>
      </trkpt>
      <trkpt lat="44.6798" lon="6.16928">
        <ele>1443.9</ele>
        <time>2015-07-22T05:48:45Z</time>
      </trkpt>
      <trkpt lat="44.68054" lon="6.16879">
        <ele>1444</ele>
        <time>2015-07-22T05:50:55Z</time>
      </trkpt>
      <trkpt lat="44.68121" lon="6.16944">
        <ele>1451.4</ele>
        <time>2015-07-22T05:52:20Z</time>
      </trkpt>
      <trkpt lat="44.6817" lon="6.16846">
        <ele>1465.3</ele>
        <time>2015-07-22T05:54:10Z</time>
      </trkpt>
      <trkpt lat="44.68229" lon="6.16764">
        <ele>1470.3</ele>
        <time>2015-07-22T05:56:30Z</time>
      </trkpt>
      <trkpt lat="44.68264" lon="6.16656">
        <ele>1466.2</ele>
        <time>2015-07-22T05:57:45Z</time>
      </trkpt>
      <trkpt lat="44.68297" lon="6.16764">
        <ele>1477.2</ele>
        <time>2015-07-22T06:00:55Z</time>
      </trkpt>
      <trkpt lat="44.68337" lon="6.16864">
        <ele>1488.3</ele>
        <time>2015-07-22T06:03:35Z</time>
      </trkpt>
      <trkpt lat="44.68413" lon="6.16903">
        <ele>1499.3</ele>
        <time>2015-07-22T06:05:10Z</time>
      </trkpt>
      <trkpt lat="44.68464" lon="6.1681">
        <ele>1511.4</ele>
        <time>2015-07-22T06:06:40Z</time>
      </trkpt>
      <trkpt lat="44.68543" lon="6.16853">
        <ele>1526</ele>
        <time>2015-07-22T06:08:50Z</time>
      </trkpt>
      <trkpt lat="44.68617" lon="6.16801">
        <ele>1536.5</ele>
        <time>2015-07-22T06:10:25Z</time>
      </trkpt>
      <trkpt lat="44.6867" lon="6.16704">
        <ele>1549.1</ele>
        <time>2015-07-22T06:11:45Z</time>
      </trkpt>
      <trkpt lat="44.68709" lon="6.16598">
        <ele>1561</ele>
        <time>2015-07-22T06:12:55Z</time>
      </trkpt>
      <trkpt lat="44.68789" lon="6.16563">
        <ele>1579.5</ele>
        <time>2015-07-22T06:14:30Z</time>
      </trkpt>
      <trkpt lat="44.68843" lon="6.16477">
        <ele>1588</ele>
        <time>2015-07-22T06:15:45Z</time>
      </trkpt>
      <trkpt lat="44.68925" lon="6.16441">
        <ele>1601.6</ele>
        <time>2015-07-22T06:17:05Z</time>
      </trkpt>
      <trkpt lat="44.6892" lon="6.16326">
        <ele>1593.9</ele>
        <time>2015-07-22T06:18:35Z</time>
      </trkpt>
      <trkpt lat="44.68966" lon="6.16226">
        <ele>1593.4</ele>
        <time>2015-07-22T06:23:40Z</time>
      </trkpt>
      <trkpt lat="44.69015" lon="6.16133">
        <ele>1605.7</ele>
        <time>2015-07-22T06:24:50Z</time>
      </trkpt>
      <trkpt lat="44.69066" lon="6.1604">
        <ele>1599</ele>
        <time>2015-07-22T06:26:10Z</time>
      </trkpt>
      <trkpt lat="44.69024" lon="6.15935">
        <ele>1614.4</ele>
        <time>2015-07-22T06:29:10Z</time>
      </trkpt>
      <trkpt lat="44.68989" lon="6.15831">
        <ele>1607.9</ele>
        <time>2015-07-22T06:30:35Z</time>
      </trkpt>
      <trkpt lat="44.68982" lon="6.15712">
        <ele>1604.3</ele>
        <time>2015-07-22T06:31:50Z</time>
      </trkpt>
      <trkpt lat="44.68976" lon="6.15599">
        <ele>1580.9</ele>
        <time>2015-07-22T06:33:15Z</time>
      </trkpt>
      <trkpt lat="44.68977" lon="6.15481">
        <ele>1609.9</ele>
        <time>2015-07-22T06:34:40Z</time>
      </trkpt>
      <trkpt lat="44.68957" lon="6.15367">
        <ele>1608.4</ele>
        <time>2015-07-22T06:36:10Z</time>
      </trkpt>
      <trkpt lat="44.68941" lon="6.15253">
        <ele>1607</ele>
        <time>2015-07-22T06:38:05Z</time>
      </trkpt>
      <trkpt lat="44.69005" lon="6.15174">
        <ele>1606.4</ele>
        <time>2015-07-22T06:39:35Z</time>
      </trkpt>
      <trkpt lat="44.69045" lon="6.15075">
        <ele>1607.7</ele>
        <time>2015-07-22T06:40:55Z</time>
      </trkpt>
      <trkpt lat="44.69038" lon="6.14962">
        <ele>1611.6</ele>
        <time>2015-07-22T06:42:15Z</time>
      </trkpt>
      <trkpt lat="44.68985" lon="6.14867">
        <ele>1614.9</ele>
        <time>2015-07-22T06:43:35Z</time>
      </trkpt>
      <trkpt lat="44.69018" lon="6.14752">
        <ele>1593.9</ele>
        <time>2015-07-22T06:45:20Z</time>
      </trkpt>
      <trkpt lat="44.69023" lon="6.14635">
        <ele>1606.3</ele>
        <time>2015-07-22T06:46:25Z</time>
      </trkpt>
      <trkpt lat="44.69022" lon="6.14517">
        <ele>1607</ele>
        <time>2015-07-22T06:47:45Z</time>
      </trkpt>
      <trkpt lat="44.69049" lon="6.14408">
        <ele>1603.9</ele>
        <time>2015-07-22T06:50:20Z</time>
      </trkpt>
      <trkpt lat="44.69098" lon="6.14312">
        <ele>1601.8</ele>
        <time>2015-07-22T06:51:30Z</time>
      </trkpt>
      <trkpt lat="44.69158" lon="6.14222">
        <ele>1603.3</ele>
        <time>2015-07-22T06:52:46Z</time>
      </trkpt>
      <trkpt lat="44.69232" lon="6.14169">
        <ele>1603.9</ele>
        <time>2015-07-22T06:54:06Z</time>
      </trkpt>
      <trkpt lat="44.69304" lon="6.14226">
        <ele>1596.9</ele>
        <time>2015-07-22T06:55:51Z</time>
      </trkpt>
      <trkpt lat="44.69384" lon="6.14203">
        <ele>1597.9</ele>
        <time>2015-07-22T06:57:36Z</time>
      </trkpt>
      <trkpt lat="44.69464" lon="6.14178">
        <ele>1601.5</ele>
        <time>2015-07-22T06:59:51Z</time>
      </trkpt>
      <trkpt lat="44.69541" lon="6.14127">
        <ele>1609.5</ele>
        <time>2015-07-22T07:01:31Z</time>
      </trkpt>
      <trkpt lat="44.69623" lon="6.14136">
        <ele>1617.9</ele>
        <time>2015-07-22T07:04:31Z</time>
      </trkpt>
      <trkpt lat="44.69624" lon="6.14018">
        <ele>1602.5</ele>
        <time>2015-07-22T07:07:01Z</time>
      </trkpt>
      <trkpt lat="44.69628" lon="6.13901">
        <ele>1620.5</ele>
        <time>2015-07-22T07:08:26Z</time>
      </trkpt>
      <trkpt lat="44.69638" lon="6.13781">
        <ele>1610.8</ele>
        <time>2015-07-22T07:09:46Z</time>
      </trkpt>
      <trkpt lat="44.69668" lon="6.13675">
        <ele>1606.8</ele>
        <time>2015-07-22T07:10:56Z</time>
      </trkpt>
      <trkpt lat="44.69666" lon="6.13554">
        <ele>1615.3</ele>
        <time>2015-07-22T07:13:11Z</time>
      </trkpt>
      <trkpt lat="44.69661" lon="6.13437">
        <ele>1619.4</ele>
        <time>2015-07-22T07:14:21Z</time>
      </trkpt>
      <trkpt lat="44.69685" lon="6.13323">
        <ele>1616.8</ele>
        <time>2015-07-22T07:16:16Z</time>
      </trkpt>
      <trkpt lat="44.69698" lon="6.1321">
        <ele>1616.8</ele>
        <time>2015-07-22T07:17:21Z</time>
      </trkpt>
      <trkpt lat="44.69705" lon="6.13093">
        <ele>1611.8</ele>
        <time>2015-07-22T07:18:41Z</time>
      </trkpt>
      <trkpt lat="44.69777" lon="6.13036">
        <ele>1605</ele>
        <time>2015-07-22T07:20:06Z</time>
      </trkpt>
      <trkpt lat="44.69853" lon="6.12987">
        <ele>1623.1</ele>
        <time>2015-07-22T07:22:01Z</time>
      </trkpt>
      <trkpt lat="44.69931" lon="6.12937">
        <ele>1637.6</ele>
        <time>2015-07-22T07:23:16Z</time>
      </trkpt>
      <trkpt lat="44.69969" lon="6.12832">
        <ele>1644.9</ele>
        <time>2015-07-22T07:24:31Z</time>
      </trkpt>
      <trkpt lat="44.7002" lon="6.12735">
        <ele>1639.2</ele>
        <time>2015-07-22T07:25:46Z</time>
      </trkpt>
      <trkpt lat="44.70093" lon="6.12678">
        <ele>1650.7</ele>
        <time>2015-07-22T07:32:11Z</time>
      </trkpt>
      <trkpt lat="44.70169" lon="6.12631">
        <ele>1662.6</ele>
        <time>2015-07-22T07:33:26Z</time>
      </trkpt>
      <trkpt lat="44.70201" lon="6.1252">
        <ele>1667.5</ele>
        <time>2015-07-22T07:34:41Z</time>
      </trkpt>
      <trkpt lat="44.70239" lon="6.12412">
        <ele>1667.4</ele>
        <time>2015-07-22T07:36:26Z</time>
      </trkpt>
      <trkpt lat="44.70304" lon="6.12344">
        <ele>1676.3</ele>
        <time>2015-07-22T07:37:41Z</time>
      </trkpt>
      <trkpt lat="44.70351" lon="6.12247">
        <ele>1688.7</ele>
        <time>2015-07-22T07:38:51Z</time>
      </trkpt>
      <trkpt lat="44.70433" lon="6.12236">
        <ele>1696.2</ele>
        <time>2015-07-22T07:40:26Z</time>
      </trkpt>
      <trkpt lat="44.70486" lon="6.12322">
        <ele>1690.2</ele>
        <time>2015-07-22T07:42:41Z</time>
      </trkpt>
      <trkpt lat="44.70503" lon="6.12439">
        <ele>1703.1</ele>
        <time>2015-07-22T07:44:06Z</time>
      </trkpt>
      <trkpt lat="44.70552" lon="6.12538">
        <ele>1702.3</ele>
        <time>2015-07-22T07:45:21Z</time>
      </trkpt>
      <trkpt lat="44.7063" lon="6.12577">
        <ele>1728.6</ele>
        <time>2015-07-22T07:48:08Z</time>
      </trkpt>
      <trkpt lat="44.70718" lon="6.1258">
        <ele>1703.6</ele>
        <time>2015-07-22T07:49:23Z</time>
      </trkpt>
      <trkpt lat="44.70773" lon="6.12666">
        <ele>1692.8</ele>
        <time>2015-07-22T07:50:33Z</time>
      </trkpt>
      <trkpt lat="44.70818" lon="6.12559">
        <ele>1689.8</ele>
        <time>2015-07-22T07:52:13Z</time>
      </trkpt>
      <trkpt lat="44.70866" lon="6.12465">
        <ele>1675.9</ele>
        <time>2015-07-22T07:53:23Z</time>
      </trkpt>
      <trkpt lat="44.70905" lon="6.12359">
        <ele>1654.1</ele>
        <time>2015-07-22T07:54:33Z</time>
      </trkpt>
      <trkpt lat="44.70933" lon="6.12245">
        <ele>1650.6</ele>
        <time>2015-07-22T07:55:48Z</time>
      </trkpt>
      <trkpt lat="44.70997" lon="6.12168">
        <ele>1650.8</ele>
        <time>2015-07-22T07:56:58Z</time>
      </trkpt>
      <trkpt lat="44.71055" lon="6.12086">
        <ele>1647.6</ele>
        <time>2015-07-22T07:58:03Z</time>
      </trkpt>
      <trkpt lat="44.70973" lon="6.12113">
        <ele>1633.9</ele>
        <time>2015-07-22T08:06:38Z</time>
      </trkpt>
      <trkpt lat="44.70906" lon="6.12181">
        <ele>1623</ele>
        <time>2015-07-22T08:07:38Z</time>
      </trkpt>
      <trkpt lat="44.70852" lon="6.12273">
        <ele>1628.2</ele>
        <time>2015-07-22T08:08:38Z</time>
      </trkpt>
      <trkpt lat="44.70766" lon="6.12284">
        <ele>1602.1</ele>
        <time>2015-07-22T08:09:48Z</time>
      </trkpt>
      <trkpt lat="44.70731" lon="6.12176">
        <ele>1599.3</ele>
        <time>2015-07-22T08:10:48Z</time>
      </trkpt>
      <trkpt lat="44.70724" lon="6.12053">
        <ele>1590.6</ele>
        <time>2015-07-22T08:11:48Z</time>
      </trkpt>
      <trkpt lat="44.70704" lon="6.11941">
        <ele>1583.9</ele>
        <time>2015-07-22T08:12:43Z</time>
      </trkpt>
      <trkpt lat="44.70677" lon="6.11831">
        <ele>1576.4</ele>
        <time>2015-07-22T08:13:38Z</time>
      </trkpt>
      <trkpt lat="44.70624" lon="6.11742">
        <ele>1571</ele>
        <time>2015-07-22T08:14:38Z</time>
      </trkpt>
      <trkpt lat="44.70554" lon="6.11683">
        <ele>1561</ele>
        <time>2015-07-22T08:15:33Z</time>
      </trkpt>
      <trkpt lat="44.70471" lon="6.11709">
        <ele>1549.9</ele>
        <time>2015-07-22T08:16:28Z</time>
      </trkpt>
      <trkpt lat="44.70393" lon="6.11652">
        <ele>1542.5</ele>
        <time>2015-07-22T08:17:28Z</time>
      </trkpt>
      <trkpt lat="44.70462" lon="6.11581">
        <ele>1527.4</ele>
        <time>2015-07-22T08:20:08Z</time>
      </trkpt>
      <trkpt lat="44.70509" lon="6.11489">
        <ele>1518</ele>
        <time>2015-07-22T08:21:08Z</time>
      </trkpt>
      <trkpt lat="44.70591" lon="6.11469">
        <ele>1506.2</ele>
        <time>2015-07-22T08:22:08Z</time>
      </trkpt>
      <trkpt lat="44.70675" lon="6.1148">
        <ele>1496.7</ele>
        <time>2015-07-22T08:23:38Z</time>
      </trkpt>
      <trkpt lat="44.70747" lon="6.11415">
        <ele>1493.4</ele>
        <time>2015-07-22T08:24:43Z</time>
      </trkpt>
      <trkpt lat="44.70792" lon="6.11311">
        <ele>1502.8</ele>
        <time>2015-07-22T08:25:38Z</time>
      </trkpt>
      <trkpt lat="44.70775" lon="6.11196">
        <ele>1481.2</ele>
        <time>2015-07-22T08:26:43Z</time>
      </trkpt>
      <trkpt lat="44.70743" lon="6.1109">
        <ele>1472.6</ele>
        <time>2015-07-22T08:27:53Z</time>
      </trkpt>
      <trkpt lat="44.708" lon="6.11006">
        <ele>1472.4</ele>
        <time>2015-07-22T08:28:53Z</time>
      </trkpt>
      <trkpt lat="44.70867" lon="6.10933">
        <ele>1471</ele>
        <time>2015-07-22T08:29:58Z</time>
      </trkpt>
      <trkpt lat="44.70942" lon="6.1088">
        <ele>1458.9</ele>
        <time>2015-07-22T08:31:08Z</time>
      </trkpt>
      <trkpt lat="44.70862" lon="6.10896">
        <ele>1449.8</ele>
        <time>2015-07-22T08:32:43Z</time>
      </trkpt>
      <trkpt lat="44.70784" lon="6.10948">
        <ele>1437.6</ele>
        <time>2015-07-22T08:33:38Z</time>
      </trkpt>
      <trkpt lat="44.70701" lon="6.10967">
        <ele>1436</ele>
        <time>2015-07-22T08:34:48Z</time>
      </trkpt>
      <trkpt lat="44.70771" lon="6.10905">
        <ele>1427.9</ele>
        <time>2015-07-22T08:36:48Z</time>
      </trkpt>
      <trkpt lat="44.70838" lon="6.1084">
        <ele>1416.9</ele>
        <time>2015-07-22T08:37:59Z</time>
      </trkpt>
      <trkpt lat="44.70903" lon="6.10765">
        <ele>1409.4</ele>
        <time>2015-07-22T08:38:59Z</time>
      </trkpt>
      <trkpt lat="44.70963" lon="6.10685">
        <ele>1400.2</ele>
        <time>2015-07-22T08:39:59Z</time>
      </trkpt>
      <trkpt lat="44.71019" lon="6.10598">
        <ele>1399.7</ele>
        <time>2015-07-22T08:41:09Z</time>
      </trkpt>
      <trkpt lat="44.7106" lon="6.10498">
        <ele>1384.4</ele>
        <time>2015-07-22T08:42:49Z</time>
      </trkpt>
      <trkpt lat="44.71086" lon="6.1039">
        <ele>1383.2</ele>
        <time>2015-07-22T08:43:59Z</time>
      </trkpt>
      <trkpt lat="44.71119" lon="6.10279">
        <ele>1374</ele>
        <time>2015-07-22T08:45:04Z</time>
      </trkpt>
      <trkpt lat="44.71157" lon="6.10172">
        <ele>1353.2</ele>
        <time>2015-07-22T08:46:09Z</time>
      </trkpt>
      <trkpt lat="44.7119" lon="6.10068">
        <ele>1359.4</ele>
        <time>2015-07-22T08:47:29Z</time>
      </trkpt>
      <trkpt lat="44.71212" lon="6.09955">
        <ele>1370.3</ele>
        <time>2015-07-22T08:48:34Z</time>
      </trkpt>
      <trkpt lat="44.71213" lon="6.09835">
        <ele>1358.3</ele>
        <time>2015-07-22T08:49:44Z</time>
      </trkpt>
      <trkpt lat="44.71201" lon="6.09722">
        <ele>1353.3</ele>
        <time>2015-07-22T08:50:59Z</time>
      </trkpt>
      <trkpt lat="44.71219" lon="6.09608">
        <ele>1341.3</ele>
        <time>2015-07-22T08:52:34Z</time>
      </trkpt>
      <trkpt lat="44.71245" lon="6.09498">
        <ele>1316.9</ele>
        <time>2015-07-22T08:54:24Z</time>
      </trkpt>
      <trkpt lat="44.7126" lon="6.09384">
        <ele>1291.2</ele>
        <time>2015-07-22T08:55:39Z</time>
      </trkpt>
      <trkpt lat="44.71222" lon="6.09284">
        <ele>1287.1</ele>
        <time>2015-07-22T08:56:34Z</time>
      </trkpt>
      <trkpt lat="44.71169" lon="6.09195">
        <ele>1291.9</ele>
        <time>2015-07-22T08:57:36Z</time>
      </trkpt>
      <trkpt lat="44.71175" lon="6.09074">
        <ele>1276.3</ele>
        <time>2015-07-22T09:05:18Z</time>
      </trkpt>
      <trkpt lat="44.71177" lon="6.08955">
        <ele>1261.5</ele>
        <time>2015-07-22T09:06:24Z</time>
      </trkpt>
      <trkpt lat="44.712" lon="6.08841">
        <ele>1262.2</ele>
        <time>2015-07-22T09:08:14Z</time>
      </trkpt>
      <trkpt lat="44.7122" lon="6.08727">
        <ele>1282.8</ele>
        <time>2015-07-22T09:09:46Z</time>
      </trkpt>
      <trkpt lat="44.71262" lon="6.08628">
        <ele>1309.3</ele>
        <time>2015-07-22T09:11:11Z</time>
      </trkpt>
      <trkpt lat="44.71291" lon="6.08518">
        <ele>1312.9</ele>
        <time>2015-07-22T09:12:56Z</time>
      </trkpt>
      <trkpt lat="44.71321" lon="6.08407">
        <ele>1307.5</ele>
        <time>2015-07-22T09:14:40Z</time>
      </trkpt>
      <trkpt lat="44.71301" lon="6.08292">
        <ele>1298.9</ele>
        <time>2015-07-22T09:15:50Z</time>
      </trkpt>
      <trkpt lat="44.71272" lon="6.08183">
        <ele>1292.5</ele>
        <time>2015-07-22T09:16:55Z</time>
      </trkpt>
      <trkpt lat="44.71259" lon="6.0807">
        <ele>1279.2</ele>
        <time>2015-07-22T09:17:55Z</time>
      </trkpt>
      <trkpt lat="44.7127" lon="6.07948">
        <ele>1272.4</ele>
        <time>2015-07-22T09:19:00Z</time>
      </trkpt>
      <trkpt lat="44.71311" lon="6.07848">
        <ele>1266.5</ele>
        <time>2015-07-22T09:20:05Z</time>
      </trkpt>
      <trkpt lat="44.71382" lon="6.07795">
        <ele>1259.1</ele>
        <time>2015-07-22T09:21:10Z</time>
      </trkpt>
      <trkpt lat="44.71452" lon="6.0773">
        <ele>1242.8</ele>
        <time>2015-07-22T09:22:15Z</time>
      </trkpt>
      <trkpt lat="44.71506" lon="6.07642">
        <ele>1238.7</ele>
        <time>2015-07-22T09:23:15Z</time>
      </trkpt>
      <trkpt lat="44.71579" lon="6.07591">
        <ele>1235</ele>
        <time>2015-07-22T09:24:20Z</time>
      </trkpt>
      <trkpt lat="44.7165" lon="6.07528">
        <ele>1225</ele>
        <time>2015-07-22T09:25:45Z</time>
      </trkpt>
      <trkpt lat="44.71642" lon="6.07414">
        <ele>1212.5</ele>
        <time>2015-07-22T09:27:30Z</time>
      </trkpt>
      <trkpt lat="44.71591" lon="6.07315">
        <ele>1202.1</ele>
        <time>2015-07-22T09:29:55Z</time>
      </trkpt>
      <trkpt lat="44.71549" lon="6.07215">
        <ele>1190.5</ele>
        <time>2015-07-22T09:30:50Z</time>
      </trkpt>
      <trkpt lat="44.71511" lon="6.07113">
        <ele>1183.4</ele>
        <time>2015-07-22T09:31:45Z</time>
      </trkpt>
      <trkpt lat="44.71483" lon="6.06998">
        <ele>1169</ele>
        <time>2015-07-22T09:32:55Z</time>
      </trkpt>
      <trkpt lat="44.71503" lon="6.06882">
        <ele>1163.7</ele>
        <time>2015-07-22T09:34:10Z</time>
      </trkpt>
      <trkpt lat="44.71563" lon="6.06801">
        <ele>1160.3</ele>
        <time>2015-07-22T09:35:20Z</time>
      </trkpt>
      <trkpt lat="44.71627" lon="6.06725">
        <ele>1160.8</ele>
        <time>2015-07-22T09:40:52Z</time>
      </trkpt>
      <trkpt lat="44.71682" lon="6.06637">
        <ele>1153</ele>
        <time>2015-07-22T09:41:57Z</time>
      </trkpt>
      <trkpt lat="44.71745" lon="6.06563">
        <ele>1156.3</ele>
        <time>2015-07-22T09:43:07Z</time>
      </trkpt>
      <trkpt lat="44.71824" lon="6.06531">
        <ele>1148.8</ele>
        <time>2015-07-22T09:44:32Z</time>
      </trkpt>
      <trkpt lat="44.71899" lon="6.06483">
        <ele>1145.1</ele>
        <time>2015-07-22T09:45:37Z</time>
      </trkpt>
      <trkpt lat="44.71973" lon="6.06437">
        <ele>1138.6</ele>
        <time>2015-07-22T09:46:42Z</time>
      </trkpt>
      <trkpt lat="44.72054" lon="6.06399">
        <ele>1137.5</ele>
        <time>2015-07-22T09:48:27Z</time>
      </trkpt>
      <trkpt lat="44.72136" lon="6.06428">
        <ele>1132</ele>
        <time>2015-07-22T10:09:03Z</time>
      </trkpt>
      <trkpt lat="44.72217" lon="6.06456">
        <ele>1133</ele>
        <time>2015-07-22T10:10:23Z</time>
      </trkpt>
      <trkpt lat="44.72299" lon="6.06476">
        <ele>1137.1</ele>
        <time>2015-07-22T10:13:03Z</time>
      </trkpt>
      <trkpt lat="44.72372" lon="6.06528">
        <ele>1142.4</ele>
        <time>2015-07-22T10:14:24Z</time>
      </trkpt>
      <trkpt lat="44.72415" lon="6.06626">
        <ele>1138.7</ele>
        <time>2015-07-22T10:15:49Z</time>
      </trkpt>
      <trkpt lat="44.72495" lon="6.06654">
        <ele>1113.7</ele>
        <time>2015-07-22T10:17:49Z</time>
      </trkpt>
      <trkpt lat="44.72558" lon="6.06727">
        <ele>1090.5</ele>
        <time>2015-07-22T10:19:29Z</time>
      </trkpt>
      <trkpt lat="44.72639" lon="6.06705">
        <ele>1067</ele>
        <time>2015-07-22T10:21:39Z</time>
      </trkpt>
      <trkpt lat="44.72723" lon="6.06722">
        <ele>1070.7</ele>
        <time>2015-07-22T10:23:09Z</time>
      </trkpt>
      <trkpt lat="44.72798" lon="6.06765">
        <ele>1072</ele>
        <time>2015-07-22T10:25:09Z</time>
      </trkpt>
      <trkpt lat="44.72875" lon="6.06808">
        <ele>1082.5</ele>
        <time>2015-07-22T10:26:24Z</time>
      </trkpt>
      <trkpt lat="44.72948" lon="6.0686">
        <ele>1082.4</ele>
        <time>2015-07-22T10:27:34Z</time>
      </trkpt>
      <trkpt lat="44.73022" lon="6.06913">
        <ele>1080.4</ele>
        <time>2015-07-22T10:28:39Z</time>
      </trkpt>
      <trkpt lat="44.73103" lon="6.06875">
        <ele>1083.8</ele>
        <time>2015-07-22T10:29:49Z</time>
      </trkpt>
      <trkpt lat="44.73137" lon="6.0677">
        <ele>1092.8</ele>
        <time>2015-07-22T10:31:24Z</time>
      </trkpt>
      <trkpt lat="44.73193" lon="6.06685">
        <ele>1106.8</ele>
        <time>2015-07-22T10:32:54Z</time>
      </trkpt>
      <trkpt lat="44.73261" lon="6.06611">
        <ele>1120.9</ele>
        <time>2015-07-22T10:35:09Z</time>
      </trkpt>
      <trkpt lat="44.73289" lon="6.06504">
        <ele>1129.2</ele>
        <time>2015-07-22T10:36:24Z</time>
      </trkpt>
      <trkpt lat="44.73311" lon="6.06393">
        <ele>1131.8</ele>
        <time>2015-07-22T10:37:39Z</time>
      </trkpt>
      <trkpt lat="44.73345" lon="6.06287">
        <ele>1142.4</ele>
        <time>2015-07-22T10:38:59Z</time>
      </trkpt>
      <trkpt lat="44.73391" lon="6.06186">
        <ele>1136.5</ele>
        <time>2015-07-22T10:40:09Z</time>
      </trkpt>
      <trkpt lat="44.73431" lon="6.06082">
        <ele>1135</ele>
        <time>2015-07-22T10:41:19Z</time>
      </trkpt>
      <trkpt lat="44.73466" lon="6.05979">
        <ele>1138.6</ele>
        <time>2015-07-22T10:42:34Z</time>
      </trkpt>
      <trkpt lat="44.73517" lon="6.05884">
        <ele>1142.1</ele>
        <time>2015-07-22T10:43:59Z</time>
      </trkpt>
      <trkpt lat="44.73567" lon="6.05788">
        <ele>1150.1</ele>
        <time>2015-07-22T10:47:14Z</time>
      </trkpt>
      <trkpt lat="44.73601" lon="6.05683">
        <ele>1151.8</ele>
        <time>2015-07-22T10:48:49Z</time>
      </trkpt>
      <trkpt lat="44.7362" lon="6.05571">
        <ele>1167.6</ele>
        <time>2015-07-22T10:50:54Z</time>
      </trkpt>
      <trkpt lat="44.73605" lon="6.05454">
        <ele>1182.4</ele>
        <time>2015-07-22T10:52:19Z</time>
      </trkpt>
      <trkpt lat="44.73641" lon="6.05346">
        <ele>1198.1</ele>
        <time>2015-07-22T10:54:39Z</time>
      </trkpt>
      <trkpt lat="44.737" lon="6.0526">
        <ele>1211.3</ele>
        <time>2015-07-22T10:55:59Z</time>
      </trkpt>
      <trkpt lat="44.73753" lon="6.0517">
        <ele>1224</ele>
        <time>2015-07-22T10:59:59Z</time>
      </trkpt>
      <trkpt lat="44.73835" lon="6.05137">
        <ele>1211.8</ele>
        <time>2015-07-22T11:01:09Z</time>
      </trkpt>
      <trkpt lat="44.73906" lon="6.05075">
        <ele>1198.3</ele>
        <time>2015-07-22T11:02:09Z</time>
      </trkpt>
      <trkpt lat="44.73967" lon="6.05">
        <ele>1193.1</ele>
        <time>2015-07-22T11:03:14Z</time>
      </trkpt>
      <trkpt lat="44.74022" lon="6.0491">
        <ele>1171.7</ele>
        <time>2015-07-22T11:05:01Z</time>
      </trkpt>
      <trkpt lat="44.74092" lon="6.0484">
        <ele>1160.1</ele>
        <time>2015-07-22T11:06:11Z</time>
      </trkpt>
      <trkpt lat="44.74167" lon="6.04783">
        <ele>1160.8</ele>
        <time>2015-07-22T11:07:21Z</time>
      </trkpt>
      <trkpt lat="44.74238" lon="6.04717">
        <ele>1160.1</ele>
        <time>2015-07-22T11:08:36Z</time>
      </trkpt>
      <trkpt lat="44.74277" lon="6.0461">
        <ele>1157.7</ele>
        <time>2015-07-22T11:09:51Z</time>
      </trkpt>
      <trkpt lat="44.74342" lon="6.04534">
        <ele>1172.1</ele>
        <time>2015-07-22T11:11:01Z</time>
      </trkpt>
      <trkpt lat="44.74403" lon="6.0445">
        <ele>1158.8</ele>
        <time>2015-07-22T11:12:11Z</time>
      </trkpt>
      <trkpt lat="44.74456" lon="6.04359">
        <ele>1161</ele>
        <time>2015-07-22T11:13:31Z</time>
      </trkpt>
      <trkpt lat="44.74522" lon="6.0429">
        <ele>1162.7</ele>
        <time>2015-07-22T11:14:36Z</time>
      </trkpt>
      <trkpt lat="44.74604" lon="6.04313">
        <ele>1168.3</ele>
        <time>2015-07-22T11:15:46Z</time>
      </trkpt>
      <trkpt lat="44.74659" lon="6.04224">
        <ele>1162.7</ele>
        <time>2015-07-22T11:16:56Z</time>
      </trkpt>
      <trkpt lat="44.74693" lon="6.04117">
        <ele>1158.4</ele>
        <time>2015-07-22T11:18:01Z</time>
      </trkpt>
      <trkpt lat="44.74714" lon="6.04002">
        <ele>1164.3</ele>
        <time>2015-07-22T11:19:11Z</time>
      </trkpt>
      <trkpt lat="44.74721" lon="6.03885">
        <ele>1162</ele>
        <time>2015-07-22T11:20:26Z</time>
      </trkpt>
      <trkpt lat="44.7479" lon="6.03818">
        <ele>1176.2</ele>
        <time>2015-07-22T11:21:53Z</time>
      </trkpt>
      <trkpt lat="44.7487" lon="6.03842">
        <ele>1207.1</ele>
        <time>2015-07-22T11:25:24Z</time>
      </trkpt>
      <trkpt lat="44.74954" lon="6.0385">
        <ele>1208.2</ele>
        <time>2015-07-22T11:26:34Z</time>
      </trkpt>
      <trkpt lat="44.75033" lon="6.03883">
        <ele>1208.6</ele>
        <time>2015-07-22T11:28:04Z</time>
      </trkpt>
      <trkpt lat="44.75116" lon="6.03909">
        <ele>1215.8</ele>
        <time>2015-07-22T11:29:49Z</time>
      </trkpt>
      <trkpt lat="44.75202" lon="6.03924">
        <ele>1221</ele>
        <time>2015-07-22T11:31:09Z</time>
      </trkpt>
      <trkpt lat="44.75283" lon="6.03927">
        <ele>1233.3</ele>
        <time>2015-07-22T11:32:14Z</time>
      </trkpt>
      <trkpt lat="44.75343" lon="6.0385">
        <ele>1231.4</ele>
        <time>2015-07-22T11:33:24Z</time>
      </trkpt>
      <trkpt lat="44.75304" lon="6.03744">
        <ele>1225.5</ele>
        <time>2015-07-22T11:34:34Z</time>
      </trkpt>
      <trkpt lat="44.75389" lon="6.03712">
        <ele>1225.9</ele>
        <time>2015-07-22T11:37:49Z</time>
      </trkpt>
      <trkpt lat="44.75404" lon="6.03594">
        <ele>1217.2</ele>
        <time>2015-07-22T11:39:49Z</time>
      </trkpt>
      <trkpt lat="44.75448" lon="6.03498">
        <ele>1213</ele>
        <time>2015-07-22T11:40:49Z</time>
      </trkpt>
      <trkpt lat="44.755" lon="6.03405">
        <ele>1202.2</ele>
        <time>2015-07-22T11:41:59Z</time>
      </trkpt>
      <trkpt lat="44.75546" lon="6.03299">
        <ele>1203.9</ele>
        <time>2015-07-22T11:42:59Z</time>
      </trkpt>
      <trkpt lat="44.75557" lon="6.03186">
        <ele>1194.7</ele>
        <time>2015-07-22T11:44:24Z</time>
      </trkpt>
      <trkpt lat="44.75523" lon="6.03083">
        <ele>1192.1</ele>
        <time>2015-07-22T12:00:33Z</time>
      </trkpt>
      <trkpt lat="44.75604" lon="6.03092">
        <ele>1159.3</ele>
        <time>2015-07-22T12:04:13Z</time>
      </trkpt>
      <trkpt lat="44.75675" lon="6.03153">
        <ele>1149.4</ele>
        <time>2015-07-22T12:05:23Z</time>
      </trkpt>
      <trkpt lat="44.75728" lon="6.03246">
        <ele>1149.1</ele>
        <time>2015-07-22T12:06:38Z</time>
      </trkpt>
      <trkpt lat="44.75811" lon="6.03273">
        <ele>1130.1</ele>
        <time>2015-07-22T12:07:48Z</time>
      </trkpt>
      <trkpt lat="44.75883" lon="6.03332">
        <ele>1129.3</ele>
        <time>2015-07-22T12:08:53Z</time>
      </trkpt>
      <trkpt lat="44.75961" lon="6.03385">
        <ele>1116.9</ele>
        <time>2015-07-22T12:10:03Z</time>
      </trkpt>
      <trkpt lat="44.76042" lon="6.03418">
        <ele>1104.9</ele>
        <time>2015-07-22T12:11:23Z</time>
      </trkpt>
      <trkpt lat="44.76122" lon="6.03462">
        <ele>1105.3</ele>
        <time>2015-07-22T12:12:38Z</time>
      </trkpt>
      <trkpt lat="44.76204" lon="6.03486">
        <ele>1086.6</ele>
        <time>2015-07-22T12:13:53Z</time>
      </trkpt>
      <trkpt lat="44.7628" lon="6.03539">
        <ele>1084.5</ele>
        <time>2015-07-22T12:15:13Z</time>
      </trkpt>
      <trkpt lat="44.76356" lon="6.03577">
        <ele>1073</ele>
        <time>2015-07-22T12:16:18Z</time>
      </trkpt>
      <trkpt lat="44.76352" lon="6.03462">
        <ele>1067.8</ele>
        <time>2015-07-22T12:20:43Z</time>
      </trkpt>
      <trkpt lat="44.76332" lon="6.03349">
        <ele>1050.2</ele>
        <time>2015-07-22T12:21:53Z</time>
      </trkpt>
      <trkpt lat="44.76371" lon="6.03245">
        <ele>1021.7</ele>
        <time>2015-07-22T12:23:18Z</time>
      </trkpt>
      <trkpt lat="44.76452" lon="6.03221">
        <ele>1009.3</ele>
        <time>2015-07-22T12:26:48Z</time>
      </trkpt>
      <trkpt lat="44.76531" lon="6.03171">
        <ele>989</ele>
        <time>2015-07-22T12:28:08Z</time>
      </trkpt>
      <trkpt lat="44.76611" lon="6.03193">
        <ele>985.1</ele>
        <time>2015-07-22T12:30:28Z</time>
      </trkpt>
      <trkpt lat="44.76838" lon="6.03238">
        <ele>996.9</ele>
        <time>2015-07-23T06:10:31Z</time>
      </trkpt>
      <trkpt lat="44.76916" lon="6.03282">
        <ele>1013.5</ele>
        <time>2015-07-23T06:11:50Z</time>
      </trkpt>
      <trkpt lat="44.76927" lon="6.03399">
        <ele>1033.9</ele>
        <time>2015-07-23T06:13:15Z</time>
      </trkpt>
      <trkpt lat="44.76916" lon="6.03517">
        <ele>1030.5</ele>
        <time>2015-07-23T06:14:30Z</time>
      </trkpt>
      <trkpt lat="44.76881" lon="6.03623">
        <ele>973.9</ele>
        <time>2015-07-23T06:16:00Z</time>
      </trkpt>
      <trkpt lat="44.76902" lon="6.03738">
        <ele>973.1</ele>
        <time>2015-07-23T06:17:55Z</time>
      </trkpt>
      <trkpt lat="44.76957" lon="6.03827">
        <ele>988.7</ele>
        <time>2015-07-23T06:19:15Z</time>
      </trkpt>
      <trkpt lat="44.76883" lon="6.03878">
        <ele>1005.2</ele>
        <time>2015-07-23T06:22:40Z</time>
      </trkpt>
      <trkpt lat="44.76967" lon="6.03893">
        <ele>989.2</ele>
        <time>2015-07-23T06:24:30Z</time>
      </trkpt>
      <trkpt lat="44.77052" lon="6.03928">
        <ele>976.7</ele>
        <time>2015-07-23T06:26:51Z</time>
      </trkpt>
      <trkpt lat="44.77129" lon="6.03977">
        <ele>967.7</ele>
        <time>2015-07-23T06:28:16Z</time>
      </trkpt>
      <trkpt lat="44.77205" lon="6.04021">
        <ele>979.3</ele>
        <time>2015-07-23T06:29:28Z</time>
      </trkpt>
      <trkpt lat="44.77245" lon="6.04126">
        <ele>952.2</ele>
        <time>2015-07-23T06:30:45Z</time>
      </trkpt>
      <trkpt lat="44.77303" lon="6.04212">
        <ele>960.3</ele>
        <time>2015-07-23T06:32:01Z</time>
      </trkpt>
      <trkpt lat="44.77384" lon="6.04195">
        <ele>951.6</ele>
        <time>2015-07-23T06:33:31Z</time>
      </trkpt>
      <trkpt lat="44.77468" lon="6.04216">
        <ele>931.2</ele>
        <time>2015-07-23T06:35:52Z</time>
      </trkpt>
      <trkpt lat="44.77522" lon="6.04307">
        <ele>922.9</ele>
        <time>2015-07-23T06:36:58Z</time>
      </trkpt>
      <trkpt lat="44.77583" lon="6.04382">
        <ele>928</ele>
        <time>2015-07-23T06:38:33Z</time>
      </trkpt>
      <trkpt lat="44.77593" lon="6.04496">
        <ele>934.8</ele>
        <time>2015-07-23T06:40:13Z</time>
      </trkpt>
      <trkpt lat="44.7763" lon="6.04597">
        <ele>927</ele>
        <time>2015-07-23T06:41:35Z</time>
      </trkpt>
      <trkpt lat="44.77639" lon="6.04716">
        <ele>943.4</ele>
        <time>2015-07-23T06:43:05Z</time>
      </trkpt>
      <trkpt lat="44.77623" lon="6.04832">
        <ele>956.9</ele>
        <time>2015-07-23T06:44:25Z</time>
      </trkpt>
      <trkpt lat="44.77591" lon="6.04947">
        <ele>987.2</ele>
        <time>2015-07-23T06:45:40Z</time>
      </trkpt>
      <trkpt lat="44.77568" lon="6.05058">
        <ele>958.9</ele>
        <time>2015-07-23T06:46:55Z</time>
      </trkpt>
      <trkpt lat="44.77587" lon="6.05178">
        <ele>956.6</ele>
        <time>2015-07-23T06:48:11Z</time>
      </trkpt>
      <trkpt lat="44.77627" lon="6.05284">
        <ele>957.9</ele>
        <time>2015-07-23T06:49:33Z</time>
      </trkpt>
      <trkpt lat="44.77669" lon="6.05384">
        <ele>944.6</ele>
        <time>2015-07-23T06:50:50Z</time>
      </trkpt>
      <trkpt lat="44.777" lon="6.05492">
        <ele>950.7</ele>
        <time>2015-07-23T06:52:50Z</time>
      </trkpt>
      <trkpt lat="44.77707" lon="6.05605">
        <ele>944.1</ele>
        <time>2015-07-23T06:54:02Z</time>
      </trkpt>
      <trkpt lat="44.77735" lon="6.05718">
        <ele>927.5</ele>
        <time>2015-07-23T06:55:18Z</time>
      </trkpt>
      <trkpt lat="44.77806" lon="6.0579">
        <ele>939.9</ele>
        <time>2015-07-23T06:56:23Z</time>
      </trkpt>
      <trkpt lat="44.77844" lon="6.05893">
        <ele>925.2</ele>
        <time>2015-07-23T06:57:33Z</time>
      </trkpt>
      <trkpt lat="44.77878" lon="6.06005">
        <ele>910.8</ele>
        <time>2015-07-23T06:58:43Z</time>
      </trkpt>
      <trkpt lat="44.77913" lon="6.0611">
        <ele>890.1</ele>
        <time>2015-07-23T06:59:48Z</time>
      </trkpt>
      <trkpt lat="44.77964" lon="6.06204">
        <ele>917.2</ele>
        <time>2015-07-23T07:00:58Z</time>
      </trkpt>
      <trkpt lat="44.77999" lon="6.06313">
        <ele>908.9</ele>
        <time>2015-07-23T07:02:08Z</time>
      </trkpt>
      <trkpt lat="44.78027" lon="6.06425">
        <ele>920.4</ele>
        <time>2015-07-23T07:03:23Z</time>
      </trkpt>
      <trkpt lat="44.78112" lon="6.06442">
        <ele>918.2</ele>
        <time>2015-07-23T07:04:38Z</time>
      </trkpt>
      <trkpt lat="44.7819" lon="6.0648">
        <ele>919.8</ele>
        <time>2015-07-23T07:05:53Z</time>
      </trkpt>
      <trkpt lat="44.7827" lon="6.06459">
        <ele>907.8</ele>
        <time>2015-07-23T07:07:33Z</time>
      </trkpt>
      <trkpt lat="44.78344" lon="6.06517">
        <ele>906.4</ele>
        <time>2015-07-23T07:08:43Z</time>
      </trkpt>
      <trkpt lat="44.78388" lon="6.06409">
        <ele>882.2</ele>
        <time>2015-07-23T07:09:48Z</time>
      </trkpt>
      <trkpt lat="44.78377" lon="6.06292">
        <ele>881.4</ele>
        <time>2015-07-23T07:10:48Z</time>
      </trkpt>
      <trkpt lat="44.78388" lon="6.06173">
        <ele>887.4</ele>
        <time>2015-07-23T07:12:23Z</time>
      </trkpt>
      <trkpt lat="44.78342" lon="6.06072">
        <ele>880.4</ele>
        <time>2015-07-23T07:13:28Z</time>
      </trkpt>
      <trkpt lat="44.783" lon="6.05969">
        <ele>877.8</ele>
        <time>2015-07-23T07:14:28Z</time>
      </trkpt>
      <trkpt lat="44.7828" lon="6.05852">
        <ele>879.1</ele>
        <time>2015-07-23T07:17:08Z</time>
      </trkpt>
      <trkpt lat="44.78266" lon="6.05737">
        <ele>877.9</ele>
        <time>2015-07-23T07:18:08Z</time>
      </trkpt>
      <trkpt lat="44.78295" lon="6.05627">
        <ele>874</ele>
        <time>2015-07-23T07:20:28Z</time>
      </trkpt>
      <trkpt lat="44.78288" lon="6.05507">
        <ele>890.4</ele>
        <time>2015-07-23T07:21:53Z</time>
      </trkpt>
      <trkpt lat="44.78272" lon="6.0539">
        <ele>894</ele>
        <time>2015-07-23T07:23:03Z</time>
      </trkpt>
      <trkpt lat="44.7836" lon="6.05401">
        <ele>900.1</ele>
        <time>2015-07-23T07:26:03Z</time>
      </trkpt>
      <trkpt lat="44.78386" lon="6.0529">
        <ele>923.7</ele>
        <time>2015-07-23T07:27:43Z</time>
      </trkpt>
      <trkpt lat="44.78375" lon="6.05174">
        <ele>931.5</ele>
        <time>2015-07-23T07:28:58Z</time>
      </trkpt>
      <trkpt lat="44.78449" lon="6.05126">
        <ele>937.7</ele>
        <time>2015-07-23T07:31:08Z</time>
      </trkpt>
      <trkpt lat="44.78509" lon="6.05045">
        <ele>954.8</ele>
        <time>2015-07-23T07:32:33Z</time>
      </trkpt>
      <trkpt lat="44.78545" lon="6.04935">
        <ele>968</ele>
        <time>2015-07-23T07:33:58Z</time>
      </trkpt>
      <trkpt lat="44.78568" lon="6.04824">
        <ele>973</ele>
        <time>2015-07-23T07:35:08Z</time>
      </trkpt>
      <trkpt lat="44.78573" lon="6.04708">
        <ele>980.1</ele>
        <time>2015-07-23T07:36:13Z</time>
      </trkpt>
      <trkpt lat="44.78589" lon="6.04591">
        <ele>990.6</ele>
        <time>2015-07-23T07:37:33Z</time>
      </trkpt>
      <trkpt lat="44.78584" lon="6.04471">
        <ele>996.2</ele>
        <time>2015-07-23T07:38:43Z</time>
      </trkpt>
      <trkpt lat="44.78619" lon="6.04363">
        <ele>995.8</ele>
        <time>2015-07-23T07:40:03Z</time>
      </trkpt>
      <trkpt lat="44.78641" lon="6.04249">
        <ele>1011.2</ele>
        <time>2015-07-23T07:41:53Z</time>
      </trkpt>
      <trkpt lat="44.78664" lon="6.04138">
        <ele>1010.6</ele>
        <time>2015-07-23T07:43:03Z</time>
      </trkpt>
      <trkpt lat="44.78676" lon="6.04011">
        <ele>1017.4</ele>
        <time>2015-07-23T07:45:33Z</time>
      </trkpt>
      <trkpt lat="44.78647" lon="6.03901">
        <ele>1029.2</ele>
        <time>2015-07-23T07:46:58Z</time>
      </trkpt>
      <trkpt lat="44.78654" lon="6.03784">
        <ele>1045.8</ele>
        <time>2015-07-23T07:48:58Z</time>
      </trkpt>
      <trkpt lat="44.78722" lon="6.03714">
        <ele>1063.6</ele>
        <time>2015-07-23T07:52:25Z</time>
      </trkpt>
      <trkpt lat="44.78692" lon="6.03607">
        <ele>1048.6</ele>
        <time>2015-07-23T07:55:50Z</time>
      </trkpt>
      <trkpt lat="44.78712" lon="6.03491">
        <ele>1020.8</ele>
        <time>2015-07-23T07:57:05Z</time>
      </trkpt>
      <trkpt lat="44.78696" lon="6.03377">
        <ele>1035.7</ele>
        <time>2015-07-23T07:58:35Z</time>
      </trkpt>
      <trkpt lat="44.78699" lon="6.0326">
        <ele>1056.1</ele>
        <time>2015-07-23T08:02:17Z</time>
      </trkpt>
      <trkpt lat="44.78735" lon="6.03157">
        <ele>1110</ele>
        <time>2015-07-23T08:05:37Z</time>
      </trkpt>
      <trkpt lat="44.78789" lon="6.0307">
        <ele>1123.8</ele>
        <time>2015-07-23T08:08:12Z</time>
      </trkpt>
      <trkpt lat="44.78761" lon="6.02956">
        <ele>1131.5</ele>
        <time>2015-07-23T08:09:48Z</time>
      </trkpt>
      <trkpt lat="44.78703" lon="6.02876">
        <ele>1131.1</ele>
        <time>2015-07-23T08:12:10Z</time>
      </trkpt>
      <trkpt lat="44.78658" lon="6.02775">
        <ele>1147.5</ele>
        <time>2015-07-23T08:14:49Z</time>
      </trkpt>
      <trkpt lat="44.78637" lon="6.02664">
        <ele>1175.4</ele>
        <time>2015-07-23T08:19:14Z</time>
      </trkpt>
      <trkpt lat="44.78642" lon="6.02548">
        <ele>1250.7</ele>
        <time>2015-07-23T08:22:54Z</time>
      </trkpt>
      <trkpt lat="44.78715" lon="6.02494">
        <ele>1216.8</ele>
        <time>2015-07-23T08:24:31Z</time>
      </trkpt>
      <trkpt lat="44.78647" lon="6.02562">
        <ele>1186.2</ele>
        <time>2015-07-23T08:28:48Z</time>
      </trkpt>
      <trkpt lat="44.78674" lon="6.02446">
        <ele>1170.5</ele>
        <time>2015-07-23T08:30:03Z</time>
      </trkpt>
      <trkpt lat="44.78703" lon="6.02339">
        <ele>1182.1</ele>
        <time>2015-07-23T08:31:53Z</time>
      </trkpt>
      <trkpt lat="44.78718" lon="6.02222">
        <ele>1207.9</ele>
        <time>2015-07-23T08:33:20Z</time>
      </trkpt>
      <trkpt lat="44.78647" lon="6.02167">
        <ele>1155.2</ele>
        <time>2015-07-23T08:34:40Z</time>
      </trkpt>
      <trkpt lat="44.78656" lon="6.02053">
        <ele>1145.8</ele>
        <time>2015-07-23T08:35:44Z</time>
      </trkpt>
      <trkpt lat="44.78676" lon="6.01936">
        <ele>1152.8</ele>
        <time>2015-07-23T08:37:11Z</time>
      </trkpt>
      <trkpt lat="44.78649" lon="6.0182">
        <ele>1152.8</ele>
        <time>2015-07-23T08:38:23Z</time>
      </trkpt>
      <trkpt lat="44.78583" lon="6.01751">
        <ele>1138.9</ele>
        <time>2015-07-23T08:39:52Z</time>
      </trkpt>
      <trkpt lat="44.7866" lon="6.0179">
        <ele>1153.5</ele>
        <time>2015-07-23T08:44:24Z</time>
      </trkpt>
      <trkpt lat="44.78733" lon="6.01738">
        <ele>1184.1</ele>
        <time>2015-07-23T08:52:38Z</time>
      </trkpt>
      <trkpt lat="44.78768" lon="6.01635">
        <ele>1175.2</ele>
        <time>2015-07-23T08:54:18Z</time>
      </trkpt>
      <trkpt lat="44.78734" lon="6.01523">
        <ele>1179.7</ele>
        <time>2015-07-23T08:55:18Z</time>
      </trkpt>
      <trkpt lat="44.78706" lon="6.0141">
        <ele>1182.3</ele>
        <time>2015-07-23T08:56:20Z</time>
      </trkpt>
      <trkpt lat="44.78703" lon="6.01289">
        <ele>1168.6</ele>
        <time>2015-07-23T08:57:25Z</time>
      </trkpt>
      <trkpt lat="44.78714" lon="6.01172">
        <ele>1160.8</ele>
        <time>2015-07-23T08:58:30Z</time>
      </trkpt>
      <trkpt lat="44.78738" lon="6.01056">
        <ele>1151.5</ele>
        <time>2015-07-23T09:00:05Z</time>
      </trkpt>
      <trkpt lat="44.78774" lon="6.00953">
        <ele>1136.9</ele>
        <time>2015-07-23T09:01:45Z</time>
      </trkpt>
      <trkpt lat="44.78823" lon="6.0086">
        <ele>1125.5</ele>
        <time>2015-07-23T09:03:00Z</time>
      </trkpt>
      <trkpt lat="44.78771" lon="6.00956">
        <ele>1138</ele>
        <time>2015-07-23T10:29:35Z</time>
      </trkpt>
      <trkpt lat="44.78733" lon="6.01059">
        <ele>1151</ele>
        <time>2015-07-23T10:30:45Z</time>
      </trkpt>
      <trkpt lat="44.78711" lon="6.01171">
        <ele>1165.6</ele>
        <time>2015-07-23T10:31:55Z</time>
      </trkpt>
      <trkpt lat="44.78697" lon="6.01291">
        <ele>1181.3</ele>
        <time>2015-07-23T10:33:10Z</time>
      </trkpt>
      <trkpt lat="44.78705" lon="6.0141">
        <ele>1183.4</ele>
        <time>2015-07-23T10:34:20Z</time>
      </trkpt>
      <trkpt lat="44.78726" lon="6.01527">
        <ele>1190.8</ele>
        <time>2015-07-23T10:35:30Z</time>
      </trkpt>
      <trkpt lat="44.78754" lon="6.01639">
        <ele>1204</ele>
        <time>2015-07-23T10:36:40Z</time>
      </trkpt>
      <trkpt lat="44.78716" lon="6.01743">
        <ele>1173.9</ele>
        <time>2015-07-23T10:38:05Z</time>
      </trkpt>
      <trkpt lat="44.78763" lon="6.01646">
        <ele>1192.1</ele>
        <time>2015-07-23T10:43:45Z</time>
      </trkpt>
      <trkpt lat="44.78732" lon="6.01535">
        <ele>1187.6</ele>
        <time>2015-07-23T10:44:50Z</time>
      </trkpt>
      <trkpt lat="44.7871" lon="6.01423">
        <ele>1183.8</ele>
        <time>2015-07-23T10:45:55Z</time>
      </trkpt>
      <trkpt lat="44.78699" lon="6.01309">
        <ele>1173.9</ele>
        <time>2015-07-23T10:47:00Z</time>
      </trkpt>
      <trkpt lat="44.78711" lon="6.01195">
        <ele>1163.4</ele>
        <time>2015-07-23T10:48:05Z</time>
      </trkpt>
      <trkpt lat="44.7873" lon="6.0108">
        <ele>1156.6</ele>
        <time>2015-07-23T10:49:15Z</time>
      </trkpt>
      <trkpt lat="44.78764" lon="6.00973">
        <ele>1144.2</ele>
        <time>2015-07-23T10:50:20Z</time>
      </trkpt>
      <trkpt lat="44.78817" lon="6.00877">
        <ele>1131.1</ele>
        <time>2015-07-23T10:51:25Z</time>
      </trkpt>
      <trkpt lat="44.78887" lon="6.00809">
        <ele>1128.4</ele>
        <time>2015-07-23T10:53:00Z</time>
      </trkpt>
      <trkpt lat="44.78967" lon="6.00783">
        <ele>1134.1</ele>
        <time>2015-07-23T10:54:10Z</time>
      </trkpt>
      <trkpt lat="44.79035" lon="6.00847">
        <ele>1134.5</ele>
        <time>2015-07-23T10:55:20Z</time>
      </trkpt>
      <trkpt lat="44.7901" lon="6.0096">
        <ele>1146.3</ele>
        <time>2015-07-23T10:56:45Z</time>
      </trkpt>
      <trkpt lat="44.78965" lon="6.01056">
        <ele>1152.1</ele>
        <time>2015-07-23T10:57:55Z</time>
      </trkpt>
      <trkpt lat="44.78962" lon="6.01176">
        <ele>1156.7</ele>
        <time>2015-07-23T10:59:50Z</time>
      </trkpt>
      <trkpt lat="44.79044" lon="6.01191">
        <ele>1167.7</ele>
        <time>2015-07-23T11:01:35Z</time>
      </trkpt>
      <trkpt lat="44.79113" lon="6.01126">
        <ele>1173.2</ele>
        <time>2015-07-23T11:02:50Z</time>
      </trkpt>
      <trkpt lat="44.79183" lon="6.01067">
        <ele>1173</ele>
        <time>2015-07-23T11:04:20Z</time>
      </trkpt>
      <trkpt lat="44.7925" lon="6.01">
        <ele>1179.2</ele>
        <time>2015-07-23T11:05:40Z</time>
      </trkpt>
      <trkpt lat="44.79319" lon="6.00934">
        <ele>1185.1</ele>
        <time>2015-07-23T11:06:55Z</time>
      </trkpt>
      <trkpt lat="44.79387" lon="6.0087">
        <ele>1186.4</ele>
        <time>2015-07-23T11:08:15Z</time>
      </trkpt>
      <trkpt lat="44.7945" lon="6.00798">
        <ele>1178.8</ele>
        <time>2015-07-23T11:09:35Z</time>
      </trkpt>
      <trkpt lat="44.7952" lon="6.0074">
        <ele>1172.2</ele>
        <time>2015-07-23T11:10:40Z</time>
      </trkpt>
      <trkpt lat="44.79603" lon="6.00733">
        <ele>1164.9</ele>
        <time>2015-07-23T11:11:55Z</time>
      </trkpt>
      <trkpt lat="44.79688" lon="6.00749">
        <ele>1154.4</ele>
        <time>2015-07-23T11:12:55Z</time>
      </trkpt>
      <trkpt lat="44.79774" lon="6.00745">
        <ele>1136.6</ele>
        <time>2015-07-23T11:14:05Z</time>
      </trkpt>
      <trkpt lat="44.79862" lon="6.0073">
        <ele>1131.9</ele>
        <time>2015-07-23T11:15:15Z</time>
      </trkpt>
      <trkpt lat="44.79939" lon="6.00781">
        <ele>1117</ele>
        <time>2015-07-23T11:16:30Z</time>
      </trkpt>
      <trkpt lat="44.80005" lon="6.00855">
        <ele>1118.9</ele>
        <time>2015-07-23T11:17:40Z</time>
      </trkpt>
      <trkpt lat="44.80053" lon="6.00952">
        <ele>1129.7</ele>
        <time>2015-07-23T11:18:45Z</time>
      </trkpt>
      <trkpt lat="44.80112" lon="6.01033">
        <ele>1127.4</ele>
        <time>2015-07-23T11:20:00Z</time>
      </trkpt>
      <trkpt lat="44.80188" lon="6.01081">
        <ele>1132.9</ele>
        <time>2015-07-23T11:25:37Z</time>
      </trkpt>
      <trkpt lat="44.80261" lon="6.01139">
        <ele>1122.3</ele>
        <time>2015-07-23T11:26:42Z</time>
      </trkpt>
      <trkpt lat="44.80293" lon="6.01253">
        <ele>1141.5</ele>
        <time>2015-07-23T11:27:52Z</time>
      </trkpt>
      <trkpt lat="44.80372" lon="6.01284">
        <ele>1139.9</ele>
        <time>2015-07-23T11:35:52Z</time>
      </trkpt>
      <trkpt lat="44.80306" lon="6.01205">
        <ele>1128.8</ele>
        <time>2015-07-23T11:36:42Z</time>
      </trkpt>
      <trkpt lat="44.8026" lon="6.01111">
        <ele>1122.1</ele>
        <time>2015-07-23T11:37:52Z</time>
      </trkpt>
      <trkpt lat="44.80182" lon="6.01046">
        <ele>1129.1</ele>
        <time>2015-07-23T11:39:17Z</time>
      </trkpt>
      <trkpt lat="44.80143" lon="6.00944">
        <ele>1123.6</ele>
        <time>2015-07-23T11:40:32Z</time>
      </trkpt>
      <trkpt lat="44.80085" lon="6.00858">
        <ele>1097.5</ele>
        <time>2015-07-23T11:41:27Z</time>
      </trkpt>
      <trkpt lat="44.80047" lon="6.00753">
        <ele>1110.4</ele>
        <time>2015-07-23T11:42:37Z</time>
      </trkpt>
      <trkpt lat="44.79973" lon="6.00685">
        <ele>1092.3</ele>
        <time>2015-07-23T11:43:52Z</time>
      </trkpt>
      <trkpt lat="44.79897" lon="6.00621">
        <ele>1070.5</ele>
        <time>2015-07-23T11:45:17Z</time>
      </trkpt>
      <trkpt lat="44.79973" lon="6.00673">
        <ele>1062.6</ele>
        <time>2015-07-23T11:53:23Z</time>
      </trkpt>
      <trkpt lat="44.7998" lon="6.00578">
        <ele>1107.8</ele>
        <time>2015-07-23T11:56:38Z</time>
      </trkpt>
      <trkpt lat="44.79917" lon="6.00366">
        <ele>1070.4</ele>
        <time>2015-07-24T06:55:38Z</time>
      </trkpt>
      <trkpt lat="44.79929" lon="6.00365">
        <ele>1042</ele>
        <time>2015-07-24T06:55:42Z</time>
      </trkpt>
      <trkpt lat="44.7992" lon="6.00361">
        <ele>1051.3</ele>
        <time>2015-07-24T06:55:47Z</time>
      </trkpt>
      <trkpt lat="44.79917" lon="6.0035">
        <ele>1050.3</ele>
        <time>2015-07-24T06:55:52Z</time>
      </trkpt>
      <trkpt lat="44.79912" lon="6.00344">
        <ele>1051.9</ele>
        <time>2015-07-24T06:55:57Z</time>
      </trkpt>
      <trkpt lat="44.79908" lon="6.00336">
        <ele>1052</ele>
        <time>2015-07-24T06:56:02Z</time>
      </trkpt>
      <trkpt lat="44.79906" lon="6.00329">
        <ele>1050.7</ele>
        <time>2015-07-24T06:56:07Z</time>
      </trkpt>
      <trkpt lat="44.79905" lon="6.00326">
        <ele>1047.8</ele>
        <time>2015-07-24T06:56:12Z</time>
      </trkpt>
      <trkpt lat="44.79903" lon="6.00324">
        <ele>1043.6</ele>
        <time>2015-07-24T06:56:17Z</time>
      </trkpt>
      <trkpt lat="44.799" lon="6.00318">
        <ele>1042.4</ele>
        <time>2015-07-24T06:56:22Z</time>
      </trkpt>
      <trkpt lat="44.79895" lon="6.00312">
        <ele>1043.1</ele>
        <time>2015-07-24T06:56:27Z</time>
      </trkpt>
      <trkpt lat="44.79892" lon="6.00306">
        <ele>1042.1</ele>
        <time>2015-07-24T06:56:32Z</time>
      </trkpt>
      <trkpt lat="44.79889" lon="6.00298">
        <ele>1038.7</ele>
        <time>2015-07-24T06:56:37Z</time>
      </trkpt>
      <trkpt lat="44.79883" lon="6.00289">
        <ele>1041.9</ele>
        <time>2015-07-24T06:56:42Z</time>
      </trkpt>
      <trkpt lat="44.79879" lon="6.00282">
        <ele>1040.7</ele>
        <time>2015-07-24T06:56:47Z</time>
      </trkpt>
      <trkpt lat="44.79875" lon="6.00275">
        <ele>1040.9</ele>
        <time>2015-07-24T06:56:52Z</time>
      </trkpt>
      <trkpt lat="44.79871" lon="6.00267">
        <ele>1038.9</ele>
        <time>2015-07-24T06:56:57Z</time>
      </trkpt>
      <trkpt lat="44.79867" lon="6.0026">
        <ele>1039.3</ele>
        <time>2015-07-24T06:57:02Z</time>
      </trkpt>
      <trkpt lat="44.79863" lon="6.00254">
        <ele>1039.4</ele>
        <time>2015-07-24T06:57:07Z</time>
      </trkpt>
      <trkpt lat="44.79859" lon="6.00245">
        <ele>1039.3</ele>
        <time>2015-07-24T06:57:12Z</time>
      </trkpt>
      <trkpt lat="44.79858" lon="6.00236">
        <ele>1037.8</ele>
        <time>2015-07-24T06:57:17Z</time>
      </trkpt>
      <trkpt lat="44.79855" lon="6.00227">
        <ele>1036.8</ele>
        <time>2015-07-24T06:57:22Z</time>
      </trkpt>
      <trkpt lat="44.79852" lon="6.00216">
        <ele>1034.4</ele>
        <time>2015-07-24T06:57:27Z</time>
      </trkpt>
      <trkpt lat="44.79846" lon="6.00211">
        <ele>1044</ele>
        <time>2015-07-24T06:57:32Z</time>
      </trkpt>
      <trkpt lat="44.79841" lon="6.00204">
        <ele>1047.2</ele>
        <time>2015-07-24T06:57:37Z</time>
      </trkpt>
      <trkpt lat="44.79834" lon="6.00196">
        <ele>1048.4</ele>
        <time>2015-07-24T06:57:42Z</time>
      </trkpt>
      <trkpt lat="44.79828" lon="6.00188">
        <ele>1051</ele>
        <time>2015-07-24T06:57:47Z</time>
      </trkpt>
      <trkpt lat="44.79821" lon="6.00181">
        <ele>1056</ele>
        <time>2015-07-24T06:57:52Z</time>
      </trkpt>
      <trkpt lat="44.79816" lon="6.00177">
        <ele>1057.8</ele>
        <time>2015-07-24T06:57:57Z</time>
      </trkpt>
      <trkpt lat="44.7981" lon="6.00175">
        <ele>1057.9</ele>
        <time>2015-07-24T06:58:02Z</time>
      </trkpt>
      <trkpt lat="44.79805" lon="6.00168">
        <ele>1057.4</ele>
        <time>2015-07-24T06:58:07Z</time>
      </trkpt>
      <trkpt lat="44.79799" lon="6.00163">
        <ele>1060.8</ele>
        <time>2015-07-24T06:58:12Z</time>
      </trkpt>
      <trkpt lat="44.79796" lon="6.00159">
        <ele>1057.5</ele>
        <time>2015-07-24T06:58:17Z</time>
      </trkpt>
      <trkpt lat="44.79791" lon="6.00154">
        <ele>1055.4</ele>
        <time>2015-07-24T06:58:22Z</time>
      </trkpt>
      <trkpt lat="44.79788" lon="6.00149">
        <ele>1052.3</ele>
        <time>2015-07-24T06:58:27Z</time>
      </trkpt>
      <trkpt lat="44.79783" lon="6.00142">
        <ele>1051.4</ele>
        <time>2015-07-24T06:58:32Z</time>
      </trkpt>
      <trkpt lat="44.79776" lon="6.00135">
        <ele>1052.1</ele>
        <time>2015-07-24T06:58:37Z</time>
      </trkpt>
      <trkpt lat="44.79771" lon="6.00129">
        <ele>1050.8</ele>
        <time>2015-07-24T06:58:42Z</time>
      </trkpt>
      <trkpt lat="44.79766" lon="6.00122">
        <ele>1052.9</ele>
        <time>2015-07-24T06:58:47Z</time>
      </trkpt>
      <trkpt lat="44.79763" lon="6.00116">
        <ele>1049.7</ele>
        <time>2015-07-24T06:58:52Z</time>
      </trkpt>
      <trkpt lat="44.7976" lon="6.00109">
        <ele>1047.1</ele>
        <time>2015-07-24T06:58:57Z</time>
      </trkpt>
      <trkpt lat="44.79755" lon="6.00103">
        <ele>1046</ele>
        <time>2015-07-24T06:59:02Z</time>
      </trkpt>
      <trkpt lat="44.79752" lon="6.00096">
        <ele>1044.5</ele>
        <time>2015-07-24T06:59:07Z</time>
      </trkpt>
      <trkpt lat="44.79747" lon="6.00089">
        <ele>1045.2</ele>
        <time>2015-07-24T06:59:12Z</time>
      </trkpt>
      <trkpt lat="44.79743" lon="6.00081">
        <ele>1047.5</ele>
        <time>2015-07-24T06:59:17Z</time>
      </trkpt>
      <trkpt lat="44.79739" lon="6.00074">
        <ele>1046</ele>
        <time>2015-07-24T06:59:22Z</time>
      </trkpt>
      <trkpt lat="44.79736" lon="6.00066">
        <ele>1044.3</ele>
        <time>2015-07-24T06:59:27Z</time>
      </trkpt>
      <trkpt lat="44.79733" lon="6.00058">
        <ele>1042.9</ele>
        <time>2015-07-24T06:59:32Z</time>
      </trkpt>
      <trkpt lat="44.79729" lon="6.00051">
        <ele>1043.1</ele>
        <time>2015-07-24T06:59:37Z</time>
      </trkpt>
      <trkpt lat="44.79725" lon="6.00045">
        <ele>1042</ele>
        <time>2015-07-24T06:59:42Z</time>
      </trkpt>
      <trkpt lat="44.7972" lon="6.00038">
        <ele>1041.9</ele>
        <time>2015-07-24T06:59:47Z</time>
      </trkpt>
      <trkpt lat="44.79716" lon="6.00031">
        <ele>1042.6</ele>
        <time>2015-07-24T06:59:52Z</time>
      </trkpt>
      <trkpt lat="44.79712" lon="6.00024">
        <ele>1041.9</ele>
        <time>2015-07-24T06:59:57Z</time>
      </trkpt>
      <trkpt lat="44.79708" lon="6.00017">
        <ele>1042</ele>
        <time>2015-07-24T07:00:02Z</time>
      </trkpt>
      <trkpt lat="44.79704" lon="6.0001">
        <ele>1042.7</ele>
        <time>2015-07-24T07:00:07Z</time>
      </trkpt>
      <trkpt lat="44.797" lon="6.00004">
        <ele>1043.5</ele>
        <time>2015-07-24T07:00:12Z</time>
      </trkpt>
      <trkpt lat="44.79695" lon="5.99997">
        <ele>1044.4</ele>
        <time>2015-07-24T07:00:17Z</time>
      </trkpt>
      <trkpt lat="44.79691" lon="5.99989">
        <ele>1044.8</ele>
        <time>2015-07-24T07:00:22Z</time>
      </trkpt>
      <trkpt lat="44.79688" lon="5.9998">
        <ele>1041.1</ele>
        <time>2015-07-24T07:00:27Z</time>
      </trkpt>
      <trkpt lat="44.79685" lon="5.99971">
        <ele>1039.1</ele>
        <time>2015-07-24T07:00:32Z</time>
      </trkpt>
      <trkpt lat="44.79681" lon="5.99963">
        <ele>1037.7</ele>
        <time>2015-07-24T07:00:37Z</time>
      </trkpt>
      <trkpt lat="44.79677" lon="5.99955">
        <ele>1037.1</ele>
        <time>2015-07-24T07:00:42Z</time>
      </trkpt>
      <trkpt lat="44.79672" lon="5.99946">
        <ele>1037.1</ele>
        <time>2015-07-24T07:00:47Z</time>
      </trkpt>
      <trkpt lat="44.79668" lon="5.99938">
        <ele>1036.7</ele>
        <time>2015-07-24T07:00:52Z</time>
      </trkpt>
      <trkpt lat="44.79665" lon="5.99931">
        <ele>1035.5</ele>
        <time>2015-07-24T07:00:57Z</time>
      </trkpt>
      <trkpt lat="44.79663" lon="5.99922">
        <ele>1034.6</ele>
        <time>2015-07-24T07:01:02Z</time>
      </trkpt>
      <trkpt lat="44.79662" lon="5.99914">
        <ele>1033.6</ele>
        <time>2015-07-24T07:01:07Z</time>
      </trkpt>
      <trkpt lat="44.7966" lon="5.99905">
        <ele>1032.8</ele>
        <time>2015-07-24T07:01:12Z</time>
      </trkpt>
      <trkpt lat="44.79659" lon="5.99895">
        <ele>1032.4</ele>
        <time>2015-07-24T07:01:17Z</time>
      </trkpt>
      <trkpt lat="44.79658" lon="5.99886">
        <ele>1031.9</ele>
        <time>2015-07-24T07:01:22Z</time>
      </trkpt>
      <trkpt lat="44.79657" lon="5.99876">
        <ele>1031.5</ele>
        <time>2015-07-24T07:01:27Z</time>
      </trkpt>
      <trkpt lat="44.79657" lon="5.99866">
        <ele>1031.2</ele>
        <time>2015-07-24T07:01:32Z</time>
      </trkpt>
      <trkpt lat="44.79656" lon="5.99857">
        <ele>1031</ele>
        <time>2015-07-24T07:01:37Z</time>
      </trkpt>
      <trkpt lat="44.79655" lon="5.99848">
        <ele>1031.1</ele>
        <time>2015-07-24T07:01:42Z</time>
      </trkpt>
      <trkpt lat="44.79654" lon="5.99839">
        <ele>1032.3</ele>
        <time>2015-07-24T07:01:47Z</time>
      </trkpt>
      <trkpt lat="44.79654" lon="5.9983">
        <ele>1033.4</ele>
        <time>2015-07-24T07:01:52Z</time>
      </trkpt>
      <trkpt lat="44.79652" lon="5.99821">
        <ele>1032.4</ele>
        <time>2015-07-24T07:01:57Z</time>
      </trkpt>
      <trkpt lat="44.79653" lon="5.9981">
        <ele>1030.3</ele>
        <time>2015-07-24T07:02:02Z</time>
      </trkpt>
      <trkpt lat="44.79652" lon="5.998">
        <ele>1028.4</ele>
        <time>2015-07-24T07:02:07Z</time>
      </trkpt>
      <trkpt lat="44.79652" lon="5.99791">
        <ele>1026.9</ele>
        <time>2015-07-24T07:02:12Z</time>
      </trkpt>
      <trkpt lat="44.79652" lon="5.9978">
        <ele>1027.3</ele>
        <time>2015-07-24T07:02:17Z</time>
      </trkpt>
      <trkpt lat="44.79652" lon="5.9977">
        <ele>1028.3</ele>
        <time>2015-07-24T07:02:22Z</time>
      </trkpt>
      <trkpt lat="44.79651" lon="5.99761">
        <ele>1027.9</ele>
        <time>2015-07-24T07:02:27Z</time>
      </trkpt>
      <trkpt lat="44.79651" lon="5.99751">
        <ele>1027.5</ele>
        <time>2015-07-24T07:02:32Z</time>
      </trkpt>
      <trkpt lat="44.7965" lon="5.99742">
        <ele>1027.5</ele>
        <time>2015-07-24T07:02:37Z</time>
      </trkpt>
      <trkpt lat="44.79649" lon="5.99732">
        <ele>1027.4</ele>
        <time>2015-07-24T07:02:42Z</time>
      </trkpt>
      <trkpt lat="44.79649" lon="5.99723">
        <ele>1027.2</ele>
        <time>2015-07-24T07:02:47Z</time>
      </trkpt>
      <trkpt lat="44.79649" lon="5.99714">
        <ele>1027.1</ele>
        <time>2015-07-24T07:02:52Z</time>
      </trkpt>
      <trkpt lat="44.79648" lon="5.99705">
        <ele>1027.2</ele>
        <time>2015-07-24T07:02:57Z</time>
      </trkpt>
      <trkpt lat="44.79647" lon="5.99696">
        <ele>1027.6</ele>
        <time>2015-07-24T07:03:02Z</time>
      </trkpt>
      <trkpt lat="44.79646" lon="5.99687">
        <ele>1027.9</ele>
        <time>2015-07-24T07:03:07Z</time>
      </trkpt>
      <trkpt lat="44.79644" lon="5.99678">
        <ele>1028.2</ele>
        <time>2015-07-24T07:03:12Z</time>
      </trkpt>
      <trkpt lat="44.79643" lon="5.9967">
        <ele>1028.6</ele>
        <time>2015-07-24T07:03:17Z</time>
      </trkpt>
      <trkpt lat="44.79641" lon="5.99661">
        <ele>1029.3</ele>
        <time>2015-07-24T07:03:22Z</time>
      </trkpt>
      <trkpt lat="44.79639" lon="5.99653">
        <ele>1029.2</ele>
        <time>2015-07-24T07:03:27Z</time>
      </trkpt>
      <trkpt lat="44.79637" lon="5.99644">
        <ele>1028.9</ele>
        <time>2015-07-24T07:03:32Z</time>
      </trkpt>
      <trkpt lat="44.79636" lon="5.99635">
        <ele>1028.6</ele>
        <time>2015-07-24T07:03:37Z</time>
      </trkpt>
      <trkpt lat="44.79634" lon="5.99626">
        <ele>1028.4</ele>
        <time>2015-07-24T07:03:42Z</time>
      </trkpt>
      <trkpt lat="44.79632" lon="5.99618">
        <ele>1028.6</ele>
        <time>2015-07-24T07:03:47Z</time>
      </trkpt>
      <trkpt lat="44.7963" lon="5.99609">
        <ele>1028.8</ele>
        <time>2015-07-24T07:03:52Z</time>
      </trkpt>
      <trkpt lat="44.79628" lon="5.99601">
        <ele>1028.9</ele>
        <time>2015-07-24T07:03:57Z</time>
      </trkpt>
      <trkpt lat="44.79627" lon="5.99593">
        <ele>1028.9</ele>
        <time>2015-07-24T07:04:02Z</time>
      </trkpt>
      <trkpt lat="44.79625" lon="5.99584">
        <ele>1029</ele>
        <time>2015-07-24T07:04:07Z</time>
      </trkpt>
      <trkpt lat="44.79623" lon="5.99575">
        <ele>1028.9</ele>
        <time>2015-07-24T07:04:12Z</time>
      </trkpt>
      <trkpt lat="44.79623" lon="5.99566">
        <ele>1028.8</ele>
        <time>2015-07-24T07:04:17Z</time>
      </trkpt>
      <trkpt lat="44.79622" lon="5.99558">
        <ele>1028.2</ele>
        <time>2015-07-24T07:04:22Z</time>
      </trkpt>
      <trkpt lat="44.79621" lon="5.99548">
        <ele>1028</ele>
        <time>2015-07-24T07:04:27Z</time>
      </trkpt>
      <trkpt lat="44.79621" lon="5.99539">
        <ele>1027.6</ele>
        <time>2015-07-24T07:04:32Z</time>
      </trkpt>
      <trkpt lat="44.79621" lon="5.99529">
        <ele>1027.3</ele>
        <time>2015-07-24T07:04:37Z</time>
      </trkpt>
      <trkpt lat="44.79621" lon="5.9952">
        <ele>1026.8</ele>
        <time>2015-07-24T07:04:42Z</time>
      </trkpt>
      <trkpt lat="44.79622" lon="5.9951">
        <ele>1026.3</ele>
        <time>2015-07-24T07:04:47Z</time>
      </trkpt>
      <trkpt lat="44.79623" lon="5.99501">
        <ele>1025.8</ele>
        <time>2015-07-24T07:04:52Z</time>
      </trkpt>
      <trkpt lat="44.79624" lon="5.99491">
        <ele>1025.1</ele>
        <time>2015-07-24T07:04:57Z</time>
      </trkpt>
      <trkpt lat="44.79625" lon="5.99482">
        <ele>1024.6</ele>
        <time>2015-07-24T07:05:02Z</time>
      </trkpt>
      <trkpt lat="44.79627" lon="5.99473">
        <ele>1024.1</ele>
        <time>2015-07-24T07:05:07Z</time>
      </trkpt>
      <trkpt lat="44.79628" lon="5.99464">
        <ele>1023.4</ele>
        <time>2015-07-24T07:05:12Z</time>
      </trkpt>
      <trkpt lat="44.79628" lon="5.99455">
        <ele>1022.8</ele>
        <time>2015-07-24T07:05:17Z</time>
      </trkpt>
      <trkpt lat="44.7963" lon="5.99446">
        <ele>1022.4</ele>
        <time>2015-07-24T07:05:22Z</time>
      </trkpt>
      <trkpt lat="44.79631" lon="5.99437">
        <ele>1021.8</ele>
        <time>2015-07-24T07:05:27Z</time>
      </trkpt>
      <trkpt lat="44.79632" lon="5.99428">
        <ele>1021</ele>
        <time>2015-07-24T07:05:32Z</time>
      </trkpt>
      <trkpt lat="44.79634" lon="5.99419">
        <ele>1020.8</ele>
        <time>2015-07-24T07:05:37Z</time>
      </trkpt>
      <trkpt lat="44.79636" lon="5.99409">
        <ele>1020.9</ele>
        <time>2015-07-24T07:05:42Z</time>
      </trkpt>
      <trkpt lat="44.79637" lon="5.994">
        <ele>1020.3</ele>
        <time>2015-07-24T07:05:47Z</time>
      </trkpt>
      <trkpt lat="44.79639" lon="5.99391">
        <ele>1019.9</ele>
        <time>2015-07-24T07:05:52Z</time>
      </trkpt>
      <trkpt lat="44.79641" lon="5.99382">
        <ele>1019.5</ele>
        <time>2015-07-24T07:05:57Z</time>
      </trkpt>
      <trkpt lat="44.79643" lon="5.99372">
        <ele>1018.9</ele>
        <time>2015-07-24T07:06:02Z</time>
      </trkpt>
      <trkpt lat="44.79644" lon="5.99363">
        <ele>1018.2</ele>
        <time>2015-07-24T07:06:07Z</time>
      </trkpt>
      <trkpt lat="44.79646" lon="5.99354">
        <ele>1017.6</ele>
        <time>2015-07-24T07:06:12Z</time>
      </trkpt>
      <trkpt lat="44.79647" lon="5.99344">
        <ele>1017.4</ele>
        <time>2015-07-24T07:06:17Z</time>
      </trkpt>
      <trkpt lat="44.79648" lon="5.99335">
        <ele>1016.9</ele>
        <time>2015-07-24T07:06:22Z</time>
      </trkpt>
      <trkpt lat="44.79649" lon="5.99326">
        <ele>1016.2</ele>
        <time>2015-07-24T07:06:27Z</time>
      </trkpt>
      <trkpt lat="44.7965" lon="5.99316">
        <ele>1014.8</ele>
        <time>2015-07-24T07:06:32Z</time>
      </trkpt>
      <trkpt lat="44.79651" lon="5.99306">
        <ele>1013.9</ele>
        <time>2015-07-24T07:06:37Z</time>
      </trkpt>
      <trkpt lat="44.79652" lon="5.99297">
        <ele>1013.6</ele>
        <time>2015-07-24T07:06:42Z</time>
      </trkpt>
      <trkpt lat="44.79654" lon="5.99287">
        <ele>1013.1</ele>
        <time>2015-07-24T07:06:47Z</time>
      </trkpt>
      <trkpt lat="44.79655" lon="5.99277">
        <ele>1013.2</ele>
        <time>2015-07-24T07:06:52Z</time>
      </trkpt>
      <trkpt lat="44.79657" lon="5.99267">
        <ele>1013.3</ele>
        <time>2015-07-24T07:06:57Z</time>
      </trkpt>
      <trkpt lat="44.7966" lon="5.99258">
        <ele>1014.5</ele>
        <time>2015-07-24T07:07:02Z</time>
      </trkpt>
      <trkpt lat="44.79662" lon="5.99249">
        <ele>1014.2</ele>
        <time>2015-07-24T07:07:07Z</time>
      </trkpt>
      <trkpt lat="44.79663" lon="5.9924">
        <ele>1013.4</ele>
        <time>2015-07-24T07:07:12Z</time>
      </trkpt>
      <trkpt lat="44.79664" lon="5.99231">
        <ele>1012.3</ele>
        <time>2015-07-24T07:07:17Z</time>
      </trkpt>
      <trkpt lat="44.79664" lon="5.99221">
        <ele>1011.6</ele>
        <time>2015-07-24T07:07:22Z</time>
      </trkpt>
      <trkpt lat="44.79663" lon="5.99211">
        <ele>1010.6</ele>
        <time>2015-07-24T07:07:27Z</time>
      </trkpt>
      <trkpt lat="44.79663" lon="5.99201">
        <ele>1009.9</ele>
        <time>2015-07-24T07:07:32Z</time>
      </trkpt>
      <trkpt lat="44.79661" lon="5.9919">
        <ele>1010.1</ele>
        <time>2015-07-24T07:07:37Z</time>
      </trkpt>
      <trkpt lat="44.79661" lon="5.9918">
        <ele>1008.4</ele>
        <time>2015-07-24T07:07:42Z</time>
      </trkpt>
      <trkpt lat="44.79662" lon="5.9917">
        <ele>1008.2</ele>
        <time>2015-07-24T07:07:47Z</time>
      </trkpt>
      <trkpt lat="44.79662" lon="5.99168">
        <ele>1006.8</ele>
        <time>2015-07-24T07:07:52Z</time>
      </trkpt>
      <trkpt lat="44.79662" lon="5.99167">
        <ele>1007.1</ele>
        <time>2015-07-24T07:07:57Z</time>
      </trkpt>
      <trkpt lat="44.7966" lon="5.99167">
        <ele>1008.4</ele>
        <time>2015-07-24T07:08:02Z</time>
      </trkpt>
      <trkpt lat="44.7966" lon="5.99167">
        <ele>1009.7</ele>
        <time>2015-07-24T07:08:07Z</time>
      </trkpt>
      <trkpt lat="44.79659" lon="5.99166">
        <ele>1011.2</ele>
        <time>2015-07-24T07:08:12Z</time>
      </trkpt>
      <trkpt lat="44.79659" lon="5.99168">
        <ele>1011.6</ele>
        <time>2015-07-24T07:08:17Z</time>
      </trkpt>
      <trkpt lat="44.7966" lon="5.99168">
        <ele>1012.1</ele>
        <time>2015-07-24T07:08:22Z</time>
      </trkpt>
      <trkpt lat="44.79659" lon="5.99169">
        <ele>1011.9</ele>
        <time>2015-07-24T07:08:27Z</time>
      </trkpt>
      <trkpt lat="44.79659" lon="5.99166">
        <ele>1011.1</ele>
        <time>2015-07-24T07:08:32Z</time>
      </trkpt>
      <trkpt lat="44.79659" lon="5.99158">
        <ele>1010.4</ele>
        <time>2015-07-24T07:08:37Z</time>
      </trkpt>
      <trkpt lat="44.7966" lon="5.99148">
        <ele>1009</ele>
        <time>2015-07-24T07:08:42Z</time>
      </trkpt>
      <trkpt lat="44.79661" lon="5.9914">
        <ele>1008.4</ele>
        <time>2015-07-24T07:08:47Z</time>
      </trkpt>
      <trkpt lat="44.79662" lon="5.9913">
        <ele>1007.8</ele>
        <time>2015-07-24T07:08:52Z</time>
      </trkpt>
      <trkpt lat="44.79663" lon="5.99121">
        <ele>1008</ele>
        <time>2015-07-24T07:08:57Z</time>
      </trkpt>
      <trkpt lat="44.79664" lon="5.99111">
        <ele>1008.1</ele>
        <time>2015-07-24T07:09:02Z</time>
      </trkpt>
      <trkpt lat="44.79664" lon="5.99102">
        <ele>1007.5</ele>
        <time>2015-07-24T07:09:07Z</time>
      </trkpt>
      <trkpt lat="44.79665" lon="5.99092">
        <ele>1006.9</ele>
        <time>2015-07-24T07:09:12Z</time>
      </trkpt>
      <trkpt lat="44.79666" lon="5.99083">
        <ele>1006.1</ele>
        <time>2015-07-24T07:09:17Z</time>
      </trkpt>
      <trkpt lat="44.79666" lon="5.99073">
        <ele>1005.6</ele>
        <time>2015-07-24T07:09:22Z</time>
      </trkpt>
      <trkpt lat="44.79666" lon="5.99063">
        <ele>1005.2</ele>
        <time>2015-07-24T07:09:27Z</time>
      </trkpt>
      <trkpt lat="44.79667" lon="5.99053">
        <ele>1004.8</ele>
        <time>2015-07-24T07:09:32Z</time>
      </trkpt>
      <trkpt lat="44.79667" lon="5.99043">
        <ele>1004.4</ele>
        <time>2015-07-24T07:09:37Z</time>
      </trkpt>
      <trkpt lat="44.79667" lon="5.99033">
        <ele>1004.2</ele>
        <time>2015-07-24T07:09:42Z</time>
      </trkpt>
      <trkpt lat="44.79666" lon="5.99024">
        <ele>1004.1</ele>
        <time>2015-07-24T07:09:47Z</time>
      </trkpt>
      <trkpt lat="44.79666" lon="5.99014">
        <ele>1003.8</ele>
        <time>2015-07-24T07:09:52Z</time>
      </trkpt>
      <trkpt lat="44.79665" lon="5.99005">
        <ele>1003.4</ele>
        <time>2015-07-24T07:09:57Z</time>
      </trkpt>
      <trkpt lat="44.79665" lon="5.98995">
        <ele>1003.2</ele>
        <time>2015-07-24T07:10:02Z</time>
      </trkpt>
      <trkpt lat="44.79664" lon="5.98986">
        <ele>1002.9</ele>
        <time>2015-07-24T07:10:07Z</time>
      </trkpt>
      <trkpt lat="44.79663" lon="5.98975">
        <ele>1003.1</ele>
        <time>2015-07-24T07:10:12Z</time>
      </trkpt>
      <trkpt lat="44.79662" lon="5.98966">
        <ele>1002.5</ele>
        <time>2015-07-24T07:10:17Z</time>
      </trkpt>
      <trkpt lat="44.79662" lon="5.98956">
        <ele>1002.6</ele>
        <time>2015-07-24T07:10:22Z</time>
      </trkpt>
      <trkpt lat="44.79663" lon="5.98947">
        <ele>1002.1</ele>
        <time>2015-07-24T07:10:27Z</time>
      </trkpt>
      <trkpt lat="44.79664" lon="5.98937">
        <ele>1002</ele>
        <time>2015-07-24T07:10:32Z</time>
      </trkpt>
      <trkpt lat="44.79664" lon="5.98928">
        <ele>1001.7</ele>
        <time>2015-07-24T07:10:37Z</time>
      </trkpt>
      <trkpt lat="44.79665" lon="5.98919">
        <ele>1001.3</ele>
        <time>2015-07-24T07:10:42Z</time>
      </trkpt>
      <trkpt lat="44.79666" lon="5.98909">
        <ele>1001.2</ele>
        <time>2015-07-24T07:10:47Z</time>
      </trkpt>
      <trkpt lat="44.79667" lon="5.98901">
        <ele>1001</ele>
        <time>2015-07-24T07:10:52Z</time>
      </trkpt>
      <trkpt lat="44.7967" lon="5.98893">
        <ele>1000.5</ele>
        <time>2015-07-24T07:10:57Z</time>
      </trkpt>
      <trkpt lat="44.79672" lon="5.98884">
        <ele>1000.3</ele>
        <time>2015-07-24T07:11:02Z</time>
      </trkpt>
      <trkpt lat="44.79673" lon="5.98875">
        <ele>1000.1</ele>
        <time>2015-07-24T07:11:07Z</time>
      </trkpt>
      <trkpt lat="44.79674" lon="5.98866">
        <ele>999.7</ele>
        <time>2015-07-24T07:11:12Z</time>
      </trkpt>
      <trkpt lat="44.79676" lon="5.98857">
        <ele>998.5</ele>
        <time>2015-07-24T07:11:17Z</time>
      </trkpt>
      <trkpt lat="44.79676" lon="5.98848">
        <ele>998</ele>
        <time>2015-07-24T07:11:22Z</time>
      </trkpt>
      <trkpt lat="44.79676" lon="5.9884">
        <ele>997</ele>
        <time>2015-07-24T07:11:27Z</time>
      </trkpt>
      <trkpt lat="44.79676" lon="5.98831">
        <ele>996.8</ele>
        <time>2015-07-24T07:11:32Z</time>
      </trkpt>
      <trkpt lat="44.79677" lon="5.98821">
        <ele>996.9</ele>
        <time>2015-07-24T07:11:37Z</time>
      </trkpt>
      <trkpt lat="44.79678" lon="5.98811">
        <ele>996.9</ele>
        <time>2015-07-24T07:11:42Z</time>
      </trkpt>
      <trkpt lat="44.7968" lon="5.98801">
        <ele>996.7</ele>
        <time>2015-07-24T07:11:47Z</time>
      </trkpt>
      <trkpt lat="44.79681" lon="5.98792">
        <ele>996.6</ele>
        <time>2015-07-24T07:11:52Z</time>
      </trkpt>
      <trkpt lat="44.79682" lon="5.98783">
        <ele>996.2</ele>
        <time>2015-07-24T07:11:57Z</time>
      </trkpt>
      <trkpt lat="44.79683" lon="5.98775">
        <ele>995.7</ele>
        <time>2015-07-24T07:12:02Z</time>
      </trkpt>
      <trkpt lat="44.79685" lon="5.98766">
        <ele>995.1</ele>
        <time>2015-07-24T07:12:07Z</time>
      </trkpt>
      <trkpt lat="44.79686" lon="5.98757">
        <ele>994.2</ele>
        <time>2015-07-24T07:12:12Z</time>
      </trkpt>
      <trkpt lat="44.79688" lon="5.98748">
        <ele>993.5</ele>
        <time>2015-07-24T07:12:17Z</time>
      </trkpt>
      <trkpt lat="44.7969" lon="5.98739">
        <ele>992.7</ele>
        <time>2015-07-24T07:12:22Z</time>
      </trkpt>
      <trkpt lat="44.79692" lon="5.9873">
        <ele>991.8</ele>
        <time>2015-07-24T07:12:27Z</time>
      </trkpt>
      <trkpt lat="44.79694" lon="5.98722">
        <ele>990.9</ele>
        <time>2015-07-24T07:12:32Z</time>
      </trkpt>
      <trkpt lat="44.79697" lon="5.98714">
        <ele>990.1</ele>
        <time>2015-07-24T07:12:37Z</time>
      </trkpt>
      <trkpt lat="44.79699" lon="5.98705">
        <ele>989.2</ele>
        <time>2015-07-24T07:12:42Z</time>
      </trkpt>
      <trkpt lat="44.79702" lon="5.98696">
        <ele>988.5</ele>
        <time>2015-07-24T07:12:47Z</time>
      </trkpt>
      <trkpt lat="44.79706" lon="5.98687">
        <ele>987.8</ele>
        <time>2015-07-24T07:12:52Z</time>
      </trkpt>
      <trkpt lat="44.79709" lon="5.98679">
        <ele>987</ele>
        <time>2015-07-24T07:12:57Z</time>
      </trkpt>
      <trkpt lat="44.79712" lon="5.98671">
        <ele>986.3</ele>
        <time>2015-07-24T07:13:02Z</time>
      </trkpt>
      <trkpt lat="44.79714" lon="5.98663">
        <ele>985.5</ele>
        <time>2015-07-24T07:13:07Z</time>
      </trkpt>
      <trkpt lat="44.79717" lon="5.98654">
        <ele>984.9</ele>
        <time>2015-07-24T07:13:12Z</time>
      </trkpt>
      <trkpt lat="44.79719" lon="5.98644">
        <ele>985.1</ele>
        <time>2015-07-24T07:13:17Z</time>
      </trkpt>
      <trkpt lat="44.79721" lon="5.98635">
        <ele>984.8</ele>
        <time>2015-07-24T07:13:22Z</time>
      </trkpt>
      <trkpt lat="44.79722" lon="5.98626">
        <ele>984.1</ele>
        <time>2015-07-24T07:13:27Z</time>
      </trkpt>
      <trkpt lat="44.79725" lon="5.98617">
        <ele>984</ele>
        <time>2015-07-24T07:13:32Z</time>
      </trkpt>
      <trkpt lat="44.79728" lon="5.98607">
        <ele>983.5</ele>
        <time>2015-07-24T07:13:37Z</time>
      </trkpt>
      <trkpt lat="44.7973" lon="5.98599">
        <ele>982.9</ele>
        <time>2015-07-24T07:13:42Z</time>
      </trkpt>
      <trkpt lat="44.79733" lon="5.9859">
        <ele>982.1</ele>
        <time>2015-07-24T07:13:47Z</time>
      </trkpt>
      <trkpt lat="44.79736" lon="5.98581">
        <ele>981.7</ele>
        <time>2015-07-24T07:13:52Z</time>
      </trkpt>
      <trkpt lat="44.79741" lon="5.98573">
        <ele>981.6</ele>
        <time>2015-07-24T07:13:57Z</time>
      </trkpt>
      <trkpt lat="44.79745" lon="5.98564">
        <ele>981.6</ele>
        <time>2015-07-24T07:14:02Z</time>
      </trkpt>
      <trkpt lat="44.79749" lon="5.98557">
        <ele>981.4</ele>
        <time>2015-07-24T07:14:07Z</time>
      </trkpt>
      <trkpt lat="44.79755" lon="5.9855">
        <ele>981.6</ele>
        <time>2015-07-24T07:14:12Z</time>
      </trkpt>
      <trkpt lat="44.79759" lon="5.98543">
        <ele>981.6</ele>
        <time>2015-07-24T07:14:17Z</time>
      </trkpt>
      <trkpt lat="44.79764" lon="5.98537">
        <ele>982.2</ele>
        <time>2015-07-24T07:14:22Z</time>
      </trkpt>
      <trkpt lat="44.79768" lon="5.98532">
        <ele>983</ele>
        <time>2015-07-24T07:14:27Z</time>
      </trkpt>
      <trkpt lat="44.79773" lon="5.98527">
        <ele>984.2</ele>
        <time>2015-07-24T07:14:32Z</time>
      </trkpt>
      <trkpt lat="44.79777" lon="5.98522">
        <ele>985</ele>
        <time>2015-07-24T07:14:37Z</time>
      </trkpt>
      <trkpt lat="44.79781" lon="5.98517">
        <ele>985.1</ele>
        <time>2015-07-24T07:14:42Z</time>
      </trkpt>
      <trkpt lat="44.79785" lon="5.98512">
        <ele>984.9</ele>
        <time>2015-07-24T07:14:47Z</time>
      </trkpt>
      <trkpt lat="44.79791" lon="5.98506">
        <ele>984.9</ele>
        <time>2015-07-24T07:14:52Z</time>
      </trkpt>
      <trkpt lat="44.79796" lon="5.985">
        <ele>985.1</ele>
        <time>2015-07-24T07:14:57Z</time>
      </trkpt>
      <trkpt lat="44.79799" lon="5.98495">
        <ele>986</ele>
        <time>2015-07-24T07:15:02Z</time>
      </trkpt>
      <trkpt lat="44.79803" lon="5.98489">
        <ele>986.6</ele>
        <time>2015-07-24T07:15:07Z</time>
      </trkpt>
      <trkpt lat="44.79808" lon="5.98484">
        <ele>987.1</ele>
        <time>2015-07-24T07:15:12Z</time>
      </trkpt>
      <trkpt lat="44.79812" lon="5.98478">
        <ele>987.6</ele>
        <time>2015-07-24T07:15:17Z</time>
      </trkpt>
      <trkpt lat="44.79817" lon="5.98472">
        <ele>987.9</ele>
        <time>2015-07-24T07:15:22Z</time>
      </trkpt>
      <trkpt lat="44.79821" lon="5.98467">
        <ele>988</ele>
        <time>2015-07-24T07:15:27Z</time>
      </trkpt>
      <trkpt lat="44.79825" lon="5.98461">
        <ele>988</ele>
        <time>2015-07-24T07:15:32Z</time>
      </trkpt>
      <trkpt lat="44.7983" lon="5.98455">
        <ele>988</ele>
        <time>2015-07-24T07:15:37Z</time>
      </trkpt>
      <trkpt lat="44.79836" lon="5.9845">
        <ele>988</ele>
        <time>2015-07-24T07:15:42Z</time>
      </trkpt>
      <trkpt lat="44.79841" lon="5.98445">
        <ele>988.1</ele>
        <time>2015-07-24T07:15:47Z</time>
      </trkpt>
      <trkpt lat="44.79846" lon="5.98441">
        <ele>988.5</ele>
        <time>2015-07-24T07:15:52Z</time>
      </trkpt>
      <trkpt lat="44.79851" lon="5.98436">
        <ele>988.5</ele>
        <time>2015-07-24T07:15:57Z</time>
      </trkpt>
      <trkpt lat="44.79856" lon="5.98432">
        <ele>988.7</ele>
        <time>2015-07-24T07:16:02Z</time>
      </trkpt>
      <trkpt lat="44.79862" lon="5.98428">
        <ele>989.1</ele>
        <time>2015-07-24T07:16:07Z</time>
      </trkpt>
      <trkpt lat="44.79866" lon="5.98424">
        <ele>990.2</ele>
        <time>2015-07-24T07:16:12Z</time>
      </trkpt>
      <trkpt lat="44.7987" lon="5.9842">
        <ele>991.6</ele>
        <time>2015-07-24T07:16:17Z</time>
      </trkpt>
      <trkpt lat="44.79875" lon="5.98417">
        <ele>992.3</ele>
        <time>2015-07-24T07:16:22Z</time>
      </trkpt>
      <trkpt lat="44.79881" lon="5.98414">
        <ele>993</ele>
        <time>2015-07-24T07:16:27Z</time>
      </trkpt>
      <trkpt lat="44.79886" lon="5.9841">
        <ele>993</ele>
        <time>2015-07-24T07:16:32Z</time>
      </trkpt>
      <trkpt lat="44.79891" lon="5.98406">
        <ele>992.9</ele>
        <time>2015-07-24T07:16:37Z</time>
      </trkpt>
      <trkpt lat="44.79897" lon="5.98403">
        <ele>992.6</ele>
        <time>2015-07-24T07:16:42Z</time>
      </trkpt>
      <trkpt lat="44.79901" lon="5.98398">
        <ele>992.4</ele>
        <time>2015-07-24T07:16:47Z</time>
      </trkpt>
      <trkpt lat="44.79906" lon="5.98394">
        <ele>992.4</ele>
        <time>2015-07-24T07:16:52Z</time>
      </trkpt>
      <trkpt lat="44.79911" lon="5.9839">
        <ele>992.5</ele>
        <time>2015-07-24T07:16:57Z</time>
      </trkpt>
      <trkpt lat="44.79916" lon="5.98386">
        <ele>992.7</ele>
        <time>2015-07-24T07:17:02Z</time>
      </trkpt>
      <trkpt lat="44.79921" lon="5.98381">
        <ele>992.9</ele>
        <time>2015-07-24T07:17:07Z</time>
      </trkpt>
      <trkpt lat="44.79927" lon="5.98377">
        <ele>993.1</ele>
        <time>2015-07-24T07:17:12Z</time>
      </trkpt>
      <trkpt lat="44.79932" lon="5.98373">
        <ele>993.1</ele>
        <time>2015-07-24T07:17:17Z</time>
      </trkpt>
      <trkpt lat="44.79937" lon="5.9837">
        <ele>994.3</ele>
        <time>2015-07-24T07:17:22Z</time>
      </trkpt>
      <trkpt lat="44.79942" lon="5.98365">
        <ele>994.3</ele>
        <time>2015-07-24T07:17:27Z</time>
      </trkpt>
      <trkpt lat="44.79947" lon="5.9836">
        <ele>994.2</ele>
        <time>2015-07-24T07:17:32Z</time>
      </trkpt>
      <trkpt lat="44.79952" lon="5.98356">
        <ele>994</ele>
        <time>2015-07-24T07:17:37Z</time>
      </trkpt>
      <trkpt lat="44.79958" lon="5.98351">
        <ele>993.5</ele>
        <time>2015-07-24T07:17:42Z</time>
      </trkpt>
      <trkpt lat="44.79963" lon="5.98346">
        <ele>993</ele>
        <time>2015-07-24T07:17:47Z</time>
      </trkpt>
      <trkpt lat="44.79967" lon="5.98343">
        <ele>992.3</ele>
        <time>2015-07-24T07:17:52Z</time>
      </trkpt>
      <trkpt lat="44.79968" lon="5.98343">
        <ele>991.3</ele>
        <time>2015-07-24T07:17:57Z</time>
      </trkpt>
      <trkpt lat="44.79973" lon="5.98338">
        <ele>990.1</ele>
        <time>2015-07-24T07:18:02Z</time>
      </trkpt>
      <trkpt lat="44.79977" lon="5.98333">
        <ele>989.8</ele>
        <time>2015-07-24T07:18:07Z</time>
      </trkpt>
      <trkpt lat="44.79982" lon="5.98328">
        <ele>989.7</ele>
        <time>2015-07-24T07:18:12Z</time>
      </trkpt>
      <trkpt lat="44.79987" lon="5.98323">
        <ele>989.6</ele>
        <time>2015-07-24T07:18:17Z</time>
      </trkpt>
      <trkpt lat="44.79993" lon="5.98318">
        <ele>989.3</ele>
        <time>2015-07-24T07:18:22Z</time>
      </trkpt>
      <trkpt lat="44.79998" lon="5.98313">
        <ele>989.3</ele>
        <time>2015-07-24T07:18:27Z</time>
      </trkpt>
      <trkpt lat="44.80004" lon="5.98309">
        <ele>989.6</ele>
        <time>2015-07-24T07:18:32Z</time>
      </trkpt>
      <trkpt lat="44.8001" lon="5.98306">
        <ele>989.9</ele>
        <time>2015-07-24T07:18:37Z</time>
      </trkpt>
      <trkpt lat="44.80016" lon="5.98304">
        <ele>990.4</ele>
        <time>2015-07-24T07:18:42Z</time>
      </trkpt>
      <trkpt lat="44.80023" lon="5.98304">
        <ele>991.6</ele>
        <time>2015-07-24T07:18:47Z</time>
      </trkpt>
      <trkpt lat="44.80029" lon="5.98303">
        <ele>991.8</ele>
        <time>2015-07-24T07:18:52Z</time>
      </trkpt>
      <trkpt lat="44.80036" lon="5.98304">
        <ele>991.6</ele>
        <time>2015-07-24T07:18:57Z</time>
      </trkpt>
      <trkpt lat="44.80042" lon="5.98306">
        <ele>992.1</ele>
        <time>2015-07-24T07:19:02Z</time>
      </trkpt>
      <trkpt lat="44.80047" lon="5.98309">
        <ele>993.2</ele>
        <time>2015-07-24T07:19:07Z</time>
      </trkpt>
      <trkpt lat="44.80053" lon="5.98311">
        <ele>995</ele>
        <time>2015-07-24T07:19:12Z</time>
      </trkpt>
      <trkpt lat="44.80059" lon="5.98312">
        <ele>994.8</ele>
        <time>2015-07-24T07:19:17Z</time>
      </trkpt>
      <trkpt lat="44.80066" lon="5.98312">
        <ele>994.9</ele>
        <time>2015-07-24T07:19:22Z</time>
      </trkpt>
      <trkpt lat="44.80071" lon="5.98313">
        <ele>994</ele>
        <time>2015-07-24T07:19:27Z</time>
      </trkpt>
      <trkpt lat="44.80078" lon="5.98312">
        <ele>992.7</ele>
        <time>2015-07-24T07:19:32Z</time>
      </trkpt>
      <trkpt lat="44.80084" lon="5.98309">
        <ele>990</ele>
        <time>2015-07-24T07:19:37Z</time>
      </trkpt>
      <trkpt lat="44.8009" lon="5.98304">
        <ele>988.3</ele>
        <time>2015-07-24T07:19:42Z</time>
      </trkpt>
      <trkpt lat="44.80096" lon="5.983">
        <ele>986.9</ele>
        <time>2015-07-24T07:19:47Z</time>
      </trkpt>
      <trkpt lat="44.80102" lon="5.98297">
        <ele>985.7</ele>
        <time>2015-07-24T07:19:52Z</time>
      </trkpt>
      <trkpt lat="44.80107" lon="5.98293">
        <ele>984.6</ele>
        <time>2015-07-24T07:19:57Z</time>
      </trkpt>
      <trkpt lat="44.80112" lon="5.98287">
        <ele>985</ele>
        <time>2015-07-24T07:20:02Z</time>
      </trkpt>
      <trkpt lat="44.80118" lon="5.98286">
        <ele>985.6</ele>
        <time>2015-07-24T07:20:07Z</time>
      </trkpt>
      <trkpt lat="44.80124" lon="5.98282">
        <ele>985.3</ele>
        <time>2015-07-24T07:20:12Z</time>
      </trkpt>
      <trkpt lat="44.8013" lon="5.98277">
        <ele>984.1</ele>
        <time>2015-07-24T07:20:17Z</time>
      </trkpt>
      <trkpt lat="44.80134" lon="5.98269">
        <ele>982.6</ele>
        <time>2015-07-24T07:20:22Z</time>
      </trkpt>
      <trkpt lat="44.80134" lon="5.98261">
        <ele>981.2</ele>
        <time>2015-07-24T07:20:27Z</time>
      </trkpt>
      <trkpt lat="44.80132" lon="5.98252">
        <ele>981.1</ele>
        <time>2015-07-24T07:20:32Z</time>
      </trkpt>
      <trkpt lat="44.80132" lon="5.9825">
        <ele>982.3</ele>
        <time>2015-07-24T07:20:37Z</time>
      </trkpt>
      <trkpt lat="44.80132" lon="5.98248">
        <ele>983.7</ele>
        <time>2015-07-24T07:20:42Z</time>
      </trkpt>
      <trkpt lat="44.80133" lon="5.98248">
        <ele>983.9</ele>
        <time>2015-07-24T07:20:47Z</time>
      </trkpt>
      <trkpt lat="44.80133" lon="5.98248">
        <ele>984.2</ele>
        <time>2015-07-24T07:20:52Z</time>
      </trkpt>
      <trkpt lat="44.80131" lon="5.98247">
        <ele>985.3</ele>
        <time>2015-07-24T07:20:57Z</time>
      </trkpt>
      <trkpt lat="44.80131" lon="5.98246">
        <ele>985.3</ele>
        <time>2015-07-24T07:21:02Z</time>
      </trkpt>
      <trkpt lat="44.8013" lon="5.98246">
        <ele>983.9</ele>
        <time>2015-07-24T07:21:07Z</time>
      </trkpt>
      <trkpt lat="44.8013" lon="5.98246">
        <ele>982.7</ele>
        <time>2015-07-24T07:21:12Z</time>
      </trkpt>
      <trkpt lat="44.8013" lon="5.98246">
        <ele>981.2</ele>
        <time>2015-07-24T07:21:17Z</time>
      </trkpt>
      <trkpt lat="44.8013" lon="5.98247">
        <ele>979.8</ele>
        <time>2015-07-24T07:21:22Z</time>
      </trkpt>
      <trkpt lat="44.8013" lon="5.98247">
        <ele>979.9</ele>
        <time>2015-07-24T07:21:27Z</time>
      </trkpt>
      <trkpt lat="44.80133" lon="5.98251">
        <ele>982.3</ele>
        <time>2015-07-24T07:21:32Z</time>
      </trkpt>
      <trkpt lat="44.80134" lon="5.9825">
        <ele>981.7</ele>
        <time>2015-07-24T07:21:37Z</time>
      </trkpt>
      <trkpt lat="44.80133" lon="5.98249">
        <ele>980.7</ele>
        <time>2015-07-24T07:21:42Z</time>
      </trkpt>
      <trkpt lat="44.80133" lon="5.98251">
        <ele>978.7</ele>
        <time>2015-07-24T07:21:47Z</time>
      </trkpt>
      <trkpt lat="44.80138" lon="5.98256">
        <ele>978.6</ele>
        <time>2015-07-24T07:21:52Z</time>
      </trkpt>
      <trkpt lat="44.80146" lon="5.98257">
        <ele>979.4</ele>
        <time>2015-07-24T07:21:57Z</time>
      </trkpt>
      <trkpt lat="44.80154" lon="5.98256">
        <ele>979.4</ele>
        <time>2015-07-24T07:22:02Z</time>
      </trkpt>
      <trkpt lat="44.8016" lon="5.98256">
        <ele>978.5</ele>
        <time>2015-07-24T07:22:07Z</time>
      </trkpt>
      <trkpt lat="44.80163" lon="5.98257">
        <ele>979.6</ele>
        <time>2015-07-24T07:22:12Z</time>
      </trkpt>
      <trkpt lat="44.80162" lon="5.98256">
        <ele>981.6</ele>
        <time>2015-07-24T07:22:17Z</time>
      </trkpt>
      <trkpt lat="44.80165" lon="5.98259">
        <ele>976.8</ele>
        <time>2015-07-24T07:22:22Z</time>
      </trkpt>
      <trkpt lat="44.80164" lon="5.98266">
        <ele>973.8</ele>
        <time>2015-07-24T07:22:29Z</time>
      </trkpt>
      <trkpt lat="44.80166" lon="5.98271">
        <ele>969.5</ele>
        <time>2015-07-24T07:22:34Z</time>
      </trkpt>
      <trkpt lat="44.80162" lon="5.98274">
        <ele>972.8</ele>
        <time>2015-07-24T07:22:39Z</time>
      </trkpt>
      <trkpt lat="44.80158" lon="5.98277">
        <ele>976.8</ele>
        <time>2015-07-24T07:22:44Z</time>
      </trkpt>
      <trkpt lat="44.80156" lon="5.9828">
        <ele>977.3</ele>
        <time>2015-07-24T07:22:49Z</time>
      </trkpt>
      <trkpt lat="44.80159" lon="5.98282">
        <ele>975.4</ele>
        <time>2015-07-24T07:22:54Z</time>
      </trkpt>
      <trkpt lat="44.80156" lon="5.98276">
        <ele>978.2</ele>
        <time>2015-07-24T07:22:59Z</time>
      </trkpt>
      <trkpt lat="44.80156" lon="5.98277">
        <ele>984</ele>
        <time>2015-07-24T07:23:04Z</time>
      </trkpt>
      <trkpt lat="44.80156" lon="5.98276">
        <ele>981.6</ele>
        <time>2015-07-24T07:23:09Z</time>
      </trkpt>
      <trkpt lat="44.80156" lon="5.98274">
        <ele>976.4</ele>
        <time>2015-07-24T07:23:14Z</time>
      </trkpt>
      <trkpt lat="44.80156" lon="5.98272">
        <ele>973.8</ele>
        <time>2015-07-24T07:23:19Z</time>
      </trkpt>
      <trkpt lat="44.80155" lon="5.98267">
        <ele>971.9</ele>
        <time>2015-07-24T07:23:24Z</time>
      </trkpt>
      <trkpt lat="44.8015" lon="5.98266">
        <ele>972.9</ele>
        <time>2015-07-24T07:23:29Z</time>
      </trkpt>
      <trkpt lat="44.8015" lon="5.98265">
        <ele>973.1</ele>
        <time>2015-07-24T07:23:34Z</time>
      </trkpt>
      <trkpt lat="44.80151" lon="5.98265">
        <ele>971.5</ele>
        <time>2015-07-24T07:23:39Z</time>
      </trkpt>
      <trkpt lat="44.80155" lon="5.98269">
        <ele>970.2</ele>
        <time>2015-07-24T07:23:44Z</time>
      </trkpt>
      <trkpt lat="44.80151" lon="5.98263">
        <ele>971.6</ele>
        <time>2015-07-24T07:23:49Z</time>
      </trkpt>
      <trkpt lat="44.80153" lon="5.9826">
        <ele>973.1</ele>
        <time>2015-07-24T07:23:54Z</time>
      </trkpt>
      <trkpt lat="44.80155" lon="5.98264">
        <ele>971.7</ele>
        <time>2015-07-24T07:23:59Z</time>
      </trkpt>
      <trkpt lat="44.80156" lon="5.98268">
        <ele>973.9</ele>
        <time>2015-07-24T07:24:04Z</time>
      </trkpt>
      <trkpt lat="44.80158" lon="5.98266">
        <ele>977</ele>
        <time>2015-07-24T07:24:09Z</time>
      </trkpt>
      <trkpt lat="44.80156" lon="5.98267">
        <ele>983.5</ele>
        <time>2015-07-24T07:24:14Z</time>
      </trkpt>
      <trkpt lat="44.80155" lon="5.98266">
        <ele>981.7</ele>
        <time>2015-07-24T07:24:19Z</time>
      </trkpt>
      <trkpt lat="44.80153" lon="5.98262">
        <ele>985.4</ele>
        <time>2015-07-24T07:24:24Z</time>
      </trkpt>
      <trkpt lat="44.80153" lon="5.98261">
        <ele>990.6</ele>
        <time>2015-07-24T07:24:29Z</time>
      </trkpt>
      <trkpt lat="44.80155" lon="5.98264">
        <ele>988.5</ele>
        <time>2015-07-24T07:24:34Z</time>
      </trkpt>
      <trkpt lat="44.80156" lon="5.98266">
        <ele>988.5</ele>
        <time>2015-07-24T07:24:39Z</time>
      </trkpt>
      <trkpt lat="44.80154" lon="5.98263">
        <ele>990.2</ele>
        <time>2015-07-24T07:24:44Z</time>
      </trkpt>
      <trkpt lat="44.80155" lon="5.98261">
        <ele>991.8</ele>
        <time>2015-07-24T07:24:49Z</time>
      </trkpt>
      <trkpt lat="44.80156" lon="5.98263">
        <ele>989.8</ele>
        <time>2015-07-24T07:24:54Z</time>
      </trkpt>
      <trkpt lat="44.80156" lon="5.98264">
        <ele>987.5</ele>
        <time>2015-07-24T07:24:59Z</time>
      </trkpt>
      <trkpt lat="44.80156" lon="5.98264">
        <ele>985.4</ele>
        <time>2015-07-24T07:25:04Z</time>
      </trkpt>
      <trkpt lat="44.80156" lon="5.98265">
        <ele>985.7</ele>
        <time>2015-07-24T07:25:09Z</time>
      </trkpt>
      <trkpt lat="44.80159" lon="5.98267">
        <ele>984.7</ele>
        <time>2015-07-24T07:25:14Z</time>
      </trkpt>
      <trkpt lat="44.8016" lon="5.98269">
        <ele>987.1</ele>
        <time>2015-07-24T07:25:19Z</time>
      </trkpt>
      <trkpt lat="44.80162" lon="5.98269">
        <ele>989.8</ele>
        <time>2015-07-24T07:25:24Z</time>
      </trkpt>
      <trkpt lat="44.8016" lon="5.98267">
        <ele>990.8</ele>
        <time>2015-07-24T07:25:29Z</time>
      </trkpt>
      <trkpt lat="44.8016" lon="5.98264">
        <ele>992.4</ele>
        <time>2015-07-24T07:25:34Z</time>
      </trkpt>
      <trkpt lat="44.80157" lon="5.9826">
        <ele>995.8</ele>
        <time>2015-07-24T07:25:39Z</time>
      </trkpt>
      <trkpt lat="44.80156" lon="5.98259">
        <ele>998.5</ele>
        <time>2015-07-24T07:25:44Z</time>
      </trkpt>
      <trkpt lat="44.80155" lon="5.98258">
        <ele>998.2</ele>
        <time>2015-07-24T07:25:49Z</time>
      </trkpt>
      <trkpt lat="44.80153" lon="5.98259">
        <ele>997.3</ele>
        <time>2015-07-24T07:25:54Z</time>
      </trkpt>
      <trkpt lat="44.80153" lon="5.98259">
        <ele>995.3</ele>
        <time>2015-07-24T07:25:59Z</time>
      </trkpt>
      <trkpt lat="44.80159" lon="5.98263">
        <ele>993.9</ele>
        <time>2015-07-24T07:26:06Z</time>
      </trkpt>
      <trkpt lat="44.80161" lon="5.98265">
        <ele>990.9</ele>
        <time>2015-07-24T07:26:11Z</time>
      </trkpt>
      <trkpt lat="44.80159" lon="5.98264">
        <ele>989.1</ele>
        <time>2015-07-24T07:26:16Z</time>
      </trkpt>
      <trkpt lat="44.80161" lon="5.98268">
        <ele>989.1</ele>
        <time>2015-07-24T07:26:21Z</time>
      </trkpt>
      <trkpt lat="44.80164" lon="5.98271">
        <ele>985.9</ele>
        <time>2015-07-24T07:26:26Z</time>
      </trkpt>
      <trkpt lat="44.80166" lon="5.98272">
        <ele>982.1</ele>
        <time>2015-07-24T07:26:31Z</time>
      </trkpt>
      <trkpt lat="44.80166" lon="5.9827">
        <ele>981.7</ele>
        <time>2015-07-24T07:26:36Z</time>
      </trkpt>
      <trkpt lat="44.80166" lon="5.98271">
        <ele>980.4</ele>
        <time>2015-07-24T07:26:41Z</time>
      </trkpt>
      <trkpt lat="44.80167" lon="5.98272">
        <ele>980.3</ele>
        <time>2015-07-24T07:26:46Z</time>
      </trkpt>
      <trkpt lat="44.80166" lon="5.98271">
        <ele>983.1</ele>
        <time>2015-07-24T07:26:51Z</time>
      </trkpt>
      <trkpt lat="44.80166" lon="5.98268">
        <ele>982.7</ele>
        <time>2015-07-24T07:26:56Z</time>
      </trkpt>
      <trkpt lat="44.80167" lon="5.98266">
        <ele>981.2</ele>
        <time>2015-07-24T07:27:01Z</time>
      </trkpt>
      <trkpt lat="44.80167" lon="5.98266">
        <ele>981.4</ele>
        <time>2015-07-24T07:27:06Z</time>
      </trkpt>
      <trkpt lat="44.80166" lon="5.98268">
        <ele>983.5</ele>
        <time>2015-07-24T07:27:11Z</time>
      </trkpt>
      <trkpt lat="44.80168" lon="5.98268">
        <ele>981.7</ele>
        <time>2015-07-24T07:27:16Z</time>
      </trkpt>
      <trkpt lat="44.80168" lon="5.98267">
        <ele>981</ele>
        <time>2015-07-24T07:27:21Z</time>
      </trkpt>
      <trkpt lat="44.80167" lon="5.98265">
        <ele>983.3</ele>
        <time>2015-07-24T07:27:26Z</time>
      </trkpt>
      <trkpt lat="44.80163" lon="5.98261">
        <ele>989</ele>
        <time>2015-07-24T07:27:31Z</time>
      </trkpt>
      <trkpt lat="44.80161" lon="5.98258">
        <ele>990.9</ele>
        <time>2015-07-24T07:27:36Z</time>
      </trkpt>
      <trkpt lat="44.80161" lon="5.98258">
        <ele>990.8</ele>
        <time>2015-07-24T07:27:41Z</time>
      </trkpt>
      <trkpt lat="44.80162" lon="5.98259">
        <ele>990.9</ele>
        <time>2015-07-24T07:27:46Z</time>
      </trkpt>
      <trkpt lat="44.80161" lon="5.98259">
        <ele>993.9</ele>
        <time>2015-07-24T07:27:51Z</time>
      </trkpt>
      <trkpt lat="44.80159" lon="5.98257">
        <ele>998.2</ele>
        <time>2015-07-24T07:27:56Z</time>
      </trkpt>
      <trkpt lat="44.80156" lon="5.98254">
        <ele>1001.1</ele>
        <time>2015-07-24T07:28:01Z</time>
      </trkpt>
      <trkpt lat="44.80156" lon="5.98255">
        <ele>1001.2</ele>
        <time>2015-07-24T07:28:06Z</time>
      </trkpt>
      <trkpt lat="44.80156" lon="5.98254">
        <ele>999.2</ele>
        <time>2015-07-24T07:28:11Z</time>
      </trkpt>
      <trkpt lat="44.80156" lon="5.98254">
        <ele>996.9</ele>
        <time>2015-07-24T07:28:16Z</time>
      </trkpt>
      <trkpt lat="44.80157" lon="5.98258">
        <ele>997</ele>
        <time>2015-07-24T07:28:21Z</time>
      </trkpt>
      <trkpt lat="44.8016" lon="5.98261">
        <ele>997.4</ele>
        <time>2015-07-24T07:28:26Z</time>
      </trkpt>
      <trkpt lat="44.80162" lon="5.98262">
        <ele>994.1</ele>
        <time>2015-07-24T07:28:31Z</time>
      </trkpt>
      <trkpt lat="44.80163" lon="5.98264">
        <ele>989.6</ele>
        <time>2015-07-24T07:28:36Z</time>
      </trkpt>
      <trkpt lat="44.80163" lon="5.98263">
        <ele>980.9</ele>
        <time>2015-07-24T07:28:41Z</time>
      </trkpt>
      <trkpt lat="44.80164" lon="5.98263">
        <ele>977</ele>
        <time>2015-07-24T07:28:46Z</time>
      </trkpt>
      <trkpt lat="44.80161" lon="5.9826">
        <ele>980.9</ele>
        <time>2015-07-24T07:28:51Z</time>
      </trkpt>
      <trkpt lat="44.80157" lon="5.98256">
        <ele>986.8</ele>
        <time>2015-07-24T07:28:56Z</time>
      </trkpt>
      <trkpt lat="44.80157" lon="5.98256">
        <ele>989.2</ele>
        <time>2015-07-24T07:29:01Z</time>
      </trkpt>
      <trkpt lat="44.80156" lon="5.98258">
        <ele>992.8</ele>
        <time>2015-07-24T07:29:06Z</time>
      </trkpt>
      <trkpt lat="44.80157" lon="5.9826">
        <ele>995</ele>
        <time>2015-07-24T07:29:11Z</time>
      </trkpt>
      <trkpt lat="44.80156" lon="5.9826">
        <ele>993.3</ele>
        <time>2015-07-24T07:29:16Z</time>
      </trkpt>
      <trkpt lat="44.80156" lon="5.98261">
        <ele>994.7</ele>
        <time>2015-07-24T07:29:21Z</time>
      </trkpt>
      <trkpt lat="44.80157" lon="5.98261">
        <ele>993.6</ele>
        <time>2015-07-24T07:29:26Z</time>
      </trkpt>
      <trkpt lat="44.80157" lon="5.98262">
        <ele>989</ele>
        <time>2015-07-24T07:29:31Z</time>
      </trkpt>
      <trkpt lat="44.80158" lon="5.98262">
        <ele>986.4</ele>
        <time>2015-07-24T07:29:36Z</time>
      </trkpt>
      <trkpt lat="44.80158" lon="5.98262">
        <ele>985.5</ele>
        <time>2015-07-24T07:29:41Z</time>
      </trkpt>
      <trkpt lat="44.80159" lon="5.98259">
        <ele>981.1</ele>
        <time>2015-07-24T07:29:46Z</time>
      </trkpt>
      <trkpt lat="44.80161" lon="5.98257">
        <ele>977.7</ele>
        <time>2015-07-24T07:29:51Z</time>
      </trkpt>
      <trkpt lat="44.80161" lon="5.98258">
        <ele>979</ele>
        <time>2015-07-24T07:29:56Z</time>
      </trkpt>
      <trkpt lat="44.80161" lon="5.98259">
        <ele>980.5</ele>
        <time>2015-07-24T07:30:01Z</time>
      </trkpt>
      <trkpt lat="44.80161" lon="5.9826">
        <ele>981.6</ele>
        <time>2015-07-24T07:30:06Z</time>
      </trkpt>
      <trkpt lat="44.80161" lon="5.9826">
        <ele>983.9</ele>
        <time>2015-07-24T07:30:11Z</time>
      </trkpt>
      <trkpt lat="44.8016" lon="5.98259">
        <ele>983.9</ele>
        <time>2015-07-24T07:30:16Z</time>
      </trkpt>
      <trkpt lat="44.80158" lon="5.98258">
        <ele>983.9</ele>
        <time>2015-07-24T07:30:21Z</time>
      </trkpt>
      <trkpt lat="44.80158" lon="5.98258">
        <ele>983.2</ele>
        <time>2015-07-24T07:30:26Z</time>
      </trkpt>
      <trkpt lat="44.80159" lon="5.98258">
        <ele>982.1</ele>
        <time>2015-07-24T07:30:31Z</time>
      </trkpt>
      <trkpt lat="44.80159" lon="5.98259">
        <ele>983.5</ele>
        <time>2015-07-24T07:30:36Z</time>
      </trkpt>
      <trkpt lat="44.80156" lon="5.98261">
        <ele>989.9</ele>
        <time>2015-07-24T07:30:41Z</time>
      </trkpt>
      <trkpt lat="44.80156" lon="5.98262">
        <ele>992.6</ele>
        <time>2015-07-24T07:30:46Z</time>
      </trkpt>
      <trkpt lat="44.80156" lon="5.98263">
        <ele>989.8</ele>
        <time>2015-07-24T07:30:51Z</time>
      </trkpt>
      <trkpt lat="44.80156" lon="5.98261">
        <ele>989.3</ele>
        <time>2015-07-24T07:30:56Z</time>
      </trkpt>
      <trkpt lat="44.80157" lon="5.98259">
        <ele>985.7</ele>
        <time>2015-07-24T07:31:01Z</time>
      </trkpt>
      <trkpt lat="44.80158" lon="5.98258">
        <ele>982.9</ele>
        <time>2015-07-24T07:31:06Z</time>
      </trkpt>
      <trkpt lat="44.80158" lon="5.98258">
        <ele>982.9</ele>
        <time>2015-07-24T07:31:11Z</time>
      </trkpt>
      <trkpt lat="44.80159" lon="5.98258">
        <ele>981.5</ele>
        <time>2015-07-24T07:31:16Z</time>
      </trkpt>
      <trkpt lat="44.80159" lon="5.98259">
        <ele>980.1</ele>
        <time>2015-07-24T07:31:21Z</time>
      </trkpt>
      <trkpt lat="44.8016" lon="5.98259">
        <ele>977.8</ele>
        <time>2015-07-24T07:31:26Z</time>
      </trkpt>
      <trkpt lat="44.80159" lon="5.98258">
        <ele>978.7</ele>
        <time>2015-07-24T07:31:31Z</time>
      </trkpt>
      <trkpt lat="44.80157" lon="5.98257">
        <ele>979.6</ele>
        <time>2015-07-24T07:31:36Z</time>
      </trkpt>
      <trkpt lat="44.80156" lon="5.98257">
        <ele>979.2</ele>
        <time>2015-07-24T07:31:41Z</time>
      </trkpt>
      <trkpt lat="44.80157" lon="5.98258">
        <ele>977.4</ele>
        <time>2015-07-24T07:31:46Z</time>
      </trkpt>
      <trkpt lat="44.80156" lon="5.9826">
        <ele>971.5</ele>
        <time>2015-07-24T07:31:51Z</time>
      </trkpt>
      <trkpt lat="44.80156" lon="5.98263">
        <ele>966.7</ele>
        <time>2015-07-24T07:31:56Z</time>
      </trkpt>
      <trkpt lat="44.8016" lon="5.98266">
        <ele>962.2</ele>
        <time>2015-07-24T07:32:01Z</time>
      </trkpt>
      <trkpt lat="44.80162" lon="5.98266">
        <ele>969.1</ele>
        <time>2015-07-24T07:32:06Z</time>
      </trkpt>
      <trkpt lat="44.80161" lon="5.98263">
        <ele>979.6</ele>
        <time>2015-07-24T07:32:11Z</time>
      </trkpt>
      <trkpt lat="44.80158" lon="5.98262">
        <ele>989.2</ele>
        <time>2015-07-24T07:32:16Z</time>
      </trkpt>
      <trkpt lat="44.8016" lon="5.98266">
        <ele>990.7</ele>
        <time>2015-07-24T07:32:21Z</time>
      </trkpt>
      <trkpt lat="44.80159" lon="5.98267">
        <ele>993.7</ele>
        <time>2015-07-24T07:32:26Z</time>
      </trkpt>
      <trkpt lat="44.80159" lon="5.98267">
        <ele>994.8</ele>
        <time>2015-07-24T07:32:31Z</time>
      </trkpt>
      <trkpt lat="44.80158" lon="5.98269">
        <ele>998</ele>
        <time>2015-07-24T07:32:36Z</time>
      </trkpt>
      <trkpt lat="44.80156" lon="5.98268">
        <ele>1000.5</ele>
        <time>2015-07-24T07:32:41Z</time>
      </trkpt>
      <trkpt lat="44.80155" lon="5.98267">
        <ele>1003.5</ele>
        <time>2015-07-24T07:32:46Z</time>
      </trkpt>
      <trkpt lat="44.80155" lon="5.98266">
        <ele>1003.5</ele>
        <time>2015-07-24T07:32:51Z</time>
      </trkpt>
      <trkpt lat="44.80154" lon="5.98264">
        <ele>1004.3</ele>
        <time>2015-07-24T07:32:56Z</time>
      </trkpt>
      <trkpt lat="44.80155" lon="5.98265">
        <ele>999.7</ele>
        <time>2015-07-24T07:33:01Z</time>
      </trkpt>
      <trkpt lat="44.80155" lon="5.98263">
        <ele>996.1</ele>
        <time>2015-07-24T07:33:06Z</time>
      </trkpt>
      <trkpt lat="44.80154" lon="5.98262">
        <ele>996.8</ele>
        <time>2015-07-24T07:33:11Z</time>
      </trkpt>
      <trkpt lat="44.80156" lon="5.9826">
        <ele>992.1</ele>
        <time>2015-07-24T07:33:16Z</time>
      </trkpt>
      <trkpt lat="44.80157" lon="5.9826">
        <ele>988</ele>
        <time>2015-07-24T07:33:21Z</time>
      </trkpt>
      <trkpt lat="44.80159" lon="5.98261">
        <ele>984.6</ele>
        <time>2015-07-24T07:33:26Z</time>
      </trkpt>
      <trkpt lat="44.80157" lon="5.98261">
        <ele>986.6</ele>
        <time>2015-07-24T07:33:31Z</time>
      </trkpt>
      <trkpt lat="44.80156" lon="5.98261">
        <ele>990</ele>
        <time>2015-07-24T07:33:36Z</time>
      </trkpt>
      <trkpt lat="44.80153" lon="5.98265">
        <ele>995.5</ele>
        <time>2015-07-24T07:33:41Z</time>
      </trkpt>
      <trkpt lat="44.8015" lon="5.98264">
        <ele>997.9</ele>
        <time>2015-07-24T07:33:46Z</time>
      </trkpt>
      <trkpt lat="44.80149" lon="5.98264">
        <ele>996.3</ele>
        <time>2015-07-24T07:33:51Z</time>
      </trkpt>
      <trkpt lat="44.80147" lon="5.9826">
        <ele>995.9</ele>
        <time>2015-07-24T07:33:56Z</time>
      </trkpt>
      <trkpt lat="44.80146" lon="5.98256">
        <ele>995.5</ele>
        <time>2015-07-24T07:34:01Z</time>
      </trkpt>
      <trkpt lat="44.80146" lon="5.98256">
        <ele>998.5</ele>
        <time>2015-07-24T07:34:06Z</time>
      </trkpt>
      <trkpt lat="44.80148" lon="5.98259">
        <ele>1001.3</ele>
        <time>2015-07-24T07:34:11Z</time>
      </trkpt>
      <trkpt lat="44.80148" lon="5.9826">
        <ele>999.5</ele>
        <time>2015-07-24T07:34:16Z</time>
      </trkpt>
      <trkpt lat="44.80149" lon="5.98258">
        <ele>1001.7</ele>
        <time>2015-07-24T07:34:21Z</time>
      </trkpt>
      <trkpt lat="44.80146" lon="5.98257">
        <ele>1004.6</ele>
        <time>2015-07-24T07:34:26Z</time>
      </trkpt>
      <trkpt lat="44.80144" lon="5.98255">
        <ele>1005.3</ele>
        <time>2015-07-24T07:34:31Z</time>
      </trkpt>
      <trkpt lat="44.80142" lon="5.98256">
        <ele>1009.1</ele>
        <time>2015-07-24T07:34:36Z</time>
      </trkpt>
      <trkpt lat="44.80142" lon="5.98257">
        <ele>1015.9</ele>
        <time>2015-07-24T07:34:41Z</time>
      </trkpt>
      <trkpt lat="44.80138" lon="5.98257">
        <ele>1015.8</ele>
        <time>2015-07-24T07:34:46Z</time>
      </trkpt>
      <trkpt lat="44.80135" lon="5.98257">
        <ele>1014.7</ele>
        <time>2015-07-24T07:34:51Z</time>
      </trkpt>
      <trkpt lat="44.80132" lon="5.98253">
        <ele>1014.1</ele>
        <time>2015-07-24T07:34:56Z</time>
      </trkpt>
      <trkpt lat="44.80132" lon="5.98253">
        <ele>1014.5</ele>
        <time>2015-07-24T07:35:01Z</time>
      </trkpt>
      <trkpt lat="44.8013" lon="5.98254">
        <ele>1018.3</ele>
        <time>2015-07-24T07:35:06Z</time>
      </trkpt>
      <trkpt lat="44.80133" lon="5.98256">
        <ele>1014.7</ele>
        <time>2015-07-24T07:35:11Z</time>
      </trkpt>
      <trkpt lat="44.80135" lon="5.98256">
        <ele>1008</ele>
        <time>2015-07-24T07:35:16Z</time>
      </trkpt>
      <trkpt lat="44.80134" lon="5.98257">
        <ele>1004.9</ele>
        <time>2015-07-24T07:35:21Z</time>
      </trkpt>
      <trkpt lat="44.80135" lon="5.98259">
        <ele>1002.2</ele>
        <time>2015-07-24T07:35:26Z</time>
      </trkpt>
      <trkpt lat="44.80134" lon="5.98257">
        <ele>998.6</ele>
        <time>2015-07-24T07:35:31Z</time>
      </trkpt>
      <trkpt lat="44.80135" lon="5.98257">
        <ele>996</ele>
        <time>2015-07-24T07:35:36Z</time>
      </trkpt>
      <trkpt lat="44.80137" lon="5.98257">
        <ele>994.9</ele>
        <time>2015-07-24T07:35:41Z</time>
      </trkpt>
      <trkpt lat="44.80142" lon="5.98261">
        <ele>989.4</ele>
        <time>2015-07-24T07:35:46Z</time>
      </trkpt>
      <trkpt lat="44.80144" lon="5.98263">
        <ele>986.9</ele>
        <time>2015-07-24T07:35:51Z</time>
      </trkpt>
      <trkpt lat="44.80145" lon="5.98263">
        <ele>986.3</ele>
        <time>2015-07-24T07:35:56Z</time>
      </trkpt>
      <trkpt lat="44.80143" lon="5.98264">
        <ele>988.2</ele>
        <time>2015-07-24T07:36:01Z</time>
      </trkpt>
      <trkpt lat="44.80143" lon="5.98266">
        <ele>988.1</ele>
        <time>2015-07-24T07:36:06Z</time>
      </trkpt>
      <trkpt lat="44.80143" lon="5.98264">
        <ele>988.7</ele>
        <time>2015-07-24T07:36:11Z</time>
      </trkpt>
      <trkpt lat="44.8014" lon="5.98263">
        <ele>991.2</ele>
        <time>2015-07-24T07:36:16Z</time>
      </trkpt>
      <trkpt lat="44.80141" lon="5.98264">
        <ele>990.3</ele>
        <time>2015-07-24T07:36:21Z</time>
      </trkpt>
      <trkpt lat="44.80143" lon="5.98265">
        <ele>995</ele>
        <time>2015-07-24T07:36:26Z</time>
      </trkpt>
      <trkpt lat="44.80147" lon="5.98263">
        <ele>996.7</ele>
        <time>2015-07-24T07:36:33Z</time>
      </trkpt>
      <trkpt lat="44.80155" lon="5.98261">
        <ele>988.7</ele>
        <time>2015-07-24T07:36:38Z</time>
      </trkpt>
      <trkpt lat="44.80156" lon="5.98263">
        <ele>986.9</ele>
        <time>2015-07-24T07:36:43Z</time>
      </trkpt>
      <trkpt lat="44.80155" lon="5.98264">
        <ele>989.8</ele>
        <time>2015-07-24T07:36:48Z</time>
      </trkpt>
      <trkpt lat="44.80152" lon="5.98264">
        <ele>996.6</ele>
        <time>2015-07-24T07:36:53Z</time>
      </trkpt>
      <trkpt lat="44.80152" lon="5.98266">
        <ele>998.3</ele>
        <time>2015-07-24T07:36:58Z</time>
      </trkpt>
      <trkpt lat="44.80153" lon="5.98269">
        <ele>996.6</ele>
        <time>2015-07-24T07:37:03Z</time>
      </trkpt>
      <trkpt lat="44.80154" lon="5.9827">
        <ele>993.5</ele>
        <time>2015-07-24T07:37:08Z</time>
      </trkpt>
      <trkpt lat="44.80154" lon="5.98269">
        <ele>993.9</ele>
        <time>2015-07-24T07:37:13Z</time>
      </trkpt>
      <trkpt lat="44.80153" lon="5.98266">
        <ele>994.2</ele>
        <time>2015-07-24T07:37:18Z</time>
      </trkpt>
      <trkpt lat="44.80148" lon="5.98263">
        <ele>995.9</ele>
        <time>2015-07-24T07:37:23Z</time>
      </trkpt>
      <trkpt lat="44.80146" lon="5.98265">
        <ele>1000</ele>
        <time>2015-07-24T07:37:28Z</time>
      </trkpt>
      <trkpt lat="44.80147" lon="5.98265">
        <ele>997.5</ele>
        <time>2015-07-24T07:37:33Z</time>
      </trkpt>
      <trkpt lat="44.80147" lon="5.98265">
        <ele>997.3</ele>
        <time>2015-07-24T07:37:38Z</time>
      </trkpt>
      <trkpt lat="44.80148" lon="5.98268">
        <ele>995.3</ele>
        <time>2015-07-24T07:37:43Z</time>
      </trkpt>
      <trkpt lat="44.80149" lon="5.98269">
        <ele>997.1</ele>
        <time>2015-07-24T07:37:48Z</time>
      </trkpt>
      <trkpt lat="44.80149" lon="5.98266">
        <ele>997.1</ele>
        <time>2015-07-24T07:37:53Z</time>
      </trkpt>
      <trkpt lat="44.8015" lon="5.98267">
        <ele>995.6</ele>
        <time>2015-07-24T07:37:58Z</time>
      </trkpt>
      <trkpt lat="44.80149" lon="5.98266">
        <ele>995.8</ele>
        <time>2015-07-24T07:38:03Z</time>
      </trkpt>
      <trkpt lat="44.80154" lon="5.9827">
        <ele>991.7</ele>
        <time>2015-07-24T07:38:08Z</time>
      </trkpt>
      <trkpt lat="44.80152" lon="5.98271">
        <ele>990.2</ele>
        <time>2015-07-24T07:38:13Z</time>
      </trkpt>
      <trkpt lat="44.80149" lon="5.98274">
        <ele>996.2</ele>
        <time>2015-07-24T07:38:18Z</time>
      </trkpt>
      <trkpt lat="44.80148" lon="5.98273">
        <ele>998.6</ele>
        <time>2015-07-24T07:38:23Z</time>
      </trkpt>
      <trkpt lat="44.80148" lon="5.98271">
        <ele>999.8</ele>
        <time>2015-07-24T07:38:28Z</time>
      </trkpt>
      <trkpt lat="44.80148" lon="5.98268">
        <ele>999.7</ele>
        <time>2015-07-24T07:38:33Z</time>
      </trkpt>
      <trkpt lat="44.80146" lon="5.98268">
        <ele>998.8</ele>
        <time>2015-07-24T07:38:38Z</time>
      </trkpt>
      <trkpt lat="44.80142" lon="5.98265">
        <ele>995.8</ele>
        <time>2015-07-24T07:38:43Z</time>
      </trkpt>
      <trkpt lat="44.80139" lon="5.98253">
        <ele>993.6</ele>
        <time>2015-07-24T07:38:48Z</time>
      </trkpt>
      <trkpt lat="44.80144" lon="5.9825">
        <ele>992.1</ele>
        <time>2015-07-24T07:38:53Z</time>
      </trkpt>
      <trkpt lat="44.80151" lon="5.98252">
        <ele>986.4</ele>
        <time>2015-07-24T07:38:58Z</time>
      </trkpt>
      <trkpt lat="44.80146" lon="5.98247">
        <ele>985.8</ele>
        <time>2015-07-24T07:39:03Z</time>
      </trkpt>
      <trkpt lat="44.80142" lon="5.98243">
        <ele>989.3</ele>
        <time>2015-07-24T07:39:08Z</time>
      </trkpt>
      <trkpt lat="44.80145" lon="5.98247">
        <ele>992.8</ele>
        <time>2015-07-24T07:39:13Z</time>
      </trkpt>
      <trkpt lat="44.8015" lon="5.98251">
        <ele>986.1</ele>
        <time>2015-07-24T07:39:18Z</time>
      </trkpt>
      <trkpt lat="44.80156" lon="5.98258">
        <ele>980.6</ele>
        <time>2015-07-24T07:39:23Z</time>
      </trkpt>
      <trkpt lat="44.80159" lon="5.98267">
        <ele>979.7</ele>
        <time>2015-07-24T07:39:28Z</time>
      </trkpt>
      <trkpt lat="44.8016" lon="5.98269">
        <ele>980</ele>
        <time>2015-07-24T07:39:33Z</time>
      </trkpt>
      <trkpt lat="44.80159" lon="5.98265">
        <ele>979.6</ele>
        <time>2015-07-24T07:39:38Z</time>
      </trkpt>
      <trkpt lat="44.80158" lon="5.98269">
        <ele>975.6</ele>
        <time>2015-07-24T07:39:43Z</time>
      </trkpt>
      <trkpt lat="44.80158" lon="5.98267">
        <ele>972.5</ele>
        <time>2015-07-24T07:39:48Z</time>
      </trkpt>
      <trkpt lat="44.8016" lon="5.98262">
        <ele>969.7</ele>
        <time>2015-07-24T07:39:53Z</time>
      </trkpt>
      <trkpt lat="44.80158" lon="5.9826">
        <ele>969</ele>
        <time>2015-07-24T07:39:58Z</time>
      </trkpt>
      <trkpt lat="44.80155" lon="5.98261">
        <ele>967.4</ele>
        <time>2015-07-24T07:40:03Z</time>
      </trkpt>
      <trkpt lat="44.80155" lon="5.98268">
        <ele>971</ele>
        <time>2015-07-24T07:40:08Z</time>
      </trkpt>
      <trkpt lat="44.80156" lon="5.98268">
        <ele>978.5</ele>
        <time>2015-07-24T07:40:13Z</time>
      </trkpt>
      <trkpt lat="44.80156" lon="5.98269">
        <ele>978.8</ele>
        <time>2015-07-24T07:40:18Z</time>
      </trkpt>
      <trkpt lat="44.80155" lon="5.98268">
        <ele>980.6</ele>
        <time>2015-07-24T07:40:23Z</time>
      </trkpt>
      <trkpt lat="44.80153" lon="5.98266">
        <ele>978.7</ele>
        <time>2015-07-24T07:40:28Z</time>
      </trkpt>
      <trkpt lat="44.80151" lon="5.98271">
        <ele>972.7</ele>
        <time>2015-07-24T07:40:33Z</time>
      </trkpt>
      <trkpt lat="44.80151" lon="5.9827">
        <ele>968.1</ele>
        <time>2015-07-24T07:40:38Z</time>
      </trkpt>
      <trkpt lat="44.80149" lon="5.98261">
        <ele>968.3</ele>
        <time>2015-07-24T07:40:43Z</time>
      </trkpt>
      <trkpt lat="44.80155" lon="5.98261">
        <ele>966.3</ele>
        <time>2015-07-24T07:40:48Z</time>
      </trkpt>
      <trkpt lat="44.80155" lon="5.98267">
        <ele>969.9</ele>
        <time>2015-07-24T07:40:53Z</time>
      </trkpt>
      <trkpt lat="44.80151" lon="5.98277">
        <ele>969.9</ele>
        <time>2015-07-24T07:40:58Z</time>
      </trkpt>
      <trkpt lat="44.80147" lon="5.98286">
        <ele>969.5</ele>
        <time>2015-07-24T07:41:03Z</time>
      </trkpt>
      <trkpt lat="44.80146" lon="5.98281">
        <ele>975.7</ele>
        <time>2015-07-24T07:41:08Z</time>
      </trkpt>
      <trkpt lat="44.80148" lon="5.98275">
        <ele>973.7</ele>
        <time>2015-07-24T07:41:13Z</time>
      </trkpt>
      <trkpt lat="44.80151" lon="5.98272">
        <ele>972.5</ele>
        <time>2015-07-24T07:41:18Z</time>
      </trkpt>
      <trkpt lat="44.80152" lon="5.9827">
        <ele>972.8</ele>
        <time>2015-07-24T07:41:23Z</time>
      </trkpt>
      <trkpt lat="44.8015" lon="5.98271">
        <ele>977.5</ele>
        <time>2015-07-24T07:41:28Z</time>
      </trkpt>
      <trkpt lat="44.80152" lon="5.98268">
        <ele>985</ele>
        <time>2015-07-24T07:41:34Z</time>
      </trkpt>
      <trkpt lat="44.80151" lon="5.98274">
        <ele>993.3</ele>
        <time>2015-07-24T07:41:39Z</time>
      </trkpt>
      <trkpt lat="44.80153" lon="5.98268">
        <ele>992.1</ele>
        <time>2015-07-24T07:41:44Z</time>
      </trkpt>
      <trkpt lat="44.80156" lon="5.98269">
        <ele>985</ele>
        <time>2015-07-24T07:41:49Z</time>
      </trkpt>
      <trkpt lat="44.80155" lon="5.98273">
        <ele>980.5</ele>
        <time>2015-07-24T07:41:54Z</time>
      </trkpt>
      <trkpt lat="44.80153" lon="5.98272">
        <ele>979.9</ele>
        <time>2015-07-24T07:41:59Z</time>
      </trkpt>
      <trkpt lat="44.80155" lon="5.98275">
        <ele>982.5</ele>
        <time>2015-07-24T07:42:04Z</time>
      </trkpt>
      <trkpt lat="44.80153" lon="5.98273">
        <ele>983.8</ele>
        <time>2015-07-24T07:42:09Z</time>
      </trkpt>
      <trkpt lat="44.80149" lon="5.98269">
        <ele>982.1</ele>
        <time>2015-07-24T07:42:14Z</time>
      </trkpt>
      <trkpt lat="44.8015" lon="5.98274">
        <ele>976.9</ele>
        <time>2015-07-24T07:42:19Z</time>
      </trkpt>
      <trkpt lat="44.80154" lon="5.98275">
        <ele>970.3</ele>
        <time>2015-07-24T07:42:24Z</time>
      </trkpt>
      <trkpt lat="44.80155" lon="5.98269">
        <ele>965.9</ele>
        <time>2015-07-24T07:42:29Z</time>
      </trkpt>
      <trkpt lat="44.80153" lon="5.98259">
        <ele>964.5</ele>
        <time>2015-07-24T07:42:34Z</time>
      </trkpt>
      <trkpt lat="44.80151" lon="5.98268">
        <ele>970.8</ele>
        <time>2015-07-24T07:42:39Z</time>
      </trkpt>
      <trkpt lat="44.80153" lon="5.98267">
        <ele>975</ele>
        <time>2015-07-24T07:42:44Z</time>
      </trkpt>
      <trkpt lat="44.80149" lon="5.98261">
        <ele>983.8</ele>
        <time>2015-07-24T07:42:51Z</time>
      </trkpt>
      <trkpt lat="44.80151" lon="5.98267">
        <ele>983.4</ele>
        <time>2015-07-24T07:42:56Z</time>
      </trkpt>
      <trkpt lat="44.8015" lon="5.98264">
        <ele>981</ele>
        <time>2015-07-24T07:43:01Z</time>
      </trkpt>
      <trkpt lat="44.80143" lon="5.98256">
        <ele>979.6</ele>
        <time>2015-07-24T07:43:06Z</time>
      </trkpt>
      <trkpt lat="44.80138" lon="5.98256">
        <ele>979</ele>
        <time>2015-07-24T07:43:11Z</time>
      </trkpt>
      <trkpt lat="44.80133" lon="5.98258">
        <ele>978.5</ele>
        <time>2015-07-24T07:43:16Z</time>
      </trkpt>
      <trkpt lat="44.80129" lon="5.98253">
        <ele>977.4</ele>
        <time>2015-07-24T07:43:21Z</time>
      </trkpt>
      <trkpt lat="44.80129" lon="5.98253">
        <ele>978.4</ele>
        <time>2015-07-24T07:43:26Z</time>
      </trkpt>
      <trkpt lat="44.80132" lon="5.98251">
        <ele>979.5</ele>
        <time>2015-07-24T07:43:31Z</time>
      </trkpt>
      <trkpt lat="44.80132" lon="5.98251">
        <ele>980.3</ele>
        <time>2015-07-24T07:43:36Z</time>
      </trkpt>
      <trkpt lat="44.80134" lon="5.9825">
        <ele>982.6</ele>
        <time>2015-07-24T07:43:41Z</time>
      </trkpt>
      <trkpt lat="44.80134" lon="5.98249">
        <ele>984.9</ele>
        <time>2015-07-24T07:43:46Z</time>
      </trkpt>
      <trkpt lat="44.80133" lon="5.98251">
        <ele>985.2</ele>
        <time>2015-07-24T07:43:51Z</time>
      </trkpt>
      <trkpt lat="44.80134" lon="5.98252">
        <ele>984.8</ele>
        <time>2015-07-24T07:43:56Z</time>
      </trkpt>
      <trkpt lat="44.80138" lon="5.9825">
        <ele>985.7</ele>
        <time>2015-07-24T07:44:01Z</time>
      </trkpt>
      <trkpt lat="44.80138" lon="5.98251">
        <ele>986.2</ele>
        <time>2015-07-24T07:44:06Z</time>
      </trkpt>
      <trkpt lat="44.80137" lon="5.98251">
        <ele>986.3</ele>
        <time>2015-07-24T07:44:11Z</time>
      </trkpt>
      <trkpt lat="44.80137" lon="5.98252">
        <ele>987.3</ele>
        <time>2015-07-24T07:44:16Z</time>
      </trkpt>
      <trkpt lat="44.80137" lon="5.9825">
        <ele>988.2</ele>
        <time>2015-07-24T07:44:21Z</time>
      </trkpt>
      <trkpt lat="44.80135" lon="5.98251">
        <ele>987.1</ele>
        <time>2015-07-24T07:44:26Z</time>
      </trkpt>
      <trkpt lat="44.80134" lon="5.98251">
        <ele>986.3</ele>
        <time>2015-07-24T07:44:31Z</time>
      </trkpt>
      <trkpt lat="44.80133" lon="5.98252">
        <ele>983.2</ele>
        <time>2015-07-24T07:44:36Z</time>
      </trkpt>
      <trkpt lat="44.80132" lon="5.98253">
        <ele>980.4</ele>
        <time>2015-07-24T07:44:41Z</time>
      </trkpt>
      <trkpt lat="44.80129" lon="5.98253">
        <ele>981.8</ele>
        <time>2015-07-24T07:44:46Z</time>
      </trkpt>
      <trkpt lat="44.80129" lon="5.98252">
        <ele>981.5</ele>
        <time>2015-07-24T07:44:51Z</time>
      </trkpt>
      <trkpt lat="44.8013" lon="5.98252">
        <ele>978.9</ele>
        <time>2015-07-24T07:44:56Z</time>
      </trkpt>
      <trkpt lat="44.8013" lon="5.98251">
        <ele>979.7</ele>
        <time>2015-07-24T07:45:01Z</time>
      </trkpt>
      <trkpt lat="44.8013" lon="5.98251">
        <ele>980.6</ele>
        <time>2015-07-24T07:45:06Z</time>
      </trkpt>
      <trkpt lat="44.8013" lon="5.98251">
        <ele>980.2</ele>
        <time>2015-07-24T07:45:11Z</time>
      </trkpt>
      <trkpt lat="44.80129" lon="5.98249">
        <ele>980</ele>
        <time>2015-07-24T07:45:16Z</time>
      </trkpt>
      <trkpt lat="44.80129" lon="5.98249">
        <ele>978.5</ele>
        <time>2015-07-24T07:45:21Z</time>
      </trkpt>
      <trkpt lat="44.80129" lon="5.98249">
        <ele>977.1</ele>
        <time>2015-07-24T07:45:26Z</time>
      </trkpt>
      <trkpt lat="44.80129" lon="5.98249">
        <ele>976</ele>
        <time>2015-07-24T07:45:31Z</time>
      </trkpt>
      <trkpt lat="44.80129" lon="5.98249">
        <ele>974.5</ele>
        <time>2015-07-24T07:45:36Z</time>
      </trkpt>
      <trkpt lat="44.8013" lon="5.98252">
        <ele>976.1</ele>
        <time>2015-07-24T07:45:41Z</time>
      </trkpt>
      <trkpt lat="44.80131" lon="5.98253">
        <ele>978.5</ele>
        <time>2015-07-24T07:45:46Z</time>
      </trkpt>
      <trkpt lat="44.80132" lon="5.98252">
        <ele>981.7</ele>
        <time>2015-07-24T07:45:51Z</time>
      </trkpt>
      <trkpt lat="44.80132" lon="5.98251">
        <ele>986.1</ele>
        <time>2015-07-24T07:45:56Z</time>
      </trkpt>
      <trkpt lat="44.80134" lon="5.98251">
        <ele>990.1</ele>
        <time>2015-07-24T07:46:01Z</time>
      </trkpt>
      <trkpt lat="44.80137" lon="5.9825">
        <ele>993.1</ele>
        <time>2015-07-24T07:46:06Z</time>
      </trkpt>
      <trkpt lat="44.80138" lon="5.9825">
        <ele>994.5</ele>
        <time>2015-07-24T07:46:11Z</time>
      </trkpt>
      <trkpt lat="44.8014" lon="5.9825">
        <ele>995.8</ele>
        <time>2015-07-24T07:46:16Z</time>
      </trkpt>
      <trkpt lat="44.80142" lon="5.98249">
        <ele>997</ele>
        <time>2015-07-24T07:46:21Z</time>
      </trkpt>
      <trkpt lat="44.80143" lon="5.98249">
        <ele>998.1</ele>
        <time>2015-07-24T07:46:26Z</time>
      </trkpt>
      <trkpt lat="44.8014" lon="5.98253">
        <ele>997.4</ele>
        <time>2015-07-24T07:46:31Z</time>
      </trkpt>
      <trkpt lat="44.80141" lon="5.98253">
        <ele>997.6</ele>
        <time>2015-07-24T07:46:36Z</time>
      </trkpt>
      <trkpt lat="44.80145" lon="5.9825">
        <ele>998.7</ele>
        <time>2015-07-24T07:46:41Z</time>
      </trkpt>
      <trkpt lat="44.80143" lon="5.9825">
        <ele>998</ele>
        <time>2015-07-24T07:46:46Z</time>
      </trkpt>
      <trkpt lat="44.80143" lon="5.9825">
        <ele>996.7</ele>
        <time>2015-07-24T07:46:51Z</time>
      </trkpt>
      <trkpt lat="44.80144" lon="5.98248">
        <ele>996.3</ele>
        <time>2015-07-24T07:46:56Z</time>
      </trkpt>
      <trkpt lat="44.80138" lon="5.98249">
        <ele>994.6</ele>
        <time>2015-07-24T07:47:01Z</time>
      </trkpt>
      <trkpt lat="44.80136" lon="5.98253">
        <ele>990.4</ele>
        <time>2015-07-24T07:47:06Z</time>
      </trkpt>
      <trkpt lat="44.80132" lon="5.9826">
        <ele>985.3</ele>
        <time>2015-07-24T07:47:11Z</time>
      </trkpt>
      <trkpt lat="44.8013" lon="5.98263">
        <ele>982.5</ele>
        <time>2015-07-24T07:47:16Z</time>
      </trkpt>
      <trkpt lat="44.8013" lon="5.98263">
        <ele>981.3</ele>
        <time>2015-07-24T07:47:21Z</time>
      </trkpt>
      <trkpt lat="44.80129" lon="5.98263">
        <ele>981</ele>
        <time>2015-07-24T07:47:26Z</time>
      </trkpt>
      <trkpt lat="44.80128" lon="5.98263">
        <ele>979.1</ele>
        <time>2015-07-24T07:47:31Z</time>
      </trkpt>
      <trkpt lat="44.8013" lon="5.98266">
        <ele>972.7</ele>
        <time>2015-07-24T07:47:36Z</time>
      </trkpt>
      <trkpt lat="44.80129" lon="5.98267">
        <ele>972.4</ele>
        <time>2015-07-24T07:47:41Z</time>
      </trkpt>
      <trkpt lat="44.80128" lon="5.98265">
        <ele>974</ele>
        <time>2015-07-24T07:47:46Z</time>
      </trkpt>
      <trkpt lat="44.80127" lon="5.98264">
        <ele>975.4</ele>
        <time>2015-07-24T07:47:51Z</time>
      </trkpt>
      <trkpt lat="44.80126" lon="5.98263">
        <ele>976.3</ele>
        <time>2015-07-24T07:47:56Z</time>
      </trkpt>
      <trkpt lat="44.80129" lon="5.98261">
        <ele>976.5</ele>
        <time>2015-07-24T07:48:01Z</time>
      </trkpt>
      <trkpt lat="44.80132" lon="5.98252">
        <ele>977.8</ele>
        <time>2015-07-24T07:48:06Z</time>
      </trkpt>
      <trkpt lat="44.8013" lon="5.98251">
        <ele>979.9</ele>
        <time>2015-07-24T07:48:11Z</time>
      </trkpt>
      <trkpt lat="44.8013" lon="5.98251">
        <ele>980.2</ele>
        <time>2015-07-24T07:48:16Z</time>
      </trkpt>
      <trkpt lat="44.8013" lon="5.98252">
        <ele>979.6</ele>
        <time>2015-07-24T07:48:21Z</time>
      </trkpt>
      <trkpt lat="44.8013" lon="5.98251">
        <ele>979.9</ele>
        <time>2015-07-24T07:48:26Z</time>
      </trkpt>
      <trkpt lat="44.8013" lon="5.98252">
        <ele>980.6</ele>
        <time>2015-07-24T07:48:31Z</time>
      </trkpt>
      <trkpt lat="44.8013" lon="5.98252">
        <ele>982.7</ele>
        <time>2015-07-24T07:48:36Z</time>
      </trkpt>
      <trkpt lat="44.80131" lon="5.98252">
        <ele>983.2</ele>
        <time>2015-07-24T07:48:41Z</time>
      </trkpt>
      <trkpt lat="44.80132" lon="5.98253">
        <ele>983.3</ele>
        <time>2015-07-24T07:48:46Z</time>
      </trkpt>
      <trkpt lat="44.80131" lon="5.98252">
        <ele>983</ele>
        <time>2015-07-24T07:48:51Z</time>
      </trkpt>
      <trkpt lat="44.80132" lon="5.98254">
        <ele>985.1</ele>
        <time>2015-07-24T07:48:56Z</time>
      </trkpt>
      <trkpt lat="44.80131" lon="5.98254">
        <ele>984.7</ele>
        <time>2015-07-24T07:49:01Z</time>
      </trkpt>
      <trkpt lat="44.80131" lon="5.98255">
        <ele>985.4</ele>
        <time>2015-07-24T07:49:06Z</time>
      </trkpt>
      <trkpt lat="44.8013" lon="5.98257">
        <ele>985</ele>
        <time>2015-07-24T07:49:11Z</time>
      </trkpt>
      <trkpt lat="44.8013" lon="5.98258">
        <ele>985.3</ele>
        <time>2015-07-24T07:49:16Z</time>
      </trkpt>
      <trkpt lat="44.80129" lon="5.98259">
        <ele>984</ele>
        <time>2015-07-24T07:49:21Z</time>
      </trkpt>
      <trkpt lat="44.80128" lon="5.98261">
        <ele>985.3</ele>
        <time>2015-07-24T07:49:26Z</time>
      </trkpt>
      <trkpt lat="44.80127" lon="5.98263">
        <ele>988</ele>
        <time>2015-07-24T07:49:31Z</time>
      </trkpt>
      <trkpt lat="44.80128" lon="5.98261">
        <ele>987.7</ele>
        <time>2015-07-24T07:49:36Z</time>
      </trkpt>
      <trkpt lat="44.8013" lon="5.9826">
        <ele>987.8</ele>
        <time>2015-07-24T07:49:41Z</time>
      </trkpt>
      <trkpt lat="44.80131" lon="5.98258">
        <ele>988.1</ele>
        <time>2015-07-24T07:49:46Z</time>
      </trkpt>
      <trkpt lat="44.80132" lon="5.98256">
        <ele>987</ele>
        <time>2015-07-24T07:49:51Z</time>
      </trkpt>
      <trkpt lat="44.80132" lon="5.98254">
        <ele>985.1</ele>
        <time>2015-07-24T07:49:56Z</time>
      </trkpt>
      <trkpt lat="44.80132" lon="5.98256">
        <ele>983.4</ele>
        <time>2015-07-24T07:50:01Z</time>
      </trkpt>
      <trkpt lat="44.80132" lon="5.98256">
        <ele>982.7</ele>
        <time>2015-07-24T07:50:06Z</time>
      </trkpt>
      <trkpt lat="44.80134" lon="5.98256">
        <ele>981</ele>
        <time>2015-07-24T07:50:11Z</time>
      </trkpt>
      <trkpt lat="44.80137" lon="5.98254">
        <ele>982.2</ele>
        <time>2015-07-24T07:50:16Z</time>
      </trkpt>
      <trkpt lat="44.80138" lon="5.98254">
        <ele>984.2</ele>
        <time>2015-07-24T07:50:21Z</time>
      </trkpt>
      <trkpt lat="44.80138" lon="5.98253">
        <ele>984</ele>
        <time>2015-07-24T07:50:26Z</time>
      </trkpt>
      <trkpt lat="44.80138" lon="5.98253">
        <ele>984.6</ele>
        <time>2015-07-24T07:50:31Z</time>
      </trkpt>
      <trkpt lat="44.80137" lon="5.98252">
        <ele>984.3</ele>
        <time>2015-07-24T07:50:36Z</time>
      </trkpt>
      <trkpt lat="44.80136" lon="5.98251">
        <ele>983.6</ele>
        <time>2015-07-24T07:50:41Z</time>
      </trkpt>
      <trkpt lat="44.80136" lon="5.98251">
        <ele>985.4</ele>
        <time>2015-07-24T07:50:46Z</time>
      </trkpt>
      <trkpt lat="44.80135" lon="5.98252">
        <ele>984.3</ele>
        <time>2015-07-24T07:50:51Z</time>
      </trkpt>
      <trkpt lat="44.80136" lon="5.98252">
        <ele>984.6</ele>
        <time>2015-07-24T07:50:56Z</time>
      </trkpt>
      <trkpt lat="44.80134" lon="5.98254">
        <ele>984.4</ele>
        <time>2015-07-24T07:51:01Z</time>
      </trkpt>
      <trkpt lat="44.80133" lon="5.98263">
        <ele>981.7</ele>
        <time>2015-07-24T07:51:06Z</time>
      </trkpt>
      <trkpt lat="44.80134" lon="5.98266">
        <ele>981.7</ele>
        <time>2015-07-24T07:51:11Z</time>
      </trkpt>
      <trkpt lat="44.80134" lon="5.98265">
        <ele>982.7</ele>
        <time>2015-07-24T07:51:16Z</time>
      </trkpt>
      <trkpt lat="44.80134" lon="5.98263">
        <ele>984.1</ele>
        <time>2015-07-24T07:51:21Z</time>
      </trkpt>
      <trkpt lat="44.80135" lon="5.98262">
        <ele>984.1</ele>
        <time>2015-07-24T07:51:26Z</time>
      </trkpt>
      <trkpt lat="44.80136" lon="5.98264">
        <ele>985.2</ele>
        <time>2015-07-24T07:51:31Z</time>
      </trkpt>
      <trkpt lat="44.80136" lon="5.98264">
        <ele>984.5</ele>
        <time>2015-07-24T07:51:36Z</time>
      </trkpt>
      <trkpt lat="44.80136" lon="5.98266">
        <ele>984.1</ele>
        <time>2015-07-24T07:51:41Z</time>
      </trkpt>
      <trkpt lat="44.8014" lon="5.98266">
        <ele>984.5</ele>
        <time>2015-07-24T07:51:48Z</time>
      </trkpt>
      <trkpt lat="44.80145" lon="5.98267">
        <ele>985.6</ele>
        <time>2015-07-24T07:51:53Z</time>
      </trkpt>
      <trkpt lat="44.80151" lon="5.98262">
        <ele>986.8</ele>
        <time>2015-07-24T07:51:58Z</time>
      </trkpt>
      <trkpt lat="44.80156" lon="5.98255">
        <ele>989</ele>
        <time>2015-07-24T07:52:03Z</time>
      </trkpt>
      <trkpt lat="44.8016" lon="5.98247">
        <ele>987.5</ele>
        <time>2015-07-24T07:52:08Z</time>
      </trkpt>
      <trkpt lat="44.80163" lon="5.98239">
        <ele>986.9</ele>
        <time>2015-07-24T07:52:13Z</time>
      </trkpt>
      <trkpt lat="44.80166" lon="5.9823">
        <ele>987</ele>
        <time>2015-07-24T07:52:18Z</time>
      </trkpt>
      <trkpt lat="44.80169" lon="5.98219">
        <ele>988</ele>
        <time>2015-07-24T07:52:23Z</time>
      </trkpt>
      <trkpt lat="44.80172" lon="5.98208">
        <ele>987</ele>
        <time>2015-07-24T07:52:28Z</time>
      </trkpt>
      <trkpt lat="44.80175" lon="5.98199">
        <ele>985.5</ele>
        <time>2015-07-24T07:52:33Z</time>
      </trkpt>
      <trkpt lat="44.80175" lon="5.9819">
        <ele>984.4</ele>
        <time>2015-07-24T07:52:38Z</time>
      </trkpt>
      <trkpt lat="44.80175" lon="5.9818">
        <ele>983.7</ele>
        <time>2015-07-24T07:52:43Z</time>
      </trkpt>
      <trkpt lat="44.80174" lon="5.98172">
        <ele>982.3</ele>
        <time>2015-07-24T07:52:48Z</time>
      </trkpt>
      <trkpt lat="44.80172" lon="5.98162">
        <ele>980.8</ele>
        <time>2015-07-24T07:52:53Z</time>
      </trkpt>
      <trkpt lat="44.80171" lon="5.98153">
        <ele>980.9</ele>
        <time>2015-07-24T07:52:58Z</time>
      </trkpt>
      <trkpt lat="44.8017" lon="5.98144">
        <ele>981</ele>
        <time>2015-07-24T07:53:03Z</time>
      </trkpt>
      <trkpt lat="44.80172" lon="5.98135">
        <ele>982.5</ele>
        <time>2015-07-24T07:53:08Z</time>
      </trkpt>
      <trkpt lat="44.80171" lon="5.98126">
        <ele>982.9</ele>
        <time>2015-07-24T07:53:13Z</time>
      </trkpt>
      <trkpt lat="44.80172" lon="5.98118">
        <ele>983.3</ele>
        <time>2015-07-24T07:53:18Z</time>
      </trkpt>
      <trkpt lat="44.80173" lon="5.9811">
        <ele>983.5</ele>
        <time>2015-07-24T07:53:23Z</time>
      </trkpt>
      <trkpt lat="44.80174" lon="5.98102">
        <ele>983</ele>
        <time>2015-07-24T07:53:28Z</time>
      </trkpt>
      <trkpt lat="44.80177" lon="5.98095">
        <ele>983.7</ele>
        <time>2015-07-24T07:53:33Z</time>
      </trkpt>
      <trkpt lat="44.80179" lon="5.98088">
        <ele>984.6</ele>
        <time>2015-07-24T07:53:38Z</time>
      </trkpt>
      <trkpt lat="44.8018" lon="5.98083">
        <ele>985.9</ele>
        <time>2015-07-24T07:53:43Z</time>
      </trkpt>
      <trkpt lat="44.80184" lon="5.98076">
        <ele>985.4</ele>
        <time>2015-07-24T07:53:48Z</time>
      </trkpt>
      <trkpt lat="44.80188" lon="5.9807">
        <ele>984</ele>
        <time>2015-07-24T07:53:53Z</time>
      </trkpt>
      <trkpt lat="44.80192" lon="5.98062">
        <ele>984.8</ele>
        <time>2015-07-24T07:53:58Z</time>
      </trkpt>
      <trkpt lat="44.80197" lon="5.98056">
        <ele>984.1</ele>
        <time>2015-07-24T07:54:03Z</time>
      </trkpt>
      <trkpt lat="44.80202" lon="5.9805">
        <ele>982.5</ele>
        <time>2015-07-24T07:54:08Z</time>
      </trkpt>
      <trkpt lat="44.80207" lon="5.98045">
        <ele>981.5</ele>
        <time>2015-07-24T07:54:13Z</time>
      </trkpt>
      <trkpt lat="44.80213" lon="5.98038">
        <ele>982</ele>
        <time>2015-07-24T07:54:18Z</time>
      </trkpt>
      <trkpt lat="44.80217" lon="5.98032">
        <ele>980.8</ele>
        <time>2015-07-24T07:54:23Z</time>
      </trkpt>
      <trkpt lat="44.80221" lon="5.98025">
        <ele>979.1</ele>
        <time>2015-07-24T07:54:28Z</time>
      </trkpt>
      <trkpt lat="44.80226" lon="5.98017">
        <ele>978.6</ele>
        <time>2015-07-24T07:54:33Z</time>
      </trkpt>
      <trkpt lat="44.80229" lon="5.98008">
        <ele>978.3</ele>
        <time>2015-07-24T07:54:38Z</time>
      </trkpt>
      <trkpt lat="44.80233" lon="5.97999">
        <ele>979.4</ele>
        <time>2015-07-24T07:54:43Z</time>
      </trkpt>
      <trkpt lat="44.80238" lon="5.9799">
        <ele>980.9</ele>
        <time>2015-07-24T07:54:48Z</time>
      </trkpt>
      <trkpt lat="44.80242" lon="5.97981">
        <ele>981</ele>
        <time>2015-07-24T07:54:53Z</time>
      </trkpt>
      <trkpt lat="44.80244" lon="5.97974">
        <ele>979.5</ele>
        <time>2015-07-24T07:54:58Z</time>
      </trkpt>
      <trkpt lat="44.80246" lon="5.97966">
        <ele>978.6</ele>
        <time>2015-07-24T07:55:03Z</time>
      </trkpt>
      <trkpt lat="44.80249" lon="5.97958">
        <ele>978.6</ele>
        <time>2015-07-24T07:55:08Z</time>
      </trkpt>
      <trkpt lat="44.80251" lon="5.9795">
        <ele>978.3</ele>
        <time>2015-07-24T07:55:13Z</time>
      </trkpt>
      <trkpt lat="44.80254" lon="5.97946">
        <ele>978.3</ele>
        <time>2015-07-24T07:55:18Z</time>
      </trkpt>
      <trkpt lat="44.80257" lon="5.97937">
        <ele>978.8</ele>
        <time>2015-07-24T07:55:23Z</time>
      </trkpt>
      <trkpt lat="44.80261" lon="5.97931">
        <ele>978.4</ele>
        <time>2015-07-24T07:55:28Z</time>
      </trkpt>
      <trkpt lat="44.80264" lon="5.97924">
        <ele>978.9</ele>
        <time>2015-07-24T07:55:33Z</time>
      </trkpt>
      <trkpt lat="44.80267" lon="5.97916">
        <ele>979.3</ele>
        <time>2015-07-24T07:55:38Z</time>
      </trkpt>
      <trkpt lat="44.80272" lon="5.97908">
        <ele>981.1</ele>
        <time>2015-07-24T07:55:43Z</time>
      </trkpt>
      <trkpt lat="44.80275" lon="5.979">
        <ele>981.5</ele>
        <time>2015-07-24T07:55:48Z</time>
      </trkpt>
      <trkpt lat="44.80278" lon="5.97892">
        <ele>981.6</ele>
        <time>2015-07-24T07:55:53Z</time>
      </trkpt>
      <trkpt lat="44.80283" lon="5.97882">
        <ele>982</ele>
        <time>2015-07-24T07:55:58Z</time>
      </trkpt>
      <trkpt lat="44.80285" lon="5.97874">
        <ele>981.2</ele>
        <time>2015-07-24T07:56:03Z</time>
      </trkpt>
      <trkpt lat="44.80288" lon="5.97864">
        <ele>982.2</ele>
        <time>2015-07-24T07:56:08Z</time>
      </trkpt>
      <trkpt lat="44.80291" lon="5.97854">
        <ele>983.6</ele>
        <time>2015-07-24T07:56:13Z</time>
      </trkpt>
      <trkpt lat="44.80294" lon="5.97845">
        <ele>984.3</ele>
        <time>2015-07-24T07:56:18Z</time>
      </trkpt>
      <trkpt lat="44.80295" lon="5.97836">
        <ele>983.7</ele>
        <time>2015-07-24T07:56:23Z</time>
      </trkpt>
      <trkpt lat="44.80297" lon="5.97826">
        <ele>983.6</ele>
        <time>2015-07-24T07:56:28Z</time>
      </trkpt>
      <trkpt lat="44.80299" lon="5.97817">
        <ele>983.7</ele>
        <time>2015-07-24T07:56:33Z</time>
      </trkpt>
      <trkpt lat="44.803" lon="5.97808">
        <ele>983.3</ele>
        <time>2015-07-24T07:56:38Z</time>
      </trkpt>
      <trkpt lat="44.80301" lon="5.97799">
        <ele>982.7</ele>
        <time>2015-07-24T07:56:43Z</time>
      </trkpt>
      <trkpt lat="44.80304" lon="5.9779">
        <ele>982.6</ele>
        <time>2015-07-24T07:56:48Z</time>
      </trkpt>
      <trkpt lat="44.80303" lon="5.97781">
        <ele>981.7</ele>
        <time>2015-07-24T07:56:53Z</time>
      </trkpt>
      <trkpt lat="44.80305" lon="5.97771">
        <ele>983.1</ele>
        <time>2015-07-24T07:56:58Z</time>
      </trkpt>
      <trkpt lat="44.80304" lon="5.97762">
        <ele>983.7</ele>
        <time>2015-07-24T07:57:03Z</time>
      </trkpt>
      <trkpt lat="44.80303" lon="5.97754">
        <ele>981.4</ele>
        <time>2015-07-24T07:57:08Z</time>
      </trkpt>
      <trkpt lat="44.80301" lon="5.97745">
        <ele>983.4</ele>
        <time>2015-07-24T07:57:13Z</time>
      </trkpt>
      <trkpt lat="44.803" lon="5.97738">
        <ele>984.1</ele>
        <time>2015-07-24T07:57:18Z</time>
      </trkpt>
      <trkpt lat="44.80303" lon="5.97729">
        <ele>982.9</ele>
        <time>2015-07-24T07:57:23Z</time>
      </trkpt>
      <trkpt lat="44.80306" lon="5.97721">
        <ele>982.8</ele>
        <time>2015-07-24T07:57:28Z</time>
      </trkpt>
      <trkpt lat="44.80306" lon="5.97712">
        <ele>983.7</ele>
        <time>2015-07-24T07:57:33Z</time>
      </trkpt>
      <trkpt lat="44.80308" lon="5.97701">
        <ele>985.6</ele>
        <time>2015-07-24T07:57:38Z</time>
      </trkpt>
      <trkpt lat="44.80312" lon="5.97691">
        <ele>986.4</ele>
        <time>2015-07-24T07:57:43Z</time>
      </trkpt>
      <trkpt lat="44.80314" lon="5.97681">
        <ele>989.3</ele>
        <time>2015-07-24T07:57:48Z</time>
      </trkpt>
      <trkpt lat="44.80316" lon="5.97673">
        <ele>989.6</ele>
        <time>2015-07-24T07:57:53Z</time>
      </trkpt>
      <trkpt lat="44.80323" lon="5.97665">
        <ele>985.3</ele>
        <time>2015-07-24T07:57:58Z</time>
      </trkpt>
      <trkpt lat="44.80325" lon="5.97656">
        <ele>987.8</ele>
        <time>2015-07-24T07:58:03Z</time>
      </trkpt>
      <trkpt lat="44.8033" lon="5.97648">
        <ele>987.9</ele>
        <time>2015-07-24T07:58:08Z</time>
      </trkpt>
      <trkpt lat="44.80333" lon="5.9764">
        <ele>987</ele>
        <time>2015-07-24T07:58:13Z</time>
      </trkpt>
      <trkpt lat="44.80334" lon="5.97633">
        <ele>988.9</ele>
        <time>2015-07-24T07:58:18Z</time>
      </trkpt>
      <trkpt lat="44.80337" lon="5.97625">
        <ele>988.9</ele>
        <time>2015-07-24T07:58:23Z</time>
      </trkpt>
      <trkpt lat="44.80341" lon="5.97618">
        <ele>987.2</ele>
        <time>2015-07-24T07:58:28Z</time>
      </trkpt>
      <trkpt lat="44.80342" lon="5.97608">
        <ele>991.9</ele>
        <time>2015-07-24T07:58:33Z</time>
      </trkpt>
      <trkpt lat="44.80346" lon="5.97599">
        <ele>994.4</ele>
        <time>2015-07-24T07:58:38Z</time>
      </trkpt>
      <trkpt lat="44.80351" lon="5.97591">
        <ele>994.9</ele>
        <time>2015-07-24T07:58:43Z</time>
      </trkpt>
      <trkpt lat="44.80355" lon="5.97584">
        <ele>993.7</ele>
        <time>2015-07-24T07:58:48Z</time>
      </trkpt>
      <trkpt lat="44.80357" lon="5.97579">
        <ele>992.6</ele>
        <time>2015-07-24T07:58:53Z</time>
      </trkpt>
      <trkpt lat="44.8036" lon="5.97574">
        <ele>995.6</ele>
        <time>2015-07-24T07:58:58Z</time>
      </trkpt>
      <trkpt lat="44.80358" lon="5.97572">
        <ele>1003.2</ele>
        <time>2015-07-24T07:59:03Z</time>
      </trkpt>
      <trkpt lat="44.80359" lon="5.9757">
        <ele>1004</ele>
        <time>2015-07-24T07:59:08Z</time>
      </trkpt>
      <trkpt lat="44.80366" lon="5.97561">
        <ele>1000.4</ele>
        <time>2015-07-24T07:59:13Z</time>
      </trkpt>
      <trkpt lat="44.80372" lon="5.97552">
        <ele>996.7</ele>
        <time>2015-07-24T07:59:18Z</time>
      </trkpt>
      <trkpt lat="44.80376" lon="5.97544">
        <ele>994.4</ele>
        <time>2015-07-24T07:59:23Z</time>
      </trkpt>
      <trkpt lat="44.80381" lon="5.97535">
        <ele>991.4</ele>
        <time>2015-07-24T07:59:28Z</time>
      </trkpt>
      <trkpt lat="44.80384" lon="5.97527">
        <ele>990.2</ele>
        <time>2015-07-24T07:59:33Z</time>
      </trkpt>
      <trkpt lat="44.80391" lon="5.97518">
        <ele>987.6</ele>
        <time>2015-07-24T07:59:38Z</time>
      </trkpt>
      <trkpt lat="44.80394" lon="5.97509">
        <ele>986.2</ele>
        <time>2015-07-24T07:59:43Z</time>
      </trkpt>
      <trkpt lat="44.80394" lon="5.975">
        <ele>985.9</ele>
        <time>2015-07-24T07:59:48Z</time>
      </trkpt>
      <trkpt lat="44.80396" lon="5.97492">
        <ele>985</ele>
        <time>2015-07-24T07:59:53Z</time>
      </trkpt>
      <trkpt lat="44.80392" lon="5.97484">
        <ele>988.8</ele>
        <time>2015-07-24T07:59:58Z</time>
      </trkpt>
      <trkpt lat="44.80389" lon="5.97482">
        <ele>988.9</ele>
        <time>2015-07-24T08:00:03Z</time>
      </trkpt>
      <trkpt lat="44.80389" lon="5.97477">
        <ele>988.9</ele>
        <time>2015-07-24T08:00:08Z</time>
      </trkpt>
      <trkpt lat="44.80392" lon="5.9747">
        <ele>988.4</ele>
        <time>2015-07-24T08:00:13Z</time>
      </trkpt>
      <trkpt lat="44.80394" lon="5.97462">
        <ele>987.8</ele>
        <time>2015-07-24T08:00:18Z</time>
      </trkpt>
      <trkpt lat="44.80397" lon="5.97453">
        <ele>986.9</ele>
        <time>2015-07-24T08:00:23Z</time>
      </trkpt>
      <trkpt lat="44.804" lon="5.97443">
        <ele>985.8</ele>
        <time>2015-07-24T08:00:28Z</time>
      </trkpt>
      <trkpt lat="44.80402" lon="5.97434">
        <ele>984.9</ele>
        <time>2015-07-24T08:00:33Z</time>
      </trkpt>
      <trkpt lat="44.804" lon="5.97426">
        <ele>985.3</ele>
        <time>2015-07-24T08:00:38Z</time>
      </trkpt>
      <trkpt lat="44.80397" lon="5.97417">
        <ele>986</ele>
        <time>2015-07-24T08:00:43Z</time>
      </trkpt>
      <trkpt lat="44.80397" lon="5.97408">
        <ele>985.2</ele>
        <time>2015-07-24T08:00:48Z</time>
      </trkpt>
      <trkpt lat="44.80396" lon="5.97398">
        <ele>984.7</ele>
        <time>2015-07-24T08:00:53Z</time>
      </trkpt>
      <trkpt lat="44.80396" lon="5.97388">
        <ele>984.4</ele>
        <time>2015-07-24T08:00:58Z</time>
      </trkpt>
      <trkpt lat="44.80396" lon="5.97378">
        <ele>983.5</ele>
        <time>2015-07-24T08:01:03Z</time>
      </trkpt>
      <trkpt lat="44.80396" lon="5.97368">
        <ele>982.4</ele>
        <time>2015-07-24T08:01:08Z</time>
      </trkpt>
      <trkpt lat="44.80392" lon="5.97355">
        <ele>989.2</ele>
        <time>2015-07-24T08:01:13Z</time>
      </trkpt>
      <trkpt lat="44.80392" lon="5.97346">
        <ele>988.1</ele>
        <time>2015-07-24T08:01:18Z</time>
      </trkpt>
      <trkpt lat="44.80385" lon="5.97335">
        <ele>993.7</ele>
        <time>2015-07-24T08:01:23Z</time>
      </trkpt>
      <trkpt lat="44.80384" lon="5.97326">
        <ele>992.2</ele>
        <time>2015-07-24T08:01:28Z</time>
      </trkpt>
      <trkpt lat="44.80379" lon="5.97319">
        <ele>990.2</ele>
        <time>2015-07-24T08:01:33Z</time>
      </trkpt>
      <trkpt lat="44.80374" lon="5.9731">
        <ele>988.8</ele>
        <time>2015-07-24T08:01:38Z</time>
      </trkpt>
      <trkpt lat="44.80369" lon="5.97302">
        <ele>988.6</ele>
        <time>2015-07-24T08:01:43Z</time>
      </trkpt>
      <trkpt lat="44.80366" lon="5.97294">
        <ele>987.3</ele>
        <time>2015-07-24T08:01:48Z</time>
      </trkpt>
      <trkpt lat="44.80363" lon="5.97286">
        <ele>986.2</ele>
        <time>2015-07-24T08:01:53Z</time>
      </trkpt>
      <trkpt lat="44.80359" lon="5.97278">
        <ele>985</ele>
        <time>2015-07-24T08:01:58Z</time>
      </trkpt>
      <trkpt lat="44.80358" lon="5.97269">
        <ele>984.8</ele>
        <time>2015-07-24T08:02:03Z</time>
      </trkpt>
      <trkpt lat="44.80355" lon="5.97261">
        <ele>984.2</ele>
        <time>2015-07-24T08:02:08Z</time>
      </trkpt>
      <trkpt lat="44.80353" lon="5.97252">
        <ele>983.8</ele>
        <time>2015-07-24T08:02:13Z</time>
      </trkpt>
      <trkpt lat="44.80351" lon="5.97243">
        <ele>983.5</ele>
        <time>2015-07-24T08:02:18Z</time>
      </trkpt>
      <trkpt lat="44.80349" lon="5.97234">
        <ele>982.8</ele>
        <time>2015-07-24T08:02:23Z</time>
      </trkpt>
      <trkpt lat="44.80348" lon="5.97224">
        <ele>982.8</ele>
        <time>2015-07-24T08:02:28Z</time>
      </trkpt>
      <trkpt lat="44.80344" lon="5.97216">
        <ele>982.4</ele>
        <time>2015-07-24T08:02:33Z</time>
      </trkpt>
      <trkpt lat="44.80341" lon="5.97206">
        <ele>982.6</ele>
        <time>2015-07-24T08:02:38Z</time>
      </trkpt>
      <trkpt lat="44.80339" lon="5.97198">
        <ele>982.6</ele>
        <time>2015-07-24T08:02:43Z</time>
      </trkpt>
      <trkpt lat="44.80335" lon="5.9719">
        <ele>982.1</ele>
        <time>2015-07-24T08:02:48Z</time>
      </trkpt>
      <trkpt lat="44.80333" lon="5.9718">
        <ele>982</ele>
        <time>2015-07-24T08:02:53Z</time>
      </trkpt>
      <trkpt lat="44.8033" lon="5.9717">
        <ele>981.7</ele>
        <time>2015-07-24T08:02:58Z</time>
      </trkpt>
      <trkpt lat="44.80327" lon="5.9716">
        <ele>981</ele>
        <time>2015-07-24T08:03:03Z</time>
      </trkpt>
      <trkpt lat="44.80325" lon="5.9715">
        <ele>980.4</ele>
        <time>2015-07-24T08:03:08Z</time>
      </trkpt>
      <trkpt lat="44.80325" lon="5.97141">
        <ele>979.8</ele>
        <time>2015-07-24T08:03:13Z</time>
      </trkpt>
      <trkpt lat="44.80325" lon="5.9713">
        <ele>979.6</ele>
        <time>2015-07-24T08:03:18Z</time>
      </trkpt>
      <trkpt lat="44.80325" lon="5.9712">
        <ele>978.8</ele>
        <time>2015-07-24T08:03:23Z</time>
      </trkpt>
      <trkpt lat="44.80325" lon="5.9711">
        <ele>978.3</ele>
        <time>2015-07-24T08:03:28Z</time>
      </trkpt>
      <trkpt lat="44.80325" lon="5.97099">
        <ele>977.6</ele>
        <time>2015-07-24T08:03:33Z</time>
      </trkpt>
      <trkpt lat="44.80325" lon="5.97089">
        <ele>977</ele>
        <time>2015-07-24T08:03:38Z</time>
      </trkpt>
      <trkpt lat="44.80325" lon="5.97079">
        <ele>976.4</ele>
        <time>2015-07-24T08:03:43Z</time>
      </trkpt>
      <trkpt lat="44.80325" lon="5.97069">
        <ele>976.2</ele>
        <time>2015-07-24T08:03:48Z</time>
      </trkpt>
      <trkpt lat="44.80327" lon="5.97059">
        <ele>975.9</ele>
        <time>2015-07-24T08:03:53Z</time>
      </trkpt>
      <trkpt lat="44.80328" lon="5.97049">
        <ele>976.2</ele>
        <time>2015-07-24T08:03:58Z</time>
      </trkpt>
      <trkpt lat="44.80328" lon="5.97039">
        <ele>975.6</ele>
        <time>2015-07-24T08:04:03Z</time>
      </trkpt>
      <trkpt lat="44.80328" lon="5.9703">
        <ele>974.9</ele>
        <time>2015-07-24T08:04:08Z</time>
      </trkpt>
      <trkpt lat="44.80327" lon="5.97022">
        <ele>973.9</ele>
        <time>2015-07-24T08:04:13Z</time>
      </trkpt>
      <trkpt lat="44.80327" lon="5.97013">
        <ele>974.2</ele>
        <time>2015-07-24T08:04:18Z</time>
      </trkpt>
      <trkpt lat="44.80327" lon="5.97006">
        <ele>973.4</ele>
        <time>2015-07-24T08:04:23Z</time>
      </trkpt>
      <trkpt lat="44.80327" lon="5.96997">
        <ele>973.6</ele>
        <time>2015-07-24T08:04:28Z</time>
      </trkpt>
      <trkpt lat="44.80327" lon="5.96987">
        <ele>974.4</ele>
        <time>2015-07-24T08:04:33Z</time>
      </trkpt>
      <trkpt lat="44.80326" lon="5.96977">
        <ele>974.6</ele>
        <time>2015-07-24T08:04:38Z</time>
      </trkpt>
      <trkpt lat="44.80325" lon="5.96967">
        <ele>974.1</ele>
        <time>2015-07-24T08:04:43Z</time>
      </trkpt>
      <trkpt lat="44.80325" lon="5.96956">
        <ele>973.7</ele>
        <time>2015-07-24T08:04:48Z</time>
      </trkpt>
      <trkpt lat="44.80324" lon="5.96946">
        <ele>973.1</ele>
        <time>2015-07-24T08:04:53Z</time>
      </trkpt>
      <trkpt lat="44.80322" lon="5.96937">
        <ele>972.9</ele>
        <time>2015-07-24T08:04:58Z</time>
      </trkpt>
      <trkpt lat="44.80321" lon="5.96926">
        <ele>972.3</ele>
        <time>2015-07-24T08:05:03Z</time>
      </trkpt>
      <trkpt lat="44.80321" lon="5.96916">
        <ele>973.7</ele>
        <time>2015-07-24T08:05:08Z</time>
      </trkpt>
      <trkpt lat="44.80319" lon="5.96907">
        <ele>973.4</ele>
        <time>2015-07-24T08:05:13Z</time>
      </trkpt>
      <trkpt lat="44.80317" lon="5.96897">
        <ele>973.6</ele>
        <time>2015-07-24T08:05:18Z</time>
      </trkpt>
      <trkpt lat="44.80314" lon="5.96887">
        <ele>973.6</ele>
        <time>2015-07-24T08:05:23Z</time>
      </trkpt>
      <trkpt lat="44.80311" lon="5.96878">
        <ele>973.2</ele>
        <time>2015-07-24T08:05:28Z</time>
      </trkpt>
      <trkpt lat="44.80308" lon="5.96868">
        <ele>973.4</ele>
        <time>2015-07-24T08:05:33Z</time>
      </trkpt>
      <trkpt lat="44.80307" lon="5.9686">
        <ele>972.6</ele>
        <time>2015-07-24T08:05:38Z</time>
      </trkpt>
      <trkpt lat="44.80306" lon="5.96851">
        <ele>972.3</ele>
        <time>2015-07-24T08:05:43Z</time>
      </trkpt>
      <trkpt lat="44.80306" lon="5.96848">
        <ele>971.9</ele>
        <time>2015-07-24T08:05:48Z</time>
      </trkpt>
      <trkpt lat="44.80307" lon="5.96848">
        <ele>971.8</ele>
        <time>2015-07-24T08:05:53Z</time>
      </trkpt>
      <trkpt lat="44.80309" lon="5.96847">
        <ele>970.7</ele>
        <time>2015-07-24T08:05:58Z</time>
      </trkpt>
      <trkpt lat="44.80313" lon="5.96848">
        <ele>972.4</ele>
        <time>2015-07-24T08:06:03Z</time>
      </trkpt>
      <trkpt lat="44.80312" lon="5.96848">
        <ele>979.1</ele>
        <time>2015-07-24T08:06:08Z</time>
      </trkpt>
      <trkpt lat="44.80315" lon="5.96846">
        <ele>983.2</ele>
        <time>2015-07-24T08:06:13Z</time>
      </trkpt>
      <trkpt lat="44.80319" lon="5.96845">
        <ele>985</ele>
        <time>2015-07-24T08:06:18Z</time>
      </trkpt>
      <trkpt lat="44.80323" lon="5.96843">
        <ele>983</ele>
        <time>2015-07-24T08:06:23Z</time>
      </trkpt>
      <trkpt lat="44.80326" lon="5.96839">
        <ele>984.6</ele>
        <time>2015-07-24T08:06:28Z</time>
      </trkpt>
      <trkpt lat="44.80331" lon="5.9684">
        <ele>980.2</ele>
        <time>2015-07-24T08:06:33Z</time>
      </trkpt>
      <trkpt lat="44.80333" lon="5.96839">
        <ele>977.3</ele>
        <time>2015-07-24T08:06:38Z</time>
      </trkpt>
      <trkpt lat="44.80334" lon="5.96837">
        <ele>980.5</ele>
        <time>2015-07-24T08:06:43Z</time>
      </trkpt>
      <trkpt lat="44.80334" lon="5.96837">
        <ele>979.4</ele>
        <time>2015-07-24T08:06:48Z</time>
      </trkpt>
      <trkpt lat="44.80337" lon="5.96836">
        <ele>976</ele>
        <time>2015-07-24T08:06:53Z</time>
      </trkpt>
      <trkpt lat="44.80339" lon="5.96831">
        <ele>979.8</ele>
        <time>2015-07-24T08:06:58Z</time>
      </trkpt>
      <trkpt lat="44.80342" lon="5.96827">
        <ele>981.1</ele>
        <time>2015-07-24T08:07:03Z</time>
      </trkpt>
      <trkpt lat="44.80347" lon="5.96822">
        <ele>983.2</ele>
        <time>2015-07-24T08:07:08Z</time>
      </trkpt>
      <trkpt lat="44.80354" lon="5.9682">
        <ele>985.3</ele>
        <time>2015-07-24T08:07:13Z</time>
      </trkpt>
      <trkpt lat="44.80354" lon="5.96819">
        <ele>987.2</ele>
        <time>2015-07-24T08:07:18Z</time>
      </trkpt>
      <trkpt lat="44.80356" lon="5.96814">
        <ele>989</ele>
        <time>2015-07-24T08:07:23Z</time>
      </trkpt>
      <trkpt lat="44.80359" lon="5.96812">
        <ele>989</ele>
        <time>2015-07-24T08:07:28Z</time>
      </trkpt>
      <trkpt lat="44.80367" lon="5.96808">
        <ele>982.8</ele>
        <time>2015-07-24T08:07:33Z</time>
      </trkpt>
      <trkpt lat="44.80372" lon="5.96808">
        <ele>981.3</ele>
        <time>2015-07-24T08:07:38Z</time>
      </trkpt>
      <trkpt lat="44.80371" lon="5.96804">
        <ele>985.8</ele>
        <time>2015-07-24T08:07:43Z</time>
      </trkpt>
      <trkpt lat="44.80369" lon="5.96803">
        <ele>991.3</ele>
        <time>2015-07-24T08:07:48Z</time>
      </trkpt>
      <trkpt lat="44.80368" lon="5.96804">
        <ele>992.9</ele>
        <time>2015-07-24T08:07:53Z</time>
      </trkpt>
      <trkpt lat="44.80365" lon="5.96804">
        <ele>994.1</ele>
        <time>2015-07-24T08:07:58Z</time>
      </trkpt>
      <trkpt lat="44.80364" lon="5.96803">
        <ele>991.7</ele>
        <time>2015-07-24T08:08:03Z</time>
      </trkpt>
      <trkpt lat="44.80365" lon="5.96801">
        <ele>989.7</ele>
        <time>2015-07-24T08:08:08Z</time>
      </trkpt>
      <trkpt lat="44.80368" lon="5.96794">
        <ele>984.5</ele>
        <time>2015-07-24T08:08:13Z</time>
      </trkpt>
      <trkpt lat="44.80371" lon="5.96788">
        <ele>983.5</ele>
        <time>2015-07-24T08:08:18Z</time>
      </trkpt>
      <trkpt lat="44.80373" lon="5.96782">
        <ele>988.1</ele>
        <time>2015-07-24T08:08:23Z</time>
      </trkpt>
      <trkpt lat="44.80374" lon="5.96774">
        <ele>991.7</ele>
        <time>2015-07-24T08:08:28Z</time>
      </trkpt>
      <trkpt lat="44.80373" lon="5.96767">
        <ele>993.8</ele>
        <time>2015-07-24T08:08:33Z</time>
      </trkpt>
      <trkpt lat="44.80371" lon="5.96762">
        <ele>997.3</ele>
        <time>2015-07-24T08:08:38Z</time>
      </trkpt>
      <trkpt lat="44.80368" lon="5.96752">
        <ele>999.5</ele>
        <time>2015-07-24T08:08:44Z</time>
      </trkpt>
      <trkpt lat="44.80363" lon="5.96744">
        <ele>1000.8</ele>
        <time>2015-07-24T08:08:49Z</time>
      </trkpt>
      <trkpt lat="44.80364" lon="5.96736">
        <ele>997.9</ele>
        <time>2015-07-24T08:08:54Z</time>
      </trkpt>
      <trkpt lat="44.80361" lon="5.96726">
        <ele>997.3</ele>
        <time>2015-07-24T08:09:00Z</time>
      </trkpt>
      <trkpt lat="44.80357" lon="5.96715">
        <ele>994.7</ele>
        <time>2015-07-24T08:09:05Z</time>
      </trkpt>
      <trkpt lat="44.80357" lon="5.96707">
        <ele>991.9</ele>
        <time>2015-07-24T08:09:10Z</time>
      </trkpt>
      <trkpt lat="44.80356" lon="5.967">
        <ele>991.9</ele>
        <time>2015-07-24T08:09:15Z</time>
      </trkpt>
      <trkpt lat="44.80355" lon="5.967">
        <ele>993.4</ele>
        <time>2015-07-24T08:09:20Z</time>
      </trkpt>
      <trkpt lat="44.80354" lon="5.96699">
        <ele>993</ele>
        <time>2015-07-24T08:09:25Z</time>
      </trkpt>
      <trkpt lat="44.80353" lon="5.96697">
        <ele>994.3</ele>
        <time>2015-07-24T08:09:30Z</time>
      </trkpt>
      <trkpt lat="44.80351" lon="5.96688">
        <ele>995.3</ele>
        <time>2015-07-24T08:09:35Z</time>
      </trkpt>
      <trkpt lat="44.80354" lon="5.9668">
        <ele>992.3</ele>
        <time>2015-07-24T08:09:40Z</time>
      </trkpt>
      <trkpt lat="44.80352" lon="5.96674">
        <ele>991.8</ele>
        <time>2015-07-24T08:09:45Z</time>
      </trkpt>
      <trkpt lat="44.80351" lon="5.96666">
        <ele>991.9</ele>
        <time>2015-07-24T08:09:50Z</time>
      </trkpt>
      <trkpt lat="44.80349" lon="5.96658">
        <ele>990.6</ele>
        <time>2015-07-24T08:09:55Z</time>
      </trkpt>
      <trkpt lat="44.80345" lon="5.9665">
        <ele>990.5</ele>
        <time>2015-07-24T08:10:00Z</time>
      </trkpt>
      <trkpt lat="44.80342" lon="5.96644">
        <ele>989.9</ele>
        <time>2015-07-24T08:10:05Z</time>
      </trkpt>
      <trkpt lat="44.80343" lon="5.96636">
        <ele>990.7</ele>
        <time>2015-07-24T08:10:10Z</time>
      </trkpt>
      <trkpt lat="44.80342" lon="5.96627">
        <ele>992.3</ele>
        <time>2015-07-24T08:10:15Z</time>
      </trkpt>
      <trkpt lat="44.80342" lon="5.96617">
        <ele>994</ele>
        <time>2015-07-24T08:10:20Z</time>
      </trkpt>
      <trkpt lat="44.80344" lon="5.96607">
        <ele>993.3</ele>
        <time>2015-07-24T08:10:25Z</time>
      </trkpt>
      <trkpt lat="44.80345" lon="5.96599">
        <ele>993</ele>
        <time>2015-07-24T08:10:30Z</time>
      </trkpt>
      <trkpt lat="44.80345" lon="5.96591">
        <ele>993.4</ele>
        <time>2015-07-24T08:10:35Z</time>
      </trkpt>
      <trkpt lat="44.80346" lon="5.96582">
        <ele>993.8</ele>
        <time>2015-07-24T08:10:40Z</time>
      </trkpt>
      <trkpt lat="44.80346" lon="5.96573">
        <ele>993.4</ele>
        <time>2015-07-24T08:10:45Z</time>
      </trkpt>
      <trkpt lat="44.80344" lon="5.96564">
        <ele>992.9</ele>
        <time>2015-07-24T08:10:50Z</time>
      </trkpt>
      <trkpt lat="44.80343" lon="5.96557">
        <ele>992.5</ele>
        <time>2015-07-24T08:10:55Z</time>
      </trkpt>
      <trkpt lat="44.80342" lon="5.96548">
        <ele>993.4</ele>
        <time>2015-07-24T08:11:00Z</time>
      </trkpt>
      <trkpt lat="44.80341" lon="5.96538">
        <ele>994.6</ele>
        <time>2015-07-24T08:11:05Z</time>
      </trkpt>
      <trkpt lat="44.80338" lon="5.96529">
        <ele>996.7</ele>
        <time>2015-07-24T08:11:10Z</time>
      </trkpt>
      <trkpt lat="44.80337" lon="5.96519">
        <ele>994.8</ele>
        <time>2015-07-24T08:11:15Z</time>
      </trkpt>
      <trkpt lat="44.80338" lon="5.96513">
        <ele>994.2</ele>
        <time>2015-07-24T08:11:20Z</time>
      </trkpt>
      <trkpt lat="44.80338" lon="5.96505">
        <ele>994</ele>
        <time>2015-07-24T08:11:25Z</time>
      </trkpt>
      <trkpt lat="44.80336" lon="5.96497">
        <ele>991.4</ele>
        <time>2015-07-24T08:11:30Z</time>
      </trkpt>
      <trkpt lat="44.80337" lon="5.96488">
        <ele>987.9</ele>
        <time>2015-07-24T08:11:35Z</time>
      </trkpt>
      <trkpt lat="44.80336" lon="5.96479">
        <ele>988.3</ele>
        <time>2015-07-24T08:11:40Z</time>
      </trkpt>
      <trkpt lat="44.80333" lon="5.96471">
        <ele>989.9</ele>
        <time>2015-07-24T08:11:45Z</time>
      </trkpt>
      <trkpt lat="44.80332" lon="5.96461">
        <ele>988.8</ele>
        <time>2015-07-24T08:11:50Z</time>
      </trkpt>
      <trkpt lat="44.80331" lon="5.96453">
        <ele>989</ele>
        <time>2015-07-24T08:11:55Z</time>
      </trkpt>
      <trkpt lat="44.8033" lon="5.96446">
        <ele>989.9</ele>
        <time>2015-07-24T08:12:00Z</time>
      </trkpt>
      <trkpt lat="44.80328" lon="5.96437">
        <ele>990.7</ele>
        <time>2015-07-24T08:12:05Z</time>
      </trkpt>
      <trkpt lat="44.80331" lon="5.96429">
        <ele>989.9</ele>
        <time>2015-07-24T08:12:10Z</time>
      </trkpt>
      <trkpt lat="44.80329" lon="5.9642">
        <ele>991.8</ele>
        <time>2015-07-24T08:12:15Z</time>
      </trkpt>
      <trkpt lat="44.80329" lon="5.96413">
        <ele>993.6</ele>
        <time>2015-07-24T08:12:20Z</time>
      </trkpt>
      <trkpt lat="44.80328" lon="5.96405">
        <ele>996.4</ele>
        <time>2015-07-24T08:12:25Z</time>
      </trkpt>
      <trkpt lat="44.80323" lon="5.96395">
        <ele>999.8</ele>
        <time>2015-07-24T08:12:30Z</time>
      </trkpt>
      <trkpt lat="44.80319" lon="5.96387">
        <ele>998.5</ele>
        <time>2015-07-24T08:12:35Z</time>
      </trkpt>
      <trkpt lat="44.80315" lon="5.9638">
        <ele>996.8</ele>
        <time>2015-07-24T08:12:40Z</time>
      </trkpt>
      <trkpt lat="44.80313" lon="5.96373">
        <ele>995.9</ele>
        <time>2015-07-24T08:12:45Z</time>
      </trkpt>
      <trkpt lat="44.80309" lon="5.96363">
        <ele>995.9</ele>
        <time>2015-07-24T08:12:50Z</time>
      </trkpt>
      <trkpt lat="44.80307" lon="5.96355">
        <ele>997.9</ele>
        <time>2015-07-24T08:12:55Z</time>
      </trkpt>
      <trkpt lat="44.80309" lon="5.96347">
        <ele>999.6</ele>
        <time>2015-07-24T08:13:00Z</time>
      </trkpt>
      <trkpt lat="44.8031" lon="5.9634">
        <ele>1002.9</ele>
        <time>2015-07-24T08:13:05Z</time>
      </trkpt>
      <trkpt lat="44.80308" lon="5.96333">
        <ele>1006.7</ele>
        <time>2015-07-24T08:13:10Z</time>
      </trkpt>
      <trkpt lat="44.80309" lon="5.96325">
        <ele>1008.5</ele>
        <time>2015-07-24T08:13:15Z</time>
      </trkpt>
      <trkpt lat="44.80312" lon="5.96321">
        <ele>1010.5</ele>
        <time>2015-07-24T08:13:20Z</time>
      </trkpt>
      <trkpt lat="44.80315" lon="5.96314">
        <ele>1011.4</ele>
        <time>2015-07-24T08:13:25Z</time>
      </trkpt>
      <trkpt lat="44.80322" lon="5.96308">
        <ele>1009.7</ele>
        <time>2015-07-24T08:13:30Z</time>
      </trkpt>
      <trkpt lat="44.80327" lon="5.96304">
        <ele>1009.5</ele>
        <time>2015-07-24T08:13:35Z</time>
      </trkpt>
      <trkpt lat="44.80331" lon="5.96297">
        <ele>1010.4</ele>
        <time>2015-07-24T08:13:40Z</time>
      </trkpt>
      <trkpt lat="44.80334" lon="5.96293">
        <ele>1011.9</ele>
        <time>2015-07-24T08:13:45Z</time>
      </trkpt>
      <trkpt lat="44.80337" lon="5.96286">
        <ele>1015.2</ele>
        <time>2015-07-24T08:13:50Z</time>
      </trkpt>
      <trkpt lat="44.80341" lon="5.96282">
        <ele>1019.1</ele>
        <time>2015-07-24T08:13:55Z</time>
      </trkpt>
      <trkpt lat="44.80346" lon="5.96276">
        <ele>1020.7</ele>
        <time>2015-07-24T08:14:00Z</time>
      </trkpt>
      <trkpt lat="44.80347" lon="5.96272">
        <ele>1023</ele>
        <time>2015-07-24T08:14:05Z</time>
      </trkpt>
      <trkpt lat="44.80352" lon="5.96266">
        <ele>1022.3</ele>
        <time>2015-07-24T08:14:10Z</time>
      </trkpt>
      <trkpt lat="44.80358" lon="5.96259">
        <ele>1022</ele>
        <time>2015-07-24T08:14:15Z</time>
      </trkpt>
      <trkpt lat="44.80362" lon="5.96253">
        <ele>1022.7</ele>
        <time>2015-07-24T08:14:20Z</time>
      </trkpt>
      <trkpt lat="44.80367" lon="5.96243">
        <ele>1023.7</ele>
        <time>2015-07-24T08:14:25Z</time>
      </trkpt>
      <trkpt lat="44.80371" lon="5.96234">
        <ele>1025.7</ele>
        <time>2015-07-24T08:14:30Z</time>
      </trkpt>
      <trkpt lat="44.80374" lon="5.96227">
        <ele>1026.9</ele>
        <time>2015-07-24T08:14:35Z</time>
      </trkpt>
      <trkpt lat="44.80372" lon="5.96216">
        <ele>1033</ele>
        <time>2015-07-24T08:14:40Z</time>
      </trkpt>
      <trkpt lat="44.80374" lon="5.96214">
        <ele>1031.1</ele>
        <time>2015-07-24T08:14:45Z</time>
      </trkpt>
      <trkpt lat="44.80376" lon="5.96209">
        <ele>1033.1</ele>
        <time>2015-07-24T08:14:50Z</time>
      </trkpt>
      <trkpt lat="44.8038" lon="5.9621">
        <ele>1031.7</ele>
        <time>2015-07-24T08:14:55Z</time>
      </trkpt>
      <trkpt lat="44.80381" lon="5.96216">
        <ele>1025.9</ele>
        <time>2015-07-24T08:15:00Z</time>
      </trkpt>
      <trkpt lat="44.80383" lon="5.96212">
        <ele>1026.3</ele>
        <time>2015-07-24T08:15:05Z</time>
      </trkpt>
      <trkpt lat="44.80385" lon="5.96211">
        <ele>1025.8</ele>
        <time>2015-07-24T08:15:10Z</time>
      </trkpt>
      <trkpt lat="44.80387" lon="5.96207">
        <ele>1029.2</ele>
        <time>2015-07-24T08:15:15Z</time>
      </trkpt>
      <trkpt lat="44.80391" lon="5.96202">
        <ele>1031.3</ele>
        <time>2015-07-24T08:15:20Z</time>
      </trkpt>
      <trkpt lat="44.80396" lon="5.96195">
        <ele>1032</ele>
        <time>2015-07-24T08:15:25Z</time>
      </trkpt>
      <trkpt lat="44.80402" lon="5.96193">
        <ele>1033.7</ele>
        <time>2015-07-24T08:15:30Z</time>
      </trkpt>
      <trkpt lat="44.80405" lon="5.96185">
        <ele>1039.5</ele>
        <time>2015-07-24T08:15:35Z</time>
      </trkpt>
      <trkpt lat="44.80407" lon="5.96176">
        <ele>1042.1</ele>
        <time>2015-07-24T08:15:40Z</time>
      </trkpt>
      <trkpt lat="44.80409" lon="5.96168">
        <ele>1044.5</ele>
        <time>2015-07-24T08:15:45Z</time>
      </trkpt>
      <trkpt lat="44.80415" lon="5.96158">
        <ele>1047</ele>
        <time>2015-07-24T08:15:50Z</time>
      </trkpt>
      <trkpt lat="44.8042" lon="5.96151">
        <ele>1048.9</ele>
        <time>2015-07-24T08:15:55Z</time>
      </trkpt>
      <trkpt lat="44.80423" lon="5.96144">
        <ele>1049</ele>
        <time>2015-07-24T08:16:00Z</time>
      </trkpt>
      <trkpt lat="44.80425" lon="5.96138">
        <ele>1052.5</ele>
        <time>2015-07-24T08:16:05Z</time>
      </trkpt>
      <trkpt lat="44.80426" lon="5.96132">
        <ele>1053.6</ele>
        <time>2015-07-24T08:16:10Z</time>
      </trkpt>
      <trkpt lat="44.8043" lon="5.96125">
        <ele>1056.3</ele>
        <time>2015-07-24T08:16:15Z</time>
      </trkpt>
      <trkpt lat="44.80435" lon="5.96122">
        <ele>1055.2</ele>
        <time>2015-07-24T08:16:20Z</time>
      </trkpt>
      <trkpt lat="44.80436" lon="5.96114">
        <ele>1057.6</ele>
        <time>2015-07-24T08:16:25Z</time>
      </trkpt>
      <trkpt lat="44.8044" lon="5.96109">
        <ele>1057.7</ele>
        <time>2015-07-24T08:16:30Z</time>
      </trkpt>
      <trkpt lat="44.80442" lon="5.96101">
        <ele>1059.1</ele>
        <time>2015-07-24T08:16:35Z</time>
      </trkpt>
      <trkpt lat="44.80445" lon="5.96093">
        <ele>1058.1</ele>
        <time>2015-07-24T08:16:40Z</time>
      </trkpt>
      <trkpt lat="44.80448" lon="5.96084">
        <ele>1061</ele>
        <time>2015-07-24T08:16:45Z</time>
      </trkpt>
      <trkpt lat="44.80452" lon="5.96078">
        <ele>1059.2</ele>
        <time>2015-07-24T08:16:50Z</time>
      </trkpt>
      <trkpt lat="44.80455" lon="5.9607">
        <ele>1058.6</ele>
        <time>2015-07-24T08:16:55Z</time>
      </trkpt>
      <trkpt lat="44.80459" lon="5.96062">
        <ele>1059.5</ele>
        <time>2015-07-24T08:17:00Z</time>
      </trkpt>
      <trkpt lat="44.80462" lon="5.96051">
        <ele>1064.6</ele>
        <time>2015-07-24T08:17:05Z</time>
      </trkpt>
      <trkpt lat="44.80465" lon="5.96045">
        <ele>1066.4</ele>
        <time>2015-07-24T08:17:10Z</time>
      </trkpt>
      <trkpt lat="44.80469" lon="5.96037">
        <ele>1063.8</ele>
        <time>2015-07-24T08:17:15Z</time>
      </trkpt>
      <trkpt lat="44.80469" lon="5.9603">
        <ele>1062.3</ele>
        <time>2015-07-24T08:17:20Z</time>
      </trkpt>
      <trkpt lat="44.80474" lon="5.96023">
        <ele>1063</ele>
        <time>2015-07-24T08:17:25Z</time>
      </trkpt>
      <trkpt lat="44.80478" lon="5.96016">
        <ele>1066.3</ele>
        <time>2015-07-24T08:17:30Z</time>
      </trkpt>
      <trkpt lat="44.80482" lon="5.9601">
        <ele>1066.8</ele>
        <time>2015-07-24T08:17:35Z</time>
      </trkpt>
      <trkpt lat="44.80485" lon="5.96002">
        <ele>1067.7</ele>
        <time>2015-07-24T08:17:40Z</time>
      </trkpt>
      <trkpt lat="44.80487" lon="5.95998">
        <ele>1068.4</ele>
        <time>2015-07-24T08:17:45Z</time>
      </trkpt>
      <trkpt lat="44.80488" lon="5.95996">
        <ele>1070.8</ele>
        <time>2015-07-24T08:17:50Z</time>
      </trkpt>
      <trkpt lat="44.80491" lon="5.95992">
        <ele>1072.9</ele>
        <time>2015-07-24T08:17:55Z</time>
      </trkpt>
      <trkpt lat="44.80496" lon="5.95988">
        <ele>1074.1</ele>
        <time>2015-07-24T08:18:00Z</time>
      </trkpt>
      <trkpt lat="44.80499" lon="5.95985">
        <ele>1074.5</ele>
        <time>2015-07-24T08:18:05Z</time>
      </trkpt>
      <trkpt lat="44.805" lon="5.95985">
        <ele>1075.5</ele>
        <time>2015-07-24T08:18:10Z</time>
      </trkpt>
      <trkpt lat="44.805" lon="5.95984">
        <ele>1075.4</ele>
        <time>2015-07-24T08:18:15Z</time>
      </trkpt>
      <trkpt lat="44.805" lon="5.95985">
        <ele>1074.6</ele>
        <time>2015-07-24T08:18:20Z</time>
      </trkpt>
      <trkpt lat="44.80499" lon="5.95985">
        <ele>1073.3</ele>
        <time>2015-07-24T08:18:25Z</time>
      </trkpt>
      <trkpt lat="44.80499" lon="5.95985">
        <ele>1072.3</ele>
        <time>2015-07-24T08:18:30Z</time>
      </trkpt>
      <trkpt lat="44.80499" lon="5.95985">
        <ele>1071.7</ele>
        <time>2015-07-24T08:18:35Z</time>
      </trkpt>
      <trkpt lat="44.80498" lon="5.95985">
        <ele>1071.1</ele>
        <time>2015-07-24T08:18:40Z</time>
      </trkpt>
      <trkpt lat="44.80498" lon="5.95984">
        <ele>1072.3</ele>
        <time>2015-07-24T08:18:45Z</time>
      </trkpt>
      <trkpt lat="44.80499" lon="5.95983">
        <ele>1073.8</ele>
        <time>2015-07-24T08:18:50Z</time>
      </trkpt>
      <trkpt lat="44.80499" lon="5.95984">
        <ele>1073.6</ele>
        <time>2015-07-24T08:18:55Z</time>
      </trkpt>
      <trkpt lat="44.80499" lon="5.95984">
        <ele>1072.4</ele>
        <time>2015-07-24T08:19:00Z</time>
      </trkpt>
      <trkpt lat="44.80499" lon="5.95985">
        <ele>1071.9</ele>
        <time>2015-07-24T08:19:05Z</time>
      </trkpt>
      <trkpt lat="44.805" lon="5.95984">
        <ele>1072.1</ele>
        <time>2015-07-24T08:19:10Z</time>
      </trkpt>
      <trkpt lat="44.80503" lon="5.95983">
        <ele>1071.7</ele>
        <time>2015-07-24T08:19:15Z</time>
      </trkpt>
      <trkpt lat="44.80504" lon="5.95983">
        <ele>1071.5</ele>
        <time>2015-07-24T08:19:20Z</time>
      </trkpt>
      <trkpt lat="44.80509" lon="5.95981">
        <ele>1073.1</ele>
        <time>2015-07-24T08:19:25Z</time>
      </trkpt>
      <trkpt lat="44.80512" lon="5.9598">
        <ele>1074.4</ele>
        <time>2015-07-24T08:19:30Z</time>
      </trkpt>
      <trkpt lat="44.80512" lon="5.95981">
        <ele>1074.5</ele>
        <time>2015-07-24T08:19:35Z</time>
      </trkpt>
      <trkpt lat="44.80512" lon="5.95981">
        <ele>1074.9</ele>
        <time>2015-07-24T08:19:40Z</time>
      </trkpt>
      <trkpt lat="44.80512" lon="5.95981">
        <ele>1075.4</ele>
        <time>2015-07-24T08:19:45Z</time>
      </trkpt>
      <trkpt lat="44.80511" lon="5.95981">
        <ele>1076</ele>
        <time>2015-07-24T08:19:50Z</time>
      </trkpt>
      <trkpt lat="44.80513" lon="5.95979">
        <ele>1076.5</ele>
        <time>2015-07-24T08:19:55Z</time>
      </trkpt>
      <trkpt lat="44.80513" lon="5.95979">
        <ele>1077.2</ele>
        <time>2015-07-24T08:20:00Z</time>
      </trkpt>
      <trkpt lat="44.80513" lon="5.9598">
        <ele>1077.6</ele>
        <time>2015-07-24T08:20:05Z</time>
      </trkpt>
      <trkpt lat="44.80514" lon="5.95981">
        <ele>1077.7</ele>
        <time>2015-07-24T08:20:10Z</time>
      </trkpt>
      <trkpt lat="44.80513" lon="5.9598">
        <ele>1077.7</ele>
        <time>2015-07-24T08:20:15Z</time>
      </trkpt>
      <trkpt lat="44.80515" lon="5.95982">
        <ele>1077.5</ele>
        <time>2015-07-24T08:20:20Z</time>
      </trkpt>
      <trkpt lat="44.80518" lon="5.95984">
        <ele>1077.3</ele>
        <time>2015-07-24T08:20:25Z</time>
      </trkpt>
      <trkpt lat="44.80518" lon="5.95984">
        <ele>1077</ele>
        <time>2015-07-24T08:20:30Z</time>
      </trkpt>
      <trkpt lat="44.80518" lon="5.95983">
        <ele>1077</ele>
        <time>2015-07-24T08:20:35Z</time>
      </trkpt>
      <trkpt lat="44.80517" lon="5.95982">
        <ele>1077.6</ele>
        <time>2015-07-24T08:20:40Z</time>
      </trkpt>
      <trkpt lat="44.80516" lon="5.95982">
        <ele>1078</ele>
        <time>2015-07-24T08:20:45Z</time>
      </trkpt>
      <trkpt lat="44.80516" lon="5.95981">
        <ele>1077.6</ele>
        <time>2015-07-24T08:20:50Z</time>
      </trkpt>
      <trkpt lat="44.80518" lon="5.95978">
        <ele>1077.9</ele>
        <time>2015-07-24T08:20:55Z</time>
      </trkpt>
      <trkpt lat="44.80521" lon="5.95976">
        <ele>1078.5</ele>
        <time>2015-07-24T08:21:00Z</time>
      </trkpt>
      <trkpt lat="44.80523" lon="5.95978">
        <ele>1077.8</ele>
        <time>2015-07-24T08:21:05Z</time>
      </trkpt>
      <trkpt lat="44.80524" lon="5.95978">
        <ele>1078.1</ele>
        <time>2015-07-24T08:21:10Z</time>
      </trkpt>
      <trkpt lat="44.80525" lon="5.95979">
        <ele>1077.2</ele>
        <time>2015-07-24T08:21:15Z</time>
      </trkpt>
      <trkpt lat="44.80525" lon="5.95979">
        <ele>1077.5</ele>
        <time>2015-07-24T08:21:20Z</time>
      </trkpt>
      <trkpt lat="44.80526" lon="5.95977">
        <ele>1078.6</ele>
        <time>2015-07-24T08:21:25Z</time>
      </trkpt>
      <trkpt lat="44.80529" lon="5.95975">
        <ele>1080</ele>
        <time>2015-07-24T08:21:30Z</time>
      </trkpt>
      <trkpt lat="44.80531" lon="5.95977">
        <ele>1079.1</ele>
        <time>2015-07-24T08:21:35Z</time>
      </trkpt>
      <trkpt lat="44.80531" lon="5.95976">
        <ele>1079.6</ele>
        <time>2015-07-24T08:21:40Z</time>
      </trkpt>
      <trkpt lat="44.80534" lon="5.95974">
        <ele>1081.4</ele>
        <time>2015-07-24T08:21:45Z</time>
      </trkpt>
      <trkpt lat="44.8054" lon="5.95972">
        <ele>1083.8</ele>
        <time>2015-07-24T08:21:50Z</time>
      </trkpt>
      <trkpt lat="44.80541" lon="5.95971">
        <ele>1084.2</ele>
        <time>2015-07-24T08:21:55Z</time>
      </trkpt>
      <trkpt lat="44.80537" lon="5.95969">
        <ele>1085.2</ele>
        <time>2015-07-24T08:22:00Z</time>
      </trkpt>
      <trkpt lat="44.8054" lon="5.95969">
        <ele>1085</ele>
        <time>2015-07-24T08:22:05Z</time>
      </trkpt>
      <trkpt lat="44.80544" lon="5.9597">
        <ele>1085.2</ele>
        <time>2015-07-24T08:22:10Z</time>
      </trkpt>
      <trkpt lat="44.80548" lon="5.9597">
        <ele>1086.3</ele>
        <time>2015-07-24T08:22:15Z</time>
      </trkpt>
      <trkpt lat="44.80553" lon="5.95969">
        <ele>1087.8</ele>
        <time>2015-07-24T08:22:20Z</time>
      </trkpt>
      <trkpt lat="44.80557" lon="5.95968">
        <ele>1088.9</ele>
        <time>2015-07-24T08:22:25Z</time>
      </trkpt>
      <trkpt lat="44.8056" lon="5.95966">
        <ele>1090.1</ele>
        <time>2015-07-24T08:22:30Z</time>
      </trkpt>
      <trkpt lat="44.80563" lon="5.95966">
        <ele>1090.3</ele>
        <time>2015-07-24T08:22:35Z</time>
      </trkpt>
      <trkpt lat="44.80566" lon="5.95965">
        <ele>1090.7</ele>
        <time>2015-07-24T08:22:40Z</time>
      </trkpt>
      <trkpt lat="44.8057" lon="5.95965">
        <ele>1091.3</ele>
        <time>2015-07-24T08:22:45Z</time>
      </trkpt>
      <trkpt lat="44.80573" lon="5.95964">
        <ele>1091.2</ele>
        <time>2015-07-24T08:22:50Z</time>
      </trkpt>
      <trkpt lat="44.80576" lon="5.95963">
        <ele>1091.9</ele>
        <time>2015-07-24T08:22:55Z</time>
      </trkpt>
      <trkpt lat="44.80581" lon="5.95964">
        <ele>1092.5</ele>
        <time>2015-07-24T08:23:00Z</time>
      </trkpt>
      <trkpt lat="44.80584" lon="5.95963">
        <ele>1092.5</ele>
        <time>2015-07-24T08:23:05Z</time>
      </trkpt>
      <trkpt lat="44.80588" lon="5.95962">
        <ele>1094</ele>
        <time>2015-07-24T08:23:10Z</time>
      </trkpt>
      <trkpt lat="44.80586" lon="5.95963">
        <ele>1096.2</ele>
        <time>2015-07-24T08:23:15Z</time>
      </trkpt>
      <trkpt lat="44.80583" lon="5.95967">
        <ele>1097.6</ele>
        <time>2015-07-24T08:23:20Z</time>
      </trkpt>
      <trkpt lat="44.80581" lon="5.9597">
        <ele>1099.1</ele>
        <time>2015-07-24T08:23:25Z</time>
      </trkpt>
      <trkpt lat="44.80577" lon="5.95972">
        <ele>1103</ele>
        <time>2015-07-24T08:23:30Z</time>
      </trkpt>
      <trkpt lat="44.80575" lon="5.95975">
        <ele>1105.6</ele>
        <time>2015-07-24T08:23:35Z</time>
      </trkpt>
      <trkpt lat="44.80573" lon="5.95979">
        <ele>1107.4</ele>
        <time>2015-07-24T08:23:40Z</time>
      </trkpt>
      <trkpt lat="44.80573" lon="5.95981">
        <ele>1106.7</ele>
        <time>2015-07-24T08:23:45Z</time>
      </trkpt>
      <trkpt lat="44.80572" lon="5.95984">
        <ele>1108.6</ele>
        <time>2015-07-24T08:23:50Z</time>
      </trkpt>
      <trkpt lat="44.80573" lon="5.95988">
        <ele>1108.9</ele>
        <time>2015-07-24T08:23:55Z</time>
      </trkpt>
      <trkpt lat="44.80575" lon="5.95986">
        <ele>1109.9</ele>
        <time>2015-07-24T08:24:00Z</time>
      </trkpt>
      <trkpt lat="44.80578" lon="5.95987">
        <ele>1110.5</ele>
        <time>2015-07-24T08:24:05Z</time>
      </trkpt>
      <trkpt lat="44.80581" lon="5.9599">
        <ele>1108.9</ele>
        <time>2015-07-24T08:24:10Z</time>
      </trkpt>
      <trkpt lat="44.80586" lon="5.95994">
        <ele>1106.6</ele>
        <time>2015-07-24T08:24:15Z</time>
      </trkpt>
      <trkpt lat="44.80589" lon="5.95997">
        <ele>1107.6</ele>
        <time>2015-07-24T08:24:20Z</time>
      </trkpt>
      <trkpt lat="44.80589" lon="5.95996">
        <ele>1110.2</ele>
        <time>2015-07-24T08:24:25Z</time>
      </trkpt>
      <trkpt lat="44.80591" lon="5.95997">
        <ele>1112.6</ele>
        <time>2015-07-24T08:24:30Z</time>
      </trkpt>
      <trkpt lat="44.80592" lon="5.95995">
        <ele>1114.9</ele>
        <time>2015-07-24T08:24:35Z</time>
      </trkpt>
      <trkpt lat="44.80592" lon="5.95996">
        <ele>1115.2</ele>
        <time>2015-07-24T08:24:40Z</time>
      </trkpt>
      <trkpt lat="44.80592" lon="5.95996">
        <ele>1115.3</ele>
        <time>2015-07-24T08:24:45Z</time>
      </trkpt>
      <trkpt lat="44.80592" lon="5.95996">
        <ele>1115.1</ele>
        <time>2015-07-24T08:24:50Z</time>
      </trkpt>
      <trkpt lat="44.80595" lon="5.95997">
        <ele>1112.8</ele>
        <time>2015-07-24T08:24:55Z</time>
      </trkpt>
      <trkpt lat="44.80598" lon="5.95999">
        <ele>1110.8</ele>
        <time>2015-07-24T08:25:00Z</time>
      </trkpt>
      <trkpt lat="44.80602" lon="5.96002">
        <ele>1109.5</ele>
        <time>2015-07-24T08:25:05Z</time>
      </trkpt>
      <trkpt lat="44.80606" lon="5.96004">
        <ele>1108.6</ele>
        <time>2015-07-24T08:25:10Z</time>
      </trkpt>
      <trkpt lat="44.80608" lon="5.96006">
        <ele>1109.5</ele>
        <time>2015-07-24T08:25:15Z</time>
      </trkpt>
      <trkpt lat="44.80607" lon="5.96007">
        <ele>1113.4</ele>
        <time>2015-07-24T08:25:20Z</time>
      </trkpt>
      <trkpt lat="44.80609" lon="5.96004">
        <ele>1116.4</ele>
        <time>2015-07-24T08:25:25Z</time>
      </trkpt>
      <trkpt lat="44.80613" lon="5.96005">
        <ele>1115.2</ele>
        <time>2015-07-24T08:25:30Z</time>
      </trkpt>
      <trkpt lat="44.80615" lon="5.96004">
        <ele>1118.2</ele>
        <time>2015-07-24T08:25:35Z</time>
      </trkpt>
      <trkpt lat="44.80617" lon="5.96002">
        <ele>1120.9</ele>
        <time>2015-07-24T08:25:40Z</time>
      </trkpt>
      <trkpt lat="44.80619" lon="5.96002">
        <ele>1122.2</ele>
        <time>2015-07-24T08:25:45Z</time>
      </trkpt>
      <trkpt lat="44.80623" lon="5.96004">
        <ele>1122.8</ele>
        <time>2015-07-24T08:25:50Z</time>
      </trkpt>
      <trkpt lat="44.80625" lon="5.96005">
        <ele>1123.5</ele>
        <time>2015-07-24T08:25:55Z</time>
      </trkpt>
      <trkpt lat="44.80628" lon="5.96009">
        <ele>1123.7</ele>
        <time>2015-07-24T08:26:00Z</time>
      </trkpt>
      <trkpt lat="44.80628" lon="5.96007">
        <ele>1127.5</ele>
        <time>2015-07-24T08:26:05Z</time>
      </trkpt>
      <trkpt lat="44.80631" lon="5.96008">
        <ele>1130</ele>
        <time>2015-07-24T08:26:10Z</time>
      </trkpt>
      <trkpt lat="44.80635" lon="5.96007">
        <ele>1130.5</ele>
        <time>2015-07-24T08:26:15Z</time>
      </trkpt>
      <trkpt lat="44.80639" lon="5.96009">
        <ele>1129.3</ele>
        <time>2015-07-24T08:26:20Z</time>
      </trkpt>
      <trkpt lat="44.80643" lon="5.96007">
        <ele>1131.4</ele>
        <time>2015-07-24T08:26:25Z</time>
      </trkpt>
      <trkpt lat="44.80647" lon="5.96005">
        <ele>1133.3</ele>
        <time>2015-07-24T08:26:30Z</time>
      </trkpt>
      <trkpt lat="44.8065" lon="5.96004">
        <ele>1135.1</ele>
        <time>2015-07-24T08:26:35Z</time>
      </trkpt>
      <trkpt lat="44.80653" lon="5.96002">
        <ele>1137.4</ele>
        <time>2015-07-24T08:26:40Z</time>
      </trkpt>
      <trkpt lat="44.80658" lon="5.96001">
        <ele>1137.2</ele>
        <time>2015-07-24T08:26:45Z</time>
      </trkpt>
      <trkpt lat="44.80663" lon="5.96001">
        <ele>1134.5</ele>
        <time>2015-07-24T08:26:50Z</time>
      </trkpt>
      <trkpt lat="44.80668" lon="5.96002">
        <ele>1132.5</ele>
        <time>2015-07-24T08:26:55Z</time>
      </trkpt>
      <trkpt lat="44.80669" lon="5.96">
        <ele>1131.6</ele>
        <time>2015-07-24T08:27:00Z</time>
      </trkpt>
      <trkpt lat="44.80668" lon="5.96">
        <ele>1130.2</ele>
        <time>2015-07-24T08:27:05Z</time>
      </trkpt>
      <trkpt lat="44.80668" lon="5.96">
        <ele>1129.8</ele>
        <time>2015-07-24T08:27:10Z</time>
      </trkpt>
      <trkpt lat="44.80665" lon="5.95998">
        <ele>1132.3</ele>
        <time>2015-07-24T08:27:15Z</time>
      </trkpt>
      <trkpt lat="44.80665" lon="5.95993">
        <ele>1137.2</ele>
        <time>2015-07-24T08:27:20Z</time>
      </trkpt>
      <trkpt lat="44.80666" lon="5.95992">
        <ele>1135</ele>
        <time>2015-07-24T08:27:25Z</time>
      </trkpt>
      <trkpt lat="44.80664" lon="5.95992">
        <ele>1138.3</ele>
        <time>2015-07-24T08:27:30Z</time>
      </trkpt>
      <trkpt lat="44.80661" lon="5.95995">
        <ele>1140.4</ele>
        <time>2015-07-24T08:27:35Z</time>
      </trkpt>
      <trkpt lat="44.80661" lon="5.95999">
        <ele>1139.4</ele>
        <time>2015-07-24T08:27:40Z</time>
      </trkpt>
      <trkpt lat="44.80657" lon="5.96004">
        <ele>1139.1</ele>
        <time>2015-07-24T08:27:45Z</time>
      </trkpt>
      <trkpt lat="44.80655" lon="5.96007">
        <ele>1138.4</ele>
        <time>2015-07-24T08:27:50Z</time>
      </trkpt>
      <trkpt lat="44.80651" lon="5.96011">
        <ele>1139.2</ele>
        <time>2015-07-24T08:27:55Z</time>
      </trkpt>
      <trkpt lat="44.80648" lon="5.96012">
        <ele>1139</ele>
        <time>2015-07-24T08:28:00Z</time>
      </trkpt>
      <trkpt lat="44.80644" lon="5.96014">
        <ele>1138.8</ele>
        <time>2015-07-24T08:28:05Z</time>
      </trkpt>
      <trkpt lat="44.80643" lon="5.96021">
        <ele>1139.7</ele>
        <time>2015-07-24T08:28:10Z</time>
      </trkpt>
      <trkpt lat="44.80645" lon="5.96023">
        <ele>1141.8</ele>
        <time>2015-07-24T08:28:15Z</time>
      </trkpt>
      <trkpt lat="44.8065" lon="5.96025">
        <ele>1141.3</ele>
        <time>2015-07-24T08:28:20Z</time>
      </trkpt>
      <trkpt lat="44.80654" lon="5.96027">
        <ele>1142.8</ele>
        <time>2015-07-24T08:28:25Z</time>
      </trkpt>
      <trkpt lat="44.80653" lon="5.96027">
        <ele>1145.6</ele>
        <time>2015-07-24T08:28:30Z</time>
      </trkpt>
      <trkpt lat="44.80657" lon="5.9603">
        <ele>1143.5</ele>
        <time>2015-07-24T08:28:35Z</time>
      </trkpt>
      <trkpt lat="44.80656" lon="5.96029">
        <ele>1146.7</ele>
        <time>2015-07-24T08:28:40Z</time>
      </trkpt>
      <trkpt lat="44.80655" lon="5.9603">
        <ele>1145.6</ele>
        <time>2015-07-24T08:28:45Z</time>
      </trkpt>
      <trkpt lat="44.80653" lon="5.96028">
        <ele>1147.8</ele>
        <time>2015-07-24T08:28:50Z</time>
      </trkpt>
      <trkpt lat="44.80655" lon="5.9603">
        <ele>1141.3</ele>
        <time>2015-07-24T08:28:55Z</time>
      </trkpt>
      <trkpt lat="44.80653" lon="5.96029">
        <ele>1140.7</ele>
        <time>2015-07-24T08:29:00Z</time>
      </trkpt>
      <trkpt lat="44.80651" lon="5.96026">
        <ele>1142.5</ele>
        <time>2015-07-24T08:29:05Z</time>
      </trkpt>
      <trkpt lat="44.80655" lon="5.96029">
        <ele>1138.2</ele>
        <time>2015-07-24T08:29:10Z</time>
      </trkpt>
      <trkpt lat="44.80657" lon="5.96031">
        <ele>1138.6</ele>
        <time>2015-07-24T08:29:15Z</time>
      </trkpt>
      <trkpt lat="44.8066" lon="5.9603">
        <ele>1140.5</ele>
        <time>2015-07-24T08:29:20Z</time>
      </trkpt>
      <trkpt lat="44.80665" lon="5.96031">
        <ele>1140.3</ele>
        <time>2015-07-24T08:29:25Z</time>
      </trkpt>
      <trkpt lat="44.80668" lon="5.96032">
        <ele>1140.3</ele>
        <time>2015-07-24T08:29:30Z</time>
      </trkpt>
      <trkpt lat="44.80673" lon="5.96032">
        <ele>1142.5</ele>
        <time>2015-07-24T08:29:35Z</time>
      </trkpt>
      <trkpt lat="44.80675" lon="5.96031">
        <ele>1144.7</ele>
        <time>2015-07-24T08:29:40Z</time>
      </trkpt>
      <trkpt lat="44.80679" lon="5.9603">
        <ele>1145.7</ele>
        <time>2015-07-24T08:29:45Z</time>
      </trkpt>
      <trkpt lat="44.80684" lon="5.96032">
        <ele>1144.1</ele>
        <time>2015-07-24T08:29:50Z</time>
      </trkpt>
      <trkpt lat="44.80686" lon="5.9603">
        <ele>1147.3</ele>
        <time>2015-07-24T08:29:55Z</time>
      </trkpt>
      <trkpt lat="44.80687" lon="5.96028">
        <ele>1152.6</ele>
        <time>2015-07-24T08:30:00Z</time>
      </trkpt>
      <trkpt lat="44.80687" lon="5.96032">
        <ele>1153.7</ele>
        <time>2015-07-24T08:30:05Z</time>
      </trkpt>
      <trkpt lat="44.80689" lon="5.96031">
        <ele>1153</ele>
        <time>2015-07-24T08:30:10Z</time>
      </trkpt>
      <trkpt lat="44.80682" lon="5.96025">
        <ele>1164.5</ele>
        <time>2015-07-24T08:30:15Z</time>
      </trkpt>
      <trkpt lat="44.80684" lon="5.96026">
        <ele>1163.1</ele>
        <time>2015-07-24T08:30:20Z</time>
      </trkpt>
      <trkpt lat="44.80689" lon="5.96032">
        <ele>1155.1</ele>
        <time>2015-07-24T08:30:25Z</time>
      </trkpt>
      <trkpt lat="44.80695" lon="5.96039">
        <ele>1146.4</ele>
        <time>2015-07-24T08:30:30Z</time>
      </trkpt>
      <trkpt lat="44.80698" lon="5.96037">
        <ele>1145.3</ele>
        <time>2015-07-24T08:30:35Z</time>
      </trkpt>
      <trkpt lat="44.80704" lon="5.96037">
        <ele>1142</ele>
        <time>2015-07-24T08:30:40Z</time>
      </trkpt>
      <trkpt lat="44.80708" lon="5.96039">
        <ele>1141.3</ele>
        <time>2015-07-24T08:30:45Z</time>
      </trkpt>
      <trkpt lat="44.80711" lon="5.96038">
        <ele>1144.4</ele>
        <time>2015-07-24T08:30:50Z</time>
      </trkpt>
      <trkpt lat="44.80717" lon="5.96041">
        <ele>1145.9</ele>
        <time>2015-07-24T08:30:55Z</time>
      </trkpt>
      <trkpt lat="44.80721" lon="5.96041">
        <ele>1148.1</ele>
        <time>2015-07-24T08:31:00Z</time>
      </trkpt>
      <trkpt lat="44.80724" lon="5.96042">
        <ele>1150.3</ele>
        <time>2015-07-24T08:31:05Z</time>
      </trkpt>
      <trkpt lat="44.80727" lon="5.96044">
        <ele>1153.1</ele>
        <time>2015-07-24T08:31:10Z</time>
      </trkpt>
      <trkpt lat="44.80728" lon="5.96044">
        <ele>1156.2</ele>
        <time>2015-07-24T08:31:15Z</time>
      </trkpt>
      <trkpt lat="44.80723" lon="5.9604">
        <ele>1161.6</ele>
        <time>2015-07-24T08:31:20Z</time>
      </trkpt>
      <trkpt lat="44.8072" lon="5.96037">
        <ele>1162.8</ele>
        <time>2015-07-24T08:31:25Z</time>
      </trkpt>
      <trkpt lat="44.80719" lon="5.96035">
        <ele>1162.9</ele>
        <time>2015-07-24T08:31:30Z</time>
      </trkpt>
      <trkpt lat="44.8072" lon="5.96032">
        <ele>1164.2</ele>
        <time>2015-07-24T08:31:35Z</time>
      </trkpt>
      <trkpt lat="44.80721" lon="5.96032">
        <ele>1167.7</ele>
        <time>2015-07-24T08:31:40Z</time>
      </trkpt>
      <trkpt lat="44.8072" lon="5.96034">
        <ele>1165.9</ele>
        <time>2015-07-24T08:31:45Z</time>
      </trkpt>
      <trkpt lat="44.80718" lon="5.96035">
        <ele>1164.7</ele>
        <time>2015-07-24T08:31:50Z</time>
      </trkpt>
      <trkpt lat="44.80714" lon="5.96036">
        <ele>1163.3</ele>
        <time>2015-07-24T08:31:55Z</time>
      </trkpt>
      <trkpt lat="44.8071" lon="5.96037">
        <ele>1163.1</ele>
        <time>2015-07-24T08:32:00Z</time>
      </trkpt>
      <trkpt lat="44.80706" lon="5.96039">
        <ele>1164</ele>
        <time>2015-07-24T08:32:05Z</time>
      </trkpt>
      <trkpt lat="44.80702" lon="5.96042">
        <ele>1163.9</ele>
        <time>2015-07-24T08:32:10Z</time>
      </trkpt>
      <trkpt lat="44.80698" lon="5.96045">
        <ele>1166.1</ele>
        <time>2015-07-24T08:32:15Z</time>
      </trkpt>
      <trkpt lat="44.80694" lon="5.96048">
        <ele>1167.7</ele>
        <time>2015-07-24T08:32:20Z</time>
      </trkpt>
      <trkpt lat="44.8069" lon="5.9605">
        <ele>1167.7</ele>
        <time>2015-07-24T08:32:25Z</time>
      </trkpt>
      <trkpt lat="44.80687" lon="5.96053">
        <ele>1170.2</ele>
        <time>2015-07-24T08:32:30Z</time>
      </trkpt>
      <trkpt lat="44.80683" lon="5.96056">
        <ele>1170.6</ele>
        <time>2015-07-24T08:32:35Z</time>
      </trkpt>
      <trkpt lat="44.80681" lon="5.96061">
        <ele>1171.2</ele>
        <time>2015-07-24T08:32:40Z</time>
      </trkpt>
      <trkpt lat="44.80681" lon="5.96065">
        <ele>1172.6</ele>
        <time>2015-07-24T08:32:45Z</time>
      </trkpt>
      <trkpt lat="44.80683" lon="5.96065">
        <ele>1175.8</ele>
        <time>2015-07-24T08:32:50Z</time>
      </trkpt>
      <trkpt lat="44.80683" lon="5.96063">
        <ele>1177.8</ele>
        <time>2015-07-24T08:32:57Z</time>
      </trkpt>
      <trkpt lat="44.80684" lon="5.96059">
        <ele>1179.9</ele>
        <time>2015-07-24T08:33:02Z</time>
      </trkpt>
      <trkpt lat="44.80686" lon="5.96059">
        <ele>1182.7</ele>
        <time>2015-07-24T08:33:07Z</time>
      </trkpt>
      <trkpt lat="44.80686" lon="5.9606">
        <ele>1185.9</ele>
        <time>2015-07-24T08:33:12Z</time>
      </trkpt>
      <trkpt lat="44.80687" lon="5.96062">
        <ele>1189</ele>
        <time>2015-07-24T08:33:17Z</time>
      </trkpt>
      <trkpt lat="44.80687" lon="5.96062">
        <ele>1186.7</ele>
        <time>2015-07-24T08:33:22Z</time>
      </trkpt>
      <trkpt lat="44.80689" lon="5.96059">
        <ele>1184.5</ele>
        <time>2015-07-24T08:33:27Z</time>
      </trkpt>
      <trkpt lat="44.80695" lon="5.96063">
        <ele>1178.7</ele>
        <time>2015-07-24T08:33:32Z</time>
      </trkpt>
      <trkpt lat="44.807" lon="5.96064">
        <ele>1177.2</ele>
        <time>2015-07-24T08:33:37Z</time>
      </trkpt>
      <trkpt lat="44.80706" lon="5.9607">
        <ele>1173.5</ele>
        <time>2015-07-24T08:33:42Z</time>
      </trkpt>
      <trkpt lat="44.80709" lon="5.96068">
        <ele>1175.5</ele>
        <time>2015-07-24T08:33:47Z</time>
      </trkpt>
      <trkpt lat="44.80713" lon="5.96067">
        <ele>1178.1</ele>
        <time>2015-07-24T08:33:52Z</time>
      </trkpt>
      <trkpt lat="44.80717" lon="5.96069">
        <ele>1176.7</ele>
        <time>2015-07-24T08:33:57Z</time>
      </trkpt>
      <trkpt lat="44.80722" lon="5.9607">
        <ele>1176.5</ele>
        <time>2015-07-24T08:34:02Z</time>
      </trkpt>
      <trkpt lat="44.80725" lon="5.96073">
        <ele>1177.2</ele>
        <time>2015-07-24T08:34:07Z</time>
      </trkpt>
      <trkpt lat="44.80729" lon="5.96077">
        <ele>1176</ele>
        <time>2015-07-24T08:34:12Z</time>
      </trkpt>
      <trkpt lat="44.80732" lon="5.96078">
        <ele>1176.2</ele>
        <time>2015-07-24T08:34:17Z</time>
      </trkpt>
      <trkpt lat="44.80734" lon="5.96076">
        <ele>1176.1</ele>
        <time>2015-07-24T08:34:22Z</time>
      </trkpt>
      <trkpt lat="44.80742" lon="5.96078">
        <ele>1175.5</ele>
        <time>2015-07-24T08:34:27Z</time>
      </trkpt>
      <trkpt lat="44.80746" lon="5.96079">
        <ele>1178.4</ele>
        <time>2015-07-24T08:34:32Z</time>
      </trkpt>
      <trkpt lat="44.80749" lon="5.9608">
        <ele>1178</ele>
        <time>2015-07-24T08:34:37Z</time>
      </trkpt>
      <trkpt lat="44.80753" lon="5.96079">
        <ele>1179</ele>
        <time>2015-07-24T08:34:42Z</time>
      </trkpt>
      <trkpt lat="44.80758" lon="5.9608">
        <ele>1176</ele>
        <time>2015-07-24T08:34:47Z</time>
      </trkpt>
      <trkpt lat="44.80763" lon="5.96082">
        <ele>1170.6</ele>
        <time>2015-07-24T08:34:52Z</time>
      </trkpt>
      <trkpt lat="44.80768" lon="5.96082">
        <ele>1169.8</ele>
        <time>2015-07-24T08:34:57Z</time>
      </trkpt>
      <trkpt lat="44.80771" lon="5.96075">
        <ele>1181.4</ele>
        <time>2015-07-24T08:35:02Z</time>
      </trkpt>
      <trkpt lat="44.80775" lon="5.9607">
        <ele>1183.4</ele>
        <time>2015-07-24T08:35:07Z</time>
      </trkpt>
      <trkpt lat="44.80779" lon="5.96068">
        <ele>1181.6</ele>
        <time>2015-07-24T08:35:12Z</time>
      </trkpt>
      <trkpt lat="44.80779" lon="5.96071">
        <ele>1185.8</ele>
        <time>2015-07-24T08:35:17Z</time>
      </trkpt>
      <trkpt lat="44.80779" lon="5.96071">
        <ele>1188.2</ele>
        <time>2015-07-24T08:35:22Z</time>
      </trkpt>
      <trkpt lat="44.80782" lon="5.96067">
        <ele>1186.4</ele>
        <time>2015-07-24T08:35:27Z</time>
      </trkpt>
      <trkpt lat="44.80785" lon="5.96062">
        <ele>1184.4</ele>
        <time>2015-07-24T08:35:32Z</time>
      </trkpt>
      <trkpt lat="44.80787" lon="5.96057">
        <ele>1184.1</ele>
        <time>2015-07-24T08:35:37Z</time>
      </trkpt>
      <trkpt lat="44.80791" lon="5.96054">
        <ele>1184.6</ele>
        <time>2015-07-24T08:35:42Z</time>
      </trkpt>
      <trkpt lat="44.80793" lon="5.96051">
        <ele>1186</ele>
        <time>2015-07-24T08:35:47Z</time>
      </trkpt>
      <trkpt lat="44.80794" lon="5.9605">
        <ele>1190.3</ele>
        <time>2015-07-24T08:35:52Z</time>
      </trkpt>
      <trkpt lat="44.80793" lon="5.96049">
        <ele>1193.1</ele>
        <time>2015-07-24T08:35:57Z</time>
      </trkpt>
      <trkpt lat="44.80794" lon="5.9605">
        <ele>1192.8</ele>
        <time>2015-07-24T08:36:02Z</time>
      </trkpt>
      <trkpt lat="44.80794" lon="5.96051">
        <ele>1194.6</ele>
        <time>2015-07-24T08:36:07Z</time>
      </trkpt>
      <trkpt lat="44.80794" lon="5.96052">
        <ele>1195.5</ele>
        <time>2015-07-24T08:36:12Z</time>
      </trkpt>
      <trkpt lat="44.80793" lon="5.96051">
        <ele>1196</ele>
        <time>2015-07-24T08:36:17Z</time>
      </trkpt>
      <trkpt lat="44.80795" lon="5.9605">
        <ele>1193.9</ele>
        <time>2015-07-24T08:36:22Z</time>
      </trkpt>
      <trkpt lat="44.80793" lon="5.9605">
        <ele>1194.8</ele>
        <time>2015-07-24T08:36:27Z</time>
      </trkpt>
      <trkpt lat="44.80792" lon="5.96052">
        <ele>1193.4</ele>
        <time>2015-07-24T08:36:32Z</time>
      </trkpt>
      <trkpt lat="44.80788" lon="5.9605">
        <ele>1198.4</ele>
        <time>2015-07-24T08:36:37Z</time>
      </trkpt>
      <trkpt lat="44.80788" lon="5.96049">
        <ele>1199</ele>
        <time>2015-07-24T08:36:42Z</time>
      </trkpt>
      <trkpt lat="44.80792" lon="5.96046">
        <ele>1197.3</ele>
        <time>2015-07-24T08:36:47Z</time>
      </trkpt>
      <trkpt lat="44.80796" lon="5.96046">
        <ele>1195.1</ele>
        <time>2015-07-24T08:36:52Z</time>
      </trkpt>
      <trkpt lat="44.808" lon="5.96045">
        <ele>1192.9</ele>
        <time>2015-07-24T08:36:57Z</time>
      </trkpt>
      <trkpt lat="44.808" lon="5.96039">
        <ele>1197</ele>
        <time>2015-07-24T08:37:02Z</time>
      </trkpt>
      <trkpt lat="44.80803" lon="5.96037">
        <ele>1196.3</ele>
        <time>2015-07-24T08:37:07Z</time>
      </trkpt>
      <trkpt lat="44.80808" lon="5.96038">
        <ele>1194.7</ele>
        <time>2015-07-24T08:37:12Z</time>
      </trkpt>
      <trkpt lat="44.80811" lon="5.96035">
        <ele>1196.2</ele>
        <time>2015-07-24T08:37:17Z</time>
      </trkpt>
      <trkpt lat="44.80814" lon="5.96032">
        <ele>1197.4</ele>
        <time>2015-07-24T08:37:22Z</time>
      </trkpt>
      <trkpt lat="44.80817" lon="5.96029">
        <ele>1199.2</ele>
        <time>2015-07-24T08:37:27Z</time>
      </trkpt>
      <trkpt lat="44.8082" lon="5.96026">
        <ele>1199.5</ele>
        <time>2015-07-24T08:37:32Z</time>
      </trkpt>
      <trkpt lat="44.80822" lon="5.96023">
        <ele>1200.2</ele>
        <time>2015-07-24T08:37:37Z</time>
      </trkpt>
      <trkpt lat="44.80824" lon="5.96023">
        <ele>1200.6</ele>
        <time>2015-07-24T08:37:42Z</time>
      </trkpt>
      <trkpt lat="44.80825" lon="5.96023">
        <ele>1202.4</ele>
        <time>2015-07-24T08:37:47Z</time>
      </trkpt>
      <trkpt lat="44.80827" lon="5.96019">
        <ele>1202.8</ele>
        <time>2015-07-24T08:37:52Z</time>
      </trkpt>
      <trkpt lat="44.8083" lon="5.96015">
        <ele>1202.7</ele>
        <time>2015-07-24T08:37:57Z</time>
      </trkpt>
      <trkpt lat="44.80833" lon="5.96012">
        <ele>1204.1</ele>
        <time>2015-07-24T08:38:02Z</time>
      </trkpt>
      <trkpt lat="44.80836" lon="5.96008">
        <ele>1205.4</ele>
        <time>2015-07-24T08:38:07Z</time>
      </trkpt>
      <trkpt lat="44.80839" lon="5.96004">
        <ele>1204.8</ele>
        <time>2015-07-24T08:38:12Z</time>
      </trkpt>
      <trkpt lat="44.80843" lon="5.96">
        <ele>1204.8</ele>
        <time>2015-07-24T08:38:17Z</time>
      </trkpt>
      <trkpt lat="44.80846" lon="5.95998">
        <ele>1205.9</ele>
        <time>2015-07-24T08:38:22Z</time>
      </trkpt>
      <trkpt lat="44.8085" lon="5.95995">
        <ele>1206.5</ele>
        <time>2015-07-24T08:38:27Z</time>
      </trkpt>
      <trkpt lat="44.80855" lon="5.95996">
        <ele>1205.2</ele>
        <time>2015-07-24T08:38:32Z</time>
      </trkpt>
      <trkpt lat="44.80858" lon="5.95996">
        <ele>1203.5</ele>
        <time>2015-07-24T08:38:37Z</time>
      </trkpt>
      <trkpt lat="44.80861" lon="5.95995">
        <ele>1205.1</ele>
        <time>2015-07-24T08:38:42Z</time>
      </trkpt>
      <trkpt lat="44.80859" lon="5.95995">
        <ele>1202.8</ele>
        <time>2015-07-24T08:38:47Z</time>
      </trkpt>
      <trkpt lat="44.8086" lon="5.95995">
        <ele>1202.5</ele>
        <time>2015-07-24T08:38:52Z</time>
      </trkpt>
      <trkpt lat="44.8086" lon="5.95993">
        <ele>1203.5</ele>
        <time>2015-07-24T08:38:57Z</time>
      </trkpt>
      <trkpt lat="44.8086" lon="5.95991">
        <ele>1205.1</ele>
        <time>2015-07-24T08:39:02Z</time>
      </trkpt>
      <trkpt lat="44.8086" lon="5.9599">
        <ele>1206.5</ele>
        <time>2015-07-24T08:39:07Z</time>
      </trkpt>
      <trkpt lat="44.8086" lon="5.9599">
        <ele>1208</ele>
        <time>2015-07-24T08:39:12Z</time>
      </trkpt>
      <trkpt lat="44.8086" lon="5.95989">
        <ele>1208.7</ele>
        <time>2015-07-24T08:39:17Z</time>
      </trkpt>
      <trkpt lat="44.8086" lon="5.95989">
        <ele>1209</ele>
        <time>2015-07-24T08:39:22Z</time>
      </trkpt>
      <trkpt lat="44.80859" lon="5.95989">
        <ele>1208.4</ele>
        <time>2015-07-24T08:39:27Z</time>
      </trkpt>
      <trkpt lat="44.8086" lon="5.95988">
        <ele>1207.9</ele>
        <time>2015-07-24T08:39:32Z</time>
      </trkpt>
      <trkpt lat="44.80863" lon="5.95986">
        <ele>1208.4</ele>
        <time>2015-07-24T08:39:37Z</time>
      </trkpt>
      <trkpt lat="44.80867" lon="5.95984">
        <ele>1209.9</ele>
        <time>2015-07-24T08:39:42Z</time>
      </trkpt>
      <trkpt lat="44.8087" lon="5.95982">
        <ele>1211</ele>
        <time>2015-07-24T08:39:47Z</time>
      </trkpt>
      <trkpt lat="44.80874" lon="5.95979">
        <ele>1211.4</ele>
        <time>2015-07-24T08:39:52Z</time>
      </trkpt>
      <trkpt lat="44.80879" lon="5.95976">
        <ele>1212.9</ele>
        <time>2015-07-24T08:39:57Z</time>
      </trkpt>
      <trkpt lat="44.80882" lon="5.95973">
        <ele>1214.7</ele>
        <time>2015-07-24T08:40:02Z</time>
      </trkpt>
      <trkpt lat="44.80886" lon="5.95971">
        <ele>1214.2</ele>
        <time>2015-07-24T08:40:07Z</time>
      </trkpt>
      <trkpt lat="44.80891" lon="5.9597">
        <ele>1214.1</ele>
        <time>2015-07-24T08:40:12Z</time>
      </trkpt>
      <trkpt lat="44.80895" lon="5.95969">
        <ele>1214.8</ele>
        <time>2015-07-24T08:40:17Z</time>
      </trkpt>
      <trkpt lat="44.80898" lon="5.95968">
        <ele>1215.6</ele>
        <time>2015-07-24T08:40:22Z</time>
      </trkpt>
      <trkpt lat="44.80898" lon="5.95968">
        <ele>1214.5</ele>
        <time>2015-07-24T08:40:27Z</time>
      </trkpt>
      <trkpt lat="44.80897" lon="5.95966">
        <ele>1215.7</ele>
        <time>2015-07-24T08:40:32Z</time>
      </trkpt>
      <trkpt lat="44.80899" lon="5.95966">
        <ele>1214.5</ele>
        <time>2015-07-24T08:40:37Z</time>
      </trkpt>
      <trkpt lat="44.80903" lon="5.95966">
        <ele>1214.1</ele>
        <time>2015-07-24T08:40:42Z</time>
      </trkpt>
      <trkpt lat="44.80908" lon="5.95964">
        <ele>1214.9</ele>
        <time>2015-07-24T08:40:47Z</time>
      </trkpt>
      <trkpt lat="44.80911" lon="5.95963">
        <ele>1215.6</ele>
        <time>2015-07-24T08:40:52Z</time>
      </trkpt>
      <trkpt lat="44.80917" lon="5.95968">
        <ele>1213.5</ele>
        <time>2015-07-24T08:40:57Z</time>
      </trkpt>
      <trkpt lat="44.80919" lon="5.95966">
        <ele>1215.5</ele>
        <time>2015-07-24T08:41:02Z</time>
      </trkpt>
      <trkpt lat="44.80921" lon="5.9596">
        <ele>1217.2</ele>
        <time>2015-07-24T08:41:07Z</time>
      </trkpt>
      <trkpt lat="44.80923" lon="5.95957">
        <ele>1219.1</ele>
        <time>2015-07-24T08:41:12Z</time>
      </trkpt>
      <trkpt lat="44.80922" lon="5.95954">
        <ele>1221.5</ele>
        <time>2015-07-24T08:41:17Z</time>
      </trkpt>
      <trkpt lat="44.80922" lon="5.95953">
        <ele>1222.8</ele>
        <time>2015-07-24T08:41:22Z</time>
      </trkpt>
      <trkpt lat="44.80921" lon="5.95954">
        <ele>1222.8</ele>
        <time>2015-07-24T08:41:27Z</time>
      </trkpt>
      <trkpt lat="44.8092" lon="5.95953">
        <ele>1223.9</ele>
        <time>2015-07-24T08:41:32Z</time>
      </trkpt>
      <trkpt lat="44.8092" lon="5.95953">
        <ele>1223.6</ele>
        <time>2015-07-24T08:41:37Z</time>
      </trkpt>
      <trkpt lat="44.8092" lon="5.95952">
        <ele>1222.9</ele>
        <time>2015-07-24T08:41:42Z</time>
      </trkpt>
      <trkpt lat="44.8092" lon="5.95952">
        <ele>1222.1</ele>
        <time>2015-07-24T08:41:47Z</time>
      </trkpt>
      <trkpt lat="44.8092" lon="5.95954">
        <ele>1222.8</ele>
        <time>2015-07-24T08:41:52Z</time>
      </trkpt>
      <trkpt lat="44.80925" lon="5.95954">
        <ele>1222.8</ele>
        <time>2015-07-24T08:41:57Z</time>
      </trkpt>
      <trkpt lat="44.80929" lon="5.95954">
        <ele>1221.8</ele>
        <time>2015-07-24T08:42:02Z</time>
      </trkpt>
      <trkpt lat="44.80932" lon="5.9595">
        <ele>1224.4</ele>
        <time>2015-07-24T08:42:07Z</time>
      </trkpt>
      <trkpt lat="44.80935" lon="5.95947">
        <ele>1225.5</ele>
        <time>2015-07-24T08:42:12Z</time>
      </trkpt>
      <trkpt lat="44.80938" lon="5.95943">
        <ele>1227.6</ele>
        <time>2015-07-24T08:42:17Z</time>
      </trkpt>
      <trkpt lat="44.80942" lon="5.95939">
        <ele>1228.7</ele>
        <time>2015-07-24T08:42:22Z</time>
      </trkpt>
      <trkpt lat="44.80946" lon="5.95936">
        <ele>1229.2</ele>
        <time>2015-07-24T08:42:27Z</time>
      </trkpt>
      <trkpt lat="44.80952" lon="5.95933">
        <ele>1228.2</ele>
        <time>2015-07-24T08:42:32Z</time>
      </trkpt>
      <trkpt lat="44.80956" lon="5.9593">
        <ele>1228.4</ele>
        <time>2015-07-24T08:42:37Z</time>
      </trkpt>
      <trkpt lat="44.8096" lon="5.95928">
        <ele>1228.5</ele>
        <time>2015-07-24T08:42:42Z</time>
      </trkpt>
      <trkpt lat="44.80958" lon="5.95928">
        <ele>1231.1</ele>
        <time>2015-07-24T08:42:47Z</time>
      </trkpt>
      <trkpt lat="44.80961" lon="5.95926">
        <ele>1232.5</ele>
        <time>2015-07-24T08:42:52Z</time>
      </trkpt>
      <trkpt lat="44.80966" lon="5.95921">
        <ele>1230.8</ele>
        <time>2015-07-24T08:42:57Z</time>
      </trkpt>
      <trkpt lat="44.8097" lon="5.95919">
        <ele>1228.8</ele>
        <time>2015-07-24T08:43:02Z</time>
      </trkpt>
      <trkpt lat="44.80974" lon="5.95913">
        <ele>1229</ele>
        <time>2015-07-24T08:43:07Z</time>
      </trkpt>
      <trkpt lat="44.80978" lon="5.95908">
        <ele>1228.8</ele>
        <time>2015-07-24T08:43:12Z</time>
      </trkpt>
      <trkpt lat="44.80983" lon="5.95903">
        <ele>1228.6</ele>
        <time>2015-07-24T08:43:17Z</time>
      </trkpt>
      <trkpt lat="44.80988" lon="5.95899">
        <ele>1229.1</ele>
        <time>2015-07-24T08:43:22Z</time>
      </trkpt>
      <trkpt lat="44.80991" lon="5.95894">
        <ele>1228.8</ele>
        <time>2015-07-24T08:43:27Z</time>
      </trkpt>
      <trkpt lat="44.80997" lon="5.95892">
        <ele>1227.2</ele>
        <time>2015-07-24T08:43:32Z</time>
      </trkpt>
      <trkpt lat="44.81001" lon="5.95889">
        <ele>1227.4</ele>
        <time>2015-07-24T08:43:37Z</time>
      </trkpt>
      <trkpt lat="44.81005" lon="5.95884">
        <ele>1227.8</ele>
        <time>2015-07-24T08:43:42Z</time>
      </trkpt>
      <trkpt lat="44.81008" lon="5.95878">
        <ele>1228.5</ele>
        <time>2015-07-24T08:43:47Z</time>
      </trkpt>
      <trkpt lat="44.8101" lon="5.95872">
        <ele>1229.6</ele>
        <time>2015-07-24T08:43:52Z</time>
      </trkpt>
      <trkpt lat="44.81011" lon="5.95865">
        <ele>1229.7</ele>
        <time>2015-07-24T08:43:57Z</time>
      </trkpt>
      <trkpt lat="44.81012" lon="5.95856">
        <ele>1230</ele>
        <time>2015-07-24T08:44:02Z</time>
      </trkpt>
      <trkpt lat="44.81012" lon="5.95849">
        <ele>1229.8</ele>
        <time>2015-07-24T08:44:07Z</time>
      </trkpt>
      <trkpt lat="44.81013" lon="5.9584">
        <ele>1229.3</ele>
        <time>2015-07-24T08:44:12Z</time>
      </trkpt>
      <trkpt lat="44.81014" lon="5.95833">
        <ele>1228.1</ele>
        <time>2015-07-24T08:44:17Z</time>
      </trkpt>
      <trkpt lat="44.81015" lon="5.95826">
        <ele>1227.7</ele>
        <time>2015-07-24T08:44:22Z</time>
      </trkpt>
      <trkpt lat="44.81017" lon="5.95818">
        <ele>1227.6</ele>
        <time>2015-07-24T08:44:27Z</time>
      </trkpt>
      <trkpt lat="44.81018" lon="5.9581">
        <ele>1227.5</ele>
        <time>2015-07-24T08:44:32Z</time>
      </trkpt>
      <trkpt lat="44.81019" lon="5.95802">
        <ele>1226.7</ele>
        <time>2015-07-24T08:44:37Z</time>
      </trkpt>
      <trkpt lat="44.8102" lon="5.95794">
        <ele>1226.1</ele>
        <time>2015-07-24T08:44:42Z</time>
      </trkpt>
      <trkpt lat="44.81021" lon="5.95788">
        <ele>1225.5</ele>
        <time>2015-07-24T08:44:47Z</time>
      </trkpt>
      <trkpt lat="44.8102" lon="5.9578">
        <ele>1225.5</ele>
        <time>2015-07-24T08:44:52Z</time>
      </trkpt>
      <trkpt lat="44.8102" lon="5.95776">
        <ele>1225.6</ele>
        <time>2015-07-24T08:44:57Z</time>
      </trkpt>
      <trkpt lat="44.8102" lon="5.95776">
        <ele>1226.2</ele>
        <time>2015-07-24T08:45:02Z</time>
      </trkpt>
      <trkpt lat="44.8102" lon="5.95775">
        <ele>1226.3</ele>
        <time>2015-07-24T08:45:07Z</time>
      </trkpt>
      <trkpt lat="44.81021" lon="5.95776">
        <ele>1226.4</ele>
        <time>2015-07-24T08:45:12Z</time>
      </trkpt>
      <trkpt lat="44.8102" lon="5.95776">
        <ele>1226.9</ele>
        <time>2015-07-24T08:45:17Z</time>
      </trkpt>
      <trkpt lat="44.8102" lon="5.95775">
        <ele>1226.8</ele>
        <time>2015-07-24T08:45:22Z</time>
      </trkpt>
      <trkpt lat="44.81022" lon="5.95769">
        <ele>1226.8</ele>
        <time>2015-07-24T08:45:27Z</time>
      </trkpt>
      <trkpt lat="44.81025" lon="5.95763">
        <ele>1227.5</ele>
        <time>2015-07-24T08:45:32Z</time>
      </trkpt>
      <trkpt lat="44.81027" lon="5.95758">
        <ele>1228</ele>
        <time>2015-07-24T08:45:37Z</time>
      </trkpt>
      <trkpt lat="44.8103" lon="5.95752">
        <ele>1228.6</ele>
        <time>2015-07-24T08:45:42Z</time>
      </trkpt>
      <trkpt lat="44.81032" lon="5.95747">
        <ele>1229.9</ele>
        <time>2015-07-24T08:45:47Z</time>
      </trkpt>
      <trkpt lat="44.81033" lon="5.95742">
        <ele>1231.9</ele>
        <time>2015-07-24T08:45:52Z</time>
      </trkpt>
      <trkpt lat="44.81036" lon="5.95738">
        <ele>1233.5</ele>
        <time>2015-07-24T08:45:57Z</time>
      </trkpt>
      <trkpt lat="44.81035" lon="5.95736">
        <ele>1235.2</ele>
        <time>2015-07-24T08:46:02Z</time>
      </trkpt>
      <trkpt lat="44.81035" lon="5.95736">
        <ele>1236.3</ele>
        <time>2015-07-24T08:46:07Z</time>
      </trkpt>
      <trkpt lat="44.81035" lon="5.95738">
        <ele>1236.5</ele>
        <time>2015-07-24T08:46:12Z</time>
      </trkpt>
      <trkpt lat="44.81034" lon="5.95736">
        <ele>1237.8</ele>
        <time>2015-07-24T08:46:17Z</time>
      </trkpt>
      <trkpt lat="44.81033" lon="5.95736">
        <ele>1238.2</ele>
        <time>2015-07-24T08:46:22Z</time>
      </trkpt>
      <trkpt lat="44.81033" lon="5.95737">
        <ele>1238.6</ele>
        <time>2015-07-24T08:46:27Z</time>
      </trkpt>
      <trkpt lat="44.81033" lon="5.95737">
        <ele>1238.9</ele>
        <time>2015-07-24T08:46:32Z</time>
      </trkpt>
      <trkpt lat="44.81033" lon="5.95738">
        <ele>1238.7</ele>
        <time>2015-07-24T08:46:37Z</time>
      </trkpt>
      <trkpt lat="44.81033" lon="5.95738">
        <ele>1238.3</ele>
        <time>2015-07-24T08:46:42Z</time>
      </trkpt>
      <trkpt lat="44.81034" lon="5.95737">
        <ele>1237.8</ele>
        <time>2015-07-24T08:46:47Z</time>
      </trkpt>
      <trkpt lat="44.81037" lon="5.95734">
        <ele>1237.8</ele>
        <time>2015-07-24T08:46:52Z</time>
      </trkpt>
      <trkpt lat="44.8104" lon="5.9573">
        <ele>1238.7</ele>
        <time>2015-07-24T08:46:57Z</time>
      </trkpt>
      <trkpt lat="44.81043" lon="5.95724">
        <ele>1239.3</ele>
        <time>2015-07-24T08:47:02Z</time>
      </trkpt>
      <trkpt lat="44.81045" lon="5.95718">
        <ele>1239.9</ele>
        <time>2015-07-24T08:47:07Z</time>
      </trkpt>
      <trkpt lat="44.81048" lon="5.95713">
        <ele>1240.8</ele>
        <time>2015-07-24T08:47:12Z</time>
      </trkpt>
      <trkpt lat="44.8105" lon="5.95707">
        <ele>1242</ele>
        <time>2015-07-24T08:47:17Z</time>
      </trkpt>
      <trkpt lat="44.81053" lon="5.95703">
        <ele>1243.1</ele>
        <time>2015-07-24T08:47:22Z</time>
      </trkpt>
      <trkpt lat="44.81056" lon="5.95699">
        <ele>1244.4</ele>
        <time>2015-07-24T08:47:27Z</time>
      </trkpt>
      <trkpt lat="44.81058" lon="5.95696">
        <ele>1245.4</ele>
        <time>2015-07-24T08:47:32Z</time>
      </trkpt>
      <trkpt lat="44.81059" lon="5.95695">
        <ele>1246.3</ele>
        <time>2015-07-24T08:47:37Z</time>
      </trkpt>
      <trkpt lat="44.81059" lon="5.95695">
        <ele>1246.6</ele>
        <time>2015-07-24T08:47:42Z</time>
      </trkpt>
      <trkpt lat="44.81059" lon="5.95695">
        <ele>1246.9</ele>
        <time>2015-07-24T08:47:47Z</time>
      </trkpt>
      <trkpt lat="44.81059" lon="5.95696">
        <ele>1246.4</ele>
        <time>2015-07-24T08:47:52Z</time>
      </trkpt>
      <trkpt lat="44.81059" lon="5.95695">
        <ele>1247.3</ele>
        <time>2015-07-24T08:47:57Z</time>
      </trkpt>
      <trkpt lat="44.81059" lon="5.95695">
        <ele>1249.1</ele>
        <time>2015-07-24T08:48:02Z</time>
      </trkpt>
      <trkpt lat="44.81059" lon="5.95694">
        <ele>1249.3</ele>
        <time>2015-07-24T08:48:07Z</time>
      </trkpt>
      <trkpt lat="44.81057" lon="5.95692">
        <ele>1250.4</ele>
        <time>2015-07-24T08:48:12Z</time>
      </trkpt>
      <trkpt lat="44.81057" lon="5.95692">
        <ele>1248.9</ele>
        <time>2015-07-24T08:48:17Z</time>
      </trkpt>
      <trkpt lat="44.81058" lon="5.95692">
        <ele>1247.1</ele>
        <time>2015-07-24T08:48:22Z</time>
      </trkpt>
      <trkpt lat="44.8106" lon="5.95688">
        <ele>1247.5</ele>
        <time>2015-07-24T08:48:27Z</time>
      </trkpt>
      <trkpt lat="44.81063" lon="5.95683">
        <ele>1248.4</ele>
        <time>2015-07-24T08:48:32Z</time>
      </trkpt>
      <trkpt lat="44.81066" lon="5.95678">
        <ele>1249.4</ele>
        <time>2015-07-24T08:48:37Z</time>
      </trkpt>
      <trkpt lat="44.8107" lon="5.95673">
        <ele>1250.3</ele>
        <time>2015-07-24T08:48:42Z</time>
      </trkpt>
      <trkpt lat="44.81073" lon="5.95668">
        <ele>1250.7</ele>
        <time>2015-07-24T08:48:47Z</time>
      </trkpt>
      <trkpt lat="44.81078" lon="5.95665">
        <ele>1249.4</ele>
        <time>2015-07-24T08:48:52Z</time>
      </trkpt>
      <trkpt lat="44.81082" lon="5.9566">
        <ele>1250.8</ele>
        <time>2015-07-24T08:48:57Z</time>
      </trkpt>
      <trkpt lat="44.81085" lon="5.95654">
        <ele>1251.4</ele>
        <time>2015-07-24T08:49:02Z</time>
      </trkpt>
      <trkpt lat="44.81089" lon="5.95649">
        <ele>1251.5</ele>
        <time>2015-07-24T08:49:07Z</time>
      </trkpt>
      <trkpt lat="44.81092" lon="5.95645">
        <ele>1251.8</ele>
        <time>2015-07-24T08:49:12Z</time>
      </trkpt>
      <trkpt lat="44.81095" lon="5.95641">
        <ele>1252.1</ele>
        <time>2015-07-24T08:49:17Z</time>
      </trkpt>
      <trkpt lat="44.81097" lon="5.95636">
        <ele>1253.7</ele>
        <time>2015-07-24T08:49:22Z</time>
      </trkpt>
      <trkpt lat="44.811" lon="5.95631">
        <ele>1255.2</ele>
        <time>2015-07-24T08:49:27Z</time>
      </trkpt>
      <trkpt lat="44.81101" lon="5.95628">
        <ele>1255.8</ele>
        <time>2015-07-24T08:49:32Z</time>
      </trkpt>
      <trkpt lat="44.81101" lon="5.95628">
        <ele>1256</ele>
        <time>2015-07-24T08:49:37Z</time>
      </trkpt>
      <trkpt lat="44.81099" lon="5.9563">
        <ele>1258.7</ele>
        <time>2015-07-24T08:49:42Z</time>
      </trkpt>
      <trkpt lat="44.81098" lon="5.95632">
        <ele>1258.9</ele>
        <time>2015-07-24T08:49:47Z</time>
      </trkpt>
      <trkpt lat="44.81099" lon="5.95632">
        <ele>1258.2</ele>
        <time>2015-07-24T08:49:52Z</time>
      </trkpt>
      <trkpt lat="44.81101" lon="5.95632">
        <ele>1257.4</ele>
        <time>2015-07-24T08:49:57Z</time>
      </trkpt>
      <trkpt lat="44.81101" lon="5.95631">
        <ele>1257.1</ele>
        <time>2015-07-24T08:50:02Z</time>
      </trkpt>
      <trkpt lat="44.81101" lon="5.9563">
        <ele>1256.9</ele>
        <time>2015-07-24T08:50:07Z</time>
      </trkpt>
      <trkpt lat="44.81104" lon="5.95629">
        <ele>1253.8</ele>
        <time>2015-07-24T08:50:12Z</time>
      </trkpt>
      <trkpt lat="44.81102" lon="5.9563">
        <ele>1254.2</ele>
        <time>2015-07-24T08:50:17Z</time>
      </trkpt>
      <trkpt lat="44.81102" lon="5.9563">
        <ele>1254.9</ele>
        <time>2015-07-24T08:50:22Z</time>
      </trkpt>
      <trkpt lat="44.81102" lon="5.9563">
        <ele>1255.3</ele>
        <time>2015-07-24T08:50:27Z</time>
      </trkpt>
      <trkpt lat="44.81101" lon="5.9563">
        <ele>1255.5</ele>
        <time>2015-07-24T08:50:32Z</time>
      </trkpt>
      <trkpt lat="44.81101" lon="5.95629">
        <ele>1255.9</ele>
        <time>2015-07-24T08:50:37Z</time>
      </trkpt>
      <trkpt lat="44.81102" lon="5.9563">
        <ele>1254.5</ele>
        <time>2015-07-24T08:50:42Z</time>
      </trkpt>
      <trkpt lat="44.81102" lon="5.95629">
        <ele>1256.2</ele>
        <time>2015-07-24T08:50:47Z</time>
      </trkpt>
      <trkpt lat="44.81104" lon="5.95629">
        <ele>1255.7</ele>
        <time>2015-07-24T08:50:52Z</time>
      </trkpt>
      <trkpt lat="44.81106" lon="5.9563">
        <ele>1254.6</ele>
        <time>2015-07-24T08:50:57Z</time>
      </trkpt>
      <trkpt lat="44.81107" lon="5.95629">
        <ele>1253.1</ele>
        <time>2015-07-24T08:51:02Z</time>
      </trkpt>
      <trkpt lat="44.81109" lon="5.95631">
        <ele>1253.5</ele>
        <time>2015-07-24T08:51:07Z</time>
      </trkpt>
      <trkpt lat="44.81111" lon="5.95632">
        <ele>1254.3</ele>
        <time>2015-07-24T08:51:12Z</time>
      </trkpt>
      <trkpt lat="44.81111" lon="5.95631">
        <ele>1254.4</ele>
        <time>2015-07-24T08:51:17Z</time>
      </trkpt>
      <trkpt lat="44.81112" lon="5.95626">
        <ele>1255.3</ele>
        <time>2015-07-24T08:51:22Z</time>
      </trkpt>
      <trkpt lat="44.81114" lon="5.95622">
        <ele>1256.8</ele>
        <time>2015-07-24T08:51:27Z</time>
      </trkpt>
      <trkpt lat="44.81117" lon="5.95617">
        <ele>1257.9</ele>
        <time>2015-07-24T08:51:32Z</time>
      </trkpt>
      <trkpt lat="44.81119" lon="5.95613">
        <ele>1258.9</ele>
        <time>2015-07-24T08:51:37Z</time>
      </trkpt>
      <trkpt lat="44.81122" lon="5.95608">
        <ele>1260.2</ele>
        <time>2015-07-24T08:51:42Z</time>
      </trkpt>
      <trkpt lat="44.81124" lon="5.95603">
        <ele>1262.1</ele>
        <time>2015-07-24T08:51:47Z</time>
      </trkpt>
      <trkpt lat="44.81124" lon="5.95599">
        <ele>1264.3</ele>
        <time>2015-07-24T08:51:52Z</time>
      </trkpt>
      <trkpt lat="44.81126" lon="5.95594">
        <ele>1265.7</ele>
        <time>2015-07-24T08:51:57Z</time>
      </trkpt>
      <trkpt lat="44.81128" lon="5.9559">
        <ele>1267.4</ele>
        <time>2015-07-24T08:52:02Z</time>
      </trkpt>
      <trkpt lat="44.8113" lon="5.95587">
        <ele>1268.9</ele>
        <time>2015-07-24T08:52:07Z</time>
      </trkpt>
      <trkpt lat="44.8113" lon="5.95584">
        <ele>1270.1</ele>
        <time>2015-07-24T08:52:12Z</time>
      </trkpt>
      <trkpt lat="44.81131" lon="5.9558">
        <ele>1271.2</ele>
        <time>2015-07-24T08:52:17Z</time>
      </trkpt>
      <trkpt lat="44.81132" lon="5.95577">
        <ele>1272.3</ele>
        <time>2015-07-24T08:52:22Z</time>
      </trkpt>
      <trkpt lat="44.81134" lon="5.95572">
        <ele>1273.6</ele>
        <time>2015-07-24T08:52:27Z</time>
      </trkpt>
      <trkpt lat="44.81138" lon="5.95569">
        <ele>1273.8</ele>
        <time>2015-07-24T08:52:32Z</time>
      </trkpt>
      <trkpt lat="44.81143" lon="5.95566">
        <ele>1273.7</ele>
        <time>2015-07-24T08:52:37Z</time>
      </trkpt>
      <trkpt lat="44.81146" lon="5.95563">
        <ele>1274.7</ele>
        <time>2015-07-24T08:52:42Z</time>
      </trkpt>
      <trkpt lat="44.8115" lon="5.95559">
        <ele>1274.6</ele>
        <time>2015-07-24T08:52:47Z</time>
      </trkpt>
      <trkpt lat="44.81153" lon="5.95555">
        <ele>1274.8</ele>
        <time>2015-07-24T08:52:52Z</time>
      </trkpt>
      <trkpt lat="44.81156" lon="5.95554">
        <ele>1274.7</ele>
        <time>2015-07-24T08:52:57Z</time>
      </trkpt>
      <trkpt lat="44.81156" lon="5.95553">
        <ele>1275</ele>
        <time>2015-07-24T08:53:02Z</time>
      </trkpt>
      <trkpt lat="44.81155" lon="5.95554">
        <ele>1275.2</ele>
        <time>2015-07-24T08:53:07Z</time>
      </trkpt>
      <trkpt lat="44.81155" lon="5.95554">
        <ele>1274</ele>
        <time>2015-07-24T08:53:12Z</time>
      </trkpt>
      <trkpt lat="44.81154" lon="5.95554">
        <ele>1274.2</ele>
        <time>2015-07-24T08:53:17Z</time>
      </trkpt>
      <trkpt lat="44.81154" lon="5.95554">
        <ele>1275.5</ele>
        <time>2015-07-24T08:53:22Z</time>
      </trkpt>
      <trkpt lat="44.81154" lon="5.95554">
        <ele>1275.7</ele>
        <time>2015-07-24T08:53:27Z</time>
      </trkpt>
      <trkpt lat="44.81153" lon="5.95553">
        <ele>1275.9</ele>
        <time>2015-07-24T08:53:32Z</time>
      </trkpt>
      <trkpt lat="44.81153" lon="5.95551">
        <ele>1279.5</ele>
        <time>2015-07-24T08:53:37Z</time>
      </trkpt>
      <trkpt lat="44.81152" lon="5.9555">
        <ele>1280.4</ele>
        <time>2015-07-24T08:53:42Z</time>
      </trkpt>
      <trkpt lat="44.81152" lon="5.95549">
        <ele>1282.9</ele>
        <time>2015-07-24T08:53:47Z</time>
      </trkpt>
      <trkpt lat="44.81154" lon="5.9555">
        <ele>1281.1</ele>
        <time>2015-07-24T08:53:52Z</time>
      </trkpt>
      <trkpt lat="44.81159" lon="5.9555">
        <ele>1279.8</ele>
        <time>2015-07-24T08:53:57Z</time>
      </trkpt>
      <trkpt lat="44.81166" lon="5.9555">
        <ele>1276.7</ele>
        <time>2015-07-24T08:54:02Z</time>
      </trkpt>
      <trkpt lat="44.81171" lon="5.95551">
        <ele>1277.2</ele>
        <time>2015-07-24T08:54:07Z</time>
      </trkpt>
      <trkpt lat="44.81177" lon="5.95551">
        <ele>1276.5</ele>
        <time>2015-07-24T08:54:12Z</time>
      </trkpt>
      <trkpt lat="44.81183" lon="5.95549">
        <ele>1276.6</ele>
        <time>2015-07-24T08:54:17Z</time>
      </trkpt>
      <trkpt lat="44.81188" lon="5.95549">
        <ele>1275.3</ele>
        <time>2015-07-24T08:54:22Z</time>
      </trkpt>
      <trkpt lat="44.81193" lon="5.95547">
        <ele>1275.1</ele>
        <time>2015-07-24T08:54:27Z</time>
      </trkpt>
      <trkpt lat="44.81198" lon="5.95545">
        <ele>1275.8</ele>
        <time>2015-07-24T08:54:32Z</time>
      </trkpt>
      <trkpt lat="44.81202" lon="5.95543">
        <ele>1278.2</ele>
        <time>2015-07-24T08:54:37Z</time>
      </trkpt>
      <trkpt lat="44.81206" lon="5.95541">
        <ele>1281.6</ele>
        <time>2015-07-24T08:54:42Z</time>
      </trkpt>
      <trkpt lat="44.81212" lon="5.9554">
        <ele>1280</ele>
        <time>2015-07-24T08:54:47Z</time>
      </trkpt>
      <trkpt lat="44.81217" lon="5.95539">
        <ele>1279.8</ele>
        <time>2015-07-24T08:54:52Z</time>
      </trkpt>
      <trkpt lat="44.81222" lon="5.95537">
        <ele>1280.3</ele>
        <time>2015-07-24T08:54:57Z</time>
      </trkpt>
      <trkpt lat="44.81227" lon="5.95537">
        <ele>1279.7</ele>
        <time>2015-07-24T08:55:02Z</time>
      </trkpt>
      <trkpt lat="44.81233" lon="5.95536">
        <ele>1280.3</ele>
        <time>2015-07-24T08:55:07Z</time>
      </trkpt>
      <trkpt lat="44.81237" lon="5.95535">
        <ele>1282.9</ele>
        <time>2015-07-24T08:55:12Z</time>
      </trkpt>
      <trkpt lat="44.81242" lon="5.95534">
        <ele>1283.7</ele>
        <time>2015-07-24T08:55:17Z</time>
      </trkpt>
      <trkpt lat="44.81248" lon="5.95534">
        <ele>1284.3</ele>
        <time>2015-07-24T08:55:22Z</time>
      </trkpt>
      <trkpt lat="44.81254" lon="5.95535">
        <ele>1281.3</ele>
        <time>2015-07-24T08:55:27Z</time>
      </trkpt>
      <trkpt lat="44.8126" lon="5.95532">
        <ele>1280.2</ele>
        <time>2015-07-24T08:55:32Z</time>
      </trkpt>
      <trkpt lat="44.81265" lon="5.9553">
        <ele>1280.6</ele>
        <time>2015-07-24T08:55:37Z</time>
      </trkpt>
      <trkpt lat="44.8127" lon="5.95528">
        <ele>1281</ele>
        <time>2015-07-24T08:55:42Z</time>
      </trkpt>
      <trkpt lat="44.81276" lon="5.95526">
        <ele>1279.6</ele>
        <time>2015-07-24T08:55:47Z</time>
      </trkpt>
      <trkpt lat="44.81281" lon="5.95524">
        <ele>1279.4</ele>
        <time>2015-07-24T08:55:52Z</time>
      </trkpt>
      <trkpt lat="44.81287" lon="5.95523">
        <ele>1278</ele>
        <time>2015-07-24T08:55:57Z</time>
      </trkpt>
      <trkpt lat="44.81292" lon="5.95519">
        <ele>1279.8</ele>
        <time>2015-07-24T08:56:02Z</time>
      </trkpt>
      <trkpt lat="44.81296" lon="5.95518">
        <ele>1277.8</ele>
        <time>2015-07-24T08:56:07Z</time>
      </trkpt>
      <trkpt lat="44.81299" lon="5.95518">
        <ele>1281</ele>
        <time>2015-07-24T08:56:12Z</time>
      </trkpt>
      <trkpt lat="44.81299" lon="5.95516">
        <ele>1284.6</ele>
        <time>2015-07-24T08:56:17Z</time>
      </trkpt>
      <trkpt lat="44.81299" lon="5.95516">
        <ele>1282.6</ele>
        <time>2015-07-24T08:56:22Z</time>
      </trkpt>
      <trkpt lat="44.813" lon="5.95516">
        <ele>1282.1</ele>
        <time>2015-07-24T08:56:27Z</time>
      </trkpt>
      <trkpt lat="44.81299" lon="5.95514">
        <ele>1282.8</ele>
        <time>2015-07-24T08:56:32Z</time>
      </trkpt>
      <trkpt lat="44.813" lon="5.95518">
        <ele>1277.5</ele>
        <time>2015-07-24T08:56:37Z</time>
      </trkpt>
      <trkpt lat="44.81303" lon="5.9552">
        <ele>1273.3</ele>
        <time>2015-07-24T08:56:42Z</time>
      </trkpt>
      <trkpt lat="44.81302" lon="5.95519">
        <ele>1274.8</ele>
        <time>2015-07-24T08:56:47Z</time>
      </trkpt>
      <trkpt lat="44.81299" lon="5.95516">
        <ele>1282.8</ele>
        <time>2015-07-24T08:56:52Z</time>
      </trkpt>
      <trkpt lat="44.81299" lon="5.95516">
        <ele>1284.9</ele>
        <time>2015-07-24T08:56:57Z</time>
      </trkpt>
      <trkpt lat="44.81297" lon="5.95516">
        <ele>1287.6</ele>
        <time>2015-07-24T08:57:02Z</time>
      </trkpt>
      <trkpt lat="44.81294" lon="5.95515">
        <ele>1288.5</ele>
        <time>2015-07-24T08:57:07Z</time>
      </trkpt>
      <trkpt lat="44.81297" lon="5.95514">
        <ele>1280.4</ele>
        <time>2015-07-24T08:57:12Z</time>
      </trkpt>
      <trkpt lat="44.81299" lon="5.95516">
        <ele>1276.3</ele>
        <time>2015-07-24T08:57:17Z</time>
      </trkpt>
      <trkpt lat="44.813" lon="5.95517">
        <ele>1273.6</ele>
        <time>2015-07-24T08:57:22Z</time>
      </trkpt>
      <trkpt lat="44.81298" lon="5.95515">
        <ele>1278.2</ele>
        <time>2015-07-24T08:57:27Z</time>
      </trkpt>
      <trkpt lat="44.81299" lon="5.95517">
        <ele>1278.6</ele>
        <time>2015-07-24T08:57:32Z</time>
      </trkpt>
      <trkpt lat="44.81298" lon="5.95516">
        <ele>1282.7</ele>
        <time>2015-07-24T08:57:37Z</time>
      </trkpt>
      <trkpt lat="44.81297" lon="5.95516">
        <ele>1283.8</ele>
        <time>2015-07-24T08:57:42Z</time>
      </trkpt>
      <trkpt lat="44.81297" lon="5.95515">
        <ele>1282.6</ele>
        <time>2015-07-24T08:57:47Z</time>
      </trkpt>
      <trkpt lat="44.81297" lon="5.95514">
        <ele>1284.2</ele>
        <time>2015-07-24T08:57:52Z</time>
      </trkpt>
      <trkpt lat="44.81292" lon="5.95511">
        <ele>1295.2</ele>
        <time>2015-07-24T08:57:57Z</time>
      </trkpt>
      <trkpt lat="44.81294" lon="5.9551">
        <ele>1294.6</ele>
        <time>2015-07-24T08:58:02Z</time>
      </trkpt>
      <trkpt lat="44.81297" lon="5.95511">
        <ele>1295</ele>
        <time>2015-07-24T08:58:07Z</time>
      </trkpt>
      <trkpt lat="44.81297" lon="5.95511">
        <ele>1294.7</ele>
        <time>2015-07-24T08:58:12Z</time>
      </trkpt>
      <trkpt lat="44.81296" lon="5.95511">
        <ele>1294</ele>
        <time>2015-07-24T08:58:17Z</time>
      </trkpt>
      <trkpt lat="44.81296" lon="5.95512">
        <ele>1291.3</ele>
        <time>2015-07-24T08:58:22Z</time>
      </trkpt>
      <trkpt lat="44.81296" lon="5.95512">
        <ele>1288.6</ele>
        <time>2015-07-24T08:58:27Z</time>
      </trkpt>
      <trkpt lat="44.81296" lon="5.95512">
        <ele>1287.2</ele>
        <time>2015-07-24T08:58:32Z</time>
      </trkpt>
      <trkpt lat="44.81297" lon="5.95513">
        <ele>1286.7</ele>
        <time>2015-07-24T08:58:37Z</time>
      </trkpt>
      <trkpt lat="44.81299" lon="5.95514">
        <ele>1284</ele>
        <time>2015-07-24T08:58:42Z</time>
      </trkpt>
      <trkpt lat="44.813" lon="5.95513">
        <ele>1283.9</ele>
        <time>2015-07-24T08:58:47Z</time>
      </trkpt>
      <trkpt lat="44.81301" lon="5.95511">
        <ele>1282.4</ele>
        <time>2015-07-24T08:58:52Z</time>
      </trkpt>
      <trkpt lat="44.81299" lon="5.95509">
        <ele>1280.9</ele>
        <time>2015-07-24T08:58:57Z</time>
      </trkpt>
      <trkpt lat="44.81297" lon="5.95506">
        <ele>1283.3</ele>
        <time>2015-07-24T08:59:02Z</time>
      </trkpt>
      <trkpt lat="44.81297" lon="5.95506">
        <ele>1281</ele>
        <time>2015-07-24T08:59:07Z</time>
      </trkpt>
      <trkpt lat="44.81299" lon="5.95506">
        <ele>1279.5</ele>
        <time>2015-07-24T08:59:12Z</time>
      </trkpt>
      <trkpt lat="44.813" lon="5.95506">
        <ele>1277.4</ele>
        <time>2015-07-24T08:59:17Z</time>
      </trkpt>
      <trkpt lat="44.81299" lon="5.95503">
        <ele>1275.1</ele>
        <time>2015-07-24T08:59:22Z</time>
      </trkpt>
      <trkpt lat="44.81299" lon="5.95502">
        <ele>1276.4</ele>
        <time>2015-07-24T08:59:27Z</time>
      </trkpt>
      <trkpt lat="44.81299" lon="5.95502">
        <ele>1277.1</ele>
        <time>2015-07-24T08:59:32Z</time>
      </trkpt>
      <trkpt lat="44.813" lon="5.95503">
        <ele>1274.8</ele>
        <time>2015-07-24T08:59:37Z</time>
      </trkpt>
      <trkpt lat="44.81299" lon="5.95503">
        <ele>1277.3</ele>
        <time>2015-07-24T08:59:42Z</time>
      </trkpt>
      <trkpt lat="44.81299" lon="5.95504">
        <ele>1278.9</ele>
        <time>2015-07-24T08:59:47Z</time>
      </trkpt>
      <trkpt lat="44.81299" lon="5.95505">
        <ele>1279.4</ele>
        <time>2015-07-24T08:59:52Z</time>
      </trkpt>
      <trkpt lat="44.81299" lon="5.95504">
        <ele>1280.8</ele>
        <time>2015-07-24T08:59:57Z</time>
      </trkpt>
      <trkpt lat="44.81299" lon="5.95505">
        <ele>1280.9</ele>
        <time>2015-07-24T09:00:02Z</time>
      </trkpt>
      <trkpt lat="44.81298" lon="5.95505">
        <ele>1282.2</ele>
        <time>2015-07-24T09:00:07Z</time>
      </trkpt>
      <trkpt lat="44.81297" lon="5.95507">
        <ele>1284.4</ele>
        <time>2015-07-24T09:00:12Z</time>
      </trkpt>
      <trkpt lat="44.81299" lon="5.95509">
        <ele>1285.9</ele>
        <time>2015-07-24T09:00:17Z</time>
      </trkpt>
      <trkpt lat="44.81303" lon="5.9551">
        <ele>1285</ele>
        <time>2015-07-24T09:00:22Z</time>
      </trkpt>
      <trkpt lat="44.8131" lon="5.95513">
        <ele>1281.2</ele>
        <time>2015-07-24T09:00:27Z</time>
      </trkpt>
      <trkpt lat="44.81317" lon="5.95514">
        <ele>1278.3</ele>
        <time>2015-07-24T09:00:32Z</time>
      </trkpt>
      <trkpt lat="44.81323" lon="5.95515">
        <ele>1275.4</ele>
        <time>2015-07-24T09:00:37Z</time>
      </trkpt>
      <trkpt lat="44.81329" lon="5.95515">
        <ele>1275.2</ele>
        <time>2015-07-24T09:00:42Z</time>
      </trkpt>
      <trkpt lat="44.81336" lon="5.95516">
        <ele>1275.2</ele>
        <time>2015-07-24T09:00:47Z</time>
      </trkpt>
      <trkpt lat="44.81343" lon="5.95515">
        <ele>1275.6</ele>
        <time>2015-07-24T09:00:52Z</time>
      </trkpt>
      <trkpt lat="44.8135" lon="5.95515">
        <ele>1275.4</ele>
        <time>2015-07-24T09:00:57Z</time>
      </trkpt>
      <trkpt lat="44.81357" lon="5.95515">
        <ele>1275.7</ele>
        <time>2015-07-24T09:01:02Z</time>
      </trkpt>
      <trkpt lat="44.81364" lon="5.95514">
        <ele>1275.8</ele>
        <time>2015-07-24T09:01:07Z</time>
      </trkpt>
      <trkpt lat="44.8137" lon="5.95512">
        <ele>1275</ele>
        <time>2015-07-24T09:01:12Z</time>
      </trkpt>
      <trkpt lat="44.81377" lon="5.95512">
        <ele>1274.5</ele>
        <time>2015-07-24T09:01:17Z</time>
      </trkpt>
      <trkpt lat="44.81384" lon="5.95511">
        <ele>1274.1</ele>
        <time>2015-07-24T09:01:22Z</time>
      </trkpt>
      <trkpt lat="44.8139" lon="5.95508">
        <ele>1273.6</ele>
        <time>2015-07-24T09:01:27Z</time>
      </trkpt>
      <trkpt lat="44.81397" lon="5.95505">
        <ele>1273</ele>
        <time>2015-07-24T09:01:32Z</time>
      </trkpt>
      <trkpt lat="44.81403" lon="5.95504">
        <ele>1272.5</ele>
        <time>2015-07-24T09:01:37Z</time>
      </trkpt>
      <trkpt lat="44.8141" lon="5.95502">
        <ele>1271.8</ele>
        <time>2015-07-24T09:01:42Z</time>
      </trkpt>
      <trkpt lat="44.81418" lon="5.95502">
        <ele>1271.5</ele>
        <time>2015-07-24T09:01:47Z</time>
      </trkpt>
      <trkpt lat="44.81424" lon="5.95503">
        <ele>1271.3</ele>
        <time>2015-07-24T09:01:52Z</time>
      </trkpt>
      <trkpt lat="44.81431" lon="5.95505">
        <ele>1271.6</ele>
        <time>2015-07-24T09:01:57Z</time>
      </trkpt>
      <trkpt lat="44.81433" lon="5.95509">
        <ele>1271</ele>
        <time>2015-07-24T09:02:02Z</time>
      </trkpt>
      <trkpt lat="44.81434" lon="5.9551">
        <ele>1270.8</ele>
        <time>2015-07-24T09:02:07Z</time>
      </trkpt>
      <trkpt lat="44.81435" lon="5.95509">
        <ele>1270</ele>
        <time>2015-07-24T09:02:12Z</time>
      </trkpt>
      <trkpt lat="44.81434" lon="5.95508">
        <ele>1269.9</ele>
        <time>2015-07-24T09:02:17Z</time>
      </trkpt>
      <trkpt lat="44.81434" lon="5.95507">
        <ele>1269.7</ele>
        <time>2015-07-24T09:02:22Z</time>
      </trkpt>
      <trkpt lat="44.81433" lon="5.95507">
        <ele>1269.8</ele>
        <time>2015-07-24T09:02:27Z</time>
      </trkpt>
      <trkpt lat="44.81432" lon="5.95507">
        <ele>1270.3</ele>
        <time>2015-07-24T09:02:32Z</time>
      </trkpt>
      <trkpt lat="44.81433" lon="5.95507">
        <ele>1269.8</ele>
        <time>2015-07-24T09:02:37Z</time>
      </trkpt>
      <trkpt lat="44.81432" lon="5.95506">
        <ele>1271.4</ele>
        <time>2015-07-24T09:02:42Z</time>
      </trkpt>
      <trkpt lat="44.81434" lon="5.95506">
        <ele>1271.2</ele>
        <time>2015-07-24T09:02:47Z</time>
      </trkpt>
      <trkpt lat="44.81434" lon="5.95506">
        <ele>1270.5</ele>
        <time>2015-07-24T09:02:52Z</time>
      </trkpt>
      <trkpt lat="44.81434" lon="5.95507">
        <ele>1272</ele>
        <time>2015-07-24T09:02:57Z</time>
      </trkpt>
      <trkpt lat="44.81434" lon="5.95506">
        <ele>1273.2</ele>
        <time>2015-07-24T09:03:02Z</time>
      </trkpt>
      <trkpt lat="44.81434" lon="5.95506">
        <ele>1273.6</ele>
        <time>2015-07-24T09:03:07Z</time>
      </trkpt>
      <trkpt lat="44.81434" lon="5.95506">
        <ele>1273.8</ele>
        <time>2015-07-24T09:03:12Z</time>
      </trkpt>
      <trkpt lat="44.81435" lon="5.95506">
        <ele>1272.9</ele>
        <time>2015-07-24T09:03:17Z</time>
      </trkpt>
      <trkpt lat="44.81437" lon="5.95504">
        <ele>1273.2</ele>
        <time>2015-07-24T09:03:22Z</time>
      </trkpt>
      <trkpt lat="44.81435" lon="5.95503">
        <ele>1274.7</ele>
        <time>2015-07-24T09:03:27Z</time>
      </trkpt>
      <trkpt lat="44.81435" lon="5.95503">
        <ele>1275.3</ele>
        <time>2015-07-24T09:03:32Z</time>
      </trkpt>
      <trkpt lat="44.8144" lon="5.95503">
        <ele>1274.7</ele>
        <time>2015-07-24T09:03:37Z</time>
      </trkpt>
      <trkpt lat="44.81445" lon="5.95502">
        <ele>1272.9</ele>
        <time>2015-07-24T09:03:42Z</time>
      </trkpt>
      <trkpt lat="44.8145" lon="5.95505">
        <ele>1271.9</ele>
        <time>2015-07-24T09:03:47Z</time>
      </trkpt>
      <trkpt lat="44.81451" lon="5.95512">
        <ele>1271</ele>
        <time>2015-07-24T09:03:52Z</time>
      </trkpt>
      <trkpt lat="44.81451" lon="5.95514">
        <ele>1270.7</ele>
        <time>2015-07-24T09:03:57Z</time>
      </trkpt>
      <trkpt lat="44.81454" lon="5.95521">
        <ele>1269.4</ele>
        <time>2015-07-24T09:04:02Z</time>
      </trkpt>
      <trkpt lat="44.81458" lon="5.95528">
        <ele>1268.2</ele>
        <time>2015-07-24T09:04:07Z</time>
      </trkpt>
      <trkpt lat="44.81462" lon="5.95535">
        <ele>1266.3</ele>
        <time>2015-07-24T09:04:12Z</time>
      </trkpt>
      <trkpt lat="44.81466" lon="5.95542">
        <ele>1264.7</ele>
        <time>2015-07-24T09:04:17Z</time>
      </trkpt>
      <trkpt lat="44.81469" lon="5.9555">
        <ele>1263.4</ele>
        <time>2015-07-24T09:04:22Z</time>
      </trkpt>
      <trkpt lat="44.81473" lon="5.95557">
        <ele>1262</ele>
        <time>2015-07-24T09:04:27Z</time>
      </trkpt>
      <trkpt lat="44.81477" lon="5.95566">
        <ele>1261.6</ele>
        <time>2015-07-24T09:04:32Z</time>
      </trkpt>
      <trkpt lat="44.81483" lon="5.95572">
        <ele>1260.2</ele>
        <time>2015-07-24T09:04:37Z</time>
      </trkpt>
      <trkpt lat="44.81488" lon="5.95579">
        <ele>1258.3</ele>
        <time>2015-07-24T09:04:42Z</time>
      </trkpt>
      <trkpt lat="44.81492" lon="5.95586">
        <ele>1256.9</ele>
        <time>2015-07-24T09:04:47Z</time>
      </trkpt>
      <trkpt lat="44.81496" lon="5.95594">
        <ele>1255.3</ele>
        <time>2015-07-24T09:04:52Z</time>
      </trkpt>
      <trkpt lat="44.815" lon="5.95601">
        <ele>1253.2</ele>
        <time>2015-07-24T09:04:57Z</time>
      </trkpt>
      <trkpt lat="44.81503" lon="5.9561">
        <ele>1251.6</ele>
        <time>2015-07-24T09:05:02Z</time>
      </trkpt>
      <trkpt lat="44.81507" lon="5.95617">
        <ele>1249.5</ele>
        <time>2015-07-24T09:05:07Z</time>
      </trkpt>
      <trkpt lat="44.81509" lon="5.95624">
        <ele>1247.6</ele>
        <time>2015-07-24T09:05:12Z</time>
      </trkpt>
      <trkpt lat="44.81515" lon="5.95628">
        <ele>1246.6</ele>
        <time>2015-07-24T09:05:17Z</time>
      </trkpt>
      <trkpt lat="44.81519" lon="5.95625">
        <ele>1244.8</ele>
        <time>2015-07-24T09:05:22Z</time>
      </trkpt>
      <trkpt lat="44.81525" lon="5.95621">
        <ele>1243.6</ele>
        <time>2015-07-24T09:05:27Z</time>
      </trkpt>
      <trkpt lat="44.8153" lon="5.95616">
        <ele>1241.2</ele>
        <time>2015-07-24T09:05:32Z</time>
      </trkpt>
      <trkpt lat="44.81535" lon="5.95612">
        <ele>1241</ele>
        <time>2015-07-24T09:05:37Z</time>
      </trkpt>
      <trkpt lat="44.81535" lon="5.9561">
        <ele>1239.3</ele>
        <time>2015-07-24T09:05:42Z</time>
      </trkpt>
      <trkpt lat="44.81534" lon="5.9561">
        <ele>1238.1</ele>
        <time>2015-07-24T09:05:47Z</time>
      </trkpt>
      <trkpt lat="44.81532" lon="5.9561">
        <ele>1237.3</ele>
        <time>2015-07-24T09:05:52Z</time>
      </trkpt>
      <trkpt lat="44.81524" lon="5.9561">
        <ele>1244.5</ele>
        <time>2015-07-24T09:05:57Z</time>
      </trkpt>
      <trkpt lat="44.8152" lon="5.95609">
        <ele>1247.1</ele>
        <time>2015-07-24T09:06:02Z</time>
      </trkpt>
      <trkpt lat="44.81519" lon="5.9561">
        <ele>1247.9</ele>
        <time>2015-07-24T09:06:07Z</time>
      </trkpt>
      <trkpt lat="44.81518" lon="5.9561">
        <ele>1250.2</ele>
        <time>2015-07-24T09:06:12Z</time>
      </trkpt>
      <trkpt lat="44.81518" lon="5.95606">
        <ele>1254.7</ele>
        <time>2015-07-24T09:06:17Z</time>
      </trkpt>
      <trkpt lat="44.81522" lon="5.95606">
        <ele>1247.8</ele>
        <time>2015-07-24T09:06:22Z</time>
      </trkpt>
      <trkpt lat="44.81522" lon="5.95609">
        <ele>1246.3</ele>
        <time>2015-07-24T09:06:27Z</time>
      </trkpt>
      <trkpt lat="44.81522" lon="5.9561">
        <ele>1242.5</ele>
        <time>2015-07-24T09:06:32Z</time>
      </trkpt>
      <trkpt lat="44.81521" lon="5.9561">
        <ele>1242.9</ele>
        <time>2015-07-24T09:06:37Z</time>
      </trkpt>
      <trkpt lat="44.81521" lon="5.95611">
        <ele>1242.9</ele>
        <time>2015-07-24T09:06:42Z</time>
      </trkpt>
      <trkpt lat="44.81522" lon="5.9561">
        <ele>1238.4</ele>
        <time>2015-07-24T09:06:47Z</time>
      </trkpt>
      <trkpt lat="44.81523" lon="5.95609">
        <ele>1237.9</ele>
        <time>2015-07-24T09:06:52Z</time>
      </trkpt>
      <trkpt lat="44.81523" lon="5.95609">
        <ele>1240.6</ele>
        <time>2015-07-24T09:06:57Z</time>
      </trkpt>
      <trkpt lat="44.81522" lon="5.95607">
        <ele>1245.3</ele>
        <time>2015-07-24T09:07:02Z</time>
      </trkpt>
      <trkpt lat="44.81522" lon="5.95606">
        <ele>1246.9</ele>
        <time>2015-07-24T09:07:07Z</time>
      </trkpt>
      <trkpt lat="44.81521" lon="5.95604">
        <ele>1253.8</ele>
        <time>2015-07-24T09:07:12Z</time>
      </trkpt>
      <trkpt lat="44.81517" lon="5.956">
        <ele>1260</ele>
        <time>2015-07-24T09:07:17Z</time>
      </trkpt>
      <trkpt lat="44.81513" lon="5.95597">
        <ele>1264</ele>
        <time>2015-07-24T09:07:22Z</time>
      </trkpt>
      <trkpt lat="44.81515" lon="5.95599">
        <ele>1263.2</ele>
        <time>2015-07-24T09:07:27Z</time>
      </trkpt>
      <trkpt lat="44.81518" lon="5.95606">
        <ele>1260.3</ele>
        <time>2015-07-24T09:07:32Z</time>
      </trkpt>
      <trkpt lat="44.81517" lon="5.95611">
        <ele>1255.3</ele>
        <time>2015-07-24T09:07:37Z</time>
      </trkpt>
      <trkpt lat="44.81515" lon="5.95613">
        <ele>1254.7</ele>
        <time>2015-07-24T09:07:42Z</time>
      </trkpt>
      <trkpt lat="44.81512" lon="5.95615">
        <ele>1254.8</ele>
        <time>2015-07-24T09:07:47Z</time>
      </trkpt>
      <trkpt lat="44.8151" lon="5.95617">
        <ele>1253.9</ele>
        <time>2015-07-24T09:07:52Z</time>
      </trkpt>
      <trkpt lat="44.81509" lon="5.95621">
        <ele>1252.6</ele>
        <time>2015-07-24T09:07:57Z</time>
      </trkpt>
      <trkpt lat="44.8151" lon="5.95622">
        <ele>1251.8</ele>
        <time>2015-07-24T09:08:02Z</time>
      </trkpt>
      <trkpt lat="44.81507" lon="5.9562">
        <ele>1251.7</ele>
        <time>2015-07-24T09:08:07Z</time>
      </trkpt>
      <trkpt lat="44.81506" lon="5.95613">
        <ele>1250.7</ele>
        <time>2015-07-24T09:08:12Z</time>
      </trkpt>
      <trkpt lat="44.81505" lon="5.95606">
        <ele>1248.3</ele>
        <time>2015-07-24T09:08:17Z</time>
      </trkpt>
      <trkpt lat="44.81505" lon="5.95601">
        <ele>1248.1</ele>
        <time>2015-07-24T09:08:22Z</time>
      </trkpt>
      <trkpt lat="44.81505" lon="5.95603">
        <ele>1246.4</ele>
        <time>2015-07-24T09:08:27Z</time>
      </trkpt>
      <trkpt lat="44.81509" lon="5.9561">
        <ele>1245.9</ele>
        <time>2015-07-24T09:08:32Z</time>
      </trkpt>
      <trkpt lat="44.81511" lon="5.95617">
        <ele>1245.1</ele>
        <time>2015-07-24T09:08:37Z</time>
      </trkpt>
      <trkpt lat="44.81515" lon="5.95622">
        <ele>1244.6</ele>
        <time>2015-07-24T09:08:42Z</time>
      </trkpt>
      <trkpt lat="44.8152" lon="5.9562">
        <ele>1243.8</ele>
        <time>2015-07-24T09:08:47Z</time>
      </trkpt>
      <trkpt lat="44.81525" lon="5.95618">
        <ele>1241.9</ele>
        <time>2015-07-24T09:08:52Z</time>
      </trkpt>
      <trkpt lat="44.81526" lon="5.95612">
        <ele>1240.6</ele>
        <time>2015-07-24T09:08:57Z</time>
      </trkpt>
      <trkpt lat="44.81524" lon="5.95612">
        <ele>1240.1</ele>
        <time>2015-07-24T09:09:02Z</time>
      </trkpt>
      <trkpt lat="44.81523" lon="5.95612">
        <ele>1240.5</ele>
        <time>2015-07-24T09:09:07Z</time>
      </trkpt>
      <trkpt lat="44.81522" lon="5.95612">
        <ele>1239.5</ele>
        <time>2015-07-24T09:09:12Z</time>
      </trkpt>
      <trkpt lat="44.81522" lon="5.95615">
        <ele>1240.4</ele>
        <time>2015-07-24T09:09:17Z</time>
      </trkpt>
      <trkpt lat="44.8152" lon="5.95619">
        <ele>1240.3</ele>
        <time>2015-07-24T09:09:22Z</time>
      </trkpt>
      <trkpt lat="44.81524" lon="5.95617">
        <ele>1239.5</ele>
        <time>2015-07-24T09:09:27Z</time>
      </trkpt>
      <trkpt lat="44.81527" lon="5.95615">
        <ele>1238.3</ele>
        <time>2015-07-24T09:09:32Z</time>
      </trkpt>
      <trkpt lat="44.81528" lon="5.95614">
        <ele>1238.6</ele>
        <time>2015-07-24T09:09:37Z</time>
      </trkpt>
      <trkpt lat="44.81528" lon="5.95612">
        <ele>1237.9</ele>
        <time>2015-07-24T09:09:42Z</time>
      </trkpt>
      <trkpt lat="44.81526" lon="5.95613">
        <ele>1240.5</ele>
        <time>2015-07-24T09:09:47Z</time>
      </trkpt>
      <trkpt lat="44.81526" lon="5.95613">
        <ele>1241.1</ele>
        <time>2015-07-24T09:09:54Z</time>
      </trkpt>
      <trkpt lat="44.81522" lon="5.95613">
        <ele>1246.5</ele>
        <time>2015-07-24T09:09:59Z</time>
      </trkpt>
      <trkpt lat="44.81522" lon="5.95615">
        <ele>1245.8</ele>
        <time>2015-07-24T09:10:04Z</time>
      </trkpt>
      <trkpt lat="44.81519" lon="5.95613">
        <ele>1251</ele>
        <time>2015-07-24T09:10:09Z</time>
      </trkpt>
      <trkpt lat="44.8152" lon="5.95613">
        <ele>1251.7</ele>
        <time>2015-07-24T09:10:14Z</time>
      </trkpt>
      <trkpt lat="44.81523" lon="5.95614">
        <ele>1248.7</ele>
        <time>2015-07-24T09:10:19Z</time>
      </trkpt>
      <trkpt lat="44.81523" lon="5.95613">
        <ele>1247.3</ele>
        <time>2015-07-24T09:10:24Z</time>
      </trkpt>
      <trkpt lat="44.81522" lon="5.95614">
        <ele>1246.6</ele>
        <time>2015-07-24T09:10:29Z</time>
      </trkpt>
      <trkpt lat="44.81522" lon="5.95613">
        <ele>1245.9</ele>
        <time>2015-07-24T09:10:34Z</time>
      </trkpt>
      <trkpt lat="44.81522" lon="5.95612">
        <ele>1243.6</ele>
        <time>2015-07-24T09:10:39Z</time>
      </trkpt>
      <trkpt lat="44.81521" lon="5.95613">
        <ele>1242.7</ele>
        <time>2015-07-24T09:10:44Z</time>
      </trkpt>
      <trkpt lat="44.81522" lon="5.95613">
        <ele>1242.4</ele>
        <time>2015-07-24T09:10:49Z</time>
      </trkpt>
      <trkpt lat="44.81525" lon="5.95613">
        <ele>1241.5</ele>
        <time>2015-07-24T09:10:54Z</time>
      </trkpt>
      <trkpt lat="44.81525" lon="5.95612">
        <ele>1241.8</ele>
        <time>2015-07-24T09:10:59Z</time>
      </trkpt>
      <trkpt lat="44.81525" lon="5.9561">
        <ele>1240.3</ele>
        <time>2015-07-24T09:11:04Z</time>
      </trkpt>
      <trkpt lat="44.81525" lon="5.95611">
        <ele>1241.4</ele>
        <time>2015-07-24T09:11:09Z</time>
      </trkpt>
      <trkpt lat="44.81528" lon="5.95612">
        <ele>1240.5</ele>
        <time>2015-07-24T09:11:14Z</time>
      </trkpt>
      <trkpt lat="44.81529" lon="5.95612">
        <ele>1239.9</ele>
        <time>2015-07-24T09:11:19Z</time>
      </trkpt>
      <trkpt lat="44.81529" lon="5.95612">
        <ele>1240.1</ele>
        <time>2015-07-24T09:11:24Z</time>
      </trkpt>
      <trkpt lat="44.81531" lon="5.95612">
        <ele>1239.4</ele>
        <time>2015-07-24T09:11:29Z</time>
      </trkpt>
      <trkpt lat="44.81534" lon="5.9561">
        <ele>1239.1</ele>
        <time>2015-07-24T09:11:34Z</time>
      </trkpt>
      <trkpt lat="44.81538" lon="5.95606">
        <ele>1239.8</ele>
        <time>2015-07-24T09:11:39Z</time>
      </trkpt>
      <trkpt lat="44.81545" lon="5.95604">
        <ele>1240.3</ele>
        <time>2015-07-24T09:11:44Z</time>
      </trkpt>
      <trkpt lat="44.81551" lon="5.95601">
        <ele>1240</ele>
        <time>2015-07-24T09:11:49Z</time>
      </trkpt>
      <trkpt lat="44.81557" lon="5.95599">
        <ele>1239.7</ele>
        <time>2015-07-24T09:11:54Z</time>
      </trkpt>
      <trkpt lat="44.81562" lon="5.95597">
        <ele>1239.8</ele>
        <time>2015-07-24T09:11:59Z</time>
      </trkpt>
      <trkpt lat="44.81564" lon="5.95591">
        <ele>1246.1</ele>
        <time>2015-07-24T09:12:04Z</time>
      </trkpt>
      <trkpt lat="44.81567" lon="5.95589">
        <ele>1245.1</ele>
        <time>2015-07-24T09:12:09Z</time>
      </trkpt>
      <trkpt lat="44.81571" lon="5.95582">
        <ele>1241.7</ele>
        <time>2015-07-24T09:12:14Z</time>
      </trkpt>
      <trkpt lat="44.8157" lon="5.95577">
        <ele>1243.1</ele>
        <time>2015-07-24T09:12:19Z</time>
      </trkpt>
      <trkpt lat="44.8157" lon="5.95571">
        <ele>1239.8</ele>
        <time>2015-07-24T09:12:24Z</time>
      </trkpt>
      <trkpt lat="44.81568" lon="5.95561">
        <ele>1235.1</ele>
        <time>2015-07-24T09:12:29Z</time>
      </trkpt>
      <trkpt lat="44.81564" lon="5.9555">
        <ele>1236.5</ele>
        <time>2015-07-24T09:12:34Z</time>
      </trkpt>
      <trkpt lat="44.81559" lon="5.95541">
        <ele>1237.4</ele>
        <time>2015-07-24T09:12:39Z</time>
      </trkpt>
      <trkpt lat="44.81558" lon="5.95533">
        <ele>1236.4</ele>
        <time>2015-07-24T09:12:44Z</time>
      </trkpt>
      <trkpt lat="44.81561" lon="5.95526">
        <ele>1232.7</ele>
        <time>2015-07-24T09:12:49Z</time>
      </trkpt>
      <trkpt lat="44.81567" lon="5.95521">
        <ele>1225.9</ele>
        <time>2015-07-24T09:12:54Z</time>
      </trkpt>
      <trkpt lat="44.81574" lon="5.95517">
        <ele>1218.9</ele>
        <time>2015-07-24T09:12:59Z</time>
      </trkpt>
      <trkpt lat="44.81579" lon="5.95509">
        <ele>1216.3</ele>
        <time>2015-07-24T09:13:04Z</time>
      </trkpt>
      <trkpt lat="44.81582" lon="5.95501">
        <ele>1217</ele>
        <time>2015-07-24T09:13:09Z</time>
      </trkpt>
      <trkpt lat="44.81587" lon="5.95492">
        <ele>1216.9</ele>
        <time>2015-07-24T09:13:14Z</time>
      </trkpt>
      <trkpt lat="44.81591" lon="5.95485">
        <ele>1215</ele>
        <time>2015-07-24T09:13:19Z</time>
      </trkpt>
      <trkpt lat="44.81596" lon="5.95478">
        <ele>1208.4</ele>
        <time>2015-07-24T09:13:24Z</time>
      </trkpt>
      <trkpt lat="44.816" lon="5.95472">
        <ele>1203.9</ele>
        <time>2015-07-24T09:13:29Z</time>
      </trkpt>
      <trkpt lat="44.81606" lon="5.95463">
        <ele>1200.1</ele>
        <time>2015-07-24T09:13:34Z</time>
      </trkpt>
      <trkpt lat="44.81609" lon="5.95456">
        <ele>1197.1</ele>
        <time>2015-07-24T09:13:39Z</time>
      </trkpt>
      <trkpt lat="44.81612" lon="5.95446">
        <ele>1195.2</ele>
        <time>2015-07-24T09:13:44Z</time>
      </trkpt>
      <trkpt lat="44.81617" lon="5.95436">
        <ele>1193.9</ele>
        <time>2015-07-24T09:13:49Z</time>
      </trkpt>
      <trkpt lat="44.8162" lon="5.95427">
        <ele>1191.8</ele>
        <time>2015-07-24T09:13:54Z</time>
      </trkpt>
      <trkpt lat="44.81624" lon="5.95421">
        <ele>1192.9</ele>
        <time>2015-07-24T09:13:59Z</time>
      </trkpt>
      <trkpt lat="44.81621" lon="5.95418">
        <ele>1194.7</ele>
        <time>2015-07-24T09:14:04Z</time>
      </trkpt>
      <trkpt lat="44.8162" lon="5.9542">
        <ele>1194.9</ele>
        <time>2015-07-24T09:14:09Z</time>
      </trkpt>
      <trkpt lat="44.81623" lon="5.95415">
        <ele>1199.2</ele>
        <time>2015-07-24T09:14:14Z</time>
      </trkpt>
      <trkpt lat="44.81624" lon="5.95403">
        <ele>1200</ele>
        <time>2015-07-24T09:14:19Z</time>
      </trkpt>
      <trkpt lat="44.81628" lon="5.95394">
        <ele>1198.5</ele>
        <time>2015-07-24T09:14:24Z</time>
      </trkpt>
      <trkpt lat="44.8163" lon="5.95384">
        <ele>1197.8</ele>
        <time>2015-07-24T09:14:29Z</time>
      </trkpt>
      <trkpt lat="44.81631" lon="5.95375">
        <ele>1196.3</ele>
        <time>2015-07-24T09:14:34Z</time>
      </trkpt>
      <trkpt lat="44.81633" lon="5.95364">
        <ele>1194.5</ele>
        <time>2015-07-24T09:14:39Z</time>
      </trkpt>
      <trkpt lat="44.81633" lon="5.95354">
        <ele>1192.9</ele>
        <time>2015-07-24T09:14:44Z</time>
      </trkpt>
      <trkpt lat="44.81635" lon="5.95344">
        <ele>1191.5</ele>
        <time>2015-07-24T09:14:49Z</time>
      </trkpt>
      <trkpt lat="44.8163" lon="5.95335">
        <ele>1186.3</ele>
        <time>2015-07-24T09:14:54Z</time>
      </trkpt>
      <trkpt lat="44.81623" lon="5.95335">
        <ele>1184.8</ele>
        <time>2015-07-24T09:14:59Z</time>
      </trkpt>
      <trkpt lat="44.81616" lon="5.95333">
        <ele>1180.4</ele>
        <time>2015-07-24T09:15:04Z</time>
      </trkpt>
      <trkpt lat="44.81611" lon="5.9533">
        <ele>1175.7</ele>
        <time>2015-07-24T09:15:09Z</time>
      </trkpt>
      <trkpt lat="44.81607" lon="5.95325">
        <ele>1172</ele>
        <time>2015-07-24T09:15:14Z</time>
      </trkpt>
      <trkpt lat="44.81603" lon="5.95318">
        <ele>1169.9</ele>
        <time>2015-07-24T09:15:19Z</time>
      </trkpt>
      <trkpt lat="44.81598" lon="5.95313">
        <ele>1168.7</ele>
        <time>2015-07-24T09:15:24Z</time>
      </trkpt>
      <trkpt lat="44.81592" lon="5.95306">
        <ele>1170</ele>
        <time>2015-07-24T09:15:29Z</time>
      </trkpt>
      <trkpt lat="44.81594" lon="5.95304">
        <ele>1169</ele>
        <time>2015-07-24T09:15:34Z</time>
      </trkpt>
      <trkpt lat="44.81598" lon="5.9531">
        <ele>1169</ele>
        <time>2015-07-24T09:15:39Z</time>
      </trkpt>
      <trkpt lat="44.81603" lon="5.95315">
        <ele>1170</ele>
        <time>2015-07-24T09:15:44Z</time>
      </trkpt>
      <trkpt lat="44.81607" lon="5.95313">
        <ele>1177.9</ele>
        <time>2015-07-24T09:15:49Z</time>
      </trkpt>
      <trkpt lat="44.8161" lon="5.9531">
        <ele>1179.6</ele>
        <time>2015-07-24T09:15:54Z</time>
      </trkpt>
      <trkpt lat="44.81609" lon="5.95304">
        <ele>1176.3</ele>
        <time>2015-07-24T09:15:59Z</time>
      </trkpt>
      <trkpt lat="44.81605" lon="5.95299">
        <ele>1173.3</ele>
        <time>2015-07-24T09:16:04Z</time>
      </trkpt>
      <trkpt lat="44.81603" lon="5.95292">
        <ele>1171.1</ele>
        <time>2015-07-24T09:16:09Z</time>
      </trkpt>
      <trkpt lat="44.81601" lon="5.95286">
        <ele>1170</ele>
        <time>2015-07-24T09:16:14Z</time>
      </trkpt>
      <trkpt lat="44.816" lon="5.95279">
        <ele>1169.8</ele>
        <time>2015-07-24T09:16:19Z</time>
      </trkpt>
      <trkpt lat="44.81593" lon="5.95272">
        <ele>1171.3</ele>
        <time>2015-07-24T09:16:24Z</time>
      </trkpt>
      <trkpt lat="44.81588" lon="5.95266">
        <ele>1171.3</ele>
        <time>2015-07-24T09:16:29Z</time>
      </trkpt>
      <trkpt lat="44.81584" lon="5.9526">
        <ele>1170.4</ele>
        <time>2015-07-24T09:16:34Z</time>
      </trkpt>
      <trkpt lat="44.81579" lon="5.95252">
        <ele>1168.8</ele>
        <time>2015-07-24T09:16:39Z</time>
      </trkpt>
      <trkpt lat="44.81575" lon="5.95244">
        <ele>1166.7</ele>
        <time>2015-07-24T09:16:44Z</time>
      </trkpt>
      <trkpt lat="44.81573" lon="5.95239">
        <ele>1164.9</ele>
        <time>2015-07-24T09:16:49Z</time>
      </trkpt>
      <trkpt lat="44.81569" lon="5.95232">
        <ele>1162.4</ele>
        <time>2015-07-24T09:16:54Z</time>
      </trkpt>
      <trkpt lat="44.81564" lon="5.95225">
        <ele>1159.4</ele>
        <time>2015-07-24T09:16:59Z</time>
      </trkpt>
      <trkpt lat="44.81559" lon="5.95217">
        <ele>1157.7</ele>
        <time>2015-07-24T09:17:04Z</time>
      </trkpt>
      <trkpt lat="44.81553" lon="5.95212">
        <ele>1155</ele>
        <time>2015-07-24T09:17:09Z</time>
      </trkpt>
      <trkpt lat="44.81548" lon="5.952">
        <ele>1154.9</ele>
        <time>2015-07-24T09:17:14Z</time>
      </trkpt>
      <trkpt lat="44.81544" lon="5.95194">
        <ele>1153.2</ele>
        <time>2015-07-24T09:17:19Z</time>
      </trkpt>
      <trkpt lat="44.81538" lon="5.95191">
        <ele>1152.1</ele>
        <time>2015-07-24T09:17:24Z</time>
      </trkpt>
      <trkpt lat="44.81531" lon="5.95185">
        <ele>1150.6</ele>
        <time>2015-07-24T09:17:29Z</time>
      </trkpt>
      <trkpt lat="44.81525" lon="5.9518">
        <ele>1148.8</ele>
        <time>2015-07-24T09:17:34Z</time>
      </trkpt>
      <trkpt lat="44.81519" lon="5.95174">
        <ele>1147.3</ele>
        <time>2015-07-24T09:17:39Z</time>
      </trkpt>
      <trkpt lat="44.81513" lon="5.9517">
        <ele>1144.8</ele>
        <time>2015-07-24T09:17:44Z</time>
      </trkpt>
      <trkpt lat="44.81507" lon="5.95166">
        <ele>1143.1</ele>
        <time>2015-07-24T09:17:49Z</time>
      </trkpt>
      <trkpt lat="44.81504" lon="5.9516">
        <ele>1142</ele>
        <time>2015-07-24T09:17:54Z</time>
      </trkpt>
      <trkpt lat="44.81508" lon="5.95162">
        <ele>1140.2</ele>
        <time>2015-07-24T09:17:59Z</time>
      </trkpt>
      <trkpt lat="44.81511" lon="5.95166">
        <ele>1137.4</ele>
        <time>2015-07-24T09:18:04Z</time>
      </trkpt>
      <trkpt lat="44.81515" lon="5.95167">
        <ele>1135.8</ele>
        <time>2015-07-24T09:18:09Z</time>
      </trkpt>
      <trkpt lat="44.81521" lon="5.95168">
        <ele>1135.5</ele>
        <time>2015-07-24T09:18:14Z</time>
      </trkpt>
      <trkpt lat="44.81525" lon="5.95169">
        <ele>1133.8</ele>
        <time>2015-07-24T09:18:19Z</time>
      </trkpt>
      <trkpt lat="44.81529" lon="5.95173">
        <ele>1131.8</ele>
        <time>2015-07-24T09:18:24Z</time>
      </trkpt>
      <trkpt lat="44.81534" lon="5.95175">
        <ele>1130.6</ele>
        <time>2015-07-24T09:18:29Z</time>
      </trkpt>
      <trkpt lat="44.81539" lon="5.95171">
        <ele>1132.5</ele>
        <time>2015-07-24T09:18:34Z</time>
      </trkpt>
      <trkpt lat="44.81541" lon="5.95164">
        <ele>1132.8</ele>
        <time>2015-07-24T09:18:39Z</time>
      </trkpt>
      <trkpt lat="44.81539" lon="5.95159">
        <ele>1130.7</ele>
        <time>2015-07-24T09:18:44Z</time>
      </trkpt>
      <trkpt lat="44.81536" lon="5.95151">
        <ele>1129.3</ele>
        <time>2015-07-24T09:18:49Z</time>
      </trkpt>
      <trkpt lat="44.81532" lon="5.95145">
        <ele>1127.7</ele>
        <time>2015-07-24T09:18:54Z</time>
      </trkpt>
      <trkpt lat="44.81527" lon="5.95137">
        <ele>1124.5</ele>
        <time>2015-07-24T09:18:59Z</time>
      </trkpt>
      <trkpt lat="44.81522" lon="5.95132">
        <ele>1122.1</ele>
        <time>2015-07-24T09:19:04Z</time>
      </trkpt>
      <trkpt lat="44.8152" lon="5.95126">
        <ele>1121.1</ele>
        <time>2015-07-24T09:19:09Z</time>
      </trkpt>
      <trkpt lat="44.81517" lon="5.95122">
        <ele>1119.4</ele>
        <time>2015-07-24T09:19:14Z</time>
      </trkpt>
      <trkpt lat="44.81513" lon="5.95116">
        <ele>1117.2</ele>
        <time>2015-07-24T09:19:19Z</time>
      </trkpt>
      <trkpt lat="44.81516" lon="5.95112">
        <ele>1116</ele>
        <time>2015-07-24T09:19:24Z</time>
      </trkpt>
      <trkpt lat="44.8152" lon="5.95115">
        <ele>1113.2</ele>
        <time>2015-07-24T09:19:29Z</time>
      </trkpt>
      <trkpt lat="44.81522" lon="5.95119">
        <ele>1111.3</ele>
        <time>2015-07-24T09:19:34Z</time>
      </trkpt>
      <trkpt lat="44.81526" lon="5.95122">
        <ele>1109.4</ele>
        <time>2015-07-24T09:19:39Z</time>
      </trkpt>
      <trkpt lat="44.81531" lon="5.95119">
        <ele>1108.4</ele>
        <time>2015-07-24T09:19:44Z</time>
      </trkpt>
      <trkpt lat="44.81535" lon="5.95119">
        <ele>1106.7</ele>
        <time>2015-07-24T09:19:49Z</time>
      </trkpt>
      <trkpt lat="44.81539" lon="5.9512">
        <ele>1105</ele>
        <time>2015-07-24T09:19:54Z</time>
      </trkpt>
      <trkpt lat="44.81545" lon="5.95122">
        <ele>1102</ele>
        <time>2015-07-24T09:19:59Z</time>
      </trkpt>
      <trkpt lat="44.81548" lon="5.95124">
        <ele>1100</ele>
        <time>2015-07-24T09:20:04Z</time>
      </trkpt>
      <trkpt lat="44.81553" lon="5.95126">
        <ele>1098.5</ele>
        <time>2015-07-24T09:20:09Z</time>
      </trkpt>
      <trkpt lat="44.81559" lon="5.95126">
        <ele>1097.7</ele>
        <time>2015-07-24T09:20:14Z</time>
      </trkpt>
      <trkpt lat="44.81565" lon="5.95128">
        <ele>1097.1</ele>
        <time>2015-07-24T09:20:19Z</time>
      </trkpt>
      <trkpt lat="44.81569" lon="5.95131">
        <ele>1093.7</ele>
        <time>2015-07-24T09:20:24Z</time>
      </trkpt>
      <trkpt lat="44.81577" lon="5.95131">
        <ele>1091</ele>
        <time>2015-07-24T09:20:29Z</time>
      </trkpt>
      <trkpt lat="44.81583" lon="5.95133">
        <ele>1087.6</ele>
        <time>2015-07-24T09:20:34Z</time>
      </trkpt>
      <trkpt lat="44.81588" lon="5.95132">
        <ele>1088.3</ele>
        <time>2015-07-24T09:20:39Z</time>
      </trkpt>
      <trkpt lat="44.81593" lon="5.95133">
        <ele>1086</ele>
        <time>2015-07-24T09:20:44Z</time>
      </trkpt>
      <trkpt lat="44.81601" lon="5.95133">
        <ele>1086.6</ele>
        <time>2015-07-24T09:20:49Z</time>
      </trkpt>
      <trkpt lat="44.81607" lon="5.9513">
        <ele>1090.5</ele>
        <time>2015-07-24T09:20:54Z</time>
      </trkpt>
      <trkpt lat="44.8161" lon="5.95132">
        <ele>1089.7</ele>
        <time>2015-07-24T09:20:59Z</time>
      </trkpt>
      <trkpt lat="44.81616" lon="5.9513">
        <ele>1089.9</ele>
        <time>2015-07-24T09:21:04Z</time>
      </trkpt>
      <trkpt lat="44.81624" lon="5.95129">
        <ele>1088.5</ele>
        <time>2015-07-24T09:21:09Z</time>
      </trkpt>
      <trkpt lat="44.81629" lon="5.95126">
        <ele>1088</ele>
        <time>2015-07-24T09:21:14Z</time>
      </trkpt>
      <trkpt lat="44.81638" lon="5.95124">
        <ele>1084.6</ele>
        <time>2015-07-24T09:21:19Z</time>
      </trkpt>
      <trkpt lat="44.81644" lon="5.95119">
        <ele>1081.1</ele>
        <time>2015-07-24T09:21:24Z</time>
      </trkpt>
      <trkpt lat="44.81649" lon="5.95116">
        <ele>1078.3</ele>
        <time>2015-07-24T09:21:29Z</time>
      </trkpt>
      <trkpt lat="44.81652" lon="5.95112">
        <ele>1073.8</ele>
        <time>2015-07-24T09:21:34Z</time>
      </trkpt>
      <trkpt lat="44.81656" lon="5.95106">
        <ele>1071</ele>
        <time>2015-07-24T09:21:39Z</time>
      </trkpt>
      <trkpt lat="44.81659" lon="5.95104">
        <ele>1066.5</ele>
        <time>2015-07-24T09:21:44Z</time>
      </trkpt>
      <trkpt lat="44.81662" lon="5.951">
        <ele>1062.7</ele>
        <time>2015-07-24T09:21:49Z</time>
      </trkpt>
      <trkpt lat="44.81666" lon="5.95098">
        <ele>1061.1</ele>
        <time>2015-07-24T09:21:54Z</time>
      </trkpt>
      <trkpt lat="44.81669" lon="5.95094">
        <ele>1058.5</ele>
        <time>2015-07-24T09:21:59Z</time>
      </trkpt>
      <trkpt lat="44.81676" lon="5.95091">
        <ele>1056.8</ele>
        <time>2015-07-24T09:22:04Z</time>
      </trkpt>
      <trkpt lat="44.81681" lon="5.95087">
        <ele>1054.2</ele>
        <time>2015-07-24T09:22:09Z</time>
      </trkpt>
      <trkpt lat="44.81685" lon="5.95085">
        <ele>1051.4</ele>
        <time>2015-07-24T09:22:14Z</time>
      </trkpt>
      <trkpt lat="44.81691" lon="5.95086">
        <ele>1048.5</ele>
        <time>2015-07-24T09:22:19Z</time>
      </trkpt>
      <trkpt lat="44.81698" lon="5.95091">
        <ele>1045.1</ele>
        <time>2015-07-24T09:22:24Z</time>
      </trkpt>
      <trkpt lat="44.81703" lon="5.95096">
        <ele>1042.1</ele>
        <time>2015-07-24T09:22:29Z</time>
      </trkpt>
      <trkpt lat="44.81707" lon="5.95098">
        <ele>1039.8</ele>
        <time>2015-07-24T09:22:34Z</time>
      </trkpt>
      <trkpt lat="44.81715" lon="5.95102">
        <ele>1038.8</ele>
        <time>2015-07-24T09:22:39Z</time>
      </trkpt>
      <trkpt lat="44.81721" lon="5.95105">
        <ele>1036.8</ele>
        <time>2015-07-24T09:22:44Z</time>
      </trkpt>
      <trkpt lat="44.81727" lon="5.95108">
        <ele>1035.1</ele>
        <time>2015-07-24T09:22:49Z</time>
      </trkpt>
      <trkpt lat="44.81733" lon="5.95107">
        <ele>1036.8</ele>
        <time>2015-07-24T09:22:54Z</time>
      </trkpt>
      <trkpt lat="44.8174" lon="5.95108">
        <ele>1035.7</ele>
        <time>2015-07-24T09:22:59Z</time>
      </trkpt>
      <trkpt lat="44.81747" lon="5.95108">
        <ele>1038.2</ele>
        <time>2015-07-24T09:23:04Z</time>
      </trkpt>
      <trkpt lat="44.81749" lon="5.95109">
        <ele>1036.8</ele>
        <time>2015-07-24T09:23:09Z</time>
      </trkpt>
      <trkpt lat="44.81756" lon="5.9511">
        <ele>1033.6</ele>
        <time>2015-07-24T09:23:14Z</time>
      </trkpt>
      <trkpt lat="44.81763" lon="5.95113">
        <ele>1029.1</ele>
        <time>2015-07-24T09:23:19Z</time>
      </trkpt>
      <trkpt lat="44.81768" lon="5.95114">
        <ele>1026.3</ele>
        <time>2015-07-24T09:23:24Z</time>
      </trkpt>
      <trkpt lat="44.81772" lon="5.95121">
        <ele>1020.6</ele>
        <time>2015-07-24T09:23:29Z</time>
      </trkpt>
      <trkpt lat="44.81777" lon="5.95127">
        <ele>1018.4</ele>
        <time>2015-07-24T09:23:34Z</time>
      </trkpt>
      <trkpt lat="44.81783" lon="5.95131">
        <ele>1017.3</ele>
        <time>2015-07-24T09:23:39Z</time>
      </trkpt>
      <trkpt lat="44.81788" lon="5.95138">
        <ele>1015.2</ele>
        <time>2015-07-24T09:23:44Z</time>
      </trkpt>
      <trkpt lat="44.81797" lon="5.95146">
        <ele>1010</ele>
        <time>2015-07-24T09:23:49Z</time>
      </trkpt>
      <trkpt lat="44.81801" lon="5.95151">
        <ele>1007.8</ele>
        <time>2015-07-24T09:23:54Z</time>
      </trkpt>
      <trkpt lat="44.81805" lon="5.95153">
        <ele>1008.2</ele>
        <time>2015-07-24T09:23:59Z</time>
      </trkpt>
      <trkpt lat="44.81809" lon="5.95154">
        <ele>1009.1</ele>
        <time>2015-07-24T09:24:04Z</time>
      </trkpt>
      <trkpt lat="44.81815" lon="5.95151">
        <ele>1011.5</ele>
        <time>2015-07-24T09:24:09Z</time>
      </trkpt>
      <trkpt lat="44.81818" lon="5.95142">
        <ele>1010.3</ele>
        <time>2015-07-24T09:24:14Z</time>
      </trkpt>
      <trkpt lat="44.81818" lon="5.95133">
        <ele>1008.7</ele>
        <time>2015-07-24T09:24:19Z</time>
      </trkpt>
      <trkpt lat="44.81816" lon="5.95124">
        <ele>1008</ele>
        <time>2015-07-24T09:24:24Z</time>
      </trkpt>
      <trkpt lat="44.81816" lon="5.95116">
        <ele>1006.4</ele>
        <time>2015-07-24T09:24:29Z</time>
      </trkpt>
      <trkpt lat="44.81818" lon="5.95108">
        <ele>1003.9</ele>
        <time>2015-07-24T09:24:34Z</time>
      </trkpt>
      <trkpt lat="44.81822" lon="5.95102">
        <ele>1002.4</ele>
        <time>2015-07-24T09:24:39Z</time>
      </trkpt>
      <trkpt lat="44.81825" lon="5.95096">
        <ele>1000.4</ele>
        <time>2015-07-24T09:24:44Z</time>
      </trkpt>
      <trkpt lat="44.8183" lon="5.95092">
        <ele>998.7</ele>
        <time>2015-07-24T09:24:49Z</time>
      </trkpt>
      <trkpt lat="44.81835" lon="5.95092">
        <ele>998.2</ele>
        <time>2015-07-24T09:24:54Z</time>
      </trkpt>
      <trkpt lat="44.81837" lon="5.95091">
        <ele>999.6</ele>
        <time>2015-07-24T09:24:59Z</time>
      </trkpt>
      <trkpt lat="44.81837" lon="5.95089">
        <ele>999.9</ele>
        <time>2015-07-24T09:25:04Z</time>
      </trkpt>
      <trkpt lat="44.81837" lon="5.95087">
        <ele>1001.1</ele>
        <time>2015-07-24T09:25:09Z</time>
      </trkpt>
      <trkpt lat="44.81839" lon="5.95086">
        <ele>1002.7</ele>
        <time>2015-07-24T09:25:14Z</time>
      </trkpt>
      <trkpt lat="44.81841" lon="5.95087">
        <ele>1004.2</ele>
        <time>2015-07-24T09:25:19Z</time>
      </trkpt>
      <trkpt lat="44.81838" lon="5.95086">
        <ele>1001.1</ele>
        <time>2015-07-24T09:25:24Z</time>
      </trkpt>
      <trkpt lat="44.81838" lon="5.95084">
        <ele>999.2</ele>
        <time>2015-07-24T09:25:29Z</time>
      </trkpt>
      <trkpt lat="44.81838" lon="5.95083">
        <ele>999.8</ele>
        <time>2015-07-24T09:25:34Z</time>
      </trkpt>
      <trkpt lat="44.81838" lon="5.9508">
        <ele>1000.3</ele>
        <time>2015-07-24T09:25:39Z</time>
      </trkpt>
      <trkpt lat="44.81839" lon="5.95081">
        <ele>1000.9</ele>
        <time>2015-07-24T09:25:44Z</time>
      </trkpt>
      <trkpt lat="44.81839" lon="5.95081">
        <ele>1001.8</ele>
        <time>2015-07-24T09:25:49Z</time>
      </trkpt>
      <trkpt lat="44.81839" lon="5.95082">
        <ele>1002.7</ele>
        <time>2015-07-24T09:25:54Z</time>
      </trkpt>
      <trkpt lat="44.8184" lon="5.95084">
        <ele>1003.7</ele>
        <time>2015-07-24T09:25:59Z</time>
      </trkpt>
      <trkpt lat="44.8184" lon="5.95088">
        <ele>1007.7</ele>
        <time>2015-07-24T09:26:04Z</time>
      </trkpt>
      <trkpt lat="44.81838" lon="5.95088">
        <ele>1012</ele>
        <time>2015-07-24T09:26:09Z</time>
      </trkpt>
      <trkpt lat="44.81836" lon="5.95085">
        <ele>1011.4</ele>
        <time>2015-07-24T09:26:14Z</time>
      </trkpt>
      <trkpt lat="44.81834" lon="5.95082">
        <ele>1011.5</ele>
        <time>2015-07-24T09:26:19Z</time>
      </trkpt>
      <trkpt lat="44.81834" lon="5.9508">
        <ele>1014.1</ele>
        <time>2015-07-24T09:26:24Z</time>
      </trkpt>
      <trkpt lat="44.81834" lon="5.95079">
        <ele>1014.7</ele>
        <time>2015-07-24T09:26:29Z</time>
      </trkpt>
      <trkpt lat="44.81835" lon="5.95082">
        <ele>1014.4</ele>
        <time>2015-07-24T09:26:34Z</time>
      </trkpt>
      <trkpt lat="44.81837" lon="5.95082">
        <ele>1012.8</ele>
        <time>2015-07-24T09:26:39Z</time>
      </trkpt>
      <trkpt lat="44.81837" lon="5.95081">
        <ele>1009.4</ele>
        <time>2015-07-24T09:26:44Z</time>
      </trkpt>
      <trkpt lat="44.81837" lon="5.95085">
        <ele>1006.8</ele>
        <time>2015-07-24T09:26:49Z</time>
      </trkpt>
      <trkpt lat="44.81839" lon="5.95087">
        <ele>1006.3</ele>
        <time>2015-07-24T09:26:54Z</time>
      </trkpt>
      <trkpt lat="44.81841" lon="5.95088">
        <ele>1006.2</ele>
        <time>2015-07-24T09:26:59Z</time>
      </trkpt>
      <trkpt lat="44.81844" lon="5.9509">
        <ele>1004.3</ele>
        <time>2015-07-24T09:27:04Z</time>
      </trkpt>
      <trkpt lat="44.81847" lon="5.95091">
        <ele>1002.4</ele>
        <time>2015-07-24T09:27:09Z</time>
      </trkpt>
      <trkpt lat="44.81846" lon="5.95089">
        <ele>998.7</ele>
        <time>2015-07-24T09:27:14Z</time>
      </trkpt>
      <trkpt lat="44.81846" lon="5.95088">
        <ele>997.9</ele>
        <time>2015-07-24T09:27:19Z</time>
      </trkpt>
      <trkpt lat="44.81846" lon="5.95087">
        <ele>995</ele>
        <time>2015-07-24T09:27:24Z</time>
      </trkpt>
      <trkpt lat="44.81845" lon="5.95085">
        <ele>995</ele>
        <time>2015-07-24T09:27:29Z</time>
      </trkpt>
      <trkpt lat="44.81843" lon="5.95087">
        <ele>994.5</ele>
        <time>2015-07-24T09:27:34Z</time>
      </trkpt>
      <trkpt lat="44.81842" lon="5.95089">
        <ele>995.6</ele>
        <time>2015-07-24T09:27:39Z</time>
      </trkpt>
      <trkpt lat="44.81846" lon="5.95086">
        <ele>999</ele>
        <time>2015-07-24T09:27:44Z</time>
      </trkpt>
      <trkpt lat="44.8185" lon="5.95082">
        <ele>1000.1</ele>
        <time>2015-07-24T09:27:49Z</time>
      </trkpt>
      <trkpt lat="44.81854" lon="5.95075">
        <ele>1000.7</ele>
        <time>2015-07-24T09:27:54Z</time>
      </trkpt>
      <trkpt lat="44.8186" lon="5.95071">
        <ele>1002.1</ele>
        <time>2015-07-24T09:27:59Z</time>
      </trkpt>
      <trkpt lat="44.81867" lon="5.95068">
        <ele>1005.3</ele>
        <time>2015-07-24T09:28:04Z</time>
      </trkpt>
      <trkpt lat="44.81874" lon="5.95066">
        <ele>1007.1</ele>
        <time>2015-07-24T09:28:09Z</time>
      </trkpt>
      <trkpt lat="44.81878" lon="5.95059">
        <ele>1008.8</ele>
        <time>2015-07-24T09:28:14Z</time>
      </trkpt>
      <trkpt lat="44.81884" lon="5.95055">
        <ele>1009.1</ele>
        <time>2015-07-24T09:28:19Z</time>
      </trkpt>
      <trkpt lat="44.81892" lon="5.95047">
        <ele>1011.4</ele>
        <time>2015-07-24T09:28:24Z</time>
      </trkpt>
      <trkpt lat="44.81896" lon="5.95043">
        <ele>1011</ele>
        <time>2015-07-24T09:28:29Z</time>
      </trkpt>
      <trkpt lat="44.81903" lon="5.95039">
        <ele>1011.6</ele>
        <time>2015-07-24T09:28:34Z</time>
      </trkpt>
      <trkpt lat="44.81903" lon="5.95039">
        <ele>1009.8</ele>
        <time>2015-07-24T09:28:39Z</time>
      </trkpt>
      <trkpt lat="44.81901" lon="5.95037">
        <ele>1008.1</ele>
        <time>2015-07-24T09:28:44Z</time>
      </trkpt>
      <trkpt lat="44.81897" lon="5.95035">
        <ele>1004.1</ele>
        <time>2015-07-24T09:28:49Z</time>
      </trkpt>
      <trkpt lat="44.81896" lon="5.95036">
        <ele>1001.1</ele>
        <time>2015-07-24T09:28:54Z</time>
      </trkpt>
      <trkpt lat="44.81896" lon="5.95039">
        <ele>1000.1</ele>
        <time>2015-07-24T09:28:59Z</time>
      </trkpt>
      <trkpt lat="44.81902" lon="5.95039">
        <ele>1000.2</ele>
        <time>2015-07-24T09:29:06Z</time>
      </trkpt>
      <trkpt lat="44.81908" lon="5.95037">
        <ele>1004.7</ele>
        <time>2015-07-24T09:29:11Z</time>
      </trkpt>
      <trkpt lat="44.81912" lon="5.95034">
        <ele>1007.1</ele>
        <time>2015-07-24T09:29:16Z</time>
      </trkpt>
      <trkpt lat="44.81917" lon="5.95028">
        <ele>1011</ele>
        <time>2015-07-24T09:29:21Z</time>
      </trkpt>
      <trkpt lat="44.81921" lon="5.95024">
        <ele>1013.3</ele>
        <time>2015-07-24T09:29:26Z</time>
      </trkpt>
      <trkpt lat="44.81927" lon="5.9502">
        <ele>1016</ele>
        <time>2015-07-24T09:29:31Z</time>
      </trkpt>
      <trkpt lat="44.8193" lon="5.95016">
        <ele>1018.2</ele>
        <time>2015-07-24T09:29:36Z</time>
      </trkpt>
      <trkpt lat="44.81936" lon="5.95011">
        <ele>1016.7</ele>
        <time>2015-07-24T09:29:41Z</time>
      </trkpt>
      <trkpt lat="44.81943" lon="5.95005">
        <ele>1014.9</ele>
        <time>2015-07-24T09:29:46Z</time>
      </trkpt>
      <trkpt lat="44.81949" lon="5.94999">
        <ele>1014.5</ele>
        <time>2015-07-24T09:29:51Z</time>
      </trkpt>
      <trkpt lat="44.81955" lon="5.94993">
        <ele>1013</ele>
        <time>2015-07-24T09:29:56Z</time>
      </trkpt>
      <trkpt lat="44.81961" lon="5.94989">
        <ele>1012.7</ele>
        <time>2015-07-24T09:30:01Z</time>
      </trkpt>
      <trkpt lat="44.81962" lon="5.94987">
        <ele>1012.9</ele>
        <time>2015-07-24T09:30:06Z</time>
      </trkpt>
      <trkpt lat="44.81968" lon="5.94981">
        <ele>1012.8</ele>
        <time>2015-07-24T09:30:11Z</time>
      </trkpt>
      <trkpt lat="44.81972" lon="5.94974">
        <ele>1010.5</ele>
        <time>2015-07-24T09:30:16Z</time>
      </trkpt>
      <trkpt lat="44.81978" lon="5.94971">
        <ele>1012</ele>
        <time>2015-07-24T09:30:21Z</time>
      </trkpt>
      <trkpt lat="44.81981" lon="5.94969">
        <ele>1013.1</ele>
        <time>2015-07-24T09:30:26Z</time>
      </trkpt>
      <trkpt lat="44.81986" lon="5.94968">
        <ele>1014.3</ele>
        <time>2015-07-24T09:30:31Z</time>
      </trkpt>
      <trkpt lat="44.81992" lon="5.94972">
        <ele>1012.5</ele>
        <time>2015-07-24T09:30:36Z</time>
      </trkpt>
      <trkpt lat="44.81997" lon="5.94975">
        <ele>1012.8</ele>
        <time>2015-07-24T09:30:41Z</time>
      </trkpt>
      <trkpt lat="44.82001" lon="5.94981">
        <ele>1012.8</ele>
        <time>2015-07-24T09:30:46Z</time>
      </trkpt>
      <trkpt lat="44.82005" lon="5.94987">
        <ele>1013.6</ele>
        <time>2015-07-24T09:30:51Z</time>
      </trkpt>
      <trkpt lat="44.82009" lon="5.94992">
        <ele>1013.3</ele>
        <time>2015-07-24T09:30:56Z</time>
      </trkpt>
      <trkpt lat="44.82013" lon="5.94997">
        <ele>1014.7</ele>
        <time>2015-07-24T09:31:01Z</time>
      </trkpt>
      <trkpt lat="44.82018" lon="5.95001">
        <ele>1016.2</ele>
        <time>2015-07-24T09:31:06Z</time>
      </trkpt>
      <trkpt lat="44.82024" lon="5.95007">
        <ele>1012.6</ele>
        <time>2015-07-24T09:31:11Z</time>
      </trkpt>
      <trkpt lat="44.8203" lon="5.95011">
        <ele>1015.8</ele>
        <time>2015-07-24T09:31:16Z</time>
      </trkpt>
      <trkpt lat="44.82038" lon="5.95019">
        <ele>1012.3</ele>
        <time>2015-07-24T09:31:21Z</time>
      </trkpt>
      <trkpt lat="44.82044" lon="5.95029">
        <ele>1009.1</ele>
        <time>2015-07-24T09:31:26Z</time>
      </trkpt>
      <trkpt lat="44.82047" lon="5.95037">
        <ele>1010.8</ele>
        <time>2015-07-24T09:31:31Z</time>
      </trkpt>
      <trkpt lat="44.8205" lon="5.95047">
        <ele>1005.8</ele>
        <time>2015-07-24T09:31:36Z</time>
      </trkpt>
      <trkpt lat="44.82055" lon="5.95055">
        <ele>1003.2</ele>
        <time>2015-07-24T09:31:41Z</time>
      </trkpt>
      <trkpt lat="44.8206" lon="5.95061">
        <ele>1002.4</ele>
        <time>2015-07-24T09:31:46Z</time>
      </trkpt>
      <trkpt lat="44.82068" lon="5.95068">
        <ele>1001.6</ele>
        <time>2015-07-24T09:31:51Z</time>
      </trkpt>
      <trkpt lat="44.82072" lon="5.95076">
        <ele>1000.5</ele>
        <time>2015-07-24T09:31:56Z</time>
      </trkpt>
      <trkpt lat="44.82075" lon="5.95086">
        <ele>1000.6</ele>
        <time>2015-07-24T09:32:01Z</time>
      </trkpt>
      <trkpt lat="44.82079" lon="5.95094">
        <ele>999.9</ele>
        <time>2015-07-24T09:32:06Z</time>
      </trkpt>
      <trkpt lat="44.82084" lon="5.95101">
        <ele>999.3</ele>
        <time>2015-07-24T09:32:11Z</time>
      </trkpt>
      <trkpt lat="44.82089" lon="5.95108">
        <ele>999.5</ele>
        <time>2015-07-24T09:32:16Z</time>
      </trkpt>
      <trkpt lat="44.82094" lon="5.95115">
        <ele>1000.5</ele>
        <time>2015-07-24T09:32:21Z</time>
      </trkpt>
      <trkpt lat="44.821" lon="5.95123">
        <ele>1000.9</ele>
        <time>2015-07-24T09:32:26Z</time>
      </trkpt>
      <trkpt lat="44.82103" lon="5.95132">
        <ele>1000.6</ele>
        <time>2015-07-24T09:32:31Z</time>
      </trkpt>
      <trkpt lat="44.82105" lon="5.95139">
        <ele>999.3</ele>
        <time>2015-07-24T09:32:36Z</time>
      </trkpt>
      <trkpt lat="44.82105" lon="5.95145">
        <ele>1000</ele>
        <time>2015-07-24T09:32:41Z</time>
      </trkpt>
      <trkpt lat="44.82103" lon="5.95147">
        <ele>999.7</ele>
        <time>2015-07-24T09:32:46Z</time>
      </trkpt>
      <trkpt lat="44.82108" lon="5.95154">
        <ele>999.5</ele>
        <time>2015-07-24T09:32:51Z</time>
      </trkpt>
      <trkpt lat="44.82113" lon="5.9516">
        <ele>1000</ele>
        <time>2015-07-24T09:32:56Z</time>
      </trkpt>
      <trkpt lat="44.82114" lon="5.95169">
        <ele>1000</ele>
        <time>2015-07-24T09:33:01Z</time>
      </trkpt>
      <trkpt lat="44.82119" lon="5.95176">
        <ele>1001.3</ele>
        <time>2015-07-24T09:33:06Z</time>
      </trkpt>
      <trkpt lat="44.82123" lon="5.95184">
        <ele>1001.9</ele>
        <time>2015-07-24T09:33:11Z</time>
      </trkpt>
      <trkpt lat="44.82128" lon="5.95191">
        <ele>1004.2</ele>
        <time>2015-07-24T09:33:16Z</time>
      </trkpt>
      <trkpt lat="44.8213" lon="5.95199">
        <ele>1005.3</ele>
        <time>2015-07-24T09:33:21Z</time>
      </trkpt>
      <trkpt lat="44.82129" lon="5.95207">
        <ele>1004.6</ele>
        <time>2015-07-24T09:33:26Z</time>
      </trkpt>
      <trkpt lat="44.82131" lon="5.95216">
        <ele>1004.9</ele>
        <time>2015-07-24T09:33:31Z</time>
      </trkpt>
      <trkpt lat="44.82131" lon="5.95225">
        <ele>1004.4</ele>
        <time>2015-07-24T09:33:36Z</time>
      </trkpt>
      <trkpt lat="44.82133" lon="5.95231">
        <ele>1009.8</ele>
        <time>2015-07-24T09:33:41Z</time>
      </trkpt>
      <trkpt lat="44.82131" lon="5.95239">
        <ele>1014.7</ele>
        <time>2015-07-24T09:33:46Z</time>
      </trkpt>
      <trkpt lat="44.82134" lon="5.95248">
        <ele>1015.9</ele>
        <time>2015-07-24T09:33:51Z</time>
      </trkpt>
      <trkpt lat="44.82135" lon="5.9526">
        <ele>1014.2</ele>
        <time>2015-07-24T09:33:56Z</time>
      </trkpt>
      <trkpt lat="44.82137" lon="5.95271">
        <ele>1013.4</ele>
        <time>2015-07-24T09:34:01Z</time>
      </trkpt>
      <trkpt lat="44.8214" lon="5.95282">
        <ele>1010.7</ele>
        <time>2015-07-24T09:34:06Z</time>
      </trkpt>
      <trkpt lat="44.82142" lon="5.95293">
        <ele>1010.2</ele>
        <time>2015-07-24T09:34:11Z</time>
      </trkpt>
      <trkpt lat="44.82145" lon="5.95302">
        <ele>1010.8</ele>
        <time>2015-07-24T09:34:16Z</time>
      </trkpt>
      <trkpt lat="44.82145" lon="5.95312">
        <ele>1011.1</ele>
        <time>2015-07-24T09:34:21Z</time>
      </trkpt>
      <trkpt lat="44.82144" lon="5.95321">
        <ele>1011.8</ele>
        <time>2015-07-24T09:34:26Z</time>
      </trkpt>
      <trkpt lat="44.82147" lon="5.95329">
        <ele>1012.7</ele>
        <time>2015-07-24T09:34:31Z</time>
      </trkpt>
      <trkpt lat="44.82147" lon="5.95337">
        <ele>1016.2</ele>
        <time>2015-07-24T09:34:36Z</time>
      </trkpt>
      <trkpt lat="44.82152" lon="5.95346">
        <ele>1015.3</ele>
        <time>2015-07-24T09:34:41Z</time>
      </trkpt>
      <trkpt lat="44.82154" lon="5.95356">
        <ele>1012.3</ele>
        <time>2015-07-24T09:34:46Z</time>
      </trkpt>
      <trkpt lat="44.82156" lon="5.95365">
        <ele>1009.1</ele>
        <time>2015-07-24T09:34:51Z</time>
      </trkpt>
      <trkpt lat="44.82158" lon="5.95374">
        <ele>1007.2</ele>
        <time>2015-07-24T09:34:56Z</time>
      </trkpt>
      <trkpt lat="44.82161" lon="5.95385">
        <ele>1005.9</ele>
        <time>2015-07-24T09:35:01Z</time>
      </trkpt>
      <trkpt lat="44.82164" lon="5.95393">
        <ele>1006.6</ele>
        <time>2015-07-24T09:35:06Z</time>
      </trkpt>
      <trkpt lat="44.82167" lon="5.95401">
        <ele>1006.5</ele>
        <time>2015-07-24T09:35:11Z</time>
      </trkpt>
      <trkpt lat="44.82169" lon="5.95409">
        <ele>1006</ele>
        <time>2015-07-24T09:35:16Z</time>
      </trkpt>
      <trkpt lat="44.82172" lon="5.95416">
        <ele>1005.9</ele>
        <time>2015-07-24T09:35:21Z</time>
      </trkpt>
      <trkpt lat="44.82174" lon="5.95422">
        <ele>1004.5</ele>
        <time>2015-07-24T09:35:26Z</time>
      </trkpt>
      <trkpt lat="44.82177" lon="5.95431">
        <ele>1002.5</ele>
        <time>2015-07-24T09:35:31Z</time>
      </trkpt>
      <trkpt lat="44.82178" lon="5.9544">
        <ele>1001.1</ele>
        <time>2015-07-24T09:35:36Z</time>
      </trkpt>
      <trkpt lat="44.82179" lon="5.95447">
        <ele>1003</ele>
        <time>2015-07-24T09:35:41Z</time>
      </trkpt>
      <trkpt lat="44.82178" lon="5.95457">
        <ele>1003.7</ele>
        <time>2015-07-24T09:35:46Z</time>
      </trkpt>
      <trkpt lat="44.8218" lon="5.95467">
        <ele>1002.8</ele>
        <time>2015-07-24T09:35:51Z</time>
      </trkpt>
      <trkpt lat="44.82184" lon="5.95475">
        <ele>1002.9</ele>
        <time>2015-07-24T09:35:56Z</time>
      </trkpt>
      <trkpt lat="44.82187" lon="5.95485">
        <ele>1003.4</ele>
        <time>2015-07-24T09:36:01Z</time>
      </trkpt>
      <trkpt lat="44.82189" lon="5.95495">
        <ele>1002.6</ele>
        <time>2015-07-24T09:36:06Z</time>
      </trkpt>
      <trkpt lat="44.82192" lon="5.95499">
        <ele>1005</ele>
        <time>2015-07-24T09:36:11Z</time>
      </trkpt>
      <trkpt lat="44.82192" lon="5.95505">
        <ele>1007.1</ele>
        <time>2015-07-24T09:36:16Z</time>
      </trkpt>
      <trkpt lat="44.82188" lon="5.95511">
        <ele>1011.6</ele>
        <time>2015-07-24T09:36:21Z</time>
      </trkpt>
      <trkpt lat="44.82188" lon="5.95518">
        <ele>1020.2</ele>
        <time>2015-07-24T09:36:26Z</time>
      </trkpt>
      <trkpt lat="44.82187" lon="5.95532">
        <ele>1027.1</ele>
        <time>2015-07-24T09:36:31Z</time>
      </trkpt>
      <trkpt lat="44.8219" lon="5.95543">
        <ele>1029.5</ele>
        <time>2015-07-24T09:36:36Z</time>
      </trkpt>
      <trkpt lat="44.82193" lon="5.9555">
        <ele>1029.1</ele>
        <time>2015-07-24T09:36:41Z</time>
      </trkpt>
      <trkpt lat="44.82196" lon="5.95561">
        <ele>1023</ele>
        <time>2015-07-24T09:36:46Z</time>
      </trkpt>
      <trkpt lat="44.82201" lon="5.95568">
        <ele>1018.7</ele>
        <time>2015-07-24T09:36:51Z</time>
      </trkpt>
      <trkpt lat="44.82206" lon="5.95575">
        <ele>1018.8</ele>
        <time>2015-07-24T09:36:56Z</time>
      </trkpt>
      <trkpt lat="44.82209" lon="5.95583">
        <ele>1018.5</ele>
        <time>2015-07-24T09:37:01Z</time>
      </trkpt>
      <trkpt lat="44.82214" lon="5.95591">
        <ele>1018.7</ele>
        <time>2015-07-24T09:37:06Z</time>
      </trkpt>
      <trkpt lat="44.82219" lon="5.956">
        <ele>1018.7</ele>
        <time>2015-07-24T09:37:11Z</time>
      </trkpt>
      <trkpt lat="44.82222" lon="5.95607">
        <ele>1020.2</ele>
        <time>2015-07-24T09:37:16Z</time>
      </trkpt>
      <trkpt lat="44.82223" lon="5.95615">
        <ele>1023.7</ele>
        <time>2015-07-24T09:37:21Z</time>
      </trkpt>
      <trkpt lat="44.82225" lon="5.95623">
        <ele>1026.3</ele>
        <time>2015-07-24T09:37:26Z</time>
      </trkpt>
      <trkpt lat="44.82228" lon="5.95634">
        <ele>1023.4</ele>
        <time>2015-07-24T09:37:31Z</time>
      </trkpt>
      <trkpt lat="44.82228" lon="5.95641">
        <ele>1025</ele>
        <time>2015-07-24T09:37:36Z</time>
      </trkpt>
      <trkpt lat="44.8223" lon="5.95648">
        <ele>1024.8</ele>
        <time>2015-07-24T09:37:41Z</time>
      </trkpt>
      <trkpt lat="44.82233" lon="5.95654">
        <ele>1023.2</ele>
        <time>2015-07-24T09:37:46Z</time>
      </trkpt>
      <trkpt lat="44.82236" lon="5.95661">
        <ele>1022.3</ele>
        <time>2015-07-24T09:37:52Z</time>
      </trkpt>
      <trkpt lat="44.82239" lon="5.95676">
        <ele>1017.7</ele>
        <time>2015-07-24T09:37:57Z</time>
      </trkpt>
      <trkpt lat="44.82242" lon="5.95687">
        <ele>1015.9</ele>
        <time>2015-07-24T09:38:02Z</time>
      </trkpt>
      <trkpt lat="44.82248" lon="5.95695">
        <ele>1013</ele>
        <time>2015-07-24T09:38:07Z</time>
      </trkpt>
      <trkpt lat="44.8225" lon="5.95705">
        <ele>1011</ele>
        <time>2015-07-24T09:38:12Z</time>
      </trkpt>
      <trkpt lat="44.82255" lon="5.95713">
        <ele>1009.2</ele>
        <time>2015-07-24T09:38:17Z</time>
      </trkpt>
      <trkpt lat="44.82256" lon="5.95723">
        <ele>1006.9</ele>
        <time>2015-07-24T09:38:22Z</time>
      </trkpt>
      <trkpt lat="44.82256" lon="5.95732">
        <ele>1006.1</ele>
        <time>2015-07-24T09:38:27Z</time>
      </trkpt>
      <trkpt lat="44.82262" lon="5.95739">
        <ele>1009.2</ele>
        <time>2015-07-24T09:38:32Z</time>
      </trkpt>
      <trkpt lat="44.82265" lon="5.95747">
        <ele>1012.6</ele>
        <time>2015-07-24T09:38:37Z</time>
      </trkpt>
      <trkpt lat="44.82271" lon="5.95755">
        <ele>1010.4</ele>
        <time>2015-07-24T09:38:42Z</time>
      </trkpt>
      <trkpt lat="44.82277" lon="5.9576">
        <ele>1014.6</ele>
        <time>2015-07-24T09:38:47Z</time>
      </trkpt>
      <trkpt lat="44.8228" lon="5.95767">
        <ele>1017.7</ele>
        <time>2015-07-24T09:38:52Z</time>
      </trkpt>
      <trkpt lat="44.82285" lon="5.9577">
        <ele>1018.3</ele>
        <time>2015-07-24T09:38:57Z</time>
      </trkpt>
      <trkpt lat="44.82287" lon="5.95778">
        <ele>1015.7</ele>
        <time>2015-07-24T09:39:02Z</time>
      </trkpt>
      <trkpt lat="44.82286" lon="5.9579">
        <ele>1011.9</ele>
        <time>2015-07-24T09:39:07Z</time>
      </trkpt>
      <trkpt lat="44.8229" lon="5.95802">
        <ele>1013.2</ele>
        <time>2015-07-24T09:39:12Z</time>
      </trkpt>
      <trkpt lat="44.82295" lon="5.95811">
        <ele>1014.4</ele>
        <time>2015-07-24T09:39:17Z</time>
      </trkpt>
      <trkpt lat="44.82299" lon="5.95818">
        <ele>1013</ele>
        <time>2015-07-24T09:39:22Z</time>
      </trkpt>
      <trkpt lat="44.82302" lon="5.95826">
        <ele>1012.3</ele>
        <time>2015-07-24T09:39:27Z</time>
      </trkpt>
      <trkpt lat="44.82305" lon="5.95834">
        <ele>1011</ele>
        <time>2015-07-24T09:39:32Z</time>
      </trkpt>
      <trkpt lat="44.82308" lon="5.95842">
        <ele>1009.1</ele>
        <time>2015-07-24T09:39:37Z</time>
      </trkpt>
      <trkpt lat="44.82312" lon="5.95849">
        <ele>1008.9</ele>
        <time>2015-07-24T09:39:42Z</time>
      </trkpt>
      <trkpt lat="44.82315" lon="5.95859">
        <ele>1008.2</ele>
        <time>2015-07-24T09:39:47Z</time>
      </trkpt>
      <trkpt lat="44.8232" lon="5.95866">
        <ele>1008.3</ele>
        <time>2015-07-24T09:39:52Z</time>
      </trkpt>
      <trkpt lat="44.82324" lon="5.95872">
        <ele>1009.3</ele>
        <time>2015-07-24T09:39:57Z</time>
      </trkpt>
      <trkpt lat="44.82327" lon="5.95877">
        <ele>1006.6</ele>
        <time>2015-07-24T09:40:02Z</time>
      </trkpt>
      <trkpt lat="44.8233" lon="5.95886">
        <ele>1005.8</ele>
        <time>2015-07-24T09:40:07Z</time>
      </trkpt>
      <trkpt lat="44.82333" lon="5.95892">
        <ele>1005</ele>
        <time>2015-07-24T09:40:12Z</time>
      </trkpt>
      <trkpt lat="44.82338" lon="5.95896">
        <ele>1009</ele>
        <time>2015-07-24T09:40:17Z</time>
      </trkpt>
      <trkpt lat="44.82343" lon="5.95904">
        <ele>1008.9</ele>
        <time>2015-07-24T09:40:22Z</time>
      </trkpt>
      <trkpt lat="44.82346" lon="5.95911">
        <ele>1009.3</ele>
        <time>2015-07-24T09:40:27Z</time>
      </trkpt>
      <trkpt lat="44.82347" lon="5.95917">
        <ele>1008.4</ele>
        <time>2015-07-24T09:40:32Z</time>
      </trkpt>
      <trkpt lat="44.82351" lon="5.95922">
        <ele>1008.8</ele>
        <time>2015-07-24T09:40:37Z</time>
      </trkpt>
      <trkpt lat="44.82354" lon="5.95928">
        <ele>1010.3</ele>
        <time>2015-07-24T09:40:42Z</time>
      </trkpt>
      <trkpt lat="44.82361" lon="5.95933">
        <ele>1010.6</ele>
        <time>2015-07-24T09:40:47Z</time>
      </trkpt>
      <trkpt lat="44.82367" lon="5.95938">
        <ele>1012.7</ele>
        <time>2015-07-24T09:40:52Z</time>
      </trkpt>
      <trkpt lat="44.82369" lon="5.95945">
        <ele>1012.7</ele>
        <time>2015-07-24T09:40:57Z</time>
      </trkpt>
      <trkpt lat="44.82374" lon="5.95952">
        <ele>1011.8</ele>
        <time>2015-07-24T09:41:02Z</time>
      </trkpt>
      <trkpt lat="44.82376" lon="5.95959">
        <ele>1009.7</ele>
        <time>2015-07-24T09:41:07Z</time>
      </trkpt>
      <trkpt lat="44.82378" lon="5.95968">
        <ele>1007.6</ele>
        <time>2015-07-24T09:41:12Z</time>
      </trkpt>
      <trkpt lat="44.82378" lon="5.95974">
        <ele>1007.6</ele>
        <time>2015-07-24T09:41:17Z</time>
      </trkpt>
      <trkpt lat="44.8238" lon="5.9598">
        <ele>1011.6</ele>
        <time>2015-07-24T09:41:22Z</time>
      </trkpt>
      <trkpt lat="44.82384" lon="5.95987">
        <ele>1011.7</ele>
        <time>2015-07-24T09:41:27Z</time>
      </trkpt>
      <trkpt lat="44.82385" lon="5.95994">
        <ele>1018.8</ele>
        <time>2015-07-24T09:41:32Z</time>
      </trkpt>
      <trkpt lat="44.82387" lon="5.96">
        <ele>1025.2</ele>
        <time>2015-07-24T09:41:37Z</time>
      </trkpt>
      <trkpt lat="44.82386" lon="5.96007">
        <ele>1031.1</ele>
        <time>2015-07-24T09:41:42Z</time>
      </trkpt>
      <trkpt lat="44.82389" lon="5.96015">
        <ele>1032.4</ele>
        <time>2015-07-24T09:41:47Z</time>
      </trkpt>
      <trkpt lat="44.8239" lon="5.96024">
        <ele>1031.3</ele>
        <time>2015-07-24T09:41:52Z</time>
      </trkpt>
      <trkpt lat="44.82391" lon="5.96033">
        <ele>1028.1</ele>
        <time>2015-07-24T09:41:57Z</time>
      </trkpt>
      <trkpt lat="44.82392" lon="5.96043">
        <ele>1032.2</ele>
        <time>2015-07-24T09:42:02Z</time>
      </trkpt>
      <trkpt lat="44.82396" lon="5.96052">
        <ele>1028.4</ele>
        <time>2015-07-24T09:42:07Z</time>
      </trkpt>
      <trkpt lat="44.82396" lon="5.96061">
        <ele>1024.8</ele>
        <time>2015-07-24T09:42:12Z</time>
      </trkpt>
      <trkpt lat="44.82397" lon="5.96069">
        <ele>1022.6</ele>
        <time>2015-07-24T09:42:17Z</time>
      </trkpt>
      <trkpt lat="44.82401" lon="5.96078">
        <ele>1023</ele>
        <time>2015-07-24T09:42:22Z</time>
      </trkpt>
      <trkpt lat="44.82408" lon="5.96086">
        <ele>1021.3</ele>
        <time>2015-07-24T09:42:27Z</time>
      </trkpt>
      <trkpt lat="44.82411" lon="5.96096">
        <ele>1015.1</ele>
        <time>2015-07-24T09:42:32Z</time>
      </trkpt>
      <trkpt lat="44.8241" lon="5.96107">
        <ele>1007.8</ele>
        <time>2015-07-24T09:42:37Z</time>
      </trkpt>
      <trkpt lat="44.8241" lon="5.96117">
        <ele>1004.5</ele>
        <time>2015-07-24T09:42:42Z</time>
      </trkpt>
      <trkpt lat="44.82414" lon="5.96123">
        <ele>1007</ele>
        <time>2015-07-24T09:42:47Z</time>
      </trkpt>
      <trkpt lat="44.82418" lon="5.96129">
        <ele>1011.5</ele>
        <time>2015-07-24T09:42:52Z</time>
      </trkpt>
      <trkpt lat="44.8242" lon="5.96136">
        <ele>1017</ele>
        <time>2015-07-24T09:42:57Z</time>
      </trkpt>
      <trkpt lat="44.82417" lon="5.96144">
        <ele>1023.8</ele>
        <time>2015-07-24T09:43:02Z</time>
      </trkpt>
      <trkpt lat="44.82415" lon="5.96154">
        <ele>1037.3</ele>
        <time>2015-07-24T09:43:07Z</time>
      </trkpt>
      <trkpt lat="44.82412" lon="5.96163">
        <ele>1050.1</ele>
        <time>2015-07-24T09:43:12Z</time>
      </trkpt>
      <trkpt lat="44.82413" lon="5.9617">
        <ele>1059.6</ele>
        <time>2015-07-24T09:43:17Z</time>
      </trkpt>
      <trkpt lat="44.82417" lon="5.96175">
        <ele>1062.7</ele>
        <time>2015-07-24T09:43:22Z</time>
      </trkpt>
      <trkpt lat="44.8242" lon="5.9618">
        <ele>1067.4</ele>
        <time>2015-07-24T09:43:27Z</time>
      </trkpt>
      <trkpt lat="44.82423" lon="5.96188">
        <ele>1068.8</ele>
        <time>2015-07-24T09:43:32Z</time>
      </trkpt>
      <trkpt lat="44.82427" lon="5.96192">
        <ele>1074.8</ele>
        <time>2015-07-24T09:43:37Z</time>
      </trkpt>
      <trkpt lat="44.82429" lon="5.96195">
        <ele>1080.8</ele>
        <time>2015-07-24T09:43:42Z</time>
      </trkpt>
      <trkpt lat="44.82434" lon="5.96198">
        <ele>1084.6</ele>
        <time>2015-07-24T09:43:47Z</time>
      </trkpt>
      <trkpt lat="44.8244" lon="5.96202">
        <ele>1087.6</ele>
        <time>2015-07-24T09:43:52Z</time>
      </trkpt>
      <trkpt lat="44.82449" lon="5.96202">
        <ele>1086.8</ele>
        <time>2015-07-24T09:43:57Z</time>
      </trkpt>
      <trkpt lat="44.82455" lon="5.96203">
        <ele>1087.8</ele>
        <time>2015-07-24T09:44:02Z</time>
      </trkpt>
      <trkpt lat="44.82464" lon="5.96207">
        <ele>1082.3</ele>
        <time>2015-07-24T09:44:07Z</time>
      </trkpt>
      <trkpt lat="44.8247" lon="5.96213">
        <ele>1070.1</ele>
        <time>2015-07-24T09:44:12Z</time>
      </trkpt>
      <trkpt lat="44.82478" lon="5.96217">
        <ele>1055.7</ele>
        <time>2015-07-24T09:44:17Z</time>
      </trkpt>
      <trkpt lat="44.82485" lon="5.96225">
        <ele>1039</ele>
        <time>2015-07-24T09:44:22Z</time>
      </trkpt>
      <trkpt lat="44.82491" lon="5.96232">
        <ele>1028.6</ele>
        <time>2015-07-24T09:44:27Z</time>
      </trkpt>
      <trkpt lat="44.82495" lon="5.96238">
        <ele>1018.5</ele>
        <time>2015-07-24T09:44:32Z</time>
      </trkpt>
      <trkpt lat="44.825" lon="5.96244">
        <ele>1012</ele>
        <time>2015-07-24T09:44:37Z</time>
      </trkpt>
      <trkpt lat="44.82506" lon="5.9625">
        <ele>1007.5</ele>
        <time>2015-07-24T09:44:42Z</time>
      </trkpt>
      <trkpt lat="44.82511" lon="5.96253">
        <ele>1004.5</ele>
        <time>2015-07-24T09:44:47Z</time>
      </trkpt>
      <trkpt lat="44.82517" lon="5.9626">
        <ele>1003.3</ele>
        <time>2015-07-24T09:44:52Z</time>
      </trkpt>
      <trkpt lat="44.82521" lon="5.96268">
        <ele>1003.3</ele>
        <time>2015-07-24T09:44:57Z</time>
      </trkpt>
      <trkpt lat="44.82525" lon="5.96277">
        <ele>1006.7</ele>
        <time>2015-07-24T09:45:02Z</time>
      </trkpt>
      <trkpt lat="44.82526" lon="5.96284">
        <ele>1006.7</ele>
        <time>2015-07-24T09:45:07Z</time>
      </trkpt>
      <trkpt lat="44.82527" lon="5.96291">
        <ele>1008.7</ele>
        <time>2015-07-24T09:45:12Z</time>
      </trkpt>
      <trkpt lat="44.82524" lon="5.96302">
        <ele>1011</ele>
        <time>2015-07-24T09:45:17Z</time>
      </trkpt>
      <trkpt lat="44.82523" lon="5.9631">
        <ele>1011.2</ele>
        <time>2015-07-24T09:45:22Z</time>
      </trkpt>
      <trkpt lat="44.82523" lon="5.96319">
        <ele>1011.9</ele>
        <time>2015-07-24T09:45:27Z</time>
      </trkpt>
      <trkpt lat="44.82523" lon="5.96327">
        <ele>1011.8</ele>
        <time>2015-07-24T09:45:32Z</time>
      </trkpt>
      <trkpt lat="44.8252" lon="5.96337">
        <ele>1016.2</ele>
        <time>2015-07-24T09:45:37Z</time>
      </trkpt>
      <trkpt lat="44.82518" lon="5.96345">
        <ele>1023.2</ele>
        <time>2015-07-24T09:45:42Z</time>
      </trkpt>
      <trkpt lat="44.82516" lon="5.96359">
        <ele>1026.2</ele>
        <time>2015-07-24T09:45:47Z</time>
      </trkpt>
      <trkpt lat="44.82519" lon="5.96367">
        <ele>1022.9</ele>
        <time>2015-07-24T09:45:52Z</time>
      </trkpt>
      <trkpt lat="44.82517" lon="5.96375">
        <ele>1020.7</ele>
        <time>2015-07-24T09:45:57Z</time>
      </trkpt>
      <trkpt lat="44.82515" lon="5.96382">
        <ele>1017.7</ele>
        <time>2015-07-24T09:46:02Z</time>
      </trkpt>
      <trkpt lat="44.82512" lon="5.96391">
        <ele>1020.7</ele>
        <time>2015-07-24T09:46:07Z</time>
      </trkpt>
      <trkpt lat="44.82511" lon="5.96403">
        <ele>1022.9</ele>
        <time>2015-07-24T09:46:12Z</time>
      </trkpt>
      <trkpt lat="44.82517" lon="5.96412">
        <ele>1024.4</ele>
        <time>2015-07-24T09:46:17Z</time>
      </trkpt>
      <trkpt lat="44.82523" lon="5.96419">
        <ele>1025.8</ele>
        <time>2015-07-24T09:46:22Z</time>
      </trkpt>
      <trkpt lat="44.82526" lon="5.96425">
        <ele>1035.4</ele>
        <time>2015-07-24T09:46:27Z</time>
      </trkpt>
      <trkpt lat="44.82532" lon="5.9643">
        <ele>1039.6</ele>
        <time>2015-07-24T09:46:32Z</time>
      </trkpt>
      <trkpt lat="44.82537" lon="5.96434">
        <ele>1043.5</ele>
        <time>2015-07-24T09:46:37Z</time>
      </trkpt>
      <trkpt lat="44.82543" lon="5.96437">
        <ele>1043.4</ele>
        <time>2015-07-24T09:46:42Z</time>
      </trkpt>
      <trkpt lat="44.82552" lon="5.96443">
        <ele>1029.1</ele>
        <time>2015-07-24T09:46:47Z</time>
      </trkpt>
      <trkpt lat="44.82558" lon="5.96448">
        <ele>1028.2</ele>
        <time>2015-07-24T09:46:52Z</time>
      </trkpt>
      <trkpt lat="44.82564" lon="5.96454">
        <ele>1023.5</ele>
        <time>2015-07-24T09:46:57Z</time>
      </trkpt>
      <trkpt lat="44.82567" lon="5.96461">
        <ele>1024.5</ele>
        <time>2015-07-24T09:47:02Z</time>
      </trkpt>
      <trkpt lat="44.82571" lon="5.96467">
        <ele>1021</ele>
        <time>2015-07-24T09:47:07Z</time>
      </trkpt>
      <trkpt lat="44.82575" lon="5.96471">
        <ele>1033.5</ele>
        <time>2015-07-24T09:47:12Z</time>
      </trkpt>
      <trkpt lat="44.8258" lon="5.96477">
        <ele>1028.7</ele>
        <time>2015-07-24T09:47:17Z</time>
      </trkpt>
      <trkpt lat="44.82583" lon="5.96483">
        <ele>1032.4</ele>
        <time>2015-07-24T09:47:22Z</time>
      </trkpt>
      <trkpt lat="44.82588" lon="5.96492">
        <ele>1029.9</ele>
        <time>2015-07-24T09:47:27Z</time>
      </trkpt>
      <trkpt lat="44.82591" lon="5.965">
        <ele>1031.7</ele>
        <time>2015-07-24T09:47:32Z</time>
      </trkpt>
      <trkpt lat="44.82593" lon="5.9651">
        <ele>1035</ele>
        <time>2015-07-24T09:47:37Z</time>
      </trkpt>
      <trkpt lat="44.82595" lon="5.96518">
        <ele>1051.5</ele>
        <time>2015-07-24T09:47:42Z</time>
      </trkpt>
      <trkpt lat="44.82599" lon="5.96524">
        <ele>1060.2</ele>
        <time>2015-07-24T09:47:47Z</time>
      </trkpt>
      <trkpt lat="44.82606" lon="5.96525">
        <ele>1054.8</ele>
        <time>2015-07-24T09:47:52Z</time>
      </trkpt>
      <trkpt lat="44.82611" lon="5.96532">
        <ele>1056.5</ele>
        <time>2015-07-24T09:47:57Z</time>
      </trkpt>
      <trkpt lat="44.82617" lon="5.96539">
        <ele>1054</ele>
        <time>2015-07-24T09:48:02Z</time>
      </trkpt>
      <trkpt lat="44.82624" lon="5.96545">
        <ele>1040.8</ele>
        <time>2015-07-24T09:48:07Z</time>
      </trkpt>
      <trkpt lat="44.82628" lon="5.96549">
        <ele>1032.9</ele>
        <time>2015-07-24T09:48:12Z</time>
      </trkpt>
      <trkpt lat="44.82633" lon="5.96554">
        <ele>1027.6</ele>
        <time>2015-07-24T09:48:17Z</time>
      </trkpt>
      <trkpt lat="44.82641" lon="5.96562">
        <ele>1022</ele>
        <time>2015-07-24T09:48:22Z</time>
      </trkpt>
      <trkpt lat="44.82644" lon="5.9657">
        <ele>1022.5</ele>
        <time>2015-07-24T09:48:27Z</time>
      </trkpt>
      <trkpt lat="44.82647" lon="5.96577">
        <ele>1024.7</ele>
        <time>2015-07-24T09:48:32Z</time>
      </trkpt>
      <trkpt lat="44.82652" lon="5.96582">
        <ele>1017.1</ele>
        <time>2015-07-24T09:48:37Z</time>
      </trkpt>
      <trkpt lat="44.82656" lon="5.96589">
        <ele>1027.8</ele>
        <time>2015-07-24T09:48:42Z</time>
      </trkpt>
      <trkpt lat="44.82656" lon="5.96599">
        <ele>1047.4</ele>
        <time>2015-07-24T09:48:47Z</time>
      </trkpt>
      <trkpt lat="44.82662" lon="5.96604">
        <ele>1047.9</ele>
        <time>2015-07-24T09:48:52Z</time>
      </trkpt>
      <trkpt lat="44.82668" lon="5.9661">
        <ele>1047</ele>
        <time>2015-07-24T09:48:57Z</time>
      </trkpt>
      <trkpt lat="44.82673" lon="5.96616">
        <ele>1045.9</ele>
        <time>2015-07-24T09:49:02Z</time>
      </trkpt>
      <trkpt lat="44.82679" lon="5.96619">
        <ele>1047.9</ele>
        <time>2015-07-24T09:49:07Z</time>
      </trkpt>
      <trkpt lat="44.82685" lon="5.96623">
        <ele>1041.4</ele>
        <time>2015-07-24T09:49:12Z</time>
      </trkpt>
      <trkpt lat="44.82689" lon="5.96629">
        <ele>1041.6</ele>
        <time>2015-07-24T09:49:17Z</time>
      </trkpt>
      <trkpt lat="44.82695" lon="5.96635">
        <ele>1036.3</ele>
        <time>2015-07-24T09:49:22Z</time>
      </trkpt>
      <trkpt lat="44.827" lon="5.96641">
        <ele>1032.7</ele>
        <time>2015-07-24T09:49:27Z</time>
      </trkpt>
      <trkpt lat="44.82707" lon="5.96645">
        <ele>1024</ele>
        <time>2015-07-24T09:49:32Z</time>
      </trkpt>
      <trkpt lat="44.82712" lon="5.9665">
        <ele>1031.1</ele>
        <time>2015-07-24T09:49:37Z</time>
      </trkpt>
      <trkpt lat="44.82717" lon="5.96657">
        <ele>1027.7</ele>
        <time>2015-07-24T09:49:42Z</time>
      </trkpt>
      <trkpt lat="44.82721" lon="5.96655">
        <ele>1023.6</ele>
        <time>2015-07-24T09:49:47Z</time>
      </trkpt>
      <trkpt lat="44.82719" lon="5.96647">
        <ele>1018.2</ele>
        <time>2015-07-24T09:49:52Z</time>
      </trkpt>
      <trkpt lat="44.82721" lon="5.96646">
        <ele>1013.3</ele>
        <time>2015-07-24T09:49:57Z</time>
      </trkpt>
      <trkpt lat="44.82724" lon="5.96646">
        <ele>1010.9</ele>
        <time>2015-07-24T09:50:02Z</time>
      </trkpt>
      <trkpt lat="44.82728" lon="5.96651">
        <ele>1016.9</ele>
        <time>2015-07-24T09:50:07Z</time>
      </trkpt>
      <trkpt lat="44.82731" lon="5.96655">
        <ele>1028.5</ele>
        <time>2015-07-24T09:50:12Z</time>
      </trkpt>
      <trkpt lat="44.82739" lon="5.96656">
        <ele>1027.8</ele>
        <time>2015-07-24T09:50:17Z</time>
      </trkpt>
      <trkpt lat="44.82745" lon="5.96656">
        <ele>1030.5</ele>
        <time>2015-07-24T09:50:22Z</time>
      </trkpt>
      <trkpt lat="44.82751" lon="5.96658">
        <ele>1032</ele>
        <time>2015-07-24T09:50:27Z</time>
      </trkpt>
      <trkpt lat="44.8276" lon="5.96661">
        <ele>1034.2</ele>
        <time>2015-07-24T09:50:32Z</time>
      </trkpt>
      <trkpt lat="44.82768" lon="5.96661">
        <ele>1026</ele>
        <time>2015-07-24T09:50:37Z</time>
      </trkpt>
      <trkpt lat="44.82773" lon="5.96659">
        <ele>1024</ele>
        <time>2015-07-24T09:50:42Z</time>
      </trkpt>
      <trkpt lat="44.82775" lon="5.96665">
        <ele>1029.7</ele>
        <time>2015-07-24T09:50:47Z</time>
      </trkpt>
      <trkpt lat="44.82781" lon="5.96665">
        <ele>1034</ele>
        <time>2015-07-24T09:50:52Z</time>
      </trkpt>
      <trkpt lat="44.82786" lon="5.96667">
        <ele>1034.1</ele>
        <time>2015-07-24T09:50:57Z</time>
      </trkpt>
      <trkpt lat="44.82791" lon="5.96665">
        <ele>1034.9</ele>
        <time>2015-07-24T09:51:02Z</time>
      </trkpt>
      <trkpt lat="44.82797" lon="5.9667">
        <ele>1039.9</ele>
        <time>2015-07-24T09:51:07Z</time>
      </trkpt>
      <trkpt lat="44.82804" lon="5.9667">
        <ele>1042.8</ele>
        <time>2015-07-24T09:51:12Z</time>
      </trkpt>
      <trkpt lat="44.82811" lon="5.96669">
        <ele>1039.5</ele>
        <time>2015-07-24T09:51:17Z</time>
      </trkpt>
      <trkpt lat="44.82819" lon="5.96665">
        <ele>1044.3</ele>
        <time>2015-07-24T09:51:22Z</time>
      </trkpt>
      <trkpt lat="44.82824" lon="5.96666">
        <ele>1047.5</ele>
        <time>2015-07-24T09:51:27Z</time>
      </trkpt>
      <trkpt lat="44.82831" lon="5.96667">
        <ele>1043.1</ele>
        <time>2015-07-24T09:51:32Z</time>
      </trkpt>
      <trkpt lat="44.82837" lon="5.96672">
        <ele>1037.4</ele>
        <time>2015-07-24T09:51:37Z</time>
      </trkpt>
      <trkpt lat="44.82843" lon="5.96674">
        <ele>1035.4</ele>
        <time>2015-07-24T09:51:42Z</time>
      </trkpt>
      <trkpt lat="44.82849" lon="5.96678">
        <ele>1038.9</ele>
        <time>2015-07-24T09:51:47Z</time>
      </trkpt>
      <trkpt lat="44.82856" lon="5.96679">
        <ele>1039.2</ele>
        <time>2015-07-24T09:51:52Z</time>
      </trkpt>
      <trkpt lat="44.8286" lon="5.96681">
        <ele>1041.5</ele>
        <time>2015-07-24T09:51:57Z</time>
      </trkpt>
      <trkpt lat="44.82868" lon="5.96679">
        <ele>1035.6</ele>
        <time>2015-07-24T09:52:02Z</time>
      </trkpt>
      <trkpt lat="44.82873" lon="5.96679">
        <ele>1035.6</ele>
        <time>2015-07-24T09:52:07Z</time>
      </trkpt>
      <trkpt lat="44.8288" lon="5.96677">
        <ele>1029.7</ele>
        <time>2015-07-24T09:52:12Z</time>
      </trkpt>
      <trkpt lat="44.82884" lon="5.9668">
        <ele>1033.7</ele>
        <time>2015-07-24T09:52:17Z</time>
      </trkpt>
      <trkpt lat="44.82892" lon="5.96682">
        <ele>1021.9</ele>
        <time>2015-07-24T09:52:22Z</time>
      </trkpt>
      <trkpt lat="44.82898" lon="5.96683">
        <ele>1021</ele>
        <time>2015-07-24T09:52:27Z</time>
      </trkpt>
      <trkpt lat="44.82905" lon="5.96686">
        <ele>1021.9</ele>
        <time>2015-07-24T09:52:32Z</time>
      </trkpt>
      <trkpt lat="44.82913" lon="5.96689">
        <ele>1016.8</ele>
        <time>2015-07-24T09:52:37Z</time>
      </trkpt>
      <trkpt lat="44.8292" lon="5.96692">
        <ele>1010.5</ele>
        <time>2015-07-24T09:52:42Z</time>
      </trkpt>
      <trkpt lat="44.82927" lon="5.96698">
        <ele>1005.2</ele>
        <time>2015-07-24T09:52:47Z</time>
      </trkpt>
      <trkpt lat="44.82932" lon="5.96704">
        <ele>1005</ele>
        <time>2015-07-24T09:52:52Z</time>
      </trkpt>
      <trkpt lat="44.82935" lon="5.96707">
        <ele>1012</ele>
        <time>2015-07-24T09:52:57Z</time>
      </trkpt>
      <trkpt lat="44.8294" lon="5.9671">
        <ele>1012.8</ele>
        <time>2015-07-24T09:53:02Z</time>
      </trkpt>
      <trkpt lat="44.82944" lon="5.96714">
        <ele>1014.4</ele>
        <time>2015-07-24T09:53:07Z</time>
      </trkpt>
      <trkpt lat="44.82947" lon="5.96719">
        <ele>1020.8</ele>
        <time>2015-07-24T09:53:12Z</time>
      </trkpt>
      <trkpt lat="44.82952" lon="5.96724">
        <ele>1021.8</ele>
        <time>2015-07-24T09:53:17Z</time>
      </trkpt>
      <trkpt lat="44.82956" lon="5.96729">
        <ele>1021</ele>
        <time>2015-07-24T09:53:22Z</time>
      </trkpt>
      <trkpt lat="44.82961" lon="5.96734">
        <ele>1025.7</ele>
        <time>2015-07-24T09:53:27Z</time>
      </trkpt>
      <trkpt lat="44.82966" lon="5.96739">
        <ele>1024.7</ele>
        <time>2015-07-24T09:53:32Z</time>
      </trkpt>
      <trkpt lat="44.82972" lon="5.96738">
        <ele>1020.7</ele>
        <time>2015-07-24T09:53:37Z</time>
      </trkpt>
      <trkpt lat="44.82977" lon="5.9674">
        <ele>1024.5</ele>
        <time>2015-07-24T09:53:42Z</time>
      </trkpt>
      <trkpt lat="44.82983" lon="5.96742">
        <ele>1023.5</ele>
        <time>2015-07-24T09:53:47Z</time>
      </trkpt>
      <trkpt lat="44.8299" lon="5.96747">
        <ele>1020.1</ele>
        <time>2015-07-24T09:53:52Z</time>
      </trkpt>
      <trkpt lat="44.82996" lon="5.96751">
        <ele>1020.4</ele>
        <time>2015-07-24T09:53:57Z</time>
      </trkpt>
      <trkpt lat="44.83001" lon="5.96752">
        <ele>1019.5</ele>
        <time>2015-07-24T09:54:02Z</time>
      </trkpt>
      <trkpt lat="44.83007" lon="5.96758">
        <ele>1016.6</ele>
        <time>2015-07-24T09:54:07Z</time>
      </trkpt>
      <trkpt lat="44.83015" lon="5.96759">
        <ele>1015.2</ele>
        <time>2015-07-24T09:54:12Z</time>
      </trkpt>
      <trkpt lat="44.8302" lon="5.96761">
        <ele>1017.9</ele>
        <time>2015-07-24T09:54:17Z</time>
      </trkpt>
      <trkpt lat="44.83027" lon="5.96762">
        <ele>1022.5</ele>
        <time>2015-07-24T09:54:22Z</time>
      </trkpt>
      <trkpt lat="44.83032" lon="5.96767">
        <ele>1021.2</ele>
        <time>2015-07-24T09:54:27Z</time>
      </trkpt>
      <trkpt lat="44.83039" lon="5.96775">
        <ele>1022.9</ele>
        <time>2015-07-24T09:54:32Z</time>
      </trkpt>
      <trkpt lat="44.83045" lon="5.96781">
        <ele>1023.9</ele>
        <time>2015-07-24T09:54:37Z</time>
      </trkpt>
      <trkpt lat="44.83051" lon="5.96787">
        <ele>1025.1</ele>
        <time>2015-07-24T09:54:42Z</time>
      </trkpt>
      <trkpt lat="44.83054" lon="5.96796">
        <ele>1028</ele>
        <time>2015-07-24T09:54:47Z</time>
      </trkpt>
      <trkpt lat="44.83057" lon="5.96808">
        <ele>1019.2</ele>
        <time>2015-07-24T09:54:52Z</time>
      </trkpt>
      <trkpt lat="44.8306" lon="5.96816">
        <ele>1013.2</ele>
        <time>2015-07-24T09:54:57Z</time>
      </trkpt>
      <trkpt lat="44.83063" lon="5.96825">
        <ele>1008.9</ele>
        <time>2015-07-24T09:55:02Z</time>
      </trkpt>
      <trkpt lat="44.83067" lon="5.96833">
        <ele>1005.6</ele>
        <time>2015-07-24T09:55:07Z</time>
      </trkpt>
      <trkpt lat="44.83069" lon="5.96841">
        <ele>1002.4</ele>
        <time>2015-07-24T09:55:12Z</time>
      </trkpt>
      <trkpt lat="44.83071" lon="5.96849">
        <ele>999.5</ele>
        <time>2015-07-24T09:55:17Z</time>
      </trkpt>
      <trkpt lat="44.83069" lon="5.96857">
        <ele>1001.2</ele>
        <time>2015-07-24T09:55:22Z</time>
      </trkpt>
      <trkpt lat="44.83068" lon="5.96865">
        <ele>999.1</ele>
        <time>2015-07-24T09:55:27Z</time>
      </trkpt>
      <trkpt lat="44.83066" lon="5.96872">
        <ele>998.1</ele>
        <time>2015-07-24T09:55:32Z</time>
      </trkpt>
      <trkpt lat="44.83062" lon="5.96883">
        <ele>1001.9</ele>
        <time>2015-07-24T09:55:37Z</time>
      </trkpt>
      <trkpt lat="44.83062" lon="5.96891">
        <ele>1004.8</ele>
        <time>2015-07-24T09:55:42Z</time>
      </trkpt>
      <trkpt lat="44.83066" lon="5.96901">
        <ele>1007.3</ele>
        <time>2015-07-24T09:55:47Z</time>
      </trkpt>
      <trkpt lat="44.83068" lon="5.96912">
        <ele>1015.2</ele>
        <time>2015-07-24T09:55:52Z</time>
      </trkpt>
      <trkpt lat="44.83067" lon="5.96923">
        <ele>1019.7</ele>
        <time>2015-07-24T09:55:57Z</time>
      </trkpt>
      <trkpt lat="44.83067" lon="5.9693">
        <ele>1021.1</ele>
        <time>2015-07-24T09:56:02Z</time>
      </trkpt>
      <trkpt lat="44.83067" lon="5.9694">
        <ele>1019.5</ele>
        <time>2015-07-24T09:56:07Z</time>
      </trkpt>
      <trkpt lat="44.83067" lon="5.96949">
        <ele>1016</ele>
        <time>2015-07-24T09:56:12Z</time>
      </trkpt>
      <trkpt lat="44.83065" lon="5.96957">
        <ele>1012.9</ele>
        <time>2015-07-24T09:56:17Z</time>
      </trkpt>
      <trkpt lat="44.83064" lon="5.96966">
        <ele>1010.5</ele>
        <time>2015-07-24T09:56:22Z</time>
      </trkpt>
      <trkpt lat="44.83067" lon="5.96974">
        <ele>1010.1</ele>
        <time>2015-07-24T09:56:27Z</time>
      </trkpt>
      <trkpt lat="44.83069" lon="5.96981">
        <ele>1010</ele>
        <time>2015-07-24T09:56:32Z</time>
      </trkpt>
      <trkpt lat="44.8307" lon="5.9699">
        <ele>1007.9</ele>
        <time>2015-07-24T09:56:37Z</time>
      </trkpt>
      <trkpt lat="44.83074" lon="5.96996">
        <ele>1012.4</ele>
        <time>2015-07-24T09:56:42Z</time>
      </trkpt>
      <trkpt lat="44.83075" lon="5.97001">
        <ele>1015.1</ele>
        <time>2015-07-24T09:56:47Z</time>
      </trkpt>
      <trkpt lat="44.83078" lon="5.9701">
        <ele>1013.9</ele>
        <time>2015-07-24T09:56:52Z</time>
      </trkpt>
      <trkpt lat="44.83077" lon="5.97018">
        <ele>1010.6</ele>
        <time>2015-07-24T09:56:57Z</time>
      </trkpt>
      <trkpt lat="44.83081" lon="5.97027">
        <ele>1010.3</ele>
        <time>2015-07-24T09:57:02Z</time>
      </trkpt>
      <trkpt lat="44.83081" lon="5.97036">
        <ele>1012.5</ele>
        <time>2015-07-24T09:57:07Z</time>
      </trkpt>
      <trkpt lat="44.83082" lon="5.97044">
        <ele>1011.7</ele>
        <time>2015-07-24T09:57:12Z</time>
      </trkpt>
      <trkpt lat="44.83081" lon="5.97054">
        <ele>1012.4</ele>
        <time>2015-07-24T09:57:17Z</time>
      </trkpt>
      <trkpt lat="44.83077" lon="5.97066">
        <ele>1012.5</ele>
        <time>2015-07-24T09:57:22Z</time>
      </trkpt>
      <trkpt lat="44.83082" lon="5.97072">
        <ele>1014.6</ele>
        <time>2015-07-24T09:57:27Z</time>
      </trkpt>
      <trkpt lat="44.83086" lon="5.9708">
        <ele>1015.3</ele>
        <time>2015-07-24T09:57:32Z</time>
      </trkpt>
      <trkpt lat="44.83088" lon="5.97087">
        <ele>1013</ele>
        <time>2015-07-24T09:57:37Z</time>
      </trkpt>
      <trkpt lat="44.8309" lon="5.97096">
        <ele>1010.1</ele>
        <time>2015-07-24T09:57:42Z</time>
      </trkpt>
      <trkpt lat="44.83091" lon="5.97105">
        <ele>1009.4</ele>
        <time>2015-07-24T09:57:47Z</time>
      </trkpt>
      <trkpt lat="44.83093" lon="5.97116">
        <ele>1008.3</ele>
        <time>2015-07-24T09:57:52Z</time>
      </trkpt>
      <trkpt lat="44.83093" lon="5.97125">
        <ele>1008.9</ele>
        <time>2015-07-24T09:57:57Z</time>
      </trkpt>
      <trkpt lat="44.83093" lon="5.97135">
        <ele>1010</ele>
        <time>2015-07-24T09:58:02Z</time>
      </trkpt>
      <trkpt lat="44.83093" lon="5.97145">
        <ele>1012.4</ele>
        <time>2015-07-24T09:58:07Z</time>
      </trkpt>
      <trkpt lat="44.83093" lon="5.97153">
        <ele>1015.7</ele>
        <time>2015-07-24T09:58:12Z</time>
      </trkpt>
      <trkpt lat="44.83093" lon="5.97159">
        <ele>1023.6</ele>
        <time>2015-07-24T09:58:17Z</time>
      </trkpt>
      <trkpt lat="44.8309" lon="5.97167">
        <ele>1038.6</ele>
        <time>2015-07-24T09:58:22Z</time>
      </trkpt>
      <trkpt lat="44.83094" lon="5.97174">
        <ele>1045.3</ele>
        <time>2015-07-24T09:58:27Z</time>
      </trkpt>
      <trkpt lat="44.83097" lon="5.97176">
        <ele>1045.8</ele>
        <time>2015-07-24T09:58:32Z</time>
      </trkpt>
      <trkpt lat="44.83099" lon="5.97176">
        <ele>1045</ele>
        <time>2015-07-24T09:58:37Z</time>
      </trkpt>
      <trkpt lat="44.83102" lon="5.97176">
        <ele>1045.5</ele>
        <time>2015-07-24T09:58:42Z</time>
      </trkpt>
      <trkpt lat="44.83109" lon="5.97169">
        <ele>1043</ele>
        <time>2015-07-24T09:58:47Z</time>
      </trkpt>
      <trkpt lat="44.83109" lon="5.97162">
        <ele>1037</ele>
        <time>2015-07-24T09:58:52Z</time>
      </trkpt>
      <trkpt lat="44.83116" lon="5.97152">
        <ele>1026.6</ele>
        <time>2015-07-24T09:58:57Z</time>
      </trkpt>
      <trkpt lat="44.8312" lon="5.97146">
        <ele>1016.5</ele>
        <time>2015-07-24T09:59:02Z</time>
      </trkpt>
      <trkpt lat="44.83128" lon="5.97135">
        <ele>1004.7</ele>
        <time>2015-07-24T09:59:07Z</time>
      </trkpt>
      <trkpt lat="44.83135" lon="5.97129">
        <ele>991.3</ele>
        <time>2015-07-24T09:59:12Z</time>
      </trkpt>
      <trkpt lat="44.83141" lon="5.9712">
        <ele>979.9</ele>
        <time>2015-07-24T09:59:17Z</time>
      </trkpt>
      <trkpt lat="44.83137" lon="5.97112">
        <ele>978.3</ele>
        <time>2015-07-24T09:59:22Z</time>
      </trkpt>
      <trkpt lat="44.83137" lon="5.97101">
        <ele>977.3</ele>
        <time>2015-07-24T09:59:27Z</time>
      </trkpt>
      <trkpt lat="44.83128" lon="5.97093">
        <ele>982.4</ele>
        <time>2015-07-24T09:59:32Z</time>
      </trkpt>
      <trkpt lat="44.83123" lon="5.97083">
        <ele>984.4</ele>
        <time>2015-07-24T09:59:37Z</time>
      </trkpt>
      <trkpt lat="44.83123" lon="5.97073">
        <ele>983.2</ele>
        <time>2015-07-24T09:59:42Z</time>
      </trkpt>
      <trkpt lat="44.83124" lon="5.97064">
        <ele>987.8</ele>
        <time>2015-07-24T09:59:47Z</time>
      </trkpt>
      <trkpt lat="44.8312" lon="5.97054">
        <ele>993.6</ele>
        <time>2015-07-24T09:59:52Z</time>
      </trkpt>
      <trkpt lat="44.83115" lon="5.97043">
        <ele>996.6</ele>
        <time>2015-07-24T09:59:57Z</time>
      </trkpt>
      <trkpt lat="44.83107" lon="5.97036">
        <ele>995.7</ele>
        <time>2015-07-24T10:00:02Z</time>
      </trkpt>
      <trkpt lat="44.83101" lon="5.97027">
        <ele>994.9</ele>
        <time>2015-07-24T10:00:07Z</time>
      </trkpt>
      <trkpt lat="44.83098" lon="5.97016">
        <ele>994.4</ele>
        <time>2015-07-24T10:00:12Z</time>
      </trkpt>
      <trkpt lat="44.83095" lon="5.97007">
        <ele>996.4</ele>
        <time>2015-07-24T10:00:17Z</time>
      </trkpt>
      <trkpt lat="44.83092" lon="5.96998">
        <ele>997.4</ele>
        <time>2015-07-24T10:00:22Z</time>
      </trkpt>
      <trkpt lat="44.83089" lon="5.96991">
        <ele>998.4</ele>
        <time>2015-07-24T10:00:27Z</time>
      </trkpt>
      <trkpt lat="44.83086" lon="5.96982">
        <ele>999</ele>
        <time>2015-07-24T10:00:32Z</time>
      </trkpt>
      <trkpt lat="44.83088" lon="5.96973">
        <ele>996.4</ele>
        <time>2015-07-24T10:00:37Z</time>
      </trkpt>
      <trkpt lat="44.83092" lon="5.96965">
        <ele>992.5</ele>
        <time>2015-07-24T10:00:42Z</time>
      </trkpt>
      <trkpt lat="44.83094" lon="5.96956">
        <ele>993.5</ele>
        <time>2015-07-24T10:00:47Z</time>
      </trkpt>
      <trkpt lat="44.83092" lon="5.96946">
        <ele>1000.4</ele>
        <time>2015-07-24T10:00:52Z</time>
      </trkpt>
      <trkpt lat="44.83093" lon="5.96937">
        <ele>1001.6</ele>
        <time>2015-07-24T10:00:57Z</time>
      </trkpt>
      <trkpt lat="44.83097" lon="5.96923">
        <ele>998.8</ele>
        <time>2015-07-24T10:01:02Z</time>
      </trkpt>
      <trkpt lat="44.83106" lon="5.96909">
        <ele>991.8</ele>
        <time>2015-07-24T10:01:07Z</time>
      </trkpt>
      <trkpt lat="44.83104" lon="5.96905">
        <ele>994.5</ele>
        <time>2015-07-24T10:01:12Z</time>
      </trkpt>
      <trkpt lat="44.83107" lon="5.96892">
        <ele>988.9</ele>
        <time>2015-07-24T10:01:17Z</time>
      </trkpt>
      <trkpt lat="44.83106" lon="5.96885">
        <ele>983.4</ele>
        <time>2015-07-24T10:01:22Z</time>
      </trkpt>
      <trkpt lat="44.83111" lon="5.96874">
        <ele>979.9</ele>
        <time>2015-07-24T10:01:27Z</time>
      </trkpt>
      <trkpt lat="44.83114" lon="5.96863">
        <ele>975.7</ele>
        <time>2015-07-24T10:01:32Z</time>
      </trkpt>
      <trkpt lat="44.8311" lon="5.96853">
        <ele>977.7</ele>
        <time>2015-07-24T10:01:37Z</time>
      </trkpt>
      <trkpt lat="44.83106" lon="5.96845">
        <ele>982.1</ele>
        <time>2015-07-24T10:01:42Z</time>
      </trkpt>
      <trkpt lat="44.831" lon="5.96837">
        <ele>985.8</ele>
        <time>2015-07-24T10:01:47Z</time>
      </trkpt>
      <trkpt lat="44.83096" lon="5.96828">
        <ele>988.6</ele>
        <time>2015-07-24T10:01:52Z</time>
      </trkpt>
      <trkpt lat="44.83094" lon="5.96816">
        <ele>989.1</ele>
        <time>2015-07-24T10:01:57Z</time>
      </trkpt>
      <trkpt lat="44.83093" lon="5.96806">
        <ele>988.2</ele>
        <time>2015-07-24T10:02:02Z</time>
      </trkpt>
      <trkpt lat="44.83094" lon="5.96798">
        <ele>986.7</ele>
        <time>2015-07-24T10:02:07Z</time>
      </trkpt>
      <trkpt lat="44.83091" lon="5.96788">
        <ele>984</ele>
        <time>2015-07-24T10:02:12Z</time>
      </trkpt>
      <trkpt lat="44.83089" lon="5.96779">
        <ele>985.4</ele>
        <time>2015-07-24T10:02:17Z</time>
      </trkpt>
      <trkpt lat="44.83088" lon="5.96768">
        <ele>981.2</ele>
        <time>2015-07-24T10:02:22Z</time>
      </trkpt>
      <trkpt lat="44.83088" lon="5.9676">
        <ele>983.4</ele>
        <time>2015-07-24T10:02:27Z</time>
      </trkpt>
      <trkpt lat="44.83083" lon="5.96749">
        <ele>981.5</ele>
        <time>2015-07-24T10:02:32Z</time>
      </trkpt>
      <trkpt lat="44.83077" lon="5.96741">
        <ele>980.8</ele>
        <time>2015-07-24T10:02:37Z</time>
      </trkpt>
      <trkpt lat="44.83071" lon="5.96735">
        <ele>979.7</ele>
        <time>2015-07-24T10:02:42Z</time>
      </trkpt>
      <trkpt lat="44.83065" lon="5.96728">
        <ele>980.1</ele>
        <time>2015-07-24T10:02:47Z</time>
      </trkpt>
      <trkpt lat="44.83059" lon="5.96722">
        <ele>981.9</ele>
        <time>2015-07-24T10:02:52Z</time>
      </trkpt>
      <trkpt lat="44.83054" lon="5.96715">
        <ele>984.1</ele>
        <time>2015-07-24T10:02:57Z</time>
      </trkpt>
      <trkpt lat="44.8305" lon="5.96706">
        <ele>990.2</ele>
        <time>2015-07-24T10:03:02Z</time>
      </trkpt>
      <trkpt lat="44.8305" lon="5.96701">
        <ele>989.1</ele>
        <time>2015-07-24T10:03:07Z</time>
      </trkpt>
      <trkpt lat="44.83052" lon="5.96694">
        <ele>986.4</ele>
        <time>2015-07-24T10:03:12Z</time>
      </trkpt>
      <trkpt lat="44.83056" lon="5.96685">
        <ele>982.7</ele>
        <time>2015-07-24T10:03:17Z</time>
      </trkpt>
      <trkpt lat="44.83062" lon="5.96678">
        <ele>975.7</ele>
        <time>2015-07-24T10:03:22Z</time>
      </trkpt>
      <trkpt lat="44.83066" lon="5.96669">
        <ele>971.1</ele>
        <time>2015-07-24T10:03:27Z</time>
      </trkpt>
      <trkpt lat="44.83061" lon="5.96662">
        <ele>968.5</ele>
        <time>2015-07-24T10:03:32Z</time>
      </trkpt>
      <trkpt lat="44.8306" lon="5.96653">
        <ele>969.1</ele>
        <time>2015-07-24T10:03:37Z</time>
      </trkpt>
      <trkpt lat="44.83056" lon="5.96644">
        <ele>970.5</ele>
        <time>2015-07-24T10:03:42Z</time>
      </trkpt>
      <trkpt lat="44.83051" lon="5.96636">
        <ele>972.8</ele>
        <time>2015-07-24T10:03:47Z</time>
      </trkpt>
      <trkpt lat="44.83048" lon="5.96627">
        <ele>973.4</ele>
        <time>2015-07-24T10:03:52Z</time>
      </trkpt>
      <trkpt lat="44.83043" lon="5.96619">
        <ele>974.7</ele>
        <time>2015-07-24T10:03:57Z</time>
      </trkpt>
      <trkpt lat="44.83039" lon="5.96611">
        <ele>975.9</ele>
        <time>2015-07-24T10:04:02Z</time>
      </trkpt>
      <trkpt lat="44.83033" lon="5.96606">
        <ele>977</ele>
        <time>2015-07-24T10:04:07Z</time>
      </trkpt>
      <trkpt lat="44.83028" lon="5.96601">
        <ele>977.6</ele>
        <time>2015-07-24T10:04:12Z</time>
      </trkpt>
      <trkpt lat="44.83023" lon="5.96594">
        <ele>977.7</ele>
        <time>2015-07-24T10:04:17Z</time>
      </trkpt>
      <trkpt lat="44.83019" lon="5.96588">
        <ele>978.4</ele>
        <time>2015-07-24T10:04:22Z</time>
      </trkpt>
      <trkpt lat="44.83014" lon="5.96582">
        <ele>979.7</ele>
        <time>2015-07-24T10:04:27Z</time>
      </trkpt>
      <trkpt lat="44.8301" lon="5.96576">
        <ele>982</ele>
        <time>2015-07-24T10:04:32Z</time>
      </trkpt>
      <trkpt lat="44.83006" lon="5.9657">
        <ele>982.2</ele>
        <time>2015-07-24T10:04:37Z</time>
      </trkpt>
      <trkpt lat="44.83001" lon="5.96563">
        <ele>983.1</ele>
        <time>2015-07-24T10:04:42Z</time>
      </trkpt>
      <trkpt lat="44.82996" lon="5.96558">
        <ele>983.4</ele>
        <time>2015-07-24T10:04:47Z</time>
      </trkpt>
      <trkpt lat="44.82994" lon="5.96551">
        <ele>984.6</ele>
        <time>2015-07-24T10:04:52Z</time>
      </trkpt>
      <trkpt lat="44.82992" lon="5.96543">
        <ele>986.9</ele>
        <time>2015-07-24T10:04:57Z</time>
      </trkpt>
      <trkpt lat="44.82989" lon="5.96536">
        <ele>988.4</ele>
        <time>2015-07-24T10:05:02Z</time>
      </trkpt>
      <trkpt lat="44.82985" lon="5.96529">
        <ele>989.4</ele>
        <time>2015-07-24T10:05:07Z</time>
      </trkpt>
      <trkpt lat="44.82981" lon="5.96523">
        <ele>991.1</ele>
        <time>2015-07-24T10:05:12Z</time>
      </trkpt>
      <trkpt lat="44.82977" lon="5.96517">
        <ele>991.3</ele>
        <time>2015-07-24T10:05:17Z</time>
      </trkpt>
      <trkpt lat="44.82973" lon="5.9651">
        <ele>992.1</ele>
        <time>2015-07-24T10:05:22Z</time>
      </trkpt>
      <trkpt lat="44.82972" lon="5.96502">
        <ele>988.5</ele>
        <time>2015-07-24T10:05:27Z</time>
      </trkpt>
      <trkpt lat="44.82968" lon="5.96497">
        <ele>993</ele>
        <time>2015-07-24T10:05:32Z</time>
      </trkpt>
      <trkpt lat="44.82963" lon="5.96492">
        <ele>997.4</ele>
        <time>2015-07-24T10:05:37Z</time>
      </trkpt>
      <trkpt lat="44.82958" lon="5.96486">
        <ele>998.2</ele>
        <time>2015-07-24T10:05:42Z</time>
      </trkpt>
      <trkpt lat="44.82953" lon="5.96481">
        <ele>1003.9</ele>
        <time>2015-07-24T10:05:47Z</time>
      </trkpt>
      <trkpt lat="44.82948" lon="5.96475">
        <ele>1009.5</ele>
        <time>2015-07-24T10:05:52Z</time>
      </trkpt>
      <trkpt lat="44.82942" lon="5.96473">
        <ele>1018.2</ele>
        <time>2015-07-24T10:05:57Z</time>
      </trkpt>
      <trkpt lat="44.82937" lon="5.96466">
        <ele>1018.1</ele>
        <time>2015-07-24T10:06:02Z</time>
      </trkpt>
      <trkpt lat="44.8293" lon="5.96464">
        <ele>1021</ele>
        <time>2015-07-24T10:06:07Z</time>
      </trkpt>
      <trkpt lat="44.82924" lon="5.96464">
        <ele>1029.5</ele>
        <time>2015-07-24T10:06:12Z</time>
      </trkpt>
      <trkpt lat="44.82917" lon="5.9646">
        <ele>1034.3</ele>
        <time>2015-07-24T10:06:17Z</time>
      </trkpt>
      <trkpt lat="44.82912" lon="5.96454">
        <ele>1032</ele>
        <time>2015-07-24T10:06:22Z</time>
      </trkpt>
      <trkpt lat="44.82905" lon="5.96453">
        <ele>1036.5</ele>
        <time>2015-07-24T10:06:27Z</time>
      </trkpt>
      <trkpt lat="44.82898" lon="5.96448">
        <ele>1041.4</ele>
        <time>2015-07-24T10:06:32Z</time>
      </trkpt>
      <trkpt lat="44.8289" lon="5.96447">
        <ele>1048.1</ele>
        <time>2015-07-24T10:06:37Z</time>
      </trkpt>
      <trkpt lat="44.82881" lon="5.96447">
        <ele>1057</ele>
        <time>2015-07-24T10:06:42Z</time>
      </trkpt>
      <trkpt lat="44.82873" lon="5.96449">
        <ele>1067.1</ele>
        <time>2015-07-24T10:06:47Z</time>
      </trkpt>
      <trkpt lat="44.82865" lon="5.96447">
        <ele>1074.9</ele>
        <time>2015-07-24T10:06:52Z</time>
      </trkpt>
      <trkpt lat="44.82857" lon="5.96449">
        <ele>1081.2</ele>
        <time>2015-07-24T10:06:57Z</time>
      </trkpt>
      <trkpt lat="44.8285" lon="5.96448">
        <ele>1084.1</ele>
        <time>2015-07-24T10:07:02Z</time>
      </trkpt>
      <trkpt lat="44.82845" lon="5.96442">
        <ele>1082.7</ele>
        <time>2015-07-24T10:07:07Z</time>
      </trkpt>
      <trkpt lat="44.8284" lon="5.96436">
        <ele>1075.6</ele>
        <time>2015-07-24T10:07:12Z</time>
      </trkpt>
      <trkpt lat="44.82838" lon="5.96431">
        <ele>1069.7</ele>
        <time>2015-07-24T10:07:17Z</time>
      </trkpt>
      <trkpt lat="44.82834" lon="5.96428">
        <ele>1062.8</ele>
        <time>2015-07-24T10:07:22Z</time>
      </trkpt>
      <trkpt lat="44.82828" lon="5.96422">
        <ele>1053</ele>
        <time>2015-07-24T10:07:27Z</time>
      </trkpt>
      <trkpt lat="44.82824" lon="5.96415">
        <ele>1039.9</ele>
        <time>2015-07-24T10:07:32Z</time>
      </trkpt>
      <trkpt lat="44.82819" lon="5.96408">
        <ele>1028.2</ele>
        <time>2015-07-24T10:07:37Z</time>
      </trkpt>
      <trkpt lat="44.82815" lon="5.964">
        <ele>1018.1</ele>
        <time>2015-07-24T10:07:42Z</time>
      </trkpt>
      <trkpt lat="44.82812" lon="5.96395">
        <ele>1006.4</ele>
        <time>2015-07-24T10:07:47Z</time>
      </trkpt>
      <trkpt lat="44.82809" lon="5.96387">
        <ele>999.9</ele>
        <time>2015-07-24T10:07:52Z</time>
      </trkpt>
      <trkpt lat="44.82805" lon="5.96379">
        <ele>996.4</ele>
        <time>2015-07-24T10:07:57Z</time>
      </trkpt>
      <trkpt lat="44.82801" lon="5.9637">
        <ele>995.4</ele>
        <time>2015-07-24T10:08:02Z</time>
      </trkpt>
      <trkpt lat="44.82798" lon="5.96361">
        <ele>994.2</ele>
        <time>2015-07-24T10:08:07Z</time>
      </trkpt>
      <trkpt lat="44.82795" lon="5.96352">
        <ele>994.1</ele>
        <time>2015-07-24T10:08:12Z</time>
      </trkpt>
      <trkpt lat="44.82792" lon="5.96342">
        <ele>995</ele>
        <time>2015-07-24T10:08:17Z</time>
      </trkpt>
      <trkpt lat="44.8279" lon="5.96332">
        <ele>995.8</ele>
        <time>2015-07-24T10:08:22Z</time>
      </trkpt>
      <trkpt lat="44.82789" lon="5.96321">
        <ele>997.2</ele>
        <time>2015-07-24T10:08:27Z</time>
      </trkpt>
      <trkpt lat="44.8279" lon="5.96312">
        <ele>996.2</ele>
        <time>2015-07-24T10:08:32Z</time>
      </trkpt>
      <trkpt lat="44.8279" lon="5.96301">
        <ele>994.8</ele>
        <time>2015-07-24T10:08:37Z</time>
      </trkpt>
      <trkpt lat="44.82789" lon="5.96292">
        <ele>994.8</ele>
        <time>2015-07-24T10:08:42Z</time>
      </trkpt>
      <trkpt lat="44.8279" lon="5.96281">
        <ele>992.7</ele>
        <time>2015-07-24T10:08:47Z</time>
      </trkpt>
      <trkpt lat="44.82787" lon="5.96269">
        <ele>996</ele>
        <time>2015-07-24T10:08:52Z</time>
      </trkpt>
      <trkpt lat="44.82787" lon="5.96259">
        <ele>995.2</ele>
        <time>2015-07-24T10:08:57Z</time>
      </trkpt>
      <trkpt lat="44.82784" lon="5.9625">
        <ele>995.7</ele>
        <time>2015-07-24T10:09:02Z</time>
      </trkpt>
      <trkpt lat="44.82784" lon="5.96241">
        <ele>995</ele>
        <time>2015-07-24T10:09:07Z</time>
      </trkpt>
      <trkpt lat="44.82785" lon="5.96232">
        <ele>994.8</ele>
        <time>2015-07-24T10:09:12Z</time>
      </trkpt>
      <trkpt lat="44.82787" lon="5.96222">
        <ele>994.5</ele>
        <time>2015-07-24T10:09:17Z</time>
      </trkpt>
      <trkpt lat="44.82789" lon="5.96213">
        <ele>995.3</ele>
        <time>2015-07-24T10:09:22Z</time>
      </trkpt>
      <trkpt lat="44.82792" lon="5.96206">
        <ele>996.1</ele>
        <time>2015-07-24T10:09:27Z</time>
      </trkpt>
      <trkpt lat="44.82794" lon="5.962">
        <ele>997.2</ele>
        <time>2015-07-24T10:09:32Z</time>
      </trkpt>
      <trkpt lat="44.82797" lon="5.96193">
        <ele>998.8</ele>
        <time>2015-07-24T10:09:37Z</time>
      </trkpt>
      <trkpt lat="44.82797" lon="5.96183">
        <ele>1000.9</ele>
        <time>2015-07-24T10:09:42Z</time>
      </trkpt>
      <trkpt lat="44.82797" lon="5.96171">
        <ele>1003</ele>
        <time>2015-07-24T10:09:47Z</time>
      </trkpt>
      <trkpt lat="44.82794" lon="5.96161">
        <ele>1005</ele>
        <time>2015-07-24T10:09:52Z</time>
      </trkpt>
      <trkpt lat="44.82791" lon="5.96151">
        <ele>1005.6</ele>
        <time>2015-07-24T10:09:57Z</time>
      </trkpt>
      <trkpt lat="44.82789" lon="5.96142">
        <ele>1005.2</ele>
        <time>2015-07-24T10:10:02Z</time>
      </trkpt>
      <trkpt lat="44.8279" lon="5.96133">
        <ele>1002</ele>
        <time>2015-07-24T10:10:07Z</time>
      </trkpt>
      <trkpt lat="44.82788" lon="5.96123">
        <ele>1001.4</ele>
        <time>2015-07-24T10:10:12Z</time>
      </trkpt>
      <trkpt lat="44.82783" lon="5.96115">
        <ele>1001.9</ele>
        <time>2015-07-24T10:10:17Z</time>
      </trkpt>
      <trkpt lat="44.82778" lon="5.96108">
        <ele>1002.7</ele>
        <time>2015-07-24T10:10:22Z</time>
      </trkpt>
      <trkpt lat="44.82773" lon="5.96101">
        <ele>1003.9</ele>
        <time>2015-07-24T10:10:27Z</time>
      </trkpt>
      <trkpt lat="44.82769" lon="5.96094">
        <ele>1005.5</ele>
        <time>2015-07-24T10:10:32Z</time>
      </trkpt>
      <trkpt lat="44.82768" lon="5.96086">
        <ele>1006.5</ele>
        <time>2015-07-24T10:10:37Z</time>
      </trkpt>
      <trkpt lat="44.82767" lon="5.96078">
        <ele>1008.1</ele>
        <time>2015-07-24T10:10:42Z</time>
      </trkpt>
      <trkpt lat="44.82766" lon="5.9607">
        <ele>1009.4</ele>
        <time>2015-07-24T10:10:47Z</time>
      </trkpt>
      <trkpt lat="44.82766" lon="5.96061">
        <ele>1009.7</ele>
        <time>2015-07-24T10:10:52Z</time>
      </trkpt>
      <trkpt lat="44.82767" lon="5.96051">
        <ele>1008.9</ele>
        <time>2015-07-24T10:10:57Z</time>
      </trkpt>
      <trkpt lat="44.8277" lon="5.96046">
        <ele>1008</ele>
        <time>2015-07-24T10:11:02Z</time>
      </trkpt>
      <trkpt lat="44.82775" lon="5.96044">
        <ele>1005.3</ele>
        <time>2015-07-24T10:11:07Z</time>
      </trkpt>
      <trkpt lat="44.82776" lon="5.96043">
        <ele>1006.6</ele>
        <time>2015-07-24T10:11:12Z</time>
      </trkpt>
      <trkpt lat="44.82776" lon="5.96044">
        <ele>1007.6</ele>
        <time>2015-07-24T10:11:17Z</time>
      </trkpt>
      <trkpt lat="44.82778" lon="5.96042">
        <ele>1005.5</ele>
        <time>2015-07-24T10:11:22Z</time>
      </trkpt>
      <trkpt lat="44.82777" lon="5.96042">
        <ele>1006</ele>
        <time>2015-07-24T10:11:27Z</time>
      </trkpt>
      <trkpt lat="44.82775" lon="5.96035">
        <ele>1008.2</ele>
        <time>2015-07-24T10:11:32Z</time>
      </trkpt>
      <trkpt lat="44.82774" lon="5.96027">
        <ele>1009</ele>
        <time>2015-07-24T10:11:37Z</time>
      </trkpt>
      <trkpt lat="44.82775" lon="5.96018">
        <ele>1008.4</ele>
        <time>2015-07-24T10:11:42Z</time>
      </trkpt>
      <trkpt lat="44.8277" lon="5.96014">
        <ele>1010.9</ele>
        <time>2015-07-24T10:11:47Z</time>
      </trkpt>
      <trkpt lat="44.82767" lon="5.96007">
        <ele>1013.5</ele>
        <time>2015-07-24T10:11:52Z</time>
      </trkpt>
      <trkpt lat="44.82766" lon="5.95999">
        <ele>1013.7</ele>
        <time>2015-07-24T10:11:57Z</time>
      </trkpt>
      <trkpt lat="44.82764" lon="5.95992">
        <ele>1013.5</ele>
        <time>2015-07-24T10:12:02Z</time>
      </trkpt>
      <trkpt lat="44.82763" lon="5.95983">
        <ele>1014.8</ele>
        <time>2015-07-24T10:12:07Z</time>
      </trkpt>
      <trkpt lat="44.82763" lon="5.95975">
        <ele>1015</ele>
        <time>2015-07-24T10:12:12Z</time>
      </trkpt>
      <trkpt lat="44.82763" lon="5.95967">
        <ele>1014.5</ele>
        <time>2015-07-24T10:12:17Z</time>
      </trkpt>
      <trkpt lat="44.82764" lon="5.95959">
        <ele>1013</ele>
        <time>2015-07-24T10:12:22Z</time>
      </trkpt>
      <trkpt lat="44.82763" lon="5.95957">
        <ele>1015.2</ele>
        <time>2015-07-24T10:12:27Z</time>
      </trkpt>
      <trkpt lat="44.82762" lon="5.95956">
        <ele>1015.1</ele>
        <time>2015-07-24T10:12:32Z</time>
      </trkpt>
      <trkpt lat="44.82762" lon="5.95953">
        <ele>1014.4</ele>
        <time>2015-07-24T10:12:37Z</time>
      </trkpt>
      <trkpt lat="44.82762" lon="5.95946">
        <ele>1014.5</ele>
        <time>2015-07-24T10:12:42Z</time>
      </trkpt>
      <trkpt lat="44.82763" lon="5.95941">
        <ele>1012.6</ele>
        <time>2015-07-24T10:12:47Z</time>
      </trkpt>
      <trkpt lat="44.82763" lon="5.95934">
        <ele>1012.4</ele>
        <time>2015-07-24T10:12:52Z</time>
      </trkpt>
      <trkpt lat="44.82762" lon="5.95925">
        <ele>1013.5</ele>
        <time>2015-07-24T10:12:57Z</time>
      </trkpt>
      <trkpt lat="44.8276" lon="5.95917">
        <ele>1018</ele>
        <time>2015-07-24T10:13:02Z</time>
      </trkpt>
      <trkpt lat="44.82761" lon="5.95907">
        <ele>1017.9</ele>
        <time>2015-07-24T10:13:07Z</time>
      </trkpt>
      <trkpt lat="44.8276" lon="5.95899">
        <ele>1020.7</ele>
        <time>2015-07-24T10:13:12Z</time>
      </trkpt>
      <trkpt lat="44.82759" lon="5.9589">
        <ele>1022.2</ele>
        <time>2015-07-24T10:13:17Z</time>
      </trkpt>
      <trkpt lat="44.82761" lon="5.95881">
        <ele>1023.1</ele>
        <time>2015-07-24T10:13:22Z</time>
      </trkpt>
      <trkpt lat="44.82761" lon="5.95872">
        <ele>1023.7</ele>
        <time>2015-07-24T10:13:27Z</time>
      </trkpt>
      <trkpt lat="44.8276" lon="5.95865">
        <ele>1026</ele>
        <time>2015-07-24T10:13:32Z</time>
      </trkpt>
      <trkpt lat="44.82759" lon="5.95856">
        <ele>1027.9</ele>
        <time>2015-07-24T10:13:37Z</time>
      </trkpt>
      <trkpt lat="44.82759" lon="5.95848">
        <ele>1028.6</ele>
        <time>2015-07-24T10:13:42Z</time>
      </trkpt>
      <trkpt lat="44.8276" lon="5.95839">
        <ele>1028.2</ele>
        <time>2015-07-24T10:13:47Z</time>
      </trkpt>
      <trkpt lat="44.82766" lon="5.95828">
        <ele>1024.1</ele>
        <time>2015-07-24T10:13:52Z</time>
      </trkpt>
      <trkpt lat="44.82763" lon="5.95819">
        <ele>1025.7</ele>
        <time>2015-07-24T10:13:57Z</time>
      </trkpt>
      <trkpt lat="44.82761" lon="5.95811">
        <ele>1027.4</ele>
        <time>2015-07-24T10:14:02Z</time>
      </trkpt>
      <trkpt lat="44.82761" lon="5.95802">
        <ele>1027.6</ele>
        <time>2015-07-24T10:14:07Z</time>
      </trkpt>
      <trkpt lat="44.8276" lon="5.95794">
        <ele>1031.5</ele>
        <time>2015-07-24T10:14:12Z</time>
      </trkpt>
      <trkpt lat="44.82761" lon="5.95783">
        <ele>1027.4</ele>
        <time>2015-07-24T10:14:17Z</time>
      </trkpt>
      <trkpt lat="44.8276" lon="5.95777">
        <ele>1029.3</ele>
        <time>2015-07-24T10:14:22Z</time>
      </trkpt>
      <trkpt lat="44.82763" lon="5.95775">
        <ele>1026.4</ele>
        <time>2015-07-24T10:14:27Z</time>
      </trkpt>
      <trkpt lat="44.82759" lon="5.95775">
        <ele>1027.2</ele>
        <time>2015-07-24T10:14:32Z</time>
      </trkpt>
      <trkpt lat="44.82756" lon="5.95771">
        <ele>1028.6</ele>
        <time>2015-07-24T10:14:37Z</time>
      </trkpt>
      <trkpt lat="44.82753" lon="5.95769">
        <ele>1031.4</ele>
        <time>2015-07-24T10:14:42Z</time>
      </trkpt>
      <trkpt lat="44.82751" lon="5.9577">
        <ele>1032.1</ele>
        <time>2015-07-24T10:14:47Z</time>
      </trkpt>
      <trkpt lat="44.82752" lon="5.95773">
        <ele>1030.9</ele>
        <time>2015-07-24T10:14:52Z</time>
      </trkpt>
      <trkpt lat="44.82753" lon="5.95772">
        <ele>1026.9</ele>
        <time>2015-07-24T10:14:57Z</time>
      </trkpt>
      <trkpt lat="44.82754" lon="5.95772">
        <ele>1028.9</ele>
        <time>2015-07-24T10:15:02Z</time>
      </trkpt>
      <trkpt lat="44.82755" lon="5.9577">
        <ele>1030.5</ele>
        <time>2015-07-24T10:15:07Z</time>
      </trkpt>
      <trkpt lat="44.82754" lon="5.9577">
        <ele>1030</ele>
        <time>2015-07-24T10:15:12Z</time>
      </trkpt>
      <trkpt lat="44.82752" lon="5.95771">
        <ele>1030.9</ele>
        <time>2015-07-24T10:15:17Z</time>
      </trkpt>
      <trkpt lat="44.82753" lon="5.95772">
        <ele>1031</ele>
        <time>2015-07-24T10:15:22Z</time>
      </trkpt>
      <trkpt lat="44.82753" lon="5.95771">
        <ele>1028.9</ele>
        <time>2015-07-24T10:15:27Z</time>
      </trkpt>
      <trkpt lat="44.82752" lon="5.95771">
        <ele>1030.2</ele>
        <time>2015-07-24T10:15:32Z</time>
      </trkpt>
      <trkpt lat="44.82753" lon="5.95769">
        <ele>1030.2</ele>
        <time>2015-07-24T10:15:37Z</time>
      </trkpt>
      <trkpt lat="44.82754" lon="5.95771">
        <ele>1031.4</ele>
        <time>2015-07-24T10:15:42Z</time>
      </trkpt>
      <trkpt lat="44.82754" lon="5.9577">
        <ele>1031.4</ele>
        <time>2015-07-24T10:15:47Z</time>
      </trkpt>
      <trkpt lat="44.82752" lon="5.9577">
        <ele>1035.2</ele>
        <time>2015-07-24T10:15:52Z</time>
      </trkpt>
      <trkpt lat="44.8275" lon="5.95772">
        <ele>1037.3</ele>
        <time>2015-07-24T10:15:57Z</time>
      </trkpt>
      <trkpt lat="44.8275" lon="5.95771">
        <ele>1039.5</ele>
        <time>2015-07-24T10:16:02Z</time>
      </trkpt>
      <trkpt lat="44.8275" lon="5.95771">
        <ele>1038.4</ele>
        <time>2015-07-24T10:16:07Z</time>
      </trkpt>
      <trkpt lat="44.82749" lon="5.9577">
        <ele>1037.4</ele>
        <time>2015-07-24T10:16:12Z</time>
      </trkpt>
      <trkpt lat="44.82745" lon="5.95771">
        <ele>1035.4</ele>
        <time>2015-07-24T10:16:17Z</time>
      </trkpt>
      <trkpt lat="44.82745" lon="5.95769">
        <ele>1035.4</ele>
        <time>2015-07-24T10:16:22Z</time>
      </trkpt>
      <trkpt lat="44.82744" lon="5.95767">
        <ele>1036.3</ele>
        <time>2015-07-24T10:16:27Z</time>
      </trkpt>
      <trkpt lat="44.82743" lon="5.95767">
        <ele>1038.7</ele>
        <time>2015-07-24T10:16:32Z</time>
      </trkpt>
      <trkpt lat="44.82744" lon="5.95768">
        <ele>1038.5</ele>
        <time>2015-07-24T10:16:37Z</time>
      </trkpt>
      <trkpt lat="44.82743" lon="5.95771">
        <ele>1040.5</ele>
        <time>2015-07-24T10:16:42Z</time>
      </trkpt>
      <trkpt lat="44.82745" lon="5.95772">
        <ele>1040</ele>
        <time>2015-07-24T10:16:47Z</time>
      </trkpt>
      <trkpt lat="44.82745" lon="5.95772">
        <ele>1038.5</ele>
        <time>2015-07-24T10:16:52Z</time>
      </trkpt>
      <trkpt lat="44.82746" lon="5.95772">
        <ele>1036.7</ele>
        <time>2015-07-24T10:16:57Z</time>
      </trkpt>
      <trkpt lat="44.82746" lon="5.9577">
        <ele>1033.5</ele>
        <time>2015-07-24T10:17:02Z</time>
      </trkpt>
      <trkpt lat="44.82746" lon="5.95771">
        <ele>1031.5</ele>
        <time>2015-07-24T10:17:07Z</time>
      </trkpt>
      <trkpt lat="44.82747" lon="5.95771">
        <ele>1033</ele>
        <time>2015-07-24T10:17:12Z</time>
      </trkpt>
      <trkpt lat="44.82747" lon="5.95776">
        <ele>1034.6</ele>
        <time>2015-07-24T10:17:17Z</time>
      </trkpt>
      <trkpt lat="44.82748" lon="5.95778">
        <ele>1033.8</ele>
        <time>2015-07-24T10:17:22Z</time>
      </trkpt>
      <trkpt lat="44.82748" lon="5.95779">
        <ele>1032.7</ele>
        <time>2015-07-24T10:17:27Z</time>
      </trkpt>
      <trkpt lat="44.82748" lon="5.95776">
        <ele>1030.5</ele>
        <time>2015-07-24T10:17:32Z</time>
      </trkpt>
      <trkpt lat="44.82747" lon="5.95772">
        <ele>1029.9</ele>
        <time>2015-07-24T10:17:37Z</time>
      </trkpt>
      <trkpt lat="44.82747" lon="5.95772">
        <ele>1029.3</ele>
        <time>2015-07-24T10:17:42Z</time>
      </trkpt>
      <trkpt lat="44.82748" lon="5.95773">
        <ele>1028.3</ele>
        <time>2015-07-24T10:17:47Z</time>
      </trkpt>
      <trkpt lat="44.82749" lon="5.95774">
        <ele>1027.2</ele>
        <time>2015-07-24T10:17:52Z</time>
      </trkpt>
      <trkpt lat="44.8275" lon="5.95774">
        <ele>1028.8</ele>
        <time>2015-07-24T10:17:57Z</time>
      </trkpt>
      <trkpt lat="44.82753" lon="5.95774">
        <ele>1024.4</ele>
        <time>2015-07-24T10:18:02Z</time>
      </trkpt>
      <trkpt lat="44.82756" lon="5.95774">
        <ele>1018.3</ele>
        <time>2015-07-24T10:18:07Z</time>
      </trkpt>
      <trkpt lat="44.82757" lon="5.95777">
        <ele>1018.3</ele>
        <time>2015-07-24T10:18:12Z</time>
      </trkpt>
      <trkpt lat="44.82757" lon="5.9578">
        <ele>1020.8</ele>
        <time>2015-07-24T10:18:17Z</time>
      </trkpt>
      <trkpt lat="44.82755" lon="5.95782">
        <ele>1023.4</ele>
        <time>2015-07-24T10:18:22Z</time>
      </trkpt>
      <trkpt lat="44.82754" lon="5.95783">
        <ele>1029.5</ele>
        <time>2015-07-24T10:18:27Z</time>
      </trkpt>
      <trkpt lat="44.82751" lon="5.95785">
        <ele>1036.5</ele>
        <time>2015-07-24T10:18:32Z</time>
      </trkpt>
      <trkpt lat="44.8275" lon="5.95786">
        <ele>1038.2</ele>
        <time>2015-07-24T10:18:37Z</time>
      </trkpt>
      <trkpt lat="44.8275" lon="5.95786">
        <ele>1037.7</ele>
        <time>2015-07-24T10:18:42Z</time>
      </trkpt>
      <trkpt lat="44.8275" lon="5.95782">
        <ele>1034.9</ele>
        <time>2015-07-24T10:18:47Z</time>
      </trkpt>
      <trkpt lat="44.8275" lon="5.95779">
        <ele>1033.3</ele>
        <time>2015-07-24T10:18:52Z</time>
      </trkpt>
      <trkpt lat="44.82749" lon="5.95779">
        <ele>1033.5</ele>
        <time>2015-07-24T10:18:57Z</time>
      </trkpt>
      <trkpt lat="44.82748" lon="5.95779">
        <ele>1032.7</ele>
        <time>2015-07-24T10:19:02Z</time>
      </trkpt>
      <trkpt lat="44.82748" lon="5.9578">
        <ele>1033.5</ele>
        <time>2015-07-24T10:19:07Z</time>
      </trkpt>
      <trkpt lat="44.82748" lon="5.9578">
        <ele>1035.2</ele>
        <time>2015-07-24T10:19:12Z</time>
      </trkpt>
      <trkpt lat="44.82745" lon="5.95781">
        <ele>1036.3</ele>
        <time>2015-07-24T10:19:17Z</time>
      </trkpt>
      <trkpt lat="44.82746" lon="5.95782">
        <ele>1036.7</ele>
        <time>2015-07-24T10:19:22Z</time>
      </trkpt>
      <trkpt lat="44.82745" lon="5.95785">
        <ele>1039.5</ele>
        <time>2015-07-24T10:19:27Z</time>
      </trkpt>
      <trkpt lat="44.82745" lon="5.95787">
        <ele>1041.1</ele>
        <time>2015-07-24T10:19:32Z</time>
      </trkpt>
      <trkpt lat="44.82742" lon="5.9579">
        <ele>1041.3</ele>
        <time>2015-07-24T10:19:37Z</time>
      </trkpt>
      <trkpt lat="44.82742" lon="5.95789">
        <ele>1037.1</ele>
        <time>2015-07-24T10:19:42Z</time>
      </trkpt>
      <trkpt lat="44.82742" lon="5.95786">
        <ele>1037</ele>
        <time>2015-07-24T10:19:47Z</time>
      </trkpt>
      <trkpt lat="44.82744" lon="5.95785">
        <ele>1040.9</ele>
        <time>2015-07-24T10:19:52Z</time>
      </trkpt>
      <trkpt lat="44.82744" lon="5.95785">
        <ele>1044.8</ele>
        <time>2015-07-24T10:19:57Z</time>
      </trkpt>
      <trkpt lat="44.82745" lon="5.95785">
        <ele>1044</ele>
        <time>2015-07-24T10:20:02Z</time>
      </trkpt>
      <trkpt lat="44.82745" lon="5.95783">
        <ele>1042</ele>
        <time>2015-07-24T10:20:07Z</time>
      </trkpt>
      <trkpt lat="44.82747" lon="5.95783">
        <ele>1043.2</ele>
        <time>2015-07-24T10:20:12Z</time>
      </trkpt>
      <trkpt lat="44.82746" lon="5.95784">
        <ele>1044.8</ele>
        <time>2015-07-24T10:20:17Z</time>
      </trkpt>
      <trkpt lat="44.82747" lon="5.95784">
        <ele>1042.5</ele>
        <time>2015-07-24T10:20:22Z</time>
      </trkpt>
      <trkpt lat="44.82748" lon="5.95784">
        <ele>1040.1</ele>
        <time>2015-07-24T10:20:27Z</time>
      </trkpt>
      <trkpt lat="44.82748" lon="5.95785">
        <ele>1038.4</ele>
        <time>2015-07-24T10:20:32Z</time>
      </trkpt>
      <trkpt lat="44.82748" lon="5.95785">
        <ele>1040.4</ele>
        <time>2015-07-24T10:20:37Z</time>
      </trkpt>
      <trkpt lat="44.82746" lon="5.95787">
        <ele>1046.3</ele>
        <time>2015-07-24T10:20:42Z</time>
      </trkpt>
      <trkpt lat="44.82745" lon="5.95787">
        <ele>1048.4</ele>
        <time>2015-07-24T10:20:47Z</time>
      </trkpt>
      <trkpt lat="44.82745" lon="5.95788">
        <ele>1049.5</ele>
        <time>2015-07-24T10:20:52Z</time>
      </trkpt>
      <trkpt lat="44.82744" lon="5.95788">
        <ele>1050.4</ele>
        <time>2015-07-24T10:20:57Z</time>
      </trkpt>
      <trkpt lat="44.82744" lon="5.95788">
        <ele>1051</ele>
        <time>2015-07-24T10:21:02Z</time>
      </trkpt>
      <trkpt lat="44.82743" lon="5.95788">
        <ele>1051.7</ele>
        <time>2015-07-24T10:21:07Z</time>
      </trkpt>
      <trkpt lat="44.8274" lon="5.95789">
        <ele>1055.1</ele>
        <time>2015-07-24T10:21:12Z</time>
      </trkpt>
      <trkpt lat="44.8274" lon="5.95788">
        <ele>1055.6</ele>
        <time>2015-07-24T10:21:17Z</time>
      </trkpt>
      <trkpt lat="44.8274" lon="5.95788">
        <ele>1053.7</ele>
        <time>2015-07-24T10:21:22Z</time>
      </trkpt>
      <trkpt lat="44.82741" lon="5.95788">
        <ele>1052.6</ele>
        <time>2015-07-24T10:21:27Z</time>
      </trkpt>
      <trkpt lat="44.82743" lon="5.95787">
        <ele>1047.9</ele>
        <time>2015-07-24T10:21:32Z</time>
      </trkpt>
      <trkpt lat="44.82745" lon="5.95786">
        <ele>1043.5</ele>
        <time>2015-07-24T10:21:37Z</time>
      </trkpt>
      <trkpt lat="44.82745" lon="5.95786">
        <ele>1042.3</ele>
        <time>2015-07-24T10:21:42Z</time>
      </trkpt>
      <trkpt lat="44.82746" lon="5.95786">
        <ele>1041.6</ele>
        <time>2015-07-24T10:21:47Z</time>
      </trkpt>
      <trkpt lat="44.82746" lon="5.95785">
        <ele>1041.5</ele>
        <time>2015-07-24T10:21:52Z</time>
      </trkpt>
      <trkpt lat="44.82744" lon="5.95785">
        <ele>1044.3</ele>
        <time>2015-07-24T10:21:57Z</time>
      </trkpt>
      <trkpt lat="44.82744" lon="5.95785">
        <ele>1045.7</ele>
        <time>2015-07-24T10:22:02Z</time>
      </trkpt>
      <trkpt lat="44.82744" lon="5.95785">
        <ele>1045.6</ele>
        <time>2015-07-24T10:22:07Z</time>
      </trkpt>
      <trkpt lat="44.82744" lon="5.95785">
        <ele>1044.2</ele>
        <time>2015-07-24T10:22:12Z</time>
      </trkpt>
      <trkpt lat="44.82746" lon="5.95786">
        <ele>1041.8</ele>
        <time>2015-07-24T10:22:17Z</time>
      </trkpt>
      <trkpt lat="44.82751" lon="5.95802">
        <ele>1037.9</ele>
        <time>2015-07-24T10:22:22Z</time>
      </trkpt>
      <trkpt lat="44.82752" lon="5.95802">
        <ele>1033.4</ele>
        <time>2015-07-24T10:22:27Z</time>
      </trkpt>
      <trkpt lat="44.8275" lon="5.95795">
        <ele>1032.1</ele>
        <time>2015-07-24T10:22:32Z</time>
      </trkpt>
      <trkpt lat="44.8275" lon="5.95785">
        <ele>1030.9</ele>
        <time>2015-07-24T10:22:37Z</time>
      </trkpt>
      <trkpt lat="44.82748" lon="5.95776">
        <ele>1032.4</ele>
        <time>2015-07-24T10:22:42Z</time>
      </trkpt>
      <trkpt lat="44.82748" lon="5.95773">
        <ele>1034.8</ele>
        <time>2015-07-24T10:22:47Z</time>
      </trkpt>
      <trkpt lat="44.82749" lon="5.95772">
        <ele>1034.1</ele>
        <time>2015-07-24T10:22:52Z</time>
      </trkpt>
      <trkpt lat="44.8275" lon="5.95774">
        <ele>1037.6</ele>
        <time>2015-07-24T10:22:57Z</time>
      </trkpt>
      <trkpt lat="44.82748" lon="5.95778">
        <ele>1038.8</ele>
        <time>2015-07-24T10:23:02Z</time>
      </trkpt>
      <trkpt lat="44.82748" lon="5.9578">
        <ele>1038.3</ele>
        <time>2015-07-24T10:23:07Z</time>
      </trkpt>
      <trkpt lat="44.8275" lon="5.95779">
        <ele>1037.6</ele>
        <time>2015-07-24T10:23:12Z</time>
      </trkpt>
      <trkpt lat="44.82749" lon="5.95775">
        <ele>1035.7</ele>
        <time>2015-07-24T10:23:17Z</time>
      </trkpt>
      <trkpt lat="44.82749" lon="5.95773">
        <ele>1033.5</ele>
        <time>2015-07-24T10:23:22Z</time>
      </trkpt>
      <trkpt lat="44.82748" lon="5.95774">
        <ele>1034.1</ele>
        <time>2015-07-24T10:23:27Z</time>
      </trkpt>
      <trkpt lat="44.82748" lon="5.95775">
        <ele>1036.5</ele>
        <time>2015-07-24T10:23:32Z</time>
      </trkpt>
      <trkpt lat="44.8275" lon="5.95776">
        <ele>1037.5</ele>
        <time>2015-07-24T10:23:37Z</time>
      </trkpt>
      <trkpt lat="44.82753" lon="5.95776">
        <ele>1039.1</ele>
        <time>2015-07-24T10:23:42Z</time>
      </trkpt>
      <trkpt lat="44.82754" lon="5.95777">
        <ele>1043.3</ele>
        <time>2015-07-24T10:23:47Z</time>
      </trkpt>
      <trkpt lat="44.82754" lon="5.95776">
        <ele>1042.7</ele>
        <time>2015-07-24T10:23:52Z</time>
      </trkpt>
      <trkpt lat="44.82754" lon="5.95775">
        <ele>1042.7</ele>
        <time>2015-07-24T10:23:57Z</time>
      </trkpt>
      <trkpt lat="44.82752" lon="5.95775">
        <ele>1041.2</ele>
        <time>2015-07-24T10:24:02Z</time>
      </trkpt>
      <trkpt lat="44.82749" lon="5.95775">
        <ele>1042.3</ele>
        <time>2015-07-24T10:24:07Z</time>
      </trkpt>
      <trkpt lat="44.82746" lon="5.95776">
        <ele>1042.9</ele>
        <time>2015-07-24T10:24:12Z</time>
      </trkpt>
      <trkpt lat="44.82743" lon="5.95776">
        <ele>1043.2</ele>
        <time>2015-07-24T10:24:17Z</time>
      </trkpt>
      <trkpt lat="44.82744" lon="5.95775">
        <ele>1041.9</ele>
        <time>2015-07-24T10:24:22Z</time>
      </trkpt>
      <trkpt lat="44.82745" lon="5.95774">
        <ele>1039.8</ele>
        <time>2015-07-24T10:24:27Z</time>
      </trkpt>
      <trkpt lat="44.82744" lon="5.95774">
        <ele>1039.5</ele>
        <time>2015-07-24T10:24:32Z</time>
      </trkpt>
      <trkpt lat="44.82744" lon="5.95775">
        <ele>1038.3</ele>
        <time>2015-07-24T10:24:37Z</time>
      </trkpt>
      <trkpt lat="44.82745" lon="5.95774">
        <ele>1037.6</ele>
        <time>2015-07-24T10:24:42Z</time>
      </trkpt>
      <trkpt lat="44.82745" lon="5.95775">
        <ele>1037.1</ele>
        <time>2015-07-24T10:24:47Z</time>
      </trkpt>
      <trkpt lat="44.82745" lon="5.95776">
        <ele>1038.5</ele>
        <time>2015-07-24T10:24:52Z</time>
      </trkpt>
      <trkpt lat="44.82747" lon="5.95777">
        <ele>1035.9</ele>
        <time>2015-07-24T10:24:57Z</time>
      </trkpt>
      <trkpt lat="44.82747" lon="5.95778">
        <ele>1038.2</ele>
        <time>2015-07-24T10:25:02Z</time>
      </trkpt>
      <trkpt lat="44.82748" lon="5.95779">
        <ele>1039</ele>
        <time>2015-07-24T10:25:07Z</time>
      </trkpt>
      <trkpt lat="44.82744" lon="5.95781">
        <ele>1042.3</ele>
        <time>2015-07-24T10:25:12Z</time>
      </trkpt>
      <trkpt lat="44.82743" lon="5.9578">
        <ele>1041.4</ele>
        <time>2015-07-24T10:25:17Z</time>
      </trkpt>
      <trkpt lat="44.82746" lon="5.95778">
        <ele>1038.1</ele>
        <time>2015-07-24T10:25:22Z</time>
      </trkpt>
      <trkpt lat="44.82746" lon="5.95779">
        <ele>1033.1</ele>
        <time>2015-07-24T10:25:27Z</time>
      </trkpt>
      <trkpt lat="44.82744" lon="5.9578">
        <ele>1034.8</ele>
        <time>2015-07-24T10:25:32Z</time>
      </trkpt>
      <trkpt lat="44.82744" lon="5.9578">
        <ele>1036.1</ele>
        <time>2015-07-24T10:25:37Z</time>
      </trkpt>
      <trkpt lat="44.82745" lon="5.9578">
        <ele>1034.7</ele>
        <time>2015-07-24T10:25:42Z</time>
      </trkpt>
      <trkpt lat="44.82745" lon="5.95779">
        <ele>1035.2</ele>
        <time>2015-07-24T10:25:47Z</time>
      </trkpt>
      <trkpt lat="44.82738" lon="5.95782">
        <ele>1042.6</ele>
        <time>2015-07-24T10:25:52Z</time>
      </trkpt>
      <trkpt lat="44.82737" lon="5.95783">
        <ele>1041.2</ele>
        <time>2015-07-24T10:25:57Z</time>
      </trkpt>
      <trkpt lat="44.82734" lon="5.95784">
        <ele>1043.3</ele>
        <time>2015-07-24T10:26:02Z</time>
      </trkpt>
      <trkpt lat="44.82736" lon="5.95783">
        <ele>1042.4</ele>
        <time>2015-07-24T10:26:07Z</time>
      </trkpt>
      <trkpt lat="44.8274" lon="5.95782">
        <ele>1041.1</ele>
        <time>2015-07-24T10:26:12Z</time>
      </trkpt>
      <trkpt lat="44.82741" lon="5.9578">
        <ele>1040.8</ele>
        <time>2015-07-24T10:26:17Z</time>
      </trkpt>
      <trkpt lat="44.82742" lon="5.95778">
        <ele>1038.9</ele>
        <time>2015-07-24T10:26:22Z</time>
      </trkpt>
      <trkpt lat="44.8274" lon="5.95778">
        <ele>1036.6</ele>
        <time>2015-07-24T10:26:27Z</time>
      </trkpt>
      <trkpt lat="44.82741" lon="5.95776">
        <ele>1034.3</ele>
        <time>2015-07-24T10:26:32Z</time>
      </trkpt>
      <trkpt lat="44.82741" lon="5.95774">
        <ele>1034.3</ele>
        <time>2015-07-24T10:26:37Z</time>
      </trkpt>
      <trkpt lat="44.82739" lon="5.95772">
        <ele>1037.3</ele>
        <time>2015-07-24T10:26:42Z</time>
      </trkpt>
      <trkpt lat="44.8274" lon="5.95767">
        <ele>1040.9</ele>
        <time>2015-07-24T10:26:47Z</time>
      </trkpt>
      <trkpt lat="44.82742" lon="5.95765">
        <ele>1040.8</ele>
        <time>2015-07-24T10:26:52Z</time>
      </trkpt>
      <trkpt lat="44.82744" lon="5.95763">
        <ele>1041</ele>
        <time>2015-07-24T10:26:57Z</time>
      </trkpt>
      <trkpt lat="44.82745" lon="5.95761">
        <ele>1040.8</ele>
        <time>2015-07-24T10:27:02Z</time>
      </trkpt>
      <trkpt lat="44.82745" lon="5.95761">
        <ele>1041.1</ele>
        <time>2015-07-24T10:27:07Z</time>
      </trkpt>
      <trkpt lat="44.82745" lon="5.95761">
        <ele>1041.6</ele>
        <time>2015-07-24T10:27:12Z</time>
      </trkpt>
      <trkpt lat="44.82745" lon="5.9576">
        <ele>1042.7</ele>
        <time>2015-07-24T10:27:17Z</time>
      </trkpt>
      <trkpt lat="44.82743" lon="5.95767">
        <ele>1040.5</ele>
        <time>2015-07-24T10:27:22Z</time>
      </trkpt>
      <trkpt lat="44.82739" lon="5.95772">
        <ele>1036</ele>
        <time>2015-07-24T10:27:27Z</time>
      </trkpt>
      <trkpt lat="44.82739" lon="5.95774">
        <ele>1033</ele>
        <time>2015-07-24T10:27:32Z</time>
      </trkpt>
      <trkpt lat="44.82739" lon="5.95774">
        <ele>1030.1</ele>
        <time>2015-07-24T10:27:37Z</time>
      </trkpt>
      <trkpt lat="44.82738" lon="5.95776">
        <ele>1026.5</ele>
        <time>2015-07-24T10:27:42Z</time>
      </trkpt>
      <trkpt lat="44.82738" lon="5.95775">
        <ele>1025.6</ele>
        <time>2015-07-24T10:27:47Z</time>
      </trkpt>
      <trkpt lat="44.8274" lon="5.95772">
        <ele>1025.6</ele>
        <time>2015-07-24T10:27:52Z</time>
      </trkpt>
      <trkpt lat="44.82739" lon="5.95774">
        <ele>1023.7</ele>
        <time>2015-07-24T10:27:57Z</time>
      </trkpt>
      <trkpt lat="44.8274" lon="5.95776">
        <ele>1024.6</ele>
        <time>2015-07-24T10:28:02Z</time>
      </trkpt>
      <trkpt lat="44.82743" lon="5.95773">
        <ele>1027.6</ele>
        <time>2015-07-24T10:28:07Z</time>
      </trkpt>
      <trkpt lat="44.82744" lon="5.95773">
        <ele>1029.3</ele>
        <time>2015-07-24T10:28:12Z</time>
      </trkpt>
      <trkpt lat="44.82742" lon="5.95775">
        <ele>1030.1</ele>
        <time>2015-07-24T10:28:17Z</time>
      </trkpt>
      <trkpt lat="44.82742" lon="5.95776">
        <ele>1032.1</ele>
        <time>2015-07-24T10:28:22Z</time>
      </trkpt>
      <trkpt lat="44.82743" lon="5.95776">
        <ele>1033</ele>
        <time>2015-07-24T10:28:27Z</time>
      </trkpt>
      <trkpt lat="44.82744" lon="5.95776">
        <ele>1034.2</ele>
        <time>2015-07-24T10:28:32Z</time>
      </trkpt>
      <trkpt lat="44.82744" lon="5.95776">
        <ele>1033.6</ele>
        <time>2015-07-24T10:28:37Z</time>
      </trkpt>
      <trkpt lat="44.82745" lon="5.95775">
        <ele>1035.4</ele>
        <time>2015-07-24T10:28:42Z</time>
      </trkpt>
      <trkpt lat="44.82748" lon="5.95772">
        <ele>1036.3</ele>
        <time>2015-07-24T10:28:47Z</time>
      </trkpt>
      <trkpt lat="44.8275" lon="5.95772">
        <ele>1039.1</ele>
        <time>2015-07-24T10:28:52Z</time>
      </trkpt>
      <trkpt lat="44.82751" lon="5.95772">
        <ele>1041.1</ele>
        <time>2015-07-24T10:28:57Z</time>
      </trkpt>
      <trkpt lat="44.82751" lon="5.95772">
        <ele>1039.1</ele>
        <time>2015-07-24T10:29:02Z</time>
      </trkpt>
      <trkpt lat="44.82752" lon="5.95772">
        <ele>1038.4</ele>
        <time>2015-07-24T10:29:07Z</time>
      </trkpt>
      <trkpt lat="44.82747" lon="5.95769">
        <ele>1037.7</ele>
        <time>2015-07-24T10:29:12Z</time>
      </trkpt>
      <trkpt lat="44.82741" lon="5.95773">
        <ele>1033.5</ele>
        <time>2015-07-24T10:29:17Z</time>
      </trkpt>
      <trkpt lat="44.82735" lon="5.95777">
        <ele>1025.7</ele>
        <time>2015-07-24T10:29:22Z</time>
      </trkpt>
      <trkpt lat="44.82731" lon="5.95781">
        <ele>1022.8</ele>
        <time>2015-07-24T10:29:27Z</time>
      </trkpt>
      <trkpt lat="44.82733" lon="5.95782">
        <ele>1022.5</ele>
        <time>2015-07-24T10:29:32Z</time>
      </trkpt>
      <trkpt lat="44.82731" lon="5.95784">
        <ele>1025.2</ele>
        <time>2015-07-24T10:29:37Z</time>
      </trkpt>
      <trkpt lat="44.82728" lon="5.95786">
        <ele>1023.6</ele>
        <time>2015-07-24T10:29:42Z</time>
      </trkpt>
      <trkpt lat="44.82731" lon="5.95785">
        <ele>1022.8</ele>
        <time>2015-07-24T10:29:47Z</time>
      </trkpt>
      <trkpt lat="44.82729" lon="5.95787">
        <ele>1022.6</ele>
        <time>2015-07-24T10:29:52Z</time>
      </trkpt>
      <trkpt lat="44.82734" lon="5.95785">
        <ele>1022.5</ele>
        <time>2015-07-24T10:29:57Z</time>
      </trkpt>
      <trkpt lat="44.82739" lon="5.95782">
        <ele>1021</ele>
        <time>2015-07-24T10:30:02Z</time>
      </trkpt>
      <trkpt lat="44.82742" lon="5.95779">
        <ele>1023.2</ele>
        <time>2015-07-24T10:30:07Z</time>
      </trkpt>
      <trkpt lat="44.82747" lon="5.95778">
        <ele>1024.4</ele>
        <time>2015-07-24T10:30:12Z</time>
      </trkpt>
      <trkpt lat="44.82751" lon="5.95777">
        <ele>1028.2</ele>
        <time>2015-07-24T10:30:17Z</time>
      </trkpt>
      <trkpt lat="44.82751" lon="5.95774">
        <ele>1030.7</ele>
        <time>2015-07-24T10:30:22Z</time>
      </trkpt>
      <trkpt lat="44.82749" lon="5.95773">
        <ele>1031.6</ele>
        <time>2015-07-24T10:30:27Z</time>
      </trkpt>
      <trkpt lat="44.82744" lon="5.95776">
        <ele>1028.8</ele>
        <time>2015-07-24T10:30:32Z</time>
      </trkpt>
      <trkpt lat="44.82739" lon="5.95778">
        <ele>1027</ele>
        <time>2015-07-24T10:30:37Z</time>
      </trkpt>
      <trkpt lat="44.82738" lon="5.95778">
        <ele>1025.2</ele>
        <time>2015-07-24T10:30:42Z</time>
      </trkpt>
      <trkpt lat="44.82737" lon="5.95779">
        <ele>1028.9</ele>
        <time>2015-07-24T10:30:47Z</time>
      </trkpt>
      <trkpt lat="44.82739" lon="5.95779">
        <ele>1031.2</ele>
        <time>2015-07-24T10:30:52Z</time>
      </trkpt>
      <trkpt lat="44.8274" lon="5.95778">
        <ele>1029.6</ele>
        <time>2015-07-24T10:30:57Z</time>
      </trkpt>
      <trkpt lat="44.82741" lon="5.95775">
        <ele>1028.2</ele>
        <time>2015-07-24T10:31:02Z</time>
      </trkpt>
      <trkpt lat="44.82742" lon="5.95774">
        <ele>1029.9</ele>
        <time>2015-07-24T10:31:07Z</time>
      </trkpt>
      <trkpt lat="44.82742" lon="5.95774">
        <ele>1030.8</ele>
        <time>2015-07-24T10:31:12Z</time>
      </trkpt>
      <trkpt lat="44.82742" lon="5.95774">
        <ele>1032.4</ele>
        <time>2015-07-24T10:31:17Z</time>
      </trkpt>
      <trkpt lat="44.82742" lon="5.95774">
        <ele>1033.8</ele>
        <time>2015-07-24T10:31:22Z</time>
      </trkpt>
      <trkpt lat="44.82741" lon="5.95775">
        <ele>1035.5</ele>
        <time>2015-07-24T10:31:27Z</time>
      </trkpt>
      <trkpt lat="44.8274" lon="5.95774">
        <ele>1035.6</ele>
        <time>2015-07-24T10:31:32Z</time>
      </trkpt>
      <trkpt lat="44.82741" lon="5.95772">
        <ele>1037.5</ele>
        <time>2015-07-24T10:31:37Z</time>
      </trkpt>
      <trkpt lat="44.82742" lon="5.95768">
        <ele>1043.2</ele>
        <time>2015-07-24T10:31:42Z</time>
      </trkpt>
      <trkpt lat="44.82742" lon="5.95765">
        <ele>1046.3</ele>
        <time>2015-07-24T10:31:47Z</time>
      </trkpt>
      <trkpt lat="44.82742" lon="5.95762">
        <ele>1049.8</ele>
        <time>2015-07-24T10:31:52Z</time>
      </trkpt>
      <trkpt lat="44.82742" lon="5.9576">
        <ele>1051.9</ele>
        <time>2015-07-24T10:31:57Z</time>
      </trkpt>
      <trkpt lat="44.82742" lon="5.9576">
        <ele>1052.3</ele>
        <time>2015-07-24T10:32:02Z</time>
      </trkpt>
      <trkpt lat="44.82742" lon="5.95759">
        <ele>1053.1</ele>
        <time>2015-07-24T10:32:07Z</time>
      </trkpt>
      <trkpt lat="44.82742" lon="5.95759">
        <ele>1052.8</ele>
        <time>2015-07-24T10:32:12Z</time>
      </trkpt>
      <trkpt lat="44.82742" lon="5.95759">
        <ele>1051.9</ele>
        <time>2015-07-24T10:32:17Z</time>
      </trkpt>
      <trkpt lat="44.82742" lon="5.95762">
        <ele>1048.2</ele>
        <time>2015-07-24T10:32:22Z</time>
      </trkpt>
      <trkpt lat="44.82742" lon="5.95761">
        <ele>1049.2</ele>
        <time>2015-07-24T10:32:27Z</time>
      </trkpt>
      <trkpt lat="44.8274" lon="5.95761">
        <ele>1050.1</ele>
        <time>2015-07-24T10:32:32Z</time>
      </trkpt>
      <trkpt lat="44.82739" lon="5.95761">
        <ele>1050.2</ele>
        <time>2015-07-24T10:32:37Z</time>
      </trkpt>
      <trkpt lat="44.8274" lon="5.95762">
        <ele>1047.8</ele>
        <time>2015-07-24T10:32:42Z</time>
      </trkpt>
      <trkpt lat="44.82739" lon="5.95772">
        <ele>1039.5</ele>
        <time>2015-07-24T10:32:47Z</time>
      </trkpt>
      <trkpt lat="44.8274" lon="5.95772">
        <ele>1039.8</ele>
        <time>2015-07-24T10:32:52Z</time>
      </trkpt>
      <trkpt lat="44.82741" lon="5.95773">
        <ele>1039.9</ele>
        <time>2015-07-24T10:32:57Z</time>
      </trkpt>
      <trkpt lat="44.82742" lon="5.95776">
        <ele>1037.6</ele>
        <time>2015-07-24T10:33:02Z</time>
      </trkpt>
      <trkpt lat="44.82746" lon="5.95776">
        <ele>1038.9</ele>
        <time>2015-07-24T10:33:07Z</time>
      </trkpt>
      <trkpt lat="44.82747" lon="5.95778">
        <ele>1040.6</ele>
        <time>2015-07-24T10:33:12Z</time>
      </trkpt>
      <trkpt lat="44.82746" lon="5.95778">
        <ele>1040.7</ele>
        <time>2015-07-24T10:33:17Z</time>
      </trkpt>
      <trkpt lat="44.82747" lon="5.95776">
        <ele>1040.3</ele>
        <time>2015-07-24T10:33:22Z</time>
      </trkpt>
      <trkpt lat="44.82748" lon="5.95775">
        <ele>1039.6</ele>
        <time>2015-07-24T10:33:27Z</time>
      </trkpt>
      <trkpt lat="44.82748" lon="5.95775">
        <ele>1038.4</ele>
        <time>2015-07-24T10:33:32Z</time>
      </trkpt>
      <trkpt lat="44.82751" lon="5.95776">
        <ele>1035.7</ele>
        <time>2015-07-24T10:33:37Z</time>
      </trkpt>
      <trkpt lat="44.82747" lon="5.95776">
        <ele>1033.4</ele>
        <time>2015-07-24T10:33:42Z</time>
      </trkpt>
      <trkpt lat="44.82743" lon="5.9578">
        <ele>1034.6</ele>
        <time>2015-07-24T10:33:47Z</time>
      </trkpt>
      <trkpt lat="44.8274" lon="5.95784">
        <ele>1032.1</ele>
        <time>2015-07-24T10:33:52Z</time>
      </trkpt>
      <trkpt lat="44.82742" lon="5.95786">
        <ele>1034.3</ele>
        <time>2015-07-24T10:33:57Z</time>
      </trkpt>
      <trkpt lat="44.82744" lon="5.95787">
        <ele>1034.6</ele>
        <time>2015-07-24T10:34:02Z</time>
      </trkpt>
      <trkpt lat="44.82744" lon="5.95789">
        <ele>1033.7</ele>
        <time>2015-07-24T10:34:07Z</time>
      </trkpt>
      <trkpt lat="44.82744" lon="5.95798">
        <ele>1035.8</ele>
        <time>2015-07-24T10:34:12Z</time>
      </trkpt>
      <trkpt lat="44.82745" lon="5.95807">
        <ele>1038.3</ele>
        <time>2015-07-24T10:34:17Z</time>
      </trkpt>
      <trkpt lat="44.82748" lon="5.95812">
        <ele>1039.5</ele>
        <time>2015-07-24T10:34:22Z</time>
      </trkpt>
      <trkpt lat="44.8275" lon="5.95818">
        <ele>1040.6</ele>
        <time>2015-07-24T10:34:27Z</time>
      </trkpt>
      <trkpt lat="44.82752" lon="5.95821">
        <ele>1041.7</ele>
        <time>2015-07-24T10:34:32Z</time>
      </trkpt>
      <trkpt lat="44.82755" lon="5.95823">
        <ele>1041.4</ele>
        <time>2015-07-24T10:34:37Z</time>
      </trkpt>
      <trkpt lat="44.82756" lon="5.95825">
        <ele>1041</ele>
        <time>2015-07-24T10:34:42Z</time>
      </trkpt>
      <trkpt lat="44.82761" lon="5.95831">
        <ele>1043.1</ele>
        <time>2015-07-24T10:34:47Z</time>
      </trkpt>
      <trkpt lat="44.82761" lon="5.95841">
        <ele>1045.5</ele>
        <time>2015-07-24T10:34:52Z</time>
      </trkpt>
      <trkpt lat="44.82765" lon="5.95849">
        <ele>1047.3</ele>
        <time>2015-07-24T10:34:57Z</time>
      </trkpt>
      <trkpt lat="44.82768" lon="5.95853">
        <ele>1047.7</ele>
        <time>2015-07-24T10:35:02Z</time>
      </trkpt>
      <trkpt lat="44.8277" lon="5.95861">
        <ele>1049.9</ele>
        <time>2015-07-24T10:35:07Z</time>
      </trkpt>
      <trkpt lat="44.82772" lon="5.95868">
        <ele>1052.8</ele>
        <time>2015-07-24T10:35:12Z</time>
      </trkpt>
      <trkpt lat="44.82774" lon="5.95877">
        <ele>1054.6</ele>
        <time>2015-07-24T10:35:17Z</time>
      </trkpt>
      <trkpt lat="44.82773" lon="5.95887">
        <ele>1055.4</ele>
        <time>2015-07-24T10:35:22Z</time>
      </trkpt>
      <trkpt lat="44.82774" lon="5.95895">
        <ele>1056</ele>
        <time>2015-07-24T10:35:27Z</time>
      </trkpt>
      <trkpt lat="44.82777" lon="5.95904">
        <ele>1056.3</ele>
        <time>2015-07-24T10:35:32Z</time>
      </trkpt>
      <trkpt lat="44.82779" lon="5.9591">
        <ele>1060.6</ele>
        <time>2015-07-24T10:35:37Z</time>
      </trkpt>
      <trkpt lat="44.82784" lon="5.95918">
        <ele>1060.2</ele>
        <time>2015-07-24T10:35:42Z</time>
      </trkpt>
      <trkpt lat="44.82787" lon="5.95927">
        <ele>1061.4</ele>
        <time>2015-07-24T10:35:47Z</time>
      </trkpt>
      <trkpt lat="44.82787" lon="5.95931">
        <ele>1062.5</ele>
        <time>2015-07-24T10:35:52Z</time>
      </trkpt>
      <trkpt lat="44.82785" lon="5.95932">
        <ele>1062.8</ele>
        <time>2015-07-24T10:35:57Z</time>
      </trkpt>
      <trkpt lat="44.82785" lon="5.95933">
        <ele>1062</ele>
        <time>2015-07-24T10:36:02Z</time>
      </trkpt>
      <trkpt lat="44.82789" lon="5.95939">
        <ele>1060.6</ele>
        <time>2015-07-24T10:36:07Z</time>
      </trkpt>
      <trkpt lat="44.82792" lon="5.95944">
        <ele>1058.4</ele>
        <time>2015-07-24T10:36:12Z</time>
      </trkpt>
      <trkpt lat="44.82792" lon="5.95953">
        <ele>1060</ele>
        <time>2015-07-24T10:36:17Z</time>
      </trkpt>
      <trkpt lat="44.82794" lon="5.95962">
        <ele>1064.1</ele>
        <time>2015-07-24T10:36:22Z</time>
      </trkpt>
      <trkpt lat="44.828" lon="5.95968">
        <ele>1068.5</ele>
        <time>2015-07-24T10:36:27Z</time>
      </trkpt>
      <trkpt lat="44.82804" lon="5.95971">
        <ele>1072.4</ele>
        <time>2015-07-24T10:36:32Z</time>
      </trkpt>
      <trkpt lat="44.82809" lon="5.95977">
        <ele>1077.8</ele>
        <time>2015-07-24T10:36:37Z</time>
      </trkpt>
      <trkpt lat="44.8281" lon="5.9598">
        <ele>1077.2</ele>
        <time>2015-07-24T10:36:42Z</time>
      </trkpt>
      <trkpt lat="44.8281" lon="5.95983">
        <ele>1074.8</ele>
        <time>2015-07-24T10:36:47Z</time>
      </trkpt>
      <trkpt lat="44.82815" lon="5.95988">
        <ele>1073.9</ele>
        <time>2015-07-24T10:36:52Z</time>
      </trkpt>
      <trkpt lat="44.82817" lon="5.95994">
        <ele>1074.3</ele>
        <time>2015-07-24T10:36:57Z</time>
      </trkpt>
      <trkpt lat="44.82819" lon="5.95999">
        <ele>1074</ele>
        <time>2015-07-24T10:37:02Z</time>
      </trkpt>
      <trkpt lat="44.82822" lon="5.96002">
        <ele>1073.8</ele>
        <time>2015-07-24T10:37:07Z</time>
      </trkpt>
      <trkpt lat="44.82821" lon="5.96002">
        <ele>1073.9</ele>
        <time>2015-07-24T10:37:12Z</time>
      </trkpt>
      <trkpt lat="44.82823" lon="5.96">
        <ele>1073.7</ele>
        <time>2015-07-24T10:37:17Z</time>
      </trkpt>
      <trkpt lat="44.82823" lon="5.96002">
        <ele>1073.9</ele>
        <time>2015-07-24T10:37:22Z</time>
      </trkpt>
      <trkpt lat="44.82826" lon="5.96008">
        <ele>1075.1</ele>
        <time>2015-07-24T10:37:27Z</time>
      </trkpt>
      <trkpt lat="44.82829" lon="5.96016">
        <ele>1076.2</ele>
        <time>2015-07-24T10:37:32Z</time>
      </trkpt>
      <trkpt lat="44.82834" lon="5.96022">
        <ele>1076.7</ele>
        <time>2015-07-24T10:37:37Z</time>
      </trkpt>
      <trkpt lat="44.82835" lon="5.96023">
        <ele>1076.4</ele>
        <time>2015-07-24T10:37:42Z</time>
      </trkpt>
      <trkpt lat="44.82835" lon="5.96021">
        <ele>1075.6</ele>
        <time>2015-07-24T10:37:47Z</time>
      </trkpt>
      <trkpt lat="44.82839" lon="5.96024">
        <ele>1074.5</ele>
        <time>2015-07-24T10:37:52Z</time>
      </trkpt>
      <trkpt lat="44.82841" lon="5.96032">
        <ele>1075</ele>
        <time>2015-07-24T10:37:57Z</time>
      </trkpt>
      <trkpt lat="44.82847" lon="5.96039">
        <ele>1074.7</ele>
        <time>2015-07-24T10:38:02Z</time>
      </trkpt>
      <trkpt lat="44.82851" lon="5.96046">
        <ele>1075.6</ele>
        <time>2015-07-24T10:38:07Z</time>
      </trkpt>
      <trkpt lat="44.82858" lon="5.96047">
        <ele>1078.9</ele>
        <time>2015-07-24T10:38:12Z</time>
      </trkpt>
      <trkpt lat="44.82862" lon="5.9605">
        <ele>1082.2</ele>
        <time>2015-07-24T10:38:17Z</time>
      </trkpt>
      <trkpt lat="44.82867" lon="5.96054">
        <ele>1084</ele>
        <time>2015-07-24T10:38:22Z</time>
      </trkpt>
      <trkpt lat="44.82869" lon="5.96061">
        <ele>1083.9</ele>
        <time>2015-07-24T10:38:27Z</time>
      </trkpt>
      <trkpt lat="44.82871" lon="5.96066">
        <ele>1086.4</ele>
        <time>2015-07-24T10:38:32Z</time>
      </trkpt>
      <trkpt lat="44.82871" lon="5.96072">
        <ele>1089.5</ele>
        <time>2015-07-24T10:38:37Z</time>
      </trkpt>
      <trkpt lat="44.82874" lon="5.96074">
        <ele>1093.4</ele>
        <time>2015-07-24T10:38:42Z</time>
      </trkpt>
      <trkpt lat="44.82871" lon="5.96086">
        <ele>1093</ele>
        <time>2015-07-24T10:38:47Z</time>
      </trkpt>
      <trkpt lat="44.82866" lon="5.96092">
        <ele>1091.6</ele>
        <time>2015-07-24T10:38:52Z</time>
      </trkpt>
      <trkpt lat="44.82867" lon="5.96101">
        <ele>1091.4</ele>
        <time>2015-07-24T10:38:57Z</time>
      </trkpt>
      <trkpt lat="44.82874" lon="5.96107">
        <ele>1091.4</ele>
        <time>2015-07-24T10:39:02Z</time>
      </trkpt>
      <trkpt lat="44.82878" lon="5.96114">
        <ele>1092.7</ele>
        <time>2015-07-24T10:39:07Z</time>
      </trkpt>
      <trkpt lat="44.82881" lon="5.96123">
        <ele>1094.3</ele>
        <time>2015-07-24T10:39:12Z</time>
      </trkpt>
      <trkpt lat="44.82885" lon="5.96129">
        <ele>1096.2</ele>
        <time>2015-07-24T10:39:17Z</time>
      </trkpt>
      <trkpt lat="44.8289" lon="5.96133">
        <ele>1099.2</ele>
        <time>2015-07-24T10:39:22Z</time>
      </trkpt>
      <trkpt lat="44.82894" lon="5.96138">
        <ele>1101</ele>
        <time>2015-07-24T10:39:27Z</time>
      </trkpt>
      <trkpt lat="44.82897" lon="5.9614">
        <ele>1102.6</ele>
        <time>2015-07-24T10:39:32Z</time>
      </trkpt>
      <trkpt lat="44.82897" lon="5.9614">
        <ele>1104.1</ele>
        <time>2015-07-24T10:39:37Z</time>
      </trkpt>
      <trkpt lat="44.82897" lon="5.96141">
        <ele>1105.3</ele>
        <time>2015-07-24T10:39:42Z</time>
      </trkpt>
      <trkpt lat="44.82905" lon="5.96142">
        <ele>1104.3</ele>
        <time>2015-07-24T10:39:47Z</time>
      </trkpt>
      <trkpt lat="44.8291" lon="5.96146">
        <ele>1101.4</ele>
        <time>2015-07-24T10:39:52Z</time>
      </trkpt>
      <trkpt lat="44.82907" lon="5.96153">
        <ele>1103.3</ele>
        <time>2015-07-24T10:39:57Z</time>
      </trkpt>
      <trkpt lat="44.82904" lon="5.96162">
        <ele>1102.5</ele>
        <time>2015-07-24T10:40:02Z</time>
      </trkpt>
      <trkpt lat="44.82911" lon="5.96164">
        <ele>1100</ele>
        <time>2015-07-24T10:40:07Z</time>
      </trkpt>
      <trkpt lat="44.82911" lon="5.96171">
        <ele>1101.9</ele>
        <time>2015-07-24T10:40:12Z</time>
      </trkpt>
      <trkpt lat="44.82916" lon="5.96172">
        <ele>1099</ele>
        <time>2015-07-24T10:40:17Z</time>
      </trkpt>
      <trkpt lat="44.82918" lon="5.96171">
        <ele>1097.8</ele>
        <time>2015-07-24T10:40:22Z</time>
      </trkpt>
      <trkpt lat="44.82916" lon="5.96174">
        <ele>1099.3</ele>
        <time>2015-07-24T10:40:27Z</time>
      </trkpt>
      <trkpt lat="44.82917" lon="5.96174">
        <ele>1102.6</ele>
        <time>2015-07-24T10:40:32Z</time>
      </trkpt>
      <trkpt lat="44.82918" lon="5.96171">
        <ele>1103</ele>
        <time>2015-07-24T10:40:37Z</time>
      </trkpt>
      <trkpt lat="44.82918" lon="5.9617">
        <ele>1103.4</ele>
        <time>2015-07-24T10:40:42Z</time>
      </trkpt>
      <trkpt lat="44.82924" lon="5.96173">
        <ele>1097.6</ele>
        <time>2015-07-24T10:40:47Z</time>
      </trkpt>
      <trkpt lat="44.8292" lon="5.96185">
        <ele>1097.2</ele>
        <time>2015-07-24T10:40:52Z</time>
      </trkpt>
      <trkpt lat="44.82921" lon="5.96194">
        <ele>1102</ele>
        <time>2015-07-24T10:40:57Z</time>
      </trkpt>
      <trkpt lat="44.82923" lon="5.962">
        <ele>1102.9</ele>
        <time>2015-07-24T10:41:02Z</time>
      </trkpt>
      <trkpt lat="44.82922" lon="5.96208">
        <ele>1103.9</ele>
        <time>2015-07-24T10:41:07Z</time>
      </trkpt>
      <trkpt lat="44.82921" lon="5.96215">
        <ele>1105.9</ele>
        <time>2015-07-24T10:41:12Z</time>
      </trkpt>
      <trkpt lat="44.82919" lon="5.96224">
        <ele>1106.9</ele>
        <time>2015-07-24T10:41:17Z</time>
      </trkpt>
      <trkpt lat="44.82918" lon="5.96232">
        <ele>1107.2</ele>
        <time>2015-07-24T10:41:22Z</time>
      </trkpt>
      <trkpt lat="44.8292" lon="5.96237">
        <ele>1107.6</ele>
        <time>2015-07-24T10:41:27Z</time>
      </trkpt>
      <trkpt lat="44.82927" lon="5.96241">
        <ele>1106.6</ele>
        <time>2015-07-24T10:41:32Z</time>
      </trkpt>
      <trkpt lat="44.82934" lon="5.96244">
        <ele>1110.7</ele>
        <time>2015-07-24T10:41:37Z</time>
      </trkpt>
      <trkpt lat="44.82935" lon="5.9625">
        <ele>1115.5</ele>
        <time>2015-07-24T10:41:42Z</time>
      </trkpt>
      <trkpt lat="44.8294" lon="5.96251">
        <ele>1118.5</ele>
        <time>2015-07-24T10:41:47Z</time>
      </trkpt>
      <trkpt lat="44.82944" lon="5.96255">
        <ele>1123.5</ele>
        <time>2015-07-24T10:41:52Z</time>
      </trkpt>
      <trkpt lat="44.82948" lon="5.96254">
        <ele>1124.3</ele>
        <time>2015-07-24T10:41:57Z</time>
      </trkpt>
      <trkpt lat="44.82955" lon="5.96253">
        <ele>1126.7</ele>
        <time>2015-07-24T10:42:02Z</time>
      </trkpt>
      <trkpt lat="44.82961" lon="5.96256">
        <ele>1126.9</ele>
        <time>2015-07-24T10:42:07Z</time>
      </trkpt>
      <trkpt lat="44.82963" lon="5.96254">
        <ele>1124.4</ele>
        <time>2015-07-24T10:42:12Z</time>
      </trkpt>
      <trkpt lat="44.82963" lon="5.96252">
        <ele>1122.4</ele>
        <time>2015-07-24T10:42:17Z</time>
      </trkpt>
      <trkpt lat="44.82963" lon="5.9625">
        <ele>1121.6</ele>
        <time>2015-07-24T10:42:22Z</time>
      </trkpt>
      <trkpt lat="44.82964" lon="5.9625">
        <ele>1119</ele>
        <time>2015-07-24T10:42:27Z</time>
      </trkpt>
      <trkpt lat="44.82966" lon="5.96249">
        <ele>1116.8</ele>
        <time>2015-07-24T10:42:32Z</time>
      </trkpt>
      <trkpt lat="44.82969" lon="5.96248">
        <ele>1117.4</ele>
        <time>2015-07-24T10:42:37Z</time>
      </trkpt>
      <trkpt lat="44.82972" lon="5.9625">
        <ele>1118.2</ele>
        <time>2015-07-24T10:42:42Z</time>
      </trkpt>
      <trkpt lat="44.82979" lon="5.96255">
        <ele>1119.4</ele>
        <time>2015-07-24T10:42:47Z</time>
      </trkpt>
      <trkpt lat="44.82984" lon="5.9626">
        <ele>1122.3</ele>
        <time>2015-07-24T10:42:52Z</time>
      </trkpt>
      <trkpt lat="44.8299" lon="5.96264">
        <ele>1123.9</ele>
        <time>2015-07-24T10:42:57Z</time>
      </trkpt>
      <trkpt lat="44.82996" lon="5.96262">
        <ele>1123.1</ele>
        <time>2015-07-24T10:43:02Z</time>
      </trkpt>
      <trkpt lat="44.83002" lon="5.96261">
        <ele>1122.3</ele>
        <time>2015-07-24T10:43:07Z</time>
      </trkpt>
      <trkpt lat="44.83008" lon="5.96261">
        <ele>1124.5</ele>
        <time>2015-07-24T10:43:12Z</time>
      </trkpt>
      <trkpt lat="44.83013" lon="5.96259">
        <ele>1125.3</ele>
        <time>2015-07-24T10:43:17Z</time>
      </trkpt>
      <trkpt lat="44.83019" lon="5.96263">
        <ele>1126.7</ele>
        <time>2015-07-24T10:43:22Z</time>
      </trkpt>
      <trkpt lat="44.83024" lon="5.96265">
        <ele>1129.3</ele>
        <time>2015-07-24T10:43:27Z</time>
      </trkpt>
      <trkpt lat="44.8303" lon="5.96266">
        <ele>1131.9</ele>
        <time>2015-07-24T10:43:32Z</time>
      </trkpt>
      <trkpt lat="44.83035" lon="5.96265">
        <ele>1130.6</ele>
        <time>2015-07-24T10:43:37Z</time>
      </trkpt>
      <trkpt lat="44.8304" lon="5.96267">
        <ele>1132</ele>
        <time>2015-07-24T10:43:42Z</time>
      </trkpt>
      <trkpt lat="44.83043" lon="5.96267">
        <ele>1132.4</ele>
        <time>2015-07-24T10:43:47Z</time>
      </trkpt>
      <trkpt lat="44.83042" lon="5.96265">
        <ele>1131.3</ele>
        <time>2015-07-24T10:43:52Z</time>
      </trkpt>
      <trkpt lat="44.83042" lon="5.96266">
        <ele>1131.2</ele>
        <time>2015-07-24T10:43:57Z</time>
      </trkpt>
      <trkpt lat="44.83042" lon="5.96266">
        <ele>1132.1</ele>
        <time>2015-07-24T10:44:02Z</time>
      </trkpt>
      <trkpt lat="44.83045" lon="5.96268">
        <ele>1134.4</ele>
        <time>2015-07-24T10:44:07Z</time>
      </trkpt>
      <trkpt lat="44.83047" lon="5.96268">
        <ele>1136.4</ele>
        <time>2015-07-24T10:44:12Z</time>
      </trkpt>
      <trkpt lat="44.83049" lon="5.96271">
        <ele>1139.5</ele>
        <time>2015-07-24T10:44:17Z</time>
      </trkpt>
      <trkpt lat="44.83054" lon="5.96272">
        <ele>1139.4</ele>
        <time>2015-07-24T10:44:22Z</time>
      </trkpt>
      <trkpt lat="44.83059" lon="5.96272">
        <ele>1138.7</ele>
        <time>2015-07-24T10:44:27Z</time>
      </trkpt>
      <trkpt lat="44.83064" lon="5.96269">
        <ele>1137.5</ele>
        <time>2015-07-24T10:44:32Z</time>
      </trkpt>
      <trkpt lat="44.83067" lon="5.96267">
        <ele>1135.6</ele>
        <time>2015-07-24T10:44:37Z</time>
      </trkpt>
      <trkpt lat="44.8307" lon="5.96265">
        <ele>1135.9</ele>
        <time>2015-07-24T10:44:42Z</time>
      </trkpt>
      <trkpt lat="44.83074" lon="5.96266">
        <ele>1136</ele>
        <time>2015-07-24T10:44:47Z</time>
      </trkpt>
      <trkpt lat="44.83075" lon="5.96267">
        <ele>1135.6</ele>
        <time>2015-07-24T10:44:52Z</time>
      </trkpt>
      <trkpt lat="44.83076" lon="5.96271">
        <ele>1133.8</ele>
        <time>2015-07-24T10:44:57Z</time>
      </trkpt>
      <trkpt lat="44.8308" lon="5.96276">
        <ele>1134.4</ele>
        <time>2015-07-24T10:45:02Z</time>
      </trkpt>
      <trkpt lat="44.83085" lon="5.96282">
        <ele>1138.7</ele>
        <time>2015-07-24T10:45:07Z</time>
      </trkpt>
      <trkpt lat="44.8309" lon="5.96285">
        <ele>1139.8</ele>
        <time>2015-07-24T10:45:12Z</time>
      </trkpt>
      <trkpt lat="44.83093" lon="5.96289">
        <ele>1140.3</ele>
        <time>2015-07-24T10:45:17Z</time>
      </trkpt>
      <trkpt lat="44.83096" lon="5.96294">
        <ele>1142.9</ele>
        <time>2015-07-24T10:45:22Z</time>
      </trkpt>
      <trkpt lat="44.83099" lon="5.96301">
        <ele>1150.7</ele>
        <time>2015-07-24T10:45:27Z</time>
      </trkpt>
      <trkpt lat="44.83101" lon="5.96306">
        <ele>1157</ele>
        <time>2015-07-24T10:45:32Z</time>
      </trkpt>
      <trkpt lat="44.83104" lon="5.96307">
        <ele>1153.9</ele>
        <time>2015-07-24T10:45:37Z</time>
      </trkpt>
      <trkpt lat="44.83108" lon="5.9631">
        <ele>1153.1</ele>
        <time>2015-07-24T10:45:42Z</time>
      </trkpt>
      <trkpt lat="44.83111" lon="5.96309">
        <ele>1147.9</ele>
        <time>2015-07-24T10:45:47Z</time>
      </trkpt>
      <trkpt lat="44.83111" lon="5.9631">
        <ele>1146.1</ele>
        <time>2015-07-24T10:45:52Z</time>
      </trkpt>
      <trkpt lat="44.83109" lon="5.96314">
        <ele>1148.9</ele>
        <time>2015-07-24T10:45:57Z</time>
      </trkpt>
      <trkpt lat="44.83109" lon="5.96311">
        <ele>1147.7</ele>
        <time>2015-07-24T10:46:02Z</time>
      </trkpt>
      <trkpt lat="44.83111" lon="5.96314">
        <ele>1145.3</ele>
        <time>2015-07-24T10:46:07Z</time>
      </trkpt>
      <trkpt lat="44.83114" lon="5.96314">
        <ele>1145.3</ele>
        <time>2015-07-24T10:46:12Z</time>
      </trkpt>
      <trkpt lat="44.83116" lon="5.96312">
        <ele>1142.1</ele>
        <time>2015-07-24T10:46:17Z</time>
      </trkpt>
      <trkpt lat="44.83115" lon="5.96312">
        <ele>1140.4</ele>
        <time>2015-07-24T10:46:22Z</time>
      </trkpt>
      <trkpt lat="44.83116" lon="5.96318">
        <ele>1144.5</ele>
        <time>2015-07-24T10:46:27Z</time>
      </trkpt>
      <trkpt lat="44.83119" lon="5.96324">
        <ele>1145.9</ele>
        <time>2015-07-24T10:46:32Z</time>
      </trkpt>
      <trkpt lat="44.83119" lon="5.96331">
        <ele>1148.4</ele>
        <time>2015-07-24T10:46:37Z</time>
      </trkpt>
      <trkpt lat="44.83121" lon="5.96336">
        <ele>1148.6</ele>
        <time>2015-07-24T10:46:42Z</time>
      </trkpt>
      <trkpt lat="44.83124" lon="5.96341">
        <ele>1148.8</ele>
        <time>2015-07-24T10:46:47Z</time>
      </trkpt>
      <trkpt lat="44.83128" lon="5.96345">
        <ele>1149.8</ele>
        <time>2015-07-24T10:46:52Z</time>
      </trkpt>
      <trkpt lat="44.8313" lon="5.96351">
        <ele>1151.2</ele>
        <time>2015-07-24T10:46:57Z</time>
      </trkpt>
      <trkpt lat="44.83134" lon="5.96356">
        <ele>1151.7</ele>
        <time>2015-07-24T10:47:02Z</time>
      </trkpt>
      <trkpt lat="44.83138" lon="5.96361">
        <ele>1153.1</ele>
        <time>2015-07-24T10:47:07Z</time>
      </trkpt>
      <trkpt lat="44.8314" lon="5.96366">
        <ele>1155.1</ele>
        <time>2015-07-24T10:47:12Z</time>
      </trkpt>
      <trkpt lat="44.83146" lon="5.96366">
        <ele>1154.5</ele>
        <time>2015-07-24T10:47:17Z</time>
      </trkpt>
      <trkpt lat="44.83154" lon="5.96362">
        <ele>1155.4</ele>
        <time>2015-07-24T10:47:22Z</time>
      </trkpt>
      <trkpt lat="44.8316" lon="5.96356">
        <ele>1155.6</ele>
        <time>2015-07-24T10:47:27Z</time>
      </trkpt>
      <trkpt lat="44.83166" lon="5.96351">
        <ele>1155.6</ele>
        <time>2015-07-24T10:47:32Z</time>
      </trkpt>
      <trkpt lat="44.83173" lon="5.96348">
        <ele>1157.5</ele>
        <time>2015-07-24T10:47:37Z</time>
      </trkpt>
      <trkpt lat="44.83178" lon="5.96344">
        <ele>1159.1</ele>
        <time>2015-07-24T10:47:42Z</time>
      </trkpt>
      <trkpt lat="44.8318" lon="5.96342">
        <ele>1160.5</ele>
        <time>2015-07-24T10:47:47Z</time>
      </trkpt>
      <trkpt lat="44.8318" lon="5.96342">
        <ele>1160.9</ele>
        <time>2015-07-24T10:47:52Z</time>
      </trkpt>
      <trkpt lat="44.83181" lon="5.96337">
        <ele>1162.3</ele>
        <time>2015-07-24T10:47:57Z</time>
      </trkpt>
      <trkpt lat="44.83181" lon="5.96335">
        <ele>1162.1</ele>
        <time>2015-07-24T10:48:02Z</time>
      </trkpt>
      <trkpt lat="44.83181" lon="5.96332">
        <ele>1162.8</ele>
        <time>2015-07-24T10:48:07Z</time>
      </trkpt>
      <trkpt lat="44.83181" lon="5.96335">
        <ele>1164.1</ele>
        <time>2015-07-24T10:48:12Z</time>
      </trkpt>
      <trkpt lat="44.83178" lon="5.96335">
        <ele>1161.4</ele>
        <time>2015-07-24T10:48:17Z</time>
      </trkpt>
      <trkpt lat="44.83179" lon="5.96336">
        <ele>1159.3</ele>
        <time>2015-07-24T10:48:22Z</time>
      </trkpt>
      <trkpt lat="44.83175" lon="5.96338">
        <ele>1153.4</ele>
        <time>2015-07-24T10:48:27Z</time>
      </trkpt>
      <trkpt lat="44.83176" lon="5.96337">
        <ele>1149.9</ele>
        <time>2015-07-24T10:48:32Z</time>
      </trkpt>
      <trkpt lat="44.83181" lon="5.96334">
        <ele>1151.5</ele>
        <time>2015-07-24T10:48:37Z</time>
      </trkpt>
      <trkpt lat="44.83186" lon="5.96332">
        <ele>1154.7</ele>
        <time>2015-07-24T10:48:42Z</time>
      </trkpt>
      <trkpt lat="44.83188" lon="5.96331">
        <ele>1158.7</ele>
        <time>2015-07-24T10:48:47Z</time>
      </trkpt>
      <trkpt lat="44.83191" lon="5.96326">
        <ele>1153.7</ele>
        <time>2015-07-24T10:48:52Z</time>
      </trkpt>
      <trkpt lat="44.83194" lon="5.96321">
        <ele>1157.3</ele>
        <time>2015-07-24T10:48:57Z</time>
      </trkpt>
      <trkpt lat="44.83197" lon="5.96315">
        <ele>1158.1</ele>
        <time>2015-07-24T10:49:02Z</time>
      </trkpt>
      <trkpt lat="44.83201" lon="5.96309">
        <ele>1158</ele>
        <time>2015-07-24T10:49:07Z</time>
      </trkpt>
      <trkpt lat="44.83205" lon="5.96303">
        <ele>1153.4</ele>
        <time>2015-07-24T10:49:12Z</time>
      </trkpt>
      <trkpt lat="44.83208" lon="5.96298">
        <ele>1153.4</ele>
        <time>2015-07-24T10:49:17Z</time>
      </trkpt>
      <trkpt lat="44.83211" lon="5.96292">
        <ele>1154.1</ele>
        <time>2015-07-24T10:49:22Z</time>
      </trkpt>
      <trkpt lat="44.83214" lon="5.96285">
        <ele>1157.4</ele>
        <time>2015-07-24T10:49:27Z</time>
      </trkpt>
      <trkpt lat="44.83217" lon="5.9628">
        <ele>1160.6</ele>
        <time>2015-07-24T10:49:32Z</time>
      </trkpt>
      <trkpt lat="44.83221" lon="5.96277">
        <ele>1163.1</ele>
        <time>2015-07-24T10:49:37Z</time>
      </trkpt>
      <trkpt lat="44.83228" lon="5.96276">
        <ele>1170.3</ele>
        <time>2015-07-24T10:49:42Z</time>
      </trkpt>
      <trkpt lat="44.83238" lon="5.96269">
        <ele>1174.2</ele>
        <time>2015-07-24T10:49:47Z</time>
      </trkpt>
      <trkpt lat="44.83241" lon="5.96262">
        <ele>1174.8</ele>
        <time>2015-07-24T10:49:52Z</time>
      </trkpt>
      <trkpt lat="44.83246" lon="5.96259">
        <ele>1172.4</ele>
        <time>2015-07-24T10:49:57Z</time>
      </trkpt>
      <trkpt lat="44.83252" lon="5.96254">
        <ele>1172.3</ele>
        <time>2015-07-24T10:50:02Z</time>
      </trkpt>
      <trkpt lat="44.83254" lon="5.96252">
        <ele>1174.8</ele>
        <time>2015-07-24T10:50:07Z</time>
      </trkpt>
      <trkpt lat="44.83258" lon="5.96246">
        <ele>1174.5</ele>
        <time>2015-07-24T10:50:12Z</time>
      </trkpt>
      <trkpt lat="44.83263" lon="5.96242">
        <ele>1175.1</ele>
        <time>2015-07-24T10:50:17Z</time>
      </trkpt>
      <trkpt lat="44.83266" lon="5.96239">
        <ele>1173.2</ele>
        <time>2015-07-24T10:50:22Z</time>
      </trkpt>
      <trkpt lat="44.8327" lon="5.96233">
        <ele>1170.5</ele>
        <time>2015-07-24T10:50:27Z</time>
      </trkpt>
      <trkpt lat="44.83271" lon="5.96228">
        <ele>1170</ele>
        <time>2015-07-24T10:50:32Z</time>
      </trkpt>
      <trkpt lat="44.83278" lon="5.96224">
        <ele>1169.5</ele>
        <time>2015-07-24T10:50:37Z</time>
      </trkpt>
      <trkpt lat="44.83283" lon="5.96221">
        <ele>1171.8</ele>
        <time>2015-07-24T10:50:42Z</time>
      </trkpt>
      <trkpt lat="44.83289" lon="5.96216">
        <ele>1172.9</ele>
        <time>2015-07-24T10:50:47Z</time>
      </trkpt>
      <trkpt lat="44.83292" lon="5.96211">
        <ele>1171.6</ele>
        <time>2015-07-24T10:50:52Z</time>
      </trkpt>
      <trkpt lat="44.83297" lon="5.96208">
        <ele>1173.8</ele>
        <time>2015-07-24T10:50:57Z</time>
      </trkpt>
      <trkpt lat="44.833" lon="5.96204">
        <ele>1174.4</ele>
        <time>2015-07-24T10:51:02Z</time>
      </trkpt>
      <trkpt lat="44.83305" lon="5.96202">
        <ele>1174.5</ele>
        <time>2015-07-24T10:51:07Z</time>
      </trkpt>
      <trkpt lat="44.83308" lon="5.96199">
        <ele>1173.8</ele>
        <time>2015-07-24T10:51:12Z</time>
      </trkpt>
      <trkpt lat="44.83312" lon="5.96196">
        <ele>1173.6</ele>
        <time>2015-07-24T10:51:17Z</time>
      </trkpt>
      <trkpt lat="44.83318" lon="5.96192">
        <ele>1173.2</ele>
        <time>2015-07-24T10:51:22Z</time>
      </trkpt>
      <trkpt lat="44.8332" lon="5.96189">
        <ele>1173</ele>
        <time>2015-07-24T10:51:27Z</time>
      </trkpt>
      <trkpt lat="44.83323" lon="5.96191">
        <ele>1179</ele>
        <time>2015-07-24T10:51:32Z</time>
      </trkpt>
      <trkpt lat="44.83329" lon="5.9619">
        <ele>1183.5</ele>
        <time>2015-07-24T10:51:37Z</time>
      </trkpt>
      <trkpt lat="44.83334" lon="5.96187">
        <ele>1183.9</ele>
        <time>2015-07-24T10:51:42Z</time>
      </trkpt>
      <trkpt lat="44.8334" lon="5.96185">
        <ele>1185.9</ele>
        <time>2015-07-24T10:51:47Z</time>
      </trkpt>
      <trkpt lat="44.83344" lon="5.96183">
        <ele>1184.3</ele>
        <time>2015-07-24T10:51:52Z</time>
      </trkpt>
      <trkpt lat="44.83345" lon="5.96183">
        <ele>1185.5</ele>
        <time>2015-07-24T10:51:57Z</time>
      </trkpt>
      <trkpt lat="44.8335" lon="5.96183">
        <ele>1185.6</ele>
        <time>2015-07-24T10:52:02Z</time>
      </trkpt>
      <trkpt lat="44.83353" lon="5.96181">
        <ele>1183.4</ele>
        <time>2015-07-24T10:52:07Z</time>
      </trkpt>
      <trkpt lat="44.83355" lon="5.96177">
        <ele>1184.4</ele>
        <time>2015-07-24T10:52:12Z</time>
      </trkpt>
      <trkpt lat="44.83357" lon="5.96174">
        <ele>1183.7</ele>
        <time>2015-07-24T10:52:17Z</time>
      </trkpt>
      <trkpt lat="44.83355" lon="5.96174">
        <ele>1183.9</ele>
        <time>2015-07-24T10:52:22Z</time>
      </trkpt>
      <trkpt lat="44.83351" lon="5.9617">
        <ele>1180.2</ele>
        <time>2015-07-24T10:52:27Z</time>
      </trkpt>
      <trkpt lat="44.83354" lon="5.96163">
        <ele>1179.8</ele>
        <time>2015-07-24T10:52:32Z</time>
      </trkpt>
      <trkpt lat="44.83358" lon="5.96163">
        <ele>1182.9</ele>
        <time>2015-07-24T10:52:37Z</time>
      </trkpt>
      <trkpt lat="44.83358" lon="5.96158">
        <ele>1183.9</ele>
        <time>2015-07-24T10:52:42Z</time>
      </trkpt>
      <trkpt lat="44.8336" lon="5.9615">
        <ele>1183.9</ele>
        <time>2015-07-24T10:52:47Z</time>
      </trkpt>
      <trkpt lat="44.83363" lon="5.96142">
        <ele>1184.3</ele>
        <time>2015-07-24T10:52:52Z</time>
      </trkpt>
      <trkpt lat="44.83366" lon="5.96137">
        <ele>1183.5</ele>
        <time>2015-07-24T10:52:57Z</time>
      </trkpt>
      <trkpt lat="44.83368" lon="5.96133">
        <ele>1182.5</ele>
        <time>2015-07-24T10:53:02Z</time>
      </trkpt>
      <trkpt lat="44.8337" lon="5.96133">
        <ele>1183.6</ele>
        <time>2015-07-24T10:53:07Z</time>
      </trkpt>
      <trkpt lat="44.83371" lon="5.96132">
        <ele>1187.3</ele>
        <time>2015-07-24T10:53:12Z</time>
      </trkpt>
      <trkpt lat="44.83376" lon="5.96132">
        <ele>1190.4</ele>
        <time>2015-07-24T10:53:17Z</time>
      </trkpt>
      <trkpt lat="44.83378" lon="5.96133">
        <ele>1189.8</ele>
        <time>2015-07-24T10:53:22Z</time>
      </trkpt>
      <trkpt lat="44.83381" lon="5.96132">
        <ele>1195.1</ele>
        <time>2015-07-24T10:53:27Z</time>
      </trkpt>
      <trkpt lat="44.83373" lon="5.96134">
        <ele>1198.3</ele>
        <time>2015-07-24T10:53:32Z</time>
      </trkpt>
      <trkpt lat="44.83372" lon="5.9614">
        <ele>1195.7</ele>
        <time>2015-07-24T10:53:37Z</time>
      </trkpt>
      <trkpt lat="44.83373" lon="5.96138">
        <ele>1197.3</ele>
        <time>2015-07-24T10:53:42Z</time>
      </trkpt>
      <trkpt lat="44.83372" lon="5.96141">
        <ele>1198.2</ele>
        <time>2015-07-24T10:53:47Z</time>
      </trkpt>
      <trkpt lat="44.83371" lon="5.96142">
        <ele>1198.5</ele>
        <time>2015-07-24T10:53:52Z</time>
      </trkpt>
      <trkpt lat="44.83371" lon="5.96145">
        <ele>1199.8</ele>
        <time>2015-07-24T10:53:57Z</time>
      </trkpt>
      <trkpt lat="44.83371" lon="5.96147">
        <ele>1202.1</ele>
        <time>2015-07-24T10:54:02Z</time>
      </trkpt>
      <trkpt lat="44.8337" lon="5.96148">
        <ele>1203.4</ele>
        <time>2015-07-24T10:54:07Z</time>
      </trkpt>
      <trkpt lat="44.8337" lon="5.96142">
        <ele>1199.1</ele>
        <time>2015-07-24T10:54:12Z</time>
      </trkpt>
      <trkpt lat="44.83375" lon="5.96136">
        <ele>1193.6</ele>
        <time>2015-07-24T10:54:17Z</time>
      </trkpt>
      <trkpt lat="44.83376" lon="5.9614">
        <ele>1196.1</ele>
        <time>2015-07-24T10:54:22Z</time>
      </trkpt>
      <trkpt lat="44.8337" lon="5.96141">
        <ele>1196.8</ele>
        <time>2015-07-24T10:54:27Z</time>
      </trkpt>
      <trkpt lat="44.83373" lon="5.96148">
        <ele>1196.9</ele>
        <time>2015-07-24T10:54:32Z</time>
      </trkpt>
      <trkpt lat="44.83375" lon="5.96154">
        <ele>1196.3</ele>
        <time>2015-07-24T10:54:37Z</time>
      </trkpt>
      <trkpt lat="44.8337" lon="5.96151">
        <ele>1195.8</ele>
        <time>2015-07-24T10:54:42Z</time>
      </trkpt>
      <trkpt lat="44.83377" lon="5.96149">
        <ele>1209</ele>
        <time>2015-07-24T10:54:47Z</time>
      </trkpt>
      <trkpt lat="44.83373" lon="5.96151">
        <ele>1208.1</ele>
        <time>2015-07-24T10:54:52Z</time>
      </trkpt>
      <trkpt lat="44.8337" lon="5.9616">
        <ele>1205.5</ele>
        <time>2015-07-24T10:54:57Z</time>
      </trkpt>
      <trkpt lat="44.8337" lon="5.96171">
        <ele>1202.9</ele>
        <time>2015-07-24T10:55:02Z</time>
      </trkpt>
      <trkpt lat="44.8337" lon="5.96179">
        <ele>1201.4</ele>
        <time>2015-07-24T10:55:07Z</time>
      </trkpt>
      <trkpt lat="44.83373" lon="5.96181">
        <ele>1200</ele>
        <time>2015-07-24T10:55:12Z</time>
      </trkpt>
      <trkpt lat="44.83375" lon="5.9618">
        <ele>1197.1</ele>
        <time>2015-07-24T10:55:17Z</time>
      </trkpt>
      <trkpt lat="44.83376" lon="5.9618">
        <ele>1195.8</ele>
        <time>2015-07-24T10:55:22Z</time>
      </trkpt>
      <trkpt lat="44.83378" lon="5.96181">
        <ele>1194.9</ele>
        <time>2015-07-24T10:55:27Z</time>
      </trkpt>
      <trkpt lat="44.8338" lon="5.96183">
        <ele>1195.8</ele>
        <time>2015-07-24T10:55:32Z</time>
      </trkpt>
      <trkpt lat="44.8338" lon="5.96181">
        <ele>1196.5</ele>
        <time>2015-07-24T10:55:37Z</time>
      </trkpt>
      <trkpt lat="44.8338" lon="5.9618">
        <ele>1195.9</ele>
        <time>2015-07-24T10:55:42Z</time>
      </trkpt>
      <trkpt lat="44.83379" lon="5.96186">
        <ele>1194.7</ele>
        <time>2015-07-24T10:55:47Z</time>
      </trkpt>
      <trkpt lat="44.83379" lon="5.96195">
        <ele>1196.8</ele>
        <time>2015-07-24T10:55:52Z</time>
      </trkpt>
      <trkpt lat="44.83378" lon="5.96204">
        <ele>1202.3</ele>
        <time>2015-07-24T10:55:57Z</time>
      </trkpt>
      <trkpt lat="44.8338" lon="5.96212">
        <ele>1203.3</ele>
        <time>2015-07-24T10:56:02Z</time>
      </trkpt>
      <trkpt lat="44.83381" lon="5.96222">
        <ele>1206.3</ele>
        <time>2015-07-24T10:56:07Z</time>
      </trkpt>
      <trkpt lat="44.83382" lon="5.96234">
        <ele>1209.9</ele>
        <time>2015-07-24T10:56:12Z</time>
      </trkpt>
      <trkpt lat="44.83384" lon="5.96245">
        <ele>1213.3</ele>
        <time>2015-07-24T10:56:17Z</time>
      </trkpt>
      <trkpt lat="44.83389" lon="5.96251">
        <ele>1213.4</ele>
        <time>2015-07-24T10:56:22Z</time>
      </trkpt>
      <trkpt lat="44.83394" lon="5.96254">
        <ele>1212.5</ele>
        <time>2015-07-24T10:56:27Z</time>
      </trkpt>
      <trkpt lat="44.834" lon="5.96263">
        <ele>1218.1</ele>
        <time>2015-07-24T10:56:32Z</time>
      </trkpt>
      <trkpt lat="44.83403" lon="5.9627">
        <ele>1220.2</ele>
        <time>2015-07-24T10:56:37Z</time>
      </trkpt>
      <trkpt lat="44.83408" lon="5.96272">
        <ele>1216.3</ele>
        <time>2015-07-24T10:56:42Z</time>
      </trkpt>
      <trkpt lat="44.83411" lon="5.96272">
        <ele>1212.3</ele>
        <time>2015-07-24T10:56:47Z</time>
      </trkpt>
      <trkpt lat="44.83415" lon="5.96276">
        <ele>1211.6</ele>
        <time>2015-07-24T10:56:52Z</time>
      </trkpt>
      <trkpt lat="44.83421" lon="5.9628">
        <ele>1212</ele>
        <time>2015-07-24T10:56:57Z</time>
      </trkpt>
      <trkpt lat="44.83428" lon="5.96285">
        <ele>1213.4</ele>
        <time>2015-07-24T10:57:02Z</time>
      </trkpt>
      <trkpt lat="44.83431" lon="5.96287">
        <ele>1210.3</ele>
        <time>2015-07-24T10:57:07Z</time>
      </trkpt>
      <trkpt lat="44.83432" lon="5.96288">
        <ele>1210.1</ele>
        <time>2015-07-24T10:57:12Z</time>
      </trkpt>
      <trkpt lat="44.83436" lon="5.96292">
        <ele>1209.2</ele>
        <time>2015-07-24T10:57:17Z</time>
      </trkpt>
      <trkpt lat="44.83442" lon="5.96294">
        <ele>1207.7</ele>
        <time>2015-07-24T10:57:22Z</time>
      </trkpt>
      <trkpt lat="44.83445" lon="5.96294">
        <ele>1206.5</ele>
        <time>2015-07-24T10:57:27Z</time>
      </trkpt>
      <trkpt lat="44.83444" lon="5.96294">
        <ele>1209.5</ele>
        <time>2015-07-24T10:57:32Z</time>
      </trkpt>
      <trkpt lat="44.83446" lon="5.9629">
        <ele>1208.7</ele>
        <time>2015-07-24T10:57:37Z</time>
      </trkpt>
      <trkpt lat="44.83448" lon="5.96288">
        <ele>1215.8</ele>
        <time>2015-07-24T10:57:42Z</time>
      </trkpt>
      <trkpt lat="44.83449" lon="5.96288">
        <ele>1215</ele>
        <time>2015-07-24T10:57:47Z</time>
      </trkpt>
      <trkpt lat="44.83445" lon="5.96289">
        <ele>1211.2</ele>
        <time>2015-07-24T10:57:52Z</time>
      </trkpt>
      <trkpt lat="44.8344" lon="5.9629">
        <ele>1211.3</ele>
        <time>2015-07-24T10:57:57Z</time>
      </trkpt>
      <trkpt lat="44.83447" lon="5.96288">
        <ele>1209.6</ele>
        <time>2015-07-24T10:58:02Z</time>
      </trkpt>
      <trkpt lat="44.83452" lon="5.9629">
        <ele>1208.6</ele>
        <time>2015-07-24T10:58:07Z</time>
      </trkpt>
      <trkpt lat="44.83455" lon="5.96291">
        <ele>1210.7</ele>
        <time>2015-07-24T10:58:12Z</time>
      </trkpt>
      <trkpt lat="44.83455" lon="5.96296">
        <ele>1213.1</ele>
        <time>2015-07-24T10:58:17Z</time>
      </trkpt>
      <trkpt lat="44.83455" lon="5.96301">
        <ele>1216</ele>
        <time>2015-07-24T10:58:22Z</time>
      </trkpt>
      <trkpt lat="44.83458" lon="5.96302">
        <ele>1216.5</ele>
        <time>2015-07-24T10:58:27Z</time>
      </trkpt>
      <trkpt lat="44.83458" lon="5.96301">
        <ele>1218.1</ele>
        <time>2015-07-24T10:58:32Z</time>
      </trkpt>
      <trkpt lat="44.83457" lon="5.96305">
        <ele>1218.9</ele>
        <time>2015-07-24T10:58:37Z</time>
      </trkpt>
      <trkpt lat="44.8346" lon="5.9631">
        <ele>1218.9</ele>
        <time>2015-07-24T10:58:42Z</time>
      </trkpt>
      <trkpt lat="44.83465" lon="5.96315">
        <ele>1218.7</ele>
        <time>2015-07-24T10:58:47Z</time>
      </trkpt>
      <trkpt lat="44.83469" lon="5.96319">
        <ele>1218.4</ele>
        <time>2015-07-24T10:58:52Z</time>
      </trkpt>
      <trkpt lat="44.83477" lon="5.96322">
        <ele>1216.8</ele>
        <time>2015-07-24T10:58:57Z</time>
      </trkpt>
      <trkpt lat="44.83479" lon="5.96328">
        <ele>1218.3</ele>
        <time>2015-07-24T10:59:02Z</time>
      </trkpt>
      <trkpt lat="44.83479" lon="5.96335">
        <ele>1222.6</ele>
        <time>2015-07-24T10:59:07Z</time>
      </trkpt>
      <trkpt lat="44.83479" lon="5.96343">
        <ele>1224.2</ele>
        <time>2015-07-24T10:59:12Z</time>
      </trkpt>
      <trkpt lat="44.8348" lon="5.9635">
        <ele>1224.1</ele>
        <time>2015-07-24T10:59:17Z</time>
      </trkpt>
      <trkpt lat="44.8348" lon="5.96358">
        <ele>1226.1</ele>
        <time>2015-07-24T10:59:22Z</time>
      </trkpt>
      <trkpt lat="44.83483" lon="5.96366">
        <ele>1225.2</ele>
        <time>2015-07-24T10:59:27Z</time>
      </trkpt>
      <trkpt lat="44.83484" lon="5.9637">
        <ele>1222.2</ele>
        <time>2015-07-24T10:59:32Z</time>
      </trkpt>
      <trkpt lat="44.83484" lon="5.96373">
        <ele>1221.5</ele>
        <time>2015-07-24T10:59:37Z</time>
      </trkpt>
      <trkpt lat="44.83485" lon="5.96377">
        <ele>1223.6</ele>
        <time>2015-07-24T10:59:42Z</time>
      </trkpt>
      <trkpt lat="44.83491" lon="5.96382">
        <ele>1224.2</ele>
        <time>2015-07-24T10:59:47Z</time>
      </trkpt>
      <trkpt lat="44.83494" lon="5.96388">
        <ele>1225</ele>
        <time>2015-07-24T10:59:52Z</time>
      </trkpt>
      <trkpt lat="44.83496" lon="5.96392">
        <ele>1226.9</ele>
        <time>2015-07-24T10:59:57Z</time>
      </trkpt>
      <trkpt lat="44.83501" lon="5.96398">
        <ele>1226</ele>
        <time>2015-07-24T11:00:02Z</time>
      </trkpt>
      <trkpt lat="44.83505" lon="5.96403">
        <ele>1225.6</ele>
        <time>2015-07-24T11:00:07Z</time>
      </trkpt>
      <trkpt lat="44.83508" lon="5.9641">
        <ele>1227.8</ele>
        <time>2015-07-24T11:00:12Z</time>
      </trkpt>
      <trkpt lat="44.83512" lon="5.96416">
        <ele>1228.7</ele>
        <time>2015-07-24T11:00:17Z</time>
      </trkpt>
      <trkpt lat="44.83515" lon="5.96423">
        <ele>1229.2</ele>
        <time>2015-07-24T11:00:22Z</time>
      </trkpt>
      <trkpt lat="44.83519" lon="5.9643">
        <ele>1229.8</ele>
        <time>2015-07-24T11:00:27Z</time>
      </trkpt>
      <trkpt lat="44.83522" lon="5.96429">
        <ele>1230.9</ele>
        <time>2015-07-24T11:00:32Z</time>
      </trkpt>
      <trkpt lat="44.83523" lon="5.96422">
        <ele>1232.3</ele>
        <time>2015-07-24T11:00:37Z</time>
      </trkpt>
      <trkpt lat="44.83523" lon="5.96413">
        <ele>1233</ele>
        <time>2015-07-24T11:00:42Z</time>
      </trkpt>
      <trkpt lat="44.83523" lon="5.96405">
        <ele>1235</ele>
        <time>2015-07-24T11:00:47Z</time>
      </trkpt>
      <trkpt lat="44.83524" lon="5.96398">
        <ele>1236.9</ele>
        <time>2015-07-24T11:00:52Z</time>
      </trkpt>
      <trkpt lat="44.83527" lon="5.96395">
        <ele>1238</ele>
        <time>2015-07-24T11:00:57Z</time>
      </trkpt>
      <trkpt lat="44.8353" lon="5.96397">
        <ele>1238.3</ele>
        <time>2015-07-24T11:01:02Z</time>
      </trkpt>
      <trkpt lat="44.83531" lon="5.96403">
        <ele>1238.7</ele>
        <time>2015-07-24T11:01:07Z</time>
      </trkpt>
      <trkpt lat="44.83533" lon="5.9641">
        <ele>1239.2</ele>
        <time>2015-07-24T11:01:12Z</time>
      </trkpt>
      <trkpt lat="44.83535" lon="5.96417">
        <ele>1239.6</ele>
        <time>2015-07-24T11:01:17Z</time>
      </trkpt>
      <trkpt lat="44.83537" lon="5.96424">
        <ele>1240</ele>
        <time>2015-07-24T11:01:22Z</time>
      </trkpt>
      <trkpt lat="44.8354" lon="5.9643">
        <ele>1240.2</ele>
        <time>2015-07-24T11:01:27Z</time>
      </trkpt>
      <trkpt lat="44.83542" lon="5.96433">
        <ele>1240</ele>
        <time>2015-07-24T11:01:32Z</time>
      </trkpt>
      <trkpt lat="44.83544" lon="5.96439">
        <ele>1239.8</ele>
        <time>2015-07-24T11:01:37Z</time>
      </trkpt>
      <trkpt lat="44.83545" lon="5.9644">
        <ele>1239.5</ele>
        <time>2015-07-24T11:01:42Z</time>
      </trkpt>
      <trkpt lat="44.83544" lon="5.9644">
        <ele>1239.7</ele>
        <time>2015-07-24T11:01:47Z</time>
      </trkpt>
      <trkpt lat="44.83544" lon="5.96443">
        <ele>1239.6</ele>
        <time>2015-07-24T11:01:52Z</time>
      </trkpt>
      <trkpt lat="44.83545" lon="5.96451">
        <ele>1239.5</ele>
        <time>2015-07-24T11:01:57Z</time>
      </trkpt>
      <trkpt lat="44.83546" lon="5.96458">
        <ele>1239.8</ele>
        <time>2015-07-24T11:02:02Z</time>
      </trkpt>
      <trkpt lat="44.83546" lon="5.96465">
        <ele>1240</ele>
        <time>2015-07-24T11:02:07Z</time>
      </trkpt>
      <trkpt lat="44.83546" lon="5.96473">
        <ele>1240.7</ele>
        <time>2015-07-24T11:02:12Z</time>
      </trkpt>
      <trkpt lat="44.83546" lon="5.96483">
        <ele>1241.3</ele>
        <time>2015-07-24T11:02:17Z</time>
      </trkpt>
      <trkpt lat="44.83545" lon="5.96491">
        <ele>1240.8</ele>
        <time>2015-07-24T11:02:22Z</time>
      </trkpt>
      <trkpt lat="44.83545" lon="5.96499">
        <ele>1240.5</ele>
        <time>2015-07-24T11:02:27Z</time>
      </trkpt>
      <trkpt lat="44.83549" lon="5.96497">
        <ele>1240.6</ele>
        <time>2015-07-24T11:02:32Z</time>
      </trkpt>
      <trkpt lat="44.8355" lon="5.96489">
        <ele>1240.4</ele>
        <time>2015-07-24T11:02:37Z</time>
      </trkpt>
      <trkpt lat="44.8355" lon="5.96481">
        <ele>1240.6</ele>
        <time>2015-07-24T11:02:42Z</time>
      </trkpt>
      <trkpt lat="44.8355" lon="5.96472">
        <ele>1240.6</ele>
        <time>2015-07-24T11:02:47Z</time>
      </trkpt>
      <trkpt lat="44.8355" lon="5.96464">
        <ele>1242.4</ele>
        <time>2015-07-24T11:02:52Z</time>
      </trkpt>
      <trkpt lat="44.83552" lon="5.96455">
        <ele>1243.1</ele>
        <time>2015-07-24T11:02:57Z</time>
      </trkpt>
      <trkpt lat="44.83553" lon="5.96447">
        <ele>1243.9</ele>
        <time>2015-07-24T11:03:02Z</time>
      </trkpt>
      <trkpt lat="44.83553" lon="5.96439">
        <ele>1245.4</ele>
        <time>2015-07-24T11:03:07Z</time>
      </trkpt>
      <trkpt lat="44.83553" lon="5.9643">
        <ele>1245.4</ele>
        <time>2015-07-24T11:03:12Z</time>
      </trkpt>
      <trkpt lat="44.83553" lon="5.96422">
        <ele>1246.4</ele>
        <time>2015-07-24T11:03:17Z</time>
      </trkpt>
      <trkpt lat="44.83555" lon="5.96415">
        <ele>1249</ele>
        <time>2015-07-24T11:03:22Z</time>
      </trkpt>
      <trkpt lat="44.83555" lon="5.96407">
        <ele>1249.3</ele>
        <time>2015-07-24T11:03:27Z</time>
      </trkpt>
      <trkpt lat="44.83554" lon="5.96398">
        <ele>1249.4</ele>
        <time>2015-07-24T11:03:32Z</time>
      </trkpt>
      <trkpt lat="44.83552" lon="5.9639">
        <ele>1248.4</ele>
        <time>2015-07-24T11:03:37Z</time>
      </trkpt>
      <trkpt lat="44.83552" lon="5.96382">
        <ele>1247.3</ele>
        <time>2015-07-24T11:03:42Z</time>
      </trkpt>
      <trkpt lat="44.83552" lon="5.96373">
        <ele>1248.2</ele>
        <time>2015-07-24T11:03:47Z</time>
      </trkpt>
      <trkpt lat="44.83551" lon="5.96365">
        <ele>1248</ele>
        <time>2015-07-24T11:03:52Z</time>
      </trkpt>
      <trkpt lat="44.8355" lon="5.96356">
        <ele>1249.1</ele>
        <time>2015-07-24T11:03:57Z</time>
      </trkpt>
      <trkpt lat="44.83551" lon="5.96348">
        <ele>1249.9</ele>
        <time>2015-07-24T11:04:02Z</time>
      </trkpt>
      <trkpt lat="44.83553" lon="5.96341">
        <ele>1251.3</ele>
        <time>2015-07-24T11:04:07Z</time>
      </trkpt>
      <trkpt lat="44.83553" lon="5.96333">
        <ele>1252.5</ele>
        <time>2015-07-24T11:04:12Z</time>
      </trkpt>
      <trkpt lat="44.83555" lon="5.96325">
        <ele>1253.8</ele>
        <time>2015-07-24T11:04:17Z</time>
      </trkpt>
      <trkpt lat="44.83556" lon="5.96318">
        <ele>1256.1</ele>
        <time>2015-07-24T11:04:22Z</time>
      </trkpt>
      <trkpt lat="44.83558" lon="5.96311">
        <ele>1256.5</ele>
        <time>2015-07-24T11:04:27Z</time>
      </trkpt>
      <trkpt lat="44.8356" lon="5.96303">
        <ele>1256.3</ele>
        <time>2015-07-24T11:04:32Z</time>
      </trkpt>
      <trkpt lat="44.83561" lon="5.96294">
        <ele>1256.6</ele>
        <time>2015-07-24T11:04:37Z</time>
      </trkpt>
      <trkpt lat="44.83563" lon="5.96286">
        <ele>1257.4</ele>
        <time>2015-07-24T11:04:42Z</time>
      </trkpt>
      <trkpt lat="44.83563" lon="5.96278">
        <ele>1258.4</ele>
        <time>2015-07-24T11:04:47Z</time>
      </trkpt>
      <trkpt lat="44.83563" lon="5.9627">
        <ele>1259.3</ele>
        <time>2015-07-24T11:04:52Z</time>
      </trkpt>
      <trkpt lat="44.83562" lon="5.96262">
        <ele>1260</ele>
        <time>2015-07-24T11:04:57Z</time>
      </trkpt>
      <trkpt lat="44.83562" lon="5.96254">
        <ele>1260.6</ele>
        <time>2015-07-24T11:05:02Z</time>
      </trkpt>
      <trkpt lat="44.83563" lon="5.96246">
        <ele>1261.2</ele>
        <time>2015-07-24T11:05:07Z</time>
      </trkpt>
      <trkpt lat="44.83566" lon="5.9624">
        <ele>1262.1</ele>
        <time>2015-07-24T11:05:12Z</time>
      </trkpt>
      <trkpt lat="44.83569" lon="5.96239">
        <ele>1261.7</ele>
        <time>2015-07-24T11:05:17Z</time>
      </trkpt>
      <trkpt lat="44.83569" lon="5.96241">
        <ele>1261.5</ele>
        <time>2015-07-24T11:05:22Z</time>
      </trkpt>
      <trkpt lat="44.83567" lon="5.96241">
        <ele>1261.6</ele>
        <time>2015-07-24T11:05:27Z</time>
      </trkpt>
      <trkpt lat="44.83566" lon="5.96241">
        <ele>1261.5</ele>
        <time>2015-07-24T11:05:32Z</time>
      </trkpt>
      <trkpt lat="44.83566" lon="5.96242">
        <ele>1261.4</ele>
        <time>2015-07-24T11:05:37Z</time>
      </trkpt>
      <trkpt lat="44.83564" lon="5.96243">
        <ele>1262.1</ele>
        <time>2015-07-24T11:05:42Z</time>
      </trkpt>
      <trkpt lat="44.83564" lon="5.96243">
        <ele>1262.6</ele>
        <time>2015-07-24T11:05:47Z</time>
      </trkpt>
      <trkpt lat="44.83568" lon="5.96248">
        <ele>1263</ele>
        <time>2015-07-24T11:05:52Z</time>
      </trkpt>
      <trkpt lat="44.83571" lon="5.96254">
        <ele>1263.2</ele>
        <time>2015-07-24T11:05:57Z</time>
      </trkpt>
      <trkpt lat="44.83572" lon="5.96261">
        <ele>1264.6</ele>
        <time>2015-07-24T11:06:02Z</time>
      </trkpt>
      <trkpt lat="44.83572" lon="5.96269">
        <ele>1266.2</ele>
        <time>2015-07-24T11:06:07Z</time>
      </trkpt>
      <trkpt lat="44.83573" lon="5.96276">
        <ele>1265.7</ele>
        <time>2015-07-24T11:06:12Z</time>
      </trkpt>
      <trkpt lat="44.83573" lon="5.96284">
        <ele>1265.4</ele>
        <time>2015-07-24T11:06:17Z</time>
      </trkpt>
      <trkpt lat="44.83572" lon="5.96291">
        <ele>1265.6</ele>
        <time>2015-07-24T11:06:22Z</time>
      </trkpt>
      <trkpt lat="44.83573" lon="5.96298">
        <ele>1265.4</ele>
        <time>2015-07-24T11:06:27Z</time>
      </trkpt>
      <trkpt lat="44.83573" lon="5.96306">
        <ele>1265.7</ele>
        <time>2015-07-24T11:06:32Z</time>
      </trkpt>
      <trkpt lat="44.83575" lon="5.96314">
        <ele>1265.6</ele>
        <time>2015-07-24T11:06:37Z</time>
      </trkpt>
      <trkpt lat="44.83577" lon="5.96321">
        <ele>1265.9</ele>
        <time>2015-07-24T11:06:42Z</time>
      </trkpt>
      <trkpt lat="44.83579" lon="5.96328">
        <ele>1266.4</ele>
        <time>2015-07-24T11:06:47Z</time>
      </trkpt>
      <trkpt lat="44.8358" lon="5.96336">
        <ele>1267.2</ele>
        <time>2015-07-24T11:06:52Z</time>
      </trkpt>
      <trkpt lat="44.83582" lon="5.96343">
        <ele>1267</ele>
        <time>2015-07-24T11:06:57Z</time>
      </trkpt>
      <trkpt lat="44.83584" lon="5.96351">
        <ele>1266.5</ele>
        <time>2015-07-24T11:07:02Z</time>
      </trkpt>
      <trkpt lat="44.83585" lon="5.96359">
        <ele>1267.4</ele>
        <time>2015-07-24T11:07:07Z</time>
      </trkpt>
      <trkpt lat="44.83588" lon="5.96366">
        <ele>1267.9</ele>
        <time>2015-07-24T11:07:12Z</time>
      </trkpt>
      <trkpt lat="44.8359" lon="5.96373">
        <ele>1268.2</ele>
        <time>2015-07-24T11:07:17Z</time>
      </trkpt>
      <trkpt lat="44.83592" lon="5.9638">
        <ele>1268.8</ele>
        <time>2015-07-24T11:07:22Z</time>
      </trkpt>
      <trkpt lat="44.83593" lon="5.96388">
        <ele>1269.5</ele>
        <time>2015-07-24T11:07:27Z</time>
      </trkpt>
      <trkpt lat="44.83595" lon="5.96396">
        <ele>1269.9</ele>
        <time>2015-07-24T11:07:32Z</time>
      </trkpt>
      <trkpt lat="44.83597" lon="5.96403">
        <ele>1270.3</ele>
        <time>2015-07-24T11:07:37Z</time>
      </trkpt>
      <trkpt lat="44.836" lon="5.9641">
        <ele>1270.7</ele>
        <time>2015-07-24T11:07:42Z</time>
      </trkpt>
      <trkpt lat="44.83601" lon="5.96417">
        <ele>1270.8</ele>
        <time>2015-07-24T11:07:47Z</time>
      </trkpt>
      <trkpt lat="44.83603" lon="5.96424">
        <ele>1271.1</ele>
        <time>2015-07-24T11:07:52Z</time>
      </trkpt>
      <trkpt lat="44.83605" lon="5.96431">
        <ele>1271.6</ele>
        <time>2015-07-24T11:07:57Z</time>
      </trkpt>
      <trkpt lat="44.83608" lon="5.96437">
        <ele>1272.1</ele>
        <time>2015-07-24T11:08:02Z</time>
      </trkpt>
      <trkpt lat="44.83609" lon="5.96444">
        <ele>1272.5</ele>
        <time>2015-07-24T11:08:07Z</time>
      </trkpt>
      <trkpt lat="44.83612" lon="5.96451">
        <ele>1272.7</ele>
        <time>2015-07-24T11:08:12Z</time>
      </trkpt>
      <trkpt lat="44.83614" lon="5.96458">
        <ele>1273.3</ele>
        <time>2015-07-24T11:08:17Z</time>
      </trkpt>
      <trkpt lat="44.83616" lon="5.96464">
        <ele>1274.4</ele>
        <time>2015-07-24T11:08:22Z</time>
      </trkpt>
      <trkpt lat="44.83617" lon="5.96471">
        <ele>1275.9</ele>
        <time>2015-07-24T11:08:27Z</time>
      </trkpt>
      <trkpt lat="44.83618" lon="5.96478">
        <ele>1278.4</ele>
        <time>2015-07-24T11:08:32Z</time>
      </trkpt>
      <trkpt lat="44.83621" lon="5.96485">
        <ele>1279.3</ele>
        <time>2015-07-24T11:08:37Z</time>
      </trkpt>
      <trkpt lat="44.83623" lon="5.96491">
        <ele>1280.2</ele>
        <time>2015-07-24T11:08:42Z</time>
      </trkpt>
      <trkpt lat="44.83625" lon="5.96498">
        <ele>1281.1</ele>
        <time>2015-07-24T11:08:47Z</time>
      </trkpt>
      <trkpt lat="44.8363" lon="5.96503">
        <ele>1280.9</ele>
        <time>2015-07-24T11:08:52Z</time>
      </trkpt>
      <trkpt lat="44.83634" lon="5.96508">
        <ele>1280.9</ele>
        <time>2015-07-24T11:08:57Z</time>
      </trkpt>
      <trkpt lat="44.83639" lon="5.96513">
        <ele>1280.9</ele>
        <time>2015-07-24T11:09:02Z</time>
      </trkpt>
      <trkpt lat="44.83644" lon="5.96517">
        <ele>1280.7</ele>
        <time>2015-07-24T11:09:07Z</time>
      </trkpt>
      <trkpt lat="44.83648" lon="5.96522">
        <ele>1281.3</ele>
        <time>2015-07-24T11:09:12Z</time>
      </trkpt>
      <trkpt lat="44.83654" lon="5.96527">
        <ele>1281.4</ele>
        <time>2015-07-24T11:09:17Z</time>
      </trkpt>
      <trkpt lat="44.83658" lon="5.96531">
        <ele>1282.4</ele>
        <time>2015-07-24T11:09:22Z</time>
      </trkpt>
      <trkpt lat="44.83663" lon="5.96535">
        <ele>1283</ele>
        <time>2015-07-24T11:09:27Z</time>
      </trkpt>
      <trkpt lat="44.83667" lon="5.96539">
        <ele>1283.1</ele>
        <time>2015-07-24T11:09:32Z</time>
      </trkpt>
      <trkpt lat="44.83673" lon="5.96543">
        <ele>1283.3</ele>
        <time>2015-07-24T11:09:37Z</time>
      </trkpt>
      <trkpt lat="44.83677" lon="5.96547">
        <ele>1283.5</ele>
        <time>2015-07-24T11:09:42Z</time>
      </trkpt>
      <trkpt lat="44.83681" lon="5.96551">
        <ele>1284.7</ele>
        <time>2015-07-24T11:09:47Z</time>
      </trkpt>
      <trkpt lat="44.83685" lon="5.96555">
        <ele>1286</ele>
        <time>2015-07-24T11:09:52Z</time>
      </trkpt>
      <trkpt lat="44.83688" lon="5.9656">
        <ele>1287.6</ele>
        <time>2015-07-24T11:09:57Z</time>
      </trkpt>
      <trkpt lat="44.83693" lon="5.96564">
        <ele>1288</ele>
        <time>2015-07-24T11:10:02Z</time>
      </trkpt>
      <trkpt lat="44.83696" lon="5.96569">
        <ele>1289.8</ele>
        <time>2015-07-24T11:10:07Z</time>
      </trkpt>
      <trkpt lat="44.83701" lon="5.96572">
        <ele>1289.3</ele>
        <time>2015-07-24T11:10:12Z</time>
      </trkpt>
      <trkpt lat="44.83706" lon="5.96576">
        <ele>1288.7</ele>
        <time>2015-07-24T11:10:17Z</time>
      </trkpt>
      <trkpt lat="44.83711" lon="5.96581">
        <ele>1288.3</ele>
        <time>2015-07-24T11:10:22Z</time>
      </trkpt>
      <trkpt lat="44.83716" lon="5.96586">
        <ele>1288.2</ele>
        <time>2015-07-24T11:10:27Z</time>
      </trkpt>
      <trkpt lat="44.8372" lon="5.96591">
        <ele>1288.5</ele>
        <time>2015-07-24T11:10:32Z</time>
      </trkpt>
      <trkpt lat="44.83725" lon="5.96595">
        <ele>1288.4</ele>
        <time>2015-07-24T11:10:37Z</time>
      </trkpt>
      <trkpt lat="44.83729" lon="5.966">
        <ele>1288.8</ele>
        <time>2015-07-24T11:10:42Z</time>
      </trkpt>
      <trkpt lat="44.83732" lon="5.96604">
        <ele>1290.3</ele>
        <time>2015-07-24T11:10:47Z</time>
      </trkpt>
      <trkpt lat="44.83737" lon="5.96608">
        <ele>1291.5</ele>
        <time>2015-07-24T11:10:52Z</time>
      </trkpt>
      <trkpt lat="44.83737" lon="5.9661">
        <ele>1291.7</ele>
        <time>2015-07-24T11:10:57Z</time>
      </trkpt>
      <trkpt lat="44.83741" lon="5.96616">
        <ele>1291.9</ele>
        <time>2015-07-24T11:11:02Z</time>
      </trkpt>
      <trkpt lat="44.83745" lon="5.96621">
        <ele>1291.8</ele>
        <time>2015-07-24T11:11:07Z</time>
      </trkpt>
      <trkpt lat="44.8375" lon="5.96626">
        <ele>1291.8</ele>
        <time>2015-07-24T11:11:12Z</time>
      </trkpt>
      <trkpt lat="44.83754" lon="5.96631">
        <ele>1291.8</ele>
        <time>2015-07-24T11:11:17Z</time>
      </trkpt>
      <trkpt lat="44.83759" lon="5.96636">
        <ele>1291.7</ele>
        <time>2015-07-24T11:11:22Z</time>
      </trkpt>
      <trkpt lat="44.83763" lon="5.96642">
        <ele>1292</ele>
        <time>2015-07-24T11:11:27Z</time>
      </trkpt>
      <trkpt lat="44.83768" lon="5.96647">
        <ele>1292.4</ele>
        <time>2015-07-24T11:11:32Z</time>
      </trkpt>
      <trkpt lat="44.83772" lon="5.96652">
        <ele>1292.9</ele>
        <time>2015-07-24T11:11:37Z</time>
      </trkpt>
      <trkpt lat="44.83775" lon="5.96658">
        <ele>1294.1</ele>
        <time>2015-07-24T11:11:42Z</time>
      </trkpt>
      <trkpt lat="44.83779" lon="5.96663">
        <ele>1294.5</ele>
        <time>2015-07-24T11:11:47Z</time>
      </trkpt>
      <trkpt lat="44.8378" lon="5.96664">
        <ele>1294.7</ele>
        <time>2015-07-24T11:11:52Z</time>
      </trkpt>
      <trkpt lat="44.8378" lon="5.96665">
        <ele>1294.7</ele>
        <time>2015-07-24T11:11:57Z</time>
      </trkpt>
      <trkpt lat="44.83781" lon="5.96664">
        <ele>1294.2</ele>
        <time>2015-07-24T11:12:02Z</time>
      </trkpt>
      <trkpt lat="44.83781" lon="5.96664">
        <ele>1293.8</ele>
        <time>2015-07-24T11:12:07Z</time>
      </trkpt>
      <trkpt lat="44.83781" lon="5.96664">
        <ele>1293.6</ele>
        <time>2015-07-24T11:12:12Z</time>
      </trkpt>
      <trkpt lat="44.83782" lon="5.96665">
        <ele>1293.7</ele>
        <time>2015-07-24T11:12:17Z</time>
      </trkpt>
      <trkpt lat="44.83786" lon="5.96669">
        <ele>1293.9</ele>
        <time>2015-07-24T11:12:22Z</time>
      </trkpt>
      <trkpt lat="44.8379" lon="5.96674">
        <ele>1294.4</ele>
        <time>2015-07-24T11:12:27Z</time>
      </trkpt>
      <trkpt lat="44.83794" lon="5.96678">
        <ele>1294.8</ele>
        <time>2015-07-24T11:12:32Z</time>
      </trkpt>
      <trkpt lat="44.83797" lon="5.96683">
        <ele>1295.7</ele>
        <time>2015-07-24T11:12:37Z</time>
      </trkpt>
      <trkpt lat="44.83801" lon="5.96688">
        <ele>1296.6</ele>
        <time>2015-07-24T11:12:42Z</time>
      </trkpt>
      <trkpt lat="44.83802" lon="5.96687">
        <ele>1296.2</ele>
        <time>2015-07-24T11:12:47Z</time>
      </trkpt>
      <trkpt lat="44.83803" lon="5.96688">
        <ele>1296.3</ele>
        <time>2015-07-24T11:12:52Z</time>
      </trkpt>
      <trkpt lat="44.83804" lon="5.96693">
        <ele>1296.8</ele>
        <time>2015-07-24T11:12:57Z</time>
      </trkpt>
      <trkpt lat="44.83807" lon="5.96698">
        <ele>1297.4</ele>
        <time>2015-07-24T11:13:02Z</time>
      </trkpt>
      <trkpt lat="44.83811" lon="5.96704">
        <ele>1297.9</ele>
        <time>2015-07-24T11:13:07Z</time>
      </trkpt>
      <trkpt lat="44.83815" lon="5.9671">
        <ele>1298.4</ele>
        <time>2015-07-24T11:13:12Z</time>
      </trkpt>
      <trkpt lat="44.83819" lon="5.96716">
        <ele>1298.9</ele>
        <time>2015-07-24T11:13:17Z</time>
      </trkpt>
      <trkpt lat="44.83823" lon="5.96721">
        <ele>1299.4</ele>
        <time>2015-07-24T11:13:22Z</time>
      </trkpt>
      <trkpt lat="44.83827" lon="5.96728">
        <ele>1300</ele>
        <time>2015-07-24T11:13:27Z</time>
      </trkpt>
      <trkpt lat="44.8383" lon="5.96734">
        <ele>1300.6</ele>
        <time>2015-07-24T11:13:32Z</time>
      </trkpt>
      <trkpt lat="44.83833" lon="5.96742">
        <ele>1301.3</ele>
        <time>2015-07-24T11:13:37Z</time>
      </trkpt>
      <trkpt lat="44.83835" lon="5.96749">
        <ele>1301.9</ele>
        <time>2015-07-24T11:13:42Z</time>
      </trkpt>
      <trkpt lat="44.83836" lon="5.96756">
        <ele>1302.7</ele>
        <time>2015-07-24T11:13:47Z</time>
      </trkpt>
      <trkpt lat="44.83837" lon="5.96763">
        <ele>1303.5</ele>
        <time>2015-07-24T11:13:52Z</time>
      </trkpt>
      <trkpt lat="44.83838" lon="5.9677">
        <ele>1303.9</ele>
        <time>2015-07-24T11:13:57Z</time>
      </trkpt>
      <trkpt lat="44.83839" lon="5.96779">
        <ele>1304.6</ele>
        <time>2015-07-24T11:14:02Z</time>
      </trkpt>
      <trkpt lat="44.83839" lon="5.96787">
        <ele>1305.5</ele>
        <time>2015-07-24T11:14:07Z</time>
      </trkpt>
      <trkpt lat="44.83841" lon="5.96794">
        <ele>1306.3</ele>
        <time>2015-07-24T11:14:12Z</time>
      </trkpt>
      <trkpt lat="44.83843" lon="5.96802">
        <ele>1306.9</ele>
        <time>2015-07-24T11:14:17Z</time>
      </trkpt>
      <trkpt lat="44.83845" lon="5.9681">
        <ele>1307.2</ele>
        <time>2015-07-24T11:14:22Z</time>
      </trkpt>
      <trkpt lat="44.83848" lon="5.96817">
        <ele>1307.6</ele>
        <time>2015-07-24T11:14:27Z</time>
      </trkpt>
      <trkpt lat="44.83851" lon="5.96823">
        <ele>1307.8</ele>
        <time>2015-07-24T11:14:32Z</time>
      </trkpt>
      <trkpt lat="44.83854" lon="5.96829">
        <ele>1308.1</ele>
        <time>2015-07-24T11:14:37Z</time>
      </trkpt>
      <trkpt lat="44.83859" lon="5.96835">
        <ele>1308.3</ele>
        <time>2015-07-24T11:14:42Z</time>
      </trkpt>
      <trkpt lat="44.83862" lon="5.96841">
        <ele>1308.8</ele>
        <time>2015-07-24T11:14:47Z</time>
      </trkpt>
      <trkpt lat="44.83867" lon="5.96847">
        <ele>1309.1</ele>
        <time>2015-07-24T11:14:52Z</time>
      </trkpt>
      <trkpt lat="44.83871" lon="5.96854">
        <ele>1309.9</ele>
        <time>2015-07-24T11:14:57Z</time>
      </trkpt>
      <trkpt lat="44.83875" lon="5.9686">
        <ele>1310.5</ele>
        <time>2015-07-24T11:15:02Z</time>
      </trkpt>
      <trkpt lat="44.83879" lon="5.96866">
        <ele>1310.8</ele>
        <time>2015-07-24T11:15:07Z</time>
      </trkpt>
      <trkpt lat="44.83884" lon="5.9687">
        <ele>1310.9</ele>
        <time>2015-07-24T11:15:12Z</time>
      </trkpt>
      <trkpt lat="44.83888" lon="5.96875">
        <ele>1311.4</ele>
        <time>2015-07-24T11:15:17Z</time>
      </trkpt>
      <trkpt lat="44.83892" lon="5.96881">
        <ele>1311.5</ele>
        <time>2015-07-24T11:15:22Z</time>
      </trkpt>
      <trkpt lat="44.83896" lon="5.96887">
        <ele>1311.6</ele>
        <time>2015-07-24T11:15:27Z</time>
      </trkpt>
      <trkpt lat="44.839" lon="5.96892">
        <ele>1311.5</ele>
        <time>2015-07-24T11:15:32Z</time>
      </trkpt>
      <trkpt lat="44.83906" lon="5.96896">
        <ele>1311.3</ele>
        <time>2015-07-24T11:15:37Z</time>
      </trkpt>
      <trkpt lat="44.83912" lon="5.96895">
        <ele>1311.2</ele>
        <time>2015-07-24T11:15:42Z</time>
      </trkpt>
      <trkpt lat="44.83915" lon="5.9689">
        <ele>1310.3</ele>
        <time>2015-07-24T11:15:47Z</time>
      </trkpt>
      <trkpt lat="44.83915" lon="5.96888">
        <ele>1309.8</ele>
        <time>2015-07-24T11:15:52Z</time>
      </trkpt>
      <trkpt lat="44.83915" lon="5.96889">
        <ele>1309.6</ele>
        <time>2015-07-24T11:15:57Z</time>
      </trkpt>
      <trkpt lat="44.83917" lon="5.96889">
        <ele>1308.8</ele>
        <time>2015-07-24T11:16:02Z</time>
      </trkpt>
      <trkpt lat="44.83916" lon="5.96889">
        <ele>1310.4</ele>
        <time>2015-07-24T11:16:07Z</time>
      </trkpt>
      <trkpt lat="44.83915" lon="5.96889">
        <ele>1311.5</ele>
        <time>2015-07-24T11:16:12Z</time>
      </trkpt>
      <trkpt lat="44.83915" lon="5.9689">
        <ele>1312.8</ele>
        <time>2015-07-24T11:16:17Z</time>
      </trkpt>
      <trkpt lat="44.83914" lon="5.96891">
        <ele>1311.3</ele>
        <time>2015-07-24T11:16:22Z</time>
      </trkpt>
      <trkpt lat="44.83915" lon="5.96892">
        <ele>1310.4</ele>
        <time>2015-07-24T11:16:27Z</time>
      </trkpt>
      <trkpt lat="44.83915" lon="5.96891">
        <ele>1307.5</ele>
        <time>2015-07-24T11:16:32Z</time>
      </trkpt>
      <trkpt lat="44.83917" lon="5.96891">
        <ele>1307.8</ele>
        <time>2015-07-24T11:16:37Z</time>
      </trkpt>
      <trkpt lat="44.8392" lon="5.9689">
        <ele>1306.8</ele>
        <time>2015-07-24T11:16:42Z</time>
      </trkpt>
      <trkpt lat="44.83926" lon="5.96888">
        <ele>1306.5</ele>
        <time>2015-07-24T11:16:47Z</time>
      </trkpt>
      <trkpt lat="44.83927" lon="5.96888">
        <ele>1307.6</ele>
        <time>2015-07-24T11:16:52Z</time>
      </trkpt>
      <trkpt lat="44.83929" lon="5.9689">
        <ele>1311</ele>
        <time>2015-07-24T11:16:57Z</time>
      </trkpt>
      <trkpt lat="44.8393" lon="5.96892">
        <ele>1312.9</ele>
        <time>2015-07-24T11:17:02Z</time>
      </trkpt>
      <trkpt lat="44.8393" lon="5.96891">
        <ele>1311.6</ele>
        <time>2015-07-24T11:17:07Z</time>
      </trkpt>
      <trkpt lat="44.83929" lon="5.96893">
        <ele>1312.4</ele>
        <time>2015-07-24T11:17:12Z</time>
      </trkpt>
      <trkpt lat="44.83929" lon="5.96894">
        <ele>1312.3</ele>
        <time>2015-07-24T11:17:17Z</time>
      </trkpt>
      <trkpt lat="44.83929" lon="5.96894">
        <ele>1312.8</ele>
        <time>2015-07-24T11:17:22Z</time>
      </trkpt>
      <trkpt lat="44.83931" lon="5.96893">
        <ele>1314</ele>
        <time>2015-07-24T11:17:27Z</time>
      </trkpt>
      <trkpt lat="44.83931" lon="5.96892">
        <ele>1315.3</ele>
        <time>2015-07-24T11:17:32Z</time>
      </trkpt>
      <trkpt lat="44.8393" lon="5.96892">
        <ele>1315.3</ele>
        <time>2015-07-24T11:17:37Z</time>
      </trkpt>
      <trkpt lat="44.83926" lon="5.96893">
        <ele>1316.2</ele>
        <time>2015-07-24T11:17:42Z</time>
      </trkpt>
      <trkpt lat="44.83925" lon="5.96891">
        <ele>1316.7</ele>
        <time>2015-07-24T11:17:47Z</time>
      </trkpt>
      <trkpt lat="44.8392" lon="5.9689">
        <ele>1315</ele>
        <time>2015-07-24T11:17:52Z</time>
      </trkpt>
      <trkpt lat="44.83918" lon="5.96887">
        <ele>1312.7</ele>
        <time>2015-07-24T11:17:57Z</time>
      </trkpt>
      <trkpt lat="44.83918" lon="5.96886">
        <ele>1309.9</ele>
        <time>2015-07-24T11:18:02Z</time>
      </trkpt>
      <trkpt lat="44.83917" lon="5.96885">
        <ele>1308.5</ele>
        <time>2015-07-24T11:18:07Z</time>
      </trkpt>
      <trkpt lat="44.83917" lon="5.96884">
        <ele>1307.6</ele>
        <time>2015-07-24T11:18:12Z</time>
      </trkpt>
      <trkpt lat="44.83917" lon="5.96884">
        <ele>1306.4</ele>
        <time>2015-07-24T11:18:17Z</time>
      </trkpt>
      <trkpt lat="44.83917" lon="5.96885">
        <ele>1304.6</ele>
        <time>2015-07-24T11:18:22Z</time>
      </trkpt>
      <trkpt lat="44.83918" lon="5.96885">
        <ele>1302.4</ele>
        <time>2015-07-24T11:18:27Z</time>
      </trkpt>
      <trkpt lat="44.83918" lon="5.96885">
        <ele>1301</ele>
        <time>2015-07-24T11:18:32Z</time>
      </trkpt>
      <trkpt lat="44.83918" lon="5.96885">
        <ele>1301.1</ele>
        <time>2015-07-24T11:18:37Z</time>
      </trkpt>
      <trkpt lat="44.83918" lon="5.96885">
        <ele>1300.9</ele>
        <time>2015-07-24T11:18:42Z</time>
      </trkpt>
      <trkpt lat="44.83918" lon="5.96885">
        <ele>1300.9</ele>
        <time>2015-07-24T11:18:47Z</time>
      </trkpt>
      <trkpt lat="44.83917" lon="5.96885">
        <ele>1300.5</ele>
        <time>2015-07-24T11:18:52Z</time>
      </trkpt>
      <trkpt lat="44.83917" lon="5.96885">
        <ele>1299.4</ele>
        <time>2015-07-24T11:18:57Z</time>
      </trkpt>
      <trkpt lat="44.83917" lon="5.96885">
        <ele>1298.8</ele>
        <time>2015-07-24T11:19:02Z</time>
      </trkpt>
      <trkpt lat="44.83917" lon="5.96885">
        <ele>1297.2</ele>
        <time>2015-07-24T11:19:07Z</time>
      </trkpt>
      <trkpt lat="44.83918" lon="5.96885">
        <ele>1298.4</ele>
        <time>2015-07-24T11:19:12Z</time>
      </trkpt>
      <trkpt lat="44.83919" lon="5.96885">
        <ele>1297.8</ele>
        <time>2015-07-24T11:19:17Z</time>
      </trkpt>
      <trkpt lat="44.83921" lon="5.96882">
        <ele>1302</ele>
        <time>2015-07-24T11:19:22Z</time>
      </trkpt>
      <trkpt lat="44.83916" lon="5.96887">
        <ele>1305.8</ele>
        <time>2015-07-24T11:19:27Z</time>
      </trkpt>
      <trkpt lat="44.83915" lon="5.9689">
        <ele>1308.2</ele>
        <time>2015-07-24T11:19:32Z</time>
      </trkpt>
      <trkpt lat="44.83912" lon="5.96892">
        <ele>1309</ele>
        <time>2015-07-24T11:19:37Z</time>
      </trkpt>
      <trkpt lat="44.83914" lon="5.96892">
        <ele>1310.6</ele>
        <time>2015-07-24T11:19:42Z</time>
      </trkpt>
      <trkpt lat="44.83912" lon="5.96891">
        <ele>1309.9</ele>
        <time>2015-07-24T11:19:47Z</time>
      </trkpt>
      <trkpt lat="44.83914" lon="5.96884">
        <ele>1308.9</ele>
        <time>2015-07-24T11:19:52Z</time>
      </trkpt>
      <trkpt lat="44.83915" lon="5.96882">
        <ele>1309.8</ele>
        <time>2015-07-24T11:19:57Z</time>
      </trkpt>
      <trkpt lat="44.83913" lon="5.96884">
        <ele>1309.2</ele>
        <time>2015-07-24T11:20:02Z</time>
      </trkpt>
      <trkpt lat="44.83915" lon="5.96883">
        <ele>1308</ele>
        <time>2015-07-24T11:20:07Z</time>
      </trkpt>
      <trkpt lat="44.83916" lon="5.96881">
        <ele>1306.6</ele>
        <time>2015-07-24T11:20:12Z</time>
      </trkpt>
      <trkpt lat="44.83917" lon="5.9688">
        <ele>1305.3</ele>
        <time>2015-07-24T11:20:17Z</time>
      </trkpt>
      <trkpt lat="44.83918" lon="5.96878">
        <ele>1305.3</ele>
        <time>2015-07-24T11:20:22Z</time>
      </trkpt>
      <trkpt lat="44.83918" lon="5.96879">
        <ele>1305.6</ele>
        <time>2015-07-24T11:20:27Z</time>
      </trkpt>
      <trkpt lat="44.83916" lon="5.96878">
        <ele>1306.8</ele>
        <time>2015-07-24T11:20:32Z</time>
      </trkpt>
      <trkpt lat="44.83916" lon="5.96877">
        <ele>1307.2</ele>
        <time>2015-07-24T11:20:37Z</time>
      </trkpt>
      <trkpt lat="44.83915" lon="5.96879">
        <ele>1306</ele>
        <time>2015-07-24T11:20:42Z</time>
      </trkpt>
      <trkpt lat="44.83915" lon="5.9688">
        <ele>1305.9</ele>
        <time>2015-07-24T11:20:47Z</time>
      </trkpt>
      <trkpt lat="44.83912" lon="5.96881">
        <ele>1305.5</ele>
        <time>2015-07-24T11:20:52Z</time>
      </trkpt>
      <trkpt lat="44.83912" lon="5.96879">
        <ele>1306.3</ele>
        <time>2015-07-24T11:20:59Z</time>
      </trkpt>
      <trkpt lat="44.83914" lon="5.96878">
        <ele>1305.9</ele>
        <time>2015-07-24T11:21:06Z</time>
      </trkpt>
      <trkpt lat="44.83914" lon="5.96879">
        <ele>1307.9</ele>
        <time>2015-07-24T11:21:11Z</time>
      </trkpt>
      <trkpt lat="44.83914" lon="5.96881">
        <ele>1309.5</ele>
        <time>2015-07-24T11:21:16Z</time>
      </trkpt>
      <trkpt lat="44.83914" lon="5.96882">
        <ele>1308.3</ele>
        <time>2015-07-24T11:21:21Z</time>
      </trkpt>
      <trkpt lat="44.83913" lon="5.96882">
        <ele>1308.6</ele>
        <time>2015-07-24T11:21:28Z</time>
      </trkpt>
      <trkpt lat="44.83915" lon="5.96882">
        <ele>1304.9</ele>
        <time>2015-07-24T11:21:33Z</time>
      </trkpt>
      <trkpt lat="44.83915" lon="5.96882">
        <ele>1304.2</ele>
        <time>2015-07-24T11:21:38Z</time>
      </trkpt>
      <trkpt lat="44.83917" lon="5.96882">
        <ele>1303.7</ele>
        <time>2015-07-24T11:21:43Z</time>
      </trkpt>
      <trkpt lat="44.83918" lon="5.96881">
        <ele>1303</ele>
        <time>2015-07-24T11:21:48Z</time>
      </trkpt>
      <trkpt lat="44.8392" lon="5.96881">
        <ele>1301.8</ele>
        <time>2015-07-24T11:21:53Z</time>
      </trkpt>
      <trkpt lat="44.83921" lon="5.9688">
        <ele>1300.6</ele>
        <time>2015-07-24T11:21:58Z</time>
      </trkpt>
      <trkpt lat="44.8392" lon="5.9688">
        <ele>1301.8</ele>
        <time>2015-07-24T11:22:03Z</time>
      </trkpt>
      <trkpt lat="44.8392" lon="5.9688">
        <ele>1302.3</ele>
        <time>2015-07-24T11:22:08Z</time>
      </trkpt>
      <trkpt lat="44.83919" lon="5.96879">
        <ele>1303.5</ele>
        <time>2015-07-24T11:22:13Z</time>
      </trkpt>
      <trkpt lat="44.83918" lon="5.96879">
        <ele>1305.2</ele>
        <time>2015-07-24T11:22:18Z</time>
      </trkpt>
      <trkpt lat="44.83917" lon="5.96881">
        <ele>1307.2</ele>
        <time>2015-07-24T11:22:23Z</time>
      </trkpt>
      <trkpt lat="44.8392" lon="5.96879">
        <ele>1302.7</ele>
        <time>2015-07-24T11:22:28Z</time>
      </trkpt>
      <trkpt lat="44.83921" lon="5.96879">
        <ele>1299.8</ele>
        <time>2015-07-24T11:22:33Z</time>
      </trkpt>
      <trkpt lat="44.8392" lon="5.96877">
        <ele>1297.1</ele>
        <time>2015-07-24T11:22:38Z</time>
      </trkpt>
      <trkpt lat="44.83922" lon="5.96875">
        <ele>1296.7</ele>
        <time>2015-07-24T11:22:43Z</time>
      </trkpt>
      <trkpt lat="44.8392" lon="5.96876">
        <ele>1298.5</ele>
        <time>2015-07-24T11:22:48Z</time>
      </trkpt>
      <trkpt lat="44.83918" lon="5.96877">
        <ele>1301.4</ele>
        <time>2015-07-24T11:22:53Z</time>
      </trkpt>
      <trkpt lat="44.83917" lon="5.96878">
        <ele>1304.2</ele>
        <time>2015-07-24T11:22:58Z</time>
      </trkpt>
      <trkpt lat="44.8392" lon="5.96877">
        <ele>1298.6</ele>
        <time>2015-07-24T11:23:03Z</time>
      </trkpt>
      <trkpt lat="44.8392" lon="5.96879">
        <ele>1294.1</ele>
        <time>2015-07-24T11:23:08Z</time>
      </trkpt>
      <trkpt lat="44.8392" lon="5.96877">
        <ele>1291.5</ele>
        <time>2015-07-24T11:23:13Z</time>
      </trkpt>
      <trkpt lat="44.83918" lon="5.96877">
        <ele>1291.2</ele>
        <time>2015-07-24T11:23:18Z</time>
      </trkpt>
      <trkpt lat="44.83921" lon="5.96875">
        <ele>1293.9</ele>
        <time>2015-07-24T11:23:23Z</time>
      </trkpt>
      <trkpt lat="44.8392" lon="5.96872">
        <ele>1290.9</ele>
        <time>2015-07-24T11:23:28Z</time>
      </trkpt>
      <trkpt lat="44.83919" lon="5.96871">
        <ele>1291.4</ele>
        <time>2015-07-24T11:23:33Z</time>
      </trkpt>
      <trkpt lat="44.83918" lon="5.9687">
        <ele>1290</ele>
        <time>2015-07-24T11:23:38Z</time>
      </trkpt>
      <trkpt lat="44.83919" lon="5.96871">
        <ele>1290.5</ele>
        <time>2015-07-24T11:23:43Z</time>
      </trkpt>
      <trkpt lat="44.83918" lon="5.96873">
        <ele>1292.9</ele>
        <time>2015-07-24T11:23:48Z</time>
      </trkpt>
      <trkpt lat="44.83918" lon="5.96872">
        <ele>1291.7</ele>
        <time>2015-07-24T11:23:53Z</time>
      </trkpt>
      <trkpt lat="44.83915" lon="5.96876">
        <ele>1297.3</ele>
        <time>2015-07-24T11:23:58Z</time>
      </trkpt>
      <trkpt lat="44.83916" lon="5.96879">
        <ele>1299.8</ele>
        <time>2015-07-24T11:24:03Z</time>
      </trkpt>
      <trkpt lat="44.83918" lon="5.96879">
        <ele>1297.6</ele>
        <time>2015-07-24T11:24:10Z</time>
      </trkpt>
      <trkpt lat="44.83921" lon="5.9688">
        <ele>1300.8</ele>
        <time>2015-07-24T11:24:15Z</time>
      </trkpt>
      <trkpt lat="44.83921" lon="5.9688">
        <ele>1300.2</ele>
        <time>2015-07-24T11:24:22Z</time>
      </trkpt>
      <trkpt lat="44.83922" lon="5.96881">
        <ele>1299.4</ele>
        <time>2015-07-24T11:24:27Z</time>
      </trkpt>
      <trkpt lat="44.83919" lon="5.96881">
        <ele>1301.6</ele>
        <time>2015-07-24T11:24:32Z</time>
      </trkpt>
      <trkpt lat="44.8392" lon="5.96881">
        <ele>1298</ele>
        <time>2015-07-24T11:24:37Z</time>
      </trkpt>
      <trkpt lat="44.83921" lon="5.96884">
        <ele>1302.9</ele>
        <time>2015-07-24T11:24:42Z</time>
      </trkpt>
      <trkpt lat="44.83922" lon="5.96883">
        <ele>1302.1</ele>
        <time>2015-07-24T11:24:47Z</time>
      </trkpt>
      <trkpt lat="44.83923" lon="5.9688">
        <ele>1295.3</ele>
        <time>2015-07-24T11:24:52Z</time>
      </trkpt>
      <trkpt lat="44.83921" lon="5.96879">
        <ele>1295.4</ele>
        <time>2015-07-24T11:24:57Z</time>
      </trkpt>
      <trkpt lat="44.83923" lon="5.96879">
        <ele>1288.8</ele>
        <time>2015-07-24T11:25:02Z</time>
      </trkpt>
      <trkpt lat="44.83924" lon="5.96881">
        <ele>1293.7</ele>
        <time>2015-07-24T11:25:07Z</time>
      </trkpt>
      <trkpt lat="44.83922" lon="5.9688">
        <ele>1293.1</ele>
        <time>2015-07-24T11:25:12Z</time>
      </trkpt>
      <trkpt lat="44.83922" lon="5.96879">
        <ele>1293.4</ele>
        <time>2015-07-24T11:25:17Z</time>
      </trkpt>
      <trkpt lat="44.8392" lon="5.9688">
        <ele>1294.9</ele>
        <time>2015-07-24T11:25:22Z</time>
      </trkpt>
      <trkpt lat="44.83919" lon="5.96879">
        <ele>1295.9</ele>
        <time>2015-07-24T11:25:27Z</time>
      </trkpt>
      <trkpt lat="44.83917" lon="5.9688">
        <ele>1300.6</ele>
        <time>2015-07-24T11:25:32Z</time>
      </trkpt>
      <trkpt lat="44.83922" lon="5.96881">
        <ele>1299.2</ele>
        <time>2015-07-24T11:25:37Z</time>
      </trkpt>
      <trkpt lat="44.8392" lon="5.96883">
        <ele>1300.6</ele>
        <time>2015-07-24T11:25:42Z</time>
      </trkpt>
      <trkpt lat="44.83922" lon="5.96884">
        <ele>1301</ele>
        <time>2015-07-24T11:25:47Z</time>
      </trkpt>
      <trkpt lat="44.83923" lon="5.96884">
        <ele>1305.1</ele>
        <time>2015-07-24T11:25:52Z</time>
      </trkpt>
      <trkpt lat="44.83922" lon="5.96882">
        <ele>1304.9</ele>
        <time>2015-07-24T11:25:57Z</time>
      </trkpt>
      <trkpt lat="44.8392" lon="5.96881">
        <ele>1306</ele>
        <time>2015-07-24T11:26:02Z</time>
      </trkpt>
      <trkpt lat="44.83915" lon="5.96881">
        <ele>1305</ele>
        <time>2015-07-24T11:26:07Z</time>
      </trkpt>
      <trkpt lat="44.8391" lon="5.9688">
        <ele>1312.7</ele>
        <time>2015-07-24T11:26:12Z</time>
      </trkpt>
      <trkpt lat="44.83912" lon="5.96881">
        <ele>1310.1</ele>
        <time>2015-07-24T11:26:17Z</time>
      </trkpt>
      <trkpt lat="44.8391" lon="5.96883">
        <ele>1305.8</ele>
        <time>2015-07-24T11:26:22Z</time>
      </trkpt>
      <trkpt lat="44.83909" lon="5.96886">
        <ele>1303.1</ele>
        <time>2015-07-24T11:26:29Z</time>
      </trkpt>
      <trkpt lat="44.8391" lon="5.96887">
        <ele>1304.2</ele>
        <time>2015-07-24T11:26:34Z</time>
      </trkpt>
      <trkpt lat="44.83907" lon="5.96889">
        <ele>1309.3</ele>
        <time>2015-07-24T11:26:39Z</time>
      </trkpt>
      <trkpt lat="44.83907" lon="5.96891">
        <ele>1307.2</ele>
        <time>2015-07-24T11:26:44Z</time>
      </trkpt>
      <trkpt lat="44.83904" lon="5.96892">
        <ele>1308.6</ele>
        <time>2015-07-24T11:26:49Z</time>
      </trkpt>
      <trkpt lat="44.83902" lon="5.96893">
        <ele>1316</ele>
        <time>2015-07-24T11:26:54Z</time>
      </trkpt>
      <trkpt lat="44.83905" lon="5.96888">
        <ele>1315.7</ele>
        <time>2015-07-24T11:26:59Z</time>
      </trkpt>
      <trkpt lat="44.83908" lon="5.96885">
        <ele>1313.7</ele>
        <time>2015-07-24T11:27:04Z</time>
      </trkpt>
      <trkpt lat="44.83908" lon="5.96892">
        <ele>1322.8</ele>
        <time>2015-07-24T11:27:09Z</time>
      </trkpt>
      <trkpt lat="44.83905" lon="5.96898">
        <ele>1332.4</ele>
        <time>2015-07-24T11:27:14Z</time>
      </trkpt>
      <trkpt lat="44.83907" lon="5.96898">
        <ele>1337.7</ele>
        <time>2015-07-24T11:27:19Z</time>
      </trkpt>
      <trkpt lat="44.83908" lon="5.96898">
        <ele>1338.8</ele>
        <time>2015-07-24T11:27:24Z</time>
      </trkpt>
      <trkpt lat="44.83906" lon="5.96896">
        <ele>1328.2</ele>
        <time>2015-07-24T11:27:29Z</time>
      </trkpt>
      <trkpt lat="44.83906" lon="5.96888">
        <ele>1316.5</ele>
        <time>2015-07-24T11:27:34Z</time>
      </trkpt>
      <trkpt lat="44.83904" lon="5.96882">
        <ele>1307.6</ele>
        <time>2015-07-24T11:27:39Z</time>
      </trkpt>
      <trkpt lat="44.83907" lon="5.96881">
        <ele>1309.5</ele>
        <time>2015-07-24T11:27:44Z</time>
      </trkpt>
      <trkpt lat="44.8391" lon="5.96879">
        <ele>1306.8</ele>
        <time>2015-07-24T11:27:49Z</time>
      </trkpt>
      <trkpt lat="44.83911" lon="5.96881">
        <ele>1307</ele>
        <time>2015-07-24T11:27:54Z</time>
      </trkpt>
      <trkpt lat="44.83911" lon="5.96881">
        <ele>1306.1</ele>
        <time>2015-07-24T11:27:59Z</time>
      </trkpt>
      <trkpt lat="44.83912" lon="5.96881">
        <ele>1307.1</ele>
        <time>2015-07-24T11:28:04Z</time>
      </trkpt>
      <trkpt lat="44.83915" lon="5.96879">
        <ele>1307.1</ele>
        <time>2015-07-24T11:28:09Z</time>
      </trkpt>
      <trkpt lat="44.83915" lon="5.96878">
        <ele>1305.2</ele>
        <time>2015-07-24T11:28:14Z</time>
      </trkpt>
      <trkpt lat="44.83915" lon="5.9688">
        <ele>1303.3</ele>
        <time>2015-07-24T11:28:19Z</time>
      </trkpt>
      <trkpt lat="44.83914" lon="5.96882">
        <ele>1303</ele>
        <time>2015-07-24T11:28:24Z</time>
      </trkpt>
      <trkpt lat="44.83915" lon="5.96882">
        <ele>1305.6</ele>
        <time>2015-07-24T11:28:29Z</time>
      </trkpt>
      <trkpt lat="44.83915" lon="5.96884">
        <ele>1307.7</ele>
        <time>2015-07-24T11:28:34Z</time>
      </trkpt>
      <trkpt lat="44.83914" lon="5.96884">
        <ele>1307.5</ele>
        <time>2015-07-24T11:28:39Z</time>
      </trkpt>
      <trkpt lat="44.83913" lon="5.96884">
        <ele>1307.5</ele>
        <time>2015-07-24T11:28:44Z</time>
      </trkpt>
      <trkpt lat="44.83912" lon="5.96884">
        <ele>1307.1</ele>
        <time>2015-07-24T11:28:49Z</time>
      </trkpt>
      <trkpt lat="44.83914" lon="5.96884">
        <ele>1306.5</ele>
        <time>2015-07-24T11:28:54Z</time>
      </trkpt>
      <trkpt lat="44.83916" lon="5.96884">
        <ele>1307.7</ele>
        <time>2015-07-24T11:28:59Z</time>
      </trkpt>
      <trkpt lat="44.83915" lon="5.96884">
        <ele>1307.7</ele>
        <time>2015-07-24T11:29:04Z</time>
      </trkpt>
      <trkpt lat="44.83915" lon="5.96884">
        <ele>1308.2</ele>
        <time>2015-07-24T11:29:09Z</time>
      </trkpt>
      <trkpt lat="44.83916" lon="5.96885">
        <ele>1308.5</ele>
        <time>2015-07-24T11:29:14Z</time>
      </trkpt>
      <trkpt lat="44.83917" lon="5.96885">
        <ele>1309.5</ele>
        <time>2015-07-24T11:29:19Z</time>
      </trkpt>
      <trkpt lat="44.83917" lon="5.96886">
        <ele>1311.3</ele>
        <time>2015-07-24T11:29:24Z</time>
      </trkpt>
      <trkpt lat="44.83917" lon="5.96884">
        <ele>1310.4</ele>
        <time>2015-07-24T11:29:29Z</time>
      </trkpt>
      <trkpt lat="44.83917" lon="5.96883">
        <ele>1310.1</ele>
        <time>2015-07-24T11:29:34Z</time>
      </trkpt>
      <trkpt lat="44.83917" lon="5.9688">
        <ele>1306.9</ele>
        <time>2015-07-24T11:29:39Z</time>
      </trkpt>
      <trkpt lat="44.83917" lon="5.96882">
        <ele>1307.5</ele>
        <time>2015-07-24T11:29:44Z</time>
      </trkpt>
      <trkpt lat="44.83916" lon="5.96883">
        <ele>1306.8</ele>
        <time>2015-07-24T11:29:49Z</time>
      </trkpt>
      <trkpt lat="44.83915" lon="5.96882">
        <ele>1306.4</ele>
        <time>2015-07-24T11:29:54Z</time>
      </trkpt>
      <trkpt lat="44.83916" lon="5.96883">
        <ele>1307.2</ele>
        <time>2015-07-24T11:29:59Z</time>
      </trkpt>
      <trkpt lat="44.83917" lon="5.96883">
        <ele>1308.1</ele>
        <time>2015-07-24T11:30:04Z</time>
      </trkpt>
      <trkpt lat="44.83917" lon="5.96884">
        <ele>1309.3</ele>
        <time>2015-07-24T11:30:09Z</time>
      </trkpt>
      <trkpt lat="44.83918" lon="5.96884">
        <ele>1309.6</ele>
        <time>2015-07-24T11:30:14Z</time>
      </trkpt>
      <trkpt lat="44.83917" lon="5.96884">
        <ele>1309.5</ele>
        <time>2015-07-24T11:30:19Z</time>
      </trkpt>
      <trkpt lat="44.83916" lon="5.96884">
        <ele>1310</ele>
        <time>2015-07-24T11:30:24Z</time>
      </trkpt>
      <trkpt lat="44.83916" lon="5.96884">
        <ele>1310.8</ele>
        <time>2015-07-24T11:30:29Z</time>
      </trkpt>
      <trkpt lat="44.83915" lon="5.96884">
        <ele>1312.4</ele>
        <time>2015-07-24T11:30:34Z</time>
      </trkpt>
      <trkpt lat="44.83914" lon="5.96885">
        <ele>1314.2</ele>
        <time>2015-07-24T11:30:39Z</time>
      </trkpt>
      <trkpt lat="44.83913" lon="5.96885">
        <ele>1315.3</ele>
        <time>2015-07-24T11:30:44Z</time>
      </trkpt>
      <trkpt lat="44.83913" lon="5.96885">
        <ele>1315.8</ele>
        <time>2015-07-24T11:30:49Z</time>
      </trkpt>
      <trkpt lat="44.83913" lon="5.96885">
        <ele>1315.9</ele>
        <time>2015-07-24T11:30:54Z</time>
      </trkpt>
      <trkpt lat="44.83913" lon="5.96885">
        <ele>1315.8</ele>
        <time>2015-07-24T11:30:59Z</time>
      </trkpt>
      <trkpt lat="44.83912" lon="5.96885">
        <ele>1315.7</ele>
        <time>2015-07-24T11:31:04Z</time>
      </trkpt>
      <trkpt lat="44.83912" lon="5.96885">
        <ele>1315.5</ele>
        <time>2015-07-24T11:31:09Z</time>
      </trkpt>
      <trkpt lat="44.83912" lon="5.96885">
        <ele>1315.3</ele>
        <time>2015-07-24T11:31:14Z</time>
      </trkpt>
      <trkpt lat="44.83912" lon="5.96885">
        <ele>1315.1</ele>
        <time>2015-07-24T11:31:19Z</time>
      </trkpt>
      <trkpt lat="44.83912" lon="5.96885">
        <ele>1314.9</ele>
        <time>2015-07-24T11:31:24Z</time>
      </trkpt>
      <trkpt lat="44.83912" lon="5.96885">
        <ele>1314.7</ele>
        <time>2015-07-24T11:31:29Z</time>
      </trkpt>
      <trkpt lat="44.83912" lon="5.96885">
        <ele>1314.5</ele>
        <time>2015-07-24T11:31:34Z</time>
      </trkpt>
      <trkpt lat="44.83912" lon="5.96885">
        <ele>1314.4</ele>
        <time>2015-07-24T11:31:39Z</time>
      </trkpt>
      <trkpt lat="44.83913" lon="5.96885">
        <ele>1314.2</ele>
        <time>2015-07-24T11:31:44Z</time>
      </trkpt>
      <trkpt lat="44.83913" lon="5.96886">
        <ele>1313.9</ele>
        <time>2015-07-24T11:31:49Z</time>
      </trkpt>
      <trkpt lat="44.83913" lon="5.96886">
        <ele>1313.7</ele>
        <time>2015-07-24T11:31:54Z</time>
      </trkpt>
      <trkpt lat="44.83913" lon="5.96886">
        <ele>1313.5</ele>
        <time>2015-07-24T11:31:59Z</time>
      </trkpt>
      <trkpt lat="44.83914" lon="5.96886">
        <ele>1313.3</ele>
        <time>2015-07-24T11:32:04Z</time>
      </trkpt>
      <trkpt lat="44.83914" lon="5.96886">
        <ele>1313.2</ele>
        <time>2015-07-24T11:32:09Z</time>
      </trkpt>
      <trkpt lat="44.83914" lon="5.96886">
        <ele>1312.8</ele>
        <time>2015-07-24T11:32:14Z</time>
      </trkpt>
      <trkpt lat="44.83914" lon="5.96886">
        <ele>1312.3</ele>
        <time>2015-07-24T11:32:19Z</time>
      </trkpt>
      <trkpt lat="44.83914" lon="5.96886">
        <ele>1312.5</ele>
        <time>2015-07-24T11:32:24Z</time>
      </trkpt>
      <trkpt lat="44.83914" lon="5.96885">
        <ele>1311.8</ele>
        <time>2015-07-24T11:32:29Z</time>
      </trkpt>
      <trkpt lat="44.83914" lon="5.96886">
        <ele>1311.8</ele>
        <time>2015-07-24T11:32:34Z</time>
      </trkpt>
      <trkpt lat="44.83915" lon="5.96886">
        <ele>1311.3</ele>
        <time>2015-07-24T11:32:39Z</time>
      </trkpt>
      <trkpt lat="44.83915" lon="5.96885">
        <ele>1311</ele>
        <time>2015-07-24T11:32:44Z</time>
      </trkpt>
      <trkpt lat="44.83915" lon="5.96885">
        <ele>1310.5</ele>
        <time>2015-07-24T11:32:49Z</time>
      </trkpt>
      <trkpt lat="44.83915" lon="5.96885">
        <ele>1310.1</ele>
        <time>2015-07-24T11:32:54Z</time>
      </trkpt>
      <trkpt lat="44.83915" lon="5.96885">
        <ele>1309.8</ele>
        <time>2015-07-24T11:32:59Z</time>
      </trkpt>
      <trkpt lat="44.83915" lon="5.96885">
        <ele>1309.6</ele>
        <time>2015-07-24T11:33:04Z</time>
      </trkpt>
      <trkpt lat="44.83915" lon="5.96885">
        <ele>1309.5</ele>
        <time>2015-07-24T11:33:09Z</time>
      </trkpt>
      <trkpt lat="44.83915" lon="5.96885">
        <ele>1309.2</ele>
        <time>2015-07-24T11:33:14Z</time>
      </trkpt>
      <trkpt lat="44.83915" lon="5.96885">
        <ele>1309.1</ele>
        <time>2015-07-24T11:33:19Z</time>
      </trkpt>
      <trkpt lat="44.83915" lon="5.96885">
        <ele>1308.9</ele>
        <time>2015-07-24T11:33:24Z</time>
      </trkpt>
      <trkpt lat="44.83915" lon="5.96885">
        <ele>1308.8</ele>
        <time>2015-07-24T11:33:29Z</time>
      </trkpt>
      <trkpt lat="44.83915" lon="5.96885">
        <ele>1308.7</ele>
        <time>2015-07-24T11:33:34Z</time>
      </trkpt>
      <trkpt lat="44.83915" lon="5.96885">
        <ele>1308.4</ele>
        <time>2015-07-24T11:33:39Z</time>
      </trkpt>
      <trkpt lat="44.83915" lon="5.96885">
        <ele>1308.2</ele>
        <time>2015-07-24T11:33:44Z</time>
      </trkpt>
      <trkpt lat="44.83915" lon="5.96885">
        <ele>1307.9</ele>
        <time>2015-07-24T11:33:49Z</time>
      </trkpt>
      <trkpt lat="44.83915" lon="5.96885">
        <ele>1308.1</ele>
        <time>2015-07-24T11:33:54Z</time>
      </trkpt>
      <trkpt lat="44.83915" lon="5.96885">
        <ele>1308.1</ele>
        <time>2015-07-24T11:33:59Z</time>
      </trkpt>
      <trkpt lat="44.83915" lon="5.96885">
        <ele>1308.2</ele>
        <time>2015-07-24T11:34:04Z</time>
      </trkpt>
      <trkpt lat="44.83915" lon="5.96885">
        <ele>1308.2</ele>
        <time>2015-07-24T11:34:09Z</time>
      </trkpt>
      <trkpt lat="44.83915" lon="5.96886">
        <ele>1308.3</ele>
        <time>2015-07-24T11:34:14Z</time>
      </trkpt>
      <trkpt lat="44.83915" lon="5.96885">
        <ele>1308.2</ele>
        <time>2015-07-24T11:34:19Z</time>
      </trkpt>
      <trkpt lat="44.83915" lon="5.96886">
        <ele>1308.5</ele>
        <time>2015-07-24T11:34:24Z</time>
      </trkpt>
      <trkpt lat="44.83915" lon="5.96886">
        <ele>1308.6</ele>
        <time>2015-07-24T11:34:29Z</time>
      </trkpt>
      <trkpt lat="44.83915" lon="5.96886">
        <ele>1309</ele>
        <time>2015-07-24T11:34:34Z</time>
      </trkpt>
      <trkpt lat="44.83915" lon="5.96886">
        <ele>1309.2</ele>
        <time>2015-07-24T11:34:39Z</time>
      </trkpt>
      <trkpt lat="44.83915" lon="5.96886">
        <ele>1309.4</ele>
        <time>2015-07-24T11:34:44Z</time>
      </trkpt>
      <trkpt lat="44.83915" lon="5.96886">
        <ele>1309.6</ele>
        <time>2015-07-24T11:34:49Z</time>
      </trkpt>
      <trkpt lat="44.83915" lon="5.96886">
        <ele>1309.7</ele>
        <time>2015-07-24T11:34:54Z</time>
      </trkpt>
      <trkpt lat="44.83915" lon="5.96886">
        <ele>1309.8</ele>
        <time>2015-07-24T11:34:59Z</time>
      </trkpt>
      <trkpt lat="44.83915" lon="5.96886">
        <ele>1310.3</ele>
        <time>2015-07-24T11:35:04Z</time>
      </trkpt>
      <trkpt lat="44.83915" lon="5.96886">
        <ele>1310.5</ele>
        <time>2015-07-24T11:35:09Z</time>
      </trkpt>
      <trkpt lat="44.83914" lon="5.96886">
        <ele>1310.8</ele>
        <time>2015-07-24T11:35:14Z</time>
      </trkpt>
      <trkpt lat="44.83914" lon="5.96887">
        <ele>1311.1</ele>
        <time>2015-07-24T11:35:19Z</time>
      </trkpt>
      <trkpt lat="44.83914" lon="5.96887">
        <ele>1311.6</ele>
        <time>2015-07-24T11:35:24Z</time>
      </trkpt>
      <trkpt lat="44.83914" lon="5.96887">
        <ele>1311.9</ele>
        <time>2015-07-24T11:35:29Z</time>
      </trkpt>
      <trkpt lat="44.83914" lon="5.96887">
        <ele>1312.3</ele>
        <time>2015-07-24T11:35:34Z</time>
      </trkpt>
      <trkpt lat="44.83914" lon="5.96887">
        <ele>1312.5</ele>
        <time>2015-07-24T11:35:39Z</time>
      </trkpt>
      <trkpt lat="44.83914" lon="5.96888">
        <ele>1312.9</ele>
        <time>2015-07-24T11:35:44Z</time>
      </trkpt>
      <trkpt lat="44.83914" lon="5.96888">
        <ele>1313.1</ele>
        <time>2015-07-24T11:35:49Z</time>
      </trkpt>
      <trkpt lat="44.83914" lon="5.96888">
        <ele>1313.4</ele>
        <time>2015-07-24T11:35:54Z</time>
      </trkpt>
      <trkpt lat="44.83914" lon="5.96888">
        <ele>1313.7</ele>
        <time>2015-07-24T11:35:59Z</time>
      </trkpt>
      <trkpt lat="44.83914" lon="5.96888">
        <ele>1313.8</ele>
        <time>2015-07-24T11:36:04Z</time>
      </trkpt>
      <trkpt lat="44.83914" lon="5.96888">
        <ele>1313.4</ele>
        <time>2015-07-24T11:36:09Z</time>
      </trkpt>
      <trkpt lat="44.83914" lon="5.96888">
        <ele>1313.4</ele>
        <time>2015-07-24T11:36:14Z</time>
      </trkpt>
      <trkpt lat="44.83913" lon="5.96889">
        <ele>1313.6</ele>
        <time>2015-07-24T11:36:19Z</time>
      </trkpt>
      <trkpt lat="44.83913" lon="5.96889">
        <ele>1313.8</ele>
        <time>2015-07-24T11:36:24Z</time>
      </trkpt>
      <trkpt lat="44.83914" lon="5.96889">
        <ele>1313.6</ele>
        <time>2015-07-24T11:36:29Z</time>
      </trkpt>
      <trkpt lat="44.83914" lon="5.96888">
        <ele>1313</ele>
        <time>2015-07-24T11:36:34Z</time>
      </trkpt>
      <trkpt lat="44.83914" lon="5.96888">
        <ele>1313.5</ele>
        <time>2015-07-24T11:36:39Z</time>
      </trkpt>
      <trkpt lat="44.83914" lon="5.96888">
        <ele>1313.4</ele>
        <time>2015-07-24T11:36:44Z</time>
      </trkpt>
      <trkpt lat="44.83914" lon="5.96888">
        <ele>1313.3</ele>
        <time>2015-07-24T11:36:49Z</time>
      </trkpt>
      <trkpt lat="44.83915" lon="5.96888">
        <ele>1313.2</ele>
        <time>2015-07-24T11:36:54Z</time>
      </trkpt>
      <trkpt lat="44.83915" lon="5.96888">
        <ele>1312.9</ele>
        <time>2015-07-24T11:36:59Z</time>
      </trkpt>
      <trkpt lat="44.83915" lon="5.96888">
        <ele>1311.9</ele>
        <time>2015-07-24T11:37:04Z</time>
      </trkpt>
      <trkpt lat="44.83915" lon="5.96888">
        <ele>1311.3</ele>
        <time>2015-07-24T11:37:09Z</time>
      </trkpt>
      <trkpt lat="44.83916" lon="5.96888">
        <ele>1310.8</ele>
        <time>2015-07-24T11:37:14Z</time>
      </trkpt>
      <trkpt lat="44.83916" lon="5.96888">
        <ele>1310.5</ele>
        <time>2015-07-24T11:37:19Z</time>
      </trkpt>
      <trkpt lat="44.83916" lon="5.96888">
        <ele>1310.3</ele>
        <time>2015-07-24T11:37:24Z</time>
      </trkpt>
      <trkpt lat="44.83917" lon="5.96888">
        <ele>1310.1</ele>
        <time>2015-07-24T11:37:29Z</time>
      </trkpt>
      <trkpt lat="44.83917" lon="5.96887">
        <ele>1309.5</ele>
        <time>2015-07-24T11:37:34Z</time>
      </trkpt>
      <trkpt lat="44.83917" lon="5.96887">
        <ele>1309.2</ele>
        <time>2015-07-24T11:37:39Z</time>
      </trkpt>
      <trkpt lat="44.83917" lon="5.96887">
        <ele>1309.1</ele>
        <time>2015-07-24T11:37:44Z</time>
      </trkpt>
      <trkpt lat="44.83917" lon="5.96887">
        <ele>1309</ele>
        <time>2015-07-24T11:37:49Z</time>
      </trkpt>
      <trkpt lat="44.83915" lon="5.96887">
        <ele>1307.8</ele>
        <time>2015-07-24T11:37:54Z</time>
      </trkpt>
      <trkpt lat="44.83915" lon="5.96886">
        <ele>1307.7</ele>
        <time>2015-07-24T11:37:59Z</time>
      </trkpt>
      <trkpt lat="44.83916" lon="5.96886">
        <ele>1307.7</ele>
        <time>2015-07-24T11:38:04Z</time>
      </trkpt>
      <trkpt lat="44.83917" lon="5.96887">
        <ele>1307.9</ele>
        <time>2015-07-24T11:38:09Z</time>
      </trkpt>
      <trkpt lat="44.83917" lon="5.96887">
        <ele>1307.6</ele>
        <time>2015-07-24T11:38:14Z</time>
      </trkpt>
      <trkpt lat="44.83917" lon="5.96887">
        <ele>1308.1</ele>
        <time>2015-07-24T11:38:19Z</time>
      </trkpt>
      <trkpt lat="44.83917" lon="5.96887">
        <ele>1308.4</ele>
        <time>2015-07-24T11:38:24Z</time>
      </trkpt>
      <trkpt lat="44.83917" lon="5.96887">
        <ele>1308.5</ele>
        <time>2015-07-24T11:38:29Z</time>
      </trkpt>
      <trkpt lat="44.83916" lon="5.96887">
        <ele>1308.5</ele>
        <time>2015-07-24T11:38:34Z</time>
      </trkpt>
      <trkpt lat="44.83916" lon="5.96887">
        <ele>1308.8</ele>
        <time>2015-07-24T11:38:39Z</time>
      </trkpt>
      <trkpt lat="44.83917" lon="5.96887">
        <ele>1309.1</ele>
        <time>2015-07-24T11:38:44Z</time>
      </trkpt>
      <trkpt lat="44.83917" lon="5.96887">
        <ele>1309.3</ele>
        <time>2015-07-24T11:38:49Z</time>
      </trkpt>
      <trkpt lat="44.83918" lon="5.96887">
        <ele>1309.8</ele>
        <time>2015-07-24T11:38:54Z</time>
      </trkpt>
      <trkpt lat="44.83917" lon="5.96886">
        <ele>1308.9</ele>
        <time>2015-07-24T11:38:59Z</time>
      </trkpt>
      <trkpt lat="44.83917" lon="5.96886">
        <ele>1309</ele>
        <time>2015-07-24T11:39:04Z</time>
      </trkpt>
      <trkpt lat="44.83917" lon="5.96886">
        <ele>1308.9</ele>
        <time>2015-07-24T11:39:09Z</time>
      </trkpt>
      <trkpt lat="44.83917" lon="5.96886">
        <ele>1308.9</ele>
        <time>2015-07-24T11:39:14Z</time>
      </trkpt>
      <trkpt lat="44.83917" lon="5.96886">
        <ele>1309.3</ele>
        <time>2015-07-24T11:39:19Z</time>
      </trkpt>
      <trkpt lat="44.83918" lon="5.96887">
        <ele>1309.9</ele>
        <time>2015-07-24T11:39:24Z</time>
      </trkpt>
      <trkpt lat="44.83922" lon="5.96888">
        <ele>1311.7</ele>
        <time>2015-07-24T11:39:29Z</time>
      </trkpt>
      <trkpt lat="44.83921" lon="5.96888">
        <ele>1311.7</ele>
        <time>2015-07-24T11:39:34Z</time>
      </trkpt>
      <trkpt lat="44.83921" lon="5.96887">
        <ele>1311.4</ele>
        <time>2015-07-24T11:39:39Z</time>
      </trkpt>
      <trkpt lat="44.8392" lon="5.96887">
        <ele>1311.2</ele>
        <time>2015-07-24T11:39:44Z</time>
      </trkpt>
      <trkpt lat="44.83919" lon="5.96887">
        <ele>1311.1</ele>
        <time>2015-07-24T11:39:49Z</time>
      </trkpt>
      <trkpt lat="44.83919" lon="5.96886">
        <ele>1311.2</ele>
        <time>2015-07-24T11:39:54Z</time>
      </trkpt>
      <trkpt lat="44.8392" lon="5.96886">
        <ele>1311.6</ele>
        <time>2015-07-24T11:39:59Z</time>
      </trkpt>
      <trkpt lat="44.83919" lon="5.96886">
        <ele>1311.4</ele>
        <time>2015-07-24T11:40:04Z</time>
      </trkpt>
      <trkpt lat="44.83918" lon="5.96885">
        <ele>1310.6</ele>
        <time>2015-07-24T11:40:09Z</time>
      </trkpt>
      <trkpt lat="44.83918" lon="5.96885">
        <ele>1310.1</ele>
        <time>2015-07-24T11:40:14Z</time>
      </trkpt>
      <trkpt lat="44.83918" lon="5.96885">
        <ele>1309.9</ele>
        <time>2015-07-24T11:40:19Z</time>
      </trkpt>
      <trkpt lat="44.83917" lon="5.96885">
        <ele>1309.6</ele>
        <time>2015-07-24T11:40:24Z</time>
      </trkpt>
      <trkpt lat="44.83917" lon="5.96885">
        <ele>1309.5</ele>
        <time>2015-07-24T11:40:29Z</time>
      </trkpt>
      <trkpt lat="44.83917" lon="5.96885">
        <ele>1309.4</ele>
        <time>2015-07-24T11:40:34Z</time>
      </trkpt>
      <trkpt lat="44.83917" lon="5.96885">
        <ele>1309.3</ele>
        <time>2015-07-24T11:40:39Z</time>
      </trkpt>
      <trkpt lat="44.83917" lon="5.96885">
        <ele>1309.2</ele>
        <time>2015-07-24T11:40:44Z</time>
      </trkpt>
      <trkpt lat="44.83917" lon="5.96885">
        <ele>1309.1</ele>
        <time>2015-07-24T11:40:49Z</time>
      </trkpt>
      <trkpt lat="44.83917" lon="5.96885">
        <ele>1309</ele>
        <time>2015-07-24T11:40:54Z</time>
      </trkpt>
      <trkpt lat="44.83917" lon="5.96884">
        <ele>1308.9</ele>
        <time>2015-07-24T11:40:59Z</time>
      </trkpt>
      <trkpt lat="44.83917" lon="5.96884">
        <ele>1308.8</ele>
        <time>2015-07-24T11:41:04Z</time>
      </trkpt>
      <trkpt lat="44.83917" lon="5.96884">
        <ele>1308.7</ele>
        <time>2015-07-24T11:41:09Z</time>
      </trkpt>
      <trkpt lat="44.83917" lon="5.96885">
        <ele>1308.7</ele>
        <time>2015-07-24T11:41:14Z</time>
      </trkpt>
      <trkpt lat="44.83917" lon="5.96885">
        <ele>1308.7</ele>
        <time>2015-07-24T11:41:19Z</time>
      </trkpt>
      <trkpt lat="44.83917" lon="5.96885">
        <ele>1308.6</ele>
        <time>2015-07-24T11:41:24Z</time>
      </trkpt>
      <trkpt lat="44.83917" lon="5.96884">
        <ele>1308.4</ele>
        <time>2015-07-24T11:41:29Z</time>
      </trkpt>
      <trkpt lat="44.83917" lon="5.96884">
        <ele>1308.2</ele>
        <time>2015-07-24T11:41:34Z</time>
      </trkpt>
      <trkpt lat="44.83917" lon="5.96884">
        <ele>1307.9</ele>
        <time>2015-07-24T11:41:39Z</time>
      </trkpt>
      <trkpt lat="44.83917" lon="5.96884">
        <ele>1307.6</ele>
        <time>2015-07-24T11:41:44Z</time>
      </trkpt>
      <trkpt lat="44.83917" lon="5.96884">
        <ele>1307.8</ele>
        <time>2015-07-24T11:41:49Z</time>
      </trkpt>
      <trkpt lat="44.83917" lon="5.96884">
        <ele>1307.6</ele>
        <time>2015-07-24T11:41:54Z</time>
      </trkpt>
      <trkpt lat="44.83917" lon="5.96884">
        <ele>1308</ele>
        <time>2015-07-24T11:41:59Z</time>
      </trkpt>
      <trkpt lat="44.83917" lon="5.96884">
        <ele>1308.3</ele>
        <time>2015-07-24T11:42:04Z</time>
      </trkpt>
      <trkpt lat="44.83917" lon="5.96884">
        <ele>1307.7</ele>
        <time>2015-07-24T11:42:09Z</time>
      </trkpt>
      <trkpt lat="44.83916" lon="5.96884">
        <ele>1307.3</ele>
        <time>2015-07-24T11:42:14Z</time>
      </trkpt>
      <trkpt lat="44.83916" lon="5.96884">
        <ele>1307</ele>
        <time>2015-07-24T11:42:19Z</time>
      </trkpt>
      <trkpt lat="44.83916" lon="5.96884">
        <ele>1306.8</ele>
        <time>2015-07-24T11:42:24Z</time>
      </trkpt>
      <trkpt lat="44.83916" lon="5.96884">
        <ele>1306.7</ele>
        <time>2015-07-24T11:42:29Z</time>
      </trkpt>
      <trkpt lat="44.83916" lon="5.96884">
        <ele>1306.6</ele>
        <time>2015-07-24T11:42:34Z</time>
      </trkpt>
      <trkpt lat="44.83916" lon="5.96884">
        <ele>1306.6</ele>
        <time>2015-07-24T11:42:39Z</time>
      </trkpt>
      <trkpt lat="44.83915" lon="5.96884">
        <ele>1306.6</ele>
        <time>2015-07-24T11:42:44Z</time>
      </trkpt>
      <trkpt lat="44.83915" lon="5.96884">
        <ele>1306.7</ele>
        <time>2015-07-24T11:42:49Z</time>
      </trkpt>
      <trkpt lat="44.83915" lon="5.96884">
        <ele>1306.8</ele>
        <time>2015-07-24T11:42:54Z</time>
      </trkpt>
      <trkpt lat="44.83915" lon="5.96885">
        <ele>1307</ele>
        <time>2015-07-24T11:42:59Z</time>
      </trkpt>
      <trkpt lat="44.83915" lon="5.96885">
        <ele>1307.2</ele>
        <time>2015-07-24T11:43:04Z</time>
      </trkpt>
      <trkpt lat="44.83915" lon="5.96885">
        <ele>1307.2</ele>
        <time>2015-07-24T11:43:09Z</time>
      </trkpt>
      <trkpt lat="44.83915" lon="5.96885">
        <ele>1307.4</ele>
        <time>2015-07-24T11:43:14Z</time>
      </trkpt>
      <trkpt lat="44.83915" lon="5.96885">
        <ele>1308</ele>
        <time>2015-07-24T11:43:19Z</time>
      </trkpt>
      <trkpt lat="44.83914" lon="5.96885">
        <ele>1308.5</ele>
        <time>2015-07-24T11:43:24Z</time>
      </trkpt>
      <trkpt lat="44.83914" lon="5.96886">
        <ele>1308.9</ele>
        <time>2015-07-24T11:43:29Z</time>
      </trkpt>
      <trkpt lat="44.83914" lon="5.96886">
        <ele>1309.5</ele>
        <time>2015-07-24T11:43:34Z</time>
      </trkpt>
      <trkpt lat="44.83913" lon="5.96887">
        <ele>1311.5</ele>
        <time>2015-07-24T11:43:39Z</time>
      </trkpt>
      <trkpt lat="44.83912" lon="5.96888">
        <ele>1313.6</ele>
        <time>2015-07-24T11:43:44Z</time>
      </trkpt>
      <trkpt lat="44.83911" lon="5.96888">
        <ele>1314.9</ele>
        <time>2015-07-24T11:43:49Z</time>
      </trkpt>
      <trkpt lat="44.83911" lon="5.96887">
        <ele>1315.8</ele>
        <time>2015-07-24T11:43:54Z</time>
      </trkpt>
      <trkpt lat="44.8391" lon="5.96886">
        <ele>1315.9</ele>
        <time>2015-07-24T11:43:59Z</time>
      </trkpt>
      <trkpt lat="44.8391" lon="5.96885">
        <ele>1315</ele>
        <time>2015-07-24T11:44:04Z</time>
      </trkpt>
      <trkpt lat="44.8391" lon="5.96884">
        <ele>1314.5</ele>
        <time>2015-07-24T11:44:09Z</time>
      </trkpt>
      <trkpt lat="44.8391" lon="5.96884">
        <ele>1314.7</ele>
        <time>2015-07-24T11:44:14Z</time>
      </trkpt>
      <trkpt lat="44.83909" lon="5.96885">
        <ele>1317.5</ele>
        <time>2015-07-24T11:44:19Z</time>
      </trkpt>
      <trkpt lat="44.83909" lon="5.96886">
        <ele>1319.7</ele>
        <time>2015-07-24T11:44:24Z</time>
      </trkpt>
      <trkpt lat="44.8391" lon="5.96887">
        <ele>1321.6</ele>
        <time>2015-07-24T11:44:29Z</time>
      </trkpt>
      <trkpt lat="44.8391" lon="5.96887">
        <ele>1321.5</ele>
        <time>2015-07-24T11:44:34Z</time>
      </trkpt>
      <trkpt lat="44.83909" lon="5.96886">
        <ele>1318.1</ele>
        <time>2015-07-24T11:44:39Z</time>
      </trkpt>
      <trkpt lat="44.83911" lon="5.96886">
        <ele>1317.9</ele>
        <time>2015-07-24T11:44:44Z</time>
      </trkpt>
      <trkpt lat="44.83912" lon="5.96886">
        <ele>1316.4</ele>
        <time>2015-07-24T11:44:49Z</time>
      </trkpt>
      <trkpt lat="44.83912" lon="5.96886">
        <ele>1316</ele>
        <time>2015-07-24T11:44:54Z</time>
      </trkpt>
      <trkpt lat="44.83912" lon="5.96885">
        <ele>1315.4</ele>
        <time>2015-07-24T11:44:59Z</time>
      </trkpt>
      <trkpt lat="44.83912" lon="5.96886">
        <ele>1315.3</ele>
        <time>2015-07-24T11:45:04Z</time>
      </trkpt>
      <trkpt lat="44.83911" lon="5.96885">
        <ele>1312.6</ele>
        <time>2015-07-24T11:45:09Z</time>
      </trkpt>
      <trkpt lat="44.83912" lon="5.96884">
        <ele>1311.2</ele>
        <time>2015-07-24T11:45:14Z</time>
      </trkpt>
      <trkpt lat="44.83912" lon="5.96884">
        <ele>1310.3</ele>
        <time>2015-07-24T11:45:19Z</time>
      </trkpt>
      <trkpt lat="44.83912" lon="5.96884">
        <ele>1309.5</ele>
        <time>2015-07-24T11:45:24Z</time>
      </trkpt>
      <trkpt lat="44.83912" lon="5.96883">
        <ele>1308.9</ele>
        <time>2015-07-24T11:45:29Z</time>
      </trkpt>
      <trkpt lat="44.83912" lon="5.96884">
        <ele>1308.4</ele>
        <time>2015-07-24T11:45:34Z</time>
      </trkpt>
      <trkpt lat="44.83913" lon="5.96885">
        <ele>1308.2</ele>
        <time>2015-07-24T11:45:39Z</time>
      </trkpt>
      <trkpt lat="44.83913" lon="5.96885">
        <ele>1307.8</ele>
        <time>2015-07-24T11:45:44Z</time>
      </trkpt>
      <trkpt lat="44.83913" lon="5.96886">
        <ele>1307.5</ele>
        <time>2015-07-24T11:45:49Z</time>
      </trkpt>
      <trkpt lat="44.83913" lon="5.96885">
        <ele>1306.4</ele>
        <time>2015-07-24T11:45:54Z</time>
      </trkpt>
      <trkpt lat="44.83913" lon="5.96885">
        <ele>1305.8</ele>
        <time>2015-07-24T11:45:59Z</time>
      </trkpt>
      <trkpt lat="44.83913" lon="5.96885">
        <ele>1305.9</ele>
        <time>2015-07-24T11:46:04Z</time>
      </trkpt>
      <trkpt lat="44.83914" lon="5.96885">
        <ele>1305.6</ele>
        <time>2015-07-24T11:46:09Z</time>
      </trkpt>
      <trkpt lat="44.83914" lon="5.96885">
        <ele>1305.4</ele>
        <time>2015-07-24T11:46:14Z</time>
      </trkpt>
      <trkpt lat="44.83914" lon="5.96886">
        <ele>1306.9</ele>
        <time>2015-07-24T11:46:19Z</time>
      </trkpt>
      <trkpt lat="44.83913" lon="5.96886">
        <ele>1305.3</ele>
        <time>2015-07-24T11:46:24Z</time>
      </trkpt>
      <trkpt lat="44.83912" lon="5.96886">
        <ele>1306.3</ele>
        <time>2015-07-24T11:46:29Z</time>
      </trkpt>
      <trkpt lat="44.83911" lon="5.96886">
        <ele>1306.6</ele>
        <time>2015-07-24T11:46:34Z</time>
      </trkpt>
      <trkpt lat="44.8391" lon="5.96886">
        <ele>1307.3</ele>
        <time>2015-07-24T11:46:39Z</time>
      </trkpt>
      <trkpt lat="44.83911" lon="5.96887">
        <ele>1309.5</ele>
        <time>2015-07-24T11:46:44Z</time>
      </trkpt>
      <trkpt lat="44.83911" lon="5.96887">
        <ele>1311.8</ele>
        <time>2015-07-24T11:46:49Z</time>
      </trkpt>
      <trkpt lat="44.83912" lon="5.96888">
        <ele>1312.8</ele>
        <time>2015-07-24T11:46:54Z</time>
      </trkpt>
      <trkpt lat="44.83912" lon="5.96888">
        <ele>1312.9</ele>
        <time>2015-07-24T11:46:59Z</time>
      </trkpt>
      <trkpt lat="44.83912" lon="5.96888">
        <ele>1312.2</ele>
        <time>2015-07-24T11:47:04Z</time>
      </trkpt>
      <trkpt lat="44.83913" lon="5.96887">
        <ele>1311.5</ele>
        <time>2015-07-24T11:47:09Z</time>
      </trkpt>
      <trkpt lat="44.83913" lon="5.96886">
        <ele>1310.6</ele>
        <time>2015-07-24T11:47:14Z</time>
      </trkpt>
      <trkpt lat="44.83914" lon="5.96887">
        <ele>1310.5</ele>
        <time>2015-07-24T11:47:19Z</time>
      </trkpt>
      <trkpt lat="44.83913" lon="5.96887">
        <ele>1311.1</ele>
        <time>2015-07-24T11:47:24Z</time>
      </trkpt>
      <trkpt lat="44.83913" lon="5.96888">
        <ele>1311.7</ele>
        <time>2015-07-24T11:47:29Z</time>
      </trkpt>
      <trkpt lat="44.83913" lon="5.96888">
        <ele>1312.2</ele>
        <time>2015-07-24T11:47:34Z</time>
      </trkpt>
      <trkpt lat="44.83913" lon="5.96888">
        <ele>1313.4</ele>
        <time>2015-07-24T11:47:39Z</time>
      </trkpt>
      <trkpt lat="44.83913" lon="5.96888">
        <ele>1313.3</ele>
        <time>2015-07-24T11:47:44Z</time>
      </trkpt>
      <trkpt lat="44.83913" lon="5.96888">
        <ele>1312.9</ele>
        <time>2015-07-24T11:47:49Z</time>
      </trkpt>
      <trkpt lat="44.83913" lon="5.96888">
        <ele>1313.1</ele>
        <time>2015-07-24T11:47:54Z</time>
      </trkpt>
      <trkpt lat="44.83913" lon="5.96889">
        <ele>1313.2</ele>
        <time>2015-07-24T11:47:59Z</time>
      </trkpt>
      <trkpt lat="44.83913" lon="5.96889">
        <ele>1313.3</ele>
        <time>2015-07-24T11:48:04Z</time>
      </trkpt>
      <trkpt lat="44.83913" lon="5.96889">
        <ele>1313.4</ele>
        <time>2015-07-24T11:48:09Z</time>
      </trkpt>
      <trkpt lat="44.83913" lon="5.96888">
        <ele>1312.4</ele>
        <time>2015-07-24T11:48:14Z</time>
      </trkpt>
      <trkpt lat="44.83913" lon="5.96887">
        <ele>1312.2</ele>
        <time>2015-07-24T11:48:19Z</time>
      </trkpt>
      <trkpt lat="44.83913" lon="5.96886">
        <ele>1311.5</ele>
        <time>2015-07-24T11:48:24Z</time>
      </trkpt>
      <trkpt lat="44.83913" lon="5.96887">
        <ele>1311.2</ele>
        <time>2015-07-24T11:48:29Z</time>
      </trkpt>
      <trkpt lat="44.83913" lon="5.96887">
        <ele>1310.4</ele>
        <time>2015-07-24T11:48:34Z</time>
      </trkpt>
      <trkpt lat="44.83913" lon="5.96886">
        <ele>1309.6</ele>
        <time>2015-07-24T11:48:39Z</time>
      </trkpt>
      <trkpt lat="44.83914" lon="5.96886">
        <ele>1308.9</ele>
        <time>2015-07-24T11:48:44Z</time>
      </trkpt>
      <trkpt lat="44.83914" lon="5.96887">
        <ele>1309.5</ele>
        <time>2015-07-24T11:48:49Z</time>
      </trkpt>
      <trkpt lat="44.83914" lon="5.96888">
        <ele>1310.7</ele>
        <time>2015-07-24T11:48:54Z</time>
      </trkpt>
      <trkpt lat="44.83915" lon="5.96889">
        <ele>1311.6</ele>
        <time>2015-07-24T11:48:59Z</time>
      </trkpt>
      <trkpt lat="44.83915" lon="5.9689">
        <ele>1312</ele>
        <time>2015-07-24T11:49:04Z</time>
      </trkpt>
      <trkpt lat="44.83915" lon="5.9689">
        <ele>1312.2</ele>
        <time>2015-07-24T11:49:09Z</time>
      </trkpt>
      <trkpt lat="44.83915" lon="5.9689">
        <ele>1312.1</ele>
        <time>2015-07-24T11:49:14Z</time>
      </trkpt>
      <trkpt lat="44.83915" lon="5.9689">
        <ele>1311.2</ele>
        <time>2015-07-24T11:49:19Z</time>
      </trkpt>
      <trkpt lat="44.83915" lon="5.9689">
        <ele>1311.4</ele>
        <time>2015-07-24T11:49:24Z</time>
      </trkpt>
      <trkpt lat="44.83915" lon="5.96889">
        <ele>1309</ele>
        <time>2015-07-24T11:49:29Z</time>
      </trkpt>
      <trkpt lat="44.83915" lon="5.96888">
        <ele>1305.8</ele>
        <time>2015-07-24T11:49:34Z</time>
      </trkpt>
      <trkpt lat="44.83915" lon="5.96886">
        <ele>1301.3</ele>
        <time>2015-07-24T11:49:39Z</time>
      </trkpt>
      <trkpt lat="44.83915" lon="5.96885">
        <ele>1298.2</ele>
        <time>2015-07-24T11:49:44Z</time>
      </trkpt>
      <trkpt lat="44.83915" lon="5.96886">
        <ele>1298.5</ele>
        <time>2015-07-24T11:49:49Z</time>
      </trkpt>
      <trkpt lat="44.83915" lon="5.96887">
        <ele>1299.6</ele>
        <time>2015-07-24T11:49:54Z</time>
      </trkpt>
      <trkpt lat="44.83915" lon="5.96888">
        <ele>1301.8</ele>
        <time>2015-07-24T11:49:59Z</time>
      </trkpt>
      <trkpt lat="44.83915" lon="5.96889">
        <ele>1304.1</ele>
        <time>2015-07-24T11:50:04Z</time>
      </trkpt>
      <trkpt lat="44.83915" lon="5.96889">
        <ele>1305.8</ele>
        <time>2015-07-24T11:50:09Z</time>
      </trkpt>
      <trkpt lat="44.83915" lon="5.96889">
        <ele>1306.8</ele>
        <time>2015-07-24T11:50:14Z</time>
      </trkpt>
      <trkpt lat="44.83915" lon="5.96889">
        <ele>1306.5</ele>
        <time>2015-07-24T11:50:19Z</time>
      </trkpt>
      <trkpt lat="44.83915" lon="5.96889">
        <ele>1306.3</ele>
        <time>2015-07-24T11:50:24Z</time>
      </trkpt>
      <trkpt lat="44.83915" lon="5.96889">
        <ele>1306.2</ele>
        <time>2015-07-24T11:50:29Z</time>
      </trkpt>
      <trkpt lat="44.83915" lon="5.96889">
        <ele>1306.2</ele>
        <time>2015-07-24T11:50:34Z</time>
      </trkpt>
      <trkpt lat="44.83915" lon="5.96889">
        <ele>1306.1</ele>
        <time>2015-07-24T11:50:39Z</time>
      </trkpt>
      <trkpt lat="44.83915" lon="5.96889">
        <ele>1306.6</ele>
        <time>2015-07-24T11:50:44Z</time>
      </trkpt>
      <trkpt lat="44.83915" lon="5.96889">
        <ele>1306.5</ele>
        <time>2015-07-24T11:50:49Z</time>
      </trkpt>
      <trkpt lat="44.83915" lon="5.96889">
        <ele>1305.1</ele>
        <time>2015-07-24T11:50:54Z</time>
      </trkpt>
      <trkpt lat="44.83915" lon="5.96889">
        <ele>1304.8</ele>
        <time>2015-07-24T11:50:59Z</time>
      </trkpt>
      <trkpt lat="44.83915" lon="5.96889">
        <ele>1305.5</ele>
        <time>2015-07-24T11:51:04Z</time>
      </trkpt>
      <trkpt lat="44.83917" lon="5.9689">
        <ele>1306.9</ele>
        <time>2015-07-24T11:51:09Z</time>
      </trkpt>
      <trkpt lat="44.83918" lon="5.96891">
        <ele>1308.2</ele>
        <time>2015-07-24T11:51:14Z</time>
      </trkpt>
      <trkpt lat="44.83918" lon="5.96891">
        <ele>1309.6</ele>
        <time>2015-07-24T11:51:19Z</time>
      </trkpt>
      <trkpt lat="44.83919" lon="5.96891">
        <ele>1310.2</ele>
        <time>2015-07-24T11:51:24Z</time>
      </trkpt>
      <trkpt lat="44.83921" lon="5.96892">
        <ele>1310.8</ele>
        <time>2015-07-24T11:51:29Z</time>
      </trkpt>
      <trkpt lat="44.83921" lon="5.96892">
        <ele>1310.9</ele>
        <time>2015-07-24T11:51:34Z</time>
      </trkpt>
      <trkpt lat="44.83922" lon="5.96891">
        <ele>1310.8</ele>
        <time>2015-07-24T11:51:39Z</time>
      </trkpt>
      <trkpt lat="44.83922" lon="5.96891">
        <ele>1310.8</ele>
        <time>2015-07-24T11:51:44Z</time>
      </trkpt>
      <trkpt lat="44.83922" lon="5.96891">
        <ele>1310.6</ele>
        <time>2015-07-24T11:51:49Z</time>
      </trkpt>
      <trkpt lat="44.83918" lon="5.96889">
        <ele>1309.6</ele>
        <time>2015-07-24T11:51:54Z</time>
      </trkpt>
      <trkpt lat="44.83912" lon="5.96887">
        <ele>1307.8</ele>
        <time>2015-07-24T11:51:59Z</time>
      </trkpt>
      <trkpt lat="44.83909" lon="5.96885">
        <ele>1306.4</ele>
        <time>2015-07-24T11:52:04Z</time>
      </trkpt>
      <trkpt lat="44.83908" lon="5.96885">
        <ele>1305.5</ele>
        <time>2015-07-24T11:52:09Z</time>
      </trkpt>
      <trkpt lat="44.83908" lon="5.96885">
        <ele>1305.3</ele>
        <time>2015-07-24T11:52:14Z</time>
      </trkpt>
      <trkpt lat="44.83909" lon="5.96885">
        <ele>1305.6</ele>
        <time>2015-07-24T11:52:19Z</time>
      </trkpt>
      <trkpt lat="44.8391" lon="5.96885">
        <ele>1305.9</ele>
        <time>2015-07-24T11:52:24Z</time>
      </trkpt>
      <trkpt lat="44.8391" lon="5.96885">
        <ele>1306.4</ele>
        <time>2015-07-24T11:52:29Z</time>
      </trkpt>
      <trkpt lat="44.83912" lon="5.96886">
        <ele>1308.8</ele>
        <time>2015-07-24T11:52:34Z</time>
      </trkpt>
      <trkpt lat="44.83915" lon="5.96886">
        <ele>1308.6</ele>
        <time>2015-07-24T11:52:39Z</time>
      </trkpt>
      <trkpt lat="44.83915" lon="5.96885">
        <ele>1309.1</ele>
        <time>2015-07-24T11:52:44Z</time>
      </trkpt>
      <trkpt lat="44.83915" lon="5.96885">
        <ele>1310.2</ele>
        <time>2015-07-24T11:52:49Z</time>
      </trkpt>
      <trkpt lat="44.83915" lon="5.96884">
        <ele>1310.2</ele>
        <time>2015-07-24T11:52:54Z</time>
      </trkpt>
      <trkpt lat="44.83915" lon="5.96883">
        <ele>1310.9</ele>
        <time>2015-07-24T11:52:59Z</time>
      </trkpt>
      <trkpt lat="44.83915" lon="5.96883">
        <ele>1311.9</ele>
        <time>2015-07-24T11:53:04Z</time>
      </trkpt>
      <trkpt lat="44.83915" lon="5.96883">
        <ele>1309.8</ele>
        <time>2015-07-24T11:53:09Z</time>
      </trkpt>
      <trkpt lat="44.83914" lon="5.96885">
        <ele>1309.4</ele>
        <time>2015-07-24T11:53:14Z</time>
      </trkpt>
      <trkpt lat="44.83915" lon="5.96886">
        <ele>1309.1</ele>
        <time>2015-07-24T11:53:19Z</time>
      </trkpt>
      <trkpt lat="44.83918" lon="5.96887">
        <ele>1309.6</ele>
        <time>2015-07-24T11:53:24Z</time>
      </trkpt>
      <trkpt lat="44.83921" lon="5.96888">
        <ele>1310.1</ele>
        <time>2015-07-24T11:53:29Z</time>
      </trkpt>
      <trkpt lat="44.8392" lon="5.96886">
        <ele>1308.1</ele>
        <time>2015-07-24T11:53:34Z</time>
      </trkpt>
      <trkpt lat="44.83919" lon="5.96885">
        <ele>1308.9</ele>
        <time>2015-07-24T11:53:39Z</time>
      </trkpt>
      <trkpt lat="44.83917" lon="5.96886">
        <ele>1308.5</ele>
        <time>2015-07-24T11:53:44Z</time>
      </trkpt>
      <trkpt lat="44.83916" lon="5.96886">
        <ele>1308.1</ele>
        <time>2015-07-24T11:53:49Z</time>
      </trkpt>
      <trkpt lat="44.83917" lon="5.96884">
        <ele>1307.3</ele>
        <time>2015-07-24T11:53:54Z</time>
      </trkpt>
      <trkpt lat="44.83915" lon="5.96883">
        <ele>1307.3</ele>
        <time>2015-07-24T11:53:59Z</time>
      </trkpt>
      <trkpt lat="44.83915" lon="5.96883">
        <ele>1306.1</ele>
        <time>2015-07-24T11:54:04Z</time>
      </trkpt>
      <trkpt lat="44.83914" lon="5.96881">
        <ele>1305.7</ele>
        <time>2015-07-24T11:54:09Z</time>
      </trkpt>
      <trkpt lat="44.83913" lon="5.9688">
        <ele>1305.4</ele>
        <time>2015-07-24T11:54:14Z</time>
      </trkpt>
      <trkpt lat="44.83915" lon="5.96881">
        <ele>1307.2</ele>
        <time>2015-07-24T11:54:19Z</time>
      </trkpt>
      <trkpt lat="44.83917" lon="5.96882">
        <ele>1309.5</ele>
        <time>2015-07-24T11:54:24Z</time>
      </trkpt>
      <trkpt lat="44.83912" lon="5.96881">
        <ele>1309.6</ele>
        <time>2015-07-24T11:54:29Z</time>
      </trkpt>
      <trkpt lat="44.83915" lon="5.96887">
        <ele>1313.5</ele>
        <time>2015-07-24T11:54:34Z</time>
      </trkpt>
      <trkpt lat="44.8391" lon="5.96888">
        <ele>1315.8</ele>
        <time>2015-07-24T11:54:39Z</time>
      </trkpt>
      <trkpt lat="44.8391" lon="5.96887">
        <ele>1317.6</ele>
        <time>2015-07-24T11:54:44Z</time>
      </trkpt>
      <trkpt lat="44.8391" lon="5.96886">
        <ele>1317.4</ele>
        <time>2015-07-24T11:54:49Z</time>
      </trkpt>
      <trkpt lat="44.83912" lon="5.96885">
        <ele>1314</ele>
        <time>2015-07-24T11:54:54Z</time>
      </trkpt>
      <trkpt lat="44.83913" lon="5.96884">
        <ele>1312.2</ele>
        <time>2015-07-24T11:54:59Z</time>
      </trkpt>
      <trkpt lat="44.83915" lon="5.96885">
        <ele>1310.6</ele>
        <time>2015-07-24T11:55:04Z</time>
      </trkpt>
      <trkpt lat="44.83918" lon="5.96889">
        <ele>1310.4</ele>
        <time>2015-07-24T11:55:09Z</time>
      </trkpt>
      <trkpt lat="44.83923" lon="5.96891">
        <ele>1311.3</ele>
        <time>2015-07-24T11:55:14Z</time>
      </trkpt>
      <trkpt lat="44.83928" lon="5.96896">
        <ele>1314.4</ele>
        <time>2015-07-24T11:55:19Z</time>
      </trkpt>
      <trkpt lat="44.83934" lon="5.96895">
        <ele>1315</ele>
        <time>2015-07-24T11:55:24Z</time>
      </trkpt>
      <trkpt lat="44.83939" lon="5.96893">
        <ele>1315.4</ele>
        <time>2015-07-24T11:55:29Z</time>
      </trkpt>
      <trkpt lat="44.83944" lon="5.96891">
        <ele>1314.6</ele>
        <time>2015-07-24T11:55:34Z</time>
      </trkpt>
      <trkpt lat="44.83952" lon="5.96887">
        <ele>1312.3</ele>
        <time>2015-07-24T11:55:39Z</time>
      </trkpt>
      <trkpt lat="44.83954" lon="5.96885">
        <ele>1312.4</ele>
        <time>2015-07-24T11:55:44Z</time>
      </trkpt>
      <trkpt lat="44.83954" lon="5.96884">
        <ele>1310.8</ele>
        <time>2015-07-24T11:55:49Z</time>
      </trkpt>
      <trkpt lat="44.83952" lon="5.96885">
        <ele>1313.7</ele>
        <time>2015-07-24T11:55:54Z</time>
      </trkpt>
      <trkpt lat="44.83964" lon="5.96886">
        <ele>1312.1</ele>
        <time>2015-07-24T11:56:01Z</time>
      </trkpt>
      <trkpt lat="44.83964" lon="5.96886">
        <ele>1312.8</ele>
        <time>2015-07-24T11:56:06Z</time>
      </trkpt>
      <trkpt lat="44.8396" lon="5.96881">
        <ele>1316.5</ele>
        <time>2015-07-24T11:56:11Z</time>
      </trkpt>
      <trkpt lat="44.83965" lon="5.96878">
        <ele>1317.2</ele>
        <time>2015-07-24T11:56:16Z</time>
      </trkpt>
      <trkpt lat="44.83971" lon="5.96875">
        <ele>1318</ele>
        <time>2015-07-24T11:56:21Z</time>
      </trkpt>
      <trkpt lat="44.83976" lon="5.96873">
        <ele>1319</ele>
        <time>2015-07-24T11:56:26Z</time>
      </trkpt>
      <trkpt lat="44.83984" lon="5.9687">
        <ele>1319.5</ele>
        <time>2015-07-24T11:56:31Z</time>
      </trkpt>
      <trkpt lat="44.83989" lon="5.96867">
        <ele>1320.8</ele>
        <time>2015-07-24T11:56:36Z</time>
      </trkpt>
      <trkpt lat="44.8399" lon="5.96865">
        <ele>1321.3</ele>
        <time>2015-07-24T11:56:41Z</time>
      </trkpt>
      <trkpt lat="44.83992" lon="5.96861">
        <ele>1321.3</ele>
        <time>2015-07-24T11:56:46Z</time>
      </trkpt>
      <trkpt lat="44.83995" lon="5.96858">
        <ele>1321.8</ele>
        <time>2015-07-24T11:56:51Z</time>
      </trkpt>
      <trkpt lat="44.83993" lon="5.96856">
        <ele>1322</ele>
        <time>2015-07-24T11:56:56Z</time>
      </trkpt>
      <trkpt lat="44.83998" lon="5.96853">
        <ele>1323.2</ele>
        <time>2015-07-24T11:57:01Z</time>
      </trkpt>
      <trkpt lat="44.84002" lon="5.9685">
        <ele>1323.5</ele>
        <time>2015-07-24T11:57:06Z</time>
      </trkpt>
      <trkpt lat="44.84006" lon="5.96846">
        <ele>1325.1</ele>
        <time>2015-07-24T11:57:11Z</time>
      </trkpt>
      <trkpt lat="44.8401" lon="5.96842">
        <ele>1326.6</ele>
        <time>2015-07-24T11:57:16Z</time>
      </trkpt>
      <trkpt lat="44.84012" lon="5.96839">
        <ele>1327.1</ele>
        <time>2015-07-24T11:57:21Z</time>
      </trkpt>
      <trkpt lat="44.84013" lon="5.96837">
        <ele>1326.1</ele>
        <time>2015-07-24T11:57:26Z</time>
      </trkpt>
      <trkpt lat="44.84014" lon="5.96836">
        <ele>1325.3</ele>
        <time>2015-07-24T11:57:31Z</time>
      </trkpt>
      <trkpt lat="44.84015" lon="5.96833">
        <ele>1325.8</ele>
        <time>2015-07-24T11:57:36Z</time>
      </trkpt>
      <trkpt lat="44.84021" lon="5.96833">
        <ele>1327.4</ele>
        <time>2015-07-24T11:57:41Z</time>
      </trkpt>
      <trkpt lat="44.84026" lon="5.96834">
        <ele>1329.1</ele>
        <time>2015-07-24T11:57:46Z</time>
      </trkpt>
      <trkpt lat="44.84028" lon="5.96834">
        <ele>1330.1</ele>
        <time>2015-07-24T11:57:51Z</time>
      </trkpt>
      <trkpt lat="44.84028" lon="5.96834">
        <ele>1330</ele>
        <time>2015-07-24T11:57:56Z</time>
      </trkpt>
      <trkpt lat="44.84029" lon="5.96835">
        <ele>1331.6</ele>
        <time>2015-07-24T11:58:01Z</time>
      </trkpt>
      <trkpt lat="44.84033" lon="5.96835">
        <ele>1332.6</ele>
        <time>2015-07-24T11:58:06Z</time>
      </trkpt>
      <trkpt lat="44.84033" lon="5.96835">
        <ele>1332.6</ele>
        <time>2015-07-24T11:58:11Z</time>
      </trkpt>
      <trkpt lat="44.84035" lon="5.96834">
        <ele>1333.3</ele>
        <time>2015-07-24T11:58:16Z</time>
      </trkpt>
      <trkpt lat="44.84041" lon="5.96833">
        <ele>1334.4</ele>
        <time>2015-07-24T11:58:21Z</time>
      </trkpt>
      <trkpt lat="44.84047" lon="5.96833">
        <ele>1335.8</ele>
        <time>2015-07-24T11:58:26Z</time>
      </trkpt>
      <trkpt lat="44.84048" lon="5.96832">
        <ele>1336.3</ele>
        <time>2015-07-24T11:58:31Z</time>
      </trkpt>
      <trkpt lat="44.84049" lon="5.96833">
        <ele>1336.2</ele>
        <time>2015-07-24T11:58:36Z</time>
      </trkpt>
      <trkpt lat="44.84052" lon="5.96832">
        <ele>1336.7</ele>
        <time>2015-07-24T11:58:41Z</time>
      </trkpt>
      <trkpt lat="44.84058" lon="5.9683">
        <ele>1337.7</ele>
        <time>2015-07-24T11:58:46Z</time>
      </trkpt>
      <trkpt lat="44.84058" lon="5.96829">
        <ele>1337.7</ele>
        <time>2015-07-24T11:58:51Z</time>
      </trkpt>
      <trkpt lat="44.84059" lon="5.96829">
        <ele>1337.8</ele>
        <time>2015-07-24T11:58:56Z</time>
      </trkpt>
      <trkpt lat="44.84062" lon="5.96829">
        <ele>1339</ele>
        <time>2015-07-24T11:59:01Z</time>
      </trkpt>
      <trkpt lat="44.84066" lon="5.96827">
        <ele>1339.7</ele>
        <time>2015-07-24T11:59:06Z</time>
      </trkpt>
      <trkpt lat="44.8407" lon="5.96829">
        <ele>1341.4</ele>
        <time>2015-07-24T11:59:11Z</time>
      </trkpt>
      <trkpt lat="44.84073" lon="5.96828">
        <ele>1342.1</ele>
        <time>2015-07-24T11:59:16Z</time>
      </trkpt>
      <trkpt lat="44.84078" lon="5.96827">
        <ele>1343.3</ele>
        <time>2015-07-24T11:59:21Z</time>
      </trkpt>
      <trkpt lat="44.84081" lon="5.96826">
        <ele>1344.8</ele>
        <time>2015-07-24T11:59:26Z</time>
      </trkpt>
      <trkpt lat="44.84085" lon="5.96824">
        <ele>1344.6</ele>
        <time>2015-07-24T11:59:31Z</time>
      </trkpt>
      <trkpt lat="44.84091" lon="5.96822">
        <ele>1343.2</ele>
        <time>2015-07-24T11:59:36Z</time>
      </trkpt>
      <trkpt lat="44.84094" lon="5.9682">
        <ele>1344</ele>
        <time>2015-07-24T11:59:41Z</time>
      </trkpt>
      <trkpt lat="44.84097" lon="5.96818">
        <ele>1345.3</ele>
        <time>2015-07-24T11:59:46Z</time>
      </trkpt>
      <trkpt lat="44.841" lon="5.96814">
        <ele>1345.6</ele>
        <time>2015-07-24T11:59:51Z</time>
      </trkpt>
      <trkpt lat="44.84102" lon="5.96817">
        <ele>1348.5</ele>
        <time>2015-07-24T11:59:56Z</time>
      </trkpt>
      <trkpt lat="44.841" lon="5.9682">
        <ele>1349.7</ele>
        <time>2015-07-24T12:00:01Z</time>
      </trkpt>
      <trkpt lat="44.841" lon="5.9682">
        <ele>1350.7</ele>
        <time>2015-07-24T12:00:06Z</time>
      </trkpt>
      <trkpt lat="44.84099" lon="5.96819">
        <ele>1351.7</ele>
        <time>2015-07-24T12:00:11Z</time>
      </trkpt>
      <trkpt lat="44.84099" lon="5.96817">
        <ele>1350.7</ele>
        <time>2015-07-24T12:00:16Z</time>
      </trkpt>
      <trkpt lat="44.84099" lon="5.96816">
        <ele>1352.6</ele>
        <time>2015-07-24T12:00:21Z</time>
      </trkpt>
      <trkpt lat="44.84098" lon="5.96817">
        <ele>1353.3</ele>
        <time>2015-07-24T12:00:26Z</time>
      </trkpt>
      <trkpt lat="44.84097" lon="5.96818">
        <ele>1354.2</ele>
        <time>2015-07-24T12:00:31Z</time>
      </trkpt>
      <trkpt lat="44.84096" lon="5.96818">
        <ele>1356.6</ele>
        <time>2015-07-24T12:00:36Z</time>
      </trkpt>
      <trkpt lat="44.84095" lon="5.96817">
        <ele>1355</ele>
        <time>2015-07-24T12:00:41Z</time>
      </trkpt>
      <trkpt lat="44.84096" lon="5.96814">
        <ele>1350.6</ele>
        <time>2015-07-24T12:00:46Z</time>
      </trkpt>
      <trkpt lat="44.84097" lon="5.96811">
        <ele>1345.7</ele>
        <time>2015-07-24T12:00:51Z</time>
      </trkpt>
      <trkpt lat="44.84101" lon="5.9681">
        <ele>1344.6</ele>
        <time>2015-07-24T12:00:56Z</time>
      </trkpt>
      <trkpt lat="44.84107" lon="5.9681">
        <ele>1344.8</ele>
        <time>2015-07-24T12:01:01Z</time>
      </trkpt>
      <trkpt lat="44.84113" lon="5.9681">
        <ele>1346.5</ele>
        <time>2015-07-24T12:01:06Z</time>
      </trkpt>
      <trkpt lat="44.84117" lon="5.96811">
        <ele>1349.1</ele>
        <time>2015-07-24T12:01:11Z</time>
      </trkpt>
      <trkpt lat="44.84122" lon="5.96813">
        <ele>1351.3</ele>
        <time>2015-07-24T12:01:16Z</time>
      </trkpt>
      <trkpt lat="44.84122" lon="5.96815">
        <ele>1352.2</ele>
        <time>2015-07-24T12:01:21Z</time>
      </trkpt>
      <trkpt lat="44.84124" lon="5.96813">
        <ele>1350.7</ele>
        <time>2015-07-24T12:01:26Z</time>
      </trkpt>
      <trkpt lat="44.84129" lon="5.96815">
        <ele>1351.8</ele>
        <time>2015-07-24T12:01:31Z</time>
      </trkpt>
      <trkpt lat="44.84134" lon="5.96814">
        <ele>1353.2</ele>
        <time>2015-07-24T12:01:36Z</time>
      </trkpt>
      <trkpt lat="44.8414" lon="5.96814">
        <ele>1355.3</ele>
        <time>2015-07-24T12:01:41Z</time>
      </trkpt>
      <trkpt lat="44.84146" lon="5.96813">
        <ele>1355.7</ele>
        <time>2015-07-24T12:01:46Z</time>
      </trkpt>
      <trkpt lat="44.84151" lon="5.96814">
        <ele>1358.6</ele>
        <time>2015-07-24T12:01:51Z</time>
      </trkpt>
      <trkpt lat="44.84156" lon="5.96817">
        <ele>1359.7</ele>
        <time>2015-07-24T12:01:56Z</time>
      </trkpt>
      <trkpt lat="44.84162" lon="5.96818">
        <ele>1360.3</ele>
        <time>2015-07-24T12:02:01Z</time>
      </trkpt>
      <trkpt lat="44.84168" lon="5.96819">
        <ele>1361.2</ele>
        <time>2015-07-24T12:02:06Z</time>
      </trkpt>
      <trkpt lat="44.84171" lon="5.9682">
        <ele>1363.3</ele>
        <time>2015-07-24T12:02:11Z</time>
      </trkpt>
      <trkpt lat="44.84176" lon="5.96822">
        <ele>1367.2</ele>
        <time>2015-07-24T12:02:16Z</time>
      </trkpt>
      <trkpt lat="44.8418" lon="5.96824">
        <ele>1369.9</ele>
        <time>2015-07-24T12:02:21Z</time>
      </trkpt>
      <trkpt lat="44.84184" lon="5.96823">
        <ele>1370.7</ele>
        <time>2015-07-24T12:02:26Z</time>
      </trkpt>
      <trkpt lat="44.84184" lon="5.96824">
        <ele>1369.8</ele>
        <time>2015-07-24T12:02:31Z</time>
      </trkpt>
      <trkpt lat="44.84189" lon="5.96825">
        <ele>1368.2</ele>
        <time>2015-07-24T12:02:36Z</time>
      </trkpt>
      <trkpt lat="44.84194" lon="5.96827">
        <ele>1369</ele>
        <time>2015-07-24T12:02:41Z</time>
      </trkpt>
      <trkpt lat="44.84199" lon="5.9683">
        <ele>1370.5</ele>
        <time>2015-07-24T12:02:46Z</time>
      </trkpt>
      <trkpt lat="44.84202" lon="5.96831">
        <ele>1370.5</ele>
        <time>2015-07-24T12:02:51Z</time>
      </trkpt>
      <trkpt lat="44.84202" lon="5.96831">
        <ele>1371</ele>
        <time>2015-07-24T12:02:56Z</time>
      </trkpt>
      <trkpt lat="44.84202" lon="5.96831">
        <ele>1371.3</ele>
        <time>2015-07-24T12:03:01Z</time>
      </trkpt>
      <trkpt lat="44.84202" lon="5.96831">
        <ele>1371.9</ele>
        <time>2015-07-24T12:03:06Z</time>
      </trkpt>
      <trkpt lat="44.84202" lon="5.96831">
        <ele>1371.1</ele>
        <time>2015-07-24T12:03:11Z</time>
      </trkpt>
      <trkpt lat="44.84203" lon="5.9683">
        <ele>1368.7</ele>
        <time>2015-07-24T12:03:16Z</time>
      </trkpt>
      <trkpt lat="44.84202" lon="5.96831">
        <ele>1369</ele>
        <time>2015-07-24T12:03:21Z</time>
      </trkpt>
      <trkpt lat="44.84206" lon="5.96834">
        <ele>1370.4</ele>
        <time>2015-07-24T12:03:26Z</time>
      </trkpt>
      <trkpt lat="44.8421" lon="5.96837">
        <ele>1372.5</ele>
        <time>2015-07-24T12:03:31Z</time>
      </trkpt>
      <trkpt lat="44.84213" lon="5.96839">
        <ele>1375.7</ele>
        <time>2015-07-24T12:03:36Z</time>
      </trkpt>
      <trkpt lat="44.84211" lon="5.9684">
        <ele>1377.5</ele>
        <time>2015-07-24T12:03:41Z</time>
      </trkpt>
      <trkpt lat="44.84211" lon="5.96841">
        <ele>1378.6</ele>
        <time>2015-07-24T12:03:46Z</time>
      </trkpt>
      <trkpt lat="44.84211" lon="5.96841">
        <ele>1378.7</ele>
        <time>2015-07-24T12:03:51Z</time>
      </trkpt>
      <trkpt lat="44.84212" lon="5.96838">
        <ele>1376.8</ele>
        <time>2015-07-24T12:03:56Z</time>
      </trkpt>
      <trkpt lat="44.84213" lon="5.96838">
        <ele>1376.9</ele>
        <time>2015-07-24T12:04:01Z</time>
      </trkpt>
      <trkpt lat="44.84213" lon="5.9684">
        <ele>1377.4</ele>
        <time>2015-07-24T12:04:06Z</time>
      </trkpt>
      <trkpt lat="44.84214" lon="5.96839">
        <ele>1376</ele>
        <time>2015-07-24T12:04:11Z</time>
      </trkpt>
      <trkpt lat="44.84219" lon="5.96839">
        <ele>1372.3</ele>
        <time>2015-07-24T12:04:16Z</time>
      </trkpt>
      <trkpt lat="44.84218" lon="5.96838">
        <ele>1371.9</ele>
        <time>2015-07-24T12:04:21Z</time>
      </trkpt>
      <trkpt lat="44.84219" lon="5.96835">
        <ele>1369.4</ele>
        <time>2015-07-24T12:04:26Z</time>
      </trkpt>
      <trkpt lat="44.84221" lon="5.96834">
        <ele>1369.5</ele>
        <time>2015-07-24T12:04:31Z</time>
      </trkpt>
      <trkpt lat="44.84221" lon="5.96835">
        <ele>1364.5</ele>
        <time>2015-07-24T12:04:36Z</time>
      </trkpt>
      <trkpt lat="44.84221" lon="5.96834">
        <ele>1363.4</ele>
        <time>2015-07-24T12:04:41Z</time>
      </trkpt>
      <trkpt lat="44.84222" lon="5.96836">
        <ele>1364.4</ele>
        <time>2015-07-24T12:04:46Z</time>
      </trkpt>
      <trkpt lat="44.84226" lon="5.96838">
        <ele>1363.2</ele>
        <time>2015-07-24T12:04:51Z</time>
      </trkpt>
      <trkpt lat="44.84231" lon="5.96841">
        <ele>1362.7</ele>
        <time>2015-07-24T12:04:56Z</time>
      </trkpt>
      <trkpt lat="44.84234" lon="5.96843">
        <ele>1362.9</ele>
        <time>2015-07-24T12:05:01Z</time>
      </trkpt>
      <trkpt lat="44.8424" lon="5.96846">
        <ele>1363.1</ele>
        <time>2015-07-24T12:05:06Z</time>
      </trkpt>
      <trkpt lat="44.84244" lon="5.96849">
        <ele>1363.7</ele>
        <time>2015-07-24T12:05:11Z</time>
      </trkpt>
      <trkpt lat="44.84244" lon="5.96852">
        <ele>1366.2</ele>
        <time>2015-07-24T12:05:16Z</time>
      </trkpt>
      <trkpt lat="44.84244" lon="5.96854">
        <ele>1369.9</ele>
        <time>2015-07-24T12:05:21Z</time>
      </trkpt>
      <trkpt lat="44.84248" lon="5.96858">
        <ele>1373.9</ele>
        <time>2015-07-24T12:05:26Z</time>
      </trkpt>
      <trkpt lat="44.84252" lon="5.9686">
        <ele>1377.1</ele>
        <time>2015-07-24T12:05:31Z</time>
      </trkpt>
      <trkpt lat="44.84257" lon="5.9686">
        <ele>1378.6</ele>
        <time>2015-07-24T12:05:36Z</time>
      </trkpt>
      <trkpt lat="44.84264" lon="5.9686">
        <ele>1379.5</ele>
        <time>2015-07-24T12:05:41Z</time>
      </trkpt>
      <trkpt lat="44.84268" lon="5.96859">
        <ele>1380.8</ele>
        <time>2015-07-24T12:05:46Z</time>
      </trkpt>
      <trkpt lat="44.84272" lon="5.96863">
        <ele>1383.4</ele>
        <time>2015-07-24T12:05:51Z</time>
      </trkpt>
      <trkpt lat="44.84277" lon="5.96863">
        <ele>1384</ele>
        <time>2015-07-24T12:05:56Z</time>
      </trkpt>
      <trkpt lat="44.84281" lon="5.96863">
        <ele>1393.7</ele>
        <time>2015-07-24T12:06:01Z</time>
      </trkpt>
      <trkpt lat="44.84286" lon="5.96861">
        <ele>1400.2</ele>
        <time>2015-07-24T12:06:06Z</time>
      </trkpt>
      <trkpt lat="44.84295" lon="5.96856">
        <ele>1381.8</ele>
        <time>2015-07-24T12:06:11Z</time>
      </trkpt>
      <trkpt lat="44.84297" lon="5.96856">
        <ele>1377</ele>
        <time>2015-07-24T12:06:16Z</time>
      </trkpt>
      <trkpt lat="44.84299" lon="5.96858">
        <ele>1376.8</ele>
        <time>2015-07-24T12:06:21Z</time>
      </trkpt>
      <trkpt lat="44.84301" lon="5.96859">
        <ele>1388.2</ele>
        <time>2015-07-24T12:06:26Z</time>
      </trkpt>
      <trkpt lat="44.84306" lon="5.96859">
        <ele>1393.1</ele>
        <time>2015-07-24T12:06:31Z</time>
      </trkpt>
      <trkpt lat="44.8431" lon="5.96859">
        <ele>1393.2</ele>
        <time>2015-07-24T12:06:36Z</time>
      </trkpt>
      <trkpt lat="44.84312" lon="5.96859">
        <ele>1398.9</ele>
        <time>2015-07-24T12:06:41Z</time>
      </trkpt>
      <trkpt lat="44.84318" lon="5.96858">
        <ele>1404.2</ele>
        <time>2015-07-24T12:06:46Z</time>
      </trkpt>
      <trkpt lat="44.84325" lon="5.96854">
        <ele>1405.1</ele>
        <time>2015-07-24T12:06:51Z</time>
      </trkpt>
      <trkpt lat="44.84329" lon="5.96854">
        <ele>1404.4</ele>
        <time>2015-07-24T12:06:56Z</time>
      </trkpt>
      <trkpt lat="44.84334" lon="5.96851">
        <ele>1404.1</ele>
        <time>2015-07-24T12:07:01Z</time>
      </trkpt>
      <trkpt lat="44.84338" lon="5.96846">
        <ele>1402.4</ele>
        <time>2015-07-24T12:07:06Z</time>
      </trkpt>
      <trkpt lat="44.84348" lon="5.96844">
        <ele>1400.9</ele>
        <time>2015-07-24T12:07:11Z</time>
      </trkpt>
      <trkpt lat="44.84355" lon="5.96844">
        <ele>1399.8</ele>
        <time>2015-07-24T12:07:16Z</time>
      </trkpt>
      <trkpt lat="44.84361" lon="5.96843">
        <ele>1396.7</ele>
        <time>2015-07-24T12:07:21Z</time>
      </trkpt>
      <trkpt lat="44.84369" lon="5.96841">
        <ele>1393.8</ele>
        <time>2015-07-24T12:07:26Z</time>
      </trkpt>
      <trkpt lat="44.84374" lon="5.96838">
        <ele>1395</ele>
        <time>2015-07-24T12:07:31Z</time>
      </trkpt>
      <trkpt lat="44.8438" lon="5.96834">
        <ele>1391.9</ele>
        <time>2015-07-24T12:07:36Z</time>
      </trkpt>
      <trkpt lat="44.84384" lon="5.96828">
        <ele>1391.4</ele>
        <time>2015-07-24T12:07:41Z</time>
      </trkpt>
      <trkpt lat="44.84388" lon="5.96824">
        <ele>1390.5</ele>
        <time>2015-07-24T12:07:46Z</time>
      </trkpt>
      <trkpt lat="44.84395" lon="5.9682">
        <ele>1391.6</ele>
        <time>2015-07-24T12:07:51Z</time>
      </trkpt>
      <trkpt lat="44.844" lon="5.96816">
        <ele>1394.8</ele>
        <time>2015-07-24T12:07:56Z</time>
      </trkpt>
      <trkpt lat="44.84403" lon="5.96808">
        <ele>1402</ele>
        <time>2015-07-24T12:08:01Z</time>
      </trkpt>
      <trkpt lat="44.84406" lon="5.96806">
        <ele>1409.9</ele>
        <time>2015-07-24T12:08:06Z</time>
      </trkpt>
      <trkpt lat="44.84409" lon="5.96801">
        <ele>1412.5</ele>
        <time>2015-07-24T12:08:11Z</time>
      </trkpt>
      <trkpt lat="44.84413" lon="5.968">
        <ele>1421</ele>
        <time>2015-07-24T12:08:16Z</time>
      </trkpt>
      <trkpt lat="44.84416" lon="5.96797">
        <ele>1427.7</ele>
        <time>2015-07-24T12:08:21Z</time>
      </trkpt>
      <trkpt lat="44.84422" lon="5.96793">
        <ele>1421.4</ele>
        <time>2015-07-24T12:08:26Z</time>
      </trkpt>
      <trkpt lat="44.84428" lon="5.96786">
        <ele>1415.5</ele>
        <time>2015-07-24T12:08:31Z</time>
      </trkpt>
      <trkpt lat="44.84433" lon="5.96783">
        <ele>1415.1</ele>
        <time>2015-07-24T12:08:36Z</time>
      </trkpt>
      <trkpt lat="44.84437" lon="5.9678">
        <ele>1415.5</ele>
        <time>2015-07-24T12:08:41Z</time>
      </trkpt>
      <trkpt lat="44.84445" lon="5.96775">
        <ele>1410.4</ele>
        <time>2015-07-24T12:08:46Z</time>
      </trkpt>
      <trkpt lat="44.84448" lon="5.9677">
        <ele>1409.1</ele>
        <time>2015-07-24T12:08:51Z</time>
      </trkpt>
      <trkpt lat="44.84453" lon="5.96767">
        <ele>1413</ele>
        <time>2015-07-24T12:08:56Z</time>
      </trkpt>
      <trkpt lat="44.84457" lon="5.96765">
        <ele>1412.2</ele>
        <time>2015-07-24T12:09:01Z</time>
      </trkpt>
      <trkpt lat="44.84462" lon="5.96762">
        <ele>1412.7</ele>
        <time>2015-07-24T12:09:06Z</time>
      </trkpt>
      <trkpt lat="44.84465" lon="5.96756">
        <ele>1409.8</ele>
        <time>2015-07-24T12:09:11Z</time>
      </trkpt>
      <trkpt lat="44.84466" lon="5.96752">
        <ele>1410.9</ele>
        <time>2015-07-24T12:09:16Z</time>
      </trkpt>
      <trkpt lat="44.84468" lon="5.96756">
        <ele>1405</ele>
        <time>2015-07-24T12:09:21Z</time>
      </trkpt>
      <trkpt lat="44.84465" lon="5.96756">
        <ele>1417.8</ele>
        <time>2015-07-24T12:09:26Z</time>
      </trkpt>
      <trkpt lat="44.84465" lon="5.96754">
        <ele>1426.5</ele>
        <time>2015-07-24T12:09:31Z</time>
      </trkpt>
      <trkpt lat="44.84466" lon="5.96751">
        <ele>1432.8</ele>
        <time>2015-07-24T12:09:36Z</time>
      </trkpt>
      <trkpt lat="44.8447" lon="5.96749">
        <ele>1425.9</ele>
        <time>2015-07-24T12:09:41Z</time>
      </trkpt>
      <trkpt lat="44.84472" lon="5.96749">
        <ele>1422.3</ele>
        <time>2015-07-24T12:09:46Z</time>
      </trkpt>
      <trkpt lat="44.8447" lon="5.96748">
        <ele>1426.5</ele>
        <time>2015-07-24T12:09:51Z</time>
      </trkpt>
      <trkpt lat="44.84474" lon="5.96746">
        <ele>1415.5</ele>
        <time>2015-07-24T12:09:56Z</time>
      </trkpt>
      <trkpt lat="44.84476" lon="5.96746">
        <ele>1403.8</ele>
        <time>2015-07-24T12:10:01Z</time>
      </trkpt>
      <trkpt lat="44.8448" lon="5.96747">
        <ele>1392.9</ele>
        <time>2015-07-24T12:10:06Z</time>
      </trkpt>
      <trkpt lat="44.84479" lon="5.96746">
        <ele>1400.8</ele>
        <time>2015-07-24T12:10:11Z</time>
      </trkpt>
      <trkpt lat="44.84481" lon="5.96743">
        <ele>1406.3</ele>
        <time>2015-07-24T12:10:16Z</time>
      </trkpt>
      <trkpt lat="44.84479" lon="5.96738">
        <ele>1413.7</ele>
        <time>2015-07-24T12:10:21Z</time>
      </trkpt>
      <trkpt lat="44.84477" lon="5.96734">
        <ele>1420.7</ele>
        <time>2015-07-24T12:10:26Z</time>
      </trkpt>
      <trkpt lat="44.84475" lon="5.96731">
        <ele>1424.9</ele>
        <time>2015-07-24T12:10:31Z</time>
      </trkpt>
      <trkpt lat="44.84474" lon="5.9673">
        <ele>1425.8</ele>
        <time>2015-07-24T12:10:36Z</time>
      </trkpt>
      <trkpt lat="44.84473" lon="5.96728">
        <ele>1425.3</ele>
        <time>2015-07-24T12:10:41Z</time>
      </trkpt>
      <trkpt lat="44.84474" lon="5.9673">
        <ele>1424.1</ele>
        <time>2015-07-24T12:10:46Z</time>
      </trkpt>
      <trkpt lat="44.84477" lon="5.96731">
        <ele>1421.7</ele>
        <time>2015-07-24T12:10:51Z</time>
      </trkpt>
      <trkpt lat="44.84479" lon="5.96731">
        <ele>1420.3</ele>
        <time>2015-07-24T12:10:56Z</time>
      </trkpt>
      <trkpt lat="44.84481" lon="5.96731">
        <ele>1423.7</ele>
        <time>2015-07-24T12:11:01Z</time>
      </trkpt>
      <trkpt lat="44.84485" lon="5.96728">
        <ele>1424.1</ele>
        <time>2015-07-24T12:11:06Z</time>
      </trkpt>
      <trkpt lat="44.84486" lon="5.96726">
        <ele>1425.8</ele>
        <time>2015-07-24T12:11:11Z</time>
      </trkpt>
      <trkpt lat="44.84488" lon="5.96723">
        <ele>1427.5</ele>
        <time>2015-07-24T12:11:16Z</time>
      </trkpt>
      <trkpt lat="44.84489" lon="5.96722">
        <ele>1428.9</ele>
        <time>2015-07-24T12:11:21Z</time>
      </trkpt>
      <trkpt lat="44.84493" lon="5.96716">
        <ele>1424.9</ele>
        <time>2015-07-24T12:11:26Z</time>
      </trkpt>
      <trkpt lat="44.84495" lon="5.96718">
        <ele>1422.9</ele>
        <time>2015-07-24T12:11:31Z</time>
      </trkpt>
      <trkpt lat="44.84496" lon="5.96719">
        <ele>1424.4</ele>
        <time>2015-07-24T12:11:36Z</time>
      </trkpt>
      <trkpt lat="44.84498" lon="5.96718">
        <ele>1423.1</ele>
        <time>2015-07-24T12:11:41Z</time>
      </trkpt>
      <trkpt lat="44.84498" lon="5.96714">
        <ele>1425.4</ele>
        <time>2015-07-24T12:11:46Z</time>
      </trkpt>
      <trkpt lat="44.84494" lon="5.9671">
        <ele>1428.8</ele>
        <time>2015-07-24T12:11:51Z</time>
      </trkpt>
      <trkpt lat="44.84492" lon="5.96702">
        <ele>1433.6</ele>
        <time>2015-07-24T12:11:56Z</time>
      </trkpt>
      <trkpt lat="44.84489" lon="5.96699">
        <ele>1443.8</ele>
        <time>2015-07-24T12:12:01Z</time>
      </trkpt>
      <trkpt lat="44.84488" lon="5.96705">
        <ele>1453.2</ele>
        <time>2015-07-24T12:12:06Z</time>
      </trkpt>
      <trkpt lat="44.84491" lon="5.96709">
        <ele>1445.8</ele>
        <time>2015-07-24T12:12:11Z</time>
      </trkpt>
      <trkpt lat="44.84496" lon="5.96712">
        <ele>1440.8</ele>
        <time>2015-07-24T12:12:16Z</time>
      </trkpt>
      <trkpt lat="44.84499" lon="5.96713">
        <ele>1433.5</ele>
        <time>2015-07-24T12:12:21Z</time>
      </trkpt>
      <trkpt lat="44.84502" lon="5.96713">
        <ele>1432.9</ele>
        <time>2015-07-24T12:12:26Z</time>
      </trkpt>
      <trkpt lat="44.84504" lon="5.96716">
        <ele>1432.3</ele>
        <time>2015-07-24T12:12:31Z</time>
      </trkpt>
      <trkpt lat="44.845" lon="5.96714">
        <ele>1437.2</ele>
        <time>2015-07-24T12:12:36Z</time>
      </trkpt>
      <trkpt lat="44.84496" lon="5.96714">
        <ele>1443</ele>
        <time>2015-07-24T12:12:41Z</time>
      </trkpt>
      <trkpt lat="44.84494" lon="5.96714">
        <ele>1445.2</ele>
        <time>2015-07-24T12:12:46Z</time>
      </trkpt>
      <trkpt lat="44.84496" lon="5.96713">
        <ele>1438.6</ele>
        <time>2015-07-24T12:12:51Z</time>
      </trkpt>
      <trkpt lat="44.84496" lon="5.96712">
        <ele>1435.4</ele>
        <time>2015-07-24T12:12:56Z</time>
      </trkpt>
      <trkpt lat="44.84491" lon="5.96711">
        <ele>1438.5</ele>
        <time>2015-07-24T12:13:01Z</time>
      </trkpt>
      <trkpt lat="44.84489" lon="5.96706">
        <ele>1429.4</ele>
        <time>2015-07-24T12:13:06Z</time>
      </trkpt>
      <trkpt lat="44.84493" lon="5.96704">
        <ele>1424.3</ele>
        <time>2015-07-24T12:13:11Z</time>
      </trkpt>
      <trkpt lat="44.84498" lon="5.96703">
        <ele>1419.9</ele>
        <time>2015-07-24T12:13:16Z</time>
      </trkpt>
      <trkpt lat="44.84501" lon="5.96705">
        <ele>1424.9</ele>
        <time>2015-07-24T12:13:22Z</time>
      </trkpt>
      <trkpt lat="44.84499" lon="5.96699">
        <ele>1434.8</ele>
        <time>2015-07-24T12:13:27Z</time>
      </trkpt>
      <trkpt lat="44.84496" lon="5.96698">
        <ele>1438.2</ele>
        <time>2015-07-24T12:13:32Z</time>
      </trkpt>
      <trkpt lat="44.84498" lon="5.96699">
        <ele>1437</ele>
        <time>2015-07-24T12:13:37Z</time>
      </trkpt>
      <trkpt lat="44.84497" lon="5.96699">
        <ele>1434.8</ele>
        <time>2015-07-24T12:13:42Z</time>
      </trkpt>
      <trkpt lat="44.84496" lon="5.96698">
        <ele>1431.6</ele>
        <time>2015-07-24T12:13:47Z</time>
      </trkpt>
      <trkpt lat="44.84499" lon="5.96698">
        <ele>1428.4</ele>
        <time>2015-07-24T12:13:52Z</time>
      </trkpt>
      <trkpt lat="44.845" lon="5.96699">
        <ele>1430.8</ele>
        <time>2015-07-24T12:13:57Z</time>
      </trkpt>
      <trkpt lat="44.84503" lon="5.96697">
        <ele>1427.9</ele>
        <time>2015-07-24T12:14:02Z</time>
      </trkpt>
      <trkpt lat="44.84505" lon="5.96693">
        <ele>1427.6</ele>
        <time>2015-07-24T12:14:07Z</time>
      </trkpt>
      <trkpt lat="44.84508" lon="5.9669">
        <ele>1428</ele>
        <time>2015-07-24T12:14:12Z</time>
      </trkpt>
      <trkpt lat="44.8451" lon="5.9669">
        <ele>1432.9</ele>
        <time>2015-07-24T12:14:17Z</time>
      </trkpt>
      <trkpt lat="44.84513" lon="5.96681">
        <ele>1432.6</ele>
        <time>2015-07-24T12:14:22Z</time>
      </trkpt>
      <trkpt lat="44.84518" lon="5.96677">
        <ele>1428.9</ele>
        <time>2015-07-24T12:14:27Z</time>
      </trkpt>
      <trkpt lat="44.84523" lon="5.96671">
        <ele>1426.6</ele>
        <time>2015-07-24T12:14:32Z</time>
      </trkpt>
      <trkpt lat="44.84525" lon="5.96667">
        <ele>1428.7</ele>
        <time>2015-07-24T12:14:37Z</time>
      </trkpt>
      <trkpt lat="44.8453" lon="5.96662">
        <ele>1425.8</ele>
        <time>2015-07-24T12:14:42Z</time>
      </trkpt>
      <trkpt lat="44.84535" lon="5.9666">
        <ele>1425.6</ele>
        <time>2015-07-24T12:14:47Z</time>
      </trkpt>
      <trkpt lat="44.84539" lon="5.96655">
        <ele>1426.2</ele>
        <time>2015-07-24T12:14:52Z</time>
      </trkpt>
      <trkpt lat="44.84541" lon="5.96649">
        <ele>1428.9</ele>
        <time>2015-07-24T12:14:57Z</time>
      </trkpt>
      <trkpt lat="44.84544" lon="5.96646">
        <ele>1430.5</ele>
        <time>2015-07-24T12:15:02Z</time>
      </trkpt>
      <trkpt lat="44.84549" lon="5.96643">
        <ele>1429.6</ele>
        <time>2015-07-24T12:15:07Z</time>
      </trkpt>
      <trkpt lat="44.84554" lon="5.9664">
        <ele>1433.8</ele>
        <time>2015-07-24T12:15:12Z</time>
      </trkpt>
      <trkpt lat="44.8456" lon="5.96637">
        <ele>1431.3</ele>
        <time>2015-07-24T12:15:17Z</time>
      </trkpt>
      <trkpt lat="44.84565" lon="5.96632">
        <ele>1432.9</ele>
        <time>2015-07-24T12:15:22Z</time>
      </trkpt>
      <trkpt lat="44.84567" lon="5.96628">
        <ele>1442.6</ele>
        <time>2015-07-24T12:15:27Z</time>
      </trkpt>
      <trkpt lat="44.84567" lon="5.96625">
        <ele>1450.3</ele>
        <time>2015-07-24T12:15:32Z</time>
      </trkpt>
      <trkpt lat="44.84571" lon="5.96624">
        <ele>1453.5</ele>
        <time>2015-07-24T12:15:37Z</time>
      </trkpt>
      <trkpt lat="44.84573" lon="5.96624">
        <ele>1456.6</ele>
        <time>2015-07-24T12:15:42Z</time>
      </trkpt>
      <trkpt lat="44.84573" lon="5.96626">
        <ele>1463.7</ele>
        <time>2015-07-24T12:15:47Z</time>
      </trkpt>
      <trkpt lat="44.84575" lon="5.96625">
        <ele>1468.3</ele>
        <time>2015-07-24T12:15:52Z</time>
      </trkpt>
      <trkpt lat="44.84577" lon="5.96623">
        <ele>1465.3</ele>
        <time>2015-07-24T12:15:57Z</time>
      </trkpt>
      <trkpt lat="44.84576" lon="5.96623">
        <ele>1464.3</ele>
        <time>2015-07-24T12:16:02Z</time>
      </trkpt>
      <trkpt lat="44.84578" lon="5.96623">
        <ele>1467</ele>
        <time>2015-07-24T12:16:07Z</time>
      </trkpt>
      <trkpt lat="44.84573" lon="5.96626">
        <ele>1478.9</ele>
        <time>2015-07-24T12:16:12Z</time>
      </trkpt>
      <trkpt lat="44.8457" lon="5.96625">
        <ele>1483.6</ele>
        <time>2015-07-24T12:16:17Z</time>
      </trkpt>
      <trkpt lat="44.8457" lon="5.96624">
        <ele>1486.2</ele>
        <time>2015-07-24T12:16:22Z</time>
      </trkpt>
      <trkpt lat="44.84569" lon="5.96623">
        <ele>1490.6</ele>
        <time>2015-07-24T12:16:27Z</time>
      </trkpt>
      <trkpt lat="44.84567" lon="5.96623">
        <ele>1497.9</ele>
        <time>2015-07-24T12:16:32Z</time>
      </trkpt>
      <trkpt lat="44.84573" lon="5.96623">
        <ele>1490.1</ele>
        <time>2015-07-24T12:16:37Z</time>
      </trkpt>
      <trkpt lat="44.84578" lon="5.96627">
        <ele>1487</ele>
        <time>2015-07-24T12:16:42Z</time>
      </trkpt>
      <trkpt lat="44.84576" lon="5.96635">
        <ele>1491.7</ele>
        <time>2015-07-24T12:16:47Z</time>
      </trkpt>
      <trkpt lat="44.84573" lon="5.96632">
        <ele>1492.1</ele>
        <time>2015-07-24T12:16:52Z</time>
      </trkpt>
      <trkpt lat="44.8457" lon="5.9663">
        <ele>1493.8</ele>
        <time>2015-07-24T12:16:57Z</time>
      </trkpt>
      <trkpt lat="44.8457" lon="5.96628">
        <ele>1494.6</ele>
        <time>2015-07-24T12:17:02Z</time>
      </trkpt>
      <trkpt lat="44.8457" lon="5.96627">
        <ele>1489.3</ele>
        <time>2015-07-24T12:17:07Z</time>
      </trkpt>
      <trkpt lat="44.8457" lon="5.96628">
        <ele>1483</ele>
        <time>2015-07-24T12:17:12Z</time>
      </trkpt>
      <trkpt lat="44.84574" lon="5.96627">
        <ele>1470.2</ele>
        <time>2015-07-24T12:17:17Z</time>
      </trkpt>
      <trkpt lat="44.84579" lon="5.96621">
        <ele>1454.3</ele>
        <time>2015-07-24T12:17:22Z</time>
      </trkpt>
      <trkpt lat="44.84588" lon="5.96624">
        <ele>1445.6</ele>
        <time>2015-07-24T12:17:27Z</time>
      </trkpt>
      <trkpt lat="44.84593" lon="5.96622">
        <ele>1442.8</ele>
        <time>2015-07-24T12:17:32Z</time>
      </trkpt>
      <trkpt lat="44.84594" lon="5.96619">
        <ele>1440.9</ele>
        <time>2015-07-24T12:17:37Z</time>
      </trkpt>
      <trkpt lat="44.84597" lon="5.96616">
        <ele>1440.8</ele>
        <time>2015-07-24T12:17:42Z</time>
      </trkpt>
      <trkpt lat="44.84601" lon="5.96614">
        <ele>1444.8</ele>
        <time>2015-07-24T12:17:47Z</time>
      </trkpt>
      <trkpt lat="44.84606" lon="5.96611">
        <ele>1445.6</ele>
        <time>2015-07-24T12:17:52Z</time>
      </trkpt>
      <trkpt lat="44.84609" lon="5.9661">
        <ele>1446.6</ele>
        <time>2015-07-24T12:17:57Z</time>
      </trkpt>
      <trkpt lat="44.84614" lon="5.96608">
        <ele>1440.6</ele>
        <time>2015-07-24T12:18:02Z</time>
      </trkpt>
      <trkpt lat="44.84614" lon="5.96606">
        <ele>1443.8</ele>
        <time>2015-07-24T12:18:07Z</time>
      </trkpt>
      <trkpt lat="44.84612" lon="5.96604">
        <ele>1447.1</ele>
        <time>2015-07-24T12:18:12Z</time>
      </trkpt>
      <trkpt lat="44.8461" lon="5.96602">
        <ele>1448.2</ele>
        <time>2015-07-24T12:18:17Z</time>
      </trkpt>
      <trkpt lat="44.84611" lon="5.96602">
        <ele>1446.8</ele>
        <time>2015-07-24T12:18:22Z</time>
      </trkpt>
      <trkpt lat="44.84612" lon="5.96601">
        <ele>1443.4</ele>
        <time>2015-07-24T12:18:27Z</time>
      </trkpt>
      <trkpt lat="44.84612" lon="5.96601">
        <ele>1440.7</ele>
        <time>2015-07-24T12:18:32Z</time>
      </trkpt>
      <trkpt lat="44.84612" lon="5.96601">
        <ele>1438.4</ele>
        <time>2015-07-24T12:18:37Z</time>
      </trkpt>
      <trkpt lat="44.8461" lon="5.96599">
        <ele>1437.4</ele>
        <time>2015-07-24T12:18:42Z</time>
      </trkpt>
      <trkpt lat="44.84615" lon="5.96595">
        <ele>1433.9</ele>
        <time>2015-07-24T12:18:47Z</time>
      </trkpt>
      <trkpt lat="44.84618" lon="5.96589">
        <ele>1431.9</ele>
        <time>2015-07-24T12:18:52Z</time>
      </trkpt>
      <trkpt lat="44.84621" lon="5.96586">
        <ele>1431.5</ele>
        <time>2015-07-24T12:18:57Z</time>
      </trkpt>
      <trkpt lat="44.84624" lon="5.96579">
        <ele>1432.4</ele>
        <time>2015-07-24T12:19:02Z</time>
      </trkpt>
      <trkpt lat="44.84625" lon="5.9657">
        <ele>1436.4</ele>
        <time>2015-07-24T12:19:07Z</time>
      </trkpt>
      <trkpt lat="44.84628" lon="5.96563">
        <ele>1440.7</ele>
        <time>2015-07-24T12:19:12Z</time>
      </trkpt>
      <trkpt lat="44.8463" lon="5.96557">
        <ele>1442.7</ele>
        <time>2015-07-24T12:19:17Z</time>
      </trkpt>
      <trkpt lat="44.84634" lon="5.96552">
        <ele>1443</ele>
        <time>2015-07-24T12:19:22Z</time>
      </trkpt>
      <trkpt lat="44.84639" lon="5.96549">
        <ele>1441.2</ele>
        <time>2015-07-24T12:19:27Z</time>
      </trkpt>
      <trkpt lat="44.84642" lon="5.96543">
        <ele>1446</ele>
        <time>2015-07-24T12:19:32Z</time>
      </trkpt>
      <trkpt lat="44.84647" lon="5.96538">
        <ele>1447.5</ele>
        <time>2015-07-24T12:19:37Z</time>
      </trkpt>
      <trkpt lat="44.84651" lon="5.96534">
        <ele>1447.6</ele>
        <time>2015-07-24T12:19:42Z</time>
      </trkpt>
      <trkpt lat="44.84654" lon="5.96528">
        <ele>1451.9</ele>
        <time>2015-07-24T12:19:47Z</time>
      </trkpt>
      <trkpt lat="44.84659" lon="5.96525">
        <ele>1453.2</ele>
        <time>2015-07-24T12:19:52Z</time>
      </trkpt>
      <trkpt lat="44.84662" lon="5.96521">
        <ele>1454.4</ele>
        <time>2015-07-24T12:19:57Z</time>
      </trkpt>
      <trkpt lat="44.84662" lon="5.9652">
        <ele>1457.8</ele>
        <time>2015-07-24T12:20:02Z</time>
      </trkpt>
      <trkpt lat="44.84665" lon="5.96516">
        <ele>1456.8</ele>
        <time>2015-07-24T12:20:07Z</time>
      </trkpt>
      <trkpt lat="44.84669" lon="5.96514">
        <ele>1455.2</ele>
        <time>2015-07-24T12:20:12Z</time>
      </trkpt>
      <trkpt lat="44.84674" lon="5.96512">
        <ele>1455.1</ele>
        <time>2015-07-24T12:20:17Z</time>
      </trkpt>
      <trkpt lat="44.84679" lon="5.96511">
        <ele>1456.5</ele>
        <time>2015-07-24T12:20:22Z</time>
      </trkpt>
      <trkpt lat="44.84685" lon="5.96508">
        <ele>1453.2</ele>
        <time>2015-07-24T12:20:27Z</time>
      </trkpt>
      <trkpt lat="44.84691" lon="5.96506">
        <ele>1451</ele>
        <time>2015-07-24T12:20:32Z</time>
      </trkpt>
      <trkpt lat="44.84692" lon="5.96501">
        <ele>1450.8</ele>
        <time>2015-07-24T12:20:37Z</time>
      </trkpt>
      <trkpt lat="44.84694" lon="5.96496">
        <ele>1450.9</ele>
        <time>2015-07-24T12:20:42Z</time>
      </trkpt>
      <trkpt lat="44.84697" lon="5.96492">
        <ele>1452.6</ele>
        <time>2015-07-24T12:20:47Z</time>
      </trkpt>
      <trkpt lat="44.84702" lon="5.96488">
        <ele>1456.2</ele>
        <time>2015-07-24T12:20:52Z</time>
      </trkpt>
      <trkpt lat="44.84705" lon="5.96487">
        <ele>1463.8</ele>
        <time>2015-07-24T12:20:57Z</time>
      </trkpt>
      <trkpt lat="44.84709" lon="5.96483">
        <ele>1468.4</ele>
        <time>2015-07-24T12:21:02Z</time>
      </trkpt>
      <trkpt lat="44.84713" lon="5.96482">
        <ele>1471.1</ele>
        <time>2015-07-24T12:21:07Z</time>
      </trkpt>
      <trkpt lat="44.84716" lon="5.96478">
        <ele>1472.8</ele>
        <time>2015-07-24T12:21:12Z</time>
      </trkpt>
      <trkpt lat="44.84723" lon="5.96476">
        <ele>1471</ele>
        <time>2015-07-24T12:21:17Z</time>
      </trkpt>
      <trkpt lat="44.84728" lon="5.96475">
        <ele>1469.9</ele>
        <time>2015-07-24T12:21:22Z</time>
      </trkpt>
      <trkpt lat="44.84734" lon="5.96473">
        <ele>1466.6</ele>
        <time>2015-07-24T12:21:27Z</time>
      </trkpt>
      <trkpt lat="44.84739" lon="5.96468">
        <ele>1463.5</ele>
        <time>2015-07-24T12:21:32Z</time>
      </trkpt>
      <trkpt lat="44.84742" lon="5.96468">
        <ele>1470.5</ele>
        <time>2015-07-24T12:21:37Z</time>
      </trkpt>
      <trkpt lat="44.84745" lon="5.96463">
        <ele>1467.9</ele>
        <time>2015-07-24T12:21:42Z</time>
      </trkpt>
      <trkpt lat="44.84749" lon="5.96459">
        <ele>1471.1</ele>
        <time>2015-07-24T12:21:47Z</time>
      </trkpt>
      <trkpt lat="44.84751" lon="5.96458">
        <ele>1474.4</ele>
        <time>2015-07-24T12:21:52Z</time>
      </trkpt>
      <trkpt lat="44.84752" lon="5.96457">
        <ele>1473.2</ele>
        <time>2015-07-24T12:21:57Z</time>
      </trkpt>
      <trkpt lat="44.84754" lon="5.96455">
        <ele>1472.5</ele>
        <time>2015-07-24T12:22:02Z</time>
      </trkpt>
      <trkpt lat="44.84757" lon="5.96454">
        <ele>1478.5</ele>
        <time>2015-07-24T12:22:07Z</time>
      </trkpt>
      <trkpt lat="44.8476" lon="5.96453">
        <ele>1483.6</ele>
        <time>2015-07-24T12:22:12Z</time>
      </trkpt>
      <trkpt lat="44.84763" lon="5.96452">
        <ele>1484.5</ele>
        <time>2015-07-24T12:22:17Z</time>
      </trkpt>
      <trkpt lat="44.84768" lon="5.96451">
        <ele>1482.7</ele>
        <time>2015-07-24T12:22:22Z</time>
      </trkpt>
      <trkpt lat="44.84772" lon="5.96449">
        <ele>1481.3</ele>
        <time>2015-07-24T12:22:27Z</time>
      </trkpt>
      <trkpt lat="44.84775" lon="5.9645">
        <ele>1481</ele>
        <time>2015-07-24T12:22:32Z</time>
      </trkpt>
      <trkpt lat="44.84779" lon="5.96451">
        <ele>1482.4</ele>
        <time>2015-07-24T12:22:37Z</time>
      </trkpt>
      <trkpt lat="44.84782" lon="5.96448">
        <ele>1481.8</ele>
        <time>2015-07-24T12:22:42Z</time>
      </trkpt>
      <trkpt lat="44.84789" lon="5.96442">
        <ele>1476.2</ele>
        <time>2015-07-24T12:22:47Z</time>
      </trkpt>
      <trkpt lat="44.84793" lon="5.96436">
        <ele>1477.9</ele>
        <time>2015-07-24T12:22:52Z</time>
      </trkpt>
      <trkpt lat="44.84798" lon="5.96432">
        <ele>1477.4</ele>
        <time>2015-07-24T12:22:57Z</time>
      </trkpt>
      <trkpt lat="44.84802" lon="5.9643">
        <ele>1474.8</ele>
        <time>2015-07-24T12:23:02Z</time>
      </trkpt>
      <trkpt lat="44.84808" lon="5.96429">
        <ele>1472.4</ele>
        <time>2015-07-24T12:23:07Z</time>
      </trkpt>
      <trkpt lat="44.84812" lon="5.96426">
        <ele>1470.7</ele>
        <time>2015-07-24T12:23:12Z</time>
      </trkpt>
      <trkpt lat="44.84817" lon="5.96423">
        <ele>1467.9</ele>
        <time>2015-07-24T12:23:17Z</time>
      </trkpt>
      <trkpt lat="44.8482" lon="5.96419">
        <ele>1468.1</ele>
        <time>2015-07-24T12:23:22Z</time>
      </trkpt>
      <trkpt lat="44.84823" lon="5.96416">
        <ele>1467.7</ele>
        <time>2015-07-24T12:23:27Z</time>
      </trkpt>
      <trkpt lat="44.84828" lon="5.96411">
        <ele>1468.6</ele>
        <time>2015-07-24T12:23:32Z</time>
      </trkpt>
      <trkpt lat="44.84829" lon="5.96406">
        <ele>1471.5</ele>
        <time>2015-07-24T12:23:37Z</time>
      </trkpt>
      <trkpt lat="44.84831" lon="5.96401">
        <ele>1471.6</ele>
        <time>2015-07-24T12:23:42Z</time>
      </trkpt>
      <trkpt lat="44.84833" lon="5.96397">
        <ele>1470.3</ele>
        <time>2015-07-24T12:23:47Z</time>
      </trkpt>
      <trkpt lat="44.84837" lon="5.96396">
        <ele>1471.4</ele>
        <time>2015-07-24T12:23:52Z</time>
      </trkpt>
      <trkpt lat="44.84839" lon="5.96395">
        <ele>1475.8</ele>
        <time>2015-07-24T12:23:57Z</time>
      </trkpt>
      <trkpt lat="44.84842" lon="5.9639">
        <ele>1475.4</ele>
        <time>2015-07-24T12:24:02Z</time>
      </trkpt>
      <trkpt lat="44.84847" lon="5.96386">
        <ele>1472.7</ele>
        <time>2015-07-24T12:24:07Z</time>
      </trkpt>
      <trkpt lat="44.84849" lon="5.96381">
        <ele>1474.1</ele>
        <time>2015-07-24T12:24:12Z</time>
      </trkpt>
      <trkpt lat="44.84852" lon="5.96379">
        <ele>1474.1</ele>
        <time>2015-07-24T12:24:17Z</time>
      </trkpt>
      <trkpt lat="44.84848" lon="5.96382">
        <ele>1479.3</ele>
        <time>2015-07-24T12:24:22Z</time>
      </trkpt>
      <trkpt lat="44.84847" lon="5.96384">
        <ele>1485.5</ele>
        <time>2015-07-24T12:24:27Z</time>
      </trkpt>
      <trkpt lat="44.84852" lon="5.96379">
        <ele>1480.5</ele>
        <time>2015-07-24T12:24:32Z</time>
      </trkpt>
      <trkpt lat="44.84856" lon="5.96375">
        <ele>1477.8</ele>
        <time>2015-07-24T12:24:37Z</time>
      </trkpt>
      <trkpt lat="44.8486" lon="5.96369">
        <ele>1476.6</ele>
        <time>2015-07-24T12:24:42Z</time>
      </trkpt>
      <trkpt lat="44.84863" lon="5.96366">
        <ele>1477.1</ele>
        <time>2015-07-24T12:24:47Z</time>
      </trkpt>
      <trkpt lat="44.84867" lon="5.96362">
        <ele>1476.9</ele>
        <time>2015-07-24T12:24:52Z</time>
      </trkpt>
      <trkpt lat="44.84868" lon="5.96359">
        <ele>1480.5</ele>
        <time>2015-07-24T12:24:57Z</time>
      </trkpt>
      <trkpt lat="44.84868" lon="5.96356">
        <ele>1486.5</ele>
        <time>2015-07-24T12:25:02Z</time>
      </trkpt>
      <trkpt lat="44.84863" lon="5.96356">
        <ele>1488</ele>
        <time>2015-07-24T12:25:07Z</time>
      </trkpt>
      <trkpt lat="44.84863" lon="5.96358">
        <ele>1487.9</ele>
        <time>2015-07-24T12:25:12Z</time>
      </trkpt>
      <trkpt lat="44.8486" lon="5.96362">
        <ele>1493.9</ele>
        <time>2015-07-24T12:25:17Z</time>
      </trkpt>
      <trkpt lat="44.8486" lon="5.96368">
        <ele>1498.6</ele>
        <time>2015-07-24T12:25:22Z</time>
      </trkpt>
      <trkpt lat="44.8486" lon="5.96366">
        <ele>1500.9</ele>
        <time>2015-07-24T12:25:27Z</time>
      </trkpt>
      <trkpt lat="44.8486" lon="5.96367">
        <ele>1504.3</ele>
        <time>2015-07-24T12:25:32Z</time>
      </trkpt>
      <trkpt lat="44.84863" lon="5.96363">
        <ele>1501.6</ele>
        <time>2015-07-24T12:25:37Z</time>
      </trkpt>
      <trkpt lat="44.84868" lon="5.96356">
        <ele>1495.9</ele>
        <time>2015-07-24T12:25:42Z</time>
      </trkpt>
      <trkpt lat="44.84873" lon="5.96351">
        <ele>1494.3</ele>
        <time>2015-07-24T12:25:47Z</time>
      </trkpt>
      <trkpt lat="44.84876" lon="5.96347">
        <ele>1493.1</ele>
        <time>2015-07-24T12:25:52Z</time>
      </trkpt>
      <trkpt lat="44.8488" lon="5.9634">
        <ele>1491.2</ele>
        <time>2015-07-24T12:25:57Z</time>
      </trkpt>
      <trkpt lat="44.84883" lon="5.96337">
        <ele>1492.8</ele>
        <time>2015-07-24T12:26:02Z</time>
      </trkpt>
      <trkpt lat="44.84887" lon="5.96333">
        <ele>1491.6</ele>
        <time>2015-07-24T12:26:07Z</time>
      </trkpt>
      <trkpt lat="44.84891" lon="5.96329">
        <ele>1492.3</ele>
        <time>2015-07-24T12:26:12Z</time>
      </trkpt>
      <trkpt lat="44.84893" lon="5.96324">
        <ele>1493.5</ele>
        <time>2015-07-24T12:26:17Z</time>
      </trkpt>
      <trkpt lat="44.84897" lon="5.96321">
        <ele>1493.5</ele>
        <time>2015-07-24T12:26:22Z</time>
      </trkpt>
      <trkpt lat="44.849" lon="5.96317">
        <ele>1494.9</ele>
        <time>2015-07-24T12:26:27Z</time>
      </trkpt>
      <trkpt lat="44.84906" lon="5.96316">
        <ele>1496.8</ele>
        <time>2015-07-24T12:26:32Z</time>
      </trkpt>
      <trkpt lat="44.84908" lon="5.96312">
        <ele>1497.5</ele>
        <time>2015-07-24T12:26:37Z</time>
      </trkpt>
      <trkpt lat="44.84911" lon="5.96305">
        <ele>1496.7</ele>
        <time>2015-07-24T12:26:42Z</time>
      </trkpt>
      <trkpt lat="44.84916" lon="5.96302">
        <ele>1500.3</ele>
        <time>2015-07-24T12:26:47Z</time>
      </trkpt>
      <trkpt lat="44.84918" lon="5.96299">
        <ele>1502.3</ele>
        <time>2015-07-24T12:26:52Z</time>
      </trkpt>
      <trkpt lat="44.84922" lon="5.96297">
        <ele>1502.7</ele>
        <time>2015-07-24T12:26:57Z</time>
      </trkpt>
      <trkpt lat="44.84926" lon="5.96294">
        <ele>1504.1</ele>
        <time>2015-07-24T12:27:02Z</time>
      </trkpt>
      <trkpt lat="44.84931" lon="5.96291">
        <ele>1504.6</ele>
        <time>2015-07-24T12:27:07Z</time>
      </trkpt>
      <trkpt lat="44.84936" lon="5.96289">
        <ele>1504.9</ele>
        <time>2015-07-24T12:27:12Z</time>
      </trkpt>
      <trkpt lat="44.84939" lon="5.96286">
        <ele>1505.4</ele>
        <time>2015-07-24T12:27:17Z</time>
      </trkpt>
      <trkpt lat="44.84942" lon="5.96282">
        <ele>1505.9</ele>
        <time>2015-07-24T12:27:22Z</time>
      </trkpt>
      <trkpt lat="44.84946" lon="5.96279">
        <ele>1505.5</ele>
        <time>2015-07-24T12:27:27Z</time>
      </trkpt>
      <trkpt lat="44.84951" lon="5.96278">
        <ele>1506.4</ele>
        <time>2015-07-24T12:27:32Z</time>
      </trkpt>
      <trkpt lat="44.84955" lon="5.96277">
        <ele>1507.3</ele>
        <time>2015-07-24T12:27:37Z</time>
      </trkpt>
      <trkpt lat="44.84959" lon="5.96276">
        <ele>1507.9</ele>
        <time>2015-07-24T12:27:42Z</time>
      </trkpt>
      <trkpt lat="44.84964" lon="5.96277">
        <ele>1510.3</ele>
        <time>2015-07-24T12:27:47Z</time>
      </trkpt>
      <trkpt lat="44.84969" lon="5.96278">
        <ele>1511.1</ele>
        <time>2015-07-24T12:27:52Z</time>
      </trkpt>
      <trkpt lat="44.84974" lon="5.96277">
        <ele>1511.2</ele>
        <time>2015-07-24T12:27:57Z</time>
      </trkpt>
      <trkpt lat="44.84979" lon="5.96275">
        <ele>1511.4</ele>
        <time>2015-07-24T12:28:02Z</time>
      </trkpt>
      <trkpt lat="44.84985" lon="5.96273">
        <ele>1510.7</ele>
        <time>2015-07-24T12:28:07Z</time>
      </trkpt>
      <trkpt lat="44.84989" lon="5.96273">
        <ele>1510.8</ele>
        <time>2015-07-24T12:28:12Z</time>
      </trkpt>
      <trkpt lat="44.84994" lon="5.96274">
        <ele>1511.9</ele>
        <time>2015-07-24T12:28:17Z</time>
      </trkpt>
      <trkpt lat="44.85" lon="5.9627">
        <ele>1512</ele>
        <time>2015-07-24T12:28:22Z</time>
      </trkpt>
      <trkpt lat="44.85005" lon="5.96267">
        <ele>1512.8</ele>
        <time>2015-07-24T12:28:27Z</time>
      </trkpt>
      <trkpt lat="44.85009" lon="5.96264">
        <ele>1513.3</ele>
        <time>2015-07-24T12:28:32Z</time>
      </trkpt>
      <trkpt lat="44.85015" lon="5.96262">
        <ele>1513.4</ele>
        <time>2015-07-24T12:28:37Z</time>
      </trkpt>
      <trkpt lat="44.85021" lon="5.96257">
        <ele>1510.5</ele>
        <time>2015-07-24T12:28:42Z</time>
      </trkpt>
      <trkpt lat="44.85027" lon="5.96255">
        <ele>1509.5</ele>
        <time>2015-07-24T12:28:47Z</time>
      </trkpt>
      <trkpt lat="44.85034" lon="5.9625">
        <ele>1503.4</ele>
        <time>2015-07-24T12:28:52Z</time>
      </trkpt>
      <trkpt lat="44.85038" lon="5.96246">
        <ele>1504.6</ele>
        <time>2015-07-24T12:28:57Z</time>
      </trkpt>
      <trkpt lat="44.85039" lon="5.96248">
        <ele>1506.9</ele>
        <time>2015-07-24T12:29:02Z</time>
      </trkpt>
      <trkpt lat="44.85041" lon="5.96249">
        <ele>1510.5</ele>
        <time>2015-07-24T12:29:07Z</time>
      </trkpt>
      <trkpt lat="44.85043" lon="5.96246">
        <ele>1516.7</ele>
        <time>2015-07-24T12:29:12Z</time>
      </trkpt>
      <trkpt lat="44.85047" lon="5.96248">
        <ele>1521.5</ele>
        <time>2015-07-24T12:29:17Z</time>
      </trkpt>
      <trkpt lat="44.8505" lon="5.96247">
        <ele>1526</ele>
        <time>2015-07-24T12:29:22Z</time>
      </trkpt>
      <trkpt lat="44.85054" lon="5.9625">
        <ele>1530.6</ele>
        <time>2015-07-24T12:29:27Z</time>
      </trkpt>
      <trkpt lat="44.85055" lon="5.96254">
        <ele>1537.1</ele>
        <time>2015-07-24T12:29:32Z</time>
      </trkpt>
      <trkpt lat="44.85053" lon="5.96252">
        <ele>1543</ele>
        <time>2015-07-24T12:29:37Z</time>
      </trkpt>
      <trkpt lat="44.85051" lon="5.9625">
        <ele>1553.3</ele>
        <time>2015-07-24T12:29:42Z</time>
      </trkpt>
      <trkpt lat="44.8505" lon="5.96246">
        <ele>1550.1</ele>
        <time>2015-07-24T12:29:47Z</time>
      </trkpt>
      <trkpt lat="44.85046" lon="5.96242">
        <ele>1543</ele>
        <time>2015-07-24T12:29:52Z</time>
      </trkpt>
      <trkpt lat="44.85048" lon="5.96238">
        <ele>1539.4</ele>
        <time>2015-07-24T12:29:57Z</time>
      </trkpt>
      <trkpt lat="44.85045" lon="5.96244">
        <ele>1547.5</ele>
        <time>2015-07-24T12:30:02Z</time>
      </trkpt>
      <trkpt lat="44.85043" lon="5.96238">
        <ele>1537.3</ele>
        <time>2015-07-24T12:30:07Z</time>
      </trkpt>
      <trkpt lat="44.85046" lon="5.96238">
        <ele>1535.8</ele>
        <time>2015-07-24T12:30:12Z</time>
      </trkpt>
      <trkpt lat="44.85044" lon="5.96228">
        <ele>1522.4</ele>
        <time>2015-07-24T12:30:17Z</time>
      </trkpt>
      <trkpt lat="44.85043" lon="5.9623">
        <ele>1524.6</ele>
        <time>2015-07-24T12:30:22Z</time>
      </trkpt>
      <trkpt lat="44.85045" lon="5.96233">
        <ele>1535.2</ele>
        <time>2015-07-24T12:30:27Z</time>
      </trkpt>
      <trkpt lat="44.85045" lon="5.96236">
        <ele>1540</ele>
        <time>2015-07-24T12:30:32Z</time>
      </trkpt>
      <trkpt lat="44.85048" lon="5.96242">
        <ele>1548</ele>
        <time>2015-07-24T12:30:37Z</time>
      </trkpt>
      <trkpt lat="44.85051" lon="5.96244">
        <ele>1545.2</ele>
        <time>2015-07-24T12:30:42Z</time>
      </trkpt>
      <trkpt lat="44.85049" lon="5.96244">
        <ele>1541.8</ele>
        <time>2015-07-24T12:30:47Z</time>
      </trkpt>
      <trkpt lat="44.85048" lon="5.96245">
        <ele>1539.7</ele>
        <time>2015-07-24T12:30:52Z</time>
      </trkpt>
      <trkpt lat="44.85053" lon="5.96244">
        <ele>1541.3</ele>
        <time>2015-07-24T12:30:57Z</time>
      </trkpt>
      <trkpt lat="44.85053" lon="5.9624">
        <ele>1541</ele>
        <time>2015-07-24T12:31:02Z</time>
      </trkpt>
      <trkpt lat="44.85054" lon="5.96236">
        <ele>1543.3</ele>
        <time>2015-07-24T12:31:07Z</time>
      </trkpt>
      <trkpt lat="44.85053" lon="5.96232">
        <ele>1548.8</ele>
        <time>2015-07-24T12:31:12Z</time>
      </trkpt>
      <trkpt lat="44.85053" lon="5.9623">
        <ele>1557.5</ele>
        <time>2015-07-24T12:31:17Z</time>
      </trkpt>
      <trkpt lat="44.85054" lon="5.96229">
        <ele>1559.1</ele>
        <time>2015-07-24T12:31:22Z</time>
      </trkpt>
      <trkpt lat="44.85056" lon="5.9623">
        <ele>1557.4</ele>
        <time>2015-07-24T12:31:27Z</time>
      </trkpt>
      <trkpt lat="44.85056" lon="5.9623">
        <ele>1550</ele>
        <time>2015-07-24T12:31:32Z</time>
      </trkpt>
      <trkpt lat="44.85056" lon="5.96232">
        <ele>1542.1</ele>
        <time>2015-07-24T12:31:37Z</time>
      </trkpt>
      <trkpt lat="44.85055" lon="5.96232">
        <ele>1544.1</ele>
        <time>2015-07-24T12:31:42Z</time>
      </trkpt>
      <trkpt lat="44.85056" lon="5.96239">
        <ele>1546.8</ele>
        <time>2015-07-24T12:31:47Z</time>
      </trkpt>
      <trkpt lat="44.85056" lon="5.96243">
        <ele>1554.4</ele>
        <time>2015-07-24T12:31:52Z</time>
      </trkpt>
      <trkpt lat="44.85058" lon="5.96242">
        <ele>1548.9</ele>
        <time>2015-07-24T12:31:57Z</time>
      </trkpt>
      <trkpt lat="44.85061" lon="5.96244">
        <ele>1546.3</ele>
        <time>2015-07-24T12:32:02Z</time>
      </trkpt>
      <trkpt lat="44.8506" lon="5.96249">
        <ele>1549.3</ele>
        <time>2015-07-24T12:32:07Z</time>
      </trkpt>
      <trkpt lat="44.85062" lon="5.96249">
        <ele>1541</ele>
        <time>2015-07-24T12:32:12Z</time>
      </trkpt>
      <trkpt lat="44.85066" lon="5.96251">
        <ele>1540</ele>
        <time>2015-07-24T12:32:17Z</time>
      </trkpt>
      <trkpt lat="44.85071" lon="5.9625">
        <ele>1533.4</ele>
        <time>2015-07-24T12:32:22Z</time>
      </trkpt>
      <trkpt lat="44.85076" lon="5.96249">
        <ele>1531.2</ele>
        <time>2015-07-24T12:32:27Z</time>
      </trkpt>
      <trkpt lat="44.8508" lon="5.96249">
        <ele>1530.1</ele>
        <time>2015-07-24T12:32:32Z</time>
      </trkpt>
      <trkpt lat="44.85084" lon="5.96251">
        <ele>1530.4</ele>
        <time>2015-07-24T12:32:37Z</time>
      </trkpt>
      <trkpt lat="44.85088" lon="5.96252">
        <ele>1528.2</ele>
        <time>2015-07-24T12:32:42Z</time>
      </trkpt>
      <trkpt lat="44.85092" lon="5.96253">
        <ele>1526.2</ele>
        <time>2015-07-24T12:32:47Z</time>
      </trkpt>
      <trkpt lat="44.85097" lon="5.96254">
        <ele>1523.5</ele>
        <time>2015-07-24T12:32:52Z</time>
      </trkpt>
      <trkpt lat="44.85101" lon="5.96256">
        <ele>1523.2</ele>
        <time>2015-07-24T12:32:57Z</time>
      </trkpt>
      <trkpt lat="44.85105" lon="5.96258">
        <ele>1526.1</ele>
        <time>2015-07-24T12:33:02Z</time>
      </trkpt>
      <trkpt lat="44.85104" lon="5.96259">
        <ele>1528.1</ele>
        <time>2015-07-24T12:33:07Z</time>
      </trkpt>
      <trkpt lat="44.85105" lon="5.96259">
        <ele>1528.9</ele>
        <time>2015-07-24T12:33:12Z</time>
      </trkpt>
      <trkpt lat="44.85109" lon="5.96258">
        <ele>1529.9</ele>
        <time>2015-07-24T12:33:17Z</time>
      </trkpt>
      <trkpt lat="44.85114" lon="5.96257">
        <ele>1532</ele>
        <time>2015-07-24T12:33:22Z</time>
      </trkpt>
      <trkpt lat="44.85118" lon="5.96257">
        <ele>1534.1</ele>
        <time>2015-07-24T12:33:27Z</time>
      </trkpt>
      <trkpt lat="44.85123" lon="5.96257">
        <ele>1538.3</ele>
        <time>2015-07-24T12:33:32Z</time>
      </trkpt>
      <trkpt lat="44.85127" lon="5.96255">
        <ele>1539.8</ele>
        <time>2015-07-24T12:33:37Z</time>
      </trkpt>
      <trkpt lat="44.85134" lon="5.96253">
        <ele>1534.5</ele>
        <time>2015-07-24T12:33:42Z</time>
      </trkpt>
      <trkpt lat="44.85139" lon="5.96249">
        <ele>1530.5</ele>
        <time>2015-07-24T12:33:47Z</time>
      </trkpt>
      <trkpt lat="44.85143" lon="5.96249">
        <ele>1534.3</ele>
        <time>2015-07-24T12:33:52Z</time>
      </trkpt>
      <trkpt lat="44.85145" lon="5.96249">
        <ele>1540.1</ele>
        <time>2015-07-24T12:33:57Z</time>
      </trkpt>
      <trkpt lat="44.8515" lon="5.96247">
        <ele>1539</ele>
        <time>2015-07-24T12:34:02Z</time>
      </trkpt>
      <trkpt lat="44.85154" lon="5.96243">
        <ele>1540.3</ele>
        <time>2015-07-24T12:34:07Z</time>
      </trkpt>
      <trkpt lat="44.85158" lon="5.9624">
        <ele>1538.9</ele>
        <time>2015-07-24T12:34:12Z</time>
      </trkpt>
      <trkpt lat="44.85163" lon="5.96238">
        <ele>1537.2</ele>
        <time>2015-07-24T12:34:17Z</time>
      </trkpt>
      <trkpt lat="44.85169" lon="5.96236">
        <ele>1534.7</ele>
        <time>2015-07-24T12:34:22Z</time>
      </trkpt>
      <trkpt lat="44.8517" lon="5.96237">
        <ele>1541.8</ele>
        <time>2015-07-24T12:34:27Z</time>
      </trkpt>
      <trkpt lat="44.85172" lon="5.96234">
        <ele>1541.9</ele>
        <time>2015-07-24T12:34:32Z</time>
      </trkpt>
      <trkpt lat="44.85176" lon="5.96232">
        <ele>1545.1</ele>
        <time>2015-07-24T12:34:37Z</time>
      </trkpt>
      <trkpt lat="44.85181" lon="5.9623">
        <ele>1542.6</ele>
        <time>2015-07-24T12:34:42Z</time>
      </trkpt>
      <trkpt lat="44.85186" lon="5.96227">
        <ele>1538.5</ele>
        <time>2015-07-24T12:34:47Z</time>
      </trkpt>
      <trkpt lat="44.8519" lon="5.96229">
        <ele>1536.9</ele>
        <time>2015-07-24T12:34:52Z</time>
      </trkpt>
      <trkpt lat="44.8519" lon="5.96228">
        <ele>1539.1</ele>
        <time>2015-07-24T12:34:57Z</time>
      </trkpt>
      <trkpt lat="44.85188" lon="5.9623">
        <ele>1545.6</ele>
        <time>2015-07-24T12:35:02Z</time>
      </trkpt>
      <trkpt lat="44.8519" lon="5.9623">
        <ele>1546.5</ele>
        <time>2015-07-24T12:35:07Z</time>
      </trkpt>
      <trkpt lat="44.85194" lon="5.96225">
        <ele>1544</ele>
        <time>2015-07-24T12:35:12Z</time>
      </trkpt>
      <trkpt lat="44.85199" lon="5.96221">
        <ele>1541.4</ele>
        <time>2015-07-24T12:35:17Z</time>
      </trkpt>
      <trkpt lat="44.85202" lon="5.96219">
        <ele>1543.5</ele>
        <time>2015-07-24T12:35:22Z</time>
      </trkpt>
      <trkpt lat="44.85207" lon="5.96218">
        <ele>1543.4</ele>
        <time>2015-07-24T12:35:27Z</time>
      </trkpt>
      <trkpt lat="44.85212" lon="5.96219">
        <ele>1544.4</ele>
        <time>2015-07-24T12:35:32Z</time>
      </trkpt>
      <trkpt lat="44.85217" lon="5.96216">
        <ele>1544</ele>
        <time>2015-07-24T12:35:37Z</time>
      </trkpt>
      <trkpt lat="44.85221" lon="5.96208">
        <ele>1540.5</ele>
        <time>2015-07-24T12:35:42Z</time>
      </trkpt>
      <trkpt lat="44.85224" lon="5.96202">
        <ele>1540.9</ele>
        <time>2015-07-24T12:35:47Z</time>
      </trkpt>
      <trkpt lat="44.85226" lon="5.96197">
        <ele>1544.4</ele>
        <time>2015-07-24T12:35:52Z</time>
      </trkpt>
      <trkpt lat="44.85228" lon="5.96191">
        <ele>1545.2</ele>
        <time>2015-07-24T12:35:57Z</time>
      </trkpt>
      <trkpt lat="44.85231" lon="5.96186">
        <ele>1547.5</ele>
        <time>2015-07-24T12:36:02Z</time>
      </trkpt>
      <trkpt lat="44.85235" lon="5.96184">
        <ele>1548.9</ele>
        <time>2015-07-24T12:36:07Z</time>
      </trkpt>
      <trkpt lat="44.85239" lon="5.96182">
        <ele>1549.3</ele>
        <time>2015-07-24T12:36:12Z</time>
      </trkpt>
      <trkpt lat="44.85243" lon="5.96182">
        <ele>1549.9</ele>
        <time>2015-07-24T12:36:17Z</time>
      </trkpt>
      <trkpt lat="44.85248" lon="5.96184">
        <ele>1550.6</ele>
        <time>2015-07-24T12:36:22Z</time>
      </trkpt>
      <trkpt lat="44.85252" lon="5.96184">
        <ele>1551.1</ele>
        <time>2015-07-24T12:36:27Z</time>
      </trkpt>
      <trkpt lat="44.85255" lon="5.96184">
        <ele>1551.5</ele>
        <time>2015-07-24T12:36:32Z</time>
      </trkpt>
      <trkpt lat="44.85259" lon="5.96183">
        <ele>1552.7</ele>
        <time>2015-07-24T12:36:37Z</time>
      </trkpt>
      <trkpt lat="44.85263" lon="5.96182">
        <ele>1554.4</ele>
        <time>2015-07-24T12:36:42Z</time>
      </trkpt>
      <trkpt lat="44.85267" lon="5.9618">
        <ele>1555</ele>
        <time>2015-07-24T12:36:47Z</time>
      </trkpt>
      <trkpt lat="44.85271" lon="5.96179">
        <ele>1554</ele>
        <time>2015-07-24T12:36:52Z</time>
      </trkpt>
      <trkpt lat="44.85273" lon="5.96179">
        <ele>1553.9</ele>
        <time>2015-07-24T12:36:57Z</time>
      </trkpt>
      <trkpt lat="44.85277" lon="5.96178">
        <ele>1555</ele>
        <time>2015-07-24T12:37:02Z</time>
      </trkpt>
      <trkpt lat="44.85283" lon="5.96177">
        <ele>1554.3</ele>
        <time>2015-07-24T12:37:07Z</time>
      </trkpt>
      <trkpt lat="44.85285" lon="5.96175">
        <ele>1554.3</ele>
        <time>2015-07-24T12:37:12Z</time>
      </trkpt>
      <trkpt lat="44.85286" lon="5.96173">
        <ele>1554.5</ele>
        <time>2015-07-24T12:37:17Z</time>
      </trkpt>
      <trkpt lat="44.85286" lon="5.96173">
        <ele>1554.3</ele>
        <time>2015-07-24T12:37:22Z</time>
      </trkpt>
      <trkpt lat="44.85285" lon="5.96172">
        <ele>1554.7</ele>
        <time>2015-07-24T12:37:27Z</time>
      </trkpt>
      <trkpt lat="44.85285" lon="5.96172">
        <ele>1554.7</ele>
        <time>2015-07-24T12:37:32Z</time>
      </trkpt>
      <trkpt lat="44.85285" lon="5.96172">
        <ele>1554.4</ele>
        <time>2015-07-24T12:37:37Z</time>
      </trkpt>
      <trkpt lat="44.85285" lon="5.96171">
        <ele>1553.5</ele>
        <time>2015-07-24T12:37:42Z</time>
      </trkpt>
      <trkpt lat="44.85286" lon="5.96171">
        <ele>1553.3</ele>
        <time>2015-07-24T12:37:47Z</time>
      </trkpt>
      <trkpt lat="44.85287" lon="5.96172">
        <ele>1554.4</ele>
        <time>2015-07-24T12:37:52Z</time>
      </trkpt>
      <trkpt lat="44.85287" lon="5.96172">
        <ele>1555</ele>
        <time>2015-07-24T12:37:57Z</time>
      </trkpt>
      <trkpt lat="44.85287" lon="5.96172">
        <ele>1554.6</ele>
        <time>2015-07-24T12:38:02Z</time>
      </trkpt>
      <trkpt lat="44.85287" lon="5.96171">
        <ele>1553.4</ele>
        <time>2015-07-24T12:38:07Z</time>
      </trkpt>
      <trkpt lat="44.85287" lon="5.96168">
        <ele>1549.8</ele>
        <time>2015-07-24T12:38:12Z</time>
      </trkpt>
      <trkpt lat="44.85288" lon="5.96164">
        <ele>1546</ele>
        <time>2015-07-24T12:38:17Z</time>
      </trkpt>
      <trkpt lat="44.85288" lon="5.96163">
        <ele>1544</ele>
        <time>2015-07-24T12:38:22Z</time>
      </trkpt>
      <trkpt lat="44.85288" lon="5.96163">
        <ele>1543.3</ele>
        <time>2015-07-24T12:38:27Z</time>
      </trkpt>
      <trkpt lat="44.85287" lon="5.96163">
        <ele>1543.2</ele>
        <time>2015-07-24T12:38:32Z</time>
      </trkpt>
      <trkpt lat="44.85287" lon="5.96163">
        <ele>1543.3</ele>
        <time>2015-07-24T12:38:37Z</time>
      </trkpt>
      <trkpt lat="44.85285" lon="5.96163">
        <ele>1543</ele>
        <time>2015-07-24T12:38:42Z</time>
      </trkpt>
      <trkpt lat="44.85285" lon="5.96164">
        <ele>1545.6</ele>
        <time>2015-07-24T12:38:47Z</time>
      </trkpt>
      <trkpt lat="44.85281" lon="5.96162">
        <ele>1541.9</ele>
        <time>2015-07-24T12:38:52Z</time>
      </trkpt>
      <trkpt lat="44.85281" lon="5.96163">
        <ele>1541.7</ele>
        <time>2015-07-24T12:38:57Z</time>
      </trkpt>
      <trkpt lat="44.85281" lon="5.96163">
        <ele>1542.6</ele>
        <time>2015-07-24T12:39:02Z</time>
      </trkpt>
      <trkpt lat="44.85282" lon="5.96164">
        <ele>1546</ele>
        <time>2015-07-24T12:39:07Z</time>
      </trkpt>
      <trkpt lat="44.85286" lon="5.96167">
        <ele>1549.3</ele>
        <time>2015-07-24T12:39:12Z</time>
      </trkpt>
      <trkpt lat="44.85292" lon="5.96167">
        <ele>1549.9</ele>
        <time>2015-07-24T12:39:17Z</time>
      </trkpt>
      <trkpt lat="44.85297" lon="5.96167">
        <ele>1552.3</ele>
        <time>2015-07-24T12:39:22Z</time>
      </trkpt>
      <trkpt lat="44.85302" lon="5.96166">
        <ele>1554.6</ele>
        <time>2015-07-24T12:39:27Z</time>
      </trkpt>
      <trkpt lat="44.85306" lon="5.96165">
        <ele>1557</ele>
        <time>2015-07-24T12:39:32Z</time>
      </trkpt>
      <trkpt lat="44.8531" lon="5.96165">
        <ele>1558.6</ele>
        <time>2015-07-24T12:39:37Z</time>
      </trkpt>
      <trkpt lat="44.85314" lon="5.96163">
        <ele>1559.5</ele>
        <time>2015-07-24T12:39:42Z</time>
      </trkpt>
      <trkpt lat="44.85317" lon="5.96162">
        <ele>1560.3</ele>
        <time>2015-07-24T12:39:47Z</time>
      </trkpt>
      <trkpt lat="44.85321" lon="5.96163">
        <ele>1560.4</ele>
        <time>2015-07-24T12:39:52Z</time>
      </trkpt>
      <trkpt lat="44.85321" lon="5.96162">
        <ele>1560.4</ele>
        <time>2015-07-24T12:39:57Z</time>
      </trkpt>
      <trkpt lat="44.8532" lon="5.96162">
        <ele>1558.9</ele>
        <time>2015-07-24T12:40:02Z</time>
      </trkpt>
      <trkpt lat="44.8532" lon="5.9616">
        <ele>1558.2</ele>
        <time>2015-07-24T12:40:07Z</time>
      </trkpt>
      <trkpt lat="44.8532" lon="5.96159">
        <ele>1558.4</ele>
        <time>2015-07-24T12:40:12Z</time>
      </trkpt>
      <trkpt lat="44.85322" lon="5.96158">
        <ele>1556.9</ele>
        <time>2015-07-24T12:40:17Z</time>
      </trkpt>
      <trkpt lat="44.85321" lon="5.96156">
        <ele>1557.1</ele>
        <time>2015-07-24T12:40:22Z</time>
      </trkpt>
      <trkpt lat="44.8532" lon="5.96151">
        <ele>1555</ele>
        <time>2015-07-24T12:40:27Z</time>
      </trkpt>
      <trkpt lat="44.8532" lon="5.9615">
        <ele>1553.1</ele>
        <time>2015-07-24T12:40:32Z</time>
      </trkpt>
      <trkpt lat="44.8532" lon="5.9615">
        <ele>1548.7</ele>
        <time>2015-07-24T12:40:37Z</time>
      </trkpt>
      <trkpt lat="44.85319" lon="5.96149">
        <ele>1545</ele>
        <time>2015-07-24T12:40:42Z</time>
      </trkpt>
      <trkpt lat="44.85319" lon="5.96149">
        <ele>1550.7</ele>
        <time>2015-07-24T12:40:47Z</time>
      </trkpt>
      <trkpt lat="44.8532" lon="5.96151">
        <ele>1550.7</ele>
        <time>2015-07-24T12:40:52Z</time>
      </trkpt>
      <trkpt lat="44.8532" lon="5.96151">
        <ele>1548.8</ele>
        <time>2015-07-24T12:40:57Z</time>
      </trkpt>
      <trkpt lat="44.85322" lon="5.96151">
        <ele>1551.7</ele>
        <time>2015-07-24T12:41:02Z</time>
      </trkpt>
      <trkpt lat="44.85325" lon="5.96155">
        <ele>1554.9</ele>
        <time>2015-07-24T12:41:07Z</time>
      </trkpt>
      <trkpt lat="44.8533" lon="5.96158">
        <ele>1557.8</ele>
        <time>2015-07-24T12:41:12Z</time>
      </trkpt>
      <trkpt lat="44.85335" lon="5.96158">
        <ele>1558.4</ele>
        <time>2015-07-24T12:41:17Z</time>
      </trkpt>
      <trkpt lat="44.8534" lon="5.9616">
        <ele>1560.5</ele>
        <time>2015-07-24T12:41:22Z</time>
      </trkpt>
      <trkpt lat="44.85345" lon="5.96162">
        <ele>1562.7</ele>
        <time>2015-07-24T12:41:27Z</time>
      </trkpt>
      <trkpt lat="44.8535" lon="5.96166">
        <ele>1565.3</ele>
        <time>2015-07-24T12:41:32Z</time>
      </trkpt>
      <trkpt lat="44.85353" lon="5.96171">
        <ele>1567.4</ele>
        <time>2015-07-24T12:41:37Z</time>
      </trkpt>
      <trkpt lat="44.85357" lon="5.96175">
        <ele>1567.8</ele>
        <time>2015-07-24T12:41:42Z</time>
      </trkpt>
      <trkpt lat="44.8536" lon="5.96179">
        <ele>1569</ele>
        <time>2015-07-24T12:41:47Z</time>
      </trkpt>
      <trkpt lat="44.85364" lon="5.96182">
        <ele>1569.4</ele>
        <time>2015-07-24T12:41:52Z</time>
      </trkpt>
      <trkpt lat="44.85368" lon="5.96185">
        <ele>1569.8</ele>
        <time>2015-07-24T12:41:57Z</time>
      </trkpt>
      <trkpt lat="44.85371" lon="5.96188">
        <ele>1572.9</ele>
        <time>2015-07-24T12:42:02Z</time>
      </trkpt>
      <trkpt lat="44.85375" lon="5.96188">
        <ele>1573.2</ele>
        <time>2015-07-24T12:42:07Z</time>
      </trkpt>
      <trkpt lat="44.85378" lon="5.96189">
        <ele>1573.8</ele>
        <time>2015-07-24T12:42:12Z</time>
      </trkpt>
      <trkpt lat="44.85378" lon="5.96189">
        <ele>1575</ele>
        <time>2015-07-24T12:42:17Z</time>
      </trkpt>
      <trkpt lat="44.85382" lon="5.96192">
        <ele>1576.2</ele>
        <time>2015-07-24T12:42:22Z</time>
      </trkpt>
      <trkpt lat="44.85386" lon="5.96193">
        <ele>1576.7</ele>
        <time>2015-07-24T12:42:27Z</time>
      </trkpt>
      <trkpt lat="44.85391" lon="5.96194">
        <ele>1576.4</ele>
        <time>2015-07-24T12:42:32Z</time>
      </trkpt>
      <trkpt lat="44.85395" lon="5.96196">
        <ele>1576.5</ele>
        <time>2015-07-24T12:42:37Z</time>
      </trkpt>
      <trkpt lat="44.854" lon="5.96198">
        <ele>1576.3</ele>
        <time>2015-07-24T12:42:42Z</time>
      </trkpt>
      <trkpt lat="44.85405" lon="5.96199">
        <ele>1575.6</ele>
        <time>2015-07-24T12:42:47Z</time>
      </trkpt>
      <trkpt lat="44.85407" lon="5.96201">
        <ele>1575.2</ele>
        <time>2015-07-24T12:42:52Z</time>
      </trkpt>
      <trkpt lat="44.8541" lon="5.96206">
        <ele>1578.8</ele>
        <time>2015-07-24T12:42:57Z</time>
      </trkpt>
      <trkpt lat="44.85414" lon="5.96209">
        <ele>1579.8</ele>
        <time>2015-07-24T12:43:02Z</time>
      </trkpt>
      <trkpt lat="44.85418" lon="5.96211">
        <ele>1580.2</ele>
        <time>2015-07-24T12:43:07Z</time>
      </trkpt>
      <trkpt lat="44.85421" lon="5.96212">
        <ele>1580.6</ele>
        <time>2015-07-24T12:43:12Z</time>
      </trkpt>
      <trkpt lat="44.8542" lon="5.96212">
        <ele>1579.4</ele>
        <time>2015-07-24T12:43:17Z</time>
      </trkpt>
      <trkpt lat="44.85424" lon="5.96212">
        <ele>1578.8</ele>
        <time>2015-07-24T12:43:22Z</time>
      </trkpt>
      <trkpt lat="44.85429" lon="5.96216">
        <ele>1578.7</ele>
        <time>2015-07-24T12:43:27Z</time>
      </trkpt>
      <trkpt lat="44.85429" lon="5.96215">
        <ele>1577.5</ele>
        <time>2015-07-24T12:43:32Z</time>
      </trkpt>
      <trkpt lat="44.85432" lon="5.96216">
        <ele>1578.4</ele>
        <time>2015-07-24T12:43:37Z</time>
      </trkpt>
      <trkpt lat="44.85437" lon="5.96216">
        <ele>1579.4</ele>
        <time>2015-07-24T12:43:42Z</time>
      </trkpt>
      <trkpt lat="44.85442" lon="5.96216">
        <ele>1579.7</ele>
        <time>2015-07-24T12:43:47Z</time>
      </trkpt>
      <trkpt lat="44.85447" lon="5.96216">
        <ele>1579.5</ele>
        <time>2015-07-24T12:43:52Z</time>
      </trkpt>
      <trkpt lat="44.85453" lon="5.96216">
        <ele>1577.4</ele>
        <time>2015-07-24T12:43:57Z</time>
      </trkpt>
      <trkpt lat="44.85457" lon="5.96217">
        <ele>1578.6</ele>
        <time>2015-07-24T12:44:02Z</time>
      </trkpt>
      <trkpt lat="44.8546" lon="5.96216">
        <ele>1578.6</ele>
        <time>2015-07-24T12:44:07Z</time>
      </trkpt>
      <trkpt lat="44.8546" lon="5.96216">
        <ele>1578.9</ele>
        <time>2015-07-24T12:44:12Z</time>
      </trkpt>
      <trkpt lat="44.8546" lon="5.96213">
        <ele>1576.2</ele>
        <time>2015-07-24T12:44:17Z</time>
      </trkpt>
      <trkpt lat="44.85461" lon="5.96212">
        <ele>1574.6</ele>
        <time>2015-07-24T12:44:22Z</time>
      </trkpt>
      <trkpt lat="44.85462" lon="5.96212">
        <ele>1574.2</ele>
        <time>2015-07-24T12:44:27Z</time>
      </trkpt>
      <trkpt lat="44.85466" lon="5.9621">
        <ele>1573.4</ele>
        <time>2015-07-24T12:44:32Z</time>
      </trkpt>
      <trkpt lat="44.85473" lon="5.96209">
        <ele>1573.4</ele>
        <time>2015-07-24T12:44:37Z</time>
      </trkpt>
      <trkpt lat="44.85477" lon="5.96208">
        <ele>1575.9</ele>
        <time>2015-07-24T12:44:42Z</time>
      </trkpt>
      <trkpt lat="44.85482" lon="5.96207">
        <ele>1578.7</ele>
        <time>2015-07-24T12:44:47Z</time>
      </trkpt>
      <trkpt lat="44.85486" lon="5.96204">
        <ele>1580.6</ele>
        <time>2015-07-24T12:44:52Z</time>
      </trkpt>
      <trkpt lat="44.85489" lon="5.962">
        <ele>1581.8</ele>
        <time>2015-07-24T12:44:57Z</time>
      </trkpt>
      <trkpt lat="44.85492" lon="5.96197">
        <ele>1585.7</ele>
        <time>2015-07-24T12:45:02Z</time>
      </trkpt>
      <trkpt lat="44.85496" lon="5.96194">
        <ele>1589.2</ele>
        <time>2015-07-24T12:45:07Z</time>
      </trkpt>
      <trkpt lat="44.85499" lon="5.96191">
        <ele>1592.1</ele>
        <time>2015-07-24T12:45:12Z</time>
      </trkpt>
      <trkpt lat="44.85503" lon="5.96188">
        <ele>1593.2</ele>
        <time>2015-07-24T12:45:17Z</time>
      </trkpt>
      <trkpt lat="44.85508" lon="5.96187">
        <ele>1594.1</ele>
        <time>2015-07-24T12:45:22Z</time>
      </trkpt>
      <trkpt lat="44.85511" lon="5.96187">
        <ele>1594.7</ele>
        <time>2015-07-24T12:45:27Z</time>
      </trkpt>
      <trkpt lat="44.85511" lon="5.96187">
        <ele>1594.9</ele>
        <time>2015-07-24T12:45:32Z</time>
      </trkpt>
      <trkpt lat="44.85513" lon="5.96187">
        <ele>1594.4</ele>
        <time>2015-07-24T12:45:37Z</time>
      </trkpt>
      <trkpt lat="44.85518" lon="5.96187">
        <ele>1594.9</ele>
        <time>2015-07-24T12:45:42Z</time>
      </trkpt>
      <trkpt lat="44.85518" lon="5.96186">
        <ele>1595</ele>
        <time>2015-07-24T12:45:47Z</time>
      </trkpt>
      <trkpt lat="44.85519" lon="5.96186">
        <ele>1595.8</ele>
        <time>2015-07-24T12:45:52Z</time>
      </trkpt>
      <trkpt lat="44.85522" lon="5.96186">
        <ele>1596.7</ele>
        <time>2015-07-24T12:45:57Z</time>
      </trkpt>
      <trkpt lat="44.85526" lon="5.96187">
        <ele>1597.2</ele>
        <time>2015-07-24T12:46:02Z</time>
      </trkpt>
      <trkpt lat="44.85531" lon="5.96188">
        <ele>1598.4</ele>
        <time>2015-07-24T12:46:07Z</time>
      </trkpt>
      <trkpt lat="44.85536" lon="5.96191">
        <ele>1598.8</ele>
        <time>2015-07-24T12:46:12Z</time>
      </trkpt>
      <trkpt lat="44.85541" lon="5.96193">
        <ele>1599.6</ele>
        <time>2015-07-24T12:46:17Z</time>
      </trkpt>
      <trkpt lat="44.85545" lon="5.96195">
        <ele>1601.2</ele>
        <time>2015-07-24T12:46:22Z</time>
      </trkpt>
      <trkpt lat="44.8555" lon="5.96195">
        <ele>1602.4</ele>
        <time>2015-07-24T12:46:27Z</time>
      </trkpt>
      <trkpt lat="44.85555" lon="5.96196">
        <ele>1602.4</ele>
        <time>2015-07-24T12:46:32Z</time>
      </trkpt>
      <trkpt lat="44.85559" lon="5.96195">
        <ele>1603.3</ele>
        <time>2015-07-24T12:46:37Z</time>
      </trkpt>
      <trkpt lat="44.85563" lon="5.96193">
        <ele>1604.4</ele>
        <time>2015-07-24T12:46:42Z</time>
      </trkpt>
      <trkpt lat="44.85566" lon="5.96189">
        <ele>1604.3</ele>
        <time>2015-07-24T12:46:47Z</time>
      </trkpt>
      <trkpt lat="44.85566" lon="5.96189">
        <ele>1604.8</ele>
        <time>2015-07-24T12:46:52Z</time>
      </trkpt>
      <trkpt lat="44.85568" lon="5.9619">
        <ele>1604.9</ele>
        <time>2015-07-24T12:46:57Z</time>
      </trkpt>
      <trkpt lat="44.85572" lon="5.96185">
        <ele>1605.5</ele>
        <time>2015-07-24T12:47:02Z</time>
      </trkpt>
      <trkpt lat="44.85576" lon="5.96179">
        <ele>1606.7</ele>
        <time>2015-07-24T12:47:07Z</time>
      </trkpt>
      <trkpt lat="44.85577" lon="5.96172">
        <ele>1606.7</ele>
        <time>2015-07-24T12:47:12Z</time>
      </trkpt>
      <trkpt lat="44.85582" lon="5.96167">
        <ele>1607.9</ele>
        <time>2015-07-24T12:47:17Z</time>
      </trkpt>
      <trkpt lat="44.85586" lon="5.96163">
        <ele>1608.6</ele>
        <time>2015-07-24T12:47:22Z</time>
      </trkpt>
      <trkpt lat="44.8559" lon="5.96159">
        <ele>1609.6</ele>
        <time>2015-07-24T12:47:27Z</time>
      </trkpt>
      <trkpt lat="44.85593" lon="5.96157">
        <ele>1610.3</ele>
        <time>2015-07-24T12:47:32Z</time>
      </trkpt>
      <trkpt lat="44.85593" lon="5.96156">
        <ele>1610.3</ele>
        <time>2015-07-24T12:47:37Z</time>
      </trkpt>
      <trkpt lat="44.85593" lon="5.96155">
        <ele>1609.6</ele>
        <time>2015-07-24T12:47:42Z</time>
      </trkpt>
      <trkpt lat="44.85593" lon="5.96155">
        <ele>1608.4</ele>
        <time>2015-07-24T12:47:47Z</time>
      </trkpt>
      <trkpt lat="44.85593" lon="5.96154">
        <ele>1607.6</ele>
        <time>2015-07-24T12:47:52Z</time>
      </trkpt>
      <trkpt lat="44.85593" lon="5.96153">
        <ele>1607</ele>
        <time>2015-07-24T12:47:57Z</time>
      </trkpt>
      <trkpt lat="44.85593" lon="5.96154">
        <ele>1606.3</ele>
        <time>2015-07-24T12:48:02Z</time>
      </trkpt>
      <trkpt lat="44.85596" lon="5.96153">
        <ele>1608.3</ele>
        <time>2015-07-24T12:48:07Z</time>
      </trkpt>
      <trkpt lat="44.85601" lon="5.96151">
        <ele>1610.1</ele>
        <time>2015-07-24T12:48:12Z</time>
      </trkpt>
      <trkpt lat="44.85606" lon="5.96148">
        <ele>1611.2</ele>
        <time>2015-07-24T12:48:17Z</time>
      </trkpt>
      <trkpt lat="44.8561" lon="5.96144">
        <ele>1612</ele>
        <time>2015-07-24T12:48:22Z</time>
      </trkpt>
      <trkpt lat="44.85614" lon="5.96142">
        <ele>1612.7</ele>
        <time>2015-07-24T12:48:27Z</time>
      </trkpt>
      <trkpt lat="44.85613" lon="5.96142">
        <ele>1613.2</ele>
        <time>2015-07-24T12:48:32Z</time>
      </trkpt>
      <trkpt lat="44.85613" lon="5.96142">
        <ele>1611.8</ele>
        <time>2015-07-24T12:48:37Z</time>
      </trkpt>
      <trkpt lat="44.85616" lon="5.96142">
        <ele>1611.8</ele>
        <time>2015-07-24T12:48:42Z</time>
      </trkpt>
      <trkpt lat="44.8562" lon="5.96137">
        <ele>1612</ele>
        <time>2015-07-24T12:48:47Z</time>
      </trkpt>
      <trkpt lat="44.85624" lon="5.96134">
        <ele>1612.2</ele>
        <time>2015-07-24T12:48:52Z</time>
      </trkpt>
      <trkpt lat="44.85628" lon="5.96131">
        <ele>1612.6</ele>
        <time>2015-07-24T12:48:57Z</time>
      </trkpt>
      <trkpt lat="44.85633" lon="5.96128">
        <ele>1613.3</ele>
        <time>2015-07-24T12:49:02Z</time>
      </trkpt>
      <trkpt lat="44.85633" lon="5.96128">
        <ele>1613.5</ele>
        <time>2015-07-24T12:49:07Z</time>
      </trkpt>
      <trkpt lat="44.85638" lon="5.96125">
        <ele>1614.2</ele>
        <time>2015-07-24T12:49:12Z</time>
      </trkpt>
      <trkpt lat="44.85643" lon="5.96122">
        <ele>1615.3</ele>
        <time>2015-07-24T12:49:17Z</time>
      </trkpt>
      <trkpt lat="44.85648" lon="5.9612">
        <ele>1615.8</ele>
        <time>2015-07-24T12:49:22Z</time>
      </trkpt>
      <trkpt lat="44.85653" lon="5.96119">
        <ele>1616.4</ele>
        <time>2015-07-24T12:49:27Z</time>
      </trkpt>
      <trkpt lat="44.85659" lon="5.96117">
        <ele>1617</ele>
        <time>2015-07-24T12:49:32Z</time>
      </trkpt>
      <trkpt lat="44.85664" lon="5.96116">
        <ele>1617.5</ele>
        <time>2015-07-24T12:49:37Z</time>
      </trkpt>
      <trkpt lat="44.85667" lon="5.96116">
        <ele>1618.3</ele>
        <time>2015-07-24T12:49:42Z</time>
      </trkpt>
      <trkpt lat="44.85668" lon="5.96115">
        <ele>1618</ele>
        <time>2015-07-24T12:49:47Z</time>
      </trkpt>
      <trkpt lat="44.85672" lon="5.96114">
        <ele>1619.2</ele>
        <time>2015-07-24T12:49:52Z</time>
      </trkpt>
      <trkpt lat="44.85677" lon="5.96113">
        <ele>1619.9</ele>
        <time>2015-07-24T12:49:57Z</time>
      </trkpt>
      <trkpt lat="44.85682" lon="5.96111">
        <ele>1620.6</ele>
        <time>2015-07-24T12:50:02Z</time>
      </trkpt>
      <trkpt lat="44.85687" lon="5.96109">
        <ele>1621.3</ele>
        <time>2015-07-24T12:50:07Z</time>
      </trkpt>
      <trkpt lat="44.85692" lon="5.96107">
        <ele>1622</ele>
        <time>2015-07-24T12:50:12Z</time>
      </trkpt>
      <trkpt lat="44.85693" lon="5.96105">
        <ele>1622.5</ele>
        <time>2015-07-24T12:50:17Z</time>
      </trkpt>
      <trkpt lat="44.85695" lon="5.96105">
        <ele>1622.3</ele>
        <time>2015-07-24T12:50:22Z</time>
      </trkpt>
      <trkpt lat="44.85698" lon="5.96102">
        <ele>1623.1</ele>
        <time>2015-07-24T12:50:27Z</time>
      </trkpt>
      <trkpt lat="44.85702" lon="5.96099">
        <ele>1624.1</ele>
        <time>2015-07-24T12:50:32Z</time>
      </trkpt>
      <trkpt lat="44.85707" lon="5.96096">
        <ele>1625</ele>
        <time>2015-07-24T12:50:37Z</time>
      </trkpt>
      <trkpt lat="44.85712" lon="5.96092">
        <ele>1626.1</ele>
        <time>2015-07-24T12:50:42Z</time>
      </trkpt>
      <trkpt lat="44.85716" lon="5.96088">
        <ele>1626.8</ele>
        <time>2015-07-24T12:50:47Z</time>
      </trkpt>
      <trkpt lat="44.85721" lon="5.96086">
        <ele>1627.3</ele>
        <time>2015-07-24T12:50:52Z</time>
      </trkpt>
      <trkpt lat="44.85727" lon="5.96088">
        <ele>1627.7</ele>
        <time>2015-07-24T12:50:57Z</time>
      </trkpt>
      <trkpt lat="44.8573" lon="5.96093">
        <ele>1627.5</ele>
        <time>2015-07-24T12:51:02Z</time>
      </trkpt>
      <trkpt lat="44.8573" lon="5.96095">
        <ele>1626.8</ele>
        <time>2015-07-24T12:51:07Z</time>
      </trkpt>
      <trkpt lat="44.8573" lon="5.96095">
        <ele>1626</ele>
        <time>2015-07-24T12:51:12Z</time>
      </trkpt>
      <trkpt lat="44.85729" lon="5.96094">
        <ele>1624.7</ele>
        <time>2015-07-24T12:51:17Z</time>
      </trkpt>
      <trkpt lat="44.85729" lon="5.96094">
        <ele>1623</ele>
        <time>2015-07-24T12:51:22Z</time>
      </trkpt>
      <trkpt lat="44.85728" lon="5.96095">
        <ele>1622.6</ele>
        <time>2015-07-24T12:51:27Z</time>
      </trkpt>
      <trkpt lat="44.85729" lon="5.96099">
        <ele>1622.9</ele>
        <time>2015-07-24T12:51:32Z</time>
      </trkpt>
      <trkpt lat="44.85729" lon="5.96105">
        <ele>1623.2</ele>
        <time>2015-07-24T12:51:37Z</time>
      </trkpt>
      <trkpt lat="44.85727" lon="5.96112">
        <ele>1623.5</ele>
        <time>2015-07-24T12:51:42Z</time>
      </trkpt>
      <trkpt lat="44.85727" lon="5.96116">
        <ele>1624</ele>
        <time>2015-07-24T12:51:47Z</time>
      </trkpt>
      <trkpt lat="44.85727" lon="5.96124">
        <ele>1624.5</ele>
        <time>2015-07-24T12:51:52Z</time>
      </trkpt>
      <trkpt lat="44.85727" lon="5.96131">
        <ele>1624.8</ele>
        <time>2015-07-24T12:51:57Z</time>
      </trkpt>
      <trkpt lat="44.85731" lon="5.96134">
        <ele>1626.2</ele>
        <time>2015-07-24T12:52:02Z</time>
      </trkpt>
      <trkpt lat="44.85734" lon="5.96132">
        <ele>1626.3</ele>
        <time>2015-07-24T12:52:07Z</time>
      </trkpt>
      <trkpt lat="44.85733" lon="5.96132">
        <ele>1626.3</ele>
        <time>2015-07-24T12:52:12Z</time>
      </trkpt>
      <trkpt lat="44.85733" lon="5.96131">
        <ele>1625</ele>
        <time>2015-07-24T12:52:17Z</time>
      </trkpt>
      <trkpt lat="44.85734" lon="5.96131">
        <ele>1624.7</ele>
        <time>2015-07-24T12:52:22Z</time>
      </trkpt>
      <trkpt lat="44.85734" lon="5.96131">
        <ele>1624.9</ele>
        <time>2015-07-24T12:52:27Z</time>
      </trkpt>
      <trkpt lat="44.85734" lon="5.96131">
        <ele>1625.1</ele>
        <time>2015-07-24T12:52:32Z</time>
      </trkpt>
      <trkpt lat="44.85733" lon="5.96131">
        <ele>1625.7</ele>
        <time>2015-07-24T12:52:37Z</time>
      </trkpt>
      <trkpt lat="44.8573" lon="5.96131">
        <ele>1624.4</ele>
        <time>2015-07-24T12:52:42Z</time>
      </trkpt>
      <trkpt lat="44.85725" lon="5.96135">
        <ele>1623.7</ele>
        <time>2015-07-24T12:52:47Z</time>
      </trkpt>
      <trkpt lat="44.85722" lon="5.96141">
        <ele>1622.3</ele>
        <time>2015-07-24T12:52:52Z</time>
      </trkpt>
      <trkpt lat="44.8572" lon="5.96147">
        <ele>1622.6</ele>
        <time>2015-07-24T12:52:57Z</time>
      </trkpt>
      <trkpt lat="44.85717" lon="5.96153">
        <ele>1623.1</ele>
        <time>2015-07-24T12:53:02Z</time>
      </trkpt>
      <trkpt lat="44.85715" lon="5.96159">
        <ele>1623.5</ele>
        <time>2015-07-24T12:53:07Z</time>
      </trkpt>
      <trkpt lat="44.85712" lon="5.96164">
        <ele>1624.5</ele>
        <time>2015-07-24T12:53:12Z</time>
      </trkpt>
      <trkpt lat="44.85708" lon="5.9617">
        <ele>1625.8</ele>
        <time>2015-07-24T12:53:17Z</time>
      </trkpt>
      <trkpt lat="44.85705" lon="5.96176">
        <ele>1626.4</ele>
        <time>2015-07-24T12:53:22Z</time>
      </trkpt>
      <trkpt lat="44.85703" lon="5.96182">
        <ele>1626.9</ele>
        <time>2015-07-24T12:53:27Z</time>
      </trkpt>
      <trkpt lat="44.85701" lon="5.96188">
        <ele>1627.6</ele>
        <time>2015-07-24T12:53:32Z</time>
      </trkpt>
      <trkpt lat="44.85699" lon="5.9619">
        <ele>1628.6</ele>
        <time>2015-07-24T12:53:37Z</time>
      </trkpt>
      <trkpt lat="44.857" lon="5.9619">
        <ele>1628.6</ele>
        <time>2015-07-24T12:53:42Z</time>
      </trkpt>
      <trkpt lat="44.85699" lon="5.96191">
        <ele>1631</ele>
        <time>2015-07-24T12:53:47Z</time>
      </trkpt>
      <trkpt lat="44.85699" lon="5.96193">
        <ele>1631.6</ele>
        <time>2015-07-24T12:53:52Z</time>
      </trkpt>
      <trkpt lat="44.85697" lon="5.96198">
        <ele>1631.8</ele>
        <time>2015-07-24T12:53:57Z</time>
      </trkpt>
      <trkpt lat="44.85695" lon="5.96205">
        <ele>1632.1</ele>
        <time>2015-07-24T12:54:02Z</time>
      </trkpt>
      <trkpt lat="44.85693" lon="5.96212">
        <ele>1632.7</ele>
        <time>2015-07-24T12:54:07Z</time>
      </trkpt>
      <trkpt lat="44.85692" lon="5.96219">
        <ele>1633.4</ele>
        <time>2015-07-24T12:54:12Z</time>
      </trkpt>
      <trkpt lat="44.85692" lon="5.9622">
        <ele>1633</ele>
        <time>2015-07-24T12:54:17Z</time>
      </trkpt>
      <trkpt lat="44.85691" lon="5.96225">
        <ele>1633</ele>
        <time>2015-07-24T12:54:22Z</time>
      </trkpt>
      <trkpt lat="44.85689" lon="5.96232">
        <ele>1633.4</ele>
        <time>2015-07-24T12:54:27Z</time>
      </trkpt>
      <trkpt lat="44.85686" lon="5.96238">
        <ele>1634.4</ele>
        <time>2015-07-24T12:54:32Z</time>
      </trkpt>
      <trkpt lat="44.85685" lon="5.96244">
        <ele>1635</ele>
        <time>2015-07-24T12:54:37Z</time>
      </trkpt>
      <trkpt lat="44.85684" lon="5.96246">
        <ele>1635.5</ele>
        <time>2015-07-24T12:54:42Z</time>
      </trkpt>
      <trkpt lat="44.85682" lon="5.96249">
        <ele>1635.7</ele>
        <time>2015-07-24T12:54:47Z</time>
      </trkpt>
      <trkpt lat="44.85681" lon="5.96256">
        <ele>1636.5</ele>
        <time>2015-07-24T12:54:52Z</time>
      </trkpt>
      <trkpt lat="44.85679" lon="5.96263">
        <ele>1637.1</ele>
        <time>2015-07-24T12:54:57Z</time>
      </trkpt>
      <trkpt lat="44.85677" lon="5.9627">
        <ele>1638.1</ele>
        <time>2015-07-24T12:55:02Z</time>
      </trkpt>
      <trkpt lat="44.85675" lon="5.96277">
        <ele>1638.8</ele>
        <time>2015-07-24T12:55:07Z</time>
      </trkpt>
      <trkpt lat="44.85673" lon="5.96284">
        <ele>1639.3</ele>
        <time>2015-07-24T12:55:12Z</time>
      </trkpt>
      <trkpt lat="44.85672" lon="5.9629">
        <ele>1639.2</ele>
        <time>2015-07-24T12:55:17Z</time>
      </trkpt>
      <trkpt lat="44.85671" lon="5.96296">
        <ele>1639.2</ele>
        <time>2015-07-24T12:55:22Z</time>
      </trkpt>
      <trkpt lat="44.8567" lon="5.96302">
        <ele>1639.4</ele>
        <time>2015-07-24T12:55:27Z</time>
      </trkpt>
      <trkpt lat="44.85669" lon="5.96308">
        <ele>1639.8</ele>
        <time>2015-07-24T12:55:32Z</time>
      </trkpt>
      <trkpt lat="44.85669" lon="5.96314">
        <ele>1640.1</ele>
        <time>2015-07-24T12:55:37Z</time>
      </trkpt>
      <trkpt lat="44.85669" lon="5.96319">
        <ele>1641.1</ele>
        <time>2015-07-24T12:55:42Z</time>
      </trkpt>
      <trkpt lat="44.85669" lon="5.96318">
        <ele>1641.2</ele>
        <time>2015-07-24T12:55:47Z</time>
      </trkpt>
      <trkpt lat="44.85668" lon="5.96324">
        <ele>1642.2</ele>
        <time>2015-07-24T12:55:52Z</time>
      </trkpt>
      <trkpt lat="44.85669" lon="5.96331">
        <ele>1642.3</ele>
        <time>2015-07-24T12:55:57Z</time>
      </trkpt>
      <trkpt lat="44.85668" lon="5.96338">
        <ele>1642.7</ele>
        <time>2015-07-24T12:56:02Z</time>
      </trkpt>
      <trkpt lat="44.85668" lon="5.96345">
        <ele>1643.4</ele>
        <time>2015-07-24T12:56:07Z</time>
      </trkpt>
      <trkpt lat="44.85667" lon="5.96351">
        <ele>1643.7</ele>
        <time>2015-07-24T12:56:12Z</time>
      </trkpt>
      <trkpt lat="44.85667" lon="5.96358">
        <ele>1644</ele>
        <time>2015-07-24T12:56:17Z</time>
      </trkpt>
      <trkpt lat="44.85666" lon="5.96364">
        <ele>1644.2</ele>
        <time>2015-07-24T12:56:22Z</time>
      </trkpt>
      <trkpt lat="44.85666" lon="5.96367">
        <ele>1644.4</ele>
        <time>2015-07-24T12:56:27Z</time>
      </trkpt>
      <trkpt lat="44.85665" lon="5.96367">
        <ele>1644.6</ele>
        <time>2015-07-24T12:56:32Z</time>
      </trkpt>
      <trkpt lat="44.85665" lon="5.96366">
        <ele>1645.1</ele>
        <time>2015-07-24T12:56:37Z</time>
      </trkpt>
      <trkpt lat="44.85665" lon="5.96366">
        <ele>1645.2</ele>
        <time>2015-07-24T12:56:42Z</time>
      </trkpt>
      <trkpt lat="44.85665" lon="5.96371">
        <ele>1645.9</ele>
        <time>2015-07-24T12:56:47Z</time>
      </trkpt>
      <trkpt lat="44.85664" lon="5.96377">
        <ele>1646.7</ele>
        <time>2015-07-24T12:56:52Z</time>
      </trkpt>
      <trkpt lat="44.85662" lon="5.96384">
        <ele>1647.9</ele>
        <time>2015-07-24T12:56:57Z</time>
      </trkpt>
      <trkpt lat="44.85659" lon="5.9639">
        <ele>1648.4</ele>
        <time>2015-07-24T12:57:02Z</time>
      </trkpt>
      <trkpt lat="44.85658" lon="5.96397">
        <ele>1649.1</ele>
        <time>2015-07-24T12:57:07Z</time>
      </trkpt>
      <trkpt lat="44.85656" lon="5.96404">
        <ele>1649.3</ele>
        <time>2015-07-24T12:57:12Z</time>
      </trkpt>
      <trkpt lat="44.85654" lon="5.96411">
        <ele>1649.7</ele>
        <time>2015-07-24T12:57:17Z</time>
      </trkpt>
      <trkpt lat="44.85652" lon="5.96418">
        <ele>1650.2</ele>
        <time>2015-07-24T12:57:22Z</time>
      </trkpt>
      <trkpt lat="44.85648" lon="5.96424">
        <ele>1651.5</ele>
        <time>2015-07-24T12:57:27Z</time>
      </trkpt>
      <trkpt lat="44.85645" lon="5.96429">
        <ele>1652.1</ele>
        <time>2015-07-24T12:57:32Z</time>
      </trkpt>
      <trkpt lat="44.85643" lon="5.96431">
        <ele>1652.3</ele>
        <time>2015-07-24T12:57:37Z</time>
      </trkpt>
      <trkpt lat="44.8564" lon="5.96435">
        <ele>1653.3</ele>
        <time>2015-07-24T12:57:42Z</time>
      </trkpt>
      <trkpt lat="44.85637" lon="5.96441">
        <ele>1654.2</ele>
        <time>2015-07-24T12:57:47Z</time>
      </trkpt>
      <trkpt lat="44.85633" lon="5.96447">
        <ele>1654.6</ele>
        <time>2015-07-24T12:57:52Z</time>
      </trkpt>
      <trkpt lat="44.85631" lon="5.96452">
        <ele>1655.4</ele>
        <time>2015-07-24T12:57:57Z</time>
      </trkpt>
      <trkpt lat="44.85628" lon="5.96458">
        <ele>1655.9</ele>
        <time>2015-07-24T12:58:02Z</time>
      </trkpt>
      <trkpt lat="44.85625" lon="5.96463">
        <ele>1655.9</ele>
        <time>2015-07-24T12:58:07Z</time>
      </trkpt>
      <trkpt lat="44.8562" lon="5.96468">
        <ele>1656.8</ele>
        <time>2015-07-24T12:58:12Z</time>
      </trkpt>
      <trkpt lat="44.85617" lon="5.96473">
        <ele>1657.9</ele>
        <time>2015-07-24T12:58:17Z</time>
      </trkpt>
      <trkpt lat="44.85613" lon="5.96477">
        <ele>1658.3</ele>
        <time>2015-07-24T12:58:22Z</time>
      </trkpt>
      <trkpt lat="44.8561" lon="5.96482">
        <ele>1659.2</ele>
        <time>2015-07-24T12:58:27Z</time>
      </trkpt>
      <trkpt lat="44.85606" lon="5.96487">
        <ele>1660.6</ele>
        <time>2015-07-24T12:58:32Z</time>
      </trkpt>
      <trkpt lat="44.85603" lon="5.96492">
        <ele>1661.6</ele>
        <time>2015-07-24T12:58:37Z</time>
      </trkpt>
      <trkpt lat="44.856" lon="5.96497">
        <ele>1662.5</ele>
        <time>2015-07-24T12:58:42Z</time>
      </trkpt>
      <trkpt lat="44.85597" lon="5.96503">
        <ele>1664</ele>
        <time>2015-07-24T12:58:47Z</time>
      </trkpt>
      <trkpt lat="44.85595" lon="5.96509">
        <ele>1665.7</ele>
        <time>2015-07-24T12:58:52Z</time>
      </trkpt>
      <trkpt lat="44.85591" lon="5.96513">
        <ele>1667.7</ele>
        <time>2015-07-24T12:58:57Z</time>
      </trkpt>
      <trkpt lat="44.85589" lon="5.96519">
        <ele>1669.1</ele>
        <time>2015-07-24T12:59:02Z</time>
      </trkpt>
      <trkpt lat="44.85589" lon="5.96522">
        <ele>1669.5</ele>
        <time>2015-07-24T12:59:07Z</time>
      </trkpt>
      <trkpt lat="44.85589" lon="5.96522">
        <ele>1669.6</ele>
        <time>2015-07-24T12:59:12Z</time>
      </trkpt>
      <trkpt lat="44.85589" lon="5.96525">
        <ele>1669.3</ele>
        <time>2015-07-24T12:59:17Z</time>
      </trkpt>
      <trkpt lat="44.85589" lon="5.96531">
        <ele>1669.2</ele>
        <time>2015-07-24T12:59:22Z</time>
      </trkpt>
      <trkpt lat="44.85589" lon="5.96537">
        <ele>1668.9</ele>
        <time>2015-07-24T12:59:27Z</time>
      </trkpt>
      <trkpt lat="44.8559" lon="5.96543">
        <ele>1669.6</ele>
        <time>2015-07-24T12:59:32Z</time>
      </trkpt>
      <trkpt lat="44.8559" lon="5.9654">
        <ele>1668.6</ele>
        <time>2015-07-24T12:59:37Z</time>
      </trkpt>
      <trkpt lat="44.85591" lon="5.96539">
        <ele>1667.1</ele>
        <time>2015-07-24T12:59:42Z</time>
      </trkpt>
      <trkpt lat="44.85591" lon="5.96538">
        <ele>1665.3</ele>
        <time>2015-07-24T12:59:47Z</time>
      </trkpt>
      <trkpt lat="44.85591" lon="5.96542">
        <ele>1664.6</ele>
        <time>2015-07-24T12:59:52Z</time>
      </trkpt>
      <trkpt lat="44.8559" lon="5.96544">
        <ele>1664.9</ele>
        <time>2015-07-24T12:59:57Z</time>
      </trkpt>
      <trkpt lat="44.8559" lon="5.96544">
        <ele>1664.4</ele>
        <time>2015-07-24T13:00:02Z</time>
      </trkpt>
      <trkpt lat="44.8559" lon="5.96545">
        <ele>1667</ele>
        <time>2015-07-24T13:00:07Z</time>
      </trkpt>
      <trkpt lat="44.85589" lon="5.96546">
        <ele>1668.1</ele>
        <time>2015-07-24T13:00:12Z</time>
      </trkpt>
      <trkpt lat="44.85588" lon="5.96545">
        <ele>1669</ele>
        <time>2015-07-24T13:00:17Z</time>
      </trkpt>
      <trkpt lat="44.85589" lon="5.96547">
        <ele>1670.3</ele>
        <time>2015-07-24T13:00:22Z</time>
      </trkpt>
      <trkpt lat="44.85589" lon="5.96548">
        <ele>1670</ele>
        <time>2015-07-24T13:00:27Z</time>
      </trkpt>
      <trkpt lat="44.8559" lon="5.96548">
        <ele>1669.7</ele>
        <time>2015-07-24T13:00:32Z</time>
      </trkpt>
      <trkpt lat="44.85589" lon="5.96549">
        <ele>1669.6</ele>
        <time>2015-07-24T13:00:37Z</time>
      </trkpt>
      <trkpt lat="44.85589" lon="5.96549">
        <ele>1669.2</ele>
        <time>2015-07-24T13:00:42Z</time>
      </trkpt>
      <trkpt lat="44.85589" lon="5.96549">
        <ele>1668.7</ele>
        <time>2015-07-24T13:00:47Z</time>
      </trkpt>
      <trkpt lat="44.8559" lon="5.96549">
        <ele>1668.9</ele>
        <time>2015-07-24T13:00:52Z</time>
      </trkpt>
      <trkpt lat="44.8559" lon="5.96548">
        <ele>1668.9</ele>
        <time>2015-07-24T13:00:57Z</time>
      </trkpt>
      <trkpt lat="44.85589" lon="5.96548">
        <ele>1669.4</ele>
        <time>2015-07-24T13:01:02Z</time>
      </trkpt>
      <trkpt lat="44.85589" lon="5.96548">
        <ele>1669.3</ele>
        <time>2015-07-24T13:01:07Z</time>
      </trkpt>
      <trkpt lat="44.85588" lon="5.96548">
        <ele>1670.5</ele>
        <time>2015-07-24T13:01:12Z</time>
      </trkpt>
      <trkpt lat="44.8559" lon="5.96549">
        <ele>1669.5</ele>
        <time>2015-07-24T13:01:17Z</time>
      </trkpt>
      <trkpt lat="44.8559" lon="5.96548">
        <ele>1669.5</ele>
        <time>2015-07-24T13:01:22Z</time>
      </trkpt>
      <trkpt lat="44.85593" lon="5.96547">
        <ele>1670.5</ele>
        <time>2015-07-24T13:01:27Z</time>
      </trkpt>
      <trkpt lat="44.85597" lon="5.96552">
        <ele>1671.1</ele>
        <time>2015-07-24T13:01:32Z</time>
      </trkpt>
      <trkpt lat="44.85601" lon="5.96558">
        <ele>1671.8</ele>
        <time>2015-07-24T13:01:37Z</time>
      </trkpt>
      <trkpt lat="44.85605" lon="5.96563">
        <ele>1672.5</ele>
        <time>2015-07-24T13:01:42Z</time>
      </trkpt>
      <trkpt lat="44.8561" lon="5.96567">
        <ele>1672.4</ele>
        <time>2015-07-24T13:01:47Z</time>
      </trkpt>
      <trkpt lat="44.85614" lon="5.9657">
        <ele>1672.9</ele>
        <time>2015-07-24T13:01:52Z</time>
      </trkpt>
      <trkpt lat="44.8562" lon="5.96572">
        <ele>1673.4</ele>
        <time>2015-07-24T13:01:57Z</time>
      </trkpt>
      <trkpt lat="44.85626" lon="5.96573">
        <ele>1673.7</ele>
        <time>2015-07-24T13:02:02Z</time>
      </trkpt>
      <trkpt lat="44.85631" lon="5.96574">
        <ele>1674</ele>
        <time>2015-07-24T13:02:07Z</time>
      </trkpt>
      <trkpt lat="44.85636" lon="5.96573">
        <ele>1674.1</ele>
        <time>2015-07-24T13:02:12Z</time>
      </trkpt>
      <trkpt lat="44.85642" lon="5.96573">
        <ele>1674.8</ele>
        <time>2015-07-24T13:02:17Z</time>
      </trkpt>
      <trkpt lat="44.85647" lon="5.96572">
        <ele>1675.7</ele>
        <time>2015-07-24T13:02:22Z</time>
      </trkpt>
      <trkpt lat="44.85652" lon="5.96571">
        <ele>1676.3</ele>
        <time>2015-07-24T13:02:27Z</time>
      </trkpt>
      <trkpt lat="44.85657" lon="5.9657">
        <ele>1677.3</ele>
        <time>2015-07-24T13:02:32Z</time>
      </trkpt>
      <trkpt lat="44.85662" lon="5.9657">
        <ele>1678.6</ele>
        <time>2015-07-24T13:02:37Z</time>
      </trkpt>
      <trkpt lat="44.85666" lon="5.9657">
        <ele>1680</ele>
        <time>2015-07-24T13:02:42Z</time>
      </trkpt>
      <trkpt lat="44.85672" lon="5.96571">
        <ele>1680.2</ele>
        <time>2015-07-24T13:02:47Z</time>
      </trkpt>
      <trkpt lat="44.85674" lon="5.9657">
        <ele>1680.4</ele>
        <time>2015-07-24T13:02:52Z</time>
      </trkpt>
      <trkpt lat="44.85678" lon="5.96571">
        <ele>1680.3</ele>
        <time>2015-07-24T13:02:57Z</time>
      </trkpt>
      <trkpt lat="44.85678" lon="5.96572">
        <ele>1679.6</ele>
        <time>2015-07-24T13:03:02Z</time>
      </trkpt>
      <trkpt lat="44.85679" lon="5.96574">
        <ele>1680</ele>
        <time>2015-07-24T13:03:07Z</time>
      </trkpt>
      <trkpt lat="44.85683" lon="5.96577">
        <ele>1680.7</ele>
        <time>2015-07-24T13:03:12Z</time>
      </trkpt>
      <trkpt lat="44.85687" lon="5.96581">
        <ele>1681.6</ele>
        <time>2015-07-24T13:03:17Z</time>
      </trkpt>
      <trkpt lat="44.85691" lon="5.96586">
        <ele>1682.4</ele>
        <time>2015-07-24T13:03:22Z</time>
      </trkpt>
      <trkpt lat="44.85695" lon="5.9659">
        <ele>1683.1</ele>
        <time>2015-07-24T13:03:27Z</time>
      </trkpt>
      <trkpt lat="44.85698" lon="5.96596">
        <ele>1683.5</ele>
        <time>2015-07-24T13:03:32Z</time>
      </trkpt>
      <trkpt lat="44.85701" lon="5.96602">
        <ele>1684</ele>
        <time>2015-07-24T13:03:37Z</time>
      </trkpt>
      <trkpt lat="44.85703" lon="5.96609">
        <ele>1684.5</ele>
        <time>2015-07-24T13:03:42Z</time>
      </trkpt>
      <trkpt lat="44.85706" lon="5.96615">
        <ele>1684.9</ele>
        <time>2015-07-24T13:03:47Z</time>
      </trkpt>
      <trkpt lat="44.85708" lon="5.96622">
        <ele>1685</ele>
        <time>2015-07-24T13:03:52Z</time>
      </trkpt>
      <trkpt lat="44.85709" lon="5.96628">
        <ele>1685.3</ele>
        <time>2015-07-24T13:03:57Z</time>
      </trkpt>
      <trkpt lat="44.85711" lon="5.96635">
        <ele>1685.6</ele>
        <time>2015-07-24T13:04:02Z</time>
      </trkpt>
      <trkpt lat="44.85712" lon="5.96642">
        <ele>1685.9</ele>
        <time>2015-07-24T13:04:07Z</time>
      </trkpt>
      <trkpt lat="44.85713" lon="5.96649">
        <ele>1686.3</ele>
        <time>2015-07-24T13:04:12Z</time>
      </trkpt>
      <trkpt lat="44.85714" lon="5.96655">
        <ele>1686.8</ele>
        <time>2015-07-24T13:04:17Z</time>
      </trkpt>
      <trkpt lat="44.85714" lon="5.96662">
        <ele>1687.7</ele>
        <time>2015-07-24T13:04:22Z</time>
      </trkpt>
      <trkpt lat="44.85714" lon="5.96667">
        <ele>1687.7</ele>
        <time>2015-07-24T13:04:27Z</time>
      </trkpt>
      <trkpt lat="44.85714" lon="5.96666">
        <ele>1687.4</ele>
        <time>2015-07-24T13:04:32Z</time>
      </trkpt>
      <trkpt lat="44.85714" lon="5.96666">
        <ele>1687.1</ele>
        <time>2015-07-24T13:04:37Z</time>
      </trkpt>
      <trkpt lat="44.85713" lon="5.96666">
        <ele>1687.1</ele>
        <time>2015-07-24T13:04:42Z</time>
      </trkpt>
      <trkpt lat="44.85714" lon="5.96667">
        <ele>1686.9</ele>
        <time>2015-07-24T13:04:47Z</time>
      </trkpt>
      <trkpt lat="44.85714" lon="5.96668">
        <ele>1686.7</ele>
        <time>2015-07-24T13:04:52Z</time>
      </trkpt>
      <trkpt lat="44.85714" lon="5.96669">
        <ele>1686.5</ele>
        <time>2015-07-24T13:04:57Z</time>
      </trkpt>
      <trkpt lat="44.85714" lon="5.96669">
        <ele>1686.2</ele>
        <time>2015-07-24T13:05:02Z</time>
      </trkpt>
      <trkpt lat="44.85714" lon="5.96671">
        <ele>1686</ele>
        <time>2015-07-24T13:05:07Z</time>
      </trkpt>
      <trkpt lat="44.85717" lon="5.96676">
        <ele>1686.3</ele>
        <time>2015-07-24T13:05:12Z</time>
      </trkpt>
      <trkpt lat="44.85719" lon="5.96682">
        <ele>1686.9</ele>
        <time>2015-07-24T13:05:17Z</time>
      </trkpt>
      <trkpt lat="44.8572" lon="5.96689">
        <ele>1688.3</ele>
        <time>2015-07-24T13:05:22Z</time>
      </trkpt>
      <trkpt lat="44.85721" lon="5.96694">
        <ele>1688.7</ele>
        <time>2015-07-24T13:05:27Z</time>
      </trkpt>
      <trkpt lat="44.85722" lon="5.96701">
        <ele>1689.1</ele>
        <time>2015-07-24T13:05:32Z</time>
      </trkpt>
      <trkpt lat="44.85723" lon="5.96708">
        <ele>1689.5</ele>
        <time>2015-07-24T13:05:37Z</time>
      </trkpt>
      <trkpt lat="44.85723" lon="5.96715">
        <ele>1689.8</ele>
        <time>2015-07-24T13:05:42Z</time>
      </trkpt>
      <trkpt lat="44.85723" lon="5.96722">
        <ele>1690.2</ele>
        <time>2015-07-24T13:05:47Z</time>
      </trkpt>
      <trkpt lat="44.85723" lon="5.96729">
        <ele>1690.5</ele>
        <time>2015-07-24T13:05:52Z</time>
      </trkpt>
      <trkpt lat="44.85723" lon="5.96736">
        <ele>1690.9</ele>
        <time>2015-07-24T13:05:57Z</time>
      </trkpt>
      <trkpt lat="44.85722" lon="5.96744">
        <ele>1691.3</ele>
        <time>2015-07-24T13:06:02Z</time>
      </trkpt>
      <trkpt lat="44.85723" lon="5.96751">
        <ele>1691.9</ele>
        <time>2015-07-24T13:06:07Z</time>
      </trkpt>
      <trkpt lat="44.85722" lon="5.96758">
        <ele>1692.3</ele>
        <time>2015-07-24T13:06:12Z</time>
      </trkpt>
      <trkpt lat="44.85723" lon="5.96764">
        <ele>1692.6</ele>
        <time>2015-07-24T13:06:17Z</time>
      </trkpt>
      <trkpt lat="44.85723" lon="5.96771">
        <ele>1693</ele>
        <time>2015-07-24T13:06:22Z</time>
      </trkpt>
      <trkpt lat="44.85723" lon="5.96778">
        <ele>1693.6</ele>
        <time>2015-07-24T13:06:27Z</time>
      </trkpt>
      <trkpt lat="44.85724" lon="5.96785">
        <ele>1694.2</ele>
        <time>2015-07-24T13:06:32Z</time>
      </trkpt>
      <trkpt lat="44.85724" lon="5.96792">
        <ele>1694.8</ele>
        <time>2015-07-24T13:06:37Z</time>
      </trkpt>
      <trkpt lat="44.85723" lon="5.96798">
        <ele>1695.9</ele>
        <time>2015-07-24T13:06:42Z</time>
      </trkpt>
      <trkpt lat="44.85722" lon="5.96805">
        <ele>1696.4</ele>
        <time>2015-07-24T13:06:47Z</time>
      </trkpt>
      <trkpt lat="44.85722" lon="5.96811">
        <ele>1696.8</ele>
        <time>2015-07-24T13:06:52Z</time>
      </trkpt>
      <trkpt lat="44.85721" lon="5.96818">
        <ele>1697.5</ele>
        <time>2015-07-24T13:06:57Z</time>
      </trkpt>
      <trkpt lat="44.85719" lon="5.96825">
        <ele>1698.3</ele>
        <time>2015-07-24T13:07:02Z</time>
      </trkpt>
      <trkpt lat="44.85718" lon="5.96826">
        <ele>1699.3</ele>
        <time>2015-07-24T13:07:07Z</time>
      </trkpt>
      <trkpt lat="44.85718" lon="5.96825">
        <ele>1699.7</ele>
        <time>2015-07-24T13:07:12Z</time>
      </trkpt>
      <trkpt lat="44.85717" lon="5.96825">
        <ele>1700.2</ele>
        <time>2015-07-24T13:07:17Z</time>
      </trkpt>
      <trkpt lat="44.85717" lon="5.96825">
        <ele>1700.4</ele>
        <time>2015-07-24T13:07:22Z</time>
      </trkpt>
      <trkpt lat="44.85717" lon="5.96825">
        <ele>1700.6</ele>
        <time>2015-07-24T13:07:27Z</time>
      </trkpt>
      <trkpt lat="44.85717" lon="5.96825">
        <ele>1700.8</ele>
        <time>2015-07-24T13:07:32Z</time>
      </trkpt>
      <trkpt lat="44.85717" lon="5.96826">
        <ele>1701</ele>
        <time>2015-07-24T13:07:37Z</time>
      </trkpt>
      <trkpt lat="44.85717" lon="5.96831">
        <ele>1701.4</ele>
        <time>2015-07-24T13:07:42Z</time>
      </trkpt>
      <trkpt lat="44.85716" lon="5.96838">
        <ele>1701.7</ele>
        <time>2015-07-24T13:07:47Z</time>
      </trkpt>
      <trkpt lat="44.85716" lon="5.96844">
        <ele>1702.1</ele>
        <time>2015-07-24T13:07:52Z</time>
      </trkpt>
      <trkpt lat="44.85715" lon="5.96851">
        <ele>1703</ele>
        <time>2015-07-24T13:07:57Z</time>
      </trkpt>
      <trkpt lat="44.85714" lon="5.96858">
        <ele>1703.4</ele>
        <time>2015-07-24T13:08:02Z</time>
      </trkpt>
      <trkpt lat="44.85714" lon="5.96865">
        <ele>1703.8</ele>
        <time>2015-07-24T13:08:07Z</time>
      </trkpt>
      <trkpt lat="44.85714" lon="5.96872">
        <ele>1704</ele>
        <time>2015-07-24T13:08:12Z</time>
      </trkpt>
      <trkpt lat="44.85714" lon="5.96879">
        <ele>1704.4</ele>
        <time>2015-07-24T13:08:17Z</time>
      </trkpt>
      <trkpt lat="44.85713" lon="5.96886">
        <ele>1704.9</ele>
        <time>2015-07-24T13:08:22Z</time>
      </trkpt>
      <trkpt lat="44.85713" lon="5.96893">
        <ele>1705.3</ele>
        <time>2015-07-24T13:08:27Z</time>
      </trkpt>
      <trkpt lat="44.85713" lon="5.96899">
        <ele>1705.8</ele>
        <time>2015-07-24T13:08:32Z</time>
      </trkpt>
      <trkpt lat="44.85713" lon="5.96906">
        <ele>1706.1</ele>
        <time>2015-07-24T13:08:37Z</time>
      </trkpt>
      <trkpt lat="44.85713" lon="5.96913">
        <ele>1706.6</ele>
        <time>2015-07-24T13:08:42Z</time>
      </trkpt>
      <trkpt lat="44.85713" lon="5.9692">
        <ele>1707.1</ele>
        <time>2015-07-24T13:08:47Z</time>
      </trkpt>
      <trkpt lat="44.85713" lon="5.96928">
        <ele>1707.7</ele>
        <time>2015-07-24T13:08:52Z</time>
      </trkpt>
      <trkpt lat="44.85713" lon="5.96935">
        <ele>1708.1</ele>
        <time>2015-07-24T13:08:57Z</time>
      </trkpt>
      <trkpt lat="44.85713" lon="5.96943">
        <ele>1708.5</ele>
        <time>2015-07-24T13:09:02Z</time>
      </trkpt>
      <trkpt lat="44.85714" lon="5.9695">
        <ele>1708.9</ele>
        <time>2015-07-24T13:09:07Z</time>
      </trkpt>
      <trkpt lat="44.85716" lon="5.96957">
        <ele>1709.7</ele>
        <time>2015-07-24T13:09:12Z</time>
      </trkpt>
      <trkpt lat="44.85719" lon="5.96963">
        <ele>1710.4</ele>
        <time>2015-07-24T13:09:17Z</time>
      </trkpt>
      <trkpt lat="44.85723" lon="5.96968">
        <ele>1710.8</ele>
        <time>2015-07-24T13:09:22Z</time>
      </trkpt>
      <trkpt lat="44.85722" lon="5.96971">
        <ele>1711.5</ele>
        <time>2015-07-24T13:09:27Z</time>
      </trkpt>
      <trkpt lat="44.85722" lon="5.96972">
        <ele>1711.8</ele>
        <time>2015-07-24T13:09:32Z</time>
      </trkpt>
      <trkpt lat="44.85722" lon="5.96972">
        <ele>1711.9</ele>
        <time>2015-07-24T13:09:37Z</time>
      </trkpt>
      <trkpt lat="44.85721" lon="5.96972">
        <ele>1711.8</ele>
        <time>2015-07-24T13:09:42Z</time>
      </trkpt>
      <trkpt lat="44.85722" lon="5.96971">
        <ele>1710.4</ele>
        <time>2015-07-24T13:09:47Z</time>
      </trkpt>
      <trkpt lat="44.85723" lon="5.96972">
        <ele>1709.3</ele>
        <time>2015-07-24T13:09:52Z</time>
      </trkpt>
      <trkpt lat="44.85722" lon="5.96973">
        <ele>1709.7</ele>
        <time>2015-07-24T13:09:57Z</time>
      </trkpt>
      <trkpt lat="44.85722" lon="5.96974">
        <ele>1710.1</ele>
        <time>2015-07-24T13:10:02Z</time>
      </trkpt>
      <trkpt lat="44.85723" lon="5.96974">
        <ele>1711.1</ele>
        <time>2015-07-24T13:10:07Z</time>
      </trkpt>
      <trkpt lat="44.85724" lon="5.96975">
        <ele>1712.4</ele>
        <time>2015-07-24T13:10:12Z</time>
      </trkpt>
      <trkpt lat="44.85727" lon="5.96975">
        <ele>1713.5</ele>
        <time>2015-07-24T13:10:17Z</time>
      </trkpt>
      <trkpt lat="44.85731" lon="5.96976">
        <ele>1714.1</ele>
        <time>2015-07-24T13:10:22Z</time>
      </trkpt>
      <trkpt lat="44.85737" lon="5.96979">
        <ele>1714.6</ele>
        <time>2015-07-24T13:10:27Z</time>
      </trkpt>
      <trkpt lat="44.85742" lon="5.96981">
        <ele>1714.9</ele>
        <time>2015-07-24T13:10:32Z</time>
      </trkpt>
      <trkpt lat="44.85746" lon="5.96982">
        <ele>1715.2</ele>
        <time>2015-07-24T13:10:37Z</time>
      </trkpt>
      <trkpt lat="44.8575" lon="5.96983">
        <ele>1715.4</ele>
        <time>2015-07-24T13:10:42Z</time>
      </trkpt>
      <trkpt lat="44.85756" lon="5.96985">
        <ele>1716.4</ele>
        <time>2015-07-24T13:10:47Z</time>
      </trkpt>
      <trkpt lat="44.85761" lon="5.96987">
        <ele>1717</ele>
        <time>2015-07-24T13:10:52Z</time>
      </trkpt>
      <trkpt lat="44.85766" lon="5.96989">
        <ele>1717.4</ele>
        <time>2015-07-24T13:10:57Z</time>
      </trkpt>
      <trkpt lat="44.85772" lon="5.96991">
        <ele>1717.6</ele>
        <time>2015-07-24T13:11:02Z</time>
      </trkpt>
      <trkpt lat="44.85777" lon="5.96993">
        <ele>1718.5</ele>
        <time>2015-07-24T13:11:07Z</time>
      </trkpt>
      <trkpt lat="44.85783" lon="5.96994">
        <ele>1719.4</ele>
        <time>2015-07-24T13:11:12Z</time>
      </trkpt>
      <trkpt lat="44.85788" lon="5.96997">
        <ele>1720.8</ele>
        <time>2015-07-24T13:11:17Z</time>
      </trkpt>
      <trkpt lat="44.85793" lon="5.96999">
        <ele>1722.5</ele>
        <time>2015-07-24T13:11:22Z</time>
      </trkpt>
      <trkpt lat="44.85798" lon="5.97001">
        <ele>1723</ele>
        <time>2015-07-24T13:11:27Z</time>
      </trkpt>
      <trkpt lat="44.85803" lon="5.97004">
        <ele>1723.3</ele>
        <time>2015-07-24T13:11:32Z</time>
      </trkpt>
      <trkpt lat="44.85808" lon="5.97008">
        <ele>1723</ele>
        <time>2015-07-24T13:11:37Z</time>
      </trkpt>
      <trkpt lat="44.85811" lon="5.97013">
        <ele>1721.5</ele>
        <time>2015-07-24T13:11:42Z</time>
      </trkpt>
      <trkpt lat="44.85814" lon="5.97018">
        <ele>1720.2</ele>
        <time>2015-07-24T13:11:47Z</time>
      </trkpt>
      <trkpt lat="44.85815" lon="5.97025">
        <ele>1720.1</ele>
        <time>2015-07-24T13:11:52Z</time>
      </trkpt>
      <trkpt lat="44.85816" lon="5.97032">
        <ele>1719.5</ele>
        <time>2015-07-24T13:11:57Z</time>
      </trkpt>
      <trkpt lat="44.85816" lon="5.97039">
        <ele>1719.4</ele>
        <time>2015-07-24T13:12:02Z</time>
      </trkpt>
      <trkpt lat="44.85816" lon="5.97047">
        <ele>1719.5</ele>
        <time>2015-07-24T13:12:07Z</time>
      </trkpt>
      <trkpt lat="44.85816" lon="5.97054">
        <ele>1720.1</ele>
        <time>2015-07-24T13:12:12Z</time>
      </trkpt>
      <trkpt lat="44.85816" lon="5.97062">
        <ele>1720.3</ele>
        <time>2015-07-24T13:12:17Z</time>
      </trkpt>
      <trkpt lat="44.85816" lon="5.9707">
        <ele>1720.6</ele>
        <time>2015-07-24T13:12:22Z</time>
      </trkpt>
      <trkpt lat="44.85816" lon="5.97078">
        <ele>1721.3</ele>
        <time>2015-07-24T13:12:27Z</time>
      </trkpt>
      <trkpt lat="44.85817" lon="5.97086">
        <ele>1721.6</ele>
        <time>2015-07-24T13:12:32Z</time>
      </trkpt>
      <trkpt lat="44.85817" lon="5.97092">
        <ele>1721.9</ele>
        <time>2015-07-24T13:12:37Z</time>
      </trkpt>
      <trkpt lat="44.85816" lon="5.97092">
        <ele>1722.4</ele>
        <time>2015-07-24T13:12:42Z</time>
      </trkpt>
      <trkpt lat="44.85816" lon="5.97093">
        <ele>1722.8</ele>
        <time>2015-07-24T13:12:47Z</time>
      </trkpt>
      <trkpt lat="44.85815" lon="5.97093">
        <ele>1724.3</ele>
        <time>2015-07-24T13:12:52Z</time>
      </trkpt>
      <trkpt lat="44.85815" lon="5.97094">
        <ele>1725.5</ele>
        <time>2015-07-24T13:12:57Z</time>
      </trkpt>
      <trkpt lat="44.85814" lon="5.97094">
        <ele>1726.1</ele>
        <time>2015-07-24T13:13:02Z</time>
      </trkpt>
      <trkpt lat="44.85814" lon="5.97094">
        <ele>1726.2</ele>
        <time>2015-07-24T13:13:07Z</time>
      </trkpt>
      <trkpt lat="44.85814" lon="5.97094">
        <ele>1726.3</ele>
        <time>2015-07-24T13:13:12Z</time>
      </trkpt>
      <trkpt lat="44.85815" lon="5.97094">
        <ele>1726.1</ele>
        <time>2015-07-24T13:13:17Z</time>
      </trkpt>
      <trkpt lat="44.85817" lon="5.97099">
        <ele>1726.2</ele>
        <time>2015-07-24T13:13:22Z</time>
      </trkpt>
      <trkpt lat="44.85819" lon="5.97106">
        <ele>1726.1</ele>
        <time>2015-07-24T13:13:27Z</time>
      </trkpt>
      <trkpt lat="44.85821" lon="5.97113">
        <ele>1725.8</ele>
        <time>2015-07-24T13:13:32Z</time>
      </trkpt>
      <trkpt lat="44.85823" lon="5.97119">
        <ele>1725.9</ele>
        <time>2015-07-24T13:13:37Z</time>
      </trkpt>
      <trkpt lat="44.85824" lon="5.97119">
        <ele>1725.1</ele>
        <time>2015-07-24T13:13:42Z</time>
      </trkpt>
      <trkpt lat="44.85825" lon="5.97119">
        <ele>1724.1</ele>
        <time>2015-07-24T13:13:47Z</time>
      </trkpt>
      <trkpt lat="44.85827" lon="5.97124">
        <ele>1724</ele>
        <time>2015-07-24T13:13:52Z</time>
      </trkpt>
      <trkpt lat="44.8583" lon="5.9713">
        <ele>1724</ele>
        <time>2015-07-24T13:13:57Z</time>
      </trkpt>
      <trkpt lat="44.85833" lon="5.97136">
        <ele>1724.3</ele>
        <time>2015-07-24T13:14:02Z</time>
      </trkpt>
      <trkpt lat="44.85836" lon="5.97142">
        <ele>1724.6</ele>
        <time>2015-07-24T13:14:07Z</time>
      </trkpt>
      <trkpt lat="44.8584" lon="5.97147">
        <ele>1724.8</ele>
        <time>2015-07-24T13:14:12Z</time>
      </trkpt>
      <trkpt lat="44.85844" lon="5.97152">
        <ele>1725.2</ele>
        <time>2015-07-24T13:14:17Z</time>
      </trkpt>
      <trkpt lat="44.85848" lon="5.97157">
        <ele>1725.5</ele>
        <time>2015-07-24T13:14:22Z</time>
      </trkpt>
      <trkpt lat="44.85851" lon="5.97163">
        <ele>1725.7</ele>
        <time>2015-07-24T13:14:27Z</time>
      </trkpt>
      <trkpt lat="44.85855" lon="5.97168">
        <ele>1726.1</ele>
        <time>2015-07-24T13:14:32Z</time>
      </trkpt>
      <trkpt lat="44.85859" lon="5.97174">
        <ele>1726.3</ele>
        <time>2015-07-24T13:14:37Z</time>
      </trkpt>
      <trkpt lat="44.85863" lon="5.97179">
        <ele>1726.5</ele>
        <time>2015-07-24T13:14:42Z</time>
      </trkpt>
      <trkpt lat="44.85867" lon="5.97184">
        <ele>1726.7</ele>
        <time>2015-07-24T13:14:47Z</time>
      </trkpt>
      <trkpt lat="44.8587" lon="5.9719">
        <ele>1727.1</ele>
        <time>2015-07-24T13:14:52Z</time>
      </trkpt>
      <trkpt lat="44.85874" lon="5.97196">
        <ele>1727.3</ele>
        <time>2015-07-24T13:14:57Z</time>
      </trkpt>
      <trkpt lat="44.85878" lon="5.97201">
        <ele>1727.6</ele>
        <time>2015-07-24T13:15:02Z</time>
      </trkpt>
      <trkpt lat="44.85882" lon="5.97208">
        <ele>1727.8</ele>
        <time>2015-07-24T13:15:07Z</time>
      </trkpt>
      <trkpt lat="44.85885" lon="5.97213">
        <ele>1728.3</ele>
        <time>2015-07-24T13:15:12Z</time>
      </trkpt>
      <trkpt lat="44.85889" lon="5.97219">
        <ele>1728.9</ele>
        <time>2015-07-24T13:15:17Z</time>
      </trkpt>
      <trkpt lat="44.85892" lon="5.97225">
        <ele>1729.3</ele>
        <time>2015-07-24T13:15:22Z</time>
      </trkpt>
      <trkpt lat="44.85895" lon="5.97232">
        <ele>1730</ele>
        <time>2015-07-24T13:15:27Z</time>
      </trkpt>
      <trkpt lat="44.85897" lon="5.97239">
        <ele>1732.1</ele>
        <time>2015-07-24T13:15:32Z</time>
      </trkpt>
      <trkpt lat="44.85899" lon="5.97246">
        <ele>1732.9</ele>
        <time>2015-07-24T13:15:37Z</time>
      </trkpt>
      <trkpt lat="44.859" lon="5.97253">
        <ele>1732.9</ele>
        <time>2015-07-24T13:15:42Z</time>
      </trkpt>
      <trkpt lat="44.85901" lon="5.9726">
        <ele>1733.3</ele>
        <time>2015-07-24T13:15:47Z</time>
      </trkpt>
      <trkpt lat="44.85902" lon="5.97261">
        <ele>1733.7</ele>
        <time>2015-07-24T13:15:52Z</time>
      </trkpt>
      <trkpt lat="44.85902" lon="5.97266">
        <ele>1734.9</ele>
        <time>2015-07-24T13:15:57Z</time>
      </trkpt>
      <trkpt lat="44.85902" lon="5.97273">
        <ele>1736</ele>
        <time>2015-07-24T13:16:02Z</time>
      </trkpt>
      <trkpt lat="44.85902" lon="5.9728">
        <ele>1736.9</ele>
        <time>2015-07-24T13:16:07Z</time>
      </trkpt>
      <trkpt lat="44.85902" lon="5.97286">
        <ele>1737.5</ele>
        <time>2015-07-24T13:16:12Z</time>
      </trkpt>
      <trkpt lat="44.85902" lon="5.97294">
        <ele>1738.1</ele>
        <time>2015-07-24T13:16:17Z</time>
      </trkpt>
      <trkpt lat="44.85901" lon="5.973">
        <ele>1738.7</ele>
        <time>2015-07-24T13:16:22Z</time>
      </trkpt>
      <trkpt lat="44.85899" lon="5.97307">
        <ele>1739.3</ele>
        <time>2015-07-24T13:16:27Z</time>
      </trkpt>
      <trkpt lat="44.85897" lon="5.97314">
        <ele>1740.4</ele>
        <time>2015-07-24T13:16:32Z</time>
      </trkpt>
      <trkpt lat="44.85894" lon="5.97321">
        <ele>1741.2</ele>
        <time>2015-07-24T13:16:37Z</time>
      </trkpt>
      <trkpt lat="44.8589" lon="5.97327">
        <ele>1742.1</ele>
        <time>2015-07-24T13:16:42Z</time>
      </trkpt>
      <trkpt lat="44.85887" lon="5.97333">
        <ele>1742.5</ele>
        <time>2015-07-24T13:16:47Z</time>
      </trkpt>
      <trkpt lat="44.85884" lon="5.97339">
        <ele>1743.3</ele>
        <time>2015-07-24T13:16:52Z</time>
      </trkpt>
      <trkpt lat="44.85881" lon="5.97344">
        <ele>1744</ele>
        <time>2015-07-24T13:16:57Z</time>
      </trkpt>
      <trkpt lat="44.85878" lon="5.9735">
        <ele>1744.6</ele>
        <time>2015-07-24T13:17:02Z</time>
      </trkpt>
      <trkpt lat="44.85874" lon="5.97356">
        <ele>1744.4</ele>
        <time>2015-07-24T13:17:07Z</time>
      </trkpt>
      <trkpt lat="44.8587" lon="5.97362">
        <ele>1744.6</ele>
        <time>2015-07-24T13:17:12Z</time>
      </trkpt>
      <trkpt lat="44.85867" lon="5.97366">
        <ele>1744.8</ele>
        <time>2015-07-24T13:17:17Z</time>
      </trkpt>
      <trkpt lat="44.85867" lon="5.97366">
        <ele>1744.9</ele>
        <time>2015-07-24T13:17:22Z</time>
      </trkpt>
      <trkpt lat="44.85867" lon="5.97366">
        <ele>1744.7</ele>
        <time>2015-07-24T13:17:27Z</time>
      </trkpt>
      <trkpt lat="44.85867" lon="5.97365">
        <ele>1744.6</ele>
        <time>2015-07-24T13:17:32Z</time>
      </trkpt>
      <trkpt lat="44.85867" lon="5.97365">
        <ele>1744.5</ele>
        <time>2015-07-24T13:17:37Z</time>
      </trkpt>
      <trkpt lat="44.85867" lon="5.97365">
        <ele>1744.5</ele>
        <time>2015-07-24T13:17:42Z</time>
      </trkpt>
      <trkpt lat="44.85867" lon="5.97365">
        <ele>1744.5</ele>
        <time>2015-07-24T13:17:47Z</time>
      </trkpt>
      <trkpt lat="44.85868" lon="5.97365">
        <ele>1744.9</ele>
        <time>2015-07-24T13:17:52Z</time>
      </trkpt>
      <trkpt lat="44.85866" lon="5.97371">
        <ele>1745.1</ele>
        <time>2015-07-24T13:17:57Z</time>
      </trkpt>
      <trkpt lat="44.85864" lon="5.97378">
        <ele>1745.9</ele>
        <time>2015-07-24T13:18:02Z</time>
      </trkpt>
      <trkpt lat="44.85864" lon="5.97385">
        <ele>1746.2</ele>
        <time>2015-07-24T13:18:07Z</time>
      </trkpt>
      <trkpt lat="44.85863" lon="5.97392">
        <ele>1746.8</ele>
        <time>2015-07-24T13:18:12Z</time>
      </trkpt>
      <trkpt lat="44.85862" lon="5.97399">
        <ele>1747.2</ele>
        <time>2015-07-24T13:18:17Z</time>
      </trkpt>
      <trkpt lat="44.85863" lon="5.97407">
        <ele>1747.5</ele>
        <time>2015-07-24T13:18:22Z</time>
      </trkpt>
      <trkpt lat="44.85864" lon="5.97414">
        <ele>1748</ele>
        <time>2015-07-24T13:18:27Z</time>
      </trkpt>
      <trkpt lat="44.85866" lon="5.9742">
        <ele>1747.7</ele>
        <time>2015-07-24T13:18:32Z</time>
      </trkpt>
      <trkpt lat="44.85867" lon="5.97427">
        <ele>1748</ele>
        <time>2015-07-24T13:18:37Z</time>
      </trkpt>
      <trkpt lat="44.8587" lon="5.97434">
        <ele>1747.9</ele>
        <time>2015-07-24T13:18:42Z</time>
      </trkpt>
      <trkpt lat="44.85871" lon="5.97441">
        <ele>1747.8</ele>
        <time>2015-07-24T13:18:47Z</time>
      </trkpt>
      <trkpt lat="44.85874" lon="5.97447">
        <ele>1747.9</ele>
        <time>2015-07-24T13:18:52Z</time>
      </trkpt>
      <trkpt lat="44.85875" lon="5.97454">
        <ele>1748</ele>
        <time>2015-07-24T13:18:57Z</time>
      </trkpt>
      <trkpt lat="44.85877" lon="5.9746">
        <ele>1748</ele>
        <time>2015-07-24T13:19:02Z</time>
      </trkpt>
      <trkpt lat="44.85878" lon="5.97467">
        <ele>1748.8</ele>
        <time>2015-07-24T13:19:07Z</time>
      </trkpt>
      <trkpt lat="44.85877" lon="5.97475">
        <ele>1750</ele>
        <time>2015-07-24T13:19:12Z</time>
      </trkpt>
      <trkpt lat="44.85878" lon="5.97482">
        <ele>1750.5</ele>
        <time>2015-07-24T13:19:17Z</time>
      </trkpt>
      <trkpt lat="44.85878" lon="5.97489">
        <ele>1751.6</ele>
        <time>2015-07-24T13:19:22Z</time>
      </trkpt>
      <trkpt lat="44.85878" lon="5.97497">
        <ele>1753</ele>
        <time>2015-07-24T13:19:27Z</time>
      </trkpt>
      <trkpt lat="44.85877" lon="5.97504">
        <ele>1754.3</ele>
        <time>2015-07-24T13:19:32Z</time>
      </trkpt>
      <trkpt lat="44.85877" lon="5.97511">
        <ele>1755.5</ele>
        <time>2015-07-24T13:19:37Z</time>
      </trkpt>
      <trkpt lat="44.85874" lon="5.97517">
        <ele>1755.7</ele>
        <time>2015-07-24T13:19:42Z</time>
      </trkpt>
      <trkpt lat="44.85875" lon="5.97519">
        <ele>1755.9</ele>
        <time>2015-07-24T13:19:47Z</time>
      </trkpt>
      <trkpt lat="44.85874" lon="5.97519">
        <ele>1755.8</ele>
        <time>2015-07-24T13:19:52Z</time>
      </trkpt>
      <trkpt lat="44.85875" lon="5.97519">
        <ele>1755.6</ele>
        <time>2015-07-24T13:19:57Z</time>
      </trkpt>
      <trkpt lat="44.85875" lon="5.97518">
        <ele>1755.6</ele>
        <time>2015-07-24T13:20:02Z</time>
      </trkpt>
      <trkpt lat="44.85875" lon="5.97518">
        <ele>1755.6</ele>
        <time>2015-07-24T13:20:07Z</time>
      </trkpt>
      <trkpt lat="44.85875" lon="5.97519">
        <ele>1755.7</ele>
        <time>2015-07-24T13:20:12Z</time>
      </trkpt>
      <trkpt lat="44.85877" lon="5.97522">
        <ele>1755.7</ele>
        <time>2015-07-24T13:20:17Z</time>
      </trkpt>
      <trkpt lat="44.85877" lon="5.97529">
        <ele>1756.5</ele>
        <time>2015-07-24T13:20:22Z</time>
      </trkpt>
      <trkpt lat="44.85875" lon="5.97536">
        <ele>1757.4</ele>
        <time>2015-07-24T13:20:27Z</time>
      </trkpt>
      <trkpt lat="44.85873" lon="5.97544">
        <ele>1758.1</ele>
        <time>2015-07-24T13:20:32Z</time>
      </trkpt>
      <trkpt lat="44.85872" lon="5.97552">
        <ele>1758.8</ele>
        <time>2015-07-24T13:20:37Z</time>
      </trkpt>
      <trkpt lat="44.85872" lon="5.9756">
        <ele>1759</ele>
        <time>2015-07-24T13:20:42Z</time>
      </trkpt>
      <trkpt lat="44.85877" lon="5.97561">
        <ele>1759.2</ele>
        <time>2015-07-24T13:20:47Z</time>
      </trkpt>
      <trkpt lat="44.85879" lon="5.97562">
        <ele>1759.4</ele>
        <time>2015-07-24T13:20:52Z</time>
      </trkpt>
      <trkpt lat="44.8588" lon="5.97563">
        <ele>1759.3</ele>
        <time>2015-07-24T13:20:57Z</time>
      </trkpt>
      <trkpt lat="44.8588" lon="5.97563">
        <ele>1759.3</ele>
        <time>2015-07-24T13:21:02Z</time>
      </trkpt>
      <trkpt lat="44.8588" lon="5.97563">
        <ele>1759.8</ele>
        <time>2015-07-24T13:21:07Z</time>
      </trkpt>
      <trkpt lat="44.8588" lon="5.97563">
        <ele>1759.8</ele>
        <time>2015-07-24T13:21:12Z</time>
      </trkpt>
      <trkpt lat="44.8588" lon="5.97563">
        <ele>1759.6</ele>
        <time>2015-07-24T13:21:17Z</time>
      </trkpt>
      <trkpt lat="44.85878" lon="5.97566">
        <ele>1759.8</ele>
        <time>2015-07-24T13:21:22Z</time>
      </trkpt>
      <trkpt lat="44.85877" lon="5.97572">
        <ele>1760</ele>
        <time>2015-07-24T13:21:27Z</time>
      </trkpt>
      <trkpt lat="44.85877" lon="5.97579">
        <ele>1759.9</ele>
        <time>2015-07-24T13:21:32Z</time>
      </trkpt>
      <trkpt lat="44.85877" lon="5.97586">
        <ele>1759.7</ele>
        <time>2015-07-24T13:21:37Z</time>
      </trkpt>
      <trkpt lat="44.85875" lon="5.97594">
        <ele>1760</ele>
        <time>2015-07-24T13:21:42Z</time>
      </trkpt>
      <trkpt lat="44.85875" lon="5.97602">
        <ele>1760.5</ele>
        <time>2015-07-24T13:21:47Z</time>
      </trkpt>
      <trkpt lat="44.85874" lon="5.9761">
        <ele>1760.8</ele>
        <time>2015-07-24T13:21:52Z</time>
      </trkpt>
      <trkpt lat="44.85874" lon="5.97617">
        <ele>1761.2</ele>
        <time>2015-07-24T13:21:57Z</time>
      </trkpt>
      <trkpt lat="44.85873" lon="5.97625">
        <ele>1761.5</ele>
        <time>2015-07-24T13:22:02Z</time>
      </trkpt>
      <trkpt lat="44.85874" lon="5.97633">
        <ele>1761.6</ele>
        <time>2015-07-24T13:22:07Z</time>
      </trkpt>
      <trkpt lat="44.85874" lon="5.97641">
        <ele>1762.1</ele>
        <time>2015-07-24T13:22:12Z</time>
      </trkpt>
      <trkpt lat="44.85874" lon="5.97649">
        <ele>1763.1</ele>
        <time>2015-07-24T13:22:17Z</time>
      </trkpt>
      <trkpt lat="44.85875" lon="5.97656">
        <ele>1763.7</ele>
        <time>2015-07-24T13:22:22Z</time>
      </trkpt>
      <trkpt lat="44.85876" lon="5.97664">
        <ele>1764.2</ele>
        <time>2015-07-24T13:22:27Z</time>
      </trkpt>
      <trkpt lat="44.85877" lon="5.97672">
        <ele>1764.3</ele>
        <time>2015-07-24T13:22:32Z</time>
      </trkpt>
      <trkpt lat="44.8588" lon="5.97679">
        <ele>1764.5</ele>
        <time>2015-07-24T13:22:37Z</time>
      </trkpt>
      <trkpt lat="44.85881" lon="5.97686">
        <ele>1764.3</ele>
        <time>2015-07-24T13:22:42Z</time>
      </trkpt>
      <trkpt lat="44.85882" lon="5.97694">
        <ele>1764.1</ele>
        <time>2015-07-24T13:22:47Z</time>
      </trkpt>
      <trkpt lat="44.85881" lon="5.97701">
        <ele>1764.4</ele>
        <time>2015-07-24T13:22:52Z</time>
      </trkpt>
      <trkpt lat="44.85877" lon="5.97706">
        <ele>1764.4</ele>
        <time>2015-07-24T13:22:57Z</time>
      </trkpt>
      <trkpt lat="44.85872" lon="5.97712">
        <ele>1764.9</ele>
        <time>2015-07-24T13:23:02Z</time>
      </trkpt>
      <trkpt lat="44.85868" lon="5.97718">
        <ele>1765.3</ele>
        <time>2015-07-24T13:23:07Z</time>
      </trkpt>
      <trkpt lat="44.85864" lon="5.97724">
        <ele>1765.8</ele>
        <time>2015-07-24T13:23:12Z</time>
      </trkpt>
      <trkpt lat="44.85859" lon="5.97729">
        <ele>1766.2</ele>
        <time>2015-07-24T13:23:17Z</time>
      </trkpt>
      <trkpt lat="44.85854" lon="5.97734">
        <ele>1766.6</ele>
        <time>2015-07-24T13:23:22Z</time>
      </trkpt>
      <trkpt lat="44.85849" lon="5.97741">
        <ele>1766.9</ele>
        <time>2015-07-24T13:23:27Z</time>
      </trkpt>
      <trkpt lat="44.85845" lon="5.97747">
        <ele>1767.3</ele>
        <time>2015-07-24T13:23:32Z</time>
      </trkpt>
      <trkpt lat="44.85843" lon="5.97753">
        <ele>1767.1</ele>
        <time>2015-07-24T13:23:37Z</time>
      </trkpt>
      <trkpt lat="44.85842" lon="5.97753">
        <ele>1766.9</ele>
        <time>2015-07-24T13:23:42Z</time>
      </trkpt>
      <trkpt lat="44.85838" lon="5.97755">
        <ele>1767.4</ele>
        <time>2015-07-24T13:23:47Z</time>
      </trkpt>
      <trkpt lat="44.85835" lon="5.97755">
        <ele>1768.6</ele>
        <time>2015-07-24T13:23:52Z</time>
      </trkpt>
      <trkpt lat="44.85832" lon="5.97754">
        <ele>1769.7</ele>
        <time>2015-07-24T13:23:57Z</time>
      </trkpt>
      <trkpt lat="44.85834" lon="5.97751">
        <ele>1770.8</ele>
        <time>2015-07-24T13:24:02Z</time>
      </trkpt>
      <trkpt lat="44.85836" lon="5.97748">
        <ele>1769.7</ele>
        <time>2015-07-24T13:24:07Z</time>
      </trkpt>
      <trkpt lat="44.85835" lon="5.97747">
        <ele>1769.4</ele>
        <time>2015-07-24T13:24:12Z</time>
      </trkpt>
      <trkpt lat="44.85833" lon="5.97747">
        <ele>1769.9</ele>
        <time>2015-07-24T13:24:17Z</time>
      </trkpt>
      <trkpt lat="44.85832" lon="5.97748">
        <ele>1765</ele>
        <time>2015-07-24T13:24:22Z</time>
      </trkpt>
      <trkpt lat="44.85834" lon="5.9775">
        <ele>1763.3</ele>
        <time>2015-07-24T13:24:27Z</time>
      </trkpt>
      <trkpt lat="44.85836" lon="5.97751">
        <ele>1762.7</ele>
        <time>2015-07-24T13:24:32Z</time>
      </trkpt>
      <trkpt lat="44.85839" lon="5.97751">
        <ele>1761.3</ele>
        <time>2015-07-24T13:24:37Z</time>
      </trkpt>
      <trkpt lat="44.8584" lon="5.97751">
        <ele>1761</ele>
        <time>2015-07-24T13:24:42Z</time>
      </trkpt>
      <trkpt lat="44.8584" lon="5.97751">
        <ele>1761.5</ele>
        <time>2015-07-24T13:24:47Z</time>
      </trkpt>
      <trkpt lat="44.8584" lon="5.97751">
        <ele>1762.3</ele>
        <time>2015-07-24T13:24:52Z</time>
      </trkpt>
      <trkpt lat="44.8584" lon="5.97752">
        <ele>1763</ele>
        <time>2015-07-24T13:24:57Z</time>
      </trkpt>
      <trkpt lat="44.85838" lon="5.97752">
        <ele>1762.9</ele>
        <time>2015-07-24T13:25:02Z</time>
      </trkpt>
      <trkpt lat="44.85841" lon="5.97756">
        <ele>1765.9</ele>
        <time>2015-07-24T13:25:07Z</time>
      </trkpt>
      <trkpt lat="44.85842" lon="5.97754">
        <ele>1765.8</ele>
        <time>2015-07-24T13:25:12Z</time>
      </trkpt>
      <trkpt lat="44.85841" lon="5.97753">
        <ele>1766.5</ele>
        <time>2015-07-24T13:25:17Z</time>
      </trkpt>
      <trkpt lat="44.8583" lon="5.97742">
        <ele>1764.8</ele>
        <time>2015-07-24T13:25:22Z</time>
      </trkpt>
      <trkpt lat="44.85811" lon="5.97725">
        <ele>1765.1</ele>
        <time>2015-07-24T13:25:27Z</time>
      </trkpt>
      <trkpt lat="44.85796" lon="5.97703">
        <ele>1765.2</ele>
        <time>2015-07-24T13:25:32Z</time>
      </trkpt>
      <trkpt lat="44.85858" lon="5.97707">
        <ele>1808.1</ele>
        <time>2015-07-24T13:27:28Z</time>
      </trkpt>
      <trkpt lat="44.85865" lon="5.97741">
        <ele>1769.8</ele>
        <time>2015-07-24T13:27:33Z</time>
      </trkpt>
      <trkpt lat="44.85865" lon="5.97743">
        <ele>1767.4</ele>
        <time>2015-07-24T13:27:38Z</time>
      </trkpt>
      <trkpt lat="44.85866" lon="5.97747">
        <ele>1768.9</ele>
        <time>2015-07-24T13:27:43Z</time>
      </trkpt>
      <trkpt lat="44.85865" lon="5.97747">
        <ele>1768.6</ele>
        <time>2015-07-24T13:27:48Z</time>
      </trkpt>
      <trkpt lat="44.85865" lon="5.97748">
        <ele>1769.9</ele>
        <time>2015-07-24T13:27:53Z</time>
      </trkpt>
      <trkpt lat="44.85862" lon="5.97747">
        <ele>1769.5</ele>
        <time>2015-07-24T13:27:58Z</time>
      </trkpt>
      <trkpt lat="44.8586" lon="5.97748">
        <ele>1769.6</ele>
        <time>2015-07-24T13:28:03Z</time>
      </trkpt>
      <trkpt lat="44.85857" lon="5.97747">
        <ele>1768.3</ele>
        <time>2015-07-24T13:28:08Z</time>
      </trkpt>
      <trkpt lat="44.85851" lon="5.97745">
        <ele>1767.8</ele>
        <time>2015-07-24T13:28:13Z</time>
      </trkpt>
      <trkpt lat="44.85849" lon="5.97745">
        <ele>1768.5</ele>
        <time>2015-07-24T13:28:18Z</time>
      </trkpt>
      <trkpt lat="44.85846" lon="5.97745">
        <ele>1768.5</ele>
        <time>2015-07-24T13:28:23Z</time>
      </trkpt>
      <trkpt lat="44.85848" lon="5.97746">
        <ele>1769.2</ele>
        <time>2015-07-24T13:28:28Z</time>
      </trkpt>
      <trkpt lat="44.85849" lon="5.97746">
        <ele>1768.8</ele>
        <time>2015-07-24T13:28:33Z</time>
      </trkpt>
      <trkpt lat="44.85847" lon="5.97749">
        <ele>1770.3</ele>
        <time>2015-07-24T13:28:38Z</time>
      </trkpt>
      <trkpt lat="44.85851" lon="5.97748">
        <ele>1771.1</ele>
        <time>2015-07-24T13:28:43Z</time>
      </trkpt>
      <trkpt lat="44.85851" lon="5.97748">
        <ele>1771</ele>
        <time>2015-07-24T13:28:48Z</time>
      </trkpt>
      <trkpt lat="44.85851" lon="5.9775">
        <ele>1772</ele>
        <time>2015-07-24T13:28:53Z</time>
      </trkpt>
      <trkpt lat="44.85849" lon="5.97749">
        <ele>1771.2</ele>
        <time>2015-07-24T13:28:58Z</time>
      </trkpt>
      <trkpt lat="44.85848" lon="5.97749">
        <ele>1769.6</ele>
        <time>2015-07-24T13:29:03Z</time>
      </trkpt>
      <trkpt lat="44.85847" lon="5.97749">
        <ele>1769</ele>
        <time>2015-07-24T13:29:08Z</time>
      </trkpt>
      <trkpt lat="44.85843" lon="5.97749">
        <ele>1767.8</ele>
        <time>2015-07-24T13:29:13Z</time>
      </trkpt>
      <trkpt lat="44.85842" lon="5.97749">
        <ele>1765.2</ele>
        <time>2015-07-24T13:29:18Z</time>
      </trkpt>
      <trkpt lat="44.85841" lon="5.97749">
        <ele>1765.4</ele>
        <time>2015-07-24T13:29:23Z</time>
      </trkpt>
      <trkpt lat="44.85838" lon="5.97748">
        <ele>1766.4</ele>
        <time>2015-07-24T13:29:28Z</time>
      </trkpt>
      <trkpt lat="44.85841" lon="5.97748">
        <ele>1766.9</ele>
        <time>2015-07-24T13:29:33Z</time>
      </trkpt>
      <trkpt lat="44.85841" lon="5.97748">
        <ele>1766.3</ele>
        <time>2015-07-24T13:29:38Z</time>
      </trkpt>
      <trkpt lat="44.85841" lon="5.97748">
        <ele>1766.8</ele>
        <time>2015-07-24T13:29:43Z</time>
      </trkpt>
      <trkpt lat="44.85843" lon="5.97749">
        <ele>1767.1</ele>
        <time>2015-07-24T13:29:48Z</time>
      </trkpt>
      <trkpt lat="44.85841" lon="5.97748">
        <ele>1767.6</ele>
        <time>2015-07-24T13:29:53Z</time>
      </trkpt>
      <trkpt lat="44.85843" lon="5.97746">
        <ele>1766.9</ele>
        <time>2015-07-24T13:29:58Z</time>
      </trkpt>
      <trkpt lat="44.85844" lon="5.97747">
        <ele>1766.6</ele>
        <time>2015-07-24T13:30:03Z</time>
      </trkpt>
      <trkpt lat="44.85844" lon="5.97748">
        <ele>1765.8</ele>
        <time>2015-07-24T13:30:08Z</time>
      </trkpt>
      <trkpt lat="44.85843" lon="5.9775">
        <ele>1768.8</ele>
        <time>2015-07-24T13:30:13Z</time>
      </trkpt>
      <trkpt lat="44.85843" lon="5.97751">
        <ele>1771.1</ele>
        <time>2015-07-24T13:30:18Z</time>
      </trkpt>
      <trkpt lat="44.85842" lon="5.97751">
        <ele>1772.7</ele>
        <time>2015-07-24T13:30:23Z</time>
      </trkpt>
      <trkpt lat="44.85841" lon="5.97751">
        <ele>1773</ele>
        <time>2015-07-24T13:30:28Z</time>
      </trkpt>
      <trkpt lat="44.8584" lon="5.97751">
        <ele>1772.2</ele>
        <time>2015-07-24T13:30:33Z</time>
      </trkpt>
      <trkpt lat="44.85839" lon="5.97752">
        <ele>1771.2</ele>
        <time>2015-07-24T13:30:38Z</time>
      </trkpt>
      <trkpt lat="44.85838" lon="5.97751">
        <ele>1770.3</ele>
        <time>2015-07-24T13:30:43Z</time>
      </trkpt>
      <trkpt lat="44.85839" lon="5.97751">
        <ele>1770</ele>
        <time>2015-07-24T13:30:48Z</time>
      </trkpt>
      <trkpt lat="44.85836" lon="5.97749">
        <ele>1769.1</ele>
        <time>2015-07-24T13:30:53Z</time>
      </trkpt>
      <trkpt lat="44.85834" lon="5.9775">
        <ele>1771</ele>
        <time>2015-07-24T13:30:58Z</time>
      </trkpt>
      <trkpt lat="44.85832" lon="5.97749">
        <ele>1771.1</ele>
        <time>2015-07-24T13:31:03Z</time>
      </trkpt>
      <trkpt lat="44.85832" lon="5.97749">
        <ele>1770.6</ele>
        <time>2015-07-24T13:31:08Z</time>
      </trkpt>
      <trkpt lat="44.85834" lon="5.97752">
        <ele>1769.4</ele>
        <time>2015-07-24T13:31:13Z</time>
      </trkpt>
      <trkpt lat="44.85838" lon="5.97749">
        <ele>1771.5</ele>
        <time>2015-07-24T13:31:18Z</time>
      </trkpt>
      <trkpt lat="44.8584" lon="5.97749">
        <ele>1772.2</ele>
        <time>2015-07-24T13:31:23Z</time>
      </trkpt>
      <trkpt lat="44.85838" lon="5.97748">
        <ele>1772</ele>
        <time>2015-07-24T13:31:28Z</time>
      </trkpt>
      <trkpt lat="44.85837" lon="5.97748">
        <ele>1770.6</ele>
        <time>2015-07-24T13:31:33Z</time>
      </trkpt>
      <trkpt lat="44.85836" lon="5.97748">
        <ele>1766.2</ele>
        <time>2015-07-24T13:31:38Z</time>
      </trkpt>
      <trkpt lat="44.85833" lon="5.97749">
        <ele>1764.9</ele>
        <time>2015-07-24T13:31:43Z</time>
      </trkpt>
      <trkpt lat="44.85832" lon="5.9775">
        <ele>1760.5</ele>
        <time>2015-07-24T13:31:50Z</time>
      </trkpt>
      <trkpt lat="44.85833" lon="5.97751">
        <ele>1756.5</ele>
        <time>2015-07-24T13:31:55Z</time>
      </trkpt>
      <trkpt lat="44.85834" lon="5.97751">
        <ele>1748.9</ele>
        <time>2015-07-24T13:32:00Z</time>
      </trkpt>
      <trkpt lat="44.85833" lon="5.97752">
        <ele>1750.4</ele>
        <time>2015-07-24T13:32:05Z</time>
      </trkpt>
      <trkpt lat="44.85833" lon="5.97752">
        <ele>1751.3</ele>
        <time>2015-07-24T13:32:10Z</time>
      </trkpt>
      <trkpt lat="44.85833" lon="5.97752">
        <ele>1754</ele>
        <time>2015-07-24T13:32:15Z</time>
      </trkpt>
      <trkpt lat="44.85833" lon="5.97751">
        <ele>1760.2</ele>
        <time>2015-07-24T13:32:20Z</time>
      </trkpt>
      <trkpt lat="44.85834" lon="5.9775">
        <ele>1759.9</ele>
        <time>2015-07-24T13:32:25Z</time>
      </trkpt>
      <trkpt lat="44.85836" lon="5.97752">
        <ele>1754.8</ele>
        <time>2015-07-24T13:32:30Z</time>
      </trkpt>
      <trkpt lat="44.85834" lon="5.97751">
        <ele>1756.5</ele>
        <time>2015-07-24T13:32:35Z</time>
      </trkpt>
      <trkpt lat="44.85835" lon="5.97753">
        <ele>1751.6</ele>
        <time>2015-07-24T13:32:40Z</time>
      </trkpt>
      <trkpt lat="44.85836" lon="5.97747">
        <ele>1759.5</ele>
        <time>2015-07-24T13:32:45Z</time>
      </trkpt>
      <trkpt lat="44.85836" lon="5.97746">
        <ele>1763.9</ele>
        <time>2015-07-24T13:32:50Z</time>
      </trkpt>
      <trkpt lat="44.85835" lon="5.97746">
        <ele>1765.6</ele>
        <time>2015-07-24T13:32:55Z</time>
      </trkpt>
      <trkpt lat="44.85835" lon="5.97746">
        <ele>1766.8</ele>
        <time>2015-07-24T13:33:00Z</time>
      </trkpt>
      <trkpt lat="44.85835" lon="5.97747">
        <ele>1768</ele>
        <time>2015-07-24T13:33:05Z</time>
      </trkpt>
      <trkpt lat="44.85834" lon="5.97749">
        <ele>1767.6</ele>
        <time>2015-07-24T13:33:10Z</time>
      </trkpt>
      <trkpt lat="44.85832" lon="5.97749">
        <ele>1767.5</ele>
        <time>2015-07-24T13:33:15Z</time>
      </trkpt>
      <trkpt lat="44.85832" lon="5.9775">
        <ele>1763.7</ele>
        <time>2015-07-24T13:33:20Z</time>
      </trkpt>
      <trkpt lat="44.85835" lon="5.9775">
        <ele>1759.5</ele>
        <time>2015-07-24T13:33:25Z</time>
      </trkpt>
      <trkpt lat="44.85836" lon="5.9775">
        <ele>1756.4</ele>
        <time>2015-07-24T13:33:30Z</time>
      </trkpt>
      <trkpt lat="44.85836" lon="5.97749">
        <ele>1762.1</ele>
        <time>2015-07-24T13:33:35Z</time>
      </trkpt>
      <trkpt lat="44.85837" lon="5.97748">
        <ele>1760.7</ele>
        <time>2015-07-24T13:33:40Z</time>
      </trkpt>
      <trkpt lat="44.85839" lon="5.97751">
        <ele>1765.9</ele>
        <time>2015-07-24T13:33:45Z</time>
      </trkpt>
      <trkpt lat="44.85841" lon="5.97749">
        <ele>1769.6</ele>
        <time>2015-07-24T13:33:50Z</time>
      </trkpt>
      <trkpt lat="44.85845" lon="5.97749">
        <ele>1772.6</ele>
        <time>2015-07-24T13:33:55Z</time>
      </trkpt>
      <trkpt lat="44.85842" lon="5.97749">
        <ele>1771.6</ele>
        <time>2015-07-24T13:34:00Z</time>
      </trkpt>
      <trkpt lat="44.85844" lon="5.9775">
        <ele>1773.4</ele>
        <time>2015-07-24T13:34:05Z</time>
      </trkpt>
      <trkpt lat="44.85844" lon="5.97751">
        <ele>1777</ele>
        <time>2015-07-24T13:34:10Z</time>
      </trkpt>
      <trkpt lat="44.85845" lon="5.9775">
        <ele>1779.6</ele>
        <time>2015-07-24T13:34:15Z</time>
      </trkpt>
      <trkpt lat="44.85846" lon="5.97749">
        <ele>1778.2</ele>
        <time>2015-07-24T13:34:20Z</time>
      </trkpt>
      <trkpt lat="44.8584" lon="5.97748">
        <ele>1775.8</ele>
        <time>2015-07-24T13:34:25Z</time>
      </trkpt>
      <trkpt lat="44.85832" lon="5.97748">
        <ele>1770.9</ele>
        <time>2015-07-24T13:34:30Z</time>
      </trkpt>
      <trkpt lat="44.85835" lon="5.97749">
        <ele>1768.5</ele>
        <time>2015-07-24T13:34:35Z</time>
      </trkpt>
      <trkpt lat="44.85836" lon="5.97748">
        <ele>1765.5</ele>
        <time>2015-07-24T13:34:40Z</time>
      </trkpt>
      <trkpt lat="44.85836" lon="5.97749">
        <ele>1762.6</ele>
        <time>2015-07-24T13:34:45Z</time>
      </trkpt>
      <trkpt lat="44.8584" lon="5.97749">
        <ele>1754.8</ele>
        <time>2015-07-24T13:34:50Z</time>
      </trkpt>
      <trkpt lat="44.85838" lon="5.97749">
        <ele>1752.1</ele>
        <time>2015-07-24T13:34:55Z</time>
      </trkpt>
      <trkpt lat="44.85839" lon="5.97747">
        <ele>1751.3</ele>
        <time>2015-07-24T13:35:01Z</time>
      </trkpt>
      <trkpt lat="44.85839" lon="5.97748">
        <ele>1749.8</ele>
        <time>2015-07-24T13:35:06Z</time>
      </trkpt>
      <trkpt lat="44.85835" lon="5.97746">
        <ele>1749.1</ele>
        <time>2015-07-24T13:35:11Z</time>
      </trkpt>
      <trkpt lat="44.8583" lon="5.97745">
        <ele>1754.4</ele>
        <time>2015-07-24T13:35:16Z</time>
      </trkpt>
      <trkpt lat="44.85832" lon="5.97745">
        <ele>1755.9</ele>
        <time>2015-07-24T13:35:21Z</time>
      </trkpt>
      <trkpt lat="44.85832" lon="5.97746">
        <ele>1752.1</ele>
        <time>2015-07-24T13:35:26Z</time>
      </trkpt>
      <trkpt lat="44.85832" lon="5.97745">
        <ele>1752.9</ele>
        <time>2015-07-24T13:35:31Z</time>
      </trkpt>
      <trkpt lat="44.85832" lon="5.97744">
        <ele>1755.9</ele>
        <time>2015-07-24T13:35:36Z</time>
      </trkpt>
      <trkpt lat="44.85833" lon="5.97744">
        <ele>1755.7</ele>
        <time>2015-07-24T13:35:41Z</time>
      </trkpt>
      <trkpt lat="44.85834" lon="5.97745">
        <ele>1760.5</ele>
        <time>2015-07-24T13:35:46Z</time>
      </trkpt>
      <trkpt lat="44.85835" lon="5.97744">
        <ele>1763.8</ele>
        <time>2015-07-24T13:35:51Z</time>
      </trkpt>
      <trkpt lat="44.85836" lon="5.97745">
        <ele>1766.2</ele>
        <time>2015-07-24T13:35:56Z</time>
      </trkpt>
      <trkpt lat="44.85836" lon="5.97743">
        <ele>1769</ele>
        <time>2015-07-24T13:36:01Z</time>
      </trkpt>
      <trkpt lat="44.85838" lon="5.97744">
        <ele>1769</ele>
        <time>2015-07-24T13:36:06Z</time>
      </trkpt>
      <trkpt lat="44.85841" lon="5.97745">
        <ele>1766</ele>
        <time>2015-07-24T13:36:11Z</time>
      </trkpt>
      <trkpt lat="44.85843" lon="5.97744">
        <ele>1769.3</ele>
        <time>2015-07-24T13:36:16Z</time>
      </trkpt>
      <trkpt lat="44.85841" lon="5.97743">
        <ele>1771.2</ele>
        <time>2015-07-24T13:36:21Z</time>
      </trkpt>
      <trkpt lat="44.85841" lon="5.97745">
        <ele>1772</ele>
        <time>2015-07-24T13:36:26Z</time>
      </trkpt>
      <trkpt lat="44.85842" lon="5.97747">
        <ele>1773.9</ele>
        <time>2015-07-24T13:36:31Z</time>
      </trkpt>
      <trkpt lat="44.85842" lon="5.97743">
        <ele>1777.1</ele>
        <time>2015-07-24T13:36:36Z</time>
      </trkpt>
      <trkpt lat="44.85841" lon="5.9774">
        <ele>1779</ele>
        <time>2015-07-24T13:36:41Z</time>
      </trkpt>
      <trkpt lat="44.85839" lon="5.97741">
        <ele>1774</ele>
        <time>2015-07-24T13:36:46Z</time>
      </trkpt>
      <trkpt lat="44.85836" lon="5.97745">
        <ele>1768.9</ele>
        <time>2015-07-24T13:36:51Z</time>
      </trkpt>
      <trkpt lat="44.85841" lon="5.97748">
        <ele>1768.4</ele>
        <time>2015-07-24T13:36:56Z</time>
      </trkpt>
      <trkpt lat="44.8583" lon="5.97745">
        <ele>1760.1</ele>
        <time>2015-07-24T13:37:01Z</time>
      </trkpt>
      <trkpt lat="44.85821" lon="5.97743">
        <ele>1752.2</ele>
        <time>2015-07-24T13:37:06Z</time>
      </trkpt>
      <trkpt lat="44.85813" lon="5.97741">
        <ele>1755.9</ele>
        <time>2015-07-24T13:37:11Z</time>
      </trkpt>
      <trkpt lat="44.85807" lon="5.97739">
        <ele>1760.6</ele>
        <time>2015-07-24T13:37:16Z</time>
      </trkpt>
      <trkpt lat="44.85802" lon="5.97737">
        <ele>1763.6</ele>
        <time>2015-07-24T13:37:21Z</time>
      </trkpt>
      <trkpt lat="44.85799" lon="5.97738">
        <ele>1764.6</ele>
        <time>2015-07-24T13:37:26Z</time>
      </trkpt>
      <trkpt lat="44.85795" lon="5.97736">
        <ele>1765.2</ele>
        <time>2015-07-24T13:37:31Z</time>
      </trkpt>
      <trkpt lat="44.8579" lon="5.97735">
        <ele>1764.7</ele>
        <time>2015-07-24T13:37:36Z</time>
      </trkpt>
      <trkpt lat="44.85787" lon="5.9773">
        <ele>1764.5</ele>
        <time>2015-07-24T13:37:41Z</time>
      </trkpt>
      <trkpt lat="44.85793" lon="5.9773">
        <ele>1763.2</ele>
        <time>2015-07-24T13:37:46Z</time>
      </trkpt>
      <trkpt lat="44.85799" lon="5.97731">
        <ele>1763.6</ele>
        <time>2015-07-24T13:37:51Z</time>
      </trkpt>
      <trkpt lat="44.85804" lon="5.97732">
        <ele>1763</ele>
        <time>2015-07-24T13:37:56Z</time>
      </trkpt>
      <trkpt lat="44.85809" lon="5.97733">
        <ele>1762.5</ele>
        <time>2015-07-24T13:38:01Z</time>
      </trkpt>
      <trkpt lat="44.85814" lon="5.97734">
        <ele>1764.1</ele>
        <time>2015-07-24T13:38:06Z</time>
      </trkpt>
      <trkpt lat="44.8582" lon="5.97735">
        <ele>1764.9</ele>
        <time>2015-07-24T13:38:11Z</time>
      </trkpt>
      <trkpt lat="44.85826" lon="5.97737">
        <ele>1764.2</ele>
        <time>2015-07-24T13:38:16Z</time>
      </trkpt>
      <trkpt lat="44.85832" lon="5.97736">
        <ele>1766.8</ele>
        <time>2015-07-24T13:38:21Z</time>
      </trkpt>
      <trkpt lat="44.85838" lon="5.97737">
        <ele>1767.6</ele>
        <time>2015-07-24T13:38:26Z</time>
      </trkpt>
      <trkpt lat="44.85843" lon="5.97738">
        <ele>1769.5</ele>
        <time>2015-07-24T13:38:31Z</time>
      </trkpt>
      <trkpt lat="44.85849" lon="5.97748">
        <ele>1764</ele>
        <time>2015-07-24T13:38:36Z</time>
      </trkpt>
      <trkpt lat="44.85852" lon="5.97756">
        <ele>1761.7</ele>
        <time>2015-07-24T13:38:41Z</time>
      </trkpt>
      <trkpt lat="44.85855" lon="5.97762">
        <ele>1760.8</ele>
        <time>2015-07-24T13:38:46Z</time>
      </trkpt>
      <trkpt lat="44.85862" lon="5.97765">
        <ele>1761.7</ele>
        <time>2015-07-24T13:38:51Z</time>
      </trkpt>
      <trkpt lat="44.85867" lon="5.97767">
        <ele>1760.9</ele>
        <time>2015-07-24T13:38:56Z</time>
      </trkpt>
      <trkpt lat="44.8587" lon="5.97765">
        <ele>1761</ele>
        <time>2015-07-24T13:39:01Z</time>
      </trkpt>
      <trkpt lat="44.85868" lon="5.97764">
        <ele>1760.6</ele>
        <time>2015-07-24T13:39:06Z</time>
      </trkpt>
      <trkpt lat="44.85867" lon="5.97765">
        <ele>1760.5</ele>
        <time>2015-07-24T13:39:11Z</time>
      </trkpt>
      <trkpt lat="44.85867" lon="5.97766">
        <ele>1758.9</ele>
        <time>2015-07-24T13:39:16Z</time>
      </trkpt>
      <trkpt lat="44.85865" lon="5.97766">
        <ele>1757.5</ele>
        <time>2015-07-24T13:39:21Z</time>
      </trkpt>
      <trkpt lat="44.85865" lon="5.97765">
        <ele>1756.8</ele>
        <time>2015-07-24T13:39:26Z</time>
      </trkpt>
      <trkpt lat="44.85865" lon="5.97766">
        <ele>1756.7</ele>
        <time>2015-07-24T13:39:31Z</time>
      </trkpt>
      <trkpt lat="44.85866" lon="5.97765">
        <ele>1757.1</ele>
        <time>2015-07-24T13:39:36Z</time>
      </trkpt>
      <trkpt lat="44.85865" lon="5.97767">
        <ele>1758.9</ele>
        <time>2015-07-24T13:39:41Z</time>
      </trkpt>
      <trkpt lat="44.85865" lon="5.97768">
        <ele>1759.5</ele>
        <time>2015-07-24T13:39:46Z</time>
      </trkpt>
      <trkpt lat="44.85865" lon="5.97768">
        <ele>1760.4</ele>
        <time>2015-07-24T13:39:51Z</time>
      </trkpt>
      <trkpt lat="44.85865" lon="5.97768">
        <ele>1760.7</ele>
        <time>2015-07-24T13:39:56Z</time>
      </trkpt>
      <trkpt lat="44.8587" lon="5.97772">
        <ele>1761.4</ele>
        <time>2015-07-24T13:40:01Z</time>
      </trkpt>
      <trkpt lat="44.85874" lon="5.97779">
        <ele>1762.3</ele>
        <time>2015-07-24T13:40:06Z</time>
      </trkpt>
      <trkpt lat="44.85877" lon="5.97786">
        <ele>1764.4</ele>
        <time>2015-07-24T13:40:11Z</time>
      </trkpt>
      <trkpt lat="44.8588" lon="5.9779">
        <ele>1765.2</ele>
        <time>2015-07-24T13:40:16Z</time>
      </trkpt>
      <trkpt lat="44.85882" lon="5.97791">
        <ele>1764.2</ele>
        <time>2015-07-24T13:40:21Z</time>
      </trkpt>
      <trkpt lat="44.85883" lon="5.97791">
        <ele>1763.7</ele>
        <time>2015-07-24T13:40:26Z</time>
      </trkpt>
      <trkpt lat="44.85886" lon="5.97793">
        <ele>1762.3</ele>
        <time>2015-07-24T13:40:31Z</time>
      </trkpt>
      <trkpt lat="44.85887" lon="5.97793">
        <ele>1761.5</ele>
        <time>2015-07-24T13:40:36Z</time>
      </trkpt>
      <trkpt lat="44.85888" lon="5.97793">
        <ele>1761.1</ele>
        <time>2015-07-24T13:40:41Z</time>
      </trkpt>
      <trkpt lat="44.85889" lon="5.97793">
        <ele>1758.6</ele>
        <time>2015-07-24T13:40:46Z</time>
      </trkpt>
      <trkpt lat="44.8589" lon="5.97793">
        <ele>1756.2</ele>
        <time>2015-07-24T13:40:51Z</time>
      </trkpt>
      <trkpt lat="44.85892" lon="5.97793">
        <ele>1757.1</ele>
        <time>2015-07-24T13:40:56Z</time>
      </trkpt>
      <trkpt lat="44.85894" lon="5.978">
        <ele>1760.1</ele>
        <time>2015-07-24T13:41:01Z</time>
      </trkpt>
      <trkpt lat="44.85898" lon="5.97802">
        <ele>1762.4</ele>
        <time>2015-07-24T13:41:06Z</time>
      </trkpt>
      <trkpt lat="44.85898" lon="5.97802">
        <ele>1763.7</ele>
        <time>2015-07-24T13:41:11Z</time>
      </trkpt>
      <trkpt lat="44.85899" lon="5.97801">
        <ele>1762.8</ele>
        <time>2015-07-24T13:41:16Z</time>
      </trkpt>
      <trkpt lat="44.85902" lon="5.978">
        <ele>1763.3</ele>
        <time>2015-07-24T13:41:21Z</time>
      </trkpt>
      <trkpt lat="44.85904" lon="5.97796">
        <ele>1764.5</ele>
        <time>2015-07-24T13:41:26Z</time>
      </trkpt>
      <trkpt lat="44.85901" lon="5.978">
        <ele>1766.8</ele>
        <time>2015-07-24T13:41:31Z</time>
      </trkpt>
      <trkpt lat="44.85901" lon="5.97801">
        <ele>1766.4</ele>
        <time>2015-07-24T13:41:36Z</time>
      </trkpt>
      <trkpt lat="44.85901" lon="5.97802">
        <ele>1767.8</ele>
        <time>2015-07-24T13:41:41Z</time>
      </trkpt>
      <trkpt lat="44.85901" lon="5.97801">
        <ele>1770.8</ele>
        <time>2015-07-24T13:41:46Z</time>
      </trkpt>
      <trkpt lat="44.85902" lon="5.978">
        <ele>1769.8</ele>
        <time>2015-07-24T13:41:51Z</time>
      </trkpt>
      <trkpt lat="44.85902" lon="5.97798">
        <ele>1768.1</ele>
        <time>2015-07-24T13:41:56Z</time>
      </trkpt>
      <trkpt lat="44.85902" lon="5.97798">
        <ele>1767.5</ele>
        <time>2015-07-24T13:42:01Z</time>
      </trkpt>
      <trkpt lat="44.85902" lon="5.97798">
        <ele>1767.7</ele>
        <time>2015-07-24T13:42:06Z</time>
      </trkpt>
      <trkpt lat="44.85902" lon="5.97797">
        <ele>1768.6</ele>
        <time>2015-07-24T13:42:11Z</time>
      </trkpt>
      <trkpt lat="44.85903" lon="5.97797">
        <ele>1767.4</ele>
        <time>2015-07-24T13:42:16Z</time>
      </trkpt>
      <trkpt lat="44.85903" lon="5.97796">
        <ele>1766.2</ele>
        <time>2015-07-24T13:42:21Z</time>
      </trkpt>
      <trkpt lat="44.85903" lon="5.97795">
        <ele>1766.1</ele>
        <time>2015-07-24T13:42:26Z</time>
      </trkpt>
      <trkpt lat="44.85904" lon="5.97795">
        <ele>1765</ele>
        <time>2015-07-24T13:42:31Z</time>
      </trkpt>
      <trkpt lat="44.85903" lon="5.97794">
        <ele>1765.2</ele>
        <time>2015-07-24T13:42:36Z</time>
      </trkpt>
      <trkpt lat="44.85902" lon="5.97794">
        <ele>1765.3</ele>
        <time>2015-07-24T13:42:41Z</time>
      </trkpt>
      <trkpt lat="44.85902" lon="5.97793">
        <ele>1766.5</ele>
        <time>2015-07-24T13:42:46Z</time>
      </trkpt>
      <trkpt lat="44.85902" lon="5.97793">
        <ele>1766.7</ele>
        <time>2015-07-24T13:42:51Z</time>
      </trkpt>
      <trkpt lat="44.85902" lon="5.97794">
        <ele>1766.9</ele>
        <time>2015-07-24T13:42:56Z</time>
      </trkpt>
      <trkpt lat="44.85902" lon="5.97794">
        <ele>1767.3</ele>
        <time>2015-07-24T13:43:01Z</time>
      </trkpt>
      <trkpt lat="44.85902" lon="5.97794">
        <ele>1767.8</ele>
        <time>2015-07-24T13:43:06Z</time>
      </trkpt>
      <trkpt lat="44.85902" lon="5.97794">
        <ele>1768.1</ele>
        <time>2015-07-24T13:43:11Z</time>
      </trkpt>
      <trkpt lat="44.85903" lon="5.97793">
        <ele>1767.6</ele>
        <time>2015-07-24T13:43:16Z</time>
      </trkpt>
      <trkpt lat="44.85903" lon="5.97793">
        <ele>1767</ele>
        <time>2015-07-24T13:43:21Z</time>
      </trkpt>
      <trkpt lat="44.85903" lon="5.97793">
        <ele>1767.3</ele>
        <time>2015-07-24T13:43:26Z</time>
      </trkpt>
      <trkpt lat="44.85903" lon="5.97793">
        <ele>1767.8</ele>
        <time>2015-07-24T13:43:31Z</time>
      </trkpt>
      <trkpt lat="44.85903" lon="5.97793">
        <ele>1768.3</ele>
        <time>2015-07-24T13:43:36Z</time>
      </trkpt>
      <trkpt lat="44.85903" lon="5.97792">
        <ele>1768.4</ele>
        <time>2015-07-24T13:43:41Z</time>
      </trkpt>
      <trkpt lat="44.85903" lon="5.9779">
        <ele>1768.2</ele>
        <time>2015-07-24T13:43:46Z</time>
      </trkpt>
      <trkpt lat="44.85903" lon="5.97789">
        <ele>1767.3</ele>
        <time>2015-07-24T13:43:51Z</time>
      </trkpt>
      <trkpt lat="44.85904" lon="5.97789">
        <ele>1766.8</ele>
        <time>2015-07-24T13:43:56Z</time>
      </trkpt>
      <trkpt lat="44.85903" lon="5.97788">
        <ele>1766.6</ele>
        <time>2015-07-24T13:44:01Z</time>
      </trkpt>
      <trkpt lat="44.85902" lon="5.97787">
        <ele>1766.8</ele>
        <time>2015-07-24T13:44:06Z</time>
      </trkpt>
      <trkpt lat="44.85901" lon="5.97786">
        <ele>1766.1</ele>
        <time>2015-07-24T13:44:11Z</time>
      </trkpt>
      <trkpt lat="44.85901" lon="5.97785">
        <ele>1764.4</ele>
        <time>2015-07-24T13:44:16Z</time>
      </trkpt>
      <trkpt lat="44.85898" lon="5.97786">
        <ele>1767.2</ele>
        <time>2015-07-24T13:44:21Z</time>
      </trkpt>
      <trkpt lat="44.85894" lon="5.97789">
        <ele>1774.7</ele>
        <time>2015-07-24T13:44:26Z</time>
      </trkpt>
      <trkpt lat="44.85894" lon="5.97788">
        <ele>1774.7</ele>
        <time>2015-07-24T13:44:31Z</time>
      </trkpt>
      <trkpt lat="44.85895" lon="5.97786">
        <ele>1772.9</ele>
        <time>2015-07-24T13:44:36Z</time>
      </trkpt>
      <trkpt lat="44.85894" lon="5.97783">
        <ele>1772.8</ele>
        <time>2015-07-24T13:44:41Z</time>
      </trkpt>
      <trkpt lat="44.85894" lon="5.97782">
        <ele>1771.3</ele>
        <time>2015-07-24T13:44:46Z</time>
      </trkpt>
      <trkpt lat="44.85893" lon="5.97781">
        <ele>1771.4</ele>
        <time>2015-07-24T13:44:51Z</time>
      </trkpt>
      <trkpt lat="44.85893" lon="5.9778">
        <ele>1769.2</ele>
        <time>2015-07-24T13:44:56Z</time>
      </trkpt>
      <trkpt lat="44.85893" lon="5.97778">
        <ele>1768.2</ele>
        <time>2015-07-24T13:45:01Z</time>
      </trkpt>
      <trkpt lat="44.85891" lon="5.97776">
        <ele>1766.6</ele>
        <time>2015-07-24T13:45:06Z</time>
      </trkpt>
      <trkpt lat="44.85891" lon="5.97773">
        <ele>1766.4</ele>
        <time>2015-07-24T13:45:11Z</time>
      </trkpt>
      <trkpt lat="44.85891" lon="5.97772">
        <ele>1766.5</ele>
        <time>2015-07-24T13:45:16Z</time>
      </trkpt>
      <trkpt lat="44.8589" lon="5.97773">
        <ele>1765.4</ele>
        <time>2015-07-24T13:45:21Z</time>
      </trkpt>
      <trkpt lat="44.8589" lon="5.97773">
        <ele>1766</ele>
        <time>2015-07-24T13:45:26Z</time>
      </trkpt>
      <trkpt lat="44.8589" lon="5.97772">
        <ele>1766</ele>
        <time>2015-07-24T13:45:31Z</time>
      </trkpt>
      <trkpt lat="44.8589" lon="5.97772">
        <ele>1765.4</ele>
        <time>2015-07-24T13:45:36Z</time>
      </trkpt>
      <trkpt lat="44.85891" lon="5.97772">
        <ele>1764.5</ele>
        <time>2015-07-24T13:45:41Z</time>
      </trkpt>
      <trkpt lat="44.8589" lon="5.97771">
        <ele>1765</ele>
        <time>2015-07-24T13:45:46Z</time>
      </trkpt>
      <trkpt lat="44.85891" lon="5.97771">
        <ele>1763.9</ele>
        <time>2015-07-24T13:45:51Z</time>
      </trkpt>
      <trkpt lat="44.85891" lon="5.97773">
        <ele>1764.1</ele>
        <time>2015-07-24T13:45:56Z</time>
      </trkpt>
      <trkpt lat="44.85891" lon="5.97773">
        <ele>1763.7</ele>
        <time>2015-07-24T13:46:01Z</time>
      </trkpt>
      <trkpt lat="44.85892" lon="5.97772">
        <ele>1762.8</ele>
        <time>2015-07-24T13:46:06Z</time>
      </trkpt>
      <trkpt lat="44.85893" lon="5.97772">
        <ele>1761.9</ele>
        <time>2015-07-24T13:46:11Z</time>
      </trkpt>
      <trkpt lat="44.85893" lon="5.97769">
        <ele>1759.4</ele>
        <time>2015-07-24T13:46:16Z</time>
      </trkpt>
      <trkpt lat="44.85891" lon="5.97768">
        <ele>1759</ele>
        <time>2015-07-24T13:46:21Z</time>
      </trkpt>
      <trkpt lat="44.85891" lon="5.97767">
        <ele>1758.2</ele>
        <time>2015-07-24T13:46:26Z</time>
      </trkpt>
      <trkpt lat="44.85891" lon="5.97768">
        <ele>1758.1</ele>
        <time>2015-07-24T13:46:31Z</time>
      </trkpt>
      <trkpt lat="44.85892" lon="5.97767">
        <ele>1758</ele>
        <time>2015-07-24T13:46:36Z</time>
      </trkpt>
      <trkpt lat="44.85892" lon="5.97767">
        <ele>1759.1</ele>
        <time>2015-07-24T13:46:41Z</time>
      </trkpt>
      <trkpt lat="44.85893" lon="5.97767">
        <ele>1758.2</ele>
        <time>2015-07-24T13:46:46Z</time>
      </trkpt>
      <trkpt lat="44.85893" lon="5.97767">
        <ele>1758.1</ele>
        <time>2015-07-24T13:46:51Z</time>
      </trkpt>
      <trkpt lat="44.85892" lon="5.97767">
        <ele>1759.6</ele>
        <time>2015-07-24T13:46:56Z</time>
      </trkpt>
      <trkpt lat="44.85891" lon="5.97768">
        <ele>1761.1</ele>
        <time>2015-07-24T13:47:01Z</time>
      </trkpt>
      <trkpt lat="44.85891" lon="5.97769">
        <ele>1760.9</ele>
        <time>2015-07-24T13:47:06Z</time>
      </trkpt>
      <trkpt lat="44.8589" lon="5.97769">
        <ele>1759.6</ele>
        <time>2015-07-24T13:47:11Z</time>
      </trkpt>
      <trkpt lat="44.85888" lon="5.97772">
        <ele>1757.3</ele>
        <time>2015-07-24T13:47:16Z</time>
      </trkpt>
      <trkpt lat="44.85885" lon="5.97774">
        <ele>1757.1</ele>
        <time>2015-07-24T13:47:21Z</time>
      </trkpt>
      <trkpt lat="44.85882" lon="5.97775">
        <ele>1758.7</ele>
        <time>2015-07-24T13:47:26Z</time>
      </trkpt>
      <trkpt lat="44.8588" lon="5.97778">
        <ele>1760.2</ele>
        <time>2015-07-24T13:47:31Z</time>
      </trkpt>
      <trkpt lat="44.8588" lon="5.97777">
        <ele>1760.5</ele>
        <time>2015-07-24T13:47:36Z</time>
      </trkpt>
      <trkpt lat="44.8588" lon="5.97778">
        <ele>1759.9</ele>
        <time>2015-07-24T13:47:41Z</time>
      </trkpt>
      <trkpt lat="44.8588" lon="5.97779">
        <ele>1759.3</ele>
        <time>2015-07-24T13:47:46Z</time>
      </trkpt>
      <trkpt lat="44.8588" lon="5.9778">
        <ele>1758.2</ele>
        <time>2015-07-24T13:47:51Z</time>
      </trkpt>
      <trkpt lat="44.85881" lon="5.9778">
        <ele>1757.4</ele>
        <time>2015-07-24T13:47:56Z</time>
      </trkpt>
      <trkpt lat="44.85881" lon="5.9778">
        <ele>1756.9</ele>
        <time>2015-07-24T13:48:01Z</time>
      </trkpt>
      <trkpt lat="44.85882" lon="5.97778">
        <ele>1756.3</ele>
        <time>2015-07-24T13:48:06Z</time>
      </trkpt>
      <trkpt lat="44.85883" lon="5.97778">
        <ele>1756.4</ele>
        <time>2015-07-24T13:48:11Z</time>
      </trkpt>
      <trkpt lat="44.85882" lon="5.97779">
        <ele>1757.3</ele>
        <time>2015-07-24T13:48:16Z</time>
      </trkpt>
      <trkpt lat="44.85881" lon="5.97779">
        <ele>1757.6</ele>
        <time>2015-07-24T13:48:21Z</time>
      </trkpt>
      <trkpt lat="44.8588" lon="5.9778">
        <ele>1757.2</ele>
        <time>2015-07-24T13:48:26Z</time>
      </trkpt>
      <trkpt lat="44.8588" lon="5.9778">
        <ele>1757.2</ele>
        <time>2015-07-24T13:48:31Z</time>
      </trkpt>
      <trkpt lat="44.8588" lon="5.9778">
        <ele>1757.5</ele>
        <time>2015-07-24T13:48:36Z</time>
      </trkpt>
      <trkpt lat="44.85882" lon="5.9778">
        <ele>1759.1</ele>
        <time>2015-07-24T13:48:41Z</time>
      </trkpt>
      <trkpt lat="44.85883" lon="5.97781">
        <ele>1762</ele>
        <time>2015-07-24T13:48:46Z</time>
      </trkpt>
      <trkpt lat="44.85882" lon="5.97781">
        <ele>1761.1</ele>
        <time>2015-07-24T13:48:51Z</time>
      </trkpt>
      <trkpt lat="44.85881" lon="5.97784">
        <ele>1761.3</ele>
        <time>2015-07-24T13:48:56Z</time>
      </trkpt>
      <trkpt lat="44.85882" lon="5.97785">
        <ele>1763.5</ele>
        <time>2015-07-24T13:49:01Z</time>
      </trkpt>
      <trkpt lat="44.85883" lon="5.97784">
        <ele>1763.9</ele>
        <time>2015-07-24T13:49:06Z</time>
      </trkpt>
      <trkpt lat="44.85883" lon="5.97784">
        <ele>1762.8</ele>
        <time>2015-07-24T13:49:11Z</time>
      </trkpt>
      <trkpt lat="44.85882" lon="5.97785">
        <ele>1762</ele>
        <time>2015-07-24T13:49:16Z</time>
      </trkpt>
      <trkpt lat="44.85881" lon="5.97786">
        <ele>1762.1</ele>
        <time>2015-07-24T13:49:21Z</time>
      </trkpt>
      <trkpt lat="44.85884" lon="5.97782">
        <ele>1760.6</ele>
        <time>2015-07-24T13:49:26Z</time>
      </trkpt>
      <trkpt lat="44.85886" lon="5.9778">
        <ele>1762.4</ele>
        <time>2015-07-24T13:49:31Z</time>
      </trkpt>
      <trkpt lat="44.85887" lon="5.97776">
        <ele>1765.7</ele>
        <time>2015-07-24T13:49:36Z</time>
      </trkpt>
      <trkpt lat="44.85888" lon="5.97774">
        <ele>1768</ele>
        <time>2015-07-24T13:49:41Z</time>
      </trkpt>
      <trkpt lat="44.8589" lon="5.97772">
        <ele>1766.5</ele>
        <time>2015-07-24T13:49:46Z</time>
      </trkpt>
      <trkpt lat="44.85891" lon="5.97772">
        <ele>1761.6</ele>
        <time>2015-07-24T13:49:51Z</time>
      </trkpt>
      <trkpt lat="44.8589" lon="5.97771">
        <ele>1759.9</ele>
        <time>2015-07-24T13:49:56Z</time>
      </trkpt>
      <trkpt lat="44.85889" lon="5.97771">
        <ele>1761.9</ele>
        <time>2015-07-24T13:50:01Z</time>
      </trkpt>
      <trkpt lat="44.85889" lon="5.97771">
        <ele>1760.3</ele>
        <time>2015-07-24T13:50:06Z</time>
      </trkpt>
      <trkpt lat="44.85888" lon="5.97772">
        <ele>1759.8</ele>
        <time>2015-07-24T13:50:11Z</time>
      </trkpt>
      <trkpt lat="44.85887" lon="5.97773">
        <ele>1760.9</ele>
        <time>2015-07-24T13:50:16Z</time>
      </trkpt>
      <trkpt lat="44.85886" lon="5.97774">
        <ele>1762.2</ele>
        <time>2015-07-24T13:50:21Z</time>
      </trkpt>
      <trkpt lat="44.85887" lon="5.97773">
        <ele>1761.1</ele>
        <time>2015-07-24T13:50:26Z</time>
      </trkpt>
      <trkpt lat="44.85887" lon="5.97772">
        <ele>1760.7</ele>
        <time>2015-07-24T13:50:31Z</time>
      </trkpt>
      <trkpt lat="44.85887" lon="5.97771">
        <ele>1761.5</ele>
        <time>2015-07-24T13:50:36Z</time>
      </trkpt>
      <trkpt lat="44.85887" lon="5.9777">
        <ele>1761.8</ele>
        <time>2015-07-24T13:50:41Z</time>
      </trkpt>
      <trkpt lat="44.85886" lon="5.97769">
        <ele>1762.7</ele>
        <time>2015-07-24T13:50:46Z</time>
      </trkpt>
      <trkpt lat="44.85887" lon="5.97768">
        <ele>1762.3</ele>
        <time>2015-07-24T13:50:51Z</time>
      </trkpt>
      <trkpt lat="44.85887" lon="5.97768">
        <ele>1762.4</ele>
        <time>2015-07-24T13:50:56Z</time>
      </trkpt>
      <trkpt lat="44.85887" lon="5.97768">
        <ele>1763.7</ele>
        <time>2015-07-24T13:51:01Z</time>
      </trkpt>
      <trkpt lat="44.85886" lon="5.9777">
        <ele>1763.3</ele>
        <time>2015-07-24T13:51:06Z</time>
      </trkpt>
      <trkpt lat="44.85886" lon="5.97769">
        <ele>1762.5</ele>
        <time>2015-07-24T13:51:11Z</time>
      </trkpt>
      <trkpt lat="44.85886" lon="5.9777">
        <ele>1766.6</ele>
        <time>2015-07-24T13:51:16Z</time>
      </trkpt>
      <trkpt lat="44.85886" lon="5.97772">
        <ele>1768.8</ele>
        <time>2015-07-24T13:51:21Z</time>
      </trkpt>
      <trkpt lat="44.85885" lon="5.97774">
        <ele>1770</ele>
        <time>2015-07-24T13:51:26Z</time>
      </trkpt>
      <trkpt lat="44.85885" lon="5.97775">
        <ele>1770.9</ele>
        <time>2015-07-24T13:51:31Z</time>
      </trkpt>
      <trkpt lat="44.85887" lon="5.97775">
        <ele>1770.6</ele>
        <time>2015-07-24T13:51:36Z</time>
      </trkpt>
      <trkpt lat="44.85889" lon="5.97774">
        <ele>1770.6</ele>
        <time>2015-07-24T13:51:41Z</time>
      </trkpt>
      <trkpt lat="44.8589" lon="5.97774">
        <ele>1770.5</ele>
        <time>2015-07-24T13:51:46Z</time>
      </trkpt>
      <trkpt lat="44.8589" lon="5.97773">
        <ele>1770</ele>
        <time>2015-07-24T13:51:51Z</time>
      </trkpt>
      <trkpt lat="44.85891" lon="5.97773">
        <ele>1769.2</ele>
        <time>2015-07-24T13:51:56Z</time>
      </trkpt>
      <trkpt lat="44.8589" lon="5.97773">
        <ele>1768.2</ele>
        <time>2015-07-24T13:52:01Z</time>
      </trkpt>
      <trkpt lat="44.8589" lon="5.97772">
        <ele>1766.3</ele>
        <time>2015-07-24T13:52:06Z</time>
      </trkpt>
      <trkpt lat="44.85893" lon="5.9777">
        <ele>1762.6</ele>
        <time>2015-07-24T13:52:11Z</time>
      </trkpt>
      <trkpt lat="44.85892" lon="5.97772">
        <ele>1765.7</ele>
        <time>2015-07-24T13:52:16Z</time>
      </trkpt>
      <trkpt lat="44.85893" lon="5.97771">
        <ele>1765.1</ele>
        <time>2015-07-24T13:52:21Z</time>
      </trkpt>
      <trkpt lat="44.85894" lon="5.97772">
        <ele>1765.5</ele>
        <time>2015-07-24T13:52:26Z</time>
      </trkpt>
      <trkpt lat="44.85894" lon="5.97771">
        <ele>1764.9</ele>
        <time>2015-07-24T13:52:31Z</time>
      </trkpt>
      <trkpt lat="44.85894" lon="5.97771">
        <ele>1765.5</ele>
        <time>2015-07-24T13:52:36Z</time>
      </trkpt>
      <trkpt lat="44.85894" lon="5.97771">
        <ele>1765.3</ele>
        <time>2015-07-24T13:52:41Z</time>
      </trkpt>
      <trkpt lat="44.85894" lon="5.9777">
        <ele>1763.9</ele>
        <time>2015-07-24T13:52:46Z</time>
      </trkpt>
      <trkpt lat="44.85894" lon="5.97769">
        <ele>1763.7</ele>
        <time>2015-07-24T13:52:51Z</time>
      </trkpt>
      <trkpt lat="44.85894" lon="5.97769">
        <ele>1763.7</ele>
        <time>2015-07-24T13:52:56Z</time>
      </trkpt>
      <trkpt lat="44.85894" lon="5.97769">
        <ele>1764.5</ele>
        <time>2015-07-24T13:53:01Z</time>
      </trkpt>
      <trkpt lat="44.85894" lon="5.97769">
        <ele>1764.4</ele>
        <time>2015-07-24T13:53:06Z</time>
      </trkpt>
      <trkpt lat="44.85894" lon="5.97768">
        <ele>1764.4</ele>
        <time>2015-07-24T13:53:11Z</time>
      </trkpt>
      <trkpt lat="44.85895" lon="5.97768">
        <ele>1763.5</ele>
        <time>2015-07-24T13:53:16Z</time>
      </trkpt>
      <trkpt lat="44.85895" lon="5.97767">
        <ele>1762.6</ele>
        <time>2015-07-24T13:53:21Z</time>
      </trkpt>
      <trkpt lat="44.85895" lon="5.97767">
        <ele>1762.5</ele>
        <time>2015-07-24T13:53:26Z</time>
      </trkpt>
      <trkpt lat="44.85896" lon="5.97765">
        <ele>1761.3</ele>
        <time>2015-07-24T13:53:31Z</time>
      </trkpt>
      <trkpt lat="44.85897" lon="5.97765">
        <ele>1761.8</ele>
        <time>2015-07-24T13:53:36Z</time>
      </trkpt>
      <trkpt lat="44.85896" lon="5.97766">
        <ele>1762</ele>
        <time>2015-07-24T13:53:41Z</time>
      </trkpt>
      <trkpt lat="44.85896" lon="5.97766">
        <ele>1761.7</ele>
        <time>2015-07-24T13:53:46Z</time>
      </trkpt>
      <trkpt lat="44.85897" lon="5.97767">
        <ele>1761.9</ele>
        <time>2015-07-24T13:53:51Z</time>
      </trkpt>
      <trkpt lat="44.85897" lon="5.97767">
        <ele>1759.8</ele>
        <time>2015-07-24T13:53:56Z</time>
      </trkpt>
      <trkpt lat="44.85897" lon="5.97767">
        <ele>1757.7</ele>
        <time>2015-07-24T13:54:01Z</time>
      </trkpt>
      <trkpt lat="44.85897" lon="5.97767">
        <ele>1758.4</ele>
        <time>2015-07-24T13:54:06Z</time>
      </trkpt>
      <trkpt lat="44.85897" lon="5.97767">
        <ele>1758.1</ele>
        <time>2015-07-24T13:54:11Z</time>
      </trkpt>
      <trkpt lat="44.85897" lon="5.97768">
        <ele>1757.5</ele>
        <time>2015-07-24T13:54:16Z</time>
      </trkpt>
      <trkpt lat="44.85896" lon="5.97769">
        <ele>1757.4</ele>
        <time>2015-07-24T13:54:21Z</time>
      </trkpt>
      <trkpt lat="44.85894" lon="5.97771">
        <ele>1759.9</ele>
        <time>2015-07-24T13:54:26Z</time>
      </trkpt>
      <trkpt lat="44.85893" lon="5.97773">
        <ele>1764.5</ele>
        <time>2015-07-24T13:54:31Z</time>
      </trkpt>
      <trkpt lat="44.85893" lon="5.97773">
        <ele>1765.5</ele>
        <time>2015-07-24T13:54:36Z</time>
      </trkpt>
      <trkpt lat="44.85893" lon="5.97772">
        <ele>1765.1</ele>
        <time>2015-07-24T13:54:41Z</time>
      </trkpt>
      <trkpt lat="44.85892" lon="5.97771">
        <ele>1766.1</ele>
        <time>2015-07-24T13:54:46Z</time>
      </trkpt>
      <trkpt lat="44.85892" lon="5.97771">
        <ele>1766.3</ele>
        <time>2015-07-24T13:54:51Z</time>
      </trkpt>
      <trkpt lat="44.85893" lon="5.97772">
        <ele>1766</ele>
        <time>2015-07-24T13:54:56Z</time>
      </trkpt>
      <trkpt lat="44.85893" lon="5.97772">
        <ele>1765</ele>
        <time>2015-07-24T13:55:01Z</time>
      </trkpt>
      <trkpt lat="44.85892" lon="5.97772">
        <ele>1763.8</ele>
        <time>2015-07-24T13:55:06Z</time>
      </trkpt>
      <trkpt lat="44.85892" lon="5.97771">
        <ele>1763.7</ele>
        <time>2015-07-24T13:55:11Z</time>
      </trkpt>
      <trkpt lat="44.85893" lon="5.9777">
        <ele>1761.8</ele>
        <time>2015-07-24T13:55:16Z</time>
      </trkpt>
      <trkpt lat="44.85893" lon="5.9777">
        <ele>1761.1</ele>
        <time>2015-07-24T13:55:21Z</time>
      </trkpt>
      <trkpt lat="44.85894" lon="5.9777">
        <ele>1760.2</ele>
        <time>2015-07-24T13:55:26Z</time>
      </trkpt>
      <trkpt lat="44.85894" lon="5.9777">
        <ele>1759.9</ele>
        <time>2015-07-24T13:55:31Z</time>
      </trkpt>
      <trkpt lat="44.85896" lon="5.97772">
        <ele>1759.4</ele>
        <time>2015-07-24T13:55:36Z</time>
      </trkpt>
      <trkpt lat="44.85896" lon="5.97772">
        <ele>1759.9</ele>
        <time>2015-07-24T13:55:41Z</time>
      </trkpt>
      <trkpt lat="44.85896" lon="5.97772">
        <ele>1759.8</ele>
        <time>2015-07-24T13:55:46Z</time>
      </trkpt>
      <trkpt lat="44.85897" lon="5.97774">
        <ele>1760.4</ele>
        <time>2015-07-24T13:55:51Z</time>
      </trkpt>
      <trkpt lat="44.85896" lon="5.97774">
        <ele>1761.6</ele>
        <time>2015-07-24T13:55:56Z</time>
      </trkpt>
      <trkpt lat="44.85896" lon="5.97773">
        <ele>1761.7</ele>
        <time>2015-07-24T13:56:01Z</time>
      </trkpt>
      <trkpt lat="44.85896" lon="5.97771">
        <ele>1761.9</ele>
        <time>2015-07-24T13:56:06Z</time>
      </trkpt>
      <trkpt lat="44.85895" lon="5.9777">
        <ele>1764.1</ele>
        <time>2015-07-24T13:56:11Z</time>
      </trkpt>
      <trkpt lat="44.85894" lon="5.97769">
        <ele>1764.6</ele>
        <time>2015-07-24T13:56:16Z</time>
      </trkpt>
      <trkpt lat="44.85894" lon="5.97767">
        <ele>1765.1</ele>
        <time>2015-07-24T13:56:21Z</time>
      </trkpt>
      <trkpt lat="44.85891" lon="5.97764">
        <ele>1764.1</ele>
        <time>2015-07-24T13:56:26Z</time>
      </trkpt>
      <trkpt lat="44.85891" lon="5.97763">
        <ele>1762.8</ele>
        <time>2015-07-24T13:56:31Z</time>
      </trkpt>
      <trkpt lat="44.85892" lon="5.97762">
        <ele>1762</ele>
        <time>2015-07-24T13:56:36Z</time>
      </trkpt>
      <trkpt lat="44.85891" lon="5.97762">
        <ele>1763.1</ele>
        <time>2015-07-24T13:56:41Z</time>
      </trkpt>
      <trkpt lat="44.85891" lon="5.97763">
        <ele>1761.4</ele>
        <time>2015-07-24T13:56:46Z</time>
      </trkpt>
      <trkpt lat="44.85891" lon="5.97763">
        <ele>1761.5</ele>
        <time>2015-07-24T13:56:51Z</time>
      </trkpt>
      <trkpt lat="44.85891" lon="5.97764">
        <ele>1762.1</ele>
        <time>2015-07-24T13:56:56Z</time>
      </trkpt>
      <trkpt lat="44.8589" lon="5.97765">
        <ele>1762.7</ele>
        <time>2015-07-24T13:57:01Z</time>
      </trkpt>
      <trkpt lat="44.8589" lon="5.97766">
        <ele>1763.1</ele>
        <time>2015-07-24T13:57:06Z</time>
      </trkpt>
      <trkpt lat="44.8589" lon="5.97766">
        <ele>1762.6</ele>
        <time>2015-07-24T13:57:11Z</time>
      </trkpt>
      <trkpt lat="44.8589" lon="5.97766">
        <ele>1763.6</ele>
        <time>2015-07-24T13:57:16Z</time>
      </trkpt>
      <trkpt lat="44.8589" lon="5.97766">
        <ele>1764.9</ele>
        <time>2015-07-24T13:57:21Z</time>
      </trkpt>
      <trkpt lat="44.8589" lon="5.97767">
        <ele>1766.1</ele>
        <time>2015-07-24T13:57:26Z</time>
      </trkpt>
      <trkpt lat="44.85889" lon="5.97769">
        <ele>1767.2</ele>
        <time>2015-07-24T13:57:31Z</time>
      </trkpt>
      <trkpt lat="44.85889" lon="5.97769">
        <ele>1767.5</ele>
        <time>2015-07-24T13:57:36Z</time>
      </trkpt>
      <trkpt lat="44.8589" lon="5.97769">
        <ele>1766.4</ele>
        <time>2015-07-24T13:57:41Z</time>
      </trkpt>
      <trkpt lat="44.8589" lon="5.97769">
        <ele>1764.9</ele>
        <time>2015-07-24T13:57:46Z</time>
      </trkpt>
      <trkpt lat="44.8589" lon="5.97768">
        <ele>1763.1</ele>
        <time>2015-07-24T13:57:51Z</time>
      </trkpt>
      <trkpt lat="44.85892" lon="5.97769">
        <ele>1764.3</ele>
        <time>2015-07-24T13:57:56Z</time>
      </trkpt>
      <trkpt lat="44.85894" lon="5.97775">
        <ele>1764.7</ele>
        <time>2015-07-24T13:58:01Z</time>
      </trkpt>
      <trkpt lat="44.85898" lon="5.97782">
        <ele>1764.7</ele>
        <time>2015-07-24T13:58:06Z</time>
      </trkpt>
      <trkpt lat="44.85899" lon="5.97785">
        <ele>1764.4</ele>
        <time>2015-07-24T13:58:11Z</time>
      </trkpt>
      <trkpt lat="44.85899" lon="5.97785">
        <ele>1764.3</ele>
        <time>2015-07-24T13:58:16Z</time>
      </trkpt>
      <trkpt lat="44.859" lon="5.97785">
        <ele>1764.6</ele>
        <time>2015-07-24T13:58:21Z</time>
      </trkpt>
      <trkpt lat="44.85899" lon="5.97784">
        <ele>1764.4</ele>
        <time>2015-07-24T13:58:26Z</time>
      </trkpt>
      <trkpt lat="44.859" lon="5.97783">
        <ele>1764.6</ele>
        <time>2015-07-24T13:58:31Z</time>
      </trkpt>
      <trkpt lat="44.859" lon="5.97782">
        <ele>1765.9</ele>
        <time>2015-07-24T13:58:36Z</time>
      </trkpt>
      <trkpt lat="44.85902" lon="5.97786">
        <ele>1766.4</ele>
        <time>2015-07-24T13:58:41Z</time>
      </trkpt>
      <trkpt lat="44.85903" lon="5.97789">
        <ele>1766.3</ele>
        <time>2015-07-24T13:58:46Z</time>
      </trkpt>
      <trkpt lat="44.85904" lon="5.97793">
        <ele>1767.4</ele>
        <time>2015-07-24T13:58:51Z</time>
      </trkpt>
      <trkpt lat="44.85905" lon="5.97794">
        <ele>1764.7</ele>
        <time>2015-07-24T13:58:56Z</time>
      </trkpt>
      <trkpt lat="44.85905" lon="5.97794">
        <ele>1763.9</ele>
        <time>2015-07-24T13:59:01Z</time>
      </trkpt>
      <trkpt lat="44.85904" lon="5.97795">
        <ele>1764.4</ele>
        <time>2015-07-24T13:59:06Z</time>
      </trkpt>
      <trkpt lat="44.85903" lon="5.97796">
        <ele>1764.5</ele>
        <time>2015-07-24T13:59:11Z</time>
      </trkpt>
      <trkpt lat="44.85901" lon="5.97799">
        <ele>1763.1</ele>
        <time>2015-07-24T13:59:16Z</time>
      </trkpt>
      <trkpt lat="44.85901" lon="5.978">
        <ele>1761.8</ele>
        <time>2015-07-24T13:59:21Z</time>
      </trkpt>
      <trkpt lat="44.85898" lon="5.97802">
        <ele>1760.9</ele>
        <time>2015-07-24T13:59:26Z</time>
      </trkpt>
      <trkpt lat="44.85895" lon="5.97805">
        <ele>1761.7</ele>
        <time>2015-07-24T13:59:31Z</time>
      </trkpt>
      <trkpt lat="44.85895" lon="5.97805">
        <ele>1761.7</ele>
        <time>2015-07-24T13:59:36Z</time>
      </trkpt>
      <trkpt lat="44.85894" lon="5.97805">
        <ele>1761.9</ele>
        <time>2015-07-24T13:59:41Z</time>
      </trkpt>
      <trkpt lat="44.85891" lon="5.97801">
        <ele>1761.4</ele>
        <time>2015-07-24T13:59:46Z</time>
      </trkpt>
      <trkpt lat="44.85889" lon="5.97801">
        <ele>1763.4</ele>
        <time>2015-07-24T13:59:51Z</time>
      </trkpt>
      <trkpt lat="44.85886" lon="5.97796">
        <ele>1762.5</ele>
        <time>2015-07-24T13:59:56Z</time>
      </trkpt>
      <trkpt lat="44.85884" lon="5.97791">
        <ele>1763</ele>
        <time>2015-07-24T14:00:01Z</time>
      </trkpt>
      <trkpt lat="44.85884" lon="5.97792">
        <ele>1762.9</ele>
        <time>2015-07-24T14:00:06Z</time>
      </trkpt>
      <trkpt lat="44.85884" lon="5.97792">
        <ele>1764</ele>
        <time>2015-07-24T14:00:11Z</time>
      </trkpt>
      <trkpt lat="44.85882" lon="5.97793">
        <ele>1765.3</ele>
        <time>2015-07-24T14:00:16Z</time>
      </trkpt>
      <trkpt lat="44.85881" lon="5.97796">
        <ele>1768.9</ele>
        <time>2015-07-24T14:00:21Z</time>
      </trkpt>
      <trkpt lat="44.8588" lon="5.97795">
        <ele>1769.1</ele>
        <time>2015-07-24T14:00:26Z</time>
      </trkpt>
      <trkpt lat="44.85881" lon="5.97786">
        <ele>1769</ele>
        <time>2015-07-24T14:00:31Z</time>
      </trkpt>
      <trkpt lat="44.8588" lon="5.97785">
        <ele>1767.8</ele>
        <time>2015-07-24T14:00:36Z</time>
      </trkpt>
      <trkpt lat="44.85879" lon="5.97786">
        <ele>1768.1</ele>
        <time>2015-07-24T14:00:41Z</time>
      </trkpt>
      <trkpt lat="44.8588" lon="5.97786">
        <ele>1768.2</ele>
        <time>2015-07-24T14:00:46Z</time>
      </trkpt>
      <trkpt lat="44.8588" lon="5.97787">
        <ele>1769.2</ele>
        <time>2015-07-24T14:00:51Z</time>
      </trkpt>
      <trkpt lat="44.85881" lon="5.97786">
        <ele>1772.4</ele>
        <time>2015-07-24T14:00:56Z</time>
      </trkpt>
      <trkpt lat="44.8588" lon="5.97784">
        <ele>1773.6</ele>
        <time>2015-07-24T14:01:01Z</time>
      </trkpt>
      <trkpt lat="44.85877" lon="5.97782">
        <ele>1770.4</ele>
        <time>2015-07-24T14:01:06Z</time>
      </trkpt>
      <trkpt lat="44.85878" lon="5.9778">
        <ele>1768</ele>
        <time>2015-07-24T14:01:11Z</time>
      </trkpt>
      <trkpt lat="44.85878" lon="5.97779">
        <ele>1765.6</ele>
        <time>2015-07-24T14:01:16Z</time>
      </trkpt>
      <trkpt lat="44.85877" lon="5.97781">
        <ele>1765.2</ele>
        <time>2015-07-24T14:01:21Z</time>
      </trkpt>
      <trkpt lat="44.85875" lon="5.97781">
        <ele>1765.8</ele>
        <time>2015-07-24T14:01:26Z</time>
      </trkpt>
      <trkpt lat="44.85873" lon="5.97783">
        <ele>1766.7</ele>
        <time>2015-07-24T14:01:31Z</time>
      </trkpt>
      <trkpt lat="44.85873" lon="5.97782">
        <ele>1766</ele>
        <time>2015-07-24T14:01:36Z</time>
      </trkpt>
      <trkpt lat="44.85872" lon="5.97777">
        <ele>1766.4</ele>
        <time>2015-07-24T14:01:41Z</time>
      </trkpt>
      <trkpt lat="44.8587" lon="5.97774">
        <ele>1764.9</ele>
        <time>2015-07-24T14:01:46Z</time>
      </trkpt>
      <trkpt lat="44.85869" lon="5.97771">
        <ele>1763.3</ele>
        <time>2015-07-24T14:01:51Z</time>
      </trkpt>
      <trkpt lat="44.85867" lon="5.97772">
        <ele>1763.2</ele>
        <time>2015-07-24T14:01:56Z</time>
      </trkpt>
      <trkpt lat="44.85867" lon="5.97772">
        <ele>1764.3</ele>
        <time>2015-07-24T14:02:01Z</time>
      </trkpt>
      <trkpt lat="44.85867" lon="5.97771">
        <ele>1763.3</ele>
        <time>2015-07-24T14:02:06Z</time>
      </trkpt>
      <trkpt lat="44.85868" lon="5.97769">
        <ele>1762.1</ele>
        <time>2015-07-24T14:02:11Z</time>
      </trkpt>
      <trkpt lat="44.85869" lon="5.97767">
        <ele>1759.7</ele>
        <time>2015-07-24T14:02:16Z</time>
      </trkpt>
      <trkpt lat="44.85869" lon="5.97765">
        <ele>1760.5</ele>
        <time>2015-07-24T14:02:21Z</time>
      </trkpt>
      <trkpt lat="44.8587" lon="5.97761">
        <ele>1761.5</ele>
        <time>2015-07-24T14:02:26Z</time>
      </trkpt>
      <trkpt lat="44.85871" lon="5.97762">
        <ele>1761.2</ele>
        <time>2015-07-24T14:02:31Z</time>
      </trkpt>
      <trkpt lat="44.85871" lon="5.97761">
        <ele>1761.3</ele>
        <time>2015-07-24T14:02:36Z</time>
      </trkpt>
      <trkpt lat="44.85873" lon="5.97759">
        <ele>1760.8</ele>
        <time>2015-07-24T14:02:41Z</time>
      </trkpt>
      <trkpt lat="44.85873" lon="5.97758">
        <ele>1761</ele>
        <time>2015-07-24T14:02:46Z</time>
      </trkpt>
      <trkpt lat="44.85873" lon="5.97757">
        <ele>1760.7</ele>
        <time>2015-07-24T14:02:51Z</time>
      </trkpt>
      <trkpt lat="44.85872" lon="5.97756">
        <ele>1762</ele>
        <time>2015-07-24T14:02:56Z</time>
      </trkpt>
      <trkpt lat="44.85872" lon="5.97756">
        <ele>1762.7</ele>
        <time>2015-07-24T14:03:01Z</time>
      </trkpt>
      <trkpt lat="44.85872" lon="5.97755">
        <ele>1763.2</ele>
        <time>2015-07-24T14:03:06Z</time>
      </trkpt>
      <trkpt lat="44.85872" lon="5.97755">
        <ele>1763.5</ele>
        <time>2015-07-24T14:03:11Z</time>
      </trkpt>
      <trkpt lat="44.85872" lon="5.97756">
        <ele>1762.7</ele>
        <time>2015-07-24T14:03:16Z</time>
      </trkpt>
      <trkpt lat="44.85871" lon="5.97756">
        <ele>1762.5</ele>
        <time>2015-07-24T14:03:21Z</time>
      </trkpt>
      <trkpt lat="44.85872" lon="5.97757">
        <ele>1760.9</ele>
        <time>2015-07-24T14:03:26Z</time>
      </trkpt>
      <trkpt lat="44.85873" lon="5.97759">
        <ele>1759.8</ele>
        <time>2015-07-24T14:03:31Z</time>
      </trkpt>
      <trkpt lat="44.85872" lon="5.97759">
        <ele>1762</ele>
        <time>2015-07-24T14:03:36Z</time>
      </trkpt>
      <trkpt lat="44.85872" lon="5.97759">
        <ele>1762.6</ele>
        <time>2015-07-24T14:03:41Z</time>
      </trkpt>
      <trkpt lat="44.85872" lon="5.9776">
        <ele>1764</ele>
        <time>2015-07-24T14:03:46Z</time>
      </trkpt>
      <trkpt lat="44.85873" lon="5.97759">
        <ele>1764.4</ele>
        <time>2015-07-24T14:03:51Z</time>
      </trkpt>
      <trkpt lat="44.85873" lon="5.97759">
        <ele>1763.7</ele>
        <time>2015-07-24T14:03:56Z</time>
      </trkpt>
      <trkpt lat="44.85872" lon="5.9776">
        <ele>1764.3</ele>
        <time>2015-07-24T14:04:01Z</time>
      </trkpt>
      <trkpt lat="44.85873" lon="5.9776">
        <ele>1764.1</ele>
        <time>2015-07-24T14:04:06Z</time>
      </trkpt>
      <trkpt lat="44.85875" lon="5.97762">
        <ele>1763.8</ele>
        <time>2015-07-24T14:04:11Z</time>
      </trkpt>
      <trkpt lat="44.85876" lon="5.97763">
        <ele>1762.3</ele>
        <time>2015-07-24T14:04:16Z</time>
      </trkpt>
      <trkpt lat="44.85877" lon="5.9777">
        <ele>1763.3</ele>
        <time>2015-07-24T14:04:21Z</time>
      </trkpt>
      <trkpt lat="44.85877" lon="5.97771">
        <ele>1762.4</ele>
        <time>2015-07-24T14:04:26Z</time>
      </trkpt>
      <trkpt lat="44.85877" lon="5.97771">
        <ele>1760</ele>
        <time>2015-07-24T14:04:31Z</time>
      </trkpt>
      <trkpt lat="44.85877" lon="5.9777">
        <ele>1757.9</ele>
        <time>2015-07-24T14:04:36Z</time>
      </trkpt>
      <trkpt lat="44.85877" lon="5.9777">
        <ele>1756.8</ele>
        <time>2015-07-24T14:04:41Z</time>
      </trkpt>
      <trkpt lat="44.85877" lon="5.9777">
        <ele>1756</ele>
        <time>2015-07-24T14:04:46Z</time>
      </trkpt>
      <trkpt lat="44.85877" lon="5.97771">
        <ele>1756</ele>
        <time>2015-07-24T14:04:51Z</time>
      </trkpt>
      <trkpt lat="44.85877" lon="5.97771">
        <ele>1754.7</ele>
        <time>2015-07-24T14:04:56Z</time>
      </trkpt>
      <trkpt lat="44.85946" lon="5.97808">
        <ele>1757.9</ele>
        <time>2015-07-25T06:13:31Z</time>
      </trkpt>
      <trkpt lat="44.85949" lon="5.97811">
        <ele>1757.9</ele>
        <time>2015-07-25T06:13:35Z</time>
      </trkpt>
      <trkpt lat="44.85955" lon="5.97812">
        <ele>1757.9</ele>
        <time>2015-07-25T06:13:40Z</time>
      </trkpt>
      <trkpt lat="44.85965" lon="5.97797">
        <ele>1757.9</ele>
        <time>2015-07-25T06:13:45Z</time>
      </trkpt>
      <trkpt lat="44.85958" lon="5.97794">
        <ele>1757.9</ele>
        <time>2015-07-25T06:13:51Z</time>
      </trkpt>
      <trkpt lat="44.85954" lon="5.97807">
        <ele>1782.5</ele>
        <time>2015-07-25T06:13:56Z</time>
      </trkpt>
      <trkpt lat="44.85951" lon="5.97799">
        <ele>1783.8</ele>
        <time>2015-07-25T06:14:01Z</time>
      </trkpt>
      <trkpt lat="44.85947" lon="5.97791">
        <ele>1784.3</ele>
        <time>2015-07-25T06:14:06Z</time>
      </trkpt>
      <trkpt lat="44.85943" lon="5.97785">
        <ele>1784.3</ele>
        <time>2015-07-25T06:14:11Z</time>
      </trkpt>
      <trkpt lat="44.85939" lon="5.97779">
        <ele>1784.5</ele>
        <time>2015-07-25T06:14:16Z</time>
      </trkpt>
      <trkpt lat="44.85936" lon="5.97771">
        <ele>1785.3</ele>
        <time>2015-07-25T06:14:21Z</time>
      </trkpt>
      <trkpt lat="44.85939" lon="5.97768">
        <ele>1785.6</ele>
        <time>2015-07-25T06:14:26Z</time>
      </trkpt>
      <trkpt lat="44.85943" lon="5.97774">
        <ele>1785.7</ele>
        <time>2015-07-25T06:14:31Z</time>
      </trkpt>
      <trkpt lat="44.85947" lon="5.97779">
        <ele>1785.7</ele>
        <time>2015-07-25T06:14:36Z</time>
      </trkpt>
      <trkpt lat="44.85951" lon="5.97781">
        <ele>1784.9</ele>
        <time>2015-07-25T06:14:41Z</time>
      </trkpt>
      <trkpt lat="44.85949" lon="5.97775">
        <ele>1785.3</ele>
        <time>2015-07-25T06:14:46Z</time>
      </trkpt>
      <trkpt lat="44.85945" lon="5.97768">
        <ele>1785.7</ele>
        <time>2015-07-25T06:14:51Z</time>
      </trkpt>
      <trkpt lat="44.85942" lon="5.97761">
        <ele>1786</ele>
        <time>2015-07-25T06:14:56Z</time>
      </trkpt>
      <trkpt lat="44.85941" lon="5.97759">
        <ele>1785.7</ele>
        <time>2015-07-25T06:15:01Z</time>
      </trkpt>
      <trkpt lat="44.85941" lon="5.97759">
        <ele>1785.6</ele>
        <time>2015-07-25T06:15:06Z</time>
      </trkpt>
      <trkpt lat="44.8594" lon="5.97759">
        <ele>1783.5</ele>
        <time>2015-07-25T06:15:11Z</time>
      </trkpt>
      <trkpt lat="44.85941" lon="5.97759">
        <ele>1785.9</ele>
        <time>2015-07-25T06:15:16Z</time>
      </trkpt>
      <trkpt lat="44.85939" lon="5.97754">
        <ele>1787.6</ele>
        <time>2015-07-25T06:15:21Z</time>
      </trkpt>
      <trkpt lat="44.85935" lon="5.97748">
        <ele>1787.9</ele>
        <time>2015-07-25T06:15:26Z</time>
      </trkpt>
      <trkpt lat="44.85931" lon="5.9774">
        <ele>1787.9</ele>
        <time>2015-07-25T06:15:31Z</time>
      </trkpt>
      <trkpt lat="44.85929" lon="5.97732">
        <ele>1788.1</ele>
        <time>2015-07-25T06:15:36Z</time>
      </trkpt>
      <trkpt lat="44.85928" lon="5.97724">
        <ele>1788.3</ele>
        <time>2015-07-25T06:15:41Z</time>
      </trkpt>
      <trkpt lat="44.85926" lon="5.97716">
        <ele>1788.7</ele>
        <time>2015-07-25T06:15:46Z</time>
      </trkpt>
      <trkpt lat="44.85925" lon="5.97708">
        <ele>1789.1</ele>
        <time>2015-07-25T06:15:51Z</time>
      </trkpt>
      <trkpt lat="44.85923" lon="5.97699">
        <ele>1789.4</ele>
        <time>2015-07-25T06:15:56Z</time>
      </trkpt>
      <trkpt lat="44.85922" lon="5.97691">
        <ele>1789.7</ele>
        <time>2015-07-25T06:16:01Z</time>
      </trkpt>
      <trkpt lat="44.8592" lon="5.97683">
        <ele>1789.9</ele>
        <time>2015-07-25T06:16:06Z</time>
      </trkpt>
      <trkpt lat="44.85919" lon="5.97675">
        <ele>1790.1</ele>
        <time>2015-07-25T06:16:11Z</time>
      </trkpt>
      <trkpt lat="44.85917" lon="5.97666">
        <ele>1790.2</ele>
        <time>2015-07-25T06:16:16Z</time>
      </trkpt>
      <trkpt lat="44.85915" lon="5.97658">
        <ele>1790.4</ele>
        <time>2015-07-25T06:16:21Z</time>
      </trkpt>
      <trkpt lat="44.85915" lon="5.9765">
        <ele>1790.5</ele>
        <time>2015-07-25T06:16:26Z</time>
      </trkpt>
      <trkpt lat="44.85914" lon="5.97643">
        <ele>1790.6</ele>
        <time>2015-07-25T06:16:31Z</time>
      </trkpt>
      <trkpt lat="44.85913" lon="5.97635">
        <ele>1790.5</ele>
        <time>2015-07-25T06:16:36Z</time>
      </trkpt>
      <trkpt lat="44.85911" lon="5.97626">
        <ele>1789.9</ele>
        <time>2015-07-25T06:16:41Z</time>
      </trkpt>
      <trkpt lat="44.8591" lon="5.97618">
        <ele>1789.4</ele>
        <time>2015-07-25T06:16:46Z</time>
      </trkpt>
      <trkpt lat="44.8591" lon="5.9761">
        <ele>1788.9</ele>
        <time>2015-07-25T06:16:51Z</time>
      </trkpt>
      <trkpt lat="44.8591" lon="5.97602">
        <ele>1788.3</ele>
        <time>2015-07-25T06:16:56Z</time>
      </trkpt>
      <trkpt lat="44.85912" lon="5.97594">
        <ele>1787.8</ele>
        <time>2015-07-25T06:17:01Z</time>
      </trkpt>
      <trkpt lat="44.85913" lon="5.97585">
        <ele>1788.2</ele>
        <time>2015-07-25T06:17:06Z</time>
      </trkpt>
      <trkpt lat="44.85916" lon="5.97579">
        <ele>1786.6</ele>
        <time>2015-07-25T06:17:11Z</time>
      </trkpt>
      <trkpt lat="44.85917" lon="5.97572">
        <ele>1786.4</ele>
        <time>2015-07-25T06:17:16Z</time>
      </trkpt>
      <trkpt lat="44.85916" lon="5.97563">
        <ele>1787.2</ele>
        <time>2015-07-25T06:17:21Z</time>
      </trkpt>
      <trkpt lat="44.85915" lon="5.97551">
        <ele>1789.2</ele>
        <time>2015-07-25T06:17:26Z</time>
      </trkpt>
      <trkpt lat="44.85916" lon="5.97544">
        <ele>1787.8</ele>
        <time>2015-07-25T06:17:31Z</time>
      </trkpt>
      <trkpt lat="44.85919" lon="5.97539">
        <ele>1785</ele>
        <time>2015-07-25T06:17:36Z</time>
      </trkpt>
      <trkpt lat="44.85921" lon="5.97534">
        <ele>1783.6</ele>
        <time>2015-07-25T06:17:41Z</time>
      </trkpt>
      <trkpt lat="44.85922" lon="5.97527">
        <ele>1783.2</ele>
        <time>2015-07-25T06:17:46Z</time>
      </trkpt>
      <trkpt lat="44.85923" lon="5.97521">
        <ele>1782.5</ele>
        <time>2015-07-25T06:17:51Z</time>
      </trkpt>
      <trkpt lat="44.85924" lon="5.97517">
        <ele>1780.7</ele>
        <time>2015-07-25T06:17:56Z</time>
      </trkpt>
      <trkpt lat="44.85924" lon="5.9751">
        <ele>1779.4</ele>
        <time>2015-07-25T06:18:01Z</time>
      </trkpt>
      <trkpt lat="44.85925" lon="5.97504">
        <ele>1777.3</ele>
        <time>2015-07-25T06:18:06Z</time>
      </trkpt>
      <trkpt lat="44.85925" lon="5.97496">
        <ele>1775.7</ele>
        <time>2015-07-25T06:18:11Z</time>
      </trkpt>
      <trkpt lat="44.85924" lon="5.97489">
        <ele>1774.3</ele>
        <time>2015-07-25T06:18:16Z</time>
      </trkpt>
      <trkpt lat="44.85923" lon="5.9748">
        <ele>1775.5</ele>
        <time>2015-07-25T06:18:21Z</time>
      </trkpt>
      <trkpt lat="44.85921" lon="5.97472">
        <ele>1776.2</ele>
        <time>2015-07-25T06:18:26Z</time>
      </trkpt>
      <trkpt lat="44.85919" lon="5.97464">
        <ele>1776.2</ele>
        <time>2015-07-25T06:18:31Z</time>
      </trkpt>
      <trkpt lat="44.85917" lon="5.97455">
        <ele>1776.8</ele>
        <time>2015-07-25T06:18:36Z</time>
      </trkpt>
      <trkpt lat="44.85914" lon="5.97447">
        <ele>1776.6</ele>
        <time>2015-07-25T06:18:41Z</time>
      </trkpt>
      <trkpt lat="44.85912" lon="5.9744">
        <ele>1776.3</ele>
        <time>2015-07-25T06:18:46Z</time>
      </trkpt>
      <trkpt lat="44.8591" lon="5.97433">
        <ele>1774.7</ele>
        <time>2015-07-25T06:18:51Z</time>
      </trkpt>
      <trkpt lat="44.85909" lon="5.97425">
        <ele>1774</ele>
        <time>2015-07-25T06:18:56Z</time>
      </trkpt>
      <trkpt lat="44.85909" lon="5.97415">
        <ele>1773.6</ele>
        <time>2015-07-25T06:19:01Z</time>
      </trkpt>
      <trkpt lat="44.85909" lon="5.97408">
        <ele>1773</ele>
        <time>2015-07-25T06:19:06Z</time>
      </trkpt>
      <trkpt lat="44.85909" lon="5.974">
        <ele>1773.1</ele>
        <time>2015-07-25T06:19:11Z</time>
      </trkpt>
      <trkpt lat="44.85911" lon="5.97394">
        <ele>1772.2</ele>
        <time>2015-07-25T06:19:16Z</time>
      </trkpt>
      <trkpt lat="44.85914" lon="5.97388">
        <ele>1772.2</ele>
        <time>2015-07-25T06:19:21Z</time>
      </trkpt>
      <trkpt lat="44.85918" lon="5.97381">
        <ele>1772.3</ele>
        <time>2015-07-25T06:19:26Z</time>
      </trkpt>
      <trkpt lat="44.85922" lon="5.97376">
        <ele>1771.3</ele>
        <time>2015-07-25T06:19:31Z</time>
      </trkpt>
      <trkpt lat="44.85927" lon="5.97372">
        <ele>1770.2</ele>
        <time>2015-07-25T06:19:36Z</time>
      </trkpt>
      <trkpt lat="44.8593" lon="5.97365">
        <ele>1771.4</ele>
        <time>2015-07-25T06:19:41Z</time>
      </trkpt>
      <trkpt lat="44.85935" lon="5.97361">
        <ele>1771.5</ele>
        <time>2015-07-25T06:19:46Z</time>
      </trkpt>
      <trkpt lat="44.85939" lon="5.97355">
        <ele>1773.1</ele>
        <time>2015-07-25T06:19:51Z</time>
      </trkpt>
      <trkpt lat="44.85944" lon="5.9735">
        <ele>1772.7</ele>
        <time>2015-07-25T06:19:56Z</time>
      </trkpt>
      <trkpt lat="44.85946" lon="5.97345">
        <ele>1774</ele>
        <time>2015-07-25T06:20:01Z</time>
      </trkpt>
      <trkpt lat="44.85947" lon="5.97338">
        <ele>1775.3</ele>
        <time>2015-07-25T06:20:06Z</time>
      </trkpt>
      <trkpt lat="44.85948" lon="5.9733">
        <ele>1774.8</ele>
        <time>2015-07-25T06:20:11Z</time>
      </trkpt>
      <trkpt lat="44.85949" lon="5.97323">
        <ele>1775.6</ele>
        <time>2015-07-25T06:20:16Z</time>
      </trkpt>
      <trkpt lat="44.85951" lon="5.9732">
        <ele>1775.5</ele>
        <time>2015-07-25T06:20:21Z</time>
      </trkpt>
      <trkpt lat="44.85952" lon="5.97315">
        <ele>1775.5</ele>
        <time>2015-07-25T06:20:26Z</time>
      </trkpt>
      <trkpt lat="44.85954" lon="5.97307">
        <ele>1774.8</ele>
        <time>2015-07-25T06:20:31Z</time>
      </trkpt>
      <trkpt lat="44.85957" lon="5.973">
        <ele>1774</ele>
        <time>2015-07-25T06:20:36Z</time>
      </trkpt>
      <trkpt lat="44.85961" lon="5.97294">
        <ele>1774.7</ele>
        <time>2015-07-25T06:20:41Z</time>
      </trkpt>
      <trkpt lat="44.85965" lon="5.9729">
        <ele>1776.4</ele>
        <time>2015-07-25T06:20:46Z</time>
      </trkpt>
      <trkpt lat="44.85969" lon="5.97287">
        <ele>1777.7</ele>
        <time>2015-07-25T06:20:51Z</time>
      </trkpt>
      <trkpt lat="44.85975" lon="5.97283">
        <ele>1776.6</ele>
        <time>2015-07-25T06:20:56Z</time>
      </trkpt>
      <trkpt lat="44.85976" lon="5.97283">
        <ele>1776.5</ele>
        <time>2015-07-25T06:21:01Z</time>
      </trkpt>
      <trkpt lat="44.85978" lon="5.97283">
        <ele>1776</ele>
        <time>2015-07-25T06:21:06Z</time>
      </trkpt>
      <trkpt lat="44.85978" lon="5.97277">
        <ele>1778.8</ele>
        <time>2015-07-25T06:21:11Z</time>
      </trkpt>
      <trkpt lat="44.85978" lon="5.9727">
        <ele>1781</ele>
        <time>2015-07-25T06:21:16Z</time>
      </trkpt>
      <trkpt lat="44.85978" lon="5.97261">
        <ele>1781</ele>
        <time>2015-07-25T06:21:21Z</time>
      </trkpt>
      <trkpt lat="44.85978" lon="5.97252">
        <ele>1781</ele>
        <time>2015-07-25T06:21:26Z</time>
      </trkpt>
      <trkpt lat="44.85979" lon="5.97243">
        <ele>1781.2</ele>
        <time>2015-07-25T06:21:31Z</time>
      </trkpt>
      <trkpt lat="44.85982" lon="5.97236">
        <ele>1781</ele>
        <time>2015-07-25T06:21:36Z</time>
      </trkpt>
      <trkpt lat="44.85985" lon="5.97228">
        <ele>1781.2</ele>
        <time>2015-07-25T06:21:41Z</time>
      </trkpt>
      <trkpt lat="44.85987" lon="5.97221">
        <ele>1782.4</ele>
        <time>2015-07-25T06:21:46Z</time>
      </trkpt>
      <trkpt lat="44.8599" lon="5.97213">
        <ele>1783.9</ele>
        <time>2015-07-25T06:21:51Z</time>
      </trkpt>
      <trkpt lat="44.85992" lon="5.97206">
        <ele>1785.4</ele>
        <time>2015-07-25T06:21:56Z</time>
      </trkpt>
      <trkpt lat="44.85995" lon="5.972">
        <ele>1783.4</ele>
        <time>2015-07-25T06:22:01Z</time>
      </trkpt>
      <trkpt lat="44.85993" lon="5.97192">
        <ele>1782.7</ele>
        <time>2015-07-25T06:22:06Z</time>
      </trkpt>
      <trkpt lat="44.85989" lon="5.97184">
        <ele>1783.3</ele>
        <time>2015-07-25T06:22:11Z</time>
      </trkpt>
      <trkpt lat="44.85986" lon="5.97177">
        <ele>1784.2</ele>
        <time>2015-07-25T06:22:16Z</time>
      </trkpt>
      <trkpt lat="44.85983" lon="5.97172">
        <ele>1784.7</ele>
        <time>2015-07-25T06:22:21Z</time>
      </trkpt>
      <trkpt lat="44.85976" lon="5.97169">
        <ele>1785.6</ele>
        <time>2015-07-25T06:22:26Z</time>
      </trkpt>
      <trkpt lat="44.8597" lon="5.97165">
        <ele>1786.4</ele>
        <time>2015-07-25T06:22:31Z</time>
      </trkpt>
      <trkpt lat="44.85964" lon="5.97162">
        <ele>1787.2</ele>
        <time>2015-07-25T06:22:36Z</time>
      </trkpt>
      <trkpt lat="44.85957" lon="5.97159">
        <ele>1787.4</ele>
        <time>2015-07-25T06:22:41Z</time>
      </trkpt>
      <trkpt lat="44.85951" lon="5.97155">
        <ele>1788.7</ele>
        <time>2015-07-25T06:22:46Z</time>
      </trkpt>
      <trkpt lat="44.85944" lon="5.97153">
        <ele>1789.4</ele>
        <time>2015-07-25T06:22:51Z</time>
      </trkpt>
      <trkpt lat="44.85938" lon="5.97153">
        <ele>1788.9</ele>
        <time>2015-07-25T06:22:56Z</time>
      </trkpt>
      <trkpt lat="44.85933" lon="5.97152">
        <ele>1787.9</ele>
        <time>2015-07-25T06:23:01Z</time>
      </trkpt>
      <trkpt lat="44.85927" lon="5.9715">
        <ele>1787.2</ele>
        <time>2015-07-25T06:23:06Z</time>
      </trkpt>
      <trkpt lat="44.85923" lon="5.97147">
        <ele>1787.1</ele>
        <time>2015-07-25T06:23:11Z</time>
      </trkpt>
      <trkpt lat="44.85919" lon="5.97144">
        <ele>1785.7</ele>
        <time>2015-07-25T06:23:16Z</time>
      </trkpt>
      <trkpt lat="44.85915" lon="5.97142">
        <ele>1783.9</ele>
        <time>2015-07-25T06:23:21Z</time>
      </trkpt>
      <trkpt lat="44.85911" lon="5.97141">
        <ele>1781.1</ele>
        <time>2015-07-25T06:23:26Z</time>
      </trkpt>
      <trkpt lat="44.85907" lon="5.97137">
        <ele>1777.7</ele>
        <time>2015-07-25T06:23:31Z</time>
      </trkpt>
      <trkpt lat="44.85899" lon="5.97134">
        <ele>1774.9</ele>
        <time>2015-07-25T06:23:38Z</time>
      </trkpt>
      <trkpt lat="44.85897" lon="5.9713">
        <ele>1771.5</ele>
        <time>2015-07-25T06:23:43Z</time>
      </trkpt>
      <trkpt lat="44.85893" lon="5.97124">
        <ele>1768.7</ele>
        <time>2015-07-25T06:23:48Z</time>
      </trkpt>
      <trkpt lat="44.8589" lon="5.97121">
        <ele>1768.3</ele>
        <time>2015-07-25T06:23:53Z</time>
      </trkpt>
      <trkpt lat="44.85886" lon="5.97117">
        <ele>1767.4</ele>
        <time>2015-07-25T06:23:58Z</time>
      </trkpt>
      <trkpt lat="44.8588" lon="5.97113">
        <ele>1766.4</ele>
        <time>2015-07-25T06:24:03Z</time>
      </trkpt>
      <trkpt lat="44.85876" lon="5.97109">
        <ele>1763.9</ele>
        <time>2015-07-25T06:24:08Z</time>
      </trkpt>
      <trkpt lat="44.85874" lon="5.97106">
        <ele>1761.9</ele>
        <time>2015-07-25T06:24:13Z</time>
      </trkpt>
      <trkpt lat="44.85871" lon="5.97101">
        <ele>1760.2</ele>
        <time>2015-07-25T06:24:18Z</time>
      </trkpt>
      <trkpt lat="44.85867" lon="5.97098">
        <ele>1758.2</ele>
        <time>2015-07-25T06:24:23Z</time>
      </trkpt>
      <trkpt lat="44.85864" lon="5.97093">
        <ele>1755.3</ele>
        <time>2015-07-25T06:24:28Z</time>
      </trkpt>
      <trkpt lat="44.85861" lon="5.97088">
        <ele>1753.9</ele>
        <time>2015-07-25T06:24:33Z</time>
      </trkpt>
      <trkpt lat="44.85857" lon="5.97083">
        <ele>1751.6</ele>
        <time>2015-07-25T06:24:38Z</time>
      </trkpt>
      <trkpt lat="44.85854" lon="5.97077">
        <ele>1749.4</ele>
        <time>2015-07-25T06:24:43Z</time>
      </trkpt>
      <trkpt lat="44.85852" lon="5.9707">
        <ele>1747.4</ele>
        <time>2015-07-25T06:24:48Z</time>
      </trkpt>
      <trkpt lat="44.8585" lon="5.97059">
        <ele>1747.3</ele>
        <time>2015-07-25T06:24:53Z</time>
      </trkpt>
      <trkpt lat="44.85848" lon="5.97054">
        <ele>1747.6</ele>
        <time>2015-07-25T06:24:58Z</time>
      </trkpt>
      <trkpt lat="44.85847" lon="5.97055">
        <ele>1747.7</ele>
        <time>2015-07-25T06:25:03Z</time>
      </trkpt>
      <trkpt lat="44.85847" lon="5.97048">
        <ele>1747.5</ele>
        <time>2015-07-25T06:25:08Z</time>
      </trkpt>
      <trkpt lat="44.85847" lon="5.97039">
        <ele>1746.5</ele>
        <time>2015-07-25T06:25:13Z</time>
      </trkpt>
      <trkpt lat="44.85846" lon="5.97029">
        <ele>1746.7</ele>
        <time>2015-07-25T06:25:18Z</time>
      </trkpt>
      <trkpt lat="44.85846" lon="5.9702">
        <ele>1746.2</ele>
        <time>2015-07-25T06:25:23Z</time>
      </trkpt>
      <trkpt lat="44.85848" lon="5.97011">
        <ele>1744.6</ele>
        <time>2015-07-25T06:25:28Z</time>
      </trkpt>
      <trkpt lat="44.85848" lon="5.97003">
        <ele>1745.4</ele>
        <time>2015-07-25T06:25:33Z</time>
      </trkpt>
      <trkpt lat="44.8585" lon="5.96993">
        <ele>1746.2</ele>
        <time>2015-07-25T06:25:38Z</time>
      </trkpt>
      <trkpt lat="44.85851" lon="5.96984">
        <ele>1747.3</ele>
        <time>2015-07-25T06:25:43Z</time>
      </trkpt>
      <trkpt lat="44.85851" lon="5.96977">
        <ele>1747.3</ele>
        <time>2015-07-25T06:25:48Z</time>
      </trkpt>
      <trkpt lat="44.85848" lon="5.96971">
        <ele>1747.1</ele>
        <time>2015-07-25T06:25:53Z</time>
      </trkpt>
      <trkpt lat="44.85842" lon="5.96967">
        <ele>1748.1</ele>
        <time>2015-07-25T06:25:58Z</time>
      </trkpt>
      <trkpt lat="44.85835" lon="5.96964">
        <ele>1748.5</ele>
        <time>2015-07-25T06:26:03Z</time>
      </trkpt>
      <trkpt lat="44.8583" lon="5.96961">
        <ele>1748.6</ele>
        <time>2015-07-25T06:26:08Z</time>
      </trkpt>
      <trkpt lat="44.85824" lon="5.96959">
        <ele>1747.6</ele>
        <time>2015-07-25T06:26:13Z</time>
      </trkpt>
      <trkpt lat="44.85818" lon="5.96958">
        <ele>1745.9</ele>
        <time>2015-07-25T06:26:18Z</time>
      </trkpt>
      <trkpt lat="44.85812" lon="5.9696">
        <ele>1744.6</ele>
        <time>2015-07-25T06:26:23Z</time>
      </trkpt>
      <trkpt lat="44.85806" lon="5.96962">
        <ele>1743.3</ele>
        <time>2015-07-25T06:26:28Z</time>
      </trkpt>
      <trkpt lat="44.85799" lon="5.96961">
        <ele>1742.3</ele>
        <time>2015-07-25T06:26:33Z</time>
      </trkpt>
      <trkpt lat="44.85793" lon="5.96958">
        <ele>1741.8</ele>
        <time>2015-07-25T06:26:38Z</time>
      </trkpt>
      <trkpt lat="44.85787" lon="5.96956">
        <ele>1740.5</ele>
        <time>2015-07-25T06:26:43Z</time>
      </trkpt>
      <trkpt lat="44.85781" lon="5.96954">
        <ele>1739.1</ele>
        <time>2015-07-25T06:26:48Z</time>
      </trkpt>
      <trkpt lat="44.85776" lon="5.96952">
        <ele>1737.1</ele>
        <time>2015-07-25T06:26:53Z</time>
      </trkpt>
      <trkpt lat="44.8577" lon="5.96951">
        <ele>1735.6</ele>
        <time>2015-07-25T06:26:58Z</time>
      </trkpt>
      <trkpt lat="44.85764" lon="5.96949">
        <ele>1734.3</ele>
        <time>2015-07-25T06:27:03Z</time>
      </trkpt>
      <trkpt lat="44.85758" lon="5.96946">
        <ele>1732.9</ele>
        <time>2015-07-25T06:27:08Z</time>
      </trkpt>
      <trkpt lat="44.85751" lon="5.96944">
        <ele>1731.3</ele>
        <time>2015-07-25T06:27:13Z</time>
      </trkpt>
      <trkpt lat="44.85746" lon="5.96939">
        <ele>1730.8</ele>
        <time>2015-07-25T06:27:18Z</time>
      </trkpt>
      <trkpt lat="44.85744" lon="5.96931">
        <ele>1729.6</ele>
        <time>2015-07-25T06:27:23Z</time>
      </trkpt>
      <trkpt lat="44.85744" lon="5.96924">
        <ele>1728.8</ele>
        <time>2015-07-25T06:27:28Z</time>
      </trkpt>
      <trkpt lat="44.85743" lon="5.96918">
        <ele>1726.8</ele>
        <time>2015-07-25T06:27:33Z</time>
      </trkpt>
      <trkpt lat="44.85743" lon="5.96912">
        <ele>1724.3</ele>
        <time>2015-07-25T06:27:38Z</time>
      </trkpt>
      <trkpt lat="44.85742" lon="5.96904">
        <ele>1722.8</ele>
        <time>2015-07-25T06:27:43Z</time>
      </trkpt>
      <trkpt lat="44.85741" lon="5.96896">
        <ele>1721.5</ele>
        <time>2015-07-25T06:27:48Z</time>
      </trkpt>
      <trkpt lat="44.85741" lon="5.96887">
        <ele>1719.3</ele>
        <time>2015-07-25T06:27:53Z</time>
      </trkpt>
      <trkpt lat="44.8574" lon="5.96878">
        <ele>1717.6</ele>
        <time>2015-07-25T06:27:58Z</time>
      </trkpt>
      <trkpt lat="44.8574" lon="5.96869">
        <ele>1716.6</ele>
        <time>2015-07-25T06:28:03Z</time>
      </trkpt>
      <trkpt lat="44.85742" lon="5.9686">
        <ele>1715.7</ele>
        <time>2015-07-25T06:28:08Z</time>
      </trkpt>
      <trkpt lat="44.85743" lon="5.9685">
        <ele>1715</ele>
        <time>2015-07-25T06:28:13Z</time>
      </trkpt>
      <trkpt lat="44.85744" lon="5.96841">
        <ele>1715.1</ele>
        <time>2015-07-25T06:28:18Z</time>
      </trkpt>
      <trkpt lat="44.85746" lon="5.96833">
        <ele>1715.2</ele>
        <time>2015-07-25T06:28:23Z</time>
      </trkpt>
      <trkpt lat="44.85748" lon="5.96823">
        <ele>1714.9</ele>
        <time>2015-07-25T06:28:28Z</time>
      </trkpt>
      <trkpt lat="44.85749" lon="5.96815">
        <ele>1714.6</ele>
        <time>2015-07-25T06:28:33Z</time>
      </trkpt>
      <trkpt lat="44.85749" lon="5.96805">
        <ele>1714.6</ele>
        <time>2015-07-25T06:28:38Z</time>
      </trkpt>
      <trkpt lat="44.8575" lon="5.96795">
        <ele>1714.2</ele>
        <time>2015-07-25T06:28:43Z</time>
      </trkpt>
      <trkpt lat="44.8575" lon="5.96786">
        <ele>1713.4</ele>
        <time>2015-07-25T06:28:48Z</time>
      </trkpt>
      <trkpt lat="44.8575" lon="5.96776">
        <ele>1712.7</ele>
        <time>2015-07-25T06:28:53Z</time>
      </trkpt>
      <trkpt lat="44.85751" lon="5.96767">
        <ele>1712.1</ele>
        <time>2015-07-25T06:28:58Z</time>
      </trkpt>
      <trkpt lat="44.85751" lon="5.96757">
        <ele>1711.1</ele>
        <time>2015-07-25T06:29:03Z</time>
      </trkpt>
      <trkpt lat="44.85752" lon="5.96747">
        <ele>1711.2</ele>
        <time>2015-07-25T06:29:08Z</time>
      </trkpt>
      <trkpt lat="44.85752" lon="5.96737">
        <ele>1710</ele>
        <time>2015-07-25T06:29:13Z</time>
      </trkpt>
      <trkpt lat="44.85753" lon="5.96727">
        <ele>1708.8</ele>
        <time>2015-07-25T06:29:18Z</time>
      </trkpt>
      <trkpt lat="44.85752" lon="5.96717">
        <ele>1708.1</ele>
        <time>2015-07-25T06:29:23Z</time>
      </trkpt>
      <trkpt lat="44.85751" lon="5.96707">
        <ele>1707.5</ele>
        <time>2015-07-25T06:29:28Z</time>
      </trkpt>
      <trkpt lat="44.85752" lon="5.96697">
        <ele>1706.4</ele>
        <time>2015-07-25T06:29:33Z</time>
      </trkpt>
      <trkpt lat="44.85751" lon="5.96689">
        <ele>1704.9</ele>
        <time>2015-07-25T06:29:38Z</time>
      </trkpt>
      <trkpt lat="44.8575" lon="5.96678">
        <ele>1705.1</ele>
        <time>2015-07-25T06:29:43Z</time>
      </trkpt>
      <trkpt lat="44.85751" lon="5.96669">
        <ele>1704.6</ele>
        <time>2015-07-25T06:29:48Z</time>
      </trkpt>
      <trkpt lat="44.85751" lon="5.96659">
        <ele>1704.5</ele>
        <time>2015-07-25T06:29:53Z</time>
      </trkpt>
      <trkpt lat="44.85751" lon="5.96649">
        <ele>1704.1</ele>
        <time>2015-07-25T06:29:58Z</time>
      </trkpt>
      <trkpt lat="44.8575" lon="5.96639">
        <ele>1703.4</ele>
        <time>2015-07-25T06:30:03Z</time>
      </trkpt>
      <trkpt lat="44.8575" lon="5.96629">
        <ele>1703.4</ele>
        <time>2015-07-25T06:30:08Z</time>
      </trkpt>
      <trkpt lat="44.85748" lon="5.96619">
        <ele>1703.6</ele>
        <time>2015-07-25T06:30:13Z</time>
      </trkpt>
      <trkpt lat="44.85746" lon="5.9661">
        <ele>1703</ele>
        <time>2015-07-25T06:30:18Z</time>
      </trkpt>
      <trkpt lat="44.85743" lon="5.96601">
        <ele>1702.9</ele>
        <time>2015-07-25T06:30:23Z</time>
      </trkpt>
      <trkpt lat="44.8574" lon="5.96593">
        <ele>1702.5</ele>
        <time>2015-07-25T06:30:28Z</time>
      </trkpt>
      <trkpt lat="44.85737" lon="5.96585">
        <ele>1702.4</ele>
        <time>2015-07-25T06:30:33Z</time>
      </trkpt>
      <trkpt lat="44.85733" lon="5.96576">
        <ele>1701.9</ele>
        <time>2015-07-25T06:30:38Z</time>
      </trkpt>
      <trkpt lat="44.8573" lon="5.96567">
        <ele>1701.2</ele>
        <time>2015-07-25T06:30:43Z</time>
      </trkpt>
      <trkpt lat="44.85725" lon="5.9656">
        <ele>1700.4</ele>
        <time>2015-07-25T06:30:48Z</time>
      </trkpt>
      <trkpt lat="44.85721" lon="5.96552">
        <ele>1699.1</ele>
        <time>2015-07-25T06:30:53Z</time>
      </trkpt>
      <trkpt lat="44.85715" lon="5.96547">
        <ele>1697.6</ele>
        <time>2015-07-25T06:30:58Z</time>
      </trkpt>
      <trkpt lat="44.85709" lon="5.96543">
        <ele>1695.5</ele>
        <time>2015-07-25T06:31:03Z</time>
      </trkpt>
      <trkpt lat="44.85704" lon="5.9654">
        <ele>1693.7</ele>
        <time>2015-07-25T06:31:08Z</time>
      </trkpt>
      <trkpt lat="44.85698" lon="5.96537">
        <ele>1691.7</ele>
        <time>2015-07-25T06:31:13Z</time>
      </trkpt>
      <trkpt lat="44.85692" lon="5.96535">
        <ele>1689.6</ele>
        <time>2015-07-25T06:31:18Z</time>
      </trkpt>
      <trkpt lat="44.85685" lon="5.96533">
        <ele>1687.7</ele>
        <time>2015-07-25T06:31:23Z</time>
      </trkpt>
      <trkpt lat="44.85679" lon="5.96531">
        <ele>1685.7</ele>
        <time>2015-07-25T06:31:28Z</time>
      </trkpt>
      <trkpt lat="44.85673" lon="5.96529">
        <ele>1683.8</ele>
        <time>2015-07-25T06:31:33Z</time>
      </trkpt>
      <trkpt lat="44.8567" lon="5.96526">
        <ele>1683.8</ele>
        <time>2015-07-25T06:31:38Z</time>
      </trkpt>
      <trkpt lat="44.85669" lon="5.96524">
        <ele>1684.7</ele>
        <time>2015-07-25T06:31:43Z</time>
      </trkpt>
      <trkpt lat="44.8567" lon="5.96523">
        <ele>1684.9</ele>
        <time>2015-07-25T06:31:48Z</time>
      </trkpt>
      <trkpt lat="44.8567" lon="5.96521">
        <ele>1685.9</ele>
        <time>2015-07-25T06:31:53Z</time>
      </trkpt>
      <trkpt lat="44.85671" lon="5.96521">
        <ele>1685.3</ele>
        <time>2015-07-25T06:31:58Z</time>
      </trkpt>
      <trkpt lat="44.85671" lon="5.9652">
        <ele>1686.5</ele>
        <time>2015-07-25T06:32:03Z</time>
      </trkpt>
      <trkpt lat="44.85669" lon="5.96522">
        <ele>1686.5</ele>
        <time>2015-07-25T06:32:08Z</time>
      </trkpt>
      <trkpt lat="44.85669" lon="5.96522">
        <ele>1686.6</ele>
        <time>2015-07-25T06:32:13Z</time>
      </trkpt>
      <trkpt lat="44.85671" lon="5.96522">
        <ele>1686.4</ele>
        <time>2015-07-25T06:32:18Z</time>
      </trkpt>
      <trkpt lat="44.85671" lon="5.96522">
        <ele>1686.9</ele>
        <time>2015-07-25T06:32:23Z</time>
      </trkpt>
      <trkpt lat="44.85671" lon="5.96523">
        <ele>1686.7</ele>
        <time>2015-07-25T06:32:28Z</time>
      </trkpt>
      <trkpt lat="44.85672" lon="5.96522">
        <ele>1686.2</ele>
        <time>2015-07-25T06:32:33Z</time>
      </trkpt>
      <trkpt lat="44.85672" lon="5.96522">
        <ele>1685.1</ele>
        <time>2015-07-25T06:32:38Z</time>
      </trkpt>
      <trkpt lat="44.85671" lon="5.96521">
        <ele>1685.4</ele>
        <time>2015-07-25T06:32:43Z</time>
      </trkpt>
      <trkpt lat="44.85672" lon="5.9652">
        <ele>1685.3</ele>
        <time>2015-07-25T06:32:48Z</time>
      </trkpt>
      <trkpt lat="44.85672" lon="5.96519">
        <ele>1685.2</ele>
        <time>2015-07-25T06:32:53Z</time>
      </trkpt>
      <trkpt lat="44.85671" lon="5.96519">
        <ele>1685.6</ele>
        <time>2015-07-25T06:32:58Z</time>
      </trkpt>
      <trkpt lat="44.85674" lon="5.96519">
        <ele>1684.7</ele>
        <time>2015-07-25T06:33:03Z</time>
      </trkpt>
      <trkpt lat="44.85679" lon="5.96515">
        <ele>1683.3</ele>
        <time>2015-07-25T06:33:08Z</time>
      </trkpt>
      <trkpt lat="44.85683" lon="5.96509">
        <ele>1684.2</ele>
        <time>2015-07-25T06:33:13Z</time>
      </trkpt>
      <trkpt lat="44.85687" lon="5.96505">
        <ele>1686.3</ele>
        <time>2015-07-25T06:33:18Z</time>
      </trkpt>
      <trkpt lat="44.85688" lon="5.96505">
        <ele>1687.8</ele>
        <time>2015-07-25T06:33:23Z</time>
      </trkpt>
      <trkpt lat="44.85688" lon="5.96504">
        <ele>1687.8</ele>
        <time>2015-07-25T06:33:28Z</time>
      </trkpt>
      <trkpt lat="44.8569" lon="5.96504">
        <ele>1688.3</ele>
        <time>2015-07-25T06:33:33Z</time>
      </trkpt>
      <trkpt lat="44.85691" lon="5.96504">
        <ele>1689.2</ele>
        <time>2015-07-25T06:33:38Z</time>
      </trkpt>
      <trkpt lat="44.85693" lon="5.96502">
        <ele>1689.5</ele>
        <time>2015-07-25T06:33:43Z</time>
      </trkpt>
      <trkpt lat="44.85696" lon="5.96499">
        <ele>1690.2</ele>
        <time>2015-07-25T06:33:48Z</time>
      </trkpt>
      <trkpt lat="44.85701" lon="5.96495">
        <ele>1691.8</ele>
        <time>2015-07-25T06:33:53Z</time>
      </trkpt>
      <trkpt lat="44.85706" lon="5.96496">
        <ele>1695</ele>
        <time>2015-07-25T06:33:58Z</time>
      </trkpt>
      <trkpt lat="44.85709" lon="5.96496">
        <ele>1696.9</ele>
        <time>2015-07-25T06:34:03Z</time>
      </trkpt>
      <trkpt lat="44.85712" lon="5.96496">
        <ele>1697.9</ele>
        <time>2015-07-25T06:34:08Z</time>
      </trkpt>
      <trkpt lat="44.85715" lon="5.96502">
        <ele>1699.6</ele>
        <time>2015-07-25T06:34:13Z</time>
      </trkpt>
      <trkpt lat="44.85717" lon="5.96511">
        <ele>1700.7</ele>
        <time>2015-07-25T06:34:18Z</time>
      </trkpt>
      <trkpt lat="44.85718" lon="5.9652">
        <ele>1702.1</ele>
        <time>2015-07-25T06:34:23Z</time>
      </trkpt>
      <trkpt lat="44.85719" lon="5.96523">
        <ele>1703.5</ele>
        <time>2015-07-25T06:34:28Z</time>
      </trkpt>
      <trkpt lat="44.85719" lon="5.96523">
        <ele>1704.7</ele>
        <time>2015-07-25T06:34:33Z</time>
      </trkpt>
      <trkpt lat="44.85724" lon="5.96519">
        <ele>1706.7</ele>
        <time>2015-07-25T06:34:38Z</time>
      </trkpt>
      <trkpt lat="44.8573" lon="5.96514">
        <ele>1708.8</ele>
        <time>2015-07-25T06:34:43Z</time>
      </trkpt>
      <trkpt lat="44.85734" lon="5.9651">
        <ele>1709.1</ele>
        <time>2015-07-25T06:34:48Z</time>
      </trkpt>
      <trkpt lat="44.85734" lon="5.9651">
        <ele>1709.1</ele>
        <time>2015-07-25T06:34:53Z</time>
      </trkpt>
      <trkpt lat="44.85738" lon="5.96506">
        <ele>1710.2</ele>
        <time>2015-07-25T06:34:58Z</time>
      </trkpt>
      <trkpt lat="44.85744" lon="5.96502">
        <ele>1711.4</ele>
        <time>2015-07-25T06:35:03Z</time>
      </trkpt>
      <trkpt lat="44.85749" lon="5.96498">
        <ele>1712.7</ele>
        <time>2015-07-25T06:35:08Z</time>
      </trkpt>
      <trkpt lat="44.85754" lon="5.96496">
        <ele>1715.2</ele>
        <time>2015-07-25T06:35:13Z</time>
      </trkpt>
      <trkpt lat="44.85762" lon="5.96491">
        <ele>1716.9</ele>
        <time>2015-07-25T06:35:18Z</time>
      </trkpt>
      <trkpt lat="44.85767" lon="5.96489">
        <ele>1718.6</ele>
        <time>2015-07-25T06:35:23Z</time>
      </trkpt>
      <trkpt lat="44.8577" lon="5.96487">
        <ele>1720.1</ele>
        <time>2015-07-25T06:35:28Z</time>
      </trkpt>
      <trkpt lat="44.85771" lon="5.96487">
        <ele>1721.9</ele>
        <time>2015-07-25T06:35:33Z</time>
      </trkpt>
      <trkpt lat="44.85772" lon="5.96487">
        <ele>1722.2</ele>
        <time>2015-07-25T06:35:38Z</time>
      </trkpt>
      <trkpt lat="44.85776" lon="5.96482">
        <ele>1722.4</ele>
        <time>2015-07-25T06:35:43Z</time>
      </trkpt>
      <trkpt lat="44.85781" lon="5.96477">
        <ele>1723.5</ele>
        <time>2015-07-25T06:35:48Z</time>
      </trkpt>
      <trkpt lat="44.85787" lon="5.96474">
        <ele>1724.8</ele>
        <time>2015-07-25T06:35:53Z</time>
      </trkpt>
      <trkpt lat="44.85792" lon="5.96471">
        <ele>1725.8</ele>
        <time>2015-07-25T06:35:58Z</time>
      </trkpt>
      <trkpt lat="44.85793" lon="5.96471">
        <ele>1726.4</ele>
        <time>2015-07-25T06:36:03Z</time>
      </trkpt>
      <trkpt lat="44.85793" lon="5.9647">
        <ele>1726.4</ele>
        <time>2015-07-25T06:36:08Z</time>
      </trkpt>
      <trkpt lat="44.85793" lon="5.9647">
        <ele>1726.3</ele>
        <time>2015-07-25T06:36:13Z</time>
      </trkpt>
      <trkpt lat="44.85792" lon="5.9647">
        <ele>1726.2</ele>
        <time>2015-07-25T06:36:18Z</time>
      </trkpt>
      <trkpt lat="44.85793" lon="5.96469">
        <ele>1726.4</ele>
        <time>2015-07-25T06:36:23Z</time>
      </trkpt>
      <trkpt lat="44.85793" lon="5.96469">
        <ele>1726.1</ele>
        <time>2015-07-25T06:36:28Z</time>
      </trkpt>
      <trkpt lat="44.85795" lon="5.9647">
        <ele>1726.8</ele>
        <time>2015-07-25T06:36:33Z</time>
      </trkpt>
      <trkpt lat="44.85799" lon="5.96469">
        <ele>1728.8</ele>
        <time>2015-07-25T06:36:38Z</time>
      </trkpt>
      <trkpt lat="44.85803" lon="5.96468">
        <ele>1730</ele>
        <time>2015-07-25T06:36:43Z</time>
      </trkpt>
      <trkpt lat="44.85809" lon="5.96467">
        <ele>1732.2</ele>
        <time>2015-07-25T06:36:48Z</time>
      </trkpt>
      <trkpt lat="44.85815" lon="5.96467">
        <ele>1734.8</ele>
        <time>2015-07-25T06:36:53Z</time>
      </trkpt>
      <trkpt lat="44.85819" lon="5.96465">
        <ele>1735</ele>
        <time>2015-07-25T06:36:58Z</time>
      </trkpt>
      <trkpt lat="44.85819" lon="5.96465">
        <ele>1734.2</ele>
        <time>2015-07-25T06:37:03Z</time>
      </trkpt>
      <trkpt lat="44.85819" lon="5.96465">
        <ele>1734</ele>
        <time>2015-07-25T06:37:08Z</time>
      </trkpt>
      <trkpt lat="44.85819" lon="5.96465">
        <ele>1732.4</ele>
        <time>2015-07-25T06:37:13Z</time>
      </trkpt>
      <trkpt lat="44.85819" lon="5.96465">
        <ele>1732.2</ele>
        <time>2015-07-25T06:37:18Z</time>
      </trkpt>
      <trkpt lat="44.85819" lon="5.96465">
        <ele>1732</ele>
        <time>2015-07-25T06:37:23Z</time>
      </trkpt>
      <trkpt lat="44.85821" lon="5.96466">
        <ele>1731.9</ele>
        <time>2015-07-25T06:37:28Z</time>
      </trkpt>
      <trkpt lat="44.85821" lon="5.96466">
        <ele>1731</ele>
        <time>2015-07-25T06:37:33Z</time>
      </trkpt>
      <trkpt lat="44.8582" lon="5.96466">
        <ele>1731.1</ele>
        <time>2015-07-25T06:37:38Z</time>
      </trkpt>
      <trkpt lat="44.85822" lon="5.96465">
        <ele>1730.8</ele>
        <time>2015-07-25T06:37:43Z</time>
      </trkpt>
      <trkpt lat="44.85821" lon="5.96465">
        <ele>1729.9</ele>
        <time>2015-07-25T06:37:48Z</time>
      </trkpt>
      <trkpt lat="44.85821" lon="5.96465">
        <ele>1729.6</ele>
        <time>2015-07-25T06:37:53Z</time>
      </trkpt>
      <trkpt lat="44.85825" lon="5.96462">
        <ele>1732.4</ele>
        <time>2015-07-25T06:37:58Z</time>
      </trkpt>
      <trkpt lat="44.85833" lon="5.96457">
        <ele>1735.4</ele>
        <time>2015-07-25T06:38:03Z</time>
      </trkpt>
      <trkpt lat="44.85838" lon="5.96453">
        <ele>1737.7</ele>
        <time>2015-07-25T06:38:08Z</time>
      </trkpt>
      <trkpt lat="44.85843" lon="5.96448">
        <ele>1739.1</ele>
        <time>2015-07-25T06:38:13Z</time>
      </trkpt>
      <trkpt lat="44.85848" lon="5.96443">
        <ele>1740.5</ele>
        <time>2015-07-25T06:38:18Z</time>
      </trkpt>
      <trkpt lat="44.85853" lon="5.96438">
        <ele>1742.2</ele>
        <time>2015-07-25T06:38:23Z</time>
      </trkpt>
      <trkpt lat="44.85858" lon="5.96432">
        <ele>1743.6</ele>
        <time>2015-07-25T06:38:28Z</time>
      </trkpt>
      <trkpt lat="44.85862" lon="5.96427">
        <ele>1744.5</ele>
        <time>2015-07-25T06:38:33Z</time>
      </trkpt>
      <trkpt lat="44.85867" lon="5.96423">
        <ele>1746.2</ele>
        <time>2015-07-25T06:38:38Z</time>
      </trkpt>
      <trkpt lat="44.85871" lon="5.9642">
        <ele>1746.8</ele>
        <time>2015-07-25T06:38:43Z</time>
      </trkpt>
      <trkpt lat="44.85872" lon="5.96419">
        <ele>1747.2</ele>
        <time>2015-07-25T06:38:48Z</time>
      </trkpt>
      <trkpt lat="44.85877" lon="5.96415">
        <ele>1748.2</ele>
        <time>2015-07-25T06:38:53Z</time>
      </trkpt>
      <trkpt lat="44.85882" lon="5.96411">
        <ele>1749.7</ele>
        <time>2015-07-25T06:38:58Z</time>
      </trkpt>
      <trkpt lat="44.85887" lon="5.96407">
        <ele>1752</ele>
        <time>2015-07-25T06:39:03Z</time>
      </trkpt>
      <trkpt lat="44.85891" lon="5.96402">
        <ele>1752.7</ele>
        <time>2015-07-25T06:39:08Z</time>
      </trkpt>
      <trkpt lat="44.85894" lon="5.96396">
        <ele>1753.4</ele>
        <time>2015-07-25T06:39:13Z</time>
      </trkpt>
      <trkpt lat="44.85899" lon="5.9639">
        <ele>1754.3</ele>
        <time>2015-07-25T06:39:18Z</time>
      </trkpt>
      <trkpt lat="44.85903" lon="5.96384">
        <ele>1755</ele>
        <time>2015-07-25T06:39:23Z</time>
      </trkpt>
      <trkpt lat="44.85906" lon="5.96377">
        <ele>1755.7</ele>
        <time>2015-07-25T06:39:28Z</time>
      </trkpt>
      <trkpt lat="44.8591" lon="5.96371">
        <ele>1756.6</ele>
        <time>2015-07-25T06:39:33Z</time>
      </trkpt>
      <trkpt lat="44.85914" lon="5.96364">
        <ele>1757.6</ele>
        <time>2015-07-25T06:39:38Z</time>
      </trkpt>
      <trkpt lat="44.85917" lon="5.9636">
        <ele>1758.5</ele>
        <time>2015-07-25T06:39:43Z</time>
      </trkpt>
      <trkpt lat="44.85918" lon="5.96359">
        <ele>1758.5</ele>
        <time>2015-07-25T06:39:48Z</time>
      </trkpt>
      <trkpt lat="44.85922" lon="5.96356">
        <ele>1758.9</ele>
        <time>2015-07-25T06:39:53Z</time>
      </trkpt>
      <trkpt lat="44.85927" lon="5.9635">
        <ele>1759.8</ele>
        <time>2015-07-25T06:39:58Z</time>
      </trkpt>
      <trkpt lat="44.8593" lon="5.96346">
        <ele>1760.7</ele>
        <time>2015-07-25T06:40:03Z</time>
      </trkpt>
      <trkpt lat="44.85934" lon="5.96343">
        <ele>1762.3</ele>
        <time>2015-07-25T06:40:08Z</time>
      </trkpt>
      <trkpt lat="44.85939" lon="5.96339">
        <ele>1764.3</ele>
        <time>2015-07-25T06:40:13Z</time>
      </trkpt>
      <trkpt lat="44.85944" lon="5.96334">
        <ele>1765.6</ele>
        <time>2015-07-25T06:40:18Z</time>
      </trkpt>
      <trkpt lat="44.85949" lon="5.96329">
        <ele>1767.1</ele>
        <time>2015-07-25T06:40:23Z</time>
      </trkpt>
      <trkpt lat="44.85952" lon="5.96324">
        <ele>1768.5</ele>
        <time>2015-07-25T06:40:28Z</time>
      </trkpt>
      <trkpt lat="44.85957" lon="5.96318">
        <ele>1769.4</ele>
        <time>2015-07-25T06:40:33Z</time>
      </trkpt>
      <trkpt lat="44.85962" lon="5.96313">
        <ele>1770.7</ele>
        <time>2015-07-25T06:40:38Z</time>
      </trkpt>
      <trkpt lat="44.85967" lon="5.96307">
        <ele>1772.1</ele>
        <time>2015-07-25T06:40:43Z</time>
      </trkpt>
      <trkpt lat="44.85972" lon="5.96301">
        <ele>1773.1</ele>
        <time>2015-07-25T06:40:48Z</time>
      </trkpt>
      <trkpt lat="44.85976" lon="5.96296">
        <ele>1774.1</ele>
        <time>2015-07-25T06:40:53Z</time>
      </trkpt>
      <trkpt lat="44.85981" lon="5.96291">
        <ele>1775.8</ele>
        <time>2015-07-25T06:40:58Z</time>
      </trkpt>
      <trkpt lat="44.85986" lon="5.96287">
        <ele>1776.9</ele>
        <time>2015-07-25T06:41:03Z</time>
      </trkpt>
      <trkpt lat="44.85991" lon="5.96282">
        <ele>1777.9</ele>
        <time>2015-07-25T06:41:08Z</time>
      </trkpt>
      <trkpt lat="44.85995" lon="5.96277">
        <ele>1778.9</ele>
        <time>2015-07-25T06:41:13Z</time>
      </trkpt>
      <trkpt lat="44.85999" lon="5.96273">
        <ele>1780.1</ele>
        <time>2015-07-25T06:41:18Z</time>
      </trkpt>
      <trkpt lat="44.86003" lon="5.96268">
        <ele>1780.7</ele>
        <time>2015-07-25T06:41:23Z</time>
      </trkpt>
      <trkpt lat="44.86007" lon="5.96263">
        <ele>1781.3</ele>
        <time>2015-07-25T06:41:28Z</time>
      </trkpt>
      <trkpt lat="44.86011" lon="5.96259">
        <ele>1781.9</ele>
        <time>2015-07-25T06:41:33Z</time>
      </trkpt>
      <trkpt lat="44.86016" lon="5.96255">
        <ele>1782.8</ele>
        <time>2015-07-25T06:41:38Z</time>
      </trkpt>
      <trkpt lat="44.86021" lon="5.96251">
        <ele>1783.7</ele>
        <time>2015-07-25T06:41:43Z</time>
      </trkpt>
      <trkpt lat="44.86025" lon="5.96247">
        <ele>1784.4</ele>
        <time>2015-07-25T06:41:48Z</time>
      </trkpt>
      <trkpt lat="44.8603" lon="5.96242">
        <ele>1785.2</ele>
        <time>2015-07-25T06:41:53Z</time>
      </trkpt>
      <trkpt lat="44.86034" lon="5.96238">
        <ele>1785.8</ele>
        <time>2015-07-25T06:41:58Z</time>
      </trkpt>
      <trkpt lat="44.86038" lon="5.96234">
        <ele>1785.8</ele>
        <time>2015-07-25T06:42:03Z</time>
      </trkpt>
      <trkpt lat="44.86042" lon="5.9623">
        <ele>1786.7</ele>
        <time>2015-07-25T06:42:08Z</time>
      </trkpt>
      <trkpt lat="44.86047" lon="5.96226">
        <ele>1787.5</ele>
        <time>2015-07-25T06:42:13Z</time>
      </trkpt>
      <trkpt lat="44.86051" lon="5.96222">
        <ele>1788.3</ele>
        <time>2015-07-25T06:42:18Z</time>
      </trkpt>
      <trkpt lat="44.86055" lon="5.96218">
        <ele>1789.2</ele>
        <time>2015-07-25T06:42:23Z</time>
      </trkpt>
      <trkpt lat="44.86059" lon="5.96216">
        <ele>1790</ele>
        <time>2015-07-25T06:42:28Z</time>
      </trkpt>
      <trkpt lat="44.86063" lon="5.96212">
        <ele>1790.7</ele>
        <time>2015-07-25T06:42:33Z</time>
      </trkpt>
      <trkpt lat="44.86068" lon="5.96208">
        <ele>1792</ele>
        <time>2015-07-25T06:42:38Z</time>
      </trkpt>
      <trkpt lat="44.86073" lon="5.96203">
        <ele>1792.5</ele>
        <time>2015-07-25T06:42:43Z</time>
      </trkpt>
      <trkpt lat="44.86078" lon="5.96198">
        <ele>1793.4</ele>
        <time>2015-07-25T06:42:48Z</time>
      </trkpt>
      <trkpt lat="44.86082" lon="5.96193">
        <ele>1794.2</ele>
        <time>2015-07-25T06:42:53Z</time>
      </trkpt>
      <trkpt lat="44.86087" lon="5.96189">
        <ele>1795.2</ele>
        <time>2015-07-25T06:42:58Z</time>
      </trkpt>
      <trkpt lat="44.86092" lon="5.96185">
        <ele>1796.5</ele>
        <time>2015-07-25T06:43:03Z</time>
      </trkpt>
      <trkpt lat="44.86097" lon="5.9618">
        <ele>1797.2</ele>
        <time>2015-07-25T06:43:08Z</time>
      </trkpt>
      <trkpt lat="44.86101" lon="5.96177">
        <ele>1797.9</ele>
        <time>2015-07-25T06:43:13Z</time>
      </trkpt>
      <trkpt lat="44.86105" lon="5.96173">
        <ele>1799.3</ele>
        <time>2015-07-25T06:43:18Z</time>
      </trkpt>
      <trkpt lat="44.86109" lon="5.96169">
        <ele>1800.3</ele>
        <time>2015-07-25T06:43:23Z</time>
      </trkpt>
      <trkpt lat="44.86113" lon="5.96165">
        <ele>1801.1</ele>
        <time>2015-07-25T06:43:28Z</time>
      </trkpt>
      <trkpt lat="44.86117" lon="5.9616">
        <ele>1801.6</ele>
        <time>2015-07-25T06:43:33Z</time>
      </trkpt>
      <trkpt lat="44.86121" lon="5.96155">
        <ele>1801.9</ele>
        <time>2015-07-25T06:43:38Z</time>
      </trkpt>
      <trkpt lat="44.86125" lon="5.9615">
        <ele>1802.4</ele>
        <time>2015-07-25T06:43:43Z</time>
      </trkpt>
      <trkpt lat="44.8613" lon="5.96147">
        <ele>1804.4</ele>
        <time>2015-07-25T06:43:48Z</time>
      </trkpt>
      <trkpt lat="44.86134" lon="5.96143">
        <ele>1805.4</ele>
        <time>2015-07-25T06:43:53Z</time>
      </trkpt>
      <trkpt lat="44.86139" lon="5.96139">
        <ele>1806.5</ele>
        <time>2015-07-25T06:43:58Z</time>
      </trkpt>
      <trkpt lat="44.86143" lon="5.96135">
        <ele>1807.9</ele>
        <time>2015-07-25T06:44:03Z</time>
      </trkpt>
      <trkpt lat="44.86147" lon="5.96129">
        <ele>1808.8</ele>
        <time>2015-07-25T06:44:08Z</time>
      </trkpt>
      <trkpt lat="44.86151" lon="5.96125">
        <ele>1809.1</ele>
        <time>2015-07-25T06:44:13Z</time>
      </trkpt>
      <trkpt lat="44.86156" lon="5.9612">
        <ele>1810.3</ele>
        <time>2015-07-25T06:44:18Z</time>
      </trkpt>
      <trkpt lat="44.8616" lon="5.96114">
        <ele>1811.3</ele>
        <time>2015-07-25T06:44:23Z</time>
      </trkpt>
      <trkpt lat="44.86164" lon="5.96108">
        <ele>1811.8</ele>
        <time>2015-07-25T06:44:28Z</time>
      </trkpt>
      <trkpt lat="44.86168" lon="5.96102">
        <ele>1812.6</ele>
        <time>2015-07-25T06:44:33Z</time>
      </trkpt>
      <trkpt lat="44.86173" lon="5.96098">
        <ele>1813.4</ele>
        <time>2015-07-25T06:44:38Z</time>
      </trkpt>
      <trkpt lat="44.86176" lon="5.9609">
        <ele>1814.1</ele>
        <time>2015-07-25T06:44:43Z</time>
      </trkpt>
      <trkpt lat="44.8618" lon="5.96085">
        <ele>1814.6</ele>
        <time>2015-07-25T06:44:48Z</time>
      </trkpt>
      <trkpt lat="44.86184" lon="5.96079">
        <ele>1815.2</ele>
        <time>2015-07-25T06:44:53Z</time>
      </trkpt>
      <trkpt lat="44.86188" lon="5.96072">
        <ele>1815.8</ele>
        <time>2015-07-25T06:44:58Z</time>
      </trkpt>
      <trkpt lat="44.86192" lon="5.96066">
        <ele>1817</ele>
        <time>2015-07-25T06:45:03Z</time>
      </trkpt>
      <trkpt lat="44.86195" lon="5.96058">
        <ele>1817.9</ele>
        <time>2015-07-25T06:45:08Z</time>
      </trkpt>
      <trkpt lat="44.86198" lon="5.9605">
        <ele>1818.4</ele>
        <time>2015-07-25T06:45:13Z</time>
      </trkpt>
      <trkpt lat="44.862" lon="5.96042">
        <ele>1818.8</ele>
        <time>2015-07-25T06:45:18Z</time>
      </trkpt>
      <trkpt lat="44.86203" lon="5.96035">
        <ele>1819.5</ele>
        <time>2015-07-25T06:45:23Z</time>
      </trkpt>
      <trkpt lat="44.86208" lon="5.9603">
        <ele>1820</ele>
        <time>2015-07-25T06:45:28Z</time>
      </trkpt>
      <trkpt lat="44.86212" lon="5.96025">
        <ele>1820.8</ele>
        <time>2015-07-25T06:45:33Z</time>
      </trkpt>
      <trkpt lat="44.86216" lon="5.96018">
        <ele>1821.4</ele>
        <time>2015-07-25T06:45:38Z</time>
      </trkpt>
      <trkpt lat="44.8622" lon="5.96013">
        <ele>1821.7</ele>
        <time>2015-07-25T06:45:43Z</time>
      </trkpt>
      <trkpt lat="44.86224" lon="5.96006">
        <ele>1822.3</ele>
        <time>2015-07-25T06:45:48Z</time>
      </trkpt>
      <trkpt lat="44.86228" lon="5.96001">
        <ele>1822.7</ele>
        <time>2015-07-25T06:45:53Z</time>
      </trkpt>
      <trkpt lat="44.86232" lon="5.95996">
        <ele>1823.5</ele>
        <time>2015-07-25T06:45:58Z</time>
      </trkpt>
      <trkpt lat="44.86236" lon="5.9599">
        <ele>1823.7</ele>
        <time>2015-07-25T06:46:03Z</time>
      </trkpt>
      <trkpt lat="44.8624" lon="5.95983">
        <ele>1824</ele>
        <time>2015-07-25T06:46:08Z</time>
      </trkpt>
      <trkpt lat="44.86244" lon="5.95976">
        <ele>1824.2</ele>
        <time>2015-07-25T06:46:13Z</time>
      </trkpt>
      <trkpt lat="44.86246" lon="5.95968">
        <ele>1824.3</ele>
        <time>2015-07-25T06:46:18Z</time>
      </trkpt>
      <trkpt lat="44.8625" lon="5.95962">
        <ele>1824.6</ele>
        <time>2015-07-25T06:46:23Z</time>
      </trkpt>
      <trkpt lat="44.86253" lon="5.95955">
        <ele>1824.9</ele>
        <time>2015-07-25T06:46:28Z</time>
      </trkpt>
      <trkpt lat="44.86256" lon="5.95948">
        <ele>1825.4</ele>
        <time>2015-07-25T06:46:33Z</time>
      </trkpt>
      <trkpt lat="44.86261" lon="5.95942">
        <ele>1825.9</ele>
        <time>2015-07-25T06:46:38Z</time>
      </trkpt>
      <trkpt lat="44.86265" lon="5.95937">
        <ele>1827</ele>
        <time>2015-07-25T06:46:43Z</time>
      </trkpt>
      <trkpt lat="44.8627" lon="5.95932">
        <ele>1827.7</ele>
        <time>2015-07-25T06:46:48Z</time>
      </trkpt>
      <trkpt lat="44.86275" lon="5.95927">
        <ele>1828.4</ele>
        <time>2015-07-25T06:46:53Z</time>
      </trkpt>
      <trkpt lat="44.86279" lon="5.95922">
        <ele>1829.1</ele>
        <time>2015-07-25T06:46:58Z</time>
      </trkpt>
      <trkpt lat="44.86284" lon="5.95917">
        <ele>1830.2</ele>
        <time>2015-07-25T06:47:03Z</time>
      </trkpt>
      <trkpt lat="44.86289" lon="5.95913">
        <ele>1830.9</ele>
        <time>2015-07-25T06:47:08Z</time>
      </trkpt>
      <trkpt lat="44.86294" lon="5.95908">
        <ele>1831.7</ele>
        <time>2015-07-25T06:47:13Z</time>
      </trkpt>
      <trkpt lat="44.86299" lon="5.95904">
        <ele>1832.6</ele>
        <time>2015-07-25T06:47:18Z</time>
      </trkpt>
      <trkpt lat="44.86304" lon="5.95899">
        <ele>1833.3</ele>
        <time>2015-07-25T06:47:23Z</time>
      </trkpt>
      <trkpt lat="44.86308" lon="5.95896">
        <ele>1834.1</ele>
        <time>2015-07-25T06:47:28Z</time>
      </trkpt>
      <trkpt lat="44.86309" lon="5.95897">
        <ele>1834.6</ele>
        <time>2015-07-25T06:47:33Z</time>
      </trkpt>
      <trkpt lat="44.86311" lon="5.95895">
        <ele>1834.6</ele>
        <time>2015-07-25T06:47:38Z</time>
      </trkpt>
      <trkpt lat="44.86317" lon="5.9589">
        <ele>1834.4</ele>
        <time>2015-07-25T06:47:43Z</time>
      </trkpt>
      <trkpt lat="44.86322" lon="5.95885">
        <ele>1835.1</ele>
        <time>2015-07-25T06:47:48Z</time>
      </trkpt>
      <trkpt lat="44.86327" lon="5.9588">
        <ele>1835.4</ele>
        <time>2015-07-25T06:47:53Z</time>
      </trkpt>
      <trkpt lat="44.86332" lon="5.95876">
        <ele>1835.5</ele>
        <time>2015-07-25T06:47:58Z</time>
      </trkpt>
      <trkpt lat="44.86337" lon="5.95873">
        <ele>1836.2</ele>
        <time>2015-07-25T06:48:03Z</time>
      </trkpt>
      <trkpt lat="44.86343" lon="5.9587">
        <ele>1836.3</ele>
        <time>2015-07-25T06:48:08Z</time>
      </trkpt>
      <trkpt lat="44.86348" lon="5.95867">
        <ele>1837.2</ele>
        <time>2015-07-25T06:48:13Z</time>
      </trkpt>
      <trkpt lat="44.86354" lon="5.95863">
        <ele>1837.8</ele>
        <time>2015-07-25T06:48:18Z</time>
      </trkpt>
      <trkpt lat="44.8636" lon="5.95859">
        <ele>1837.5</ele>
        <time>2015-07-25T06:48:23Z</time>
      </trkpt>
      <trkpt lat="44.86364" lon="5.95853">
        <ele>1837.1</ele>
        <time>2015-07-25T06:48:28Z</time>
      </trkpt>
      <trkpt lat="44.86364" lon="5.95843">
        <ele>1836.9</ele>
        <time>2015-07-25T06:48:33Z</time>
      </trkpt>
      <trkpt lat="44.86362" lon="5.95835">
        <ele>1837.1</ele>
        <time>2015-07-25T06:48:38Z</time>
      </trkpt>
      <trkpt lat="44.86358" lon="5.9583">
        <ele>1837.1</ele>
        <time>2015-07-25T06:48:43Z</time>
      </trkpt>
      <trkpt lat="44.86353" lon="5.95824">
        <ele>1837.4</ele>
        <time>2015-07-25T06:48:48Z</time>
      </trkpt>
      <trkpt lat="44.86349" lon="5.95818">
        <ele>1837.6</ele>
        <time>2015-07-25T06:48:53Z</time>
      </trkpt>
      <trkpt lat="44.86345" lon="5.95811">
        <ele>1837.9</ele>
        <time>2015-07-25T06:48:58Z</time>
      </trkpt>
      <trkpt lat="44.86342" lon="5.95804">
        <ele>1838.4</ele>
        <time>2015-07-25T06:49:03Z</time>
      </trkpt>
      <trkpt lat="44.86339" lon="5.95796">
        <ele>1839.2</ele>
        <time>2015-07-25T06:49:08Z</time>
      </trkpt>
      <trkpt lat="44.86336" lon="5.95789">
        <ele>1839.8</ele>
        <time>2015-07-25T06:49:13Z</time>
      </trkpt>
      <trkpt lat="44.86333" lon="5.95782">
        <ele>1840.3</ele>
        <time>2015-07-25T06:49:18Z</time>
      </trkpt>
      <trkpt lat="44.8633" lon="5.95775">
        <ele>1840.9</ele>
        <time>2015-07-25T06:49:23Z</time>
      </trkpt>
      <trkpt lat="44.86327" lon="5.95769">
        <ele>1841.5</ele>
        <time>2015-07-25T06:49:28Z</time>
      </trkpt>
      <trkpt lat="44.86323" lon="5.95762">
        <ele>1842</ele>
        <time>2015-07-25T06:49:33Z</time>
      </trkpt>
      <trkpt lat="44.86318" lon="5.95755">
        <ele>1842.6</ele>
        <time>2015-07-25T06:49:38Z</time>
      </trkpt>
      <trkpt lat="44.86314" lon="5.95748">
        <ele>1843.8</ele>
        <time>2015-07-25T06:49:43Z</time>
      </trkpt>
      <trkpt lat="44.8631" lon="5.95742">
        <ele>1845.8</ele>
        <time>2015-07-25T06:49:48Z</time>
      </trkpt>
      <trkpt lat="44.86306" lon="5.95734">
        <ele>1847</ele>
        <time>2015-07-25T06:49:53Z</time>
      </trkpt>
      <trkpt lat="44.86303" lon="5.95727">
        <ele>1846.2</ele>
        <time>2015-07-25T06:49:58Z</time>
      </trkpt>
      <trkpt lat="44.863" lon="5.95719">
        <ele>1847.4</ele>
        <time>2015-07-25T06:50:03Z</time>
      </trkpt>
      <trkpt lat="44.86295" lon="5.95712">
        <ele>1849.5</ele>
        <time>2015-07-25T06:50:08Z</time>
      </trkpt>
      <trkpt lat="44.86291" lon="5.95705">
        <ele>1851.5</ele>
        <time>2015-07-25T06:50:13Z</time>
      </trkpt>
      <trkpt lat="44.86287" lon="5.95697">
        <ele>1852.7</ele>
        <time>2015-07-25T06:50:18Z</time>
      </trkpt>
      <trkpt lat="44.86283" lon="5.9569">
        <ele>1853.9</ele>
        <time>2015-07-25T06:50:23Z</time>
      </trkpt>
      <trkpt lat="44.86279" lon="5.95683">
        <ele>1854.6</ele>
        <time>2015-07-25T06:50:28Z</time>
      </trkpt>
      <trkpt lat="44.86276" lon="5.95675">
        <ele>1855.4</ele>
        <time>2015-07-25T06:50:33Z</time>
      </trkpt>
      <trkpt lat="44.86271" lon="5.95669">
        <ele>1856.2</ele>
        <time>2015-07-25T06:50:38Z</time>
      </trkpt>
      <trkpt lat="44.86265" lon="5.95662">
        <ele>1856.8</ele>
        <time>2015-07-25T06:50:43Z</time>
      </trkpt>
      <trkpt lat="44.8626" lon="5.95655">
        <ele>1858.6</ele>
        <time>2015-07-25T06:50:48Z</time>
      </trkpt>
      <trkpt lat="44.86255" lon="5.95648">
        <ele>1859.6</ele>
        <time>2015-07-25T06:50:53Z</time>
      </trkpt>
      <trkpt lat="44.8625" lon="5.95641">
        <ele>1860.7</ele>
        <time>2015-07-25T06:50:58Z</time>
      </trkpt>
      <trkpt lat="44.86245" lon="5.95635">
        <ele>1862.1</ele>
        <time>2015-07-25T06:51:03Z</time>
      </trkpt>
      <trkpt lat="44.8624" lon="5.95628">
        <ele>1863.5</ele>
        <time>2015-07-25T06:51:08Z</time>
      </trkpt>
      <trkpt lat="44.86235" lon="5.95622">
        <ele>1864.6</ele>
        <time>2015-07-25T06:51:13Z</time>
      </trkpt>
      <trkpt lat="44.86229" lon="5.95617">
        <ele>1865.9</ele>
        <time>2015-07-25T06:51:18Z</time>
      </trkpt>
      <trkpt lat="44.86224" lon="5.95612">
        <ele>1867</ele>
        <time>2015-07-25T06:51:23Z</time>
      </trkpt>
      <trkpt lat="44.86218" lon="5.95606">
        <ele>1868.2</ele>
        <time>2015-07-25T06:51:28Z</time>
      </trkpt>
      <trkpt lat="44.86212" lon="5.95601">
        <ele>1869.4</ele>
        <time>2015-07-25T06:51:33Z</time>
      </trkpt>
      <trkpt lat="44.86207" lon="5.95596">
        <ele>1869.8</ele>
        <time>2015-07-25T06:51:38Z</time>
      </trkpt>
      <trkpt lat="44.86202" lon="5.95591">
        <ele>1870</ele>
        <time>2015-07-25T06:51:43Z</time>
      </trkpt>
      <trkpt lat="44.86197" lon="5.95587">
        <ele>1870.3</ele>
        <time>2015-07-25T06:51:48Z</time>
      </trkpt>
      <trkpt lat="44.8619" lon="5.95581">
        <ele>1872.1</ele>
        <time>2015-07-25T06:51:53Z</time>
      </trkpt>
      <trkpt lat="44.86184" lon="5.95578">
        <ele>1874.1</ele>
        <time>2015-07-25T06:51:58Z</time>
      </trkpt>
      <trkpt lat="44.86178" lon="5.95574">
        <ele>1874.6</ele>
        <time>2015-07-25T06:52:03Z</time>
      </trkpt>
      <trkpt lat="44.86172" lon="5.9557">
        <ele>1875.2</ele>
        <time>2015-07-25T06:52:08Z</time>
      </trkpt>
      <trkpt lat="44.86166" lon="5.95565">
        <ele>1876.6</ele>
        <time>2015-07-25T06:52:13Z</time>
      </trkpt>
      <trkpt lat="44.8616" lon="5.95562">
        <ele>1877.4</ele>
        <time>2015-07-25T06:52:18Z</time>
      </trkpt>
      <trkpt lat="44.86154" lon="5.95558">
        <ele>1877.6</ele>
        <time>2015-07-25T06:52:23Z</time>
      </trkpt>
      <trkpt lat="44.86149" lon="5.95554">
        <ele>1877.9</ele>
        <time>2015-07-25T06:52:28Z</time>
      </trkpt>
      <trkpt lat="44.86144" lon="5.95548">
        <ele>1878.3</ele>
        <time>2015-07-25T06:52:33Z</time>
      </trkpt>
      <trkpt lat="44.86139" lon="5.95542">
        <ele>1878.8</ele>
        <time>2015-07-25T06:52:38Z</time>
      </trkpt>
      <trkpt lat="44.86134" lon="5.95536">
        <ele>1878.8</ele>
        <time>2015-07-25T06:52:43Z</time>
      </trkpt>
      <trkpt lat="44.8613" lon="5.9553">
        <ele>1879</ele>
        <time>2015-07-25T06:52:48Z</time>
      </trkpt>
      <trkpt lat="44.86125" lon="5.95524">
        <ele>1879.6</ele>
        <time>2015-07-25T06:52:53Z</time>
      </trkpt>
      <trkpt lat="44.86121" lon="5.95517">
        <ele>1880.4</ele>
        <time>2015-07-25T06:52:58Z</time>
      </trkpt>
      <trkpt lat="44.86117" lon="5.95511">
        <ele>1881</ele>
        <time>2015-07-25T06:53:03Z</time>
      </trkpt>
      <trkpt lat="44.86113" lon="5.95505">
        <ele>1881</ele>
        <time>2015-07-25T06:53:08Z</time>
      </trkpt>
      <trkpt lat="44.86109" lon="5.95499">
        <ele>1881.8</ele>
        <time>2015-07-25T06:53:13Z</time>
      </trkpt>
      <trkpt lat="44.86107" lon="5.95494">
        <ele>1882.5</ele>
        <time>2015-07-25T06:53:18Z</time>
      </trkpt>
      <trkpt lat="44.86104" lon="5.95487">
        <ele>1883.2</ele>
        <time>2015-07-25T06:53:23Z</time>
      </trkpt>
      <trkpt lat="44.86102" lon="5.9548">
        <ele>1883.6</ele>
        <time>2015-07-25T06:53:28Z</time>
      </trkpt>
      <trkpt lat="44.861" lon="5.95472">
        <ele>1884.8</ele>
        <time>2015-07-25T06:53:33Z</time>
      </trkpt>
      <trkpt lat="44.86096" lon="5.95465">
        <ele>1888.4</ele>
        <time>2015-07-25T06:53:38Z</time>
      </trkpt>
      <trkpt lat="44.86093" lon="5.95458">
        <ele>1889.5</ele>
        <time>2015-07-25T06:53:43Z</time>
      </trkpt>
      <trkpt lat="44.8609" lon="5.95451">
        <ele>1889.8</ele>
        <time>2015-07-25T06:53:48Z</time>
      </trkpt>
      <trkpt lat="44.86087" lon="5.95444">
        <ele>1890.5</ele>
        <time>2015-07-25T06:53:53Z</time>
      </trkpt>
      <trkpt lat="44.86084" lon="5.95437">
        <ele>1891.7</ele>
        <time>2015-07-25T06:53:58Z</time>
      </trkpt>
      <trkpt lat="44.86081" lon="5.9543">
        <ele>1892.5</ele>
        <time>2015-07-25T06:54:03Z</time>
      </trkpt>
      <trkpt lat="44.86078" lon="5.95423">
        <ele>1893.7</ele>
        <time>2015-07-25T06:54:08Z</time>
      </trkpt>
      <trkpt lat="44.86073" lon="5.95416">
        <ele>1895.3</ele>
        <time>2015-07-25T06:54:13Z</time>
      </trkpt>
      <trkpt lat="44.8607" lon="5.9541">
        <ele>1896.1</ele>
        <time>2015-07-25T06:54:18Z</time>
      </trkpt>
      <trkpt lat="44.86066" lon="5.95405">
        <ele>1896.7</ele>
        <time>2015-07-25T06:54:23Z</time>
      </trkpt>
      <trkpt lat="44.86062" lon="5.95399">
        <ele>1897.8</ele>
        <time>2015-07-25T06:54:28Z</time>
      </trkpt>
      <trkpt lat="44.86057" lon="5.95393">
        <ele>1898.6</ele>
        <time>2015-07-25T06:54:33Z</time>
      </trkpt>
      <trkpt lat="44.86054" lon="5.95386">
        <ele>1899.7</ele>
        <time>2015-07-25T06:54:38Z</time>
      </trkpt>
      <trkpt lat="44.8605" lon="5.95379">
        <ele>1901.6</ele>
        <time>2015-07-25T06:54:43Z</time>
      </trkpt>
      <trkpt lat="44.86047" lon="5.95373">
        <ele>1903.2</ele>
        <time>2015-07-25T06:54:48Z</time>
      </trkpt>
      <trkpt lat="44.86045" lon="5.95371">
        <ele>1904.2</ele>
        <time>2015-07-25T06:54:53Z</time>
      </trkpt>
      <trkpt lat="44.86045" lon="5.95373">
        <ele>1903.2</ele>
        <time>2015-07-25T06:54:58Z</time>
      </trkpt>
      <trkpt lat="44.86044" lon="5.95371">
        <ele>1904</ele>
        <time>2015-07-25T06:55:03Z</time>
      </trkpt>
      <trkpt lat="44.8604" lon="5.95365">
        <ele>1906.6</ele>
        <time>2015-07-25T06:55:08Z</time>
      </trkpt>
      <trkpt lat="44.86036" lon="5.95359">
        <ele>1907.7</ele>
        <time>2015-07-25T06:55:13Z</time>
      </trkpt>
      <trkpt lat="44.86032" lon="5.95353">
        <ele>1908.9</ele>
        <time>2015-07-25T06:55:18Z</time>
      </trkpt>
      <trkpt lat="44.86028" lon="5.95347">
        <ele>1910.2</ele>
        <time>2015-07-25T06:55:23Z</time>
      </trkpt>
      <trkpt lat="44.86024" lon="5.9534">
        <ele>1911.3</ele>
        <time>2015-07-25T06:55:28Z</time>
      </trkpt>
      <trkpt lat="44.86021" lon="5.95335">
        <ele>1912.2</ele>
        <time>2015-07-25T06:55:33Z</time>
      </trkpt>
      <trkpt lat="44.86018" lon="5.9533">
        <ele>1912.7</ele>
        <time>2015-07-25T06:55:38Z</time>
      </trkpt>
      <trkpt lat="44.86015" lon="5.95323">
        <ele>1914.3</ele>
        <time>2015-07-25T06:55:43Z</time>
      </trkpt>
      <trkpt lat="44.86013" lon="5.95316">
        <ele>1915.4</ele>
        <time>2015-07-25T06:55:48Z</time>
      </trkpt>
      <trkpt lat="44.8601" lon="5.95308">
        <ele>1916.5</ele>
        <time>2015-07-25T06:55:53Z</time>
      </trkpt>
      <trkpt lat="44.86009" lon="5.953">
        <ele>1917.9</ele>
        <time>2015-07-25T06:55:58Z</time>
      </trkpt>
      <trkpt lat="44.8601" lon="5.95292">
        <ele>1919.6</ele>
        <time>2015-07-25T06:56:03Z</time>
      </trkpt>
      <trkpt lat="44.86012" lon="5.95285">
        <ele>1920.9</ele>
        <time>2015-07-25T06:56:08Z</time>
      </trkpt>
      <trkpt lat="44.86015" lon="5.95279">
        <ele>1922</ele>
        <time>2015-07-25T06:56:13Z</time>
      </trkpt>
      <trkpt lat="44.86017" lon="5.95272">
        <ele>1922.7</ele>
        <time>2015-07-25T06:56:18Z</time>
      </trkpt>
      <trkpt lat="44.86019" lon="5.95264">
        <ele>1923.5</ele>
        <time>2015-07-25T06:56:23Z</time>
      </trkpt>
      <trkpt lat="44.8602" lon="5.95255">
        <ele>1924.5</ele>
        <time>2015-07-25T06:56:28Z</time>
      </trkpt>
      <trkpt lat="44.8602" lon="5.95249">
        <ele>1925.3</ele>
        <time>2015-07-25T06:56:33Z</time>
      </trkpt>
      <trkpt lat="44.8602" lon="5.95248">
        <ele>1925.2</ele>
        <time>2015-07-25T06:56:38Z</time>
      </trkpt>
      <trkpt lat="44.86019" lon="5.95248">
        <ele>1925</ele>
        <time>2015-07-25T06:56:43Z</time>
      </trkpt>
      <trkpt lat="44.86019" lon="5.95248">
        <ele>1925.2</ele>
        <time>2015-07-25T06:56:48Z</time>
      </trkpt>
      <trkpt lat="44.8602" lon="5.95248">
        <ele>1925.2</ele>
        <time>2015-07-25T06:56:53Z</time>
      </trkpt>
      <trkpt lat="44.8602" lon="5.95248">
        <ele>1925.2</ele>
        <time>2015-07-25T06:56:58Z</time>
      </trkpt>
      <trkpt lat="44.8602" lon="5.95248">
        <ele>1925.2</ele>
        <time>2015-07-25T06:57:03Z</time>
      </trkpt>
      <trkpt lat="44.8602" lon="5.95247">
        <ele>1925.6</ele>
        <time>2015-07-25T06:57:08Z</time>
      </trkpt>
      <trkpt lat="44.8602" lon="5.95247">
        <ele>1925.5</ele>
        <time>2015-07-25T06:57:13Z</time>
      </trkpt>
      <trkpt lat="44.8602" lon="5.95247">
        <ele>1925.4</ele>
        <time>2015-07-25T06:57:18Z</time>
      </trkpt>
      <trkpt lat="44.86019" lon="5.95247">
        <ele>1925.5</ele>
        <time>2015-07-25T06:57:23Z</time>
      </trkpt>
      <trkpt lat="44.86019" lon="5.95247">
        <ele>1925.5</ele>
        <time>2015-07-25T06:57:28Z</time>
      </trkpt>
      <trkpt lat="44.86019" lon="5.95247">
        <ele>1925.6</ele>
        <time>2015-07-25T06:57:33Z</time>
      </trkpt>
      <trkpt lat="44.86019" lon="5.95246">
        <ele>1925.5</ele>
        <time>2015-07-25T06:57:38Z</time>
      </trkpt>
      <trkpt lat="44.86019" lon="5.9524">
        <ele>1926</ele>
        <time>2015-07-25T06:57:43Z</time>
      </trkpt>
      <trkpt lat="44.8602" lon="5.95232">
        <ele>1926.7</ele>
        <time>2015-07-25T06:57:48Z</time>
      </trkpt>
      <trkpt lat="44.86021" lon="5.95224">
        <ele>1927.8</ele>
        <time>2015-07-25T06:57:53Z</time>
      </trkpt>
      <trkpt lat="44.86023" lon="5.95216">
        <ele>1928.3</ele>
        <time>2015-07-25T06:57:58Z</time>
      </trkpt>
      <trkpt lat="44.86024" lon="5.95208">
        <ele>1928.8</ele>
        <time>2015-07-25T06:58:03Z</time>
      </trkpt>
      <trkpt lat="44.86026" lon="5.952">
        <ele>1929.6</ele>
        <time>2015-07-25T06:58:08Z</time>
      </trkpt>
      <trkpt lat="44.86027" lon="5.95191">
        <ele>1929.9</ele>
        <time>2015-07-25T06:58:13Z</time>
      </trkpt>
      <trkpt lat="44.86028" lon="5.95182">
        <ele>1930.1</ele>
        <time>2015-07-25T06:58:18Z</time>
      </trkpt>
      <trkpt lat="44.8603" lon="5.95174">
        <ele>1930.2</ele>
        <time>2015-07-25T06:58:23Z</time>
      </trkpt>
      <trkpt lat="44.86031" lon="5.95165">
        <ele>1930.5</ele>
        <time>2015-07-25T06:58:28Z</time>
      </trkpt>
      <trkpt lat="44.86033" lon="5.95157">
        <ele>1930.6</ele>
        <time>2015-07-25T06:58:33Z</time>
      </trkpt>
      <trkpt lat="44.86034" lon="5.95149">
        <ele>1930.6</ele>
        <time>2015-07-25T06:58:38Z</time>
      </trkpt>
      <trkpt lat="44.86036" lon="5.95141">
        <ele>1930.6</ele>
        <time>2015-07-25T06:58:43Z</time>
      </trkpt>
      <trkpt lat="44.86037" lon="5.95132">
        <ele>1930.5</ele>
        <time>2015-07-25T06:58:48Z</time>
      </trkpt>
      <trkpt lat="44.86038" lon="5.95123">
        <ele>1930.5</ele>
        <time>2015-07-25T06:58:53Z</time>
      </trkpt>
      <trkpt lat="44.8604" lon="5.95115">
        <ele>1930.3</ele>
        <time>2015-07-25T06:58:58Z</time>
      </trkpt>
      <trkpt lat="44.86041" lon="5.95106">
        <ele>1929.9</ele>
        <time>2015-07-25T06:59:03Z</time>
      </trkpt>
      <trkpt lat="44.86042" lon="5.95097">
        <ele>1929.3</ele>
        <time>2015-07-25T06:59:08Z</time>
      </trkpt>
      <trkpt lat="44.86044" lon="5.95088">
        <ele>1928.7</ele>
        <time>2015-07-25T06:59:13Z</time>
      </trkpt>
      <trkpt lat="44.86045" lon="5.95079">
        <ele>1928</ele>
        <time>2015-07-25T06:59:18Z</time>
      </trkpt>
      <trkpt lat="44.86047" lon="5.95071">
        <ele>1927.2</ele>
        <time>2015-07-25T06:59:23Z</time>
      </trkpt>
      <trkpt lat="44.86047" lon="5.95062">
        <ele>1926.4</ele>
        <time>2015-07-25T06:59:28Z</time>
      </trkpt>
      <trkpt lat="44.86049" lon="5.95054">
        <ele>1925.4</ele>
        <time>2015-07-25T06:59:33Z</time>
      </trkpt>
      <trkpt lat="44.8605" lon="5.95045">
        <ele>1924.5</ele>
        <time>2015-07-25T06:59:38Z</time>
      </trkpt>
      <trkpt lat="44.86052" lon="5.95037">
        <ele>1923.3</ele>
        <time>2015-07-25T06:59:43Z</time>
      </trkpt>
      <trkpt lat="44.86053" lon="5.95029">
        <ele>1922.1</ele>
        <time>2015-07-25T06:59:48Z</time>
      </trkpt>
      <trkpt lat="44.86054" lon="5.95027">
        <ele>1921.8</ele>
        <time>2015-07-25T06:59:53Z</time>
      </trkpt>
      <trkpt lat="44.86054" lon="5.95027">
        <ele>1921.9</ele>
        <time>2015-07-25T06:59:58Z</time>
      </trkpt>
      <trkpt lat="44.86055" lon="5.95021">
        <ele>1921</ele>
        <time>2015-07-25T07:00:03Z</time>
      </trkpt>
      <trkpt lat="44.86057" lon="5.95013">
        <ele>1919.9</ele>
        <time>2015-07-25T07:00:08Z</time>
      </trkpt>
      <trkpt lat="44.8606" lon="5.95006">
        <ele>1918.8</ele>
        <time>2015-07-25T07:00:13Z</time>
      </trkpt>
      <trkpt lat="44.86061" lon="5.94998">
        <ele>1917.8</ele>
        <time>2015-07-25T07:00:18Z</time>
      </trkpt>
      <trkpt lat="44.86063" lon="5.94991">
        <ele>1916.6</ele>
        <time>2015-07-25T07:00:23Z</time>
      </trkpt>
      <trkpt lat="44.86064" lon="5.94982">
        <ele>1915.8</ele>
        <time>2015-07-25T07:00:28Z</time>
      </trkpt>
      <trkpt lat="44.86066" lon="5.94974">
        <ele>1914.8</ele>
        <time>2015-07-25T07:00:33Z</time>
      </trkpt>
      <trkpt lat="44.86068" lon="5.94966">
        <ele>1914</ele>
        <time>2015-07-25T07:00:38Z</time>
      </trkpt>
      <trkpt lat="44.86069" lon="5.94958">
        <ele>1913.2</ele>
        <time>2015-07-25T07:00:43Z</time>
      </trkpt>
      <trkpt lat="44.8607" lon="5.9495">
        <ele>1912.3</ele>
        <time>2015-07-25T07:00:48Z</time>
      </trkpt>
      <trkpt lat="44.86072" lon="5.94941">
        <ele>1910.7</ele>
        <time>2015-07-25T07:00:53Z</time>
      </trkpt>
      <trkpt lat="44.86073" lon="5.94933">
        <ele>1909.5</ele>
        <time>2015-07-25T07:00:58Z</time>
      </trkpt>
      <trkpt lat="44.86075" lon="5.94924">
        <ele>1908.4</ele>
        <time>2015-07-25T07:01:03Z</time>
      </trkpt>
      <trkpt lat="44.86077" lon="5.94915">
        <ele>1907.6</ele>
        <time>2015-07-25T07:01:08Z</time>
      </trkpt>
      <trkpt lat="44.86079" lon="5.94905">
        <ele>1907</ele>
        <time>2015-07-25T07:01:13Z</time>
      </trkpt>
      <trkpt lat="44.8608" lon="5.94896">
        <ele>1906.3</ele>
        <time>2015-07-25T07:01:18Z</time>
      </trkpt>
      <trkpt lat="44.86083" lon="5.94886">
        <ele>1905.7</ele>
        <time>2015-07-25T07:01:23Z</time>
      </trkpt>
      <trkpt lat="44.86084" lon="5.94877">
        <ele>1905.2</ele>
        <time>2015-07-25T07:01:28Z</time>
      </trkpt>
      <trkpt lat="44.86086" lon="5.94867">
        <ele>1904.7</ele>
        <time>2015-07-25T07:01:33Z</time>
      </trkpt>
      <trkpt lat="44.86088" lon="5.94858">
        <ele>1904.2</ele>
        <time>2015-07-25T07:01:38Z</time>
      </trkpt>
      <trkpt lat="44.86089" lon="5.9485">
        <ele>1903.9</ele>
        <time>2015-07-25T07:01:43Z</time>
      </trkpt>
      <trkpt lat="44.86091" lon="5.94841">
        <ele>1903.5</ele>
        <time>2015-07-25T07:01:48Z</time>
      </trkpt>
      <trkpt lat="44.86093" lon="5.94833">
        <ele>1903.1</ele>
        <time>2015-07-25T07:01:53Z</time>
      </trkpt>
      <trkpt lat="44.86096" lon="5.94824">
        <ele>1902.8</ele>
        <time>2015-07-25T07:01:58Z</time>
      </trkpt>
      <trkpt lat="44.86099" lon="5.94815">
        <ele>1902.4</ele>
        <time>2015-07-25T07:02:03Z</time>
      </trkpt>
      <trkpt lat="44.86101" lon="5.94807">
        <ele>1902</ele>
        <time>2015-07-25T07:02:08Z</time>
      </trkpt>
      <trkpt lat="44.86103" lon="5.94798">
        <ele>1901.5</ele>
        <time>2015-07-25T07:02:13Z</time>
      </trkpt>
      <trkpt lat="44.86105" lon="5.9479">
        <ele>1900.7</ele>
        <time>2015-07-25T07:02:18Z</time>
      </trkpt>
      <trkpt lat="44.86109" lon="5.94781">
        <ele>1899.7</ele>
        <time>2015-07-25T07:02:23Z</time>
      </trkpt>
      <trkpt lat="44.86111" lon="5.94773">
        <ele>1898.7</ele>
        <time>2015-07-25T07:02:28Z</time>
      </trkpt>
      <trkpt lat="44.86114" lon="5.94765">
        <ele>1898.1</ele>
        <time>2015-07-25T07:02:33Z</time>
      </trkpt>
      <trkpt lat="44.86116" lon="5.94757">
        <ele>1897.9</ele>
        <time>2015-07-25T07:02:38Z</time>
      </trkpt>
      <trkpt lat="44.86119" lon="5.94749">
        <ele>1897.2</ele>
        <time>2015-07-25T07:02:43Z</time>
      </trkpt>
      <trkpt lat="44.86121" lon="5.9474">
        <ele>1896.6</ele>
        <time>2015-07-25T07:02:48Z</time>
      </trkpt>
      <trkpt lat="44.86124" lon="5.94732">
        <ele>1895.9</ele>
        <time>2015-07-25T07:02:53Z</time>
      </trkpt>
      <trkpt lat="44.86127" lon="5.94724">
        <ele>1895.4</ele>
        <time>2015-07-25T07:02:58Z</time>
      </trkpt>
      <trkpt lat="44.86131" lon="5.94716">
        <ele>1894.8</ele>
        <time>2015-07-25T07:03:03Z</time>
      </trkpt>
      <trkpt lat="44.86133" lon="5.94708">
        <ele>1894.3</ele>
        <time>2015-07-25T07:03:08Z</time>
      </trkpt>
      <trkpt lat="44.86136" lon="5.947">
        <ele>1893.9</ele>
        <time>2015-07-25T07:03:13Z</time>
      </trkpt>
      <trkpt lat="44.86139" lon="5.94692">
        <ele>1893.2</ele>
        <time>2015-07-25T07:03:18Z</time>
      </trkpt>
      <trkpt lat="44.86142" lon="5.94684">
        <ele>1892.2</ele>
        <time>2015-07-25T07:03:23Z</time>
      </trkpt>
      <trkpt lat="44.86145" lon="5.94676">
        <ele>1891.8</ele>
        <time>2015-07-25T07:03:28Z</time>
      </trkpt>
      <trkpt lat="44.86148" lon="5.94668">
        <ele>1891.2</ele>
        <time>2015-07-25T07:03:33Z</time>
      </trkpt>
      <trkpt lat="44.86151" lon="5.94659">
        <ele>1890.5</ele>
        <time>2015-07-25T07:03:38Z</time>
      </trkpt>
      <trkpt lat="44.86154" lon="5.94651">
        <ele>1889.9</ele>
        <time>2015-07-25T07:03:43Z</time>
      </trkpt>
      <trkpt lat="44.86157" lon="5.94643">
        <ele>1889.4</ele>
        <time>2015-07-25T07:03:48Z</time>
      </trkpt>
      <trkpt lat="44.8616" lon="5.94636">
        <ele>1888.8</ele>
        <time>2015-07-25T07:03:53Z</time>
      </trkpt>
      <trkpt lat="44.86162" lon="5.94627">
        <ele>1888.4</ele>
        <time>2015-07-25T07:03:58Z</time>
      </trkpt>
      <trkpt lat="44.86164" lon="5.94618">
        <ele>1888</ele>
        <time>2015-07-25T07:04:03Z</time>
      </trkpt>
      <trkpt lat="44.86167" lon="5.9461">
        <ele>1887.9</ele>
        <time>2015-07-25T07:04:08Z</time>
      </trkpt>
      <trkpt lat="44.86169" lon="5.94601">
        <ele>1887.7</ele>
        <time>2015-07-25T07:04:13Z</time>
      </trkpt>
      <trkpt lat="44.86171" lon="5.94593">
        <ele>1887.2</ele>
        <time>2015-07-25T07:04:18Z</time>
      </trkpt>
      <trkpt lat="44.86173" lon="5.94584">
        <ele>1886.8</ele>
        <time>2015-07-25T07:04:23Z</time>
      </trkpt>
      <trkpt lat="44.86174" lon="5.94576">
        <ele>1886.2</ele>
        <time>2015-07-25T07:04:28Z</time>
      </trkpt>
      <trkpt lat="44.86176" lon="5.94568">
        <ele>1885.4</ele>
        <time>2015-07-25T07:04:33Z</time>
      </trkpt>
      <trkpt lat="44.86178" lon="5.94559">
        <ele>1884.9</ele>
        <time>2015-07-25T07:04:38Z</time>
      </trkpt>
      <trkpt lat="44.86181" lon="5.9455">
        <ele>1884.3</ele>
        <time>2015-07-25T07:04:43Z</time>
      </trkpt>
      <trkpt lat="44.86184" lon="5.94541">
        <ele>1884.1</ele>
        <time>2015-07-25T07:04:48Z</time>
      </trkpt>
      <trkpt lat="44.86186" lon="5.94534">
        <ele>1883.9</ele>
        <time>2015-07-25T07:04:53Z</time>
      </trkpt>
      <trkpt lat="44.86189" lon="5.94525">
        <ele>1883.5</ele>
        <time>2015-07-25T07:04:58Z</time>
      </trkpt>
      <trkpt lat="44.86192" lon="5.94517">
        <ele>1883.1</ele>
        <time>2015-07-25T07:05:03Z</time>
      </trkpt>
      <trkpt lat="44.86194" lon="5.94507">
        <ele>1883</ele>
        <time>2015-07-25T07:05:08Z</time>
      </trkpt>
      <trkpt lat="44.86196" lon="5.94499">
        <ele>1882.7</ele>
        <time>2015-07-25T07:05:13Z</time>
      </trkpt>
      <trkpt lat="44.86198" lon="5.9449">
        <ele>1882.4</ele>
        <time>2015-07-25T07:05:18Z</time>
      </trkpt>
      <trkpt lat="44.862" lon="5.94482">
        <ele>1882.3</ele>
        <time>2015-07-25T07:05:23Z</time>
      </trkpt>
      <trkpt lat="44.86203" lon="5.94473">
        <ele>1882.1</ele>
        <time>2015-07-25T07:05:28Z</time>
      </trkpt>
      <trkpt lat="44.86205" lon="5.94464">
        <ele>1882.1</ele>
        <time>2015-07-25T07:05:33Z</time>
      </trkpt>
      <trkpt lat="44.86207" lon="5.94455">
        <ele>1881.9</ele>
        <time>2015-07-25T07:05:38Z</time>
      </trkpt>
      <trkpt lat="44.86209" lon="5.94446">
        <ele>1881.8</ele>
        <time>2015-07-25T07:05:43Z</time>
      </trkpt>
      <trkpt lat="44.8621" lon="5.94438">
        <ele>1881.8</ele>
        <time>2015-07-25T07:05:48Z</time>
      </trkpt>
      <trkpt lat="44.86212" lon="5.94429">
        <ele>1881.8</ele>
        <time>2015-07-25T07:05:53Z</time>
      </trkpt>
      <trkpt lat="44.86213" lon="5.94419">
        <ele>1881.8</ele>
        <time>2015-07-25T07:05:58Z</time>
      </trkpt>
      <trkpt lat="44.86216" lon="5.94411">
        <ele>1881.6</ele>
        <time>2015-07-25T07:06:03Z</time>
      </trkpt>
      <trkpt lat="44.86217" lon="5.94402">
        <ele>1881.1</ele>
        <time>2015-07-25T07:06:08Z</time>
      </trkpt>
      <trkpt lat="44.86219" lon="5.94393">
        <ele>1880.8</ele>
        <time>2015-07-25T07:06:13Z</time>
      </trkpt>
      <trkpt lat="44.8622" lon="5.94384">
        <ele>1880.6</ele>
        <time>2015-07-25T07:06:18Z</time>
      </trkpt>
      <trkpt lat="44.86223" lon="5.94376">
        <ele>1880.5</ele>
        <time>2015-07-25T07:06:23Z</time>
      </trkpt>
      <trkpt lat="44.86225" lon="5.94367">
        <ele>1879.8</ele>
        <time>2015-07-25T07:06:28Z</time>
      </trkpt>
      <trkpt lat="44.86226" lon="5.94358">
        <ele>1879.1</ele>
        <time>2015-07-25T07:06:33Z</time>
      </trkpt>
      <trkpt lat="44.86228" lon="5.94348">
        <ele>1878.5</ele>
        <time>2015-07-25T07:06:38Z</time>
      </trkpt>
      <trkpt lat="44.8623" lon="5.94339">
        <ele>1877.9</ele>
        <time>2015-07-25T07:06:43Z</time>
      </trkpt>
      <trkpt lat="44.86231" lon="5.9433">
        <ele>1877.4</ele>
        <time>2015-07-25T07:06:48Z</time>
      </trkpt>
      <trkpt lat="44.86232" lon="5.9432">
        <ele>1877.1</ele>
        <time>2015-07-25T07:06:53Z</time>
      </trkpt>
      <trkpt lat="44.86235" lon="5.94311">
        <ele>1876.6</ele>
        <time>2015-07-25T07:06:58Z</time>
      </trkpt>
      <trkpt lat="44.86237" lon="5.94302">
        <ele>1876</ele>
        <time>2015-07-25T07:07:03Z</time>
      </trkpt>
      <trkpt lat="44.86239" lon="5.94294">
        <ele>1875.5</ele>
        <time>2015-07-25T07:07:08Z</time>
      </trkpt>
      <trkpt lat="44.86241" lon="5.94285">
        <ele>1875.2</ele>
        <time>2015-07-25T07:07:13Z</time>
      </trkpt>
      <trkpt lat="44.86243" lon="5.94276">
        <ele>1874.1</ele>
        <time>2015-07-25T07:07:18Z</time>
      </trkpt>
      <trkpt lat="44.86245" lon="5.94268">
        <ele>1873</ele>
        <time>2015-07-25T07:07:23Z</time>
      </trkpt>
      <trkpt lat="44.86247" lon="5.94263">
        <ele>1872</ele>
        <time>2015-07-25T07:07:28Z</time>
      </trkpt>
      <trkpt lat="44.86248" lon="5.94255">
        <ele>1871.2</ele>
        <time>2015-07-25T07:07:33Z</time>
      </trkpt>
      <trkpt lat="44.86249" lon="5.94246">
        <ele>1870.5</ele>
        <time>2015-07-25T07:07:38Z</time>
      </trkpt>
      <trkpt lat="44.86249" lon="5.94236">
        <ele>1869.8</ele>
        <time>2015-07-25T07:07:43Z</time>
      </trkpt>
      <trkpt lat="44.8625" lon="5.94226">
        <ele>1869.5</ele>
        <time>2015-07-25T07:07:48Z</time>
      </trkpt>
      <trkpt lat="44.86252" lon="5.94217">
        <ele>1869.3</ele>
        <time>2015-07-25T07:07:53Z</time>
      </trkpt>
      <trkpt lat="44.86252" lon="5.94207">
        <ele>1869.1</ele>
        <time>2015-07-25T07:07:58Z</time>
      </trkpt>
      <trkpt lat="44.86252" lon="5.94199">
        <ele>1868.8</ele>
        <time>2015-07-25T07:08:03Z</time>
      </trkpt>
      <trkpt lat="44.86254" lon="5.9419">
        <ele>1868.4</ele>
        <time>2015-07-25T07:08:08Z</time>
      </trkpt>
      <trkpt lat="44.86255" lon="5.94181">
        <ele>1867.9</ele>
        <time>2015-07-25T07:08:13Z</time>
      </trkpt>
      <trkpt lat="44.86257" lon="5.94172">
        <ele>1867.3</ele>
        <time>2015-07-25T07:08:18Z</time>
      </trkpt>
      <trkpt lat="44.86258" lon="5.94163">
        <ele>1867.2</ele>
        <time>2015-07-25T07:08:23Z</time>
      </trkpt>
      <trkpt lat="44.8626" lon="5.94154">
        <ele>1866.8</ele>
        <time>2015-07-25T07:08:28Z</time>
      </trkpt>
      <trkpt lat="44.86261" lon="5.94145">
        <ele>1866.2</ele>
        <time>2015-07-25T07:08:33Z</time>
      </trkpt>
      <trkpt lat="44.86262" lon="5.94136">
        <ele>1865.7</ele>
        <time>2015-07-25T07:08:38Z</time>
      </trkpt>
      <trkpt lat="44.86263" lon="5.94127">
        <ele>1865.4</ele>
        <time>2015-07-25T07:08:43Z</time>
      </trkpt>
      <trkpt lat="44.86264" lon="5.94118">
        <ele>1865.2</ele>
        <time>2015-07-25T07:08:48Z</time>
      </trkpt>
      <trkpt lat="44.86265" lon="5.94108">
        <ele>1864.8</ele>
        <time>2015-07-25T07:08:53Z</time>
      </trkpt>
      <trkpt lat="44.86266" lon="5.94099">
        <ele>1864.4</ele>
        <time>2015-07-25T07:08:58Z</time>
      </trkpt>
      <trkpt lat="44.86266" lon="5.9409">
        <ele>1863.8</ele>
        <time>2015-07-25T07:09:03Z</time>
      </trkpt>
      <trkpt lat="44.86266" lon="5.9408">
        <ele>1863.4</ele>
        <time>2015-07-25T07:09:08Z</time>
      </trkpt>
      <trkpt lat="44.86265" lon="5.94071">
        <ele>1862.6</ele>
        <time>2015-07-25T07:09:13Z</time>
      </trkpt>
      <trkpt lat="44.86261" lon="5.94062">
        <ele>1861.8</ele>
        <time>2015-07-25T07:09:18Z</time>
      </trkpt>
      <trkpt lat="44.86258" lon="5.94056">
        <ele>1861.4</ele>
        <time>2015-07-25T07:09:23Z</time>
      </trkpt>
      <trkpt lat="44.86253" lon="5.9405">
        <ele>1860.6</ele>
        <time>2015-07-25T07:09:28Z</time>
      </trkpt>
      <trkpt lat="44.86246" lon="5.94047">
        <ele>1859.5</ele>
        <time>2015-07-25T07:09:33Z</time>
      </trkpt>
      <trkpt lat="44.8624" lon="5.94045">
        <ele>1858.9</ele>
        <time>2015-07-25T07:09:38Z</time>
      </trkpt>
      <trkpt lat="44.86238" lon="5.94046">
        <ele>1858.5</ele>
        <time>2015-07-25T07:09:43Z</time>
      </trkpt>
      <trkpt lat="44.86238" lon="5.94046">
        <ele>1858.4</ele>
        <time>2015-07-25T07:09:48Z</time>
      </trkpt>
      <trkpt lat="44.86234" lon="5.94046">
        <ele>1858</ele>
        <time>2015-07-25T07:09:53Z</time>
      </trkpt>
      <trkpt lat="44.86227" lon="5.94045">
        <ele>1857.6</ele>
        <time>2015-07-25T07:09:58Z</time>
      </trkpt>
      <trkpt lat="44.8622" lon="5.94045">
        <ele>1857.3</ele>
        <time>2015-07-25T07:10:03Z</time>
      </trkpt>
      <trkpt lat="44.86213" lon="5.94044">
        <ele>1857.1</ele>
        <time>2015-07-25T07:10:08Z</time>
      </trkpt>
      <trkpt lat="44.86206" lon="5.94043">
        <ele>1856.7</ele>
        <time>2015-07-25T07:10:13Z</time>
      </trkpt>
      <trkpt lat="44.862" lon="5.94041">
        <ele>1855.9</ele>
        <time>2015-07-25T07:10:18Z</time>
      </trkpt>
      <trkpt lat="44.86193" lon="5.94039">
        <ele>1855.4</ele>
        <time>2015-07-25T07:10:23Z</time>
      </trkpt>
      <trkpt lat="44.86186" lon="5.94037">
        <ele>1855.3</ele>
        <time>2015-07-25T07:10:28Z</time>
      </trkpt>
      <trkpt lat="44.86179" lon="5.94035">
        <ele>1854.9</ele>
        <time>2015-07-25T07:10:33Z</time>
      </trkpt>
      <trkpt lat="44.86173" lon="5.94034">
        <ele>1854.6</ele>
        <time>2015-07-25T07:10:38Z</time>
      </trkpt>
      <trkpt lat="44.86166" lon="5.94032">
        <ele>1854.6</ele>
        <time>2015-07-25T07:10:43Z</time>
      </trkpt>
      <trkpt lat="44.86159" lon="5.94031">
        <ele>1854.5</ele>
        <time>2015-07-25T07:10:48Z</time>
      </trkpt>
      <trkpt lat="44.86152" lon="5.94028">
        <ele>1853.9</ele>
        <time>2015-07-25T07:10:53Z</time>
      </trkpt>
      <trkpt lat="44.86145" lon="5.94025">
        <ele>1853.2</ele>
        <time>2015-07-25T07:10:58Z</time>
      </trkpt>
      <trkpt lat="44.86138" lon="5.94023">
        <ele>1852.4</ele>
        <time>2015-07-25T07:11:03Z</time>
      </trkpt>
      <trkpt lat="44.86131" lon="5.94021">
        <ele>1851.4</ele>
        <time>2015-07-25T07:11:08Z</time>
      </trkpt>
      <trkpt lat="44.86125" lon="5.94019">
        <ele>1851.2</ele>
        <time>2015-07-25T07:11:13Z</time>
      </trkpt>
      <trkpt lat="44.86118" lon="5.94019">
        <ele>1850.5</ele>
        <time>2015-07-25T07:11:18Z</time>
      </trkpt>
      <trkpt lat="44.86111" lon="5.94017">
        <ele>1850.1</ele>
        <time>2015-07-25T07:11:23Z</time>
      </trkpt>
      <trkpt lat="44.86104" lon="5.94015">
        <ele>1850.1</ele>
        <time>2015-07-25T07:11:28Z</time>
      </trkpt>
      <trkpt lat="44.86098" lon="5.94011">
        <ele>1849.8</ele>
        <time>2015-07-25T07:11:33Z</time>
      </trkpt>
      <trkpt lat="44.86092" lon="5.94006">
        <ele>1849.4</ele>
        <time>2015-07-25T07:11:38Z</time>
      </trkpt>
      <trkpt lat="44.86086" lon="5.94001">
        <ele>1848.7</ele>
        <time>2015-07-25T07:11:43Z</time>
      </trkpt>
      <trkpt lat="44.86079" lon="5.93997">
        <ele>1848.2</ele>
        <time>2015-07-25T07:11:48Z</time>
      </trkpt>
      <trkpt lat="44.86073" lon="5.93993">
        <ele>1847.7</ele>
        <time>2015-07-25T07:11:53Z</time>
      </trkpt>
      <trkpt lat="44.86066" lon="5.93989">
        <ele>1847.3</ele>
        <time>2015-07-25T07:11:58Z</time>
      </trkpt>
      <trkpt lat="44.8606" lon="5.93984">
        <ele>1846.7</ele>
        <time>2015-07-25T07:12:03Z</time>
      </trkpt>
      <trkpt lat="44.86054" lon="5.93979">
        <ele>1845.4</ele>
        <time>2015-07-25T07:12:08Z</time>
      </trkpt>
      <trkpt lat="44.86048" lon="5.93975">
        <ele>1844.3</ele>
        <time>2015-07-25T07:12:13Z</time>
      </trkpt>
      <trkpt lat="44.86042" lon="5.9397">
        <ele>1843.5</ele>
        <time>2015-07-25T07:12:18Z</time>
      </trkpt>
      <trkpt lat="44.86037" lon="5.93963">
        <ele>1843.1</ele>
        <time>2015-07-25T07:12:23Z</time>
      </trkpt>
      <trkpt lat="44.86031" lon="5.93958">
        <ele>1842.9</ele>
        <time>2015-07-25T07:12:28Z</time>
      </trkpt>
      <trkpt lat="44.86026" lon="5.93953">
        <ele>1842.4</ele>
        <time>2015-07-25T07:12:33Z</time>
      </trkpt>
      <trkpt lat="44.86021" lon="5.93946">
        <ele>1842.1</ele>
        <time>2015-07-25T07:12:38Z</time>
      </trkpt>
      <trkpt lat="44.86017" lon="5.93939">
        <ele>1841.7</ele>
        <time>2015-07-25T07:12:43Z</time>
      </trkpt>
      <trkpt lat="44.86014" lon="5.93931">
        <ele>1841</ele>
        <time>2015-07-25T07:12:48Z</time>
      </trkpt>
      <trkpt lat="44.86011" lon="5.93922">
        <ele>1840.4</ele>
        <time>2015-07-25T07:12:53Z</time>
      </trkpt>
      <trkpt lat="44.86007" lon="5.93914">
        <ele>1839.8</ele>
        <time>2015-07-25T07:12:58Z</time>
      </trkpt>
      <trkpt lat="44.86004" lon="5.93906">
        <ele>1839.2</ele>
        <time>2015-07-25T07:13:03Z</time>
      </trkpt>
      <trkpt lat="44.86001" lon="5.93897">
        <ele>1838.8</ele>
        <time>2015-07-25T07:13:08Z</time>
      </trkpt>
      <trkpt lat="44.85998" lon="5.93887">
        <ele>1838.8</ele>
        <time>2015-07-25T07:13:13Z</time>
      </trkpt>
      <trkpt lat="44.85997" lon="5.9388">
        <ele>1838.6</ele>
        <time>2015-07-25T07:13:18Z</time>
      </trkpt>
      <trkpt lat="44.85996" lon="5.93878">
        <ele>1838.4</ele>
        <time>2015-07-25T07:13:23Z</time>
      </trkpt>
      <trkpt lat="44.85996" lon="5.93879">
        <ele>1838.2</ele>
        <time>2015-07-25T07:13:28Z</time>
      </trkpt>
      <trkpt lat="44.85996" lon="5.93879">
        <ele>1838</ele>
        <time>2015-07-25T07:13:33Z</time>
      </trkpt>
      <trkpt lat="44.85996" lon="5.93879">
        <ele>1837.9</ele>
        <time>2015-07-25T07:13:38Z</time>
      </trkpt>
      <trkpt lat="44.85996" lon="5.9388">
        <ele>1838</ele>
        <time>2015-07-25T07:13:43Z</time>
      </trkpt>
      <trkpt lat="44.85996" lon="5.9388">
        <ele>1838.4</ele>
        <time>2015-07-25T07:13:48Z</time>
      </trkpt>
      <trkpt lat="44.85996" lon="5.9388">
        <ele>1839</ele>
        <time>2015-07-25T07:13:53Z</time>
      </trkpt>
      <trkpt lat="44.85996" lon="5.9388">
        <ele>1839</ele>
        <time>2015-07-25T07:13:58Z</time>
      </trkpt>
      <trkpt lat="44.85996" lon="5.9388">
        <ele>1838.8</ele>
        <time>2015-07-25T07:14:03Z</time>
      </trkpt>
      <trkpt lat="44.85996" lon="5.9388">
        <ele>1839.7</ele>
        <time>2015-07-25T07:14:08Z</time>
      </trkpt>
      <trkpt lat="44.85996" lon="5.93879">
        <ele>1839.3</ele>
        <time>2015-07-25T07:14:13Z</time>
      </trkpt>
      <trkpt lat="44.85997" lon="5.93878">
        <ele>1837.6</ele>
        <time>2015-07-25T07:14:18Z</time>
      </trkpt>
      <trkpt lat="44.85997" lon="5.9388">
        <ele>1837.1</ele>
        <time>2015-07-25T07:14:23Z</time>
      </trkpt>
      <trkpt lat="44.85997" lon="5.93883">
        <ele>1836.7</ele>
        <time>2015-07-25T07:14:28Z</time>
      </trkpt>
      <trkpt lat="44.85999" lon="5.9389">
        <ele>1836.7</ele>
        <time>2015-07-25T07:14:33Z</time>
      </trkpt>
      <trkpt lat="44.86001" lon="5.93898">
        <ele>1836.9</ele>
        <time>2015-07-25T07:14:38Z</time>
      </trkpt>
      <trkpt lat="44.86004" lon="5.93905">
        <ele>1837</ele>
        <time>2015-07-25T07:14:43Z</time>
      </trkpt>
      <trkpt lat="44.86006" lon="5.93912">
        <ele>1837.4</ele>
        <time>2015-07-25T07:14:48Z</time>
      </trkpt>
      <trkpt lat="44.86009" lon="5.93919">
        <ele>1838</ele>
        <time>2015-07-25T07:14:53Z</time>
      </trkpt>
      <trkpt lat="44.86009" lon="5.9392">
        <ele>1838.1</ele>
        <time>2015-07-25T07:14:58Z</time>
      </trkpt>
      <trkpt lat="44.86009" lon="5.93919">
        <ele>1838.2</ele>
        <time>2015-07-25T07:15:03Z</time>
      </trkpt>
      <trkpt lat="44.8601" lon="5.93919">
        <ele>1837.9</ele>
        <time>2015-07-25T07:15:08Z</time>
      </trkpt>
      <trkpt lat="44.86009" lon="5.93919">
        <ele>1837.6</ele>
        <time>2015-07-25T07:15:13Z</time>
      </trkpt>
      <trkpt lat="44.86009" lon="5.93919">
        <ele>1837.6</ele>
        <time>2015-07-25T07:15:18Z</time>
      </trkpt>
      <trkpt lat="44.86009" lon="5.93919">
        <ele>1837.8</ele>
        <time>2015-07-25T07:15:23Z</time>
      </trkpt>
      <trkpt lat="44.86009" lon="5.93919">
        <ele>1837.8</ele>
        <time>2015-07-25T07:15:28Z</time>
      </trkpt>
      <trkpt lat="44.86009" lon="5.93919">
        <ele>1837.9</ele>
        <time>2015-07-25T07:15:33Z</time>
      </trkpt>
      <trkpt lat="44.86007" lon="5.93922">
        <ele>1837.8</ele>
        <time>2015-07-25T07:15:38Z</time>
      </trkpt>
      <trkpt lat="44.86001" lon="5.93926">
        <ele>1837.6</ele>
        <time>2015-07-25T07:15:43Z</time>
      </trkpt>
      <trkpt lat="44.85996" lon="5.93931">
        <ele>1837.5</ele>
        <time>2015-07-25T07:15:48Z</time>
      </trkpt>
      <trkpt lat="44.85992" lon="5.93936">
        <ele>1838</ele>
        <time>2015-07-25T07:15:53Z</time>
      </trkpt>
      <trkpt lat="44.85988" lon="5.9394">
        <ele>1838.4</ele>
        <time>2015-07-25T07:15:58Z</time>
      </trkpt>
      <trkpt lat="44.85982" lon="5.93945">
        <ele>1838.7</ele>
        <time>2015-07-25T07:16:03Z</time>
      </trkpt>
      <trkpt lat="44.85978" lon="5.93951">
        <ele>1839.1</ele>
        <time>2015-07-25T07:16:08Z</time>
      </trkpt>
      <trkpt lat="44.85975" lon="5.93958">
        <ele>1839.9</ele>
        <time>2015-07-25T07:16:13Z</time>
      </trkpt>
      <trkpt lat="44.85973" lon="5.93965">
        <ele>1841</ele>
        <time>2015-07-25T07:16:18Z</time>
      </trkpt>
      <trkpt lat="44.85972" lon="5.93973">
        <ele>1841.7</ele>
        <time>2015-07-25T07:16:23Z</time>
      </trkpt>
      <trkpt lat="44.85969" lon="5.93979">
        <ele>1842.2</ele>
        <time>2015-07-25T07:16:28Z</time>
      </trkpt>
      <trkpt lat="44.85968" lon="5.93982">
        <ele>1842.4</ele>
        <time>2015-07-25T07:16:33Z</time>
      </trkpt>
      <trkpt lat="44.85964" lon="5.93987">
        <ele>1842.3</ele>
        <time>2015-07-25T07:16:38Z</time>
      </trkpt>
      <trkpt lat="44.85959" lon="5.93993">
        <ele>1842.1</ele>
        <time>2015-07-25T07:16:43Z</time>
      </trkpt>
      <trkpt lat="44.85956" lon="5.94">
        <ele>1842.4</ele>
        <time>2015-07-25T07:16:48Z</time>
      </trkpt>
      <trkpt lat="44.85952" lon="5.94006">
        <ele>1843.5</ele>
        <time>2015-07-25T07:16:53Z</time>
      </trkpt>
      <trkpt lat="44.85952" lon="5.94012">
        <ele>1844.1</ele>
        <time>2015-07-25T07:16:58Z</time>
      </trkpt>
      <trkpt lat="44.85953" lon="5.94019">
        <ele>1844.9</ele>
        <time>2015-07-25T07:17:03Z</time>
      </trkpt>
      <trkpt lat="44.85951" lon="5.94025">
        <ele>1845.5</ele>
        <time>2015-07-25T07:17:08Z</time>
      </trkpt>
      <trkpt lat="44.8595" lon="5.94031">
        <ele>1846</ele>
        <time>2015-07-25T07:17:13Z</time>
      </trkpt>
      <trkpt lat="44.85951" lon="5.94036">
        <ele>1846.1</ele>
        <time>2015-07-25T07:17:18Z</time>
      </trkpt>
      <trkpt lat="44.85952" lon="5.94042">
        <ele>1846.4</ele>
        <time>2015-07-25T07:17:23Z</time>
      </trkpt>
      <trkpt lat="44.85954" lon="5.94045">
        <ele>1847.2</ele>
        <time>2015-07-25T07:17:28Z</time>
      </trkpt>
      <trkpt lat="44.85956" lon="5.94047">
        <ele>1847.7</ele>
        <time>2015-07-25T07:17:33Z</time>
      </trkpt>
      <trkpt lat="44.85957" lon="5.94051">
        <ele>1847.9</ele>
        <time>2015-07-25T07:17:38Z</time>
      </trkpt>
      <trkpt lat="44.85957" lon="5.94057">
        <ele>1848.7</ele>
        <time>2015-07-25T07:17:43Z</time>
      </trkpt>
      <trkpt lat="44.85957" lon="5.94058">
        <ele>1849.4</ele>
        <time>2015-07-25T07:17:48Z</time>
      </trkpt>
      <trkpt lat="44.85956" lon="5.9406">
        <ele>1849.5</ele>
        <time>2015-07-25T07:17:53Z</time>
      </trkpt>
      <trkpt lat="44.85955" lon="5.94066">
        <ele>1850.5</ele>
        <time>2015-07-25T07:17:58Z</time>
      </trkpt>
      <trkpt lat="44.85954" lon="5.94073">
        <ele>1851.8</ele>
        <time>2015-07-25T07:18:03Z</time>
      </trkpt>
      <trkpt lat="44.85951" lon="5.94079">
        <ele>1852.6</ele>
        <time>2015-07-25T07:18:08Z</time>
      </trkpt>
      <trkpt lat="44.85948" lon="5.94085">
        <ele>1853</ele>
        <time>2015-07-25T07:18:13Z</time>
      </trkpt>
      <trkpt lat="44.85945" lon="5.94091">
        <ele>1853.9</ele>
        <time>2015-07-25T07:18:18Z</time>
      </trkpt>
      <trkpt lat="44.85943" lon="5.94098">
        <ele>1854.5</ele>
        <time>2015-07-25T07:18:23Z</time>
      </trkpt>
      <trkpt lat="44.85939" lon="5.94103">
        <ele>1855.2</ele>
        <time>2015-07-25T07:18:28Z</time>
      </trkpt>
      <trkpt lat="44.85936" lon="5.94107">
        <ele>1856.7</ele>
        <time>2015-07-25T07:18:33Z</time>
      </trkpt>
      <trkpt lat="44.85933" lon="5.94112">
        <ele>1858</ele>
        <time>2015-07-25T07:18:38Z</time>
      </trkpt>
      <trkpt lat="44.85929" lon="5.94116">
        <ele>1859.4</ele>
        <time>2015-07-25T07:18:43Z</time>
      </trkpt>
      <trkpt lat="44.85928" lon="5.94117">
        <ele>1860</ele>
        <time>2015-07-25T07:18:48Z</time>
      </trkpt>
      <trkpt lat="44.85928" lon="5.94117">
        <ele>1860.6</ele>
        <time>2015-07-25T07:18:53Z</time>
      </trkpt>
      <trkpt lat="44.85928" lon="5.94117">
        <ele>1860.7</ele>
        <time>2015-07-25T07:18:58Z</time>
      </trkpt>
      <trkpt lat="44.85925" lon="5.9412">
        <ele>1861.3</ele>
        <time>2015-07-25T07:19:03Z</time>
      </trkpt>
      <trkpt lat="44.85922" lon="5.94126">
        <ele>1862</ele>
        <time>2015-07-25T07:19:08Z</time>
      </trkpt>
      <trkpt lat="44.8592" lon="5.94132">
        <ele>1862.6</ele>
        <time>2015-07-25T07:19:13Z</time>
      </trkpt>
      <trkpt lat="44.85918" lon="5.94138">
        <ele>1863.2</ele>
        <time>2015-07-25T07:19:18Z</time>
      </trkpt>
      <trkpt lat="44.85915" lon="5.94144">
        <ele>1864</ele>
        <time>2015-07-25T07:19:23Z</time>
      </trkpt>
      <trkpt lat="44.85911" lon="5.94149">
        <ele>1864.7</ele>
        <time>2015-07-25T07:19:28Z</time>
      </trkpt>
      <trkpt lat="44.85908" lon="5.94155">
        <ele>1865.5</ele>
        <time>2015-07-25T07:19:33Z</time>
      </trkpt>
      <trkpt lat="44.85904" lon="5.94161">
        <ele>1866.1</ele>
        <time>2015-07-25T07:19:38Z</time>
      </trkpt>
      <trkpt lat="44.85901" lon="5.94166">
        <ele>1865.4</ele>
        <time>2015-07-25T07:19:43Z</time>
      </trkpt>
      <trkpt lat="44.85896" lon="5.94171">
        <ele>1865.4</ele>
        <time>2015-07-25T07:19:48Z</time>
      </trkpt>
      <trkpt lat="44.85891" lon="5.94174">
        <ele>1864.6</ele>
        <time>2015-07-25T07:19:53Z</time>
      </trkpt>
      <trkpt lat="44.85886" lon="5.94177">
        <ele>1863.9</ele>
        <time>2015-07-25T07:19:58Z</time>
      </trkpt>
      <trkpt lat="44.8588" lon="5.9418">
        <ele>1863.4</ele>
        <time>2015-07-25T07:20:03Z</time>
      </trkpt>
      <trkpt lat="44.85874" lon="5.94181">
        <ele>1862.9</ele>
        <time>2015-07-25T07:20:08Z</time>
      </trkpt>
      <trkpt lat="44.85869" lon="5.94184">
        <ele>1862</ele>
        <time>2015-07-25T07:20:13Z</time>
      </trkpt>
      <trkpt lat="44.85863" lon="5.94188">
        <ele>1861</ele>
        <time>2015-07-25T07:20:18Z</time>
      </trkpt>
      <trkpt lat="44.85858" lon="5.94193">
        <ele>1860.1</ele>
        <time>2015-07-25T07:20:23Z</time>
      </trkpt>
      <trkpt lat="44.85852" lon="5.94197">
        <ele>1859.2</ele>
        <time>2015-07-25T07:20:28Z</time>
      </trkpt>
      <trkpt lat="44.85847" lon="5.94199">
        <ele>1859</ele>
        <time>2015-07-25T07:20:33Z</time>
      </trkpt>
      <trkpt lat="44.85841" lon="5.94201">
        <ele>1858.4</ele>
        <time>2015-07-25T07:20:38Z</time>
      </trkpt>
      <trkpt lat="44.85836" lon="5.94203">
        <ele>1858.6</ele>
        <time>2015-07-25T07:20:43Z</time>
      </trkpt>
      <trkpt lat="44.8583" lon="5.94208">
        <ele>1856.7</ele>
        <time>2015-07-25T07:20:48Z</time>
      </trkpt>
      <trkpt lat="44.85826" lon="5.94208">
        <ele>1856</ele>
        <time>2015-07-25T07:20:53Z</time>
      </trkpt>
      <trkpt lat="44.85822" lon="5.94208">
        <ele>1855.9</ele>
        <time>2015-07-25T07:20:58Z</time>
      </trkpt>
      <trkpt lat="44.85817" lon="5.94212">
        <ele>1853.2</ele>
        <time>2015-07-25T07:21:03Z</time>
      </trkpt>
      <trkpt lat="44.8581" lon="5.94217">
        <ele>1851.8</ele>
        <time>2015-07-25T07:21:08Z</time>
      </trkpt>
      <trkpt lat="44.85803" lon="5.94223">
        <ele>1848.3</ele>
        <time>2015-07-25T07:21:13Z</time>
      </trkpt>
      <trkpt lat="44.85796" lon="5.94226">
        <ele>1846.9</ele>
        <time>2015-07-25T07:21:18Z</time>
      </trkpt>
      <trkpt lat="44.8579" lon="5.9423">
        <ele>1844.8</ele>
        <time>2015-07-25T07:21:23Z</time>
      </trkpt>
      <trkpt lat="44.85785" lon="5.94235">
        <ele>1842.8</ele>
        <time>2015-07-25T07:21:28Z</time>
      </trkpt>
      <trkpt lat="44.8578" lon="5.94239">
        <ele>1841.9</ele>
        <time>2015-07-25T07:21:33Z</time>
      </trkpt>
      <trkpt lat="44.85776" lon="5.94241">
        <ele>1842.5</ele>
        <time>2015-07-25T07:21:38Z</time>
      </trkpt>
      <trkpt lat="44.85776" lon="5.94243">
        <ele>1844.4</ele>
        <time>2015-07-25T07:21:43Z</time>
      </trkpt>
      <trkpt lat="44.85774" lon="5.94244">
        <ele>1843.3</ele>
        <time>2015-07-25T07:21:48Z</time>
      </trkpt>
      <trkpt lat="44.8577" lon="5.94248">
        <ele>1840.7</ele>
        <time>2015-07-25T07:21:53Z</time>
      </trkpt>
      <trkpt lat="44.85765" lon="5.94252">
        <ele>1838.2</ele>
        <time>2015-07-25T07:21:58Z</time>
      </trkpt>
      <trkpt lat="44.85759" lon="5.94257">
        <ele>1838</ele>
        <time>2015-07-25T07:22:03Z</time>
      </trkpt>
      <trkpt lat="44.85756" lon="5.94259">
        <ele>1837.9</ele>
        <time>2015-07-25T07:22:08Z</time>
      </trkpt>
      <trkpt lat="44.8575" lon="5.94261">
        <ele>1837.2</ele>
        <time>2015-07-25T07:22:13Z</time>
      </trkpt>
      <trkpt lat="44.85744" lon="5.94266">
        <ele>1835.9</ele>
        <time>2015-07-25T07:22:18Z</time>
      </trkpt>
      <trkpt lat="44.85737" lon="5.9427">
        <ele>1835.3</ele>
        <time>2015-07-25T07:22:23Z</time>
      </trkpt>
      <trkpt lat="44.85733" lon="5.94275">
        <ele>1834.8</ele>
        <time>2015-07-25T07:22:28Z</time>
      </trkpt>
      <trkpt lat="44.85727" lon="5.94278">
        <ele>1833.8</ele>
        <time>2015-07-25T07:22:33Z</time>
      </trkpt>
      <trkpt lat="44.85721" lon="5.94281">
        <ele>1834.1</ele>
        <time>2015-07-25T07:22:38Z</time>
      </trkpt>
      <trkpt lat="44.85715" lon="5.94281">
        <ele>1835.9</ele>
        <time>2015-07-25T07:22:43Z</time>
      </trkpt>
      <trkpt lat="44.85711" lon="5.94286">
        <ele>1834.5</ele>
        <time>2015-07-25T07:22:48Z</time>
      </trkpt>
      <trkpt lat="44.85705" lon="5.94292">
        <ele>1832.9</ele>
        <time>2015-07-25T07:22:53Z</time>
      </trkpt>
      <trkpt lat="44.857" lon="5.94295">
        <ele>1831.7</ele>
        <time>2015-07-25T07:22:58Z</time>
      </trkpt>
      <trkpt lat="44.85693" lon="5.94299">
        <ele>1830.3</ele>
        <time>2015-07-25T07:23:03Z</time>
      </trkpt>
      <trkpt lat="44.85688" lon="5.94304">
        <ele>1828</ele>
        <time>2015-07-25T07:23:08Z</time>
      </trkpt>
      <trkpt lat="44.85685" lon="5.9431">
        <ele>1825.4</ele>
        <time>2015-07-25T07:23:13Z</time>
      </trkpt>
      <trkpt lat="44.85681" lon="5.94315">
        <ele>1823.9</ele>
        <time>2015-07-25T07:23:18Z</time>
      </trkpt>
      <trkpt lat="44.85675" lon="5.94318">
        <ele>1823.7</ele>
        <time>2015-07-25T07:23:23Z</time>
      </trkpt>
      <trkpt lat="44.85668" lon="5.94323">
        <ele>1824.5</ele>
        <time>2015-07-25T07:23:28Z</time>
      </trkpt>
      <trkpt lat="44.85662" lon="5.94328">
        <ele>1823.8</ele>
        <time>2015-07-25T07:23:33Z</time>
      </trkpt>
      <trkpt lat="44.85656" lon="5.94333">
        <ele>1823.1</ele>
        <time>2015-07-25T07:23:38Z</time>
      </trkpt>
      <trkpt lat="44.85652" lon="5.94338">
        <ele>1822.2</ele>
        <time>2015-07-25T07:23:43Z</time>
      </trkpt>
      <trkpt lat="44.85647" lon="5.94343">
        <ele>1821</ele>
        <time>2015-07-25T07:23:48Z</time>
      </trkpt>
      <trkpt lat="44.85641" lon="5.94348">
        <ele>1820.7</ele>
        <time>2015-07-25T07:23:53Z</time>
      </trkpt>
      <trkpt lat="44.85636" lon="5.94353">
        <ele>1820</ele>
        <time>2015-07-25T07:23:58Z</time>
      </trkpt>
      <trkpt lat="44.85631" lon="5.94357">
        <ele>1819.5</ele>
        <time>2015-07-25T07:24:03Z</time>
      </trkpt>
      <trkpt lat="44.85626" lon="5.94361">
        <ele>1818.9</ele>
        <time>2015-07-25T07:24:08Z</time>
      </trkpt>
      <trkpt lat="44.85621" lon="5.94366">
        <ele>1818</ele>
        <time>2015-07-25T07:24:13Z</time>
      </trkpt>
      <trkpt lat="44.85617" lon="5.94371">
        <ele>1817</ele>
        <time>2015-07-25T07:24:18Z</time>
      </trkpt>
      <trkpt lat="44.85612" lon="5.94376">
        <ele>1816.1</ele>
        <time>2015-07-25T07:24:23Z</time>
      </trkpt>
      <trkpt lat="44.85607" lon="5.9438">
        <ele>1815.3</ele>
        <time>2015-07-25T07:24:28Z</time>
      </trkpt>
      <trkpt lat="44.85602" lon="5.94385">
        <ele>1814.2</ele>
        <time>2015-07-25T07:24:33Z</time>
      </trkpt>
      <trkpt lat="44.85601" lon="5.94385">
        <ele>1815</ele>
        <time>2015-07-25T07:24:38Z</time>
      </trkpt>
      <trkpt lat="44.85602" lon="5.94384">
        <ele>1815.1</ele>
        <time>2015-07-25T07:24:43Z</time>
      </trkpt>
      <trkpt lat="44.85601" lon="5.94385">
        <ele>1815.8</ele>
        <time>2015-07-25T07:24:48Z</time>
      </trkpt>
      <trkpt lat="44.856" lon="5.94387">
        <ele>1816.3</ele>
        <time>2015-07-25T07:24:53Z</time>
      </trkpt>
      <trkpt lat="44.85596" lon="5.94391">
        <ele>1815.3</ele>
        <time>2015-07-25T07:24:58Z</time>
      </trkpt>
      <trkpt lat="44.85592" lon="5.94396">
        <ele>1814.3</ele>
        <time>2015-07-25T07:25:03Z</time>
      </trkpt>
      <trkpt lat="44.85587" lon="5.94401">
        <ele>1813</ele>
        <time>2015-07-25T07:25:08Z</time>
      </trkpt>
      <trkpt lat="44.85583" lon="5.94405">
        <ele>1811.6</ele>
        <time>2015-07-25T07:25:13Z</time>
      </trkpt>
      <trkpt lat="44.85577" lon="5.94409">
        <ele>1810.4</ele>
        <time>2015-07-25T07:25:18Z</time>
      </trkpt>
      <trkpt lat="44.85573" lon="5.94415">
        <ele>1809.5</ele>
        <time>2015-07-25T07:25:23Z</time>
      </trkpt>
      <trkpt lat="44.85569" lon="5.9442">
        <ele>1808.5</ele>
        <time>2015-07-25T07:25:28Z</time>
      </trkpt>
      <trkpt lat="44.85565" lon="5.94426">
        <ele>1806.6</ele>
        <time>2015-07-25T07:25:33Z</time>
      </trkpt>
      <trkpt lat="44.85561" lon="5.9443">
        <ele>1805.2</ele>
        <time>2015-07-25T07:25:38Z</time>
      </trkpt>
      <trkpt lat="44.85556" lon="5.94433">
        <ele>1804.4</ele>
        <time>2015-07-25T07:25:43Z</time>
      </trkpt>
      <trkpt lat="44.85551" lon="5.94435">
        <ele>1805.1</ele>
        <time>2015-07-25T07:25:48Z</time>
      </trkpt>
      <trkpt lat="44.85545" lon="5.94437">
        <ele>1804.4</ele>
        <time>2015-07-25T07:25:53Z</time>
      </trkpt>
      <trkpt lat="44.8554" lon="5.94441">
        <ele>1805.4</ele>
        <time>2015-07-25T07:25:58Z</time>
      </trkpt>
      <trkpt lat="44.85536" lon="5.94446">
        <ele>1804.1</ele>
        <time>2015-07-25T07:26:03Z</time>
      </trkpt>
      <trkpt lat="44.85531" lon="5.9445">
        <ele>1802.9</ele>
        <time>2015-07-25T07:26:08Z</time>
      </trkpt>
      <trkpt lat="44.85527" lon="5.94457">
        <ele>1801.3</ele>
        <time>2015-07-25T07:26:13Z</time>
      </trkpt>
      <trkpt lat="44.85524" lon="5.94461">
        <ele>1800.6</ele>
        <time>2015-07-25T07:26:18Z</time>
      </trkpt>
      <trkpt lat="44.85521" lon="5.94464">
        <ele>1798.3</ele>
        <time>2015-07-25T07:26:23Z</time>
      </trkpt>
      <trkpt lat="44.85515" lon="5.9447">
        <ele>1796.4</ele>
        <time>2015-07-25T07:26:28Z</time>
      </trkpt>
      <trkpt lat="44.85512" lon="5.94472">
        <ele>1796.3</ele>
        <time>2015-07-25T07:26:33Z</time>
      </trkpt>
      <trkpt lat="44.85505" lon="5.94472">
        <ele>1798</ele>
        <time>2015-07-25T07:26:38Z</time>
      </trkpt>
      <trkpt lat="44.85499" lon="5.94477">
        <ele>1799.3</ele>
        <time>2015-07-25T07:26:43Z</time>
      </trkpt>
      <trkpt lat="44.85494" lon="5.94484">
        <ele>1797</ele>
        <time>2015-07-25T07:26:48Z</time>
      </trkpt>
      <trkpt lat="44.85487" lon="5.94488">
        <ele>1796.6</ele>
        <time>2015-07-25T07:26:53Z</time>
      </trkpt>
      <trkpt lat="44.85482" lon="5.94495">
        <ele>1795.9</ele>
        <time>2015-07-25T07:26:58Z</time>
      </trkpt>
      <trkpt lat="44.85478" lon="5.94502">
        <ele>1794.9</ele>
        <time>2015-07-25T07:27:03Z</time>
      </trkpt>
      <trkpt lat="44.85473" lon="5.94507">
        <ele>1793.2</ele>
        <time>2015-07-25T07:27:08Z</time>
      </trkpt>
      <trkpt lat="44.85468" lon="5.94512">
        <ele>1792.5</ele>
        <time>2015-07-25T07:27:13Z</time>
      </trkpt>
      <trkpt lat="44.85463" lon="5.94517">
        <ele>1791.3</ele>
        <time>2015-07-25T07:27:18Z</time>
      </trkpt>
      <trkpt lat="44.8546" lon="5.94524">
        <ele>1789.5</ele>
        <time>2015-07-25T07:27:23Z</time>
      </trkpt>
      <trkpt lat="44.85455" lon="5.94529">
        <ele>1787.8</ele>
        <time>2015-07-25T07:27:28Z</time>
      </trkpt>
      <trkpt lat="44.85451" lon="5.94534">
        <ele>1786.5</ele>
        <time>2015-07-25T07:27:33Z</time>
      </trkpt>
      <trkpt lat="44.85446" lon="5.94539">
        <ele>1785.5</ele>
        <time>2015-07-25T07:27:38Z</time>
      </trkpt>
      <trkpt lat="44.85443" lon="5.94543">
        <ele>1783.2</ele>
        <time>2015-07-25T07:27:43Z</time>
      </trkpt>
      <trkpt lat="44.85437" lon="5.94547">
        <ele>1782.5</ele>
        <time>2015-07-25T07:27:48Z</time>
      </trkpt>
      <trkpt lat="44.85433" lon="5.94551">
        <ele>1782</ele>
        <time>2015-07-25T07:27:53Z</time>
      </trkpt>
      <trkpt lat="44.85428" lon="5.94555">
        <ele>1783.5</ele>
        <time>2015-07-25T07:27:58Z</time>
      </trkpt>
      <trkpt lat="44.85424" lon="5.94559">
        <ele>1783</ele>
        <time>2015-07-25T07:28:03Z</time>
      </trkpt>
      <trkpt lat="44.8542" lon="5.94564">
        <ele>1781</ele>
        <time>2015-07-25T07:28:08Z</time>
      </trkpt>
      <trkpt lat="44.85415" lon="5.94571">
        <ele>1779.7</ele>
        <time>2015-07-25T07:28:13Z</time>
      </trkpt>
      <trkpt lat="44.85411" lon="5.94577">
        <ele>1778.2</ele>
        <time>2015-07-25T07:28:18Z</time>
      </trkpt>
      <trkpt lat="44.85405" lon="5.94581">
        <ele>1778.5</ele>
        <time>2015-07-25T07:28:23Z</time>
      </trkpt>
      <trkpt lat="44.854" lon="5.94587">
        <ele>1777.5</ele>
        <time>2015-07-25T07:28:28Z</time>
      </trkpt>
      <trkpt lat="44.85395" lon="5.94592">
        <ele>1776.6</ele>
        <time>2015-07-25T07:28:33Z</time>
      </trkpt>
      <trkpt lat="44.85391" lon="5.94597">
        <ele>1775.5</ele>
        <time>2015-07-25T07:28:38Z</time>
      </trkpt>
      <trkpt lat="44.85385" lon="5.94602">
        <ele>1775.3</ele>
        <time>2015-07-25T07:28:43Z</time>
      </trkpt>
      <trkpt lat="44.85381" lon="5.94607">
        <ele>1776.4</ele>
        <time>2015-07-25T07:28:48Z</time>
      </trkpt>
      <trkpt lat="44.85377" lon="5.9461">
        <ele>1775.9</ele>
        <time>2015-07-25T07:28:53Z</time>
      </trkpt>
      <trkpt lat="44.85373" lon="5.94613">
        <ele>1775.6</ele>
        <time>2015-07-25T07:28:58Z</time>
      </trkpt>
      <trkpt lat="44.85368" lon="5.94617">
        <ele>1774.8</ele>
        <time>2015-07-25T07:29:03Z</time>
      </trkpt>
      <trkpt lat="44.85363" lon="5.94622">
        <ele>1773.5</ele>
        <time>2015-07-25T07:29:08Z</time>
      </trkpt>
      <trkpt lat="44.85359" lon="5.94626">
        <ele>1774.2</ele>
        <time>2015-07-25T07:29:13Z</time>
      </trkpt>
      <trkpt lat="44.85356" lon="5.9463">
        <ele>1774</ele>
        <time>2015-07-25T07:29:18Z</time>
      </trkpt>
      <trkpt lat="44.85351" lon="5.94633">
        <ele>1774.5</ele>
        <time>2015-07-25T07:29:23Z</time>
      </trkpt>
      <trkpt lat="44.85347" lon="5.94639">
        <ele>1774.9</ele>
        <time>2015-07-25T07:29:28Z</time>
      </trkpt>
      <trkpt lat="44.85341" lon="5.94643">
        <ele>1772.8</ele>
        <time>2015-07-25T07:29:33Z</time>
      </trkpt>
      <trkpt lat="44.85336" lon="5.94647">
        <ele>1773.7</ele>
        <time>2015-07-25T07:29:38Z</time>
      </trkpt>
      <trkpt lat="44.85333" lon="5.94653">
        <ele>1773.3</ele>
        <time>2015-07-25T07:29:43Z</time>
      </trkpt>
      <trkpt lat="44.85328" lon="5.94659">
        <ele>1772.1</ele>
        <time>2015-07-25T07:29:48Z</time>
      </trkpt>
      <trkpt lat="44.85323" lon="5.94661">
        <ele>1770.5</ele>
        <time>2015-07-25T07:29:53Z</time>
      </trkpt>
      <trkpt lat="44.8532" lon="5.94665">
        <ele>1771.1</ele>
        <time>2015-07-25T07:29:58Z</time>
      </trkpt>
      <trkpt lat="44.85318" lon="5.94672">
        <ele>1766.9</ele>
        <time>2015-07-25T07:30:03Z</time>
      </trkpt>
      <trkpt lat="44.85314" lon="5.94678">
        <ele>1763.7</ele>
        <time>2015-07-25T07:30:08Z</time>
      </trkpt>
      <trkpt lat="44.85309" lon="5.94683">
        <ele>1762.2</ele>
        <time>2015-07-25T07:30:13Z</time>
      </trkpt>
      <trkpt lat="44.85305" lon="5.94689">
        <ele>1760.1</ele>
        <time>2015-07-25T07:30:18Z</time>
      </trkpt>
      <trkpt lat="44.85301" lon="5.94696">
        <ele>1759.2</ele>
        <time>2015-07-25T07:30:23Z</time>
      </trkpt>
      <trkpt lat="44.85296" lon="5.947">
        <ele>1757.5</ele>
        <time>2015-07-25T07:30:28Z</time>
      </trkpt>
      <trkpt lat="44.85291" lon="5.94703">
        <ele>1756.7</ele>
        <time>2015-07-25T07:30:33Z</time>
      </trkpt>
      <trkpt lat="44.85287" lon="5.9471">
        <ele>1754.9</ele>
        <time>2015-07-25T07:30:38Z</time>
      </trkpt>
      <trkpt lat="44.85283" lon="5.94714">
        <ele>1755.5</ele>
        <time>2015-07-25T07:30:43Z</time>
      </trkpt>
      <trkpt lat="44.85281" lon="5.9472">
        <ele>1755.9</ele>
        <time>2015-07-25T07:30:48Z</time>
      </trkpt>
      <trkpt lat="44.85275" lon="5.94726">
        <ele>1754.5</ele>
        <time>2015-07-25T07:30:53Z</time>
      </trkpt>
      <trkpt lat="44.85271" lon="5.94732">
        <ele>1753.3</ele>
        <time>2015-07-25T07:30:58Z</time>
      </trkpt>
      <trkpt lat="44.85265" lon="5.94736">
        <ele>1752.1</ele>
        <time>2015-07-25T07:31:03Z</time>
      </trkpt>
      <trkpt lat="44.85262" lon="5.94742">
        <ele>1750.4</ele>
        <time>2015-07-25T07:31:08Z</time>
      </trkpt>
      <trkpt lat="44.85259" lon="5.94749">
        <ele>1748.3</ele>
        <time>2015-07-25T07:31:13Z</time>
      </trkpt>
      <trkpt lat="44.85254" lon="5.94756">
        <ele>1748.4</ele>
        <time>2015-07-25T07:31:18Z</time>
      </trkpt>
      <trkpt lat="44.85249" lon="5.9476">
        <ele>1748.9</ele>
        <time>2015-07-25T07:31:23Z</time>
      </trkpt>
      <trkpt lat="44.85241" lon="5.94764">
        <ele>1749</ele>
        <time>2015-07-25T07:31:28Z</time>
      </trkpt>
      <trkpt lat="44.85238" lon="5.9477">
        <ele>1749.3</ele>
        <time>2015-07-25T07:31:33Z</time>
      </trkpt>
      <trkpt lat="44.85231" lon="5.94775">
        <ele>1749.6</ele>
        <time>2015-07-25T07:31:38Z</time>
      </trkpt>
      <trkpt lat="44.85225" lon="5.9478">
        <ele>1750.7</ele>
        <time>2015-07-25T07:31:43Z</time>
      </trkpt>
      <trkpt lat="44.8522" lon="5.94786">
        <ele>1751.2</ele>
        <time>2015-07-25T07:31:48Z</time>
      </trkpt>
      <trkpt lat="44.85214" lon="5.94791">
        <ele>1753.1</ele>
        <time>2015-07-25T07:31:53Z</time>
      </trkpt>
      <trkpt lat="44.8521" lon="5.94796">
        <ele>1753</ele>
        <time>2015-07-25T07:31:58Z</time>
      </trkpt>
      <trkpt lat="44.85206" lon="5.94802">
        <ele>1753</ele>
        <time>2015-07-25T07:32:03Z</time>
      </trkpt>
      <trkpt lat="44.85202" lon="5.94807">
        <ele>1751.9</ele>
        <time>2015-07-25T07:32:08Z</time>
      </trkpt>
      <trkpt lat="44.85199" lon="5.94811">
        <ele>1750.8</ele>
        <time>2015-07-25T07:32:13Z</time>
      </trkpt>
      <trkpt lat="44.85194" lon="5.94816">
        <ele>1749.1</ele>
        <time>2015-07-25T07:32:18Z</time>
      </trkpt>
      <trkpt lat="44.8519" lon="5.94823">
        <ele>1746.4</ele>
        <time>2015-07-25T07:32:23Z</time>
      </trkpt>
      <trkpt lat="44.85186" lon="5.94828">
        <ele>1745.3</ele>
        <time>2015-07-25T07:32:28Z</time>
      </trkpt>
      <trkpt lat="44.85182" lon="5.9483">
        <ele>1745.9</ele>
        <time>2015-07-25T07:32:33Z</time>
      </trkpt>
      <trkpt lat="44.85182" lon="5.94833">
        <ele>1746.3</ele>
        <time>2015-07-25T07:32:38Z</time>
      </trkpt>
      <trkpt lat="44.85182" lon="5.94842">
        <ele>1747.3</ele>
        <time>2015-07-25T07:32:43Z</time>
      </trkpt>
      <trkpt lat="44.85181" lon="5.94837">
        <ele>1749.7</ele>
        <time>2015-07-25T07:32:48Z</time>
      </trkpt>
      <trkpt lat="44.85181" lon="5.94833">
        <ele>1751.2</ele>
        <time>2015-07-25T07:32:53Z</time>
      </trkpt>
      <trkpt lat="44.85182" lon="5.94828">
        <ele>1752.6</ele>
        <time>2015-07-25T07:32:58Z</time>
      </trkpt>
      <trkpt lat="44.85184" lon="5.94825">
        <ele>1752.4</ele>
        <time>2015-07-25T07:33:03Z</time>
      </trkpt>
      <trkpt lat="44.85185" lon="5.94818">
        <ele>1752.2</ele>
        <time>2015-07-25T07:33:08Z</time>
      </trkpt>
      <trkpt lat="44.85188" lon="5.94811">
        <ele>1751.3</ele>
        <time>2015-07-25T07:33:13Z</time>
      </trkpt>
      <trkpt lat="44.85188" lon="5.94804">
        <ele>1753.5</ele>
        <time>2015-07-25T07:33:18Z</time>
      </trkpt>
      <trkpt lat="44.85186" lon="5.94795">
        <ele>1758</ele>
        <time>2015-07-25T07:33:23Z</time>
      </trkpt>
      <trkpt lat="44.85189" lon="5.94791">
        <ele>1754.9</ele>
        <time>2015-07-25T07:33:28Z</time>
      </trkpt>
      <trkpt lat="44.85192" lon="5.94784">
        <ele>1754.5</ele>
        <time>2015-07-25T07:33:33Z</time>
      </trkpt>
      <trkpt lat="44.85195" lon="5.9478">
        <ele>1751.9</ele>
        <time>2015-07-25T07:33:38Z</time>
      </trkpt>
      <trkpt lat="44.85198" lon="5.94772">
        <ele>1749</ele>
        <time>2015-07-25T07:33:43Z</time>
      </trkpt>
      <trkpt lat="44.85199" lon="5.94767">
        <ele>1748.2</ele>
        <time>2015-07-25T07:33:48Z</time>
      </trkpt>
      <trkpt lat="44.85202" lon="5.94762">
        <ele>1746.8</ele>
        <time>2015-07-25T07:33:53Z</time>
      </trkpt>
      <trkpt lat="44.85206" lon="5.94757">
        <ele>1745.3</ele>
        <time>2015-07-25T07:33:58Z</time>
      </trkpt>
      <trkpt lat="44.85207" lon="5.9475">
        <ele>1745.7</ele>
        <time>2015-07-25T07:34:03Z</time>
      </trkpt>
      <trkpt lat="44.85211" lon="5.94744">
        <ele>1742.5</ele>
        <time>2015-07-25T07:34:08Z</time>
      </trkpt>
      <trkpt lat="44.85213" lon="5.94738">
        <ele>1741.8</ele>
        <time>2015-07-25T07:34:13Z</time>
      </trkpt>
      <trkpt lat="44.85214" lon="5.94728">
        <ele>1742.8</ele>
        <time>2015-07-25T07:34:18Z</time>
      </trkpt>
      <trkpt lat="44.85213" lon="5.9472">
        <ele>1743.4</ele>
        <time>2015-07-25T07:34:23Z</time>
      </trkpt>
      <trkpt lat="44.85217" lon="5.94712">
        <ele>1744</ele>
        <time>2015-07-25T07:34:28Z</time>
      </trkpt>
      <trkpt lat="44.85217" lon="5.94706">
        <ele>1745</ele>
        <time>2015-07-25T07:34:33Z</time>
      </trkpt>
      <trkpt lat="44.85212" lon="5.94703">
        <ele>1743.2</ele>
        <time>2015-07-25T07:34:38Z</time>
      </trkpt>
      <trkpt lat="44.85208" lon="5.94705">
        <ele>1740.5</ele>
        <time>2015-07-25T07:34:43Z</time>
      </trkpt>
      <trkpt lat="44.85204" lon="5.9471">
        <ele>1736.2</ele>
        <time>2015-07-25T07:34:48Z</time>
      </trkpt>
      <trkpt lat="44.85201" lon="5.94716">
        <ele>1734.2</ele>
        <time>2015-07-25T07:34:53Z</time>
      </trkpt>
      <trkpt lat="44.85197" lon="5.94718">
        <ele>1733.1</ele>
        <time>2015-07-25T07:34:58Z</time>
      </trkpt>
      <trkpt lat="44.85194" lon="5.94724">
        <ele>1730.3</ele>
        <time>2015-07-25T07:35:03Z</time>
      </trkpt>
      <trkpt lat="44.85193" lon="5.94729">
        <ele>1727.6</ele>
        <time>2015-07-25T07:35:08Z</time>
      </trkpt>
      <trkpt lat="44.8519" lon="5.94734">
        <ele>1724.1</ele>
        <time>2015-07-25T07:35:13Z</time>
      </trkpt>
      <trkpt lat="44.85185" lon="5.94738">
        <ele>1722.9</ele>
        <time>2015-07-25T07:35:18Z</time>
      </trkpt>
      <trkpt lat="44.8518" lon="5.94742">
        <ele>1720.6</ele>
        <time>2015-07-25T07:35:23Z</time>
      </trkpt>
      <trkpt lat="44.85175" lon="5.94746">
        <ele>1718.3</ele>
        <time>2015-07-25T07:35:28Z</time>
      </trkpt>
      <trkpt lat="44.85171" lon="5.94752">
        <ele>1717.8</ele>
        <time>2015-07-25T07:35:33Z</time>
      </trkpt>
      <trkpt lat="44.85167" lon="5.94757">
        <ele>1716.9</ele>
        <time>2015-07-25T07:35:38Z</time>
      </trkpt>
      <trkpt lat="44.85162" lon="5.94761">
        <ele>1716.9</ele>
        <time>2015-07-25T07:35:43Z</time>
      </trkpt>
      <trkpt lat="44.85157" lon="5.94764">
        <ele>1716.6</ele>
        <time>2015-07-25T07:35:48Z</time>
      </trkpt>
      <trkpt lat="44.85152" lon="5.94768">
        <ele>1714.6</ele>
        <time>2015-07-25T07:35:53Z</time>
      </trkpt>
      <trkpt lat="44.85147" lon="5.94772">
        <ele>1712.7</ele>
        <time>2015-07-25T07:35:58Z</time>
      </trkpt>
      <trkpt lat="44.85142" lon="5.94777">
        <ele>1711.5</ele>
        <time>2015-07-25T07:36:03Z</time>
      </trkpt>
      <trkpt lat="44.85136" lon="5.9478">
        <ele>1712.3</ele>
        <time>2015-07-25T07:36:08Z</time>
      </trkpt>
      <trkpt lat="44.85131" lon="5.94783">
        <ele>1712</ele>
        <time>2015-07-25T07:36:13Z</time>
      </trkpt>
      <trkpt lat="44.85127" lon="5.94786">
        <ele>1711.4</ele>
        <time>2015-07-25T07:36:18Z</time>
      </trkpt>
      <trkpt lat="44.85121" lon="5.94788">
        <ele>1710.7</ele>
        <time>2015-07-25T07:36:23Z</time>
      </trkpt>
      <trkpt lat="44.85119" lon="5.94789">
        <ele>1710.1</ele>
        <time>2015-07-25T07:36:28Z</time>
      </trkpt>
      <trkpt lat="44.8512" lon="5.94792">
        <ele>1710.7</ele>
        <time>2015-07-25T07:36:33Z</time>
      </trkpt>
      <trkpt lat="44.85116" lon="5.94789">
        <ele>1711.3</ele>
        <time>2015-07-25T07:36:38Z</time>
      </trkpt>
      <trkpt lat="44.85114" lon="5.94787">
        <ele>1712.2</ele>
        <time>2015-07-25T07:36:43Z</time>
      </trkpt>
      <trkpt lat="44.85112" lon="5.94785">
        <ele>1714</ele>
        <time>2015-07-25T07:36:48Z</time>
      </trkpt>
      <trkpt lat="44.85111" lon="5.94785">
        <ele>1713.9</ele>
        <time>2015-07-25T07:36:53Z</time>
      </trkpt>
      <trkpt lat="44.85107" lon="5.94786">
        <ele>1715</ele>
        <time>2015-07-25T07:36:58Z</time>
      </trkpt>
      <trkpt lat="44.85103" lon="5.94789">
        <ele>1715.1</ele>
        <time>2015-07-25T07:37:03Z</time>
      </trkpt>
      <trkpt lat="44.85101" lon="5.94792">
        <ele>1712.4</ele>
        <time>2015-07-25T07:37:08Z</time>
      </trkpt>
      <trkpt lat="44.85098" lon="5.94795">
        <ele>1711.1</ele>
        <time>2015-07-25T07:37:13Z</time>
      </trkpt>
      <trkpt lat="44.85095" lon="5.94797">
        <ele>1709.7</ele>
        <time>2015-07-25T07:37:18Z</time>
      </trkpt>
      <trkpt lat="44.8509" lon="5.94801">
        <ele>1708</ele>
        <time>2015-07-25T07:37:23Z</time>
      </trkpt>
      <trkpt lat="44.85085" lon="5.94805">
        <ele>1705.7</ele>
        <time>2015-07-25T07:37:28Z</time>
      </trkpt>
      <trkpt lat="44.8508" lon="5.94808">
        <ele>1704.5</ele>
        <time>2015-07-25T07:37:33Z</time>
      </trkpt>
      <trkpt lat="44.85074" lon="5.94809">
        <ele>1704.2</ele>
        <time>2015-07-25T07:37:38Z</time>
      </trkpt>
      <trkpt lat="44.8507" lon="5.94811">
        <ele>1703.1</ele>
        <time>2015-07-25T07:37:43Z</time>
      </trkpt>
      <trkpt lat="44.85068" lon="5.94812">
        <ele>1701.8</ele>
        <time>2015-07-25T07:37:48Z</time>
      </trkpt>
      <trkpt lat="44.85065" lon="5.94814">
        <ele>1700.4</ele>
        <time>2015-07-25T07:37:53Z</time>
      </trkpt>
      <trkpt lat="44.85059" lon="5.94816">
        <ele>1699.5</ele>
        <time>2015-07-25T07:37:58Z</time>
      </trkpt>
      <trkpt lat="44.85054" lon="5.94817">
        <ele>1699.7</ele>
        <time>2015-07-25T07:38:03Z</time>
      </trkpt>
      <trkpt lat="44.85049" lon="5.9482">
        <ele>1698.3</ele>
        <time>2015-07-25T07:38:08Z</time>
      </trkpt>
      <trkpt lat="44.85044" lon="5.94823">
        <ele>1696.3</ele>
        <time>2015-07-25T07:38:13Z</time>
      </trkpt>
      <trkpt lat="44.85037" lon="5.94824">
        <ele>1693.8</ele>
        <time>2015-07-25T07:38:18Z</time>
      </trkpt>
      <trkpt lat="44.85032" lon="5.94826">
        <ele>1692.8</ele>
        <time>2015-07-25T07:38:23Z</time>
      </trkpt>
      <trkpt lat="44.85027" lon="5.94828">
        <ele>1692.4</ele>
        <time>2015-07-25T07:38:28Z</time>
      </trkpt>
      <trkpt lat="44.85022" lon="5.9483">
        <ele>1691.5</ele>
        <time>2015-07-25T07:38:33Z</time>
      </trkpt>
      <trkpt lat="44.85018" lon="5.94832">
        <ele>1690.8</ele>
        <time>2015-07-25T07:38:38Z</time>
      </trkpt>
      <trkpt lat="44.85012" lon="5.94835">
        <ele>1689.4</ele>
        <time>2015-07-25T07:38:43Z</time>
      </trkpt>
      <trkpt lat="44.85007" lon="5.94836">
        <ele>1688.5</ele>
        <time>2015-07-25T07:38:48Z</time>
      </trkpt>
      <trkpt lat="44.85002" lon="5.94839">
        <ele>1687</ele>
        <time>2015-07-25T07:38:53Z</time>
      </trkpt>
      <trkpt lat="44.84997" lon="5.94842">
        <ele>1685.2</ele>
        <time>2015-07-25T07:38:58Z</time>
      </trkpt>
      <trkpt lat="44.84992" lon="5.94846">
        <ele>1684.6</ele>
        <time>2015-07-25T07:39:03Z</time>
      </trkpt>
      <trkpt lat="44.84986" lon="5.94848">
        <ele>1684.3</ele>
        <time>2015-07-25T07:39:08Z</time>
      </trkpt>
      <trkpt lat="44.8498" lon="5.94848">
        <ele>1685.3</ele>
        <time>2015-07-25T07:39:13Z</time>
      </trkpt>
      <trkpt lat="44.84975" lon="5.94851">
        <ele>1684.6</ele>
        <time>2015-07-25T07:39:18Z</time>
      </trkpt>
      <trkpt lat="44.84969" lon="5.94855">
        <ele>1683</ele>
        <time>2015-07-25T07:39:23Z</time>
      </trkpt>
      <trkpt lat="44.84963" lon="5.94854">
        <ele>1682.2</ele>
        <time>2015-07-25T07:39:28Z</time>
      </trkpt>
      <trkpt lat="44.84958" lon="5.94858">
        <ele>1681</ele>
        <time>2015-07-25T07:39:33Z</time>
      </trkpt>
      <trkpt lat="44.84953" lon="5.9486">
        <ele>1679.9</ele>
        <time>2015-07-25T07:39:38Z</time>
      </trkpt>
      <trkpt lat="44.84956" lon="5.94859">
        <ele>1677.1</ele>
        <time>2015-07-25T07:39:43Z</time>
      </trkpt>
      <trkpt lat="44.84959" lon="5.94855">
        <ele>1675.7</ele>
        <time>2015-07-25T07:39:48Z</time>
      </trkpt>
      <trkpt lat="44.84963" lon="5.94847">
        <ele>1676.7</ele>
        <time>2015-07-25T07:39:53Z</time>
      </trkpt>
      <trkpt lat="44.8497" lon="5.94836">
        <ele>1680.2</ele>
        <time>2015-07-25T07:39:58Z</time>
      </trkpt>
      <trkpt lat="44.84974" lon="5.94829">
        <ele>1681.8</ele>
        <time>2015-07-25T07:40:03Z</time>
      </trkpt>
      <trkpt lat="44.84978" lon="5.94824">
        <ele>1681.6</ele>
        <time>2015-07-25T07:40:08Z</time>
      </trkpt>
      <trkpt lat="44.8498" lon="5.94819">
        <ele>1680.7</ele>
        <time>2015-07-25T07:40:13Z</time>
      </trkpt>
      <trkpt lat="44.84983" lon="5.94816">
        <ele>1678.3</ele>
        <time>2015-07-25T07:40:18Z</time>
      </trkpt>
      <trkpt lat="44.84985" lon="5.94811">
        <ele>1677.2</ele>
        <time>2015-07-25T07:40:23Z</time>
      </trkpt>
      <trkpt lat="44.8499" lon="5.94805">
        <ele>1675.3</ele>
        <time>2015-07-25T07:40:28Z</time>
      </trkpt>
      <trkpt lat="44.84994" lon="5.94795">
        <ele>1678.3</ele>
        <time>2015-07-25T07:40:33Z</time>
      </trkpt>
      <trkpt lat="44.84995" lon="5.94788">
        <ele>1678.6</ele>
        <time>2015-07-25T07:40:38Z</time>
      </trkpt>
      <trkpt lat="44.84999" lon="5.94785">
        <ele>1673.2</ele>
        <time>2015-07-25T07:40:43Z</time>
      </trkpt>
      <trkpt lat="44.85004" lon="5.94778">
        <ele>1672.6</ele>
        <time>2015-07-25T07:40:48Z</time>
      </trkpt>
      <trkpt lat="44.85008" lon="5.94769">
        <ele>1672.8</ele>
        <time>2015-07-25T07:40:53Z</time>
      </trkpt>
      <trkpt lat="44.85013" lon="5.94764">
        <ele>1671.8</ele>
        <time>2015-07-25T07:40:58Z</time>
      </trkpt>
      <trkpt lat="44.85017" lon="5.94763">
        <ele>1671.4</ele>
        <time>2015-07-25T07:41:03Z</time>
      </trkpt>
      <trkpt lat="44.8502" lon="5.94757">
        <ele>1670.9</ele>
        <time>2015-07-25T07:41:08Z</time>
      </trkpt>
      <trkpt lat="44.85024" lon="5.94746">
        <ele>1672</ele>
        <time>2015-07-25T07:41:13Z</time>
      </trkpt>
      <trkpt lat="44.8503" lon="5.94736">
        <ele>1675.2</ele>
        <time>2015-07-25T07:41:18Z</time>
      </trkpt>
      <trkpt lat="44.85035" lon="5.94728">
        <ele>1677.8</ele>
        <time>2015-07-25T07:41:23Z</time>
      </trkpt>
      <trkpt lat="44.85035" lon="5.94726">
        <ele>1674.5</ele>
        <time>2015-07-25T07:41:28Z</time>
      </trkpt>
      <trkpt lat="44.85032" lon="5.94726">
        <ele>1672.1</ele>
        <time>2015-07-25T07:41:33Z</time>
      </trkpt>
      <trkpt lat="44.85035" lon="5.94725">
        <ele>1669.2</ele>
        <time>2015-07-25T07:41:38Z</time>
      </trkpt>
      <trkpt lat="44.85038" lon="5.94722">
        <ele>1666.4</ele>
        <time>2015-07-25T07:41:43Z</time>
      </trkpt>
      <trkpt lat="44.85044" lon="5.94715">
        <ele>1666.2</ele>
        <time>2015-07-25T07:41:48Z</time>
      </trkpt>
      <trkpt lat="44.85048" lon="5.94708">
        <ele>1665.8</ele>
        <time>2015-07-25T07:41:53Z</time>
      </trkpt>
      <trkpt lat="44.85054" lon="5.94702">
        <ele>1667.1</ele>
        <time>2015-07-25T07:41:58Z</time>
      </trkpt>
      <trkpt lat="44.85061" lon="5.94694">
        <ele>1666.9</ele>
        <time>2015-07-25T07:42:03Z</time>
      </trkpt>
      <trkpt lat="44.85064" lon="5.94687">
        <ele>1665.1</ele>
        <time>2015-07-25T07:42:08Z</time>
      </trkpt>
      <trkpt lat="44.8507" lon="5.94674">
        <ele>1668.9</ele>
        <time>2015-07-25T07:42:13Z</time>
      </trkpt>
      <trkpt lat="44.85074" lon="5.94666">
        <ele>1670.3</ele>
        <time>2015-07-25T07:42:18Z</time>
      </trkpt>
      <trkpt lat="44.85076" lon="5.94665">
        <ele>1667.1</ele>
        <time>2015-07-25T07:42:23Z</time>
      </trkpt>
      <trkpt lat="44.8508" lon="5.9466">
        <ele>1664.3</ele>
        <time>2015-07-25T07:42:28Z</time>
      </trkpt>
      <trkpt lat="44.85084" lon="5.94657">
        <ele>1661.3</ele>
        <time>2015-07-25T07:42:33Z</time>
      </trkpt>
      <trkpt lat="44.85088" lon="5.94649">
        <ele>1660.1</ele>
        <time>2015-07-25T07:42:38Z</time>
      </trkpt>
      <trkpt lat="44.85093" lon="5.94643">
        <ele>1659.4</ele>
        <time>2015-07-25T07:42:43Z</time>
      </trkpt>
      <trkpt lat="44.85093" lon="5.94638">
        <ele>1655.6</ele>
        <time>2015-07-25T07:42:48Z</time>
      </trkpt>
      <trkpt lat="44.85088" lon="5.94638">
        <ele>1652</ele>
        <time>2015-07-25T07:42:53Z</time>
      </trkpt>
      <trkpt lat="44.85083" lon="5.9464">
        <ele>1649.9</ele>
        <time>2015-07-25T07:42:58Z</time>
      </trkpt>
      <trkpt lat="44.8508" lon="5.94641">
        <ele>1651.3</ele>
        <time>2015-07-25T07:43:03Z</time>
      </trkpt>
      <trkpt lat="44.8508" lon="5.94638">
        <ele>1654</ele>
        <time>2015-07-25T07:43:08Z</time>
      </trkpt>
      <trkpt lat="44.85079" lon="5.94636">
        <ele>1654.1</ele>
        <time>2015-07-25T07:43:13Z</time>
      </trkpt>
      <trkpt lat="44.85077" lon="5.94637">
        <ele>1652.8</ele>
        <time>2015-07-25T07:43:18Z</time>
      </trkpt>
      <trkpt lat="44.85074" lon="5.9464">
        <ele>1650.4</ele>
        <time>2015-07-25T07:43:23Z</time>
      </trkpt>
      <trkpt lat="44.85069" lon="5.94641">
        <ele>1648.1</ele>
        <time>2015-07-25T07:43:28Z</time>
      </trkpt>
      <trkpt lat="44.85062" lon="5.94643">
        <ele>1645.9</ele>
        <time>2015-07-25T07:43:33Z</time>
      </trkpt>
      <trkpt lat="44.85056" lon="5.94644">
        <ele>1644.4</ele>
        <time>2015-07-25T07:43:38Z</time>
      </trkpt>
      <trkpt lat="44.8505" lon="5.94646">
        <ele>1643.8</ele>
        <time>2015-07-25T07:43:43Z</time>
      </trkpt>
      <trkpt lat="44.85043" lon="5.94646">
        <ele>1644.5</ele>
        <time>2015-07-25T07:43:48Z</time>
      </trkpt>
      <trkpt lat="44.85036" lon="5.94647">
        <ele>1645</ele>
        <time>2015-07-25T07:43:53Z</time>
      </trkpt>
      <trkpt lat="44.85031" lon="5.94651">
        <ele>1644</ele>
        <time>2015-07-25T07:43:58Z</time>
      </trkpt>
      <trkpt lat="44.85025" lon="5.94653">
        <ele>1643.7</ele>
        <time>2015-07-25T07:44:03Z</time>
      </trkpt>
      <trkpt lat="44.8502" lon="5.94652">
        <ele>1641.9</ele>
        <time>2015-07-25T07:44:08Z</time>
      </trkpt>
      <trkpt lat="44.85017" lon="5.94647">
        <ele>1640.5</ele>
        <time>2015-07-25T07:44:13Z</time>
      </trkpt>
      <trkpt lat="44.85013" lon="5.94644">
        <ele>1638.8</ele>
        <time>2015-07-25T07:44:18Z</time>
      </trkpt>
      <trkpt lat="44.85008" lon="5.94642">
        <ele>1636</ele>
        <time>2015-07-25T07:44:23Z</time>
      </trkpt>
      <trkpt lat="44.85004" lon="5.94641">
        <ele>1634.1</ele>
        <time>2015-07-25T07:44:28Z</time>
      </trkpt>
      <trkpt lat="44.84998" lon="5.94642">
        <ele>1630.7</ele>
        <time>2015-07-25T07:44:33Z</time>
      </trkpt>
      <trkpt lat="44.84993" lon="5.94642">
        <ele>1627.8</ele>
        <time>2015-07-25T07:44:38Z</time>
      </trkpt>
      <trkpt lat="44.84988" lon="5.94642">
        <ele>1625.4</ele>
        <time>2015-07-25T07:44:43Z</time>
      </trkpt>
      <trkpt lat="44.84983" lon="5.94642">
        <ele>1623.2</ele>
        <time>2015-07-25T07:44:48Z</time>
      </trkpt>
      <trkpt lat="44.84977" lon="5.94642">
        <ele>1621.1</ele>
        <time>2015-07-25T07:44:53Z</time>
      </trkpt>
      <trkpt lat="44.84972" lon="5.94641">
        <ele>1619</ele>
        <time>2015-07-25T07:44:58Z</time>
      </trkpt>
      <trkpt lat="44.84967" lon="5.94641">
        <ele>1617.1</ele>
        <time>2015-07-25T07:45:03Z</time>
      </trkpt>
      <trkpt lat="44.84962" lon="5.94641">
        <ele>1615.1</ele>
        <time>2015-07-25T07:45:08Z</time>
      </trkpt>
      <trkpt lat="44.84958" lon="5.94642">
        <ele>1613.1</ele>
        <time>2015-07-25T07:45:13Z</time>
      </trkpt>
      <trkpt lat="44.84953" lon="5.94643">
        <ele>1610.7</ele>
        <time>2015-07-25T07:45:18Z</time>
      </trkpt>
      <trkpt lat="44.84949" lon="5.94644">
        <ele>1609.1</ele>
        <time>2015-07-25T07:45:23Z</time>
      </trkpt>
      <trkpt lat="44.84942" lon="5.94641">
        <ele>1608.5</ele>
        <time>2015-07-25T07:45:28Z</time>
      </trkpt>
      <trkpt lat="44.84938" lon="5.94639">
        <ele>1607.3</ele>
        <time>2015-07-25T07:45:33Z</time>
      </trkpt>
      <trkpt lat="44.84932" lon="5.9464">
        <ele>1605.3</ele>
        <time>2015-07-25T07:45:38Z</time>
      </trkpt>
      <trkpt lat="44.84926" lon="5.94641">
        <ele>1603.8</ele>
        <time>2015-07-25T07:45:43Z</time>
      </trkpt>
      <trkpt lat="44.84921" lon="5.94643">
        <ele>1602.7</ele>
        <time>2015-07-25T07:45:48Z</time>
      </trkpt>
      <trkpt lat="44.84914" lon="5.94644">
        <ele>1602.6</ele>
        <time>2015-07-25T07:45:53Z</time>
      </trkpt>
      <trkpt lat="44.84907" lon="5.94644">
        <ele>1602.5</ele>
        <time>2015-07-25T07:45:58Z</time>
      </trkpt>
      <trkpt lat="44.849" lon="5.94648">
        <ele>1601.3</ele>
        <time>2015-07-25T07:46:03Z</time>
      </trkpt>
      <trkpt lat="44.84895" lon="5.94652">
        <ele>1600.8</ele>
        <time>2015-07-25T07:46:08Z</time>
      </trkpt>
      <trkpt lat="44.84889" lon="5.94654">
        <ele>1601.2</ele>
        <time>2015-07-25T07:46:13Z</time>
      </trkpt>
      <trkpt lat="44.84883" lon="5.94655">
        <ele>1601.4</ele>
        <time>2015-07-25T07:46:18Z</time>
      </trkpt>
      <trkpt lat="44.84877" lon="5.94656">
        <ele>1601.4</ele>
        <time>2015-07-25T07:46:23Z</time>
      </trkpt>
      <trkpt lat="44.84871" lon="5.94656">
        <ele>1601.3</ele>
        <time>2015-07-25T07:46:28Z</time>
      </trkpt>
      <trkpt lat="44.84864" lon="5.94655">
        <ele>1601.7</ele>
        <time>2015-07-25T07:46:33Z</time>
      </trkpt>
      <trkpt lat="44.84857" lon="5.94655">
        <ele>1600.7</ele>
        <time>2015-07-25T07:46:38Z</time>
      </trkpt>
      <trkpt lat="44.84851" lon="5.94655">
        <ele>1599.3</ele>
        <time>2015-07-25T07:46:43Z</time>
      </trkpt>
      <trkpt lat="44.84845" lon="5.94656">
        <ele>1598</ele>
        <time>2015-07-25T07:46:48Z</time>
      </trkpt>
      <trkpt lat="44.84842" lon="5.94658">
        <ele>1597.2</ele>
        <time>2015-07-25T07:46:53Z</time>
      </trkpt>
      <trkpt lat="44.84841" lon="5.94661">
        <ele>1598.6</ele>
        <time>2015-07-25T07:46:58Z</time>
      </trkpt>
      <trkpt lat="44.84838" lon="5.94658">
        <ele>1599.5</ele>
        <time>2015-07-25T07:47:03Z</time>
      </trkpt>
      <trkpt lat="44.8484" lon="5.94656">
        <ele>1604.2</ele>
        <time>2015-07-25T07:47:08Z</time>
      </trkpt>
      <trkpt lat="44.84842" lon="5.94654">
        <ele>1605.3</ele>
        <time>2015-07-25T07:47:13Z</time>
      </trkpt>
      <trkpt lat="44.84842" lon="5.94655">
        <ele>1607.2</ele>
        <time>2015-07-25T07:47:18Z</time>
      </trkpt>
      <trkpt lat="44.84843" lon="5.94659">
        <ele>1609.8</ele>
        <time>2015-07-25T07:47:23Z</time>
      </trkpt>
      <trkpt lat="44.84842" lon="5.94655">
        <ele>1613.9</ele>
        <time>2015-07-25T07:47:28Z</time>
      </trkpt>
      <trkpt lat="44.84841" lon="5.94656">
        <ele>1613.8</ele>
        <time>2015-07-25T07:47:33Z</time>
      </trkpt>
      <trkpt lat="44.84838" lon="5.94654">
        <ele>1612.1</ele>
        <time>2015-07-25T07:47:38Z</time>
      </trkpt>
      <trkpt lat="44.84837" lon="5.94656">
        <ele>1613.5</ele>
        <time>2015-07-25T07:47:43Z</time>
      </trkpt>
      <trkpt lat="44.84836" lon="5.94656">
        <ele>1616.3</ele>
        <time>2015-07-25T07:47:48Z</time>
      </trkpt>
      <trkpt lat="44.84837" lon="5.9466">
        <ele>1615</ele>
        <time>2015-07-25T07:47:53Z</time>
      </trkpt>
      <trkpt lat="44.8484" lon="5.94663">
        <ele>1612.3</ele>
        <time>2015-07-25T07:47:58Z</time>
      </trkpt>
      <trkpt lat="44.84842" lon="5.94665">
        <ele>1612.1</ele>
        <time>2015-07-25T07:48:03Z</time>
      </trkpt>
      <trkpt lat="44.84839" lon="5.94665">
        <ele>1611.1</ele>
        <time>2015-07-25T07:48:08Z</time>
      </trkpt>
      <trkpt lat="44.84842" lon="5.94662">
        <ele>1613.8</ele>
        <time>2015-07-25T07:48:13Z</time>
      </trkpt>
      <trkpt lat="44.8484" lon="5.94663">
        <ele>1615.3</ele>
        <time>2015-07-25T07:48:18Z</time>
      </trkpt>
      <trkpt lat="44.84838" lon="5.94661">
        <ele>1612.7</ele>
        <time>2015-07-25T07:48:23Z</time>
      </trkpt>
      <trkpt lat="44.84838" lon="5.94665">
        <ele>1609.8</ele>
        <time>2015-07-25T07:48:28Z</time>
      </trkpt>
      <trkpt lat="44.8484" lon="5.94664">
        <ele>1611.1</ele>
        <time>2015-07-25T07:48:33Z</time>
      </trkpt>
      <trkpt lat="44.84843" lon="5.94658">
        <ele>1613.9</ele>
        <time>2015-07-25T07:48:38Z</time>
      </trkpt>
      <trkpt lat="44.84847" lon="5.94657">
        <ele>1617.5</ele>
        <time>2015-07-25T07:48:43Z</time>
      </trkpt>
      <trkpt lat="44.8485" lon="5.94657">
        <ele>1619.8</ele>
        <time>2015-07-25T07:48:48Z</time>
      </trkpt>
      <trkpt lat="44.84848" lon="5.94655">
        <ele>1621.6</ele>
        <time>2015-07-25T07:48:53Z</time>
      </trkpt>
      <trkpt lat="44.84845" lon="5.94658">
        <ele>1622.9</ele>
        <time>2015-07-25T07:48:58Z</time>
      </trkpt>
      <trkpt lat="44.84843" lon="5.9466">
        <ele>1624.1</ele>
        <time>2015-07-25T07:49:03Z</time>
      </trkpt>
      <trkpt lat="44.84841" lon="5.94659">
        <ele>1624.9</ele>
        <time>2015-07-25T07:49:08Z</time>
      </trkpt>
      <trkpt lat="44.8484" lon="5.94658">
        <ele>1625.7</ele>
        <time>2015-07-25T07:49:13Z</time>
      </trkpt>
      <trkpt lat="44.8484" lon="5.9466">
        <ele>1620.3</ele>
        <time>2015-07-25T07:49:18Z</time>
      </trkpt>
      <trkpt lat="44.84842" lon="5.94662">
        <ele>1620.4</ele>
        <time>2015-07-25T07:49:23Z</time>
      </trkpt>
      <trkpt lat="44.84844" lon="5.94666">
        <ele>1619.4</ele>
        <time>2015-07-25T07:49:28Z</time>
      </trkpt>
      <trkpt lat="44.84843" lon="5.94669">
        <ele>1616.1</ele>
        <time>2015-07-25T07:49:33Z</time>
      </trkpt>
      <trkpt lat="44.84842" lon="5.94671">
        <ele>1612.6</ele>
        <time>2015-07-25T07:49:38Z</time>
      </trkpt>
      <trkpt lat="44.84843" lon="5.94675">
        <ele>1605.2</ele>
        <time>2015-07-25T07:49:43Z</time>
      </trkpt>
      <trkpt lat="44.84841" lon="5.94677">
        <ele>1605.8</ele>
        <time>2015-07-25T07:49:48Z</time>
      </trkpt>
      <trkpt lat="44.84843" lon="5.9468">
        <ele>1599.9</ele>
        <time>2015-07-25T07:49:53Z</time>
      </trkpt>
      <trkpt lat="44.84844" lon="5.94672">
        <ele>1598.9</ele>
        <time>2015-07-25T07:49:58Z</time>
      </trkpt>
      <trkpt lat="44.84847" lon="5.94679">
        <ele>1594.8</ele>
        <time>2015-07-25T07:50:03Z</time>
      </trkpt>
      <trkpt lat="44.84845" lon="5.9468">
        <ele>1591.3</ele>
        <time>2015-07-25T07:50:08Z</time>
      </trkpt>
      <trkpt lat="44.84847" lon="5.94682">
        <ele>1591.6</ele>
        <time>2015-07-25T07:50:13Z</time>
      </trkpt>
      <trkpt lat="44.84848" lon="5.94686">
        <ele>1593.8</ele>
        <time>2015-07-25T07:50:18Z</time>
      </trkpt>
      <trkpt lat="44.84847" lon="5.94682">
        <ele>1594</ele>
        <time>2015-07-25T07:50:23Z</time>
      </trkpt>
      <trkpt lat="44.8485" lon="5.94681">
        <ele>1598.8</ele>
        <time>2015-07-25T07:50:28Z</time>
      </trkpt>
      <trkpt lat="44.84851" lon="5.94673">
        <ele>1597.9</ele>
        <time>2015-07-25T07:50:33Z</time>
      </trkpt>
      <trkpt lat="44.84849" lon="5.94669">
        <ele>1598.4</ele>
        <time>2015-07-25T07:50:38Z</time>
      </trkpt>
      <trkpt lat="44.84847" lon="5.9467">
        <ele>1596.9</ele>
        <time>2015-07-25T07:50:43Z</time>
      </trkpt>
      <trkpt lat="44.84848" lon="5.94665">
        <ele>1605.2</ele>
        <time>2015-07-25T07:50:48Z</time>
      </trkpt>
      <trkpt lat="44.84847" lon="5.9466">
        <ele>1611.1</ele>
        <time>2015-07-25T07:50:53Z</time>
      </trkpt>
      <trkpt lat="44.84844" lon="5.94662">
        <ele>1611.6</ele>
        <time>2015-07-25T07:50:58Z</time>
      </trkpt>
      <trkpt lat="44.84847" lon="5.94662">
        <ele>1613.9</ele>
        <time>2015-07-25T07:51:03Z</time>
      </trkpt>
      <trkpt lat="44.84847" lon="5.94653">
        <ele>1617.7</ele>
        <time>2015-07-25T07:51:08Z</time>
      </trkpt>
      <trkpt lat="44.84845" lon="5.94642">
        <ele>1621.9</ele>
        <time>2015-07-25T07:51:13Z</time>
      </trkpt>
      <trkpt lat="44.84844" lon="5.9464">
        <ele>1623.3</ele>
        <time>2015-07-25T07:51:18Z</time>
      </trkpt>
      <trkpt lat="44.84842" lon="5.94641">
        <ele>1620.8</ele>
        <time>2015-07-25T07:51:23Z</time>
      </trkpt>
      <trkpt lat="44.84842" lon="5.94642">
        <ele>1622.1</ele>
        <time>2015-07-25T07:51:28Z</time>
      </trkpt>
      <trkpt lat="44.84839" lon="5.94639">
        <ele>1620.9</ele>
        <time>2015-07-25T07:51:33Z</time>
      </trkpt>
      <trkpt lat="44.84838" lon="5.9464">
        <ele>1618.1</ele>
        <time>2015-07-25T07:51:38Z</time>
      </trkpt>
      <trkpt lat="44.84838" lon="5.94641">
        <ele>1617.6</ele>
        <time>2015-07-25T07:51:43Z</time>
      </trkpt>
      <trkpt lat="44.84839" lon="5.94642">
        <ele>1617.5</ele>
        <time>2015-07-25T07:51:48Z</time>
      </trkpt>
      <trkpt lat="44.8484" lon="5.94639">
        <ele>1618</ele>
        <time>2015-07-25T07:51:53Z</time>
      </trkpt>
      <trkpt lat="44.84844" lon="5.9464">
        <ele>1619.4</ele>
        <time>2015-07-25T07:51:58Z</time>
      </trkpt>
      <trkpt lat="44.84844" lon="5.94644">
        <ele>1616.5</ele>
        <time>2015-07-25T07:52:03Z</time>
      </trkpt>
      <trkpt lat="44.84845" lon="5.94646">
        <ele>1615.9</ele>
        <time>2015-07-25T07:52:08Z</time>
      </trkpt>
      <trkpt lat="44.84847" lon="5.94648">
        <ele>1619</ele>
        <time>2015-07-25T07:52:13Z</time>
      </trkpt>
      <trkpt lat="44.84853" lon="5.94646">
        <ele>1624.7</ele>
        <time>2015-07-25T07:52:18Z</time>
      </trkpt>
      <trkpt lat="44.8485" lon="5.94648">
        <ele>1621.8</ele>
        <time>2015-07-25T07:52:23Z</time>
      </trkpt>
      <trkpt lat="44.84843" lon="5.94648">
        <ele>1617.4</ele>
        <time>2015-07-25T07:52:28Z</time>
      </trkpt>
      <trkpt lat="44.84839" lon="5.94647">
        <ele>1615.4</ele>
        <time>2015-07-25T07:52:33Z</time>
      </trkpt>
      <trkpt lat="44.84839" lon="5.9465">
        <ele>1609.8</ele>
        <time>2015-07-25T07:52:38Z</time>
      </trkpt>
      <trkpt lat="44.84842" lon="5.94656">
        <ele>1603.2</ele>
        <time>2015-07-25T07:52:43Z</time>
      </trkpt>
      <trkpt lat="44.84844" lon="5.94661">
        <ele>1598.3</ele>
        <time>2015-07-25T07:52:48Z</time>
      </trkpt>
      <trkpt lat="44.84845" lon="5.94662">
        <ele>1594.6</ele>
        <time>2015-07-25T07:52:53Z</time>
      </trkpt>
      <trkpt lat="44.84844" lon="5.94661">
        <ele>1596</ele>
        <time>2015-07-25T07:52:58Z</time>
      </trkpt>
      <trkpt lat="44.84842" lon="5.9466">
        <ele>1598.4</ele>
        <time>2015-07-25T07:53:03Z</time>
      </trkpt>
      <trkpt lat="44.84842" lon="5.9466">
        <ele>1598.5</ele>
        <time>2015-07-25T07:53:08Z</time>
      </trkpt>
      <trkpt lat="44.84841" lon="5.94662">
        <ele>1598.1</ele>
        <time>2015-07-25T07:53:13Z</time>
      </trkpt>
      <trkpt lat="44.84842" lon="5.94663">
        <ele>1593.5</ele>
        <time>2015-07-25T07:53:18Z</time>
      </trkpt>
      <trkpt lat="44.84841" lon="5.94661">
        <ele>1591.7</ele>
        <time>2015-07-25T07:53:23Z</time>
      </trkpt>
      <trkpt lat="44.84839" lon="5.94656">
        <ele>1593.8</ele>
        <time>2015-07-25T07:53:28Z</time>
      </trkpt>
      <trkpt lat="44.84835" lon="5.9465">
        <ele>1598.1</ele>
        <time>2015-07-25T07:53:33Z</time>
      </trkpt>
      <trkpt lat="44.84833" lon="5.94646">
        <ele>1601.9</ele>
        <time>2015-07-25T07:53:38Z</time>
      </trkpt>
      <trkpt lat="44.84832" lon="5.94645">
        <ele>1604.9</ele>
        <time>2015-07-25T07:53:43Z</time>
      </trkpt>
      <trkpt lat="44.84831" lon="5.94645">
        <ele>1607.8</ele>
        <time>2015-07-25T07:53:48Z</time>
      </trkpt>
      <trkpt lat="44.84831" lon="5.94645">
        <ele>1608.7</ele>
        <time>2015-07-25T07:53:53Z</time>
      </trkpt>
      <trkpt lat="44.84831" lon="5.94647">
        <ele>1610.6</ele>
        <time>2015-07-25T07:53:58Z</time>
      </trkpt>
      <trkpt lat="44.8483" lon="5.94647">
        <ele>1612.2</ele>
        <time>2015-07-25T07:54:03Z</time>
      </trkpt>
      <trkpt lat="44.84829" lon="5.94647">
        <ele>1614.1</ele>
        <time>2015-07-25T07:54:08Z</time>
      </trkpt>
      <trkpt lat="44.8483" lon="5.94649">
        <ele>1614.4</ele>
        <time>2015-07-25T07:54:13Z</time>
      </trkpt>
      <trkpt lat="44.84829" lon="5.94649">
        <ele>1613.9</ele>
        <time>2015-07-25T07:54:18Z</time>
      </trkpt>
      <trkpt lat="44.84832" lon="5.94653">
        <ele>1609.6</ele>
        <time>2015-07-25T07:54:23Z</time>
      </trkpt>
      <trkpt lat="44.84835" lon="5.94657">
        <ele>1606.5</ele>
        <time>2015-07-25T07:54:28Z</time>
      </trkpt>
      <trkpt lat="44.84837" lon="5.94657">
        <ele>1602.5</ele>
        <time>2015-07-25T07:54:33Z</time>
      </trkpt>
      <trkpt lat="44.84838" lon="5.94657">
        <ele>1600.4</ele>
        <time>2015-07-25T07:54:38Z</time>
      </trkpt>
      <trkpt lat="44.84835" lon="5.94656">
        <ele>1599</ele>
        <time>2015-07-25T07:54:43Z</time>
      </trkpt>
      <trkpt lat="44.84829" lon="5.94656">
        <ele>1597.9</ele>
        <time>2015-07-25T07:54:48Z</time>
      </trkpt>
      <trkpt lat="44.84829" lon="5.94657">
        <ele>1597.9</ele>
        <time>2015-07-25T07:54:53Z</time>
      </trkpt>
      <trkpt lat="44.8483" lon="5.94656">
        <ele>1598.1</ele>
        <time>2015-07-25T07:54:58Z</time>
      </trkpt>
      <trkpt lat="44.84831" lon="5.94657">
        <ele>1597.7</ele>
        <time>2015-07-25T07:55:03Z</time>
      </trkpt>
      <trkpt lat="44.84835" lon="5.94662">
        <ele>1596.5</ele>
        <time>2015-07-25T07:55:08Z</time>
      </trkpt>
      <trkpt lat="44.8484" lon="5.94666">
        <ele>1595.6</ele>
        <time>2015-07-25T07:55:13Z</time>
      </trkpt>
      <trkpt lat="44.84841" lon="5.94666">
        <ele>1597.7</ele>
        <time>2015-07-25T07:55:18Z</time>
      </trkpt>
      <trkpt lat="44.84837" lon="5.94658">
        <ele>1600</ele>
        <time>2015-07-25T07:55:23Z</time>
      </trkpt>
      <trkpt lat="44.84833" lon="5.94654">
        <ele>1602.8</ele>
        <time>2015-07-25T07:55:28Z</time>
      </trkpt>
      <trkpt lat="44.84834" lon="5.94659">
        <ele>1603</ele>
        <time>2015-07-25T07:55:33Z</time>
      </trkpt>
      <trkpt lat="44.84835" lon="5.94662">
        <ele>1604.5</ele>
        <time>2015-07-25T07:55:38Z</time>
      </trkpt>
      <trkpt lat="44.84834" lon="5.94664">
        <ele>1604.4</ele>
        <time>2015-07-25T07:55:45Z</time>
      </trkpt>
      <trkpt lat="44.84837" lon="5.94667">
        <ele>1604.7</ele>
        <time>2015-07-25T07:55:50Z</time>
      </trkpt>
      <trkpt lat="44.84839" lon="5.94667">
        <ele>1602.2</ele>
        <time>2015-07-25T07:55:55Z</time>
      </trkpt>
      <trkpt lat="44.84837" lon="5.94664">
        <ele>1608.5</ele>
        <time>2015-07-25T07:56:00Z</time>
      </trkpt>
      <trkpt lat="44.84836" lon="5.9466">
        <ele>1611.2</ele>
        <time>2015-07-25T07:56:05Z</time>
      </trkpt>
      <trkpt lat="44.84839" lon="5.94664">
        <ele>1606.5</ele>
        <time>2015-07-25T07:56:10Z</time>
      </trkpt>
      <trkpt lat="44.84834" lon="5.94658">
        <ele>1612.5</ele>
        <time>2015-07-25T07:56:15Z</time>
      </trkpt>
      <trkpt lat="44.84835" lon="5.94655">
        <ele>1613.1</ele>
        <time>2015-07-25T07:56:20Z</time>
      </trkpt>
      <trkpt lat="44.84838" lon="5.94653">
        <ele>1611.6</ele>
        <time>2015-07-25T07:56:25Z</time>
      </trkpt>
      <trkpt lat="44.84839" lon="5.94652">
        <ele>1612.8</ele>
        <time>2015-07-25T07:56:30Z</time>
      </trkpt>
      <trkpt lat="44.84839" lon="5.94654">
        <ele>1611.6</ele>
        <time>2015-07-25T07:56:35Z</time>
      </trkpt>
      <trkpt lat="44.84839" lon="5.94656">
        <ele>1609.1</ele>
        <time>2015-07-25T07:56:40Z</time>
      </trkpt>
      <trkpt lat="44.84838" lon="5.94656">
        <ele>1609.9</ele>
        <time>2015-07-25T07:56:45Z</time>
      </trkpt>
      <trkpt lat="44.84837" lon="5.94654">
        <ele>1610.1</ele>
        <time>2015-07-25T07:56:50Z</time>
      </trkpt>
      <trkpt lat="44.84834" lon="5.94654">
        <ele>1616.9</ele>
        <time>2015-07-25T07:56:55Z</time>
      </trkpt>
      <trkpt lat="44.84832" lon="5.94656">
        <ele>1619.6</ele>
        <time>2015-07-25T07:57:00Z</time>
      </trkpt>
      <trkpt lat="44.84836" lon="5.94658">
        <ele>1620.9</ele>
        <time>2015-07-25T07:57:05Z</time>
      </trkpt>
      <trkpt lat="44.8484" lon="5.94665">
        <ele>1613.5</ele>
        <time>2015-07-25T07:57:10Z</time>
      </trkpt>
      <trkpt lat="44.84844" lon="5.94671">
        <ele>1605.2</ele>
        <time>2015-07-25T07:57:15Z</time>
      </trkpt>
      <trkpt lat="44.84847" lon="5.94674">
        <ele>1602.2</ele>
        <time>2015-07-25T07:57:20Z</time>
      </trkpt>
      <trkpt lat="44.84848" lon="5.9468">
        <ele>1598.3</ele>
        <time>2015-07-25T07:57:25Z</time>
      </trkpt>
      <trkpt lat="44.8485" lon="5.9468">
        <ele>1593.4</ele>
        <time>2015-07-25T07:57:30Z</time>
      </trkpt>
      <trkpt lat="44.84852" lon="5.9468">
        <ele>1595.7</ele>
        <time>2015-07-25T07:57:35Z</time>
      </trkpt>
      <trkpt lat="44.8485" lon="5.94682">
        <ele>1599.6</ele>
        <time>2015-07-25T07:57:40Z</time>
      </trkpt>
      <trkpt lat="44.84847" lon="5.94677">
        <ele>1599.4</ele>
        <time>2015-07-25T07:57:45Z</time>
      </trkpt>
      <trkpt lat="44.84844" lon="5.94677">
        <ele>1595.2</ele>
        <time>2015-07-25T07:57:50Z</time>
      </trkpt>
      <trkpt lat="44.84842" lon="5.94675">
        <ele>1596.1</ele>
        <time>2015-07-25T07:57:55Z</time>
      </trkpt>
      <trkpt lat="44.8484" lon="5.94674">
        <ele>1597.4</ele>
        <time>2015-07-25T07:58:00Z</time>
      </trkpt>
      <trkpt lat="44.8484" lon="5.94673">
        <ele>1597.9</ele>
        <time>2015-07-25T07:58:05Z</time>
      </trkpt>
      <trkpt lat="44.84842" lon="5.94674">
        <ele>1596.6</ele>
        <time>2015-07-25T07:58:10Z</time>
      </trkpt>
      <trkpt lat="44.84844" lon="5.94677">
        <ele>1595.8</ele>
        <time>2015-07-25T07:58:15Z</time>
      </trkpt>
      <trkpt lat="44.84845" lon="5.94679">
        <ele>1595.6</ele>
        <time>2015-07-25T07:58:20Z</time>
      </trkpt>
      <trkpt lat="44.84845" lon="5.94684">
        <ele>1597.5</ele>
        <time>2015-07-25T07:58:25Z</time>
      </trkpt>
      <trkpt lat="44.84843" lon="5.94681">
        <ele>1601.1</ele>
        <time>2015-07-25T07:58:30Z</time>
      </trkpt>
      <trkpt lat="44.84842" lon="5.94678">
        <ele>1599.9</ele>
        <time>2015-07-25T07:58:35Z</time>
      </trkpt>
      <trkpt lat="44.84839" lon="5.94675">
        <ele>1602.5</ele>
        <time>2015-07-25T07:58:40Z</time>
      </trkpt>
      <trkpt lat="44.84834" lon="5.94664">
        <ele>1613</ele>
        <time>2015-07-25T07:58:45Z</time>
      </trkpt>
      <trkpt lat="44.84831" lon="5.94663">
        <ele>1616.3</ele>
        <time>2015-07-25T07:58:50Z</time>
      </trkpt>
      <trkpt lat="44.84829" lon="5.94663">
        <ele>1615</ele>
        <time>2015-07-25T07:58:55Z</time>
      </trkpt>
      <trkpt lat="44.84831" lon="5.94664">
        <ele>1613.3</ele>
        <time>2015-07-25T07:59:00Z</time>
      </trkpt>
      <trkpt lat="44.84831" lon="5.94663">
        <ele>1611.3</ele>
        <time>2015-07-25T07:59:05Z</time>
      </trkpt>
      <trkpt lat="44.84831" lon="5.94663">
        <ele>1610</ele>
        <time>2015-07-25T07:59:10Z</time>
      </trkpt>
      <trkpt lat="44.84832" lon="5.94662">
        <ele>1607.6</ele>
        <time>2015-07-25T07:59:15Z</time>
      </trkpt>
      <trkpt lat="44.84833" lon="5.94661">
        <ele>1605.4</ele>
        <time>2015-07-25T07:59:20Z</time>
      </trkpt>
      <trkpt lat="44.84834" lon="5.94662">
        <ele>1605</ele>
        <time>2015-07-25T07:59:25Z</time>
      </trkpt>
      <trkpt lat="44.84834" lon="5.94661">
        <ele>1604.2</ele>
        <time>2015-07-25T07:59:30Z</time>
      </trkpt>
      <trkpt lat="44.84833" lon="5.9466">
        <ele>1603.4</ele>
        <time>2015-07-25T07:59:35Z</time>
      </trkpt>
      <trkpt lat="44.84836" lon="5.94661">
        <ele>1604.7</ele>
        <time>2015-07-25T07:59:40Z</time>
      </trkpt>
      <trkpt lat="44.84838" lon="5.94662">
        <ele>1607.1</ele>
        <time>2015-07-25T07:59:45Z</time>
      </trkpt>
      <trkpt lat="44.84839" lon="5.94663">
        <ele>1609.4</ele>
        <time>2015-07-25T07:59:50Z</time>
      </trkpt>
      <trkpt lat="44.84838" lon="5.94663">
        <ele>1610.3</ele>
        <time>2015-07-25T07:59:55Z</time>
      </trkpt>
      <trkpt lat="44.84838" lon="5.94664">
        <ele>1611.2</ele>
        <time>2015-07-25T08:00:00Z</time>
      </trkpt>
      <trkpt lat="44.84838" lon="5.94665">
        <ele>1613</ele>
        <time>2015-07-25T08:00:05Z</time>
      </trkpt>
      <trkpt lat="44.84837" lon="5.94662">
        <ele>1610.9</ele>
        <time>2015-07-25T08:00:10Z</time>
      </trkpt>
      <trkpt lat="44.84836" lon="5.94662">
        <ele>1609.9</ele>
        <time>2015-07-25T08:00:15Z</time>
      </trkpt>
      <trkpt lat="44.84836" lon="5.94663">
        <ele>1610.4</ele>
        <time>2015-07-25T08:00:20Z</time>
      </trkpt>
      <trkpt lat="44.84837" lon="5.94663">
        <ele>1608.6</ele>
        <time>2015-07-25T08:00:25Z</time>
      </trkpt>
      <trkpt lat="44.84837" lon="5.94664">
        <ele>1607.2</ele>
        <time>2015-07-25T08:00:30Z</time>
      </trkpt>
      <trkpt lat="44.84838" lon="5.94665">
        <ele>1606.9</ele>
        <time>2015-07-25T08:00:35Z</time>
      </trkpt>
      <trkpt lat="44.84839" lon="5.94667">
        <ele>1607.8</ele>
        <time>2015-07-25T08:00:40Z</time>
      </trkpt>
      <trkpt lat="44.84839" lon="5.94666">
        <ele>1607.1</ele>
        <time>2015-07-25T08:00:45Z</time>
      </trkpt>
      <trkpt lat="44.84839" lon="5.94664">
        <ele>1606.7</ele>
        <time>2015-07-25T08:00:50Z</time>
      </trkpt>
      <trkpt lat="44.84837" lon="5.9466">
        <ele>1605.6</ele>
        <time>2015-07-25T08:00:55Z</time>
      </trkpt>
      <trkpt lat="44.84837" lon="5.94661">
        <ele>1605.6</ele>
        <time>2015-07-25T08:01:00Z</time>
      </trkpt>
      <trkpt lat="44.8484" lon="5.94665">
        <ele>1608.3</ele>
        <time>2015-07-25T08:01:05Z</time>
      </trkpt>
      <trkpt lat="44.84842" lon="5.94667">
        <ele>1608.5</ele>
        <time>2015-07-25T08:01:10Z</time>
      </trkpt>
      <trkpt lat="44.84844" lon="5.9467">
        <ele>1608.8</ele>
        <time>2015-07-25T08:01:15Z</time>
      </trkpt>
      <trkpt lat="44.84844" lon="5.94671">
        <ele>1608.8</ele>
        <time>2015-07-25T08:01:20Z</time>
      </trkpt>
      <trkpt lat="44.84843" lon="5.9467">
        <ele>1608.2</ele>
        <time>2015-07-25T08:01:25Z</time>
      </trkpt>
      <trkpt lat="44.84844" lon="5.94671">
        <ele>1607.6</ele>
        <time>2015-07-25T08:01:30Z</time>
      </trkpt>
      <trkpt lat="44.84844" lon="5.9467">
        <ele>1605.4</ele>
        <time>2015-07-25T08:01:35Z</time>
      </trkpt>
      <trkpt lat="44.84844" lon="5.94666">
        <ele>1600.9</ele>
        <time>2015-07-25T08:01:40Z</time>
      </trkpt>
      <trkpt lat="44.84839" lon="5.94659">
        <ele>1596.9</ele>
        <time>2015-07-25T08:01:45Z</time>
      </trkpt>
      <trkpt lat="44.8484" lon="5.94656">
        <ele>1594.2</ele>
        <time>2015-07-25T08:01:50Z</time>
      </trkpt>
      <trkpt lat="44.84847" lon="5.94655">
        <ele>1592.5</ele>
        <time>2015-07-25T08:01:55Z</time>
      </trkpt>
      <trkpt lat="44.84844" lon="5.94655">
        <ele>1596.5</ele>
        <time>2015-07-25T08:02:00Z</time>
      </trkpt>
      <trkpt lat="44.84843" lon="5.94656">
        <ele>1597.9</ele>
        <time>2015-07-25T08:02:05Z</time>
      </trkpt>
      <trkpt lat="44.84843" lon="5.94656">
        <ele>1596.6</ele>
        <time>2015-07-25T08:02:10Z</time>
      </trkpt>
      <trkpt lat="44.84843" lon="5.94657">
        <ele>1596.8</ele>
        <time>2015-07-25T08:02:15Z</time>
      </trkpt>
      <trkpt lat="44.8484" lon="5.94656">
        <ele>1597.9</ele>
        <time>2015-07-25T08:02:20Z</time>
      </trkpt>
      <trkpt lat="44.84837" lon="5.94656">
        <ele>1598.7</ele>
        <time>2015-07-25T08:02:25Z</time>
      </trkpt>
      <trkpt lat="44.84838" lon="5.94658">
        <ele>1600.1</ele>
        <time>2015-07-25T08:02:30Z</time>
      </trkpt>
      <trkpt lat="44.84836" lon="5.94658">
        <ele>1603.4</ele>
        <time>2015-07-25T08:02:35Z</time>
      </trkpt>
      <trkpt lat="44.84835" lon="5.94659">
        <ele>1605.6</ele>
        <time>2015-07-25T08:02:40Z</time>
      </trkpt>
      <trkpt lat="44.84838" lon="5.94662">
        <ele>1607.8</ele>
        <time>2015-07-25T08:02:45Z</time>
      </trkpt>
      <trkpt lat="44.8484" lon="5.94664">
        <ele>1609.1</ele>
        <time>2015-07-25T08:02:50Z</time>
      </trkpt>
      <trkpt lat="44.84837" lon="5.94661">
        <ele>1609.5</ele>
        <time>2015-07-25T08:02:55Z</time>
      </trkpt>
      <trkpt lat="44.84837" lon="5.94661">
        <ele>1609.3</ele>
        <time>2015-07-25T08:03:00Z</time>
      </trkpt>
      <trkpt lat="44.84839" lon="5.94662">
        <ele>1605.9</ele>
        <time>2015-07-25T08:03:05Z</time>
      </trkpt>
      <trkpt lat="44.84839" lon="5.94663">
        <ele>1604.5</ele>
        <time>2015-07-25T08:03:10Z</time>
      </trkpt>
      <trkpt lat="44.84839" lon="5.94663">
        <ele>1602.2</ele>
        <time>2015-07-25T08:03:15Z</time>
      </trkpt>
      <trkpt lat="44.84838" lon="5.94664">
        <ele>1601</ele>
        <time>2015-07-25T08:03:20Z</time>
      </trkpt>
      <trkpt lat="44.84837" lon="5.94661">
        <ele>1598.5</ele>
        <time>2015-07-25T08:03:25Z</time>
      </trkpt>
      <trkpt lat="44.84836" lon="5.94659">
        <ele>1594</ele>
        <time>2015-07-25T08:03:30Z</time>
      </trkpt>
      <trkpt lat="44.84837" lon="5.94659">
        <ele>1595.8</ele>
        <time>2015-07-25T08:03:35Z</time>
      </trkpt>
      <trkpt lat="44.84839" lon="5.9466">
        <ele>1597.6</ele>
        <time>2015-07-25T08:03:40Z</time>
      </trkpt>
      <trkpt lat="44.84839" lon="5.9466">
        <ele>1598</ele>
        <time>2015-07-25T08:03:45Z</time>
      </trkpt>
      <trkpt lat="44.84841" lon="5.94662">
        <ele>1598.8</ele>
        <time>2015-07-25T08:03:50Z</time>
      </trkpt>
      <trkpt lat="44.84845" lon="5.94664">
        <ele>1600.5</ele>
        <time>2015-07-25T08:03:55Z</time>
      </trkpt>
      <trkpt lat="44.84846" lon="5.94664">
        <ele>1601.3</ele>
        <time>2015-07-25T08:04:00Z</time>
      </trkpt>
      <trkpt lat="44.84845" lon="5.94665">
        <ele>1603.2</ele>
        <time>2015-07-25T08:04:05Z</time>
      </trkpt>
      <trkpt lat="44.84844" lon="5.94669">
        <ele>1605.4</ele>
        <time>2015-07-25T08:04:10Z</time>
      </trkpt>
      <trkpt lat="44.84844" lon="5.94664">
        <ele>1604.8</ele>
        <time>2015-07-25T08:04:15Z</time>
      </trkpt>
      <trkpt lat="44.8484" lon="5.94655">
        <ele>1602.8</ele>
        <time>2015-07-25T08:04:20Z</time>
      </trkpt>
      <trkpt lat="44.84835" lon="5.94649">
        <ele>1602</ele>
        <time>2015-07-25T08:04:25Z</time>
      </trkpt>
      <trkpt lat="44.84831" lon="5.94641">
        <ele>1600.7</ele>
        <time>2015-07-25T08:04:30Z</time>
      </trkpt>
      <trkpt lat="44.84828" lon="5.94633">
        <ele>1600.7</ele>
        <time>2015-07-25T08:04:35Z</time>
      </trkpt>
      <trkpt lat="44.84825" lon="5.94624">
        <ele>1601.2</ele>
        <time>2015-07-25T08:04:40Z</time>
      </trkpt>
      <trkpt lat="44.84823" lon="5.94616">
        <ele>1599.5</ele>
        <time>2015-07-25T08:04:45Z</time>
      </trkpt>
      <trkpt lat="44.84822" lon="5.94609">
        <ele>1597.6</ele>
        <time>2015-07-25T08:04:50Z</time>
      </trkpt>
      <trkpt lat="44.84823" lon="5.94601">
        <ele>1595.1</ele>
        <time>2015-07-25T08:04:55Z</time>
      </trkpt>
      <trkpt lat="44.8483" lon="5.946">
        <ele>1592</ele>
        <time>2015-07-25T08:05:00Z</time>
      </trkpt>
      <trkpt lat="44.84835" lon="5.94601">
        <ele>1589.7</ele>
        <time>2015-07-25T08:05:05Z</time>
      </trkpt>
      <trkpt lat="44.84838" lon="5.946">
        <ele>1589</ele>
        <time>2015-07-25T08:05:10Z</time>
      </trkpt>
      <trkpt lat="44.84845" lon="5.946">
        <ele>1588.2</ele>
        <time>2015-07-25T08:05:15Z</time>
      </trkpt>
      <trkpt lat="44.84846" lon="5.94601">
        <ele>1588.9</ele>
        <time>2015-07-25T08:05:20Z</time>
      </trkpt>
      <trkpt lat="44.84847" lon="5.94597">
        <ele>1592.8</ele>
        <time>2015-07-25T08:05:25Z</time>
      </trkpt>
      <trkpt lat="44.84853" lon="5.94588">
        <ele>1590.2</ele>
        <time>2015-07-25T08:05:30Z</time>
      </trkpt>
      <trkpt lat="44.84853" lon="5.94576">
        <ele>1589</ele>
        <time>2015-07-25T08:05:35Z</time>
      </trkpt>
      <trkpt lat="44.84854" lon="5.94574">
        <ele>1583.6</ele>
        <time>2015-07-25T08:05:40Z</time>
      </trkpt>
      <trkpt lat="44.84855" lon="5.94567">
        <ele>1579.9</ele>
        <time>2015-07-25T08:05:45Z</time>
      </trkpt>
      <trkpt lat="44.8485" lon="5.94555">
        <ele>1579.4</ele>
        <time>2015-07-25T08:05:50Z</time>
      </trkpt>
      <trkpt lat="44.84848" lon="5.9455">
        <ele>1574.6</ele>
        <time>2015-07-25T08:05:55Z</time>
      </trkpt>
      <trkpt lat="44.84847" lon="5.94541">
        <ele>1576.1</ele>
        <time>2015-07-25T08:06:00Z</time>
      </trkpt>
      <trkpt lat="44.84845" lon="5.94531">
        <ele>1577.4</ele>
        <time>2015-07-25T08:06:05Z</time>
      </trkpt>
      <trkpt lat="44.84847" lon="5.94526">
        <ele>1579.4</ele>
        <time>2015-07-25T08:06:10Z</time>
      </trkpt>
      <trkpt lat="44.84844" lon="5.94517">
        <ele>1579.8</ele>
        <time>2015-07-25T08:06:15Z</time>
      </trkpt>
      <trkpt lat="44.8484" lon="5.94504">
        <ele>1581.7</ele>
        <time>2015-07-25T08:06:20Z</time>
      </trkpt>
      <trkpt lat="44.84837" lon="5.94498">
        <ele>1581.7</ele>
        <time>2015-07-25T08:06:25Z</time>
      </trkpt>
      <trkpt lat="44.84837" lon="5.94499">
        <ele>1580.4</ele>
        <time>2015-07-25T08:06:30Z</time>
      </trkpt>
      <trkpt lat="44.84837" lon="5.94502">
        <ele>1577.9</ele>
        <time>2015-07-25T08:06:35Z</time>
      </trkpt>
      <trkpt lat="44.84837" lon="5.94503">
        <ele>1576.5</ele>
        <time>2015-07-25T08:06:40Z</time>
      </trkpt>
      <trkpt lat="44.84833" lon="5.94499">
        <ele>1573.6</ele>
        <time>2015-07-25T08:06:45Z</time>
      </trkpt>
      <trkpt lat="44.84832" lon="5.94488">
        <ele>1576.6</ele>
        <time>2015-07-25T08:06:50Z</time>
      </trkpt>
      <trkpt lat="44.84829" lon="5.94482">
        <ele>1574.8</ele>
        <time>2015-07-25T08:06:55Z</time>
      </trkpt>
      <trkpt lat="44.84828" lon="5.94476">
        <ele>1574.1</ele>
        <time>2015-07-25T08:07:00Z</time>
      </trkpt>
      <trkpt lat="44.84823" lon="5.94471">
        <ele>1570.6</ele>
        <time>2015-07-25T08:07:05Z</time>
      </trkpt>
      <trkpt lat="44.84818" lon="5.94469">
        <ele>1564.4</ele>
        <time>2015-07-25T08:07:10Z</time>
      </trkpt>
      <trkpt lat="44.84815" lon="5.94462">
        <ele>1562.4</ele>
        <time>2015-07-25T08:07:15Z</time>
      </trkpt>
      <trkpt lat="44.84815" lon="5.94455">
        <ele>1561.3</ele>
        <time>2015-07-25T08:07:20Z</time>
      </trkpt>
      <trkpt lat="44.84815" lon="5.94446">
        <ele>1561.9</ele>
        <time>2015-07-25T08:07:25Z</time>
      </trkpt>
      <trkpt lat="44.84813" lon="5.9444">
        <ele>1560.1</ele>
        <time>2015-07-25T08:07:30Z</time>
      </trkpt>
      <trkpt lat="44.84812" lon="5.94429">
        <ele>1561.5</ele>
        <time>2015-07-25T08:07:35Z</time>
      </trkpt>
      <trkpt lat="44.8481" lon="5.9442">
        <ele>1561</ele>
        <time>2015-07-25T08:07:40Z</time>
      </trkpt>
      <trkpt lat="44.84808" lon="5.94412">
        <ele>1560.8</ele>
        <time>2015-07-25T08:07:45Z</time>
      </trkpt>
      <trkpt lat="44.84806" lon="5.94403">
        <ele>1559.7</ele>
        <time>2015-07-25T08:07:50Z</time>
      </trkpt>
      <trkpt lat="44.84803" lon="5.94393">
        <ele>1560.9</ele>
        <time>2015-07-25T08:07:55Z</time>
      </trkpt>
      <trkpt lat="44.84801" lon="5.94385">
        <ele>1559.8</ele>
        <time>2015-07-25T08:08:00Z</time>
      </trkpt>
      <trkpt lat="44.84798" lon="5.94377">
        <ele>1557.9</ele>
        <time>2015-07-25T08:08:05Z</time>
      </trkpt>
      <trkpt lat="44.84796" lon="5.94368">
        <ele>1556.9</ele>
        <time>2015-07-25T08:08:10Z</time>
      </trkpt>
      <trkpt lat="44.84792" lon="5.94361">
        <ele>1555.6</ele>
        <time>2015-07-25T08:08:15Z</time>
      </trkpt>
      <trkpt lat="44.84789" lon="5.94354">
        <ele>1555.2</ele>
        <time>2015-07-25T08:08:20Z</time>
      </trkpt>
      <trkpt lat="44.84786" lon="5.94347">
        <ele>1554.1</ele>
        <time>2015-07-25T08:08:25Z</time>
      </trkpt>
      <trkpt lat="44.84782" lon="5.9434">
        <ele>1553.3</ele>
        <time>2015-07-25T08:08:30Z</time>
      </trkpt>
      <trkpt lat="44.84779" lon="5.94334">
        <ele>1552.2</ele>
        <time>2015-07-25T08:08:35Z</time>
      </trkpt>
      <trkpt lat="44.84775" lon="5.94328">
        <ele>1552.1</ele>
        <time>2015-07-25T08:08:40Z</time>
      </trkpt>
      <trkpt lat="44.84769" lon="5.94326">
        <ele>1547.7</ele>
        <time>2015-07-25T08:08:45Z</time>
      </trkpt>
      <trkpt lat="44.84764" lon="5.94321">
        <ele>1545.4</ele>
        <time>2015-07-25T08:08:50Z</time>
      </trkpt>
      <trkpt lat="44.84759" lon="5.94319">
        <ele>1542.1</ele>
        <time>2015-07-25T08:08:55Z</time>
      </trkpt>
      <trkpt lat="44.84754" lon="5.94314">
        <ele>1540.4</ele>
        <time>2015-07-25T08:09:00Z</time>
      </trkpt>
      <trkpt lat="44.8475" lon="5.94306">
        <ele>1542.1</ele>
        <time>2015-07-25T08:09:05Z</time>
      </trkpt>
      <trkpt lat="44.84746" lon="5.94299">
        <ele>1541.4</ele>
        <time>2015-07-25T08:09:10Z</time>
      </trkpt>
      <trkpt lat="44.84743" lon="5.94291">
        <ele>1541</ele>
        <time>2015-07-25T08:09:15Z</time>
      </trkpt>
      <trkpt lat="44.84737" lon="5.94288">
        <ele>1538.3</ele>
        <time>2015-07-25T08:09:20Z</time>
      </trkpt>
      <trkpt lat="44.84731" lon="5.94287">
        <ele>1536.2</ele>
        <time>2015-07-25T08:09:25Z</time>
      </trkpt>
      <trkpt lat="44.84727" lon="5.94282">
        <ele>1534.5</ele>
        <time>2015-07-25T08:09:30Z</time>
      </trkpt>
      <trkpt lat="44.84723" lon="5.94276">
        <ele>1536.1</ele>
        <time>2015-07-25T08:09:35Z</time>
      </trkpt>
      <trkpt lat="44.84718" lon="5.94272">
        <ele>1535.9</ele>
        <time>2015-07-25T08:09:40Z</time>
      </trkpt>
      <trkpt lat="44.84713" lon="5.94269">
        <ele>1533.7</ele>
        <time>2015-07-25T08:09:45Z</time>
      </trkpt>
      <trkpt lat="44.84708" lon="5.94264">
        <ele>1532.5</ele>
        <time>2015-07-25T08:09:50Z</time>
      </trkpt>
      <trkpt lat="44.84704" lon="5.9426">
        <ele>1531.9</ele>
        <time>2015-07-25T08:09:55Z</time>
      </trkpt>
      <trkpt lat="44.84698" lon="5.94256">
        <ele>1531.9</ele>
        <time>2015-07-25T08:10:00Z</time>
      </trkpt>
      <trkpt lat="44.84693" lon="5.94251">
        <ele>1532</ele>
        <time>2015-07-25T08:10:05Z</time>
      </trkpt>
      <trkpt lat="44.84689" lon="5.94247">
        <ele>1531.3</ele>
        <time>2015-07-25T08:10:10Z</time>
      </trkpt>
      <trkpt lat="44.84684" lon="5.94242">
        <ele>1530.1</ele>
        <time>2015-07-25T08:10:15Z</time>
      </trkpt>
      <trkpt lat="44.84679" lon="5.94239">
        <ele>1530</ele>
        <time>2015-07-25T08:10:20Z</time>
      </trkpt>
      <trkpt lat="44.84674" lon="5.94239">
        <ele>1527.2</ele>
        <time>2015-07-25T08:10:25Z</time>
      </trkpt>
      <trkpt lat="44.84673" lon="5.94233">
        <ele>1526.8</ele>
        <time>2015-07-25T08:10:30Z</time>
      </trkpt>
      <trkpt lat="44.8467" lon="5.94226">
        <ele>1526.4</ele>
        <time>2015-07-25T08:10:35Z</time>
      </trkpt>
      <trkpt lat="44.84668" lon="5.94221">
        <ele>1524.2</ele>
        <time>2015-07-25T08:10:40Z</time>
      </trkpt>
      <trkpt lat="44.84664" lon="5.94216">
        <ele>1521.5</ele>
        <time>2015-07-25T08:10:45Z</time>
      </trkpt>
      <trkpt lat="44.8466" lon="5.9421">
        <ele>1518.5</ele>
        <time>2015-07-25T08:10:50Z</time>
      </trkpt>
      <trkpt lat="44.84657" lon="5.94203">
        <ele>1517</ele>
        <time>2015-07-25T08:10:55Z</time>
      </trkpt>
      <trkpt lat="44.84653" lon="5.94196">
        <ele>1515.9</ele>
        <time>2015-07-25T08:11:00Z</time>
      </trkpt>
      <trkpt lat="44.84649" lon="5.9419">
        <ele>1514.3</ele>
        <time>2015-07-25T08:11:05Z</time>
      </trkpt>
      <trkpt lat="44.84645" lon="5.94185">
        <ele>1511.9</ele>
        <time>2015-07-25T08:11:10Z</time>
      </trkpt>
      <trkpt lat="44.84642" lon="5.9418">
        <ele>1509.8</ele>
        <time>2015-07-25T08:11:15Z</time>
      </trkpt>
      <trkpt lat="44.84638" lon="5.94175">
        <ele>1508.1</ele>
        <time>2015-07-25T08:11:20Z</time>
      </trkpt>
      <trkpt lat="44.84634" lon="5.94169">
        <ele>1506.1</ele>
        <time>2015-07-25T08:11:25Z</time>
      </trkpt>
      <trkpt lat="44.84631" lon="5.94162">
        <ele>1506.2</ele>
        <time>2015-07-25T08:11:30Z</time>
      </trkpt>
      <trkpt lat="44.84626" lon="5.94157">
        <ele>1505.6</ele>
        <time>2015-07-25T08:11:35Z</time>
      </trkpt>
      <trkpt lat="44.84622" lon="5.94152">
        <ele>1503.7</ele>
        <time>2015-07-25T08:11:40Z</time>
      </trkpt>
      <trkpt lat="44.84617" lon="5.94149">
        <ele>1501.3</ele>
        <time>2015-07-25T08:11:45Z</time>
      </trkpt>
      <trkpt lat="44.84613" lon="5.94145">
        <ele>1499.9</ele>
        <time>2015-07-25T08:11:50Z</time>
      </trkpt>
      <trkpt lat="44.84609" lon="5.94136">
        <ele>1502.5</ele>
        <time>2015-07-25T08:11:55Z</time>
      </trkpt>
      <trkpt lat="44.84606" lon="5.94129">
        <ele>1505.3</ele>
        <time>2015-07-25T08:12:00Z</time>
      </trkpt>
      <trkpt lat="44.846" lon="5.94128">
        <ele>1502.7</ele>
        <time>2015-07-25T08:12:05Z</time>
      </trkpt>
      <trkpt lat="44.84597" lon="5.94121">
        <ele>1503.8</ele>
        <time>2015-07-25T08:12:10Z</time>
      </trkpt>
      <trkpt lat="44.84595" lon="5.94115">
        <ele>1504.6</ele>
        <time>2015-07-25T08:12:15Z</time>
      </trkpt>
      <trkpt lat="44.84593" lon="5.94111">
        <ele>1505.4</ele>
        <time>2015-07-25T08:12:20Z</time>
      </trkpt>
      <trkpt lat="44.84593" lon="5.94103">
        <ele>1508.6</ele>
        <time>2015-07-25T08:12:25Z</time>
      </trkpt>
      <trkpt lat="44.84589" lon="5.94101">
        <ele>1507.4</ele>
        <time>2015-07-25T08:12:30Z</time>
      </trkpt>
      <trkpt lat="44.84585" lon="5.94097">
        <ele>1505.6</ele>
        <time>2015-07-25T08:12:35Z</time>
      </trkpt>
      <trkpt lat="44.84583" lon="5.94091">
        <ele>1504.9</ele>
        <time>2015-07-25T08:12:40Z</time>
      </trkpt>
      <trkpt lat="44.84579" lon="5.94088">
        <ele>1500.9</ele>
        <time>2015-07-25T08:12:45Z</time>
      </trkpt>
      <trkpt lat="44.84576" lon="5.94084">
        <ele>1499.2</ele>
        <time>2015-07-25T08:12:50Z</time>
      </trkpt>
      <trkpt lat="44.84571" lon="5.9408">
        <ele>1498.2</ele>
        <time>2015-07-25T08:12:55Z</time>
      </trkpt>
      <trkpt lat="44.84567" lon="5.94075">
        <ele>1496.8</ele>
        <time>2015-07-25T08:13:00Z</time>
      </trkpt>
      <trkpt lat="44.84563" lon="5.94072">
        <ele>1494.3</ele>
        <time>2015-07-25T08:13:05Z</time>
      </trkpt>
      <trkpt lat="44.8456" lon="5.94068">
        <ele>1489.5</ele>
        <time>2015-07-25T08:13:10Z</time>
      </trkpt>
      <trkpt lat="44.84558" lon="5.94063">
        <ele>1488.1</ele>
        <time>2015-07-25T08:13:15Z</time>
      </trkpt>
      <trkpt lat="44.84557" lon="5.94058">
        <ele>1488.4</ele>
        <time>2015-07-25T08:13:20Z</time>
      </trkpt>
      <trkpt lat="44.84554" lon="5.94052">
        <ele>1487.7</ele>
        <time>2015-07-25T08:13:25Z</time>
      </trkpt>
      <trkpt lat="44.84552" lon="5.94047">
        <ele>1486.6</ele>
        <time>2015-07-25T08:13:30Z</time>
      </trkpt>
      <trkpt lat="44.84549" lon="5.94043">
        <ele>1484.6</ele>
        <time>2015-07-25T08:13:35Z</time>
      </trkpt>
      <trkpt lat="44.84547" lon="5.9404">
        <ele>1483.5</ele>
        <time>2015-07-25T08:13:40Z</time>
      </trkpt>
      <trkpt lat="44.84543" lon="5.94036">
        <ele>1481.1</ele>
        <time>2015-07-25T08:13:45Z</time>
      </trkpt>
      <trkpt lat="44.84538" lon="5.94031">
        <ele>1478.8</ele>
        <time>2015-07-25T08:13:50Z</time>
      </trkpt>
      <trkpt lat="44.84535" lon="5.94028">
        <ele>1476.8</ele>
        <time>2015-07-25T08:13:55Z</time>
      </trkpt>
      <trkpt lat="44.84531" lon="5.94026">
        <ele>1473.9</ele>
        <time>2015-07-25T08:14:00Z</time>
      </trkpt>
      <trkpt lat="44.84527" lon="5.94023">
        <ele>1470.1</ele>
        <time>2015-07-25T08:14:05Z</time>
      </trkpt>
      <trkpt lat="44.84522" lon="5.9402">
        <ele>1468.5</ele>
        <time>2015-07-25T08:14:10Z</time>
      </trkpt>
      <trkpt lat="44.84518" lon="5.94017">
        <ele>1466.6</ele>
        <time>2015-07-25T08:14:15Z</time>
      </trkpt>
      <trkpt lat="44.84514" lon="5.94013">
        <ele>1464.6</ele>
        <time>2015-07-25T08:14:20Z</time>
      </trkpt>
      <trkpt lat="44.84511" lon="5.94008">
        <ele>1464.5</ele>
        <time>2015-07-25T08:14:25Z</time>
      </trkpt>
      <trkpt lat="44.84507" lon="5.94005">
        <ele>1462.3</ele>
        <time>2015-07-25T08:14:30Z</time>
      </trkpt>
      <trkpt lat="44.84501" lon="5.94003">
        <ele>1460</ele>
        <time>2015-07-25T08:14:35Z</time>
      </trkpt>
      <trkpt lat="44.84498" lon="5.94003">
        <ele>1457.7</ele>
        <time>2015-07-25T08:14:40Z</time>
      </trkpt>
      <trkpt lat="44.84497" lon="5.94004">
        <ele>1456.3</ele>
        <time>2015-07-25T08:14:45Z</time>
      </trkpt>
      <trkpt lat="44.84497" lon="5.94004">
        <ele>1455.3</ele>
        <time>2015-07-25T08:14:50Z</time>
      </trkpt>
      <trkpt lat="44.84495" lon="5.94004">
        <ele>1454.1</ele>
        <time>2015-07-25T08:14:55Z</time>
      </trkpt>
      <trkpt lat="44.84491" lon="5.94003">
        <ele>1452.3</ele>
        <time>2015-07-25T08:15:00Z</time>
      </trkpt>
      <trkpt lat="44.8449" lon="5.93999">
        <ele>1450.2</ele>
        <time>2015-07-25T08:15:05Z</time>
      </trkpt>
      <trkpt lat="44.84494" lon="5.93996">
        <ele>1448.2</ele>
        <time>2015-07-25T08:15:10Z</time>
      </trkpt>
      <trkpt lat="44.84497" lon="5.93991">
        <ele>1450.3</ele>
        <time>2015-07-25T08:15:15Z</time>
      </trkpt>
      <trkpt lat="44.84497" lon="5.93991">
        <ele>1450.2</ele>
        <time>2015-07-25T08:15:20Z</time>
      </trkpt>
      <trkpt lat="44.84498" lon="5.9399">
        <ele>1450.7</ele>
        <time>2015-07-25T08:15:25Z</time>
      </trkpt>
      <trkpt lat="44.84499" lon="5.93989">
        <ele>1452.3</ele>
        <time>2015-07-25T08:15:30Z</time>
      </trkpt>
      <trkpt lat="44.84499" lon="5.93988">
        <ele>1452</ele>
        <time>2015-07-25T08:15:35Z</time>
      </trkpt>
      <trkpt lat="44.84502" lon="5.93989">
        <ele>1449.3</ele>
        <time>2015-07-25T08:15:40Z</time>
      </trkpt>
      <trkpt lat="44.84507" lon="5.93989">
        <ele>1446.2</ele>
        <time>2015-07-25T08:15:45Z</time>
      </trkpt>
      <trkpt lat="44.84512" lon="5.93988">
        <ele>1442.4</ele>
        <time>2015-07-25T08:15:50Z</time>
      </trkpt>
      <trkpt lat="44.84518" lon="5.93986">
        <ele>1440.4</ele>
        <time>2015-07-25T08:15:55Z</time>
      </trkpt>
      <trkpt lat="44.84521" lon="5.93981">
        <ele>1440.5</ele>
        <time>2015-07-25T08:16:00Z</time>
      </trkpt>
      <trkpt lat="44.84526" lon="5.9398">
        <ele>1438</ele>
        <time>2015-07-25T08:16:05Z</time>
      </trkpt>
      <trkpt lat="44.84531" lon="5.93977">
        <ele>1435.3</ele>
        <time>2015-07-25T08:16:10Z</time>
      </trkpt>
      <trkpt lat="44.84535" lon="5.93973">
        <ele>1434.1</ele>
        <time>2015-07-25T08:16:15Z</time>
      </trkpt>
      <trkpt lat="44.84539" lon="5.93969">
        <ele>1433.5</ele>
        <time>2015-07-25T08:16:20Z</time>
      </trkpt>
      <trkpt lat="44.84542" lon="5.93966">
        <ele>1431.7</ele>
        <time>2015-07-25T08:16:25Z</time>
      </trkpt>
      <trkpt lat="44.84549" lon="5.93964">
        <ele>1432</ele>
        <time>2015-07-25T08:16:30Z</time>
      </trkpt>
      <trkpt lat="44.84554" lon="5.93964">
        <ele>1429.4</ele>
        <time>2015-07-25T08:16:35Z</time>
      </trkpt>
      <trkpt lat="44.84559" lon="5.93964">
        <ele>1427.4</ele>
        <time>2015-07-25T08:16:40Z</time>
      </trkpt>
      <trkpt lat="44.84564" lon="5.93963">
        <ele>1424.9</ele>
        <time>2015-07-25T08:16:45Z</time>
      </trkpt>
      <trkpt lat="44.84569" lon="5.93961">
        <ele>1423.8</ele>
        <time>2015-07-25T08:16:50Z</time>
      </trkpt>
      <trkpt lat="44.84574" lon="5.93961">
        <ele>1421.4</ele>
        <time>2015-07-25T08:16:55Z</time>
      </trkpt>
      <trkpt lat="44.84579" lon="5.93956">
        <ele>1421.8</ele>
        <time>2015-07-25T08:17:02Z</time>
      </trkpt>
      <trkpt lat="44.84584" lon="5.93954">
        <ele>1423.5</ele>
        <time>2015-07-25T08:17:07Z</time>
      </trkpt>
      <trkpt lat="44.84592" lon="5.93955">
        <ele>1420.1</ele>
        <time>2015-07-25T08:17:12Z</time>
      </trkpt>
      <trkpt lat="44.84597" lon="5.93953">
        <ele>1417.7</ele>
        <time>2015-07-25T08:17:17Z</time>
      </trkpt>
      <trkpt lat="44.84602" lon="5.93952">
        <ele>1416.5</ele>
        <time>2015-07-25T08:17:22Z</time>
      </trkpt>
      <trkpt lat="44.84609" lon="5.93951">
        <ele>1416.5</ele>
        <time>2015-07-25T08:17:27Z</time>
      </trkpt>
      <trkpt lat="44.84611" lon="5.9395">
        <ele>1416.8</ele>
        <time>2015-07-25T08:17:32Z</time>
      </trkpt>
      <trkpt lat="44.84611" lon="5.93944">
        <ele>1417.2</ele>
        <time>2015-07-25T08:17:37Z</time>
      </trkpt>
      <trkpt lat="44.84606" lon="5.93938">
        <ele>1416.4</ele>
        <time>2015-07-25T08:17:42Z</time>
      </trkpt>
      <trkpt lat="44.84602" lon="5.93931">
        <ele>1415.1</ele>
        <time>2015-07-25T08:17:47Z</time>
      </trkpt>
      <trkpt lat="44.84598" lon="5.93925">
        <ele>1414.2</ele>
        <time>2015-07-25T08:17:52Z</time>
      </trkpt>
      <trkpt lat="44.84597" lon="5.93925">
        <ele>1413.3</ele>
        <time>2015-07-25T08:17:57Z</time>
      </trkpt>
      <trkpt lat="44.84596" lon="5.93923">
        <ele>1411.9</ele>
        <time>2015-07-25T08:18:02Z</time>
      </trkpt>
      <trkpt lat="44.84592" lon="5.93919">
        <ele>1410.9</ele>
        <time>2015-07-25T08:18:07Z</time>
      </trkpt>
      <trkpt lat="44.84587" lon="5.93915">
        <ele>1409.4</ele>
        <time>2015-07-25T08:18:12Z</time>
      </trkpt>
      <trkpt lat="44.84583" lon="5.93911">
        <ele>1407.9</ele>
        <time>2015-07-25T08:18:17Z</time>
      </trkpt>
      <trkpt lat="44.84578" lon="5.93906">
        <ele>1406.9</ele>
        <time>2015-07-25T08:18:22Z</time>
      </trkpt>
      <trkpt lat="44.84573" lon="5.93902">
        <ele>1405.4</ele>
        <time>2015-07-25T08:18:27Z</time>
      </trkpt>
      <trkpt lat="44.84568" lon="5.93898">
        <ele>1404</ele>
        <time>2015-07-25T08:18:32Z</time>
      </trkpt>
      <trkpt lat="44.84562" lon="5.93894">
        <ele>1402.6</ele>
        <time>2015-07-25T08:18:37Z</time>
      </trkpt>
      <trkpt lat="44.84557" lon="5.93889">
        <ele>1401</ele>
        <time>2015-07-25T08:18:42Z</time>
      </trkpt>
      <trkpt lat="44.84552" lon="5.93885">
        <ele>1399.4</ele>
        <time>2015-07-25T08:18:47Z</time>
      </trkpt>
      <trkpt lat="44.84548" lon="5.9388">
        <ele>1398.3</ele>
        <time>2015-07-25T08:18:52Z</time>
      </trkpt>
      <trkpt lat="44.84543" lon="5.93876">
        <ele>1396.7</ele>
        <time>2015-07-25T08:18:57Z</time>
      </trkpt>
      <trkpt lat="44.84538" lon="5.93873">
        <ele>1395.1</ele>
        <time>2015-07-25T08:19:02Z</time>
      </trkpt>
      <trkpt lat="44.84533" lon="5.9387">
        <ele>1393.9</ele>
        <time>2015-07-25T08:19:07Z</time>
      </trkpt>
      <trkpt lat="44.84528" lon="5.93865">
        <ele>1392.9</ele>
        <time>2015-07-25T08:19:12Z</time>
      </trkpt>
      <trkpt lat="44.84522" lon="5.93861">
        <ele>1391.5</ele>
        <time>2015-07-25T08:19:17Z</time>
      </trkpt>
      <trkpt lat="44.84518" lon="5.93856">
        <ele>1389.9</ele>
        <time>2015-07-25T08:19:22Z</time>
      </trkpt>
      <trkpt lat="44.84514" lon="5.93853">
        <ele>1388.7</ele>
        <time>2015-07-25T08:19:27Z</time>
      </trkpt>
      <trkpt lat="44.84509" lon="5.93847">
        <ele>1386.6</ele>
        <time>2015-07-25T08:19:32Z</time>
      </trkpt>
      <trkpt lat="44.84505" lon="5.93842">
        <ele>1384.7</ele>
        <time>2015-07-25T08:19:37Z</time>
      </trkpt>
      <trkpt lat="44.84499" lon="5.93837">
        <ele>1383.2</ele>
        <time>2015-07-25T08:19:42Z</time>
      </trkpt>
      <trkpt lat="44.84496" lon="5.93831">
        <ele>1382.1</ele>
        <time>2015-07-25T08:19:47Z</time>
      </trkpt>
      <trkpt lat="44.84501" lon="5.93829">
        <ele>1378.4</ele>
        <time>2015-07-25T08:19:52Z</time>
      </trkpt>
      <trkpt lat="44.84506" lon="5.93828">
        <ele>1375.3</ele>
        <time>2015-07-25T08:19:57Z</time>
      </trkpt>
      <trkpt lat="44.84513" lon="5.93827">
        <ele>1372.7</ele>
        <time>2015-07-25T08:20:02Z</time>
      </trkpt>
      <trkpt lat="44.84511" lon="5.93822">
        <ele>1371.1</ele>
        <time>2015-07-25T08:20:07Z</time>
      </trkpt>
      <trkpt lat="44.84507" lon="5.93817">
        <ele>1369.4</ele>
        <time>2015-07-25T08:20:12Z</time>
      </trkpt>
      <trkpt lat="44.84503" lon="5.93811">
        <ele>1367.4</ele>
        <time>2015-07-25T08:20:17Z</time>
      </trkpt>
      <trkpt lat="44.84498" lon="5.93804">
        <ele>1367.3</ele>
        <time>2015-07-25T08:20:22Z</time>
      </trkpt>
      <trkpt lat="44.84493" lon="5.93799">
        <ele>1365.7</ele>
        <time>2015-07-25T08:20:27Z</time>
      </trkpt>
      <trkpt lat="44.84488" lon="5.93793">
        <ele>1365</ele>
        <time>2015-07-25T08:20:32Z</time>
      </trkpt>
      <trkpt lat="44.84482" lon="5.9379">
        <ele>1364</ele>
        <time>2015-07-25T08:20:37Z</time>
      </trkpt>
      <trkpt lat="44.84477" lon="5.93786">
        <ele>1362.8</ele>
        <time>2015-07-25T08:20:42Z</time>
      </trkpt>
      <trkpt lat="44.84471" lon="5.93782">
        <ele>1362.1</ele>
        <time>2015-07-25T08:20:47Z</time>
      </trkpt>
      <trkpt lat="44.84465" lon="5.93779">
        <ele>1360.9</ele>
        <time>2015-07-25T08:20:52Z</time>
      </trkpt>
      <trkpt lat="44.8446" lon="5.93776">
        <ele>1359.6</ele>
        <time>2015-07-25T08:20:57Z</time>
      </trkpt>
      <trkpt lat="44.84455" lon="5.93772">
        <ele>1359</ele>
        <time>2015-07-25T08:21:02Z</time>
      </trkpt>
      <trkpt lat="44.84449" lon="5.93768">
        <ele>1357.8</ele>
        <time>2015-07-25T08:21:07Z</time>
      </trkpt>
      <trkpt lat="44.84445" lon="5.93764">
        <ele>1356.7</ele>
        <time>2015-07-25T08:21:12Z</time>
      </trkpt>
      <trkpt lat="44.84439" lon="5.9376">
        <ele>1355.7</ele>
        <time>2015-07-25T08:21:17Z</time>
      </trkpt>
      <trkpt lat="44.84433" lon="5.93754">
        <ele>1356.5</ele>
        <time>2015-07-25T08:21:22Z</time>
      </trkpt>
      <trkpt lat="44.84428" lon="5.93749">
        <ele>1355.5</ele>
        <time>2015-07-25T08:21:27Z</time>
      </trkpt>
      <trkpt lat="44.84423" lon="5.93746">
        <ele>1354.9</ele>
        <time>2015-07-25T08:21:32Z</time>
      </trkpt>
      <trkpt lat="44.8442" lon="5.93741">
        <ele>1351.7</ele>
        <time>2015-07-25T08:21:37Z</time>
      </trkpt>
      <trkpt lat="44.84419" lon="5.93736">
        <ele>1348.5</ele>
        <time>2015-07-25T08:21:42Z</time>
      </trkpt>
      <trkpt lat="44.84415" lon="5.93731">
        <ele>1344.8</ele>
        <time>2015-07-25T08:21:47Z</time>
      </trkpt>
      <trkpt lat="44.8441" lon="5.93725">
        <ele>1343</ele>
        <time>2015-07-25T08:21:52Z</time>
      </trkpt>
      <trkpt lat="44.84408" lon="5.93719">
        <ele>1341.7</ele>
        <time>2015-07-25T08:21:57Z</time>
      </trkpt>
      <trkpt lat="44.84405" lon="5.93714">
        <ele>1340.5</ele>
        <time>2015-07-25T08:22:02Z</time>
      </trkpt>
      <trkpt lat="44.84401" lon="5.93705">
        <ele>1338.5</ele>
        <time>2015-07-25T08:22:07Z</time>
      </trkpt>
      <trkpt lat="44.84397" lon="5.93697">
        <ele>1336.6</ele>
        <time>2015-07-25T08:22:12Z</time>
      </trkpt>
      <trkpt lat="44.84393" lon="5.9369">
        <ele>1335.3</ele>
        <time>2015-07-25T08:22:17Z</time>
      </trkpt>
      <trkpt lat="44.8439" lon="5.93683">
        <ele>1334.3</ele>
        <time>2015-07-25T08:22:22Z</time>
      </trkpt>
      <trkpt lat="44.84387" lon="5.93677">
        <ele>1332.4</ele>
        <time>2015-07-25T08:22:27Z</time>
      </trkpt>
      <trkpt lat="44.84383" lon="5.93671">
        <ele>1330.4</ele>
        <time>2015-07-25T08:22:32Z</time>
      </trkpt>
      <trkpt lat="44.84379" lon="5.93666">
        <ele>1328.5</ele>
        <time>2015-07-25T08:22:37Z</time>
      </trkpt>
      <trkpt lat="44.84374" lon="5.93662">
        <ele>1326.4</ele>
        <time>2015-07-25T08:22:42Z</time>
      </trkpt>
      <trkpt lat="44.84369" lon="5.93658">
        <ele>1325.1</ele>
        <time>2015-07-25T08:22:47Z</time>
      </trkpt>
      <trkpt lat="44.84366" lon="5.93651">
        <ele>1323.9</ele>
        <time>2015-07-25T08:22:52Z</time>
      </trkpt>
      <trkpt lat="44.84364" lon="5.93645">
        <ele>1321.7</ele>
        <time>2015-07-25T08:22:57Z</time>
      </trkpt>
      <trkpt lat="44.8436" lon="5.93642">
        <ele>1319.7</ele>
        <time>2015-07-25T08:23:02Z</time>
      </trkpt>
      <trkpt lat="44.84356" lon="5.93634">
        <ele>1318.4</ele>
        <time>2015-07-25T08:23:07Z</time>
      </trkpt>
      <trkpt lat="44.84353" lon="5.93625">
        <ele>1318.2</ele>
        <time>2015-07-25T08:23:12Z</time>
      </trkpt>
      <trkpt lat="44.84351" lon="5.93616">
        <ele>1316.9</ele>
        <time>2015-07-25T08:23:17Z</time>
      </trkpt>
      <trkpt lat="44.84348" lon="5.93607">
        <ele>1315.1</ele>
        <time>2015-07-25T08:23:22Z</time>
      </trkpt>
      <trkpt lat="44.84348" lon="5.93598">
        <ele>1313.6</ele>
        <time>2015-07-25T08:23:27Z</time>
      </trkpt>
      <trkpt lat="44.8435" lon="5.9359">
        <ele>1312.5</ele>
        <time>2015-07-25T08:23:32Z</time>
      </trkpt>
      <trkpt lat="44.8435" lon="5.9358">
        <ele>1311.9</ele>
        <time>2015-07-25T08:23:37Z</time>
      </trkpt>
      <trkpt lat="44.84351" lon="5.9357">
        <ele>1312.5</ele>
        <time>2015-07-25T08:23:42Z</time>
      </trkpt>
      <trkpt lat="44.8435" lon="5.93558">
        <ele>1316.1</ele>
        <time>2015-07-25T08:23:47Z</time>
      </trkpt>
      <trkpt lat="44.84351" lon="5.93549">
        <ele>1315.2</ele>
        <time>2015-07-25T08:23:52Z</time>
      </trkpt>
      <trkpt lat="44.84349" lon="5.9354">
        <ele>1314.2</ele>
        <time>2015-07-25T08:23:57Z</time>
      </trkpt>
      <trkpt lat="44.84345" lon="5.93533">
        <ele>1314.5</ele>
        <time>2015-07-25T08:24:02Z</time>
      </trkpt>
      <trkpt lat="44.84345" lon="5.93534">
        <ele>1313.8</ele>
        <time>2015-07-25T08:24:07Z</time>
      </trkpt>
      <trkpt lat="44.84345" lon="5.93535">
        <ele>1313.7</ele>
        <time>2015-07-25T08:24:12Z</time>
      </trkpt>
      <trkpt lat="44.84345" lon="5.93535">
        <ele>1312.9</ele>
        <time>2015-07-25T08:24:17Z</time>
      </trkpt>
      <trkpt lat="44.84345" lon="5.93535">
        <ele>1311.4</ele>
        <time>2015-07-25T08:24:22Z</time>
      </trkpt>
      <trkpt lat="44.84345" lon="5.93536">
        <ele>1311.1</ele>
        <time>2015-07-25T08:24:27Z</time>
      </trkpt>
      <trkpt lat="44.84345" lon="5.93535">
        <ele>1311</ele>
        <time>2015-07-25T08:24:32Z</time>
      </trkpt>
      <trkpt lat="44.84344" lon="5.93533">
        <ele>1312.1</ele>
        <time>2015-07-25T08:24:37Z</time>
      </trkpt>
      <trkpt lat="44.84344" lon="5.93532">
        <ele>1314.1</ele>
        <time>2015-07-25T08:24:42Z</time>
      </trkpt>
      <trkpt lat="44.84351" lon="5.93532">
        <ele>1313.6</ele>
        <time>2015-07-25T08:24:47Z</time>
      </trkpt>
      <trkpt lat="44.84352" lon="5.93529">
        <ele>1317.1</ele>
        <time>2015-07-25T08:24:52Z</time>
      </trkpt>
      <trkpt lat="44.84353" lon="5.93528">
        <ele>1318.3</ele>
        <time>2015-07-25T08:24:57Z</time>
      </trkpt>
      <trkpt lat="44.8435" lon="5.93529">
        <ele>1319.2</ele>
        <time>2015-07-25T08:25:02Z</time>
      </trkpt>
      <trkpt lat="44.8435" lon="5.93529">
        <ele>1318.5</ele>
        <time>2015-07-25T08:25:07Z</time>
      </trkpt>
      <trkpt lat="44.84349" lon="5.93529">
        <ele>1319.2</ele>
        <time>2015-07-25T08:25:12Z</time>
      </trkpt>
      <trkpt lat="44.84354" lon="5.93533">
        <ele>1314.7</ele>
        <time>2015-07-25T08:25:17Z</time>
      </trkpt>
      <trkpt lat="44.84355" lon="5.93534">
        <ele>1312</ele>
        <time>2015-07-25T08:25:22Z</time>
      </trkpt>
      <trkpt lat="44.84357" lon="5.93538">
        <ele>1307.1</ele>
        <time>2015-07-25T08:25:27Z</time>
      </trkpt>
      <trkpt lat="44.84359" lon="5.93539">
        <ele>1306.6</ele>
        <time>2015-07-25T08:25:32Z</time>
      </trkpt>
      <trkpt lat="44.84357" lon="5.93537">
        <ele>1310.1</ele>
        <time>2015-07-25T08:25:37Z</time>
      </trkpt>
      <trkpt lat="44.8436" lon="5.93538">
        <ele>1312.7</ele>
        <time>2015-07-25T08:25:42Z</time>
      </trkpt>
      <trkpt lat="44.84359" lon="5.93537">
        <ele>1312.2</ele>
        <time>2015-07-25T08:25:47Z</time>
      </trkpt>
      <trkpt lat="44.84358" lon="5.93533">
        <ele>1313.1</ele>
        <time>2015-07-25T08:25:52Z</time>
      </trkpt>
      <trkpt lat="44.84356" lon="5.9353">
        <ele>1317.1</ele>
        <time>2015-07-25T08:25:57Z</time>
      </trkpt>
      <trkpt lat="44.84356" lon="5.93528">
        <ele>1319.7</ele>
        <time>2015-07-25T08:26:02Z</time>
      </trkpt>
      <trkpt lat="44.84354" lon="5.93523">
        <ele>1324.3</ele>
        <time>2015-07-25T08:26:07Z</time>
      </trkpt>
      <trkpt lat="44.84354" lon="5.93523">
        <ele>1324.8</ele>
        <time>2015-07-25T08:26:12Z</time>
      </trkpt>
      <trkpt lat="44.84355" lon="5.93524">
        <ele>1325.4</ele>
        <time>2015-07-25T08:26:17Z</time>
      </trkpt>
      <trkpt lat="44.84352" lon="5.93522">
        <ele>1326.6</ele>
        <time>2015-07-25T08:26:22Z</time>
      </trkpt>
      <trkpt lat="44.84352" lon="5.93522">
        <ele>1325.6</ele>
        <time>2015-07-25T08:26:27Z</time>
      </trkpt>
      <trkpt lat="44.84353" lon="5.93521">
        <ele>1324</ele>
        <time>2015-07-25T08:26:32Z</time>
      </trkpt>
      <trkpt lat="44.84352" lon="5.93518">
        <ele>1324.8</ele>
        <time>2015-07-25T08:26:37Z</time>
      </trkpt>
      <trkpt lat="44.84351" lon="5.93517">
        <ele>1324</ele>
        <time>2015-07-25T08:26:42Z</time>
      </trkpt>
      <trkpt lat="44.84352" lon="5.93517">
        <ele>1323.9</ele>
        <time>2015-07-25T08:26:47Z</time>
      </trkpt>
      <trkpt lat="44.84353" lon="5.93518">
        <ele>1319.7</ele>
        <time>2015-07-25T08:26:52Z</time>
      </trkpt>
      <trkpt lat="44.84353" lon="5.93521">
        <ele>1315.4</ele>
        <time>2015-07-25T08:26:57Z</time>
      </trkpt>
      <trkpt lat="44.84354" lon="5.93521">
        <ele>1313.1</ele>
        <time>2015-07-25T08:27:02Z</time>
      </trkpt>
      <trkpt lat="44.84354" lon="5.93521">
        <ele>1312.8</ele>
        <time>2015-07-25T08:27:07Z</time>
      </trkpt>
      <trkpt lat="44.84355" lon="5.93521">
        <ele>1312.2</ele>
        <time>2015-07-25T08:27:12Z</time>
      </trkpt>
      <trkpt lat="44.84355" lon="5.93518">
        <ele>1314.5</ele>
        <time>2015-07-25T08:27:17Z</time>
      </trkpt>
      <trkpt lat="44.84353" lon="5.93518">
        <ele>1314.9</ele>
        <time>2015-07-25T08:27:22Z</time>
      </trkpt>
      <trkpt lat="44.84353" lon="5.93521">
        <ele>1313.1</ele>
        <time>2015-07-25T08:27:27Z</time>
      </trkpt>
      <trkpt lat="44.84353" lon="5.93521">
        <ele>1314.3</ele>
        <time>2015-07-25T08:27:32Z</time>
      </trkpt>
      <trkpt lat="44.84352" lon="5.93521">
        <ele>1314</ele>
        <time>2015-07-25T08:27:37Z</time>
      </trkpt>
      <trkpt lat="44.84353" lon="5.9352">
        <ele>1315.5</ele>
        <time>2015-07-25T08:27:42Z</time>
      </trkpt>
      <trkpt lat="44.84354" lon="5.9352">
        <ele>1316.3</ele>
        <time>2015-07-25T08:27:47Z</time>
      </trkpt>
      <trkpt lat="44.84354" lon="5.9352">
        <ele>1317.3</ele>
        <time>2015-07-25T08:27:52Z</time>
      </trkpt>
      <trkpt lat="44.84354" lon="5.9352">
        <ele>1319.5</ele>
        <time>2015-07-25T08:27:57Z</time>
      </trkpt>
      <trkpt lat="44.84354" lon="5.9352">
        <ele>1321.3</ele>
        <time>2015-07-25T08:28:02Z</time>
      </trkpt>
      <trkpt lat="44.84354" lon="5.9352">
        <ele>1321.1</ele>
        <time>2015-07-25T08:28:07Z</time>
      </trkpt>
      <trkpt lat="44.84351" lon="5.93516">
        <ele>1324.8</ele>
        <time>2015-07-25T08:28:12Z</time>
      </trkpt>
      <trkpt lat="44.8435" lon="5.93514">
        <ele>1328.4</ele>
        <time>2015-07-25T08:28:17Z</time>
      </trkpt>
      <trkpt lat="44.8435" lon="5.93513">
        <ele>1330.4</ele>
        <time>2015-07-25T08:28:22Z</time>
      </trkpt>
      <trkpt lat="44.84356" lon="5.9352">
        <ele>1323.9</ele>
        <time>2015-07-25T08:28:27Z</time>
      </trkpt>
      <trkpt lat="44.84355" lon="5.93525">
        <ele>1320.3</ele>
        <time>2015-07-25T08:28:32Z</time>
      </trkpt>
      <trkpt lat="44.84355" lon="5.93524">
        <ele>1319.7</ele>
        <time>2015-07-25T08:28:37Z</time>
      </trkpt>
      <trkpt lat="44.84358" lon="5.93525">
        <ele>1318.4</ele>
        <time>2015-07-25T08:28:42Z</time>
      </trkpt>
      <trkpt lat="44.84359" lon="5.93525">
        <ele>1318.3</ele>
        <time>2015-07-25T08:28:47Z</time>
      </trkpt>
      <trkpt lat="44.84357" lon="5.93524">
        <ele>1319.4</ele>
        <time>2015-07-25T08:28:52Z</time>
      </trkpt>
      <trkpt lat="44.84355" lon="5.93524">
        <ele>1318.7</ele>
        <time>2015-07-25T08:28:57Z</time>
      </trkpt>
      <trkpt lat="44.84354" lon="5.93524">
        <ele>1318.9</ele>
        <time>2015-07-25T08:29:02Z</time>
      </trkpt>
      <trkpt lat="44.84354" lon="5.93524">
        <ele>1322.2</ele>
        <time>2015-07-25T08:29:07Z</time>
      </trkpt>
      <trkpt lat="44.84355" lon="5.93526">
        <ele>1322.1</ele>
        <time>2015-07-25T08:29:12Z</time>
      </trkpt>
      <trkpt lat="44.84353" lon="5.93523">
        <ele>1326.3</ele>
        <time>2015-07-25T08:29:17Z</time>
      </trkpt>
      <trkpt lat="44.84355" lon="5.93524">
        <ele>1324.3</ele>
        <time>2015-07-25T08:29:22Z</time>
      </trkpt>
      <trkpt lat="44.84353" lon="5.9352">
        <ele>1326.9</ele>
        <time>2015-07-25T08:29:27Z</time>
      </trkpt>
      <trkpt lat="44.84354" lon="5.93518">
        <ele>1326.9</ele>
        <time>2015-07-25T08:29:32Z</time>
      </trkpt>
      <trkpt lat="44.84355" lon="5.93518">
        <ele>1324.2</ele>
        <time>2015-07-25T08:29:37Z</time>
      </trkpt>
      <trkpt lat="44.84354" lon="5.9352">
        <ele>1323.5</ele>
        <time>2015-07-25T08:29:42Z</time>
      </trkpt>
      <trkpt lat="44.84351" lon="5.93519">
        <ele>1323.5</ele>
        <time>2015-07-25T08:29:47Z</time>
      </trkpt>
      <trkpt lat="44.84351" lon="5.93519">
        <ele>1321.5</ele>
        <time>2015-07-25T08:29:52Z</time>
      </trkpt>
      <trkpt lat="44.84351" lon="5.9352">
        <ele>1320.6</ele>
        <time>2015-07-25T08:29:57Z</time>
      </trkpt>
      <trkpt lat="44.84351" lon="5.9352">
        <ele>1320.7</ele>
        <time>2015-07-25T08:30:02Z</time>
      </trkpt>
      <trkpt lat="44.84348" lon="5.9352">
        <ele>1322.7</ele>
        <time>2015-07-25T08:30:07Z</time>
      </trkpt>
      <trkpt lat="44.84346" lon="5.93519">
        <ele>1325.2</ele>
        <time>2015-07-25T08:30:12Z</time>
      </trkpt>
      <trkpt lat="44.84346" lon="5.93519">
        <ele>1326.2</ele>
        <time>2015-07-25T08:30:17Z</time>
      </trkpt>
      <trkpt lat="44.84343" lon="5.93519">
        <ele>1328.6</ele>
        <time>2015-07-25T08:30:22Z</time>
      </trkpt>
      <trkpt lat="44.84342" lon="5.9352">
        <ele>1330.3</ele>
        <time>2015-07-25T08:30:27Z</time>
      </trkpt>
      <trkpt lat="44.84341" lon="5.9352">
        <ele>1329.8</ele>
        <time>2015-07-25T08:30:32Z</time>
      </trkpt>
      <trkpt lat="44.84342" lon="5.9352">
        <ele>1327.5</ele>
        <time>2015-07-25T08:30:37Z</time>
      </trkpt>
      <trkpt lat="44.84342" lon="5.93521">
        <ele>1328.1</ele>
        <time>2015-07-25T08:30:42Z</time>
      </trkpt>
      <trkpt lat="44.84345" lon="5.93523">
        <ele>1324.5</ele>
        <time>2015-07-25T08:30:47Z</time>
      </trkpt>
      <trkpt lat="44.84343" lon="5.93523">
        <ele>1324.1</ele>
        <time>2015-07-25T08:30:52Z</time>
      </trkpt>
      <trkpt lat="44.84343" lon="5.93522">
        <ele>1322.1</ele>
        <time>2015-07-25T08:30:57Z</time>
      </trkpt>
      <trkpt lat="44.84345" lon="5.93521">
        <ele>1319.8</ele>
        <time>2015-07-25T08:31:02Z</time>
      </trkpt>
      <trkpt lat="44.84346" lon="5.93522">
        <ele>1318.4</ele>
        <time>2015-07-25T08:31:07Z</time>
      </trkpt>
      <trkpt lat="44.84347" lon="5.93524">
        <ele>1316</ele>
        <time>2015-07-25T08:31:12Z</time>
      </trkpt>
      <trkpt lat="44.84346" lon="5.93521">
        <ele>1321.8</ele>
        <time>2015-07-25T08:31:17Z</time>
      </trkpt>
      <trkpt lat="44.84345" lon="5.93519">
        <ele>1327</ele>
        <time>2015-07-25T08:31:22Z</time>
      </trkpt>
      <trkpt lat="44.84346" lon="5.93519">
        <ele>1329.1</ele>
        <time>2015-07-25T08:31:27Z</time>
      </trkpt>
      <trkpt lat="44.84344" lon="5.93517">
        <ele>1331.5</ele>
        <time>2015-07-25T08:31:32Z</time>
      </trkpt>
      <trkpt lat="44.84346" lon="5.9352">
        <ele>1330.6</ele>
        <time>2015-07-25T08:31:37Z</time>
      </trkpt>
      <trkpt lat="44.84349" lon="5.93523">
        <ele>1328.4</ele>
        <time>2015-07-25T08:31:42Z</time>
      </trkpt>
      <trkpt lat="44.84351" lon="5.93524">
        <ele>1327.7</ele>
        <time>2015-07-25T08:31:47Z</time>
      </trkpt>
      <trkpt lat="44.84351" lon="5.93522">
        <ele>1330.4</ele>
        <time>2015-07-25T08:31:52Z</time>
      </trkpt>
      <trkpt lat="44.84349" lon="5.93522">
        <ele>1328.6</ele>
        <time>2015-07-25T08:31:57Z</time>
      </trkpt>
      <trkpt lat="44.8435" lon="5.93525">
        <ele>1325.8</ele>
        <time>2015-07-25T08:32:02Z</time>
      </trkpt>
      <trkpt lat="44.84348" lon="5.93527">
        <ele>1326.2</ele>
        <time>2015-07-25T08:32:07Z</time>
      </trkpt>
      <trkpt lat="44.84348" lon="5.93527">
        <ele>1329.1</ele>
        <time>2015-07-25T08:32:12Z</time>
      </trkpt>
      <trkpt lat="44.84348" lon="5.93524">
        <ele>1328.7</ele>
        <time>2015-07-25T08:32:17Z</time>
      </trkpt>
      <trkpt lat="44.84351" lon="5.93524">
        <ele>1329.5</ele>
        <time>2015-07-25T08:32:22Z</time>
      </trkpt>
      <trkpt lat="44.84351" lon="5.93522">
        <ele>1332.5</ele>
        <time>2015-07-25T08:32:27Z</time>
      </trkpt>
      <trkpt lat="44.84352" lon="5.93521">
        <ele>1331.9</ele>
        <time>2015-07-25T08:32:32Z</time>
      </trkpt>
      <trkpt lat="44.84353" lon="5.93524">
        <ele>1327.9</ele>
        <time>2015-07-25T08:32:37Z</time>
      </trkpt>
      <trkpt lat="44.84351" lon="5.93526">
        <ele>1324.6</ele>
        <time>2015-07-25T08:32:42Z</time>
      </trkpt>
      <trkpt lat="44.84349" lon="5.93524">
        <ele>1321.8</ele>
        <time>2015-07-25T08:32:47Z</time>
      </trkpt>
      <trkpt lat="44.84349" lon="5.93525">
        <ele>1319.8</ele>
        <time>2015-07-25T08:32:52Z</time>
      </trkpt>
      <trkpt lat="44.84345" lon="5.93525">
        <ele>1318.8</ele>
        <time>2015-07-25T08:32:57Z</time>
      </trkpt>
      <trkpt lat="44.84341" lon="5.93524">
        <ele>1319</ele>
        <time>2015-07-25T08:33:02Z</time>
      </trkpt>
      <trkpt lat="44.84339" lon="5.93522">
        <ele>1321.8</ele>
        <time>2015-07-25T08:33:07Z</time>
      </trkpt>
      <trkpt lat="44.84339" lon="5.93518">
        <ele>1321.8</ele>
        <time>2015-07-25T08:33:12Z</time>
      </trkpt>
      <trkpt lat="44.84337" lon="5.93513">
        <ele>1320.8</ele>
        <time>2015-07-25T08:33:17Z</time>
      </trkpt>
      <trkpt lat="44.84334" lon="5.93509">
        <ele>1319.7</ele>
        <time>2015-07-25T08:33:22Z</time>
      </trkpt>
      <trkpt lat="44.84329" lon="5.93506">
        <ele>1318.9</ele>
        <time>2015-07-25T08:33:27Z</time>
      </trkpt>
      <trkpt lat="44.84325" lon="5.93502">
        <ele>1317.4</ele>
        <time>2015-07-25T08:33:32Z</time>
      </trkpt>
      <trkpt lat="44.84321" lon="5.935">
        <ele>1316.6</ele>
        <time>2015-07-25T08:33:37Z</time>
      </trkpt>
      <trkpt lat="44.84316" lon="5.93497">
        <ele>1315.6</ele>
        <time>2015-07-25T08:33:42Z</time>
      </trkpt>
      <trkpt lat="44.8431" lon="5.93494">
        <ele>1315.8</ele>
        <time>2015-07-25T08:33:47Z</time>
      </trkpt>
      <trkpt lat="44.84305" lon="5.93491">
        <ele>1314.6</ele>
        <time>2015-07-25T08:33:52Z</time>
      </trkpt>
      <trkpt lat="44.84299" lon="5.93489">
        <ele>1313.1</ele>
        <time>2015-07-25T08:33:57Z</time>
      </trkpt>
      <trkpt lat="44.84294" lon="5.93486">
        <ele>1311.8</ele>
        <time>2015-07-25T08:34:02Z</time>
      </trkpt>
      <trkpt lat="44.8429" lon="5.93483">
        <ele>1309.7</ele>
        <time>2015-07-25T08:34:07Z</time>
      </trkpt>
      <trkpt lat="44.84283" lon="5.93484">
        <ele>1309.3</ele>
        <time>2015-07-25T08:34:12Z</time>
      </trkpt>
      <trkpt lat="44.8428" lon="5.93492">
        <ele>1308.3</ele>
        <time>2015-07-25T08:34:17Z</time>
      </trkpt>
      <trkpt lat="44.84275" lon="5.935">
        <ele>1309.2</ele>
        <time>2015-07-25T08:34:22Z</time>
      </trkpt>
      <trkpt lat="44.8427" lon="5.93507">
        <ele>1308.8</ele>
        <time>2015-07-25T08:34:27Z</time>
      </trkpt>
      <trkpt lat="44.84267" lon="5.93514">
        <ele>1307.3</ele>
        <time>2015-07-25T08:34:32Z</time>
      </trkpt>
      <trkpt lat="44.84266" lon="5.93523">
        <ele>1302.5</ele>
        <time>2015-07-25T08:34:37Z</time>
      </trkpt>
      <trkpt lat="44.84262" lon="5.93529">
        <ele>1302.7</ele>
        <time>2015-07-25T08:34:42Z</time>
      </trkpt>
      <trkpt lat="44.84257" lon="5.93535">
        <ele>1303.9</ele>
        <time>2015-07-25T08:34:47Z</time>
      </trkpt>
      <trkpt lat="44.84253" lon="5.9354">
        <ele>1303.1</ele>
        <time>2015-07-25T08:34:52Z</time>
      </trkpt>
      <trkpt lat="44.84249" lon="5.93544">
        <ele>1300.8</ele>
        <time>2015-07-25T08:34:57Z</time>
      </trkpt>
      <trkpt lat="44.84237" lon="5.93547">
        <ele>1308.7</ele>
        <time>2015-07-25T08:35:02Z</time>
      </trkpt>
      <trkpt lat="44.84229" lon="5.9355">
        <ele>1312.9</ele>
        <time>2015-07-25T08:35:07Z</time>
      </trkpt>
      <trkpt lat="44.84225" lon="5.93554">
        <ele>1310.4</ele>
        <time>2015-07-25T08:35:12Z</time>
      </trkpt>
      <trkpt lat="44.84223" lon="5.9356">
        <ele>1305.2</ele>
        <time>2015-07-25T08:35:17Z</time>
      </trkpt>
      <trkpt lat="44.8422" lon="5.93564">
        <ele>1302.8</ele>
        <time>2015-07-25T08:35:22Z</time>
      </trkpt>
      <trkpt lat="44.84216" lon="5.9357">
        <ele>1301.4</ele>
        <time>2015-07-25T08:35:27Z</time>
      </trkpt>
      <trkpt lat="44.84211" lon="5.93576">
        <ele>1300.2</ele>
        <time>2015-07-25T08:35:32Z</time>
      </trkpt>
      <trkpt lat="44.84208" lon="5.93581">
        <ele>1298.5</ele>
        <time>2015-07-25T08:35:37Z</time>
      </trkpt>
      <trkpt lat="44.84202" lon="5.93587">
        <ele>1299.8</ele>
        <time>2015-07-25T08:35:42Z</time>
      </trkpt>
      <trkpt lat="44.84197" lon="5.93592">
        <ele>1300.9</ele>
        <time>2015-07-25T08:35:47Z</time>
      </trkpt>
      <trkpt lat="44.84192" lon="5.93598">
        <ele>1300</ele>
        <time>2015-07-25T08:35:52Z</time>
      </trkpt>
      <trkpt lat="44.84192" lon="5.93608">
        <ele>1294.6</ele>
        <time>2015-07-25T08:35:57Z</time>
      </trkpt>
      <trkpt lat="44.84188" lon="5.93616">
        <ele>1293.6</ele>
        <time>2015-07-25T08:36:02Z</time>
      </trkpt>
      <trkpt lat="44.84182" lon="5.93621">
        <ele>1294.6</ele>
        <time>2015-07-25T08:36:07Z</time>
      </trkpt>
      <trkpt lat="44.84179" lon="5.93627">
        <ele>1293.4</ele>
        <time>2015-07-25T08:36:12Z</time>
      </trkpt>
      <trkpt lat="44.84174" lon="5.93633">
        <ele>1294.5</ele>
        <time>2015-07-25T08:36:17Z</time>
      </trkpt>
      <trkpt lat="44.84171" lon="5.93642">
        <ele>1293.3</ele>
        <time>2015-07-25T08:36:22Z</time>
      </trkpt>
      <trkpt lat="44.84169" lon="5.9365">
        <ele>1289.8</ele>
        <time>2015-07-25T08:36:27Z</time>
      </trkpt>
      <trkpt lat="44.84165" lon="5.93656">
        <ele>1289</ele>
        <time>2015-07-25T08:36:32Z</time>
      </trkpt>
      <trkpt lat="44.8416" lon="5.93661">
        <ele>1290.8</ele>
        <time>2015-07-25T08:36:37Z</time>
      </trkpt>
      <trkpt lat="44.84157" lon="5.93669">
        <ele>1289.5</ele>
        <time>2015-07-25T08:36:42Z</time>
      </trkpt>
      <trkpt lat="44.84153" lon="5.93676">
        <ele>1288.9</ele>
        <time>2015-07-25T08:36:47Z</time>
      </trkpt>
      <trkpt lat="44.84152" lon="5.93684">
        <ele>1285.8</ele>
        <time>2015-07-25T08:36:52Z</time>
      </trkpt>
      <trkpt lat="44.84148" lon="5.93691">
        <ele>1284</ele>
        <time>2015-07-25T08:36:57Z</time>
      </trkpt>
      <trkpt lat="44.84143" lon="5.93697">
        <ele>1283.9</ele>
        <time>2015-07-25T08:37:02Z</time>
      </trkpt>
      <trkpt lat="44.84139" lon="5.93704">
        <ele>1282.1</ele>
        <time>2015-07-25T08:37:07Z</time>
      </trkpt>
      <trkpt lat="44.84134" lon="5.9371">
        <ele>1281.6</ele>
        <time>2015-07-25T08:37:12Z</time>
      </trkpt>
      <trkpt lat="44.8413" lon="5.93715">
        <ele>1281.1</ele>
        <time>2015-07-25T08:37:17Z</time>
      </trkpt>
      <trkpt lat="44.84131" lon="5.93716">
        <ele>1279.8</ele>
        <time>2015-07-25T08:37:22Z</time>
      </trkpt>
      <trkpt lat="44.84131" lon="5.93715">
        <ele>1279.3</ele>
        <time>2015-07-25T08:37:27Z</time>
      </trkpt>
      <trkpt lat="44.84131" lon="5.93715">
        <ele>1279.2</ele>
        <time>2015-07-25T08:37:32Z</time>
      </trkpt>
      <trkpt lat="44.84129" lon="5.93718">
        <ele>1280.5</ele>
        <time>2015-07-25T08:37:37Z</time>
      </trkpt>
      <trkpt lat="44.84125" lon="5.93724">
        <ele>1279.7</ele>
        <time>2015-07-25T08:37:42Z</time>
      </trkpt>
      <trkpt lat="44.84121" lon="5.9373">
        <ele>1279</ele>
        <time>2015-07-25T08:37:47Z</time>
      </trkpt>
      <trkpt lat="44.84116" lon="5.93734">
        <ele>1278.1</ele>
        <time>2015-07-25T08:37:52Z</time>
      </trkpt>
      <trkpt lat="44.84112" lon="5.93739">
        <ele>1276.9</ele>
        <time>2015-07-25T08:37:57Z</time>
      </trkpt>
      <trkpt lat="44.84111" lon="5.93739">
        <ele>1275.3</ele>
        <time>2015-07-25T08:38:02Z</time>
      </trkpt>
      <trkpt lat="44.8411" lon="5.93741">
        <ele>1274.4</ele>
        <time>2015-07-25T08:38:09Z</time>
      </trkpt>
      <trkpt lat="44.84108" lon="5.93745">
        <ele>1272.1</ele>
        <time>2015-07-25T08:38:14Z</time>
      </trkpt>
      <trkpt lat="44.84107" lon="5.9375">
        <ele>1269</ele>
        <time>2015-07-25T08:38:19Z</time>
      </trkpt>
      <trkpt lat="44.84104" lon="5.93756">
        <ele>1268.2</ele>
        <time>2015-07-25T08:38:24Z</time>
      </trkpt>
      <trkpt lat="44.841" lon="5.93761">
        <ele>1267.7</ele>
        <time>2015-07-25T08:38:29Z</time>
      </trkpt>
      <trkpt lat="44.84097" lon="5.93766">
        <ele>1267.3</ele>
        <time>2015-07-25T08:38:34Z</time>
      </trkpt>
      <trkpt lat="44.84093" lon="5.93772">
        <ele>1266.1</ele>
        <time>2015-07-25T08:38:39Z</time>
      </trkpt>
      <trkpt lat="44.84089" lon="5.93777">
        <ele>1265.3</ele>
        <time>2015-07-25T08:38:44Z</time>
      </trkpt>
      <trkpt lat="44.84086" lon="5.93782">
        <ele>1263.4</ele>
        <time>2015-07-25T08:38:49Z</time>
      </trkpt>
      <trkpt lat="44.84081" lon="5.93787">
        <ele>1264.2</ele>
        <time>2015-07-25T08:38:54Z</time>
      </trkpt>
      <trkpt lat="44.84075" lon="5.93793">
        <ele>1266.3</ele>
        <time>2015-07-25T08:38:59Z</time>
      </trkpt>
      <trkpt lat="44.84071" lon="5.93798">
        <ele>1266.3</ele>
        <time>2015-07-25T08:39:04Z</time>
      </trkpt>
      <trkpt lat="44.84066" lon="5.93805">
        <ele>1266.1</ele>
        <time>2015-07-25T08:39:09Z</time>
      </trkpt>
      <trkpt lat="44.84063" lon="5.93812">
        <ele>1266.3</ele>
        <time>2015-07-25T08:39:14Z</time>
      </trkpt>
      <trkpt lat="44.84061" lon="5.9382">
        <ele>1265.3</ele>
        <time>2015-07-25T08:39:19Z</time>
      </trkpt>
      <trkpt lat="44.84059" lon="5.93828">
        <ele>1264.8</ele>
        <time>2015-07-25T08:39:24Z</time>
      </trkpt>
      <trkpt lat="44.84059" lon="5.93839">
        <ele>1260.7</ele>
        <time>2015-07-25T08:39:29Z</time>
      </trkpt>
      <trkpt lat="44.84055" lon="5.93845">
        <ele>1263.5</ele>
        <time>2015-07-25T08:39:34Z</time>
      </trkpt>
      <trkpt lat="44.84054" lon="5.93846">
        <ele>1262.6</ele>
        <time>2015-07-25T08:39:39Z</time>
      </trkpt>
      <trkpt lat="44.8405" lon="5.93848">
        <ele>1262.7</ele>
        <time>2015-07-25T08:39:44Z</time>
      </trkpt>
      <trkpt lat="44.84047" lon="5.93854">
        <ele>1264.1</ele>
        <time>2015-07-25T08:39:49Z</time>
      </trkpt>
      <trkpt lat="44.84044" lon="5.93858">
        <ele>1263.8</ele>
        <time>2015-07-25T08:39:54Z</time>
      </trkpt>
      <trkpt lat="44.84039" lon="5.93864">
        <ele>1265.3</ele>
        <time>2015-07-25T08:39:59Z</time>
      </trkpt>
      <trkpt lat="44.84032" lon="5.93869">
        <ele>1270.1</ele>
        <time>2015-07-25T08:40:04Z</time>
      </trkpt>
      <trkpt lat="44.84029" lon="5.93875">
        <ele>1269.9</ele>
        <time>2015-07-25T08:40:09Z</time>
      </trkpt>
      <trkpt lat="44.84026" lon="5.93882">
        <ele>1267.5</ele>
        <time>2015-07-25T08:40:14Z</time>
      </trkpt>
      <trkpt lat="44.8402" lon="5.93887">
        <ele>1269</ele>
        <time>2015-07-25T08:40:19Z</time>
      </trkpt>
      <trkpt lat="44.84017" lon="5.93894">
        <ele>1270.3</ele>
        <time>2015-07-25T08:40:24Z</time>
      </trkpt>
      <trkpt lat="44.84012" lon="5.939">
        <ele>1271.8</ele>
        <time>2015-07-25T08:40:29Z</time>
      </trkpt>
      <trkpt lat="44.84005" lon="5.93906">
        <ele>1275</ele>
        <time>2015-07-25T08:40:34Z</time>
      </trkpt>
      <trkpt lat="44.84002" lon="5.93908">
        <ele>1274.4</ele>
        <time>2015-07-25T08:40:39Z</time>
      </trkpt>
      <trkpt lat="44.83999" lon="5.93915">
        <ele>1269.2</ele>
        <time>2015-07-25T08:40:44Z</time>
      </trkpt>
      <trkpt lat="44.83996" lon="5.9392">
        <ele>1264.3</ele>
        <time>2015-07-25T08:40:49Z</time>
      </trkpt>
      <trkpt lat="44.83991" lon="5.93925">
        <ele>1262.4</ele>
        <time>2015-07-25T08:40:54Z</time>
      </trkpt>
      <trkpt lat="44.83986" lon="5.9393">
        <ele>1262.6</ele>
        <time>2015-07-25T08:40:59Z</time>
      </trkpt>
      <trkpt lat="44.83984" lon="5.93935">
        <ele>1259.9</ele>
        <time>2015-07-25T08:41:04Z</time>
      </trkpt>
      <trkpt lat="44.8398" lon="5.9394">
        <ele>1258.5</ele>
        <time>2015-07-25T08:41:09Z</time>
      </trkpt>
      <trkpt lat="44.83977" lon="5.93947">
        <ele>1255.8</ele>
        <time>2015-07-25T08:41:14Z</time>
      </trkpt>
      <trkpt lat="44.83973" lon="5.93955">
        <ele>1254.9</ele>
        <time>2015-07-25T08:41:19Z</time>
      </trkpt>
      <trkpt lat="44.8397" lon="5.93962">
        <ele>1254.2</ele>
        <time>2015-07-25T08:41:24Z</time>
      </trkpt>
      <trkpt lat="44.83967" lon="5.93969">
        <ele>1252.8</ele>
        <time>2015-07-25T08:41:29Z</time>
      </trkpt>
      <trkpt lat="44.83961" lon="5.93975">
        <ele>1253.2</ele>
        <time>2015-07-25T08:41:34Z</time>
      </trkpt>
      <trkpt lat="44.83956" lon="5.93982">
        <ele>1251.8</ele>
        <time>2015-07-25T08:41:39Z</time>
      </trkpt>
      <trkpt lat="44.83952" lon="5.9399">
        <ele>1251.6</ele>
        <time>2015-07-25T08:41:44Z</time>
      </trkpt>
      <trkpt lat="44.83949" lon="5.93997">
        <ele>1251</ele>
        <time>2015-07-25T08:41:49Z</time>
      </trkpt>
      <trkpt lat="44.83949" lon="5.94005">
        <ele>1248.4</ele>
        <time>2015-07-25T08:41:54Z</time>
      </trkpt>
      <trkpt lat="44.83947" lon="5.94013">
        <ele>1248.3</ele>
        <time>2015-07-25T08:41:59Z</time>
      </trkpt>
      <trkpt lat="44.83944" lon="5.94021">
        <ele>1248.1</ele>
        <time>2015-07-25T08:42:04Z</time>
      </trkpt>
      <trkpt lat="44.83941" lon="5.94028">
        <ele>1247.9</ele>
        <time>2015-07-25T08:42:09Z</time>
      </trkpt>
      <trkpt lat="44.83936" lon="5.94034">
        <ele>1248.2</ele>
        <time>2015-07-25T08:42:14Z</time>
      </trkpt>
      <trkpt lat="44.83933" lon="5.9404">
        <ele>1248.9</ele>
        <time>2015-07-25T08:42:19Z</time>
      </trkpt>
      <trkpt lat="44.83929" lon="5.94046">
        <ele>1249.8</ele>
        <time>2015-07-25T08:42:24Z</time>
      </trkpt>
      <trkpt lat="44.83926" lon="5.94055">
        <ele>1249.3</ele>
        <time>2015-07-25T08:42:29Z</time>
      </trkpt>
      <trkpt lat="44.83924" lon="5.94063">
        <ele>1249.1</ele>
        <time>2015-07-25T08:42:34Z</time>
      </trkpt>
      <trkpt lat="44.83921" lon="5.9407">
        <ele>1248.1</ele>
        <time>2015-07-25T08:42:39Z</time>
      </trkpt>
      <trkpt lat="44.83918" lon="5.94077">
        <ele>1248.4</ele>
        <time>2015-07-25T08:42:44Z</time>
      </trkpt>
      <trkpt lat="44.83914" lon="5.94083">
        <ele>1249.3</ele>
        <time>2015-07-25T08:42:49Z</time>
      </trkpt>
      <trkpt lat="44.83912" lon="5.94089">
        <ele>1248.9</ele>
        <time>2015-07-25T08:42:54Z</time>
      </trkpt>
      <trkpt lat="44.83908" lon="5.94096">
        <ele>1249.4</ele>
        <time>2015-07-25T08:42:59Z</time>
      </trkpt>
      <trkpt lat="44.83905" lon="5.94103">
        <ele>1248.9</ele>
        <time>2015-07-25T08:43:04Z</time>
      </trkpt>
      <trkpt lat="44.83901" lon="5.9411">
        <ele>1249.4</ele>
        <time>2015-07-25T08:43:09Z</time>
      </trkpt>
      <trkpt lat="44.83899" lon="5.94117">
        <ele>1247.9</ele>
        <time>2015-07-25T08:43:14Z</time>
      </trkpt>
      <trkpt lat="44.83895" lon="5.94122">
        <ele>1246.9</ele>
        <time>2015-07-25T08:43:19Z</time>
      </trkpt>
      <trkpt lat="44.83892" lon="5.94127">
        <ele>1246.1</ele>
        <time>2015-07-25T08:43:24Z</time>
      </trkpt>
      <trkpt lat="44.83889" lon="5.94135">
        <ele>1246.1</ele>
        <time>2015-07-25T08:43:29Z</time>
      </trkpt>
      <trkpt lat="44.83889" lon="5.94142">
        <ele>1246.2</ele>
        <time>2015-07-25T08:43:34Z</time>
      </trkpt>
      <trkpt lat="44.8389" lon="5.9415">
        <ele>1244.5</ele>
        <time>2015-07-25T08:43:39Z</time>
      </trkpt>
      <trkpt lat="44.83885" lon="5.94161">
        <ele>1247.3</ele>
        <time>2015-07-25T08:43:44Z</time>
      </trkpt>
      <trkpt lat="44.83885" lon="5.94169">
        <ele>1246.5</ele>
        <time>2015-07-25T08:43:49Z</time>
      </trkpt>
      <trkpt lat="44.83883" lon="5.94178">
        <ele>1245.2</ele>
        <time>2015-07-25T08:43:54Z</time>
      </trkpt>
      <trkpt lat="44.83883" lon="5.94186">
        <ele>1242.5</ele>
        <time>2015-07-25T08:43:59Z</time>
      </trkpt>
      <trkpt lat="44.83883" lon="5.94193">
        <ele>1238.8</ele>
        <time>2015-07-25T08:44:04Z</time>
      </trkpt>
      <trkpt lat="44.83883" lon="5.94198">
        <ele>1236.5</ele>
        <time>2015-07-25T08:44:09Z</time>
      </trkpt>
      <trkpt lat="44.83881" lon="5.94205">
        <ele>1234.9</ele>
        <time>2015-07-25T08:44:14Z</time>
      </trkpt>
      <trkpt lat="44.83877" lon="5.94212">
        <ele>1234.1</ele>
        <time>2015-07-25T08:44:19Z</time>
      </trkpt>
      <trkpt lat="44.83875" lon="5.94219">
        <ele>1234</ele>
        <time>2015-07-25T08:44:24Z</time>
      </trkpt>
      <trkpt lat="44.83873" lon="5.94227">
        <ele>1233.4</ele>
        <time>2015-07-25T08:44:29Z</time>
      </trkpt>
      <trkpt lat="44.83869" lon="5.94235">
        <ele>1233.7</ele>
        <time>2015-07-25T08:44:34Z</time>
      </trkpt>
      <trkpt lat="44.83867" lon="5.94242">
        <ele>1231.9</ele>
        <time>2015-07-25T08:44:39Z</time>
      </trkpt>
      <trkpt lat="44.83867" lon="5.9425">
        <ele>1229.9</ele>
        <time>2015-07-25T08:44:44Z</time>
      </trkpt>
      <trkpt lat="44.83865" lon="5.94259">
        <ele>1229.4</ele>
        <time>2015-07-25T08:44:49Z</time>
      </trkpt>
      <trkpt lat="44.83863" lon="5.94268">
        <ele>1229.1</ele>
        <time>2015-07-25T08:44:54Z</time>
      </trkpt>
      <trkpt lat="44.83862" lon="5.94276">
        <ele>1227.7</ele>
        <time>2015-07-25T08:44:59Z</time>
      </trkpt>
      <trkpt lat="44.83861" lon="5.94284">
        <ele>1227.2</ele>
        <time>2015-07-25T08:45:04Z</time>
      </trkpt>
      <trkpt lat="44.83861" lon="5.94294">
        <ele>1229.2</ele>
        <time>2015-07-25T08:45:09Z</time>
      </trkpt>
      <trkpt lat="44.83862" lon="5.94302">
        <ele>1231.7</ele>
        <time>2015-07-25T08:45:14Z</time>
      </trkpt>
      <trkpt lat="44.83865" lon="5.94307">
        <ele>1234.6</ele>
        <time>2015-07-25T08:45:19Z</time>
      </trkpt>
      <trkpt lat="44.83864" lon="5.94311">
        <ele>1235.9</ele>
        <time>2015-07-25T08:45:24Z</time>
      </trkpt>
      <trkpt lat="44.83861" lon="5.94314">
        <ele>1234.9</ele>
        <time>2015-07-25T08:45:29Z</time>
      </trkpt>
      <trkpt lat="44.83857" lon="5.94318">
        <ele>1236.2</ele>
        <time>2015-07-25T08:45:34Z</time>
      </trkpt>
      <trkpt lat="44.83852" lon="5.94322">
        <ele>1239.6</ele>
        <time>2015-07-25T08:45:39Z</time>
      </trkpt>
      <trkpt lat="44.83849" lon="5.94326">
        <ele>1237.4</ele>
        <time>2015-07-25T08:45:44Z</time>
      </trkpt>
      <trkpt lat="44.83843" lon="5.94329">
        <ele>1238.4</ele>
        <time>2015-07-25T08:45:49Z</time>
      </trkpt>
      <trkpt lat="44.8384" lon="5.94335">
        <ele>1235.6</ele>
        <time>2015-07-25T08:45:54Z</time>
      </trkpt>
      <trkpt lat="44.83834" lon="5.94337">
        <ele>1237.4</ele>
        <time>2015-07-25T08:45:59Z</time>
      </trkpt>
      <trkpt lat="44.8383" lon="5.94341">
        <ele>1235</ele>
        <time>2015-07-25T08:46:04Z</time>
      </trkpt>
      <trkpt lat="44.83826" lon="5.94348">
        <ele>1231.8</ele>
        <time>2015-07-25T08:46:09Z</time>
      </trkpt>
      <trkpt lat="44.83822" lon="5.94355">
        <ele>1230.1</ele>
        <time>2015-07-25T08:46:14Z</time>
      </trkpt>
      <trkpt lat="44.83817" lon="5.94362">
        <ele>1228.2</ele>
        <time>2015-07-25T08:46:19Z</time>
      </trkpt>
      <trkpt lat="44.83813" lon="5.94369">
        <ele>1226.7</ele>
        <time>2015-07-25T08:46:24Z</time>
      </trkpt>
      <trkpt lat="44.8381" lon="5.94377">
        <ele>1225.7</ele>
        <time>2015-07-25T08:46:29Z</time>
      </trkpt>
      <trkpt lat="44.83806" lon="5.94383">
        <ele>1224.6</ele>
        <time>2015-07-25T08:46:34Z</time>
      </trkpt>
      <trkpt lat="44.83802" lon="5.9439">
        <ele>1223.9</ele>
        <time>2015-07-25T08:46:39Z</time>
      </trkpt>
      <trkpt lat="44.83798" lon="5.94397">
        <ele>1223.7</ele>
        <time>2015-07-25T08:46:44Z</time>
      </trkpt>
      <trkpt lat="44.83794" lon="5.94406">
        <ele>1223.1</ele>
        <time>2015-07-25T08:46:49Z</time>
      </trkpt>
      <trkpt lat="44.83791" lon="5.94415">
        <ele>1222.6</ele>
        <time>2015-07-25T08:46:54Z</time>
      </trkpt>
      <trkpt lat="44.83787" lon="5.94424">
        <ele>1221.1</ele>
        <time>2015-07-25T08:46:59Z</time>
      </trkpt>
      <trkpt lat="44.83784" lon="5.94432">
        <ele>1220.7</ele>
        <time>2015-07-25T08:47:04Z</time>
      </trkpt>
      <trkpt lat="44.83779" lon="5.94441">
        <ele>1223.4</ele>
        <time>2015-07-25T08:47:09Z</time>
      </trkpt>
      <trkpt lat="44.83778" lon="5.9445">
        <ele>1220.9</ele>
        <time>2015-07-25T08:47:14Z</time>
      </trkpt>
      <trkpt lat="44.83778" lon="5.94459">
        <ele>1218.4</ele>
        <time>2015-07-25T08:47:19Z</time>
      </trkpt>
      <trkpt lat="44.83778" lon="5.94469">
        <ele>1216.2</ele>
        <time>2015-07-25T08:47:24Z</time>
      </trkpt>
      <trkpt lat="44.83776" lon="5.94478">
        <ele>1215.3</ele>
        <time>2015-07-25T08:47:29Z</time>
      </trkpt>
      <trkpt lat="44.83774" lon="5.94486">
        <ele>1215.5</ele>
        <time>2015-07-25T08:47:34Z</time>
      </trkpt>
      <trkpt lat="44.83772" lon="5.94495">
        <ele>1213.9</ele>
        <time>2015-07-25T08:47:39Z</time>
      </trkpt>
      <trkpt lat="44.83771" lon="5.94506">
        <ele>1212.1</ele>
        <time>2015-07-25T08:47:44Z</time>
      </trkpt>
      <trkpt lat="44.83771" lon="5.94516">
        <ele>1210.2</ele>
        <time>2015-07-25T08:47:49Z</time>
      </trkpt>
      <trkpt lat="44.83769" lon="5.94527">
        <ele>1209.4</ele>
        <time>2015-07-25T08:47:54Z</time>
      </trkpt>
      <trkpt lat="44.83766" lon="5.94535">
        <ele>1210.9</ele>
        <time>2015-07-25T08:47:59Z</time>
      </trkpt>
      <trkpt lat="44.83765" lon="5.94543">
        <ele>1208.7</ele>
        <time>2015-07-25T08:48:04Z</time>
      </trkpt>
      <trkpt lat="44.83762" lon="5.9455">
        <ele>1206.5</ele>
        <time>2015-07-25T08:48:09Z</time>
      </trkpt>
      <trkpt lat="44.83759" lon="5.94559">
        <ele>1206</ele>
        <time>2015-07-25T08:48:14Z</time>
      </trkpt>
      <trkpt lat="44.83756" lon="5.94568">
        <ele>1207</ele>
        <time>2015-07-25T08:48:19Z</time>
      </trkpt>
      <trkpt lat="44.83754" lon="5.94577">
        <ele>1208.3</ele>
        <time>2015-07-25T08:48:24Z</time>
      </trkpt>
      <trkpt lat="44.83753" lon="5.94584">
        <ele>1207.4</ele>
        <time>2015-07-25T08:48:29Z</time>
      </trkpt>
      <trkpt lat="44.83752" lon="5.94592">
        <ele>1204.2</ele>
        <time>2015-07-25T08:48:34Z</time>
      </trkpt>
      <trkpt lat="44.83747" lon="5.94596">
        <ele>1213.8</ele>
        <time>2015-07-25T08:48:39Z</time>
      </trkpt>
      <trkpt lat="44.83746" lon="5.94604">
        <ele>1211.3</ele>
        <time>2015-07-25T08:48:44Z</time>
      </trkpt>
      <trkpt lat="44.83748" lon="5.94616">
        <ele>1205.3</ele>
        <time>2015-07-25T08:48:49Z</time>
      </trkpt>
      <trkpt lat="44.83744" lon="5.94614">
        <ele>1213.7</ele>
        <time>2015-07-25T08:48:54Z</time>
      </trkpt>
      <trkpt lat="44.83741" lon="5.94612">
        <ele>1219.5</ele>
        <time>2015-07-25T08:48:59Z</time>
      </trkpt>
      <trkpt lat="44.83735" lon="5.94616">
        <ele>1232.5</ele>
        <time>2015-07-25T08:49:04Z</time>
      </trkpt>
      <trkpt lat="44.83731" lon="5.94622">
        <ele>1238.7</ele>
        <time>2015-07-25T08:49:09Z</time>
      </trkpt>
      <trkpt lat="44.83732" lon="5.94631">
        <ele>1232.5</ele>
        <time>2015-07-25T08:49:14Z</time>
      </trkpt>
      <trkpt lat="44.83733" lon="5.94638">
        <ele>1221.7</ele>
        <time>2015-07-25T08:49:19Z</time>
      </trkpt>
      <trkpt lat="44.83731" lon="5.94643">
        <ele>1212.8</ele>
        <time>2015-07-25T08:49:24Z</time>
      </trkpt>
      <trkpt lat="44.83733" lon="5.94653">
        <ele>1204.7</ele>
        <time>2015-07-25T08:49:29Z</time>
      </trkpt>
      <trkpt lat="44.83732" lon="5.9466">
        <ele>1204.4</ele>
        <time>2015-07-25T08:49:34Z</time>
      </trkpt>
      <trkpt lat="44.83729" lon="5.94669">
        <ele>1203.1</ele>
        <time>2015-07-25T08:49:39Z</time>
      </trkpt>
      <trkpt lat="44.83728" lon="5.94678">
        <ele>1205.9</ele>
        <time>2015-07-25T08:49:44Z</time>
      </trkpt>
      <trkpt lat="44.83725" lon="5.94684">
        <ele>1209.7</ele>
        <time>2015-07-25T08:49:49Z</time>
      </trkpt>
      <trkpt lat="44.83728" lon="5.94693">
        <ele>1210.7</ele>
        <time>2015-07-25T08:49:54Z</time>
      </trkpt>
      <trkpt lat="44.83727" lon="5.94698">
        <ele>1211.9</ele>
        <time>2015-07-25T08:49:59Z</time>
      </trkpt>
      <trkpt lat="44.83726" lon="5.94696">
        <ele>1212.9</ele>
        <time>2015-07-25T08:50:04Z</time>
      </trkpt>
      <trkpt lat="44.83724" lon="5.94692">
        <ele>1213.8</ele>
        <time>2015-07-25T08:50:09Z</time>
      </trkpt>
      <trkpt lat="44.83725" lon="5.94686">
        <ele>1216.3</ele>
        <time>2015-07-25T08:50:14Z</time>
      </trkpt>
      <trkpt lat="44.83725" lon="5.94679">
        <ele>1219.4</ele>
        <time>2015-07-25T08:50:19Z</time>
      </trkpt>
      <trkpt lat="44.83724" lon="5.94672">
        <ele>1219.1</ele>
        <time>2015-07-25T08:50:24Z</time>
      </trkpt>
      <trkpt lat="44.83719" lon="5.94669">
        <ele>1214.6</ele>
        <time>2015-07-25T08:50:29Z</time>
      </trkpt>
      <trkpt lat="44.83715" lon="5.94666">
        <ele>1212</ele>
        <time>2015-07-25T08:50:34Z</time>
      </trkpt>
      <trkpt lat="44.83712" lon="5.94662">
        <ele>1212.1</ele>
        <time>2015-07-25T08:50:39Z</time>
      </trkpt>
      <trkpt lat="44.83706" lon="5.94659">
        <ele>1207.1</ele>
        <time>2015-07-25T08:50:44Z</time>
      </trkpt>
      <trkpt lat="44.83703" lon="5.94654">
        <ele>1205.6</ele>
        <time>2015-07-25T08:50:49Z</time>
      </trkpt>
      <trkpt lat="44.83696" lon="5.94646">
        <ele>1202</ele>
        <time>2015-07-25T08:50:54Z</time>
      </trkpt>
      <trkpt lat="44.83689" lon="5.94641">
        <ele>1198.2</ele>
        <time>2015-07-25T08:50:59Z</time>
      </trkpt>
      <trkpt lat="44.83685" lon="5.94638">
        <ele>1198.4</ele>
        <time>2015-07-25T08:51:04Z</time>
      </trkpt>
      <trkpt lat="44.8368" lon="5.9463">
        <ele>1199</ele>
        <time>2015-07-25T08:51:09Z</time>
      </trkpt>
      <trkpt lat="44.83676" lon="5.94627">
        <ele>1199.1</ele>
        <time>2015-07-25T08:51:14Z</time>
      </trkpt>
      <trkpt lat="44.83673" lon="5.9462">
        <ele>1200.9</ele>
        <time>2015-07-25T08:51:19Z</time>
      </trkpt>
      <trkpt lat="44.83668" lon="5.94613">
        <ele>1199.2</ele>
        <time>2015-07-25T08:51:24Z</time>
      </trkpt>
      <trkpt lat="44.83662" lon="5.9461">
        <ele>1194.2</ele>
        <time>2015-07-25T08:51:29Z</time>
      </trkpt>
      <trkpt lat="44.83658" lon="5.94607">
        <ele>1191.3</ele>
        <time>2015-07-25T08:51:34Z</time>
      </trkpt>
      <trkpt lat="44.83656" lon="5.946">
        <ele>1193.3</ele>
        <time>2015-07-25T08:51:39Z</time>
      </trkpt>
      <trkpt lat="44.83655" lon="5.94592">
        <ele>1197.4</ele>
        <time>2015-07-25T08:51:44Z</time>
      </trkpt>
      <trkpt lat="44.83654" lon="5.94583">
        <ele>1202.9</ele>
        <time>2015-07-25T08:51:49Z</time>
      </trkpt>
      <trkpt lat="44.83652" lon="5.94576">
        <ele>1206.5</ele>
        <time>2015-07-25T08:51:54Z</time>
      </trkpt>
      <trkpt lat="44.83647" lon="5.94571">
        <ele>1206.1</ele>
        <time>2015-07-25T08:51:59Z</time>
      </trkpt>
      <trkpt lat="44.83645" lon="5.94564">
        <ele>1206.2</ele>
        <time>2015-07-25T08:52:04Z</time>
      </trkpt>
      <trkpt lat="44.8364" lon="5.94555">
        <ele>1205.3</ele>
        <time>2015-07-25T08:52:09Z</time>
      </trkpt>
      <trkpt lat="44.83636" lon="5.94545">
        <ele>1209.4</ele>
        <time>2015-07-25T08:52:14Z</time>
      </trkpt>
      <trkpt lat="44.83635" lon="5.94537">
        <ele>1213.5</ele>
        <time>2015-07-25T08:52:19Z</time>
      </trkpt>
      <trkpt lat="44.83633" lon="5.9453">
        <ele>1211.7</ele>
        <time>2015-07-25T08:52:24Z</time>
      </trkpt>
      <trkpt lat="44.83629" lon="5.94523">
        <ele>1208.3</ele>
        <time>2015-07-25T08:52:29Z</time>
      </trkpt>
      <trkpt lat="44.83626" lon="5.94517">
        <ele>1206</ele>
        <time>2015-07-25T08:52:34Z</time>
      </trkpt>
      <trkpt lat="44.83623" lon="5.94513">
        <ele>1198.2</ele>
        <time>2015-07-25T08:52:39Z</time>
      </trkpt>
      <trkpt lat="44.83616" lon="5.94508">
        <ele>1188.1</ele>
        <time>2015-07-25T08:52:44Z</time>
      </trkpt>
      <trkpt lat="44.83609" lon="5.94499">
        <ele>1182.4</ele>
        <time>2015-07-25T08:52:49Z</time>
      </trkpt>
      <trkpt lat="44.83605" lon="5.9449">
        <ele>1181.4</ele>
        <time>2015-07-25T08:52:54Z</time>
      </trkpt>
      <trkpt lat="44.83601" lon="5.94482">
        <ele>1178.3</ele>
        <time>2015-07-25T08:52:59Z</time>
      </trkpt>
      <trkpt lat="44.83597" lon="5.94474">
        <ele>1175.8</ele>
        <time>2015-07-25T08:53:04Z</time>
      </trkpt>
      <trkpt lat="44.8359" lon="5.94468">
        <ele>1169.4</ele>
        <time>2015-07-25T08:53:09Z</time>
      </trkpt>
      <trkpt lat="44.83584" lon="5.94462">
        <ele>1166.2</ele>
        <time>2015-07-25T08:53:14Z</time>
      </trkpt>
      <trkpt lat="44.83579" lon="5.94456">
        <ele>1161.7</ele>
        <time>2015-07-25T08:53:19Z</time>
      </trkpt>
      <trkpt lat="44.83575" lon="5.94449">
        <ele>1159.9</ele>
        <time>2015-07-25T08:53:24Z</time>
      </trkpt>
      <trkpt lat="44.8357" lon="5.94445">
        <ele>1155.8</ele>
        <time>2015-07-25T08:53:29Z</time>
      </trkpt>
      <trkpt lat="44.83565" lon="5.9444">
        <ele>1155.1</ele>
        <time>2015-07-25T08:53:34Z</time>
      </trkpt>
      <trkpt lat="44.83559" lon="5.94436">
        <ele>1153</ele>
        <time>2015-07-25T08:53:39Z</time>
      </trkpt>
      <trkpt lat="44.83554" lon="5.94432">
        <ele>1152.8</ele>
        <time>2015-07-25T08:53:44Z</time>
      </trkpt>
      <trkpt lat="44.83549" lon="5.94428">
        <ele>1152</ele>
        <time>2015-07-25T08:53:49Z</time>
      </trkpt>
      <trkpt lat="44.83543" lon="5.94424">
        <ele>1150.4</ele>
        <time>2015-07-25T08:53:54Z</time>
      </trkpt>
      <trkpt lat="44.83538" lon="5.94422">
        <ele>1148.5</ele>
        <time>2015-07-25T08:53:59Z</time>
      </trkpt>
      <trkpt lat="44.83533" lon="5.94415">
        <ele>1148.4</ele>
        <time>2015-07-25T08:54:04Z</time>
      </trkpt>
      <trkpt lat="44.83527" lon="5.94411">
        <ele>1145.3</ele>
        <time>2015-07-25T08:54:09Z</time>
      </trkpt>
      <trkpt lat="44.83523" lon="5.94408">
        <ele>1142.6</ele>
        <time>2015-07-25T08:54:14Z</time>
      </trkpt>
      <trkpt lat="44.83519" lon="5.94404">
        <ele>1143.2</ele>
        <time>2015-07-25T08:54:19Z</time>
      </trkpt>
      <trkpt lat="44.83514" lon="5.944">
        <ele>1140.3</ele>
        <time>2015-07-25T08:54:24Z</time>
      </trkpt>
      <trkpt lat="44.83515" lon="5.94399">
        <ele>1139.7</ele>
        <time>2015-07-25T08:54:29Z</time>
      </trkpt>
      <trkpt lat="44.83514" lon="5.94401">
        <ele>1134.9</ele>
        <time>2015-07-25T08:54:34Z</time>
      </trkpt>
      <trkpt lat="44.83512" lon="5.94399">
        <ele>1140.2</ele>
        <time>2015-07-25T08:54:39Z</time>
      </trkpt>
      <trkpt lat="44.83512" lon="5.94402">
        <ele>1140.8</ele>
        <time>2015-07-25T08:54:44Z</time>
      </trkpt>
      <trkpt lat="44.83508" lon="5.94401">
        <ele>1140.9</ele>
        <time>2015-07-25T08:54:49Z</time>
      </trkpt>
      <trkpt lat="44.83501" lon="5.94396">
        <ele>1138.9</ele>
        <time>2015-07-25T08:54:54Z</time>
      </trkpt>
      <trkpt lat="44.83494" lon="5.94395">
        <ele>1137.8</ele>
        <time>2015-07-25T08:54:59Z</time>
      </trkpt>
      <trkpt lat="44.83489" lon="5.94392">
        <ele>1135.4</ele>
        <time>2015-07-25T08:55:04Z</time>
      </trkpt>
      <trkpt lat="44.83484" lon="5.94389">
        <ele>1132.2</ele>
        <time>2015-07-25T08:55:09Z</time>
      </trkpt>
      <trkpt lat="44.83475" lon="5.94384">
        <ele>1131.5</ele>
        <time>2015-07-25T08:55:14Z</time>
      </trkpt>
      <trkpt lat="44.83474" lon="5.94384">
        <ele>1133.2</ele>
        <time>2015-07-25T08:55:19Z</time>
      </trkpt>
      <trkpt lat="44.83471" lon="5.94386">
        <ele>1144.4</ele>
        <time>2015-07-25T08:55:24Z</time>
      </trkpt>
      <trkpt lat="44.83473" lon="5.9439">
        <ele>1138.8</ele>
        <time>2015-07-25T08:55:29Z</time>
      </trkpt>
      <trkpt lat="44.83474" lon="5.9439">
        <ele>1129.7</ele>
        <time>2015-07-25T08:55:36Z</time>
      </trkpt>
      <trkpt lat="44.83472" lon="5.94384">
        <ele>1128.6</ele>
        <time>2015-07-25T08:55:41Z</time>
      </trkpt>
      <trkpt lat="44.83469" lon="5.9438">
        <ele>1127.1</ele>
        <time>2015-07-25T08:55:46Z</time>
      </trkpt>
      <trkpt lat="44.83464" lon="5.94377">
        <ele>1124.8</ele>
        <time>2015-07-25T08:55:51Z</time>
      </trkpt>
      <trkpt lat="44.8346" lon="5.94374">
        <ele>1124.4</ele>
        <time>2015-07-25T08:55:56Z</time>
      </trkpt>
      <trkpt lat="44.83457" lon="5.94369">
        <ele>1126.4</ele>
        <time>2015-07-25T08:56:01Z</time>
      </trkpt>
      <trkpt lat="44.83452" lon="5.94361">
        <ele>1130.9</ele>
        <time>2015-07-25T08:56:06Z</time>
      </trkpt>
      <trkpt lat="44.83445" lon="5.94354">
        <ele>1131.4</ele>
        <time>2015-07-25T08:56:11Z</time>
      </trkpt>
      <trkpt lat="44.83439" lon="5.94345">
        <ele>1132.5</ele>
        <time>2015-07-25T08:56:16Z</time>
      </trkpt>
      <trkpt lat="44.83431" lon="5.9434">
        <ele>1130.7</ele>
        <time>2015-07-25T08:56:21Z</time>
      </trkpt>
      <trkpt lat="44.83424" lon="5.94334">
        <ele>1128.8</ele>
        <time>2015-07-25T08:56:26Z</time>
      </trkpt>
      <trkpt lat="44.83416" lon="5.94329">
        <ele>1129</ele>
        <time>2015-07-25T08:56:31Z</time>
      </trkpt>
      <trkpt lat="44.8341" lon="5.94325">
        <ele>1126.8</ele>
        <time>2015-07-25T08:56:36Z</time>
      </trkpt>
      <trkpt lat="44.83403" lon="5.94323">
        <ele>1125</ele>
        <time>2015-07-25T08:56:41Z</time>
      </trkpt>
      <trkpt lat="44.83397" lon="5.94323">
        <ele>1122.7</ele>
        <time>2015-07-25T08:56:46Z</time>
      </trkpt>
      <trkpt lat="44.83391" lon="5.94321">
        <ele>1120.4</ele>
        <time>2015-07-25T08:56:51Z</time>
      </trkpt>
      <trkpt lat="44.83384" lon="5.94319">
        <ele>1120.8</ele>
        <time>2015-07-25T08:56:56Z</time>
      </trkpt>
      <trkpt lat="44.83378" lon="5.94322">
        <ele>1117.4</ele>
        <time>2015-07-25T08:57:01Z</time>
      </trkpt>
      <trkpt lat="44.8337" lon="5.94322">
        <ele>1115.2</ele>
        <time>2015-07-25T08:57:06Z</time>
      </trkpt>
      <trkpt lat="44.83364" lon="5.94321">
        <ele>1115</ele>
        <time>2015-07-25T08:57:11Z</time>
      </trkpt>
      <trkpt lat="44.83358" lon="5.94318">
        <ele>1113.4</ele>
        <time>2015-07-25T08:57:16Z</time>
      </trkpt>
      <trkpt lat="44.83353" lon="5.94318">
        <ele>1112.9</ele>
        <time>2015-07-25T08:57:21Z</time>
      </trkpt>
      <trkpt lat="44.83345" lon="5.94318">
        <ele>1112.5</ele>
        <time>2015-07-25T08:57:26Z</time>
      </trkpt>
      <trkpt lat="44.83342" lon="5.94318">
        <ele>1108.3</ele>
        <time>2015-07-25T08:57:31Z</time>
      </trkpt>
      <trkpt lat="44.83337" lon="5.94318">
        <ele>1104.7</ele>
        <time>2015-07-25T08:57:36Z</time>
      </trkpt>
      <trkpt lat="44.83333" lon="5.94318">
        <ele>1103.1</ele>
        <time>2015-07-25T08:57:41Z</time>
      </trkpt>
      <trkpt lat="44.83327" lon="5.9432">
        <ele>1099.8</ele>
        <time>2015-07-25T08:57:46Z</time>
      </trkpt>
      <trkpt lat="44.8332" lon="5.94322">
        <ele>1098.3</ele>
        <time>2015-07-25T08:57:51Z</time>
      </trkpt>
      <trkpt lat="44.83313" lon="5.94323">
        <ele>1096.8</ele>
        <time>2015-07-25T08:57:56Z</time>
      </trkpt>
      <trkpt lat="44.83308" lon="5.94325">
        <ele>1095</ele>
        <time>2015-07-25T08:58:01Z</time>
      </trkpt>
      <trkpt lat="44.83302" lon="5.94326">
        <ele>1095.1</ele>
        <time>2015-07-25T08:58:06Z</time>
      </trkpt>
      <trkpt lat="44.83295" lon="5.94325">
        <ele>1096.6</ele>
        <time>2015-07-25T08:58:11Z</time>
      </trkpt>
      <trkpt lat="44.83289" lon="5.94326">
        <ele>1100.1</ele>
        <time>2015-07-25T08:58:16Z</time>
      </trkpt>
      <trkpt lat="44.83278" lon="5.94322">
        <ele>1101.8</ele>
        <time>2015-07-25T08:58:21Z</time>
      </trkpt>
      <trkpt lat="44.83272" lon="5.94318">
        <ele>1099.1</ele>
        <time>2015-07-25T08:58:26Z</time>
      </trkpt>
      <trkpt lat="44.83267" lon="5.94317">
        <ele>1093.3</ele>
        <time>2015-07-25T08:58:31Z</time>
      </trkpt>
      <trkpt lat="44.83261" lon="5.94316">
        <ele>1090.6</ele>
        <time>2015-07-25T08:58:36Z</time>
      </trkpt>
      <trkpt lat="44.83254" lon="5.94313">
        <ele>1091.9</ele>
        <time>2015-07-25T08:58:41Z</time>
      </trkpt>
      <trkpt lat="44.83247" lon="5.94314">
        <ele>1090.3</ele>
        <time>2015-07-25T08:58:46Z</time>
      </trkpt>
      <trkpt lat="44.83242" lon="5.94317">
        <ele>1085.2</ele>
        <time>2015-07-25T08:58:51Z</time>
      </trkpt>
      <trkpt lat="44.83235" lon="5.94316">
        <ele>1083.8</ele>
        <time>2015-07-25T08:58:56Z</time>
      </trkpt>
      <trkpt lat="44.83227" lon="5.94315">
        <ele>1084.3</ele>
        <time>2015-07-25T08:59:01Z</time>
      </trkpt>
      <trkpt lat="44.8322" lon="5.94316">
        <ele>1084.5</ele>
        <time>2015-07-25T08:59:06Z</time>
      </trkpt>
      <trkpt lat="44.83215" lon="5.94312">
        <ele>1085.1</ele>
        <time>2015-07-25T08:59:11Z</time>
      </trkpt>
      <trkpt lat="44.8321" lon="5.94306">
        <ele>1088.4</ele>
        <time>2015-07-25T08:59:16Z</time>
      </trkpt>
      <trkpt lat="44.83204" lon="5.94299">
        <ele>1088</ele>
        <time>2015-07-25T08:59:21Z</time>
      </trkpt>
      <trkpt lat="44.83197" lon="5.94294">
        <ele>1086.8</ele>
        <time>2015-07-25T08:59:26Z</time>
      </trkpt>
      <trkpt lat="44.83191" lon="5.94291">
        <ele>1083</ele>
        <time>2015-07-25T08:59:31Z</time>
      </trkpt>
      <trkpt lat="44.83183" lon="5.94289">
        <ele>1081.3</ele>
        <time>2015-07-25T08:59:36Z</time>
      </trkpt>
      <trkpt lat="44.83175" lon="5.94288">
        <ele>1081.9</ele>
        <time>2015-07-25T08:59:41Z</time>
      </trkpt>
      <trkpt lat="44.83167" lon="5.94284">
        <ele>1081.8</ele>
        <time>2015-07-25T08:59:46Z</time>
      </trkpt>
      <trkpt lat="44.83158" lon="5.94281">
        <ele>1081.7</ele>
        <time>2015-07-25T08:59:51Z</time>
      </trkpt>
      <trkpt lat="44.83151" lon="5.94282">
        <ele>1078.4</ele>
        <time>2015-07-25T08:59:56Z</time>
      </trkpt>
      <trkpt lat="44.83145" lon="5.94288">
        <ele>1075.7</ele>
        <time>2015-07-25T09:00:01Z</time>
      </trkpt>
      <trkpt lat="44.8314" lon="5.94291">
        <ele>1073</ele>
        <time>2015-07-25T09:00:06Z</time>
      </trkpt>
      <trkpt lat="44.83133" lon="5.94283">
        <ele>1073.4</ele>
        <time>2015-07-25T09:00:11Z</time>
      </trkpt>
      <trkpt lat="44.8313" lon="5.94273">
        <ele>1073.4</ele>
        <time>2015-07-25T09:00:16Z</time>
      </trkpt>
      <trkpt lat="44.83127" lon="5.94265">
        <ele>1073.5</ele>
        <time>2015-07-25T09:00:21Z</time>
      </trkpt>
      <trkpt lat="44.83119" lon="5.94265">
        <ele>1070.5</ele>
        <time>2015-07-25T09:00:26Z</time>
      </trkpt>
      <trkpt lat="44.83111" lon="5.94268">
        <ele>1068.5</ele>
        <time>2015-07-25T09:00:31Z</time>
      </trkpt>
      <trkpt lat="44.83105" lon="5.94272">
        <ele>1066.9</ele>
        <time>2015-07-25T09:00:36Z</time>
      </trkpt>
      <trkpt lat="44.83103" lon="5.94267">
        <ele>1066.3</ele>
        <time>2015-07-25T09:00:41Z</time>
      </trkpt>
      <trkpt lat="44.83103" lon="5.94257">
        <ele>1068.2</ele>
        <time>2015-07-25T09:00:46Z</time>
      </trkpt>
      <trkpt lat="44.83103" lon="5.94246">
        <ele>1069.8</ele>
        <time>2015-07-25T09:00:51Z</time>
      </trkpt>
      <trkpt lat="44.83103" lon="5.94238">
        <ele>1069.4</ele>
        <time>2015-07-25T09:00:56Z</time>
      </trkpt>
      <trkpt lat="44.83103" lon="5.94231">
        <ele>1064.4</ele>
        <time>2015-07-25T09:01:01Z</time>
      </trkpt>
      <trkpt lat="44.83109" lon="5.94222">
        <ele>1065.3</ele>
        <time>2015-07-25T09:01:06Z</time>
      </trkpt>
      <trkpt lat="44.83113" lon="5.94211">
        <ele>1066.4</ele>
        <time>2015-07-25T09:01:11Z</time>
      </trkpt>
      <trkpt lat="44.83112" lon="5.94199">
        <ele>1072.5</ele>
        <time>2015-07-25T09:01:16Z</time>
      </trkpt>
      <trkpt lat="44.83117" lon="5.94191">
        <ele>1075.9</ele>
        <time>2015-07-25T09:01:21Z</time>
      </trkpt>
      <trkpt lat="44.83118" lon="5.9418">
        <ele>1077.4</ele>
        <time>2015-07-25T09:01:26Z</time>
      </trkpt>
      <trkpt lat="44.83111" lon="5.94171">
        <ele>1073.5</ele>
        <time>2015-07-25T09:01:31Z</time>
      </trkpt>
      <trkpt lat="44.83112" lon="5.94162">
        <ele>1065.9</ele>
        <time>2015-07-25T09:01:36Z</time>
      </trkpt>
      <trkpt lat="44.83112" lon="5.94156">
        <ele>1060</ele>
        <time>2015-07-25T09:01:41Z</time>
      </trkpt>
      <trkpt lat="44.8311" lon="5.94147">
        <ele>1059.3</ele>
        <time>2015-07-25T09:01:46Z</time>
      </trkpt>
      <trkpt lat="44.83108" lon="5.94138">
        <ele>1055</ele>
        <time>2015-07-25T09:01:51Z</time>
      </trkpt>
      <trkpt lat="44.83104" lon="5.94129">
        <ele>1051</ele>
        <time>2015-07-25T09:01:56Z</time>
      </trkpt>
      <trkpt lat="44.83099" lon="5.94119">
        <ele>1046.4</ele>
        <time>2015-07-25T09:02:01Z</time>
      </trkpt>
      <trkpt lat="44.83094" lon="5.9411">
        <ele>1044.6</ele>
        <time>2015-07-25T09:02:06Z</time>
      </trkpt>
      <trkpt lat="44.8309" lon="5.94101">
        <ele>1045.6</ele>
        <time>2015-07-25T09:02:11Z</time>
      </trkpt>
      <trkpt lat="44.83086" lon="5.94092">
        <ele>1046.3</ele>
        <time>2015-07-25T09:02:16Z</time>
      </trkpt>
      <trkpt lat="44.8308" lon="5.94084">
        <ele>1044.3</ele>
        <time>2015-07-25T09:02:21Z</time>
      </trkpt>
      <trkpt lat="44.83077" lon="5.94074">
        <ele>1043.7</ele>
        <time>2015-07-25T09:02:26Z</time>
      </trkpt>
      <trkpt lat="44.83073" lon="5.94067">
        <ele>1041.9</ele>
        <time>2015-07-25T09:02:31Z</time>
      </trkpt>
      <trkpt lat="44.8307" lon="5.94062">
        <ele>1039.2</ele>
        <time>2015-07-25T09:02:36Z</time>
      </trkpt>
      <trkpt lat="44.83063" lon="5.94057">
        <ele>1034.7</ele>
        <time>2015-07-25T09:02:41Z</time>
      </trkpt>
      <trkpt lat="44.83057" lon="5.94053">
        <ele>1030.3</ele>
        <time>2015-07-25T09:02:46Z</time>
      </trkpt>
      <trkpt lat="44.83053" lon="5.94045">
        <ele>1029.6</ele>
        <time>2015-07-25T09:02:51Z</time>
      </trkpt>
      <trkpt lat="44.83048" lon="5.94036">
        <ele>1030.8</ele>
        <time>2015-07-25T09:02:56Z</time>
      </trkpt>
      <trkpt lat="44.83044" lon="5.9403">
        <ele>1028.6</ele>
        <time>2015-07-25T09:03:01Z</time>
      </trkpt>
      <trkpt lat="44.8304" lon="5.94021">
        <ele>1029.3</ele>
        <time>2015-07-25T09:03:06Z</time>
      </trkpt>
      <trkpt lat="44.83038" lon="5.94016">
        <ele>1026.4</ele>
        <time>2015-07-25T09:03:11Z</time>
      </trkpt>
      <trkpt lat="44.83032" lon="5.94006">
        <ele>1025.1</ele>
        <time>2015-07-25T09:03:16Z</time>
      </trkpt>
      <trkpt lat="44.83024" lon="5.93999">
        <ele>1022.3</ele>
        <time>2015-07-25T09:03:21Z</time>
      </trkpt>
      <trkpt lat="44.83016" lon="5.93992">
        <ele>1023.5</ele>
        <time>2015-07-25T09:03:26Z</time>
      </trkpt>
      <trkpt lat="44.83012" lon="5.93985">
        <ele>1023.4</ele>
        <time>2015-07-25T09:03:31Z</time>
      </trkpt>
      <trkpt lat="44.83007" lon="5.93979">
        <ele>1021.3</ele>
        <time>2015-07-25T09:03:36Z</time>
      </trkpt>
      <trkpt lat="44.82999" lon="5.9397">
        <ele>1021.2</ele>
        <time>2015-07-25T09:03:41Z</time>
      </trkpt>
      <trkpt lat="44.82994" lon="5.93964">
        <ele>1021.3</ele>
        <time>2015-07-25T09:03:46Z</time>
      </trkpt>
      <trkpt lat="44.82987" lon="5.93959">
        <ele>1020.3</ele>
        <time>2015-07-25T09:03:51Z</time>
      </trkpt>
      <trkpt lat="44.82979" lon="5.93952">
        <ele>1020.2</ele>
        <time>2015-07-25T09:03:56Z</time>
      </trkpt>
      <trkpt lat="44.82972" lon="5.93949">
        <ele>1018.8</ele>
        <time>2015-07-25T09:04:01Z</time>
      </trkpt>
      <trkpt lat="44.82965" lon="5.93944">
        <ele>1019.1</ele>
        <time>2015-07-25T09:04:06Z</time>
      </trkpt>
      <trkpt lat="44.82958" lon="5.9394">
        <ele>1017.1</ele>
        <time>2015-07-25T09:04:11Z</time>
      </trkpt>
      <trkpt lat="44.82948" lon="5.93933">
        <ele>1023.9</ele>
        <time>2015-07-25T09:04:16Z</time>
      </trkpt>
      <trkpt lat="44.82937" lon="5.9393">
        <ele>1027.9</ele>
        <time>2015-07-25T09:04:21Z</time>
      </trkpt>
      <trkpt lat="44.82928" lon="5.93929">
        <ele>1030.2</ele>
        <time>2015-07-25T09:04:26Z</time>
      </trkpt>
      <trkpt lat="44.82924" lon="5.93925">
        <ele>1027.5</ele>
        <time>2015-07-25T09:04:31Z</time>
      </trkpt>
      <trkpt lat="44.82923" lon="5.93917">
        <ele>1022.6</ele>
        <time>2015-07-25T09:04:36Z</time>
      </trkpt>
      <trkpt lat="44.82924" lon="5.93911">
        <ele>1020.8</ele>
        <time>2015-07-25T09:04:41Z</time>
      </trkpt>
      <trkpt lat="44.82924" lon="5.93904">
        <ele>1018.3</ele>
        <time>2015-07-25T09:04:46Z</time>
      </trkpt>
      <trkpt lat="44.8292" lon="5.93902">
        <ele>1018.3</ele>
        <time>2015-07-25T09:04:51Z</time>
      </trkpt>
      <trkpt lat="44.8292" lon="5.93899">
        <ele>1015.3</ele>
        <time>2015-07-25T09:04:56Z</time>
      </trkpt>
      <trkpt lat="44.8292" lon="5.93899">
        <ele>1013.6</ele>
        <time>2015-07-25T09:05:01Z</time>
      </trkpt>
      <trkpt lat="44.82917" lon="5.93899">
        <ele>1014.4</ele>
        <time>2015-07-25T09:05:06Z</time>
      </trkpt>
      <trkpt lat="44.82912" lon="5.93904">
        <ele>1013.3</ele>
        <time>2015-07-25T09:05:11Z</time>
      </trkpt>
      <trkpt lat="44.82907" lon="5.93907">
        <ele>1011.3</ele>
        <time>2015-07-25T09:05:16Z</time>
      </trkpt>
      <trkpt lat="44.82902" lon="5.93911">
        <ele>1012</ele>
        <time>2015-07-25T09:05:21Z</time>
      </trkpt>
      <trkpt lat="44.829" lon="5.93918">
        <ele>1010.3</ele>
        <time>2015-07-25T09:05:26Z</time>
      </trkpt>
      <trkpt lat="44.82896" lon="5.93926">
        <ele>1008.9</ele>
        <time>2015-07-25T09:05:31Z</time>
      </trkpt>
      <trkpt lat="44.82892" lon="5.93935">
        <ele>1006.1</ele>
        <time>2015-07-25T09:05:36Z</time>
      </trkpt>
      <trkpt lat="44.82887" lon="5.93943">
        <ele>1005.9</ele>
        <time>2015-07-25T09:05:41Z</time>
      </trkpt>
      <trkpt lat="44.82884" lon="5.93954">
        <ele>1006.3</ele>
        <time>2015-07-25T09:05:46Z</time>
      </trkpt>
      <trkpt lat="44.8288" lon="5.93964">
        <ele>1005.5</ele>
        <time>2015-07-25T09:05:51Z</time>
      </trkpt>
      <trkpt lat="44.82878" lon="5.93974">
        <ele>1005.1</ele>
        <time>2015-07-25T09:05:56Z</time>
      </trkpt>
      <trkpt lat="44.82875" lon="5.93983">
        <ele>1005</ele>
        <time>2015-07-25T09:06:01Z</time>
      </trkpt>
      <trkpt lat="44.82871" lon="5.93992">
        <ele>1004.5</ele>
        <time>2015-07-25T09:06:06Z</time>
      </trkpt>
      <trkpt lat="44.82868" lon="5.94">
        <ele>1003.9</ele>
        <time>2015-07-25T09:06:11Z</time>
      </trkpt>
      <trkpt lat="44.82863" lon="5.94009">
        <ele>1001.8</ele>
        <time>2015-07-25T09:06:16Z</time>
      </trkpt>
      <trkpt lat="44.8286" lon="5.94017">
        <ele>1001.7</ele>
        <time>2015-07-25T09:06:21Z</time>
      </trkpt>
      <trkpt lat="44.82856" lon="5.94027">
        <ele>1001.7</ele>
        <time>2015-07-25T09:06:26Z</time>
      </trkpt>
      <trkpt lat="44.82854" lon="5.94035">
        <ele>1001.2</ele>
        <time>2015-07-25T09:06:31Z</time>
      </trkpt>
      <trkpt lat="44.8285" lon="5.94043">
        <ele>1001.2</ele>
        <time>2015-07-25T09:06:36Z</time>
      </trkpt>
      <trkpt lat="44.82845" lon="5.9405">
        <ele>1003.3</ele>
        <time>2015-07-25T09:06:41Z</time>
      </trkpt>
      <trkpt lat="44.82841" lon="5.9406">
        <ele>1003.2</ele>
        <time>2015-07-25T09:06:46Z</time>
      </trkpt>
      <trkpt lat="44.82837" lon="5.94068">
        <ele>1002.2</ele>
        <time>2015-07-25T09:06:51Z</time>
      </trkpt>
      <trkpt lat="44.82834" lon="5.94077">
        <ele>1001.3</ele>
        <time>2015-07-25T09:06:56Z</time>
      </trkpt>
      <trkpt lat="44.82829" lon="5.94082">
        <ele>1000.6</ele>
        <time>2015-07-25T09:07:01Z</time>
      </trkpt>
      <trkpt lat="44.82824" lon="5.94091">
        <ele>1001</ele>
        <time>2015-07-25T09:07:06Z</time>
      </trkpt>
      <trkpt lat="44.8282" lon="5.94099">
        <ele>1000.5</ele>
        <time>2015-07-25T09:07:11Z</time>
      </trkpt>
      <trkpt lat="44.82817" lon="5.9411">
        <ele>1001.5</ele>
        <time>2015-07-25T09:07:16Z</time>
      </trkpt>
      <trkpt lat="44.82816" lon="5.9412">
        <ele>999.9</ele>
        <time>2015-07-25T09:07:21Z</time>
      </trkpt>
      <trkpt lat="44.82813" lon="5.94131">
        <ele>998.9</ele>
        <time>2015-07-25T09:07:26Z</time>
      </trkpt>
      <trkpt lat="44.82811" lon="5.94141">
        <ele>996</ele>
        <time>2015-07-25T09:07:31Z</time>
      </trkpt>
      <trkpt lat="44.82805" lon="5.9415">
        <ele>997.7</ele>
        <time>2015-07-25T09:07:36Z</time>
      </trkpt>
      <trkpt lat="44.828" lon="5.94156">
        <ele>997.1</ele>
        <time>2015-07-25T09:07:41Z</time>
      </trkpt>
      <trkpt lat="44.82795" lon="5.94164">
        <ele>996.6</ele>
        <time>2015-07-25T09:07:46Z</time>
      </trkpt>
      <trkpt lat="44.82791" lon="5.94173">
        <ele>995</ele>
        <time>2015-07-25T09:07:51Z</time>
      </trkpt>
      <trkpt lat="44.8279" lon="5.94182">
        <ele>992</ele>
        <time>2015-07-25T09:07:56Z</time>
      </trkpt>
      <trkpt lat="44.82786" lon="5.94193">
        <ele>994.7</ele>
        <time>2015-07-25T09:08:01Z</time>
      </trkpt>
      <trkpt lat="44.82781" lon="5.942">
        <ele>998.4</ele>
        <time>2015-07-25T09:08:06Z</time>
      </trkpt>
      <trkpt lat="44.82777" lon="5.94209">
        <ele>997.9</ele>
        <time>2015-07-25T09:08:11Z</time>
      </trkpt>
      <trkpt lat="44.82774" lon="5.94215">
        <ele>999.6</ele>
        <time>2015-07-25T09:08:16Z</time>
      </trkpt>
      <trkpt lat="44.8277" lon="5.94222">
        <ele>1001</ele>
        <time>2015-07-25T09:08:21Z</time>
      </trkpt>
      <trkpt lat="44.82764" lon="5.94232">
        <ele>1001</ele>
        <time>2015-07-25T09:08:26Z</time>
      </trkpt>
      <trkpt lat="44.82761" lon="5.94241">
        <ele>995.8</ele>
        <time>2015-07-25T09:08:31Z</time>
      </trkpt>
      <trkpt lat="44.82755" lon="5.94249">
        <ele>994</ele>
        <time>2015-07-25T09:08:36Z</time>
      </trkpt>
      <trkpt lat="44.82751" lon="5.94257">
        <ele>994.5</ele>
        <time>2015-07-25T09:08:41Z</time>
      </trkpt>
      <trkpt lat="44.82745" lon="5.94262">
        <ele>992.8</ele>
        <time>2015-07-25T09:08:46Z</time>
      </trkpt>
      <trkpt lat="44.82739" lon="5.94269">
        <ele>993</ele>
        <time>2015-07-25T09:08:51Z</time>
      </trkpt>
      <trkpt lat="44.82734" lon="5.94275">
        <ele>992.1</ele>
        <time>2015-07-25T09:08:56Z</time>
      </trkpt>
      <trkpt lat="44.8273" lon="5.94279">
        <ele>991.5</ele>
        <time>2015-07-25T09:09:01Z</time>
      </trkpt>
      <trkpt lat="44.82723" lon="5.94286">
        <ele>992.2</ele>
        <time>2015-07-25T09:09:06Z</time>
      </trkpt>
      <trkpt lat="44.82713" lon="5.9429">
        <ele>998.5</ele>
        <time>2015-07-25T09:09:11Z</time>
      </trkpt>
      <trkpt lat="44.82706" lon="5.94295">
        <ele>998.8</ele>
        <time>2015-07-25T09:09:16Z</time>
      </trkpt>
      <trkpt lat="44.82702" lon="5.94303">
        <ele>996.7</ele>
        <time>2015-07-25T09:09:21Z</time>
      </trkpt>
      <trkpt lat="44.82702" lon="5.94313">
        <ele>990.7</ele>
        <time>2015-07-25T09:09:26Z</time>
      </trkpt>
      <trkpt lat="44.82701" lon="5.94317">
        <ele>986.4</ele>
        <time>2015-07-25T09:09:31Z</time>
      </trkpt>
      <trkpt lat="44.827" lon="5.94319">
        <ele>984.2</ele>
        <time>2015-07-25T09:09:36Z</time>
      </trkpt>
      <trkpt lat="44.82701" lon="5.94325">
        <ele>982.6</ele>
        <time>2015-07-25T09:09:41Z</time>
      </trkpt>
      <trkpt lat="44.82701" lon="5.94333">
        <ele>981</ele>
        <time>2015-07-25T09:09:46Z</time>
      </trkpt>
      <trkpt lat="44.82699" lon="5.94339">
        <ele>979.7</ele>
        <time>2015-07-25T09:09:51Z</time>
      </trkpt>
      <trkpt lat="44.827" lon="5.94339">
        <ele>981.5</ele>
        <time>2015-07-25T09:09:56Z</time>
      </trkpt>
      <trkpt lat="44.82701" lon="5.94339">
        <ele>979.7</ele>
        <time>2015-07-25T09:10:01Z</time>
      </trkpt>
      <trkpt lat="44.82698" lon="5.94342">
        <ele>986.6</ele>
        <time>2015-07-25T09:10:06Z</time>
      </trkpt>
      <trkpt lat="44.82699" lon="5.94348">
        <ele>988.4</ele>
        <time>2015-07-25T09:10:11Z</time>
      </trkpt>
      <trkpt lat="44.82702" lon="5.94357">
        <ele>985.2</ele>
        <time>2015-07-25T09:10:16Z</time>
      </trkpt>
      <trkpt lat="44.82704" lon="5.94365">
        <ele>984.1</ele>
        <time>2015-07-25T09:10:21Z</time>
      </trkpt>
      <trkpt lat="44.82705" lon="5.94373">
        <ele>985.7</ele>
        <time>2015-07-25T09:10:26Z</time>
      </trkpt>
      <trkpt lat="44.82708" lon="5.94383">
        <ele>988.6</ele>
        <time>2015-07-25T09:10:31Z</time>
      </trkpt>
      <trkpt lat="44.82709" lon="5.94393">
        <ele>987.6</ele>
        <time>2015-07-25T09:10:36Z</time>
      </trkpt>
      <trkpt lat="44.8271" lon="5.94401">
        <ele>990.5</ele>
        <time>2015-07-25T09:10:41Z</time>
      </trkpt>
      <trkpt lat="44.82713" lon="5.94412">
        <ele>991.4</ele>
        <time>2015-07-25T09:10:46Z</time>
      </trkpt>
      <trkpt lat="44.82717" lon="5.94419">
        <ele>986.8</ele>
        <time>2015-07-25T09:10:51Z</time>
      </trkpt>
      <trkpt lat="44.82721" lon="5.9443">
        <ele>985.6</ele>
        <time>2015-07-25T09:10:57Z</time>
      </trkpt>
      <trkpt lat="44.82722" lon="5.94439">
        <ele>982.7</ele>
        <time>2015-07-25T09:11:02Z</time>
      </trkpt>
      <trkpt lat="44.82721" lon="5.94448">
        <ele>981</ele>
        <time>2015-07-25T09:11:07Z</time>
      </trkpt>
      <trkpt lat="44.8272" lon="5.94463">
        <ele>979</ele>
        <time>2015-07-25T09:11:15Z</time>
      </trkpt>
      <trkpt lat="44.82719" lon="5.94474">
        <ele>977.4</ele>
        <time>2015-07-25T09:11:20Z</time>
      </trkpt>
      <trkpt lat="44.82717" lon="5.94484">
        <ele>977.3</ele>
        <time>2015-07-25T09:11:25Z</time>
      </trkpt>
      <trkpt lat="44.82715" lon="5.94494">
        <ele>975.7</ele>
        <time>2015-07-25T09:11:30Z</time>
      </trkpt>
      <trkpt lat="44.82712" lon="5.94505">
        <ele>977.6</ele>
        <time>2015-07-25T09:11:35Z</time>
      </trkpt>
      <trkpt lat="44.8271" lon="5.94515">
        <ele>976.8</ele>
        <time>2015-07-25T09:11:40Z</time>
      </trkpt>
      <trkpt lat="44.82708" lon="5.94524">
        <ele>976.2</ele>
        <time>2015-07-25T09:11:45Z</time>
      </trkpt>
      <trkpt lat="44.82705" lon="5.94533">
        <ele>975.4</ele>
        <time>2015-07-25T09:11:50Z</time>
      </trkpt>
      <trkpt lat="44.82703" lon="5.94541">
        <ele>975.1</ele>
        <time>2015-07-25T09:11:55Z</time>
      </trkpt>
      <trkpt lat="44.82701" lon="5.9455">
        <ele>973.3</ele>
        <time>2015-07-25T09:12:00Z</time>
      </trkpt>
      <trkpt lat="44.82699" lon="5.94559">
        <ele>971.1</ele>
        <time>2015-07-25T09:12:05Z</time>
      </trkpt>
      <trkpt lat="44.82695" lon="5.94569">
        <ele>971</ele>
        <time>2015-07-25T09:12:10Z</time>
      </trkpt>
      <trkpt lat="44.82692" lon="5.94578">
        <ele>970.7</ele>
        <time>2015-07-25T09:12:15Z</time>
      </trkpt>
      <trkpt lat="44.82689" lon="5.94589">
        <ele>971.3</ele>
        <time>2015-07-25T09:12:20Z</time>
      </trkpt>
      <trkpt lat="44.82684" lon="5.94598">
        <ele>972.3</ele>
        <time>2015-07-25T09:12:25Z</time>
      </trkpt>
      <trkpt lat="44.82681" lon="5.94607">
        <ele>971.4</ele>
        <time>2015-07-25T09:12:30Z</time>
      </trkpt>
      <trkpt lat="44.82676" lon="5.94613">
        <ele>969.6</ele>
        <time>2015-07-25T09:12:35Z</time>
      </trkpt>
      <trkpt lat="44.82671" lon="5.94609">
        <ele>963.7</ele>
        <time>2015-07-25T09:12:40Z</time>
      </trkpt>
      <trkpt lat="44.82665" lon="5.94603">
        <ele>958.9</ele>
        <time>2015-07-25T09:12:45Z</time>
      </trkpt>
      <trkpt lat="44.82657" lon="5.94601">
        <ele>955.4</ele>
        <time>2015-07-25T09:12:50Z</time>
      </trkpt>
      <trkpt lat="44.82651" lon="5.94598">
        <ele>952.5</ele>
        <time>2015-07-25T09:12:55Z</time>
      </trkpt>
      <trkpt lat="44.82646" lon="5.94596">
        <ele>950.9</ele>
        <time>2015-07-25T09:13:00Z</time>
      </trkpt>
      <trkpt lat="44.82639" lon="5.9459">
        <ele>952</ele>
        <time>2015-07-25T09:13:05Z</time>
      </trkpt>
      <trkpt lat="44.82633" lon="5.94587">
        <ele>951.2</ele>
        <time>2015-07-25T09:13:10Z</time>
      </trkpt>
      <trkpt lat="44.82626" lon="5.94586">
        <ele>947.2</ele>
        <time>2015-07-25T09:13:15Z</time>
      </trkpt>
      <trkpt lat="44.82619" lon="5.94586">
        <ele>946.4</ele>
        <time>2015-07-25T09:13:20Z</time>
      </trkpt>
      <trkpt lat="44.82612" lon="5.94584">
        <ele>944.9</ele>
        <time>2015-07-25T09:13:25Z</time>
      </trkpt>
      <trkpt lat="44.82604" lon="5.9458">
        <ele>943.2</ele>
        <time>2015-07-25T09:13:30Z</time>
      </trkpt>
      <trkpt lat="44.82597" lon="5.94578">
        <ele>939.7</ele>
        <time>2015-07-25T09:13:35Z</time>
      </trkpt>
      <trkpt lat="44.82591" lon="5.94574">
        <ele>939.7</ele>
        <time>2015-07-25T09:13:40Z</time>
      </trkpt>
      <trkpt lat="44.8259" lon="5.94574">
        <ele>938.5</ele>
        <time>2015-07-25T09:13:45Z</time>
      </trkpt>
      <trkpt lat="44.82589" lon="5.94576">
        <ele>938.2</ele>
        <time>2015-07-25T09:13:50Z</time>
      </trkpt>
      <trkpt lat="44.82586" lon="5.94575">
        <ele>937.8</ele>
        <time>2015-07-25T09:13:55Z</time>
      </trkpt>
      <trkpt lat="44.82581" lon="5.94573">
        <ele>935.4</ele>
        <time>2015-07-25T09:14:00Z</time>
      </trkpt>
      <trkpt lat="44.82574" lon="5.94573">
        <ele>933.1</ele>
        <time>2015-07-25T09:14:05Z</time>
      </trkpt>
      <trkpt lat="44.82569" lon="5.94575">
        <ele>931.5</ele>
        <time>2015-07-25T09:14:10Z</time>
      </trkpt>
      <trkpt lat="44.82568" lon="5.94574">
        <ele>931.4</ele>
        <time>2015-07-25T09:14:15Z</time>
      </trkpt>
      <trkpt lat="44.82568" lon="5.94573">
        <ele>930.8</ele>
        <time>2015-07-25T09:14:20Z</time>
      </trkpt>
      <trkpt lat="44.82569" lon="5.94574">
        <ele>927.8</ele>
        <time>2015-07-25T09:14:25Z</time>
      </trkpt>
      <trkpt lat="44.82571" lon="5.94575">
        <ele>922.9</ele>
        <time>2015-07-25T09:14:30Z</time>
      </trkpt>
      <trkpt lat="44.82569" lon="5.94575">
        <ele>923.2</ele>
        <time>2015-07-25T09:14:35Z</time>
      </trkpt>
      <trkpt lat="44.8257" lon="5.94575">
        <ele>922.9</ele>
        <time>2015-07-25T09:14:40Z</time>
      </trkpt>
      <trkpt lat="44.8257" lon="5.94575">
        <ele>923.6</ele>
        <time>2015-07-25T09:14:45Z</time>
      </trkpt>
      <trkpt lat="44.82574" lon="5.94575">
        <ele>920.2</ele>
        <time>2015-07-25T09:14:50Z</time>
      </trkpt>
      <trkpt lat="44.82575" lon="5.94575">
        <ele>921.5</ele>
        <time>2015-07-25T09:14:55Z</time>
      </trkpt>
      <trkpt lat="44.82572" lon="5.94576">
        <ele>924.3</ele>
        <time>2015-07-25T09:15:00Z</time>
      </trkpt>
      <trkpt lat="44.8257" lon="5.94577">
        <ele>927.9</ele>
        <time>2015-07-25T09:15:05Z</time>
      </trkpt>
      <trkpt lat="44.82568" lon="5.94579">
        <ele>930.3</ele>
        <time>2015-07-25T09:15:10Z</time>
      </trkpt>
      <trkpt lat="44.82568" lon="5.94579">
        <ele>932.3</ele>
        <time>2015-07-25T09:15:15Z</time>
      </trkpt>
      <trkpt lat="44.82565" lon="5.94579">
        <ele>933.2</ele>
        <time>2015-07-25T09:15:20Z</time>
      </trkpt>
      <trkpt lat="44.82563" lon="5.94577">
        <ele>936.4</ele>
        <time>2015-07-25T09:15:25Z</time>
      </trkpt>
      <trkpt lat="44.8256" lon="5.94581">
        <ele>937.4</ele>
        <time>2015-07-25T09:15:30Z</time>
      </trkpt>
      <trkpt lat="44.82559" lon="5.94578">
        <ele>937.5</ele>
        <time>2015-07-25T09:15:35Z</time>
      </trkpt>
      <trkpt lat="44.82554" lon="5.94578">
        <ele>940.3</ele>
        <time>2015-07-25T09:15:40Z</time>
      </trkpt>
      <trkpt lat="44.82549" lon="5.9458">
        <ele>939.2</ele>
        <time>2015-07-25T09:15:45Z</time>
      </trkpt>
      <trkpt lat="44.82543" lon="5.94579">
        <ele>940.3</ele>
        <time>2015-07-25T09:15:50Z</time>
      </trkpt>
      <trkpt lat="44.82537" lon="5.94577">
        <ele>936</ele>
        <time>2015-07-25T09:15:55Z</time>
      </trkpt>
      <trkpt lat="44.82531" lon="5.94576">
        <ele>935.4</ele>
        <time>2015-07-25T09:16:00Z</time>
      </trkpt>
      <trkpt lat="44.82524" lon="5.94579">
        <ele>934.5</ele>
        <time>2015-07-25T09:16:05Z</time>
      </trkpt>
      <trkpt lat="44.82517" lon="5.94581">
        <ele>934.2</ele>
        <time>2015-07-25T09:16:10Z</time>
      </trkpt>
      <trkpt lat="44.8251" lon="5.94585">
        <ele>929.3</ele>
        <time>2015-07-25T09:16:15Z</time>
      </trkpt>
      <trkpt lat="44.82505" lon="5.9459">
        <ele>925.4</ele>
        <time>2015-07-25T09:16:20Z</time>
      </trkpt>
      <trkpt lat="44.825" lon="5.94594">
        <ele>923.1</ele>
        <time>2015-07-25T09:16:25Z</time>
      </trkpt>
      <trkpt lat="44.82494" lon="5.94599">
        <ele>919.4</ele>
        <time>2015-07-25T09:16:30Z</time>
      </trkpt>
      <trkpt lat="44.82488" lon="5.94606">
        <ele>920</ele>
        <time>2015-07-25T09:16:35Z</time>
      </trkpt>
      <trkpt lat="44.82483" lon="5.94611">
        <ele>918.9</ele>
        <time>2015-07-25T09:16:40Z</time>
      </trkpt>
      <trkpt lat="44.82475" lon="5.94617">
        <ele>918.3</ele>
        <time>2015-07-25T09:16:45Z</time>
      </trkpt>
      <trkpt lat="44.8247" lon="5.94622">
        <ele>915.2</ele>
        <time>2015-07-25T09:16:50Z</time>
      </trkpt>
      <trkpt lat="44.82461" lon="5.94625">
        <ele>915.8</ele>
        <time>2015-07-25T09:16:55Z</time>
      </trkpt>
      <trkpt lat="44.82454" lon="5.94628">
        <ele>914.1</ele>
        <time>2015-07-25T09:17:00Z</time>
      </trkpt>
      <trkpt lat="44.82448" lon="5.94632">
        <ele>912.2</ele>
        <time>2015-07-25T09:17:05Z</time>
      </trkpt>
      <trkpt lat="44.82441" lon="5.94636">
        <ele>911.9</ele>
        <time>2015-07-25T09:17:10Z</time>
      </trkpt>
      <trkpt lat="44.82435" lon="5.94641">
        <ele>914</ele>
        <time>2015-07-25T09:17:15Z</time>
      </trkpt>
      <trkpt lat="44.82428" lon="5.94648">
        <ele>915.9</ele>
        <time>2015-07-25T09:17:20Z</time>
      </trkpt>
      <trkpt lat="44.82422" lon="5.94653">
        <ele>916.9</ele>
        <time>2015-07-25T09:17:25Z</time>
      </trkpt>
      <trkpt lat="44.82415" lon="5.94659">
        <ele>914.9</ele>
        <time>2015-07-25T09:17:30Z</time>
      </trkpt>
      <trkpt lat="44.82409" lon="5.94664">
        <ele>910</ele>
        <time>2015-07-25T09:17:35Z</time>
      </trkpt>
      <trkpt lat="44.82403" lon="5.94669">
        <ele>906.3</ele>
        <time>2015-07-25T09:17:40Z</time>
      </trkpt>
      <trkpt lat="44.82396" lon="5.94674">
        <ele>906.4</ele>
        <time>2015-07-25T09:17:45Z</time>
      </trkpt>
      <trkpt lat="44.8239" lon="5.94678">
        <ele>901.1</ele>
        <time>2015-07-25T09:17:50Z</time>
      </trkpt>
      <trkpt lat="44.82385" lon="5.94683">
        <ele>899.7</ele>
        <time>2015-07-25T09:17:55Z</time>
      </trkpt>
      <trkpt lat="44.82382" lon="5.94685">
        <ele>900.7</ele>
        <time>2015-07-25T09:18:00Z</time>
      </trkpt>
      <trkpt lat="44.82374" lon="5.9469">
        <ele>902.7</ele>
        <time>2015-07-25T09:18:05Z</time>
      </trkpt>
      <trkpt lat="44.82369" lon="5.94695">
        <ele>903</ele>
        <time>2015-07-25T09:18:10Z</time>
      </trkpt>
      <trkpt lat="44.82364" lon="5.94701">
        <ele>906.2</ele>
        <time>2015-07-25T09:18:15Z</time>
      </trkpt>
      <trkpt lat="44.82357" lon="5.94706">
        <ele>907.8</ele>
        <time>2015-07-25T09:18:20Z</time>
      </trkpt>
      <trkpt lat="44.82353" lon="5.9471">
        <ele>904.2</ele>
        <time>2015-07-25T09:18:25Z</time>
      </trkpt>
      <trkpt lat="44.82348" lon="5.94711">
        <ele>905.1</ele>
        <time>2015-07-25T09:18:30Z</time>
      </trkpt>
      <trkpt lat="44.82342" lon="5.94715">
        <ele>904.3</ele>
        <time>2015-07-25T09:18:35Z</time>
      </trkpt>
      <trkpt lat="44.82337" lon="5.94724">
        <ele>902.8</ele>
        <time>2015-07-25T09:18:40Z</time>
      </trkpt>
      <trkpt lat="44.82335" lon="5.94731">
        <ele>902.5</ele>
        <time>2015-07-25T09:18:45Z</time>
      </trkpt>
      <trkpt lat="44.82329" lon="5.94741">
        <ele>904.6</ele>
        <time>2015-07-25T09:18:50Z</time>
      </trkpt>
      <trkpt lat="44.82326" lon="5.94748">
        <ele>902.3</ele>
        <time>2015-07-25T09:18:55Z</time>
      </trkpt>
      <trkpt lat="44.82323" lon="5.94758">
        <ele>898.3</ele>
        <time>2015-07-25T09:19:00Z</time>
      </trkpt>
      <trkpt lat="44.8232" lon="5.94767">
        <ele>896.8</ele>
        <time>2015-07-25T09:19:05Z</time>
      </trkpt>
      <trkpt lat="44.82315" lon="5.94778">
        <ele>897.4</ele>
        <time>2015-07-25T09:19:10Z</time>
      </trkpt>
      <trkpt lat="44.82312" lon="5.94791">
        <ele>898.6</ele>
        <time>2015-07-25T09:19:15Z</time>
      </trkpt>
      <trkpt lat="44.82311" lon="5.94802">
        <ele>898.1</ele>
        <time>2015-07-25T09:19:20Z</time>
      </trkpt>
      <trkpt lat="44.82309" lon="5.94813">
        <ele>898.6</ele>
        <time>2015-07-25T09:19:25Z</time>
      </trkpt>
      <trkpt lat="44.82308" lon="5.94824">
        <ele>897.9</ele>
        <time>2015-07-25T09:19:30Z</time>
      </trkpt>
      <trkpt lat="44.82306" lon="5.94835">
        <ele>896.7</ele>
        <time>2015-07-25T09:19:35Z</time>
      </trkpt>
      <trkpt lat="44.82305" lon="5.94846">
        <ele>895.1</ele>
        <time>2015-07-25T09:19:40Z</time>
      </trkpt>
      <trkpt lat="44.82305" lon="5.94853">
        <ele>893.9</ele>
        <time>2015-07-25T09:19:45Z</time>
      </trkpt>
      <trkpt lat="44.82305" lon="5.94855">
        <ele>893.9</ele>
        <time>2015-07-25T09:19:50Z</time>
      </trkpt>
      <trkpt lat="44.82305" lon="5.94858">
        <ele>894.3</ele>
        <time>2015-07-25T09:19:55Z</time>
      </trkpt>
      <trkpt lat="44.82301" lon="5.94861">
        <ele>897.1</ele>
        <time>2015-07-25T09:20:00Z</time>
      </trkpt>
      <trkpt lat="44.823" lon="5.94862">
        <ele>897.4</ele>
        <time>2015-07-25T09:20:05Z</time>
      </trkpt>
      <trkpt lat="44.82299" lon="5.94864">
        <ele>896.3</ele>
        <time>2015-07-25T09:20:10Z</time>
      </trkpt>
      <trkpt lat="44.82299" lon="5.94863">
        <ele>894.9</ele>
        <time>2015-07-25T09:20:15Z</time>
      </trkpt>
      <trkpt lat="44.82299" lon="5.94863">
        <ele>893.5</ele>
        <time>2015-07-25T09:20:20Z</time>
      </trkpt>
      <trkpt lat="44.82298" lon="5.94864">
        <ele>892.5</ele>
        <time>2015-07-25T09:20:25Z</time>
      </trkpt>
      <trkpt lat="44.82292" lon="5.9487">
        <ele>889.3</ele>
        <time>2015-07-25T09:20:30Z</time>
      </trkpt>
      <trkpt lat="44.82291" lon="5.94879">
        <ele>886.2</ele>
        <time>2015-07-25T09:20:35Z</time>
      </trkpt>
      <trkpt lat="44.8229" lon="5.94888">
        <ele>886.7</ele>
        <time>2015-07-25T09:20:40Z</time>
      </trkpt>
      <trkpt lat="44.8229" lon="5.94893">
        <ele>886.5</ele>
        <time>2015-07-25T09:20:45Z</time>
      </trkpt>
      <trkpt lat="44.82293" lon="5.94894">
        <ele>887.3</ele>
        <time>2015-07-25T09:20:50Z</time>
      </trkpt>
      <trkpt lat="44.82292" lon="5.94892">
        <ele>891</ele>
        <time>2015-07-25T09:20:55Z</time>
      </trkpt>
      <trkpt lat="44.8229" lon="5.94891">
        <ele>895.9</ele>
        <time>2015-07-25T09:21:00Z</time>
      </trkpt>
      <trkpt lat="44.8229" lon="5.94889">
        <ele>896.2</ele>
        <time>2015-07-25T09:21:05Z</time>
      </trkpt>
      <trkpt lat="44.82293" lon="5.9489">
        <ele>892.9</ele>
        <time>2015-07-25T09:21:10Z</time>
      </trkpt>
      <trkpt lat="44.82293" lon="5.94894">
        <ele>890</ele>
        <time>2015-07-25T09:21:15Z</time>
      </trkpt>
      <trkpt lat="44.82291" lon="5.94904">
        <ele>890.8</ele>
        <time>2015-07-25T09:21:20Z</time>
      </trkpt>
      <trkpt lat="44.82291" lon="5.94913">
        <ele>891.7</ele>
        <time>2015-07-25T09:21:25Z</time>
      </trkpt>
      <trkpt lat="44.8229" lon="5.94925">
        <ele>894.2</ele>
        <time>2015-07-25T09:21:30Z</time>
      </trkpt>
      <trkpt lat="44.82289" lon="5.94936">
        <ele>893.7</ele>
        <time>2015-07-25T09:21:35Z</time>
      </trkpt>
      <trkpt lat="44.82289" lon="5.94947">
        <ele>893.9</ele>
        <time>2015-07-25T09:21:40Z</time>
      </trkpt>
      <trkpt lat="44.8229" lon="5.94957">
        <ele>894.1</ele>
        <time>2015-07-25T09:21:45Z</time>
      </trkpt>
      <trkpt lat="44.8229" lon="5.94967">
        <ele>893.8</ele>
        <time>2015-07-25T09:21:50Z</time>
      </trkpt>
      <trkpt lat="44.8229" lon="5.94978">
        <ele>894.2</ele>
        <time>2015-07-25T09:21:55Z</time>
      </trkpt>
      <trkpt lat="44.82291" lon="5.94988">
        <ele>894.9</ele>
        <time>2015-07-25T09:22:00Z</time>
      </trkpt>
      <trkpt lat="44.82291" lon="5.94998">
        <ele>894.3</ele>
        <time>2015-07-25T09:22:05Z</time>
      </trkpt>
      <trkpt lat="44.82291" lon="5.95008">
        <ele>894.8</ele>
        <time>2015-07-25T09:22:10Z</time>
      </trkpt>
      <trkpt lat="44.82292" lon="5.95017">
        <ele>894.2</ele>
        <time>2015-07-25T09:22:15Z</time>
      </trkpt>
      <trkpt lat="44.8229" lon="5.95027">
        <ele>899.4</ele>
        <time>2015-07-25T09:22:20Z</time>
      </trkpt>
      <trkpt lat="44.82289" lon="5.95037">
        <ele>901.4</ele>
        <time>2015-07-25T09:22:25Z</time>
      </trkpt>
      <trkpt lat="44.82291" lon="5.95046">
        <ele>899.8</ele>
        <time>2015-07-25T09:22:30Z</time>
      </trkpt>
      <trkpt lat="44.82291" lon="5.95056">
        <ele>898.4</ele>
        <time>2015-07-25T09:22:35Z</time>
      </trkpt>
      <trkpt lat="44.82293" lon="5.95065">
        <ele>897.2</ele>
        <time>2015-07-25T09:22:40Z</time>
      </trkpt>
      <trkpt lat="44.82292" lon="5.95076">
        <ele>899.7</ele>
        <time>2015-07-25T09:22:45Z</time>
      </trkpt>
      <trkpt lat="44.82292" lon="5.95085">
        <ele>901.9</ele>
        <time>2015-07-25T09:22:50Z</time>
      </trkpt>
      <trkpt lat="44.82291" lon="5.95096">
        <ele>905.1</ele>
        <time>2015-07-25T09:22:55Z</time>
      </trkpt>
      <trkpt lat="44.82293" lon="5.95106">
        <ele>901.3</ele>
        <time>2015-07-25T09:23:00Z</time>
      </trkpt>
      <trkpt lat="44.82293" lon="5.95116">
        <ele>901.5</ele>
        <time>2015-07-25T09:23:05Z</time>
      </trkpt>
      <trkpt lat="44.82293" lon="5.95125">
        <ele>904.3</ele>
        <time>2015-07-25T09:23:10Z</time>
      </trkpt>
      <trkpt lat="44.82295" lon="5.95135">
        <ele>903.8</ele>
        <time>2015-07-25T09:23:15Z</time>
      </trkpt>
      <trkpt lat="44.82296" lon="5.95145">
        <ele>903.3</ele>
        <time>2015-07-25T09:23:20Z</time>
      </trkpt>
      <trkpt lat="44.82298" lon="5.95155">
        <ele>901.5</ele>
        <time>2015-07-25T09:23:25Z</time>
      </trkpt>
      <trkpt lat="44.823" lon="5.95165">
        <ele>899.1</ele>
        <time>2015-07-25T09:23:30Z</time>
      </trkpt>
      <trkpt lat="44.82302" lon="5.95175">
        <ele>897.3</ele>
        <time>2015-07-25T09:23:35Z</time>
      </trkpt>
      <trkpt lat="44.82304" lon="5.95186">
        <ele>897.3</ele>
        <time>2015-07-25T09:23:40Z</time>
      </trkpt>
      <trkpt lat="44.82306" lon="5.95196">
        <ele>897.3</ele>
        <time>2015-07-25T09:23:45Z</time>
      </trkpt>
      <trkpt lat="44.82308" lon="5.95207">
        <ele>896.5</ele>
        <time>2015-07-25T09:23:50Z</time>
      </trkpt>
      <trkpt lat="44.82309" lon="5.95218">
        <ele>896</ele>
        <time>2015-07-25T09:23:55Z</time>
      </trkpt>
      <trkpt lat="44.82308" lon="5.95228">
        <ele>896.4</ele>
        <time>2015-07-25T09:24:00Z</time>
      </trkpt>
      <trkpt lat="44.82306" lon="5.95237">
        <ele>897.7</ele>
        <time>2015-07-25T09:24:05Z</time>
      </trkpt>
      <trkpt lat="44.82301" lon="5.95245">
        <ele>900.4</ele>
        <time>2015-07-25T09:24:10Z</time>
      </trkpt>
      <trkpt lat="44.82295" lon="5.9525">
        <ele>901.5</ele>
        <time>2015-07-25T09:24:15Z</time>
      </trkpt>
      <trkpt lat="44.82287" lon="5.95252">
        <ele>906.6</ele>
        <time>2015-07-25T09:24:20Z</time>
      </trkpt>
      <trkpt lat="44.82279" lon="5.95252">
        <ele>908.7</ele>
        <time>2015-07-25T09:24:25Z</time>
      </trkpt>
      <trkpt lat="44.82272" lon="5.9525">
        <ele>912.7</ele>
        <time>2015-07-25T09:24:30Z</time>
      </trkpt>
      <trkpt lat="44.82266" lon="5.95244">
        <ele>917.1</ele>
        <time>2015-07-25T09:24:35Z</time>
      </trkpt>
      <trkpt lat="44.82262" lon="5.95235">
        <ele>916</ele>
        <time>2015-07-25T09:24:40Z</time>
      </trkpt>
      <trkpt lat="44.82265" lon="5.95227">
        <ele>910</ele>
        <time>2015-07-25T09:24:45Z</time>
      </trkpt>
      <trkpt lat="44.82272" lon="5.95219">
        <ele>901.8</ele>
        <time>2015-07-25T09:24:50Z</time>
      </trkpt>
      <trkpt lat="44.82278" lon="5.9521">
        <ele>893.9</ele>
        <time>2015-07-25T09:24:55Z</time>
      </trkpt>
      <trkpt lat="44.82281" lon="5.95202">
        <ele>885.9</ele>
        <time>2015-07-25T09:25:00Z</time>
      </trkpt>
      <trkpt lat="44.82277" lon="5.95192">
        <ele>888.3</ele>
        <time>2015-07-25T09:25:05Z</time>
      </trkpt>
      <trkpt lat="44.82272" lon="5.95183">
        <ele>889.3</ele>
        <time>2015-07-25T09:25:10Z</time>
      </trkpt>
      <trkpt lat="44.82265" lon="5.95173">
        <ele>891</ele>
        <time>2015-07-25T09:25:15Z</time>
      </trkpt>
      <trkpt lat="44.82259" lon="5.95165">
        <ele>892.2</ele>
        <time>2015-07-25T09:25:20Z</time>
      </trkpt>
      <trkpt lat="44.82259" lon="5.95156">
        <ele>889.5</ele>
        <time>2015-07-25T09:25:25Z</time>
      </trkpt>
      <trkpt lat="44.82265" lon="5.95149">
        <ele>883.2</ele>
        <time>2015-07-25T09:25:30Z</time>
      </trkpt>
      <trkpt lat="44.82263" lon="5.95137">
        <ele>895.4</ele>
        <time>2015-07-25T09:25:35Z</time>
      </trkpt>
      <trkpt lat="44.82258" lon="5.95128">
        <ele>897.9</ele>
        <time>2015-07-25T09:25:40Z</time>
      </trkpt>
      <trkpt lat="44.8225" lon="5.9512">
        <ele>898.5</ele>
        <time>2015-07-25T09:25:45Z</time>
      </trkpt>
      <trkpt lat="44.82243" lon="5.95111">
        <ele>898.9</ele>
        <time>2015-07-25T09:25:50Z</time>
      </trkpt>
      <trkpt lat="44.8224" lon="5.95104">
        <ele>903.5</ele>
        <time>2015-07-25T09:25:55Z</time>
      </trkpt>
      <trkpt lat="44.82232" lon="5.95098">
        <ele>903.9</ele>
        <time>2015-07-25T09:26:00Z</time>
      </trkpt>
      <trkpt lat="44.82226" lon="5.9509">
        <ele>904</ele>
        <time>2015-07-25T09:26:05Z</time>
      </trkpt>
      <trkpt lat="44.82222" lon="5.95081">
        <ele>904.3</ele>
        <time>2015-07-25T09:26:10Z</time>
      </trkpt>
      <trkpt lat="44.82216" lon="5.95076">
        <ele>907.5</ele>
        <time>2015-07-25T09:26:15Z</time>
      </trkpt>
      <trkpt lat="44.82212" lon="5.95066">
        <ele>905.5</ele>
        <time>2015-07-25T09:26:20Z</time>
      </trkpt>
      <trkpt lat="44.82205" lon="5.95058">
        <ele>905.4</ele>
        <time>2015-07-25T09:26:25Z</time>
      </trkpt>
      <trkpt lat="44.82201" lon="5.9505">
        <ele>905.3</ele>
        <time>2015-07-25T09:26:30Z</time>
      </trkpt>
      <trkpt lat="44.822" lon="5.95042">
        <ele>907.5</ele>
        <time>2015-07-25T09:26:35Z</time>
      </trkpt>
      <trkpt lat="44.822" lon="5.95033">
        <ele>909</ele>
        <time>2015-07-25T09:26:40Z</time>
      </trkpt>
      <trkpt lat="44.82192" lon="5.95026">
        <ele>909.3</ele>
        <time>2015-07-25T09:26:45Z</time>
      </trkpt>
      <trkpt lat="44.82187" lon="5.95018">
        <ele>909.6</ele>
        <time>2015-07-25T09:26:50Z</time>
      </trkpt>
      <trkpt lat="44.8218" lon="5.95011">
        <ele>907.4</ele>
        <time>2015-07-25T09:26:55Z</time>
      </trkpt>
      <trkpt lat="44.82175" lon="5.95003">
        <ele>907.5</ele>
        <time>2015-07-25T09:27:00Z</time>
      </trkpt>
      <trkpt lat="44.8217" lon="5.94994">
        <ele>906.5</ele>
        <time>2015-07-25T09:27:05Z</time>
      </trkpt>
      <trkpt lat="44.82164" lon="5.94987">
        <ele>905.6</ele>
        <time>2015-07-25T09:27:10Z</time>
      </trkpt>
      <trkpt lat="44.8216" lon="5.94979">
        <ele>905.5</ele>
        <time>2015-07-25T09:27:15Z</time>
      </trkpt>
      <trkpt lat="44.82154" lon="5.94973">
        <ele>908.2</ele>
        <time>2015-07-25T09:27:20Z</time>
      </trkpt>
      <trkpt lat="44.8215" lon="5.94967">
        <ele>908.9</ele>
        <time>2015-07-25T09:27:25Z</time>
      </trkpt>
      <trkpt lat="44.82144" lon="5.9496">
        <ele>912.4</ele>
        <time>2015-07-25T09:27:30Z</time>
      </trkpt>
      <trkpt lat="44.82138" lon="5.94953">
        <ele>915.2</ele>
        <time>2015-07-25T09:27:35Z</time>
      </trkpt>
      <trkpt lat="44.82135" lon="5.94945">
        <ele>912</ele>
        <time>2015-07-25T09:27:40Z</time>
      </trkpt>
      <trkpt lat="44.82133" lon="5.94938">
        <ele>914.2</ele>
        <time>2015-07-25T09:27:45Z</time>
      </trkpt>
      <trkpt lat="44.82133" lon="5.94929">
        <ele>914.4</ele>
        <time>2015-07-25T09:27:50Z</time>
      </trkpt>
      <trkpt lat="44.8213" lon="5.9492">
        <ele>915.3</ele>
        <time>2015-07-25T09:27:55Z</time>
      </trkpt>
      <trkpt lat="44.82133" lon="5.94907">
        <ele>913.6</ele>
        <time>2015-07-25T09:28:00Z</time>
      </trkpt>
      <trkpt lat="44.82127" lon="5.94898">
        <ele>915.4</ele>
        <time>2015-07-25T09:28:05Z</time>
      </trkpt>
      <trkpt lat="44.82123" lon="5.94891">
        <ele>917.5</ele>
        <time>2015-07-25T09:28:10Z</time>
      </trkpt>
      <trkpt lat="44.8212" lon="5.94884">
        <ele>919.4</ele>
        <time>2015-07-25T09:28:15Z</time>
      </trkpt>
      <trkpt lat="44.82115" lon="5.94877">
        <ele>920.6</ele>
        <time>2015-07-25T09:28:20Z</time>
      </trkpt>
      <trkpt lat="44.82112" lon="5.94864">
        <ele>919.5</ele>
        <time>2015-07-25T09:28:25Z</time>
      </trkpt>
      <trkpt lat="44.82105" lon="5.94856">
        <ele>918.6</ele>
        <time>2015-07-25T09:28:30Z</time>
      </trkpt>
      <trkpt lat="44.82102" lon="5.94847">
        <ele>917.8</ele>
        <time>2015-07-25T09:28:35Z</time>
      </trkpt>
      <trkpt lat="44.82097" lon="5.94838">
        <ele>916.8</ele>
        <time>2015-07-25T09:28:40Z</time>
      </trkpt>
      <trkpt lat="44.82093" lon="5.94829">
        <ele>917.2</ele>
        <time>2015-07-25T09:28:45Z</time>
      </trkpt>
      <trkpt lat="44.8209" lon="5.94821">
        <ele>918.1</ele>
        <time>2015-07-25T09:28:50Z</time>
      </trkpt>
      <trkpt lat="44.82086" lon="5.94813">
        <ele>919.6</ele>
        <time>2015-07-25T09:28:55Z</time>
      </trkpt>
      <trkpt lat="44.82082" lon="5.94806">
        <ele>920.3</ele>
        <time>2015-07-25T09:29:00Z</time>
      </trkpt>
      <trkpt lat="44.82077" lon="5.948">
        <ele>921.9</ele>
        <time>2015-07-25T09:29:05Z</time>
      </trkpt>
      <trkpt lat="44.82074" lon="5.9479">
        <ele>920.8</ele>
        <time>2015-07-25T09:29:10Z</time>
      </trkpt>
      <trkpt lat="44.82072" lon="5.94779">
        <ele>921.9</ele>
        <time>2015-07-25T09:29:15Z</time>
      </trkpt>
      <trkpt lat="44.82071" lon="5.9477">
        <ele>923.4</ele>
        <time>2015-07-25T09:29:20Z</time>
      </trkpt>
      <trkpt lat="44.82069" lon="5.9476">
        <ele>920.3</ele>
        <time>2015-07-25T09:29:25Z</time>
      </trkpt>
      <trkpt lat="44.82068" lon="5.9475">
        <ele>919.8</ele>
        <time>2015-07-25T09:29:30Z</time>
      </trkpt>
      <trkpt lat="44.82066" lon="5.94741">
        <ele>918</ele>
        <time>2015-07-25T09:29:35Z</time>
      </trkpt>
      <trkpt lat="44.82062" lon="5.94731">
        <ele>916.9</ele>
        <time>2015-07-25T09:29:40Z</time>
      </trkpt>
      <trkpt lat="44.82057" lon="5.94724">
        <ele>919.2</ele>
        <time>2015-07-25T09:29:45Z</time>
      </trkpt>
      <trkpt lat="44.82052" lon="5.94716">
        <ele>921.8</ele>
        <time>2015-07-25T09:29:50Z</time>
      </trkpt>
      <trkpt lat="44.82048" lon="5.94708">
        <ele>923</ele>
        <time>2015-07-25T09:29:55Z</time>
      </trkpt>
      <trkpt lat="44.82044" lon="5.94701">
        <ele>924.3</ele>
        <time>2015-07-25T09:30:00Z</time>
      </trkpt>
      <trkpt lat="44.82042" lon="5.94692">
        <ele>925.1</ele>
        <time>2015-07-25T09:30:05Z</time>
      </trkpt>
      <trkpt lat="44.82039" lon="5.94684">
        <ele>926.4</ele>
        <time>2015-07-25T09:30:10Z</time>
      </trkpt>
      <trkpt lat="44.82037" lon="5.94675">
        <ele>927.4</ele>
        <time>2015-07-25T09:30:15Z</time>
      </trkpt>
      <trkpt lat="44.82034" lon="5.94665">
        <ele>927.5</ele>
        <time>2015-07-25T09:30:20Z</time>
      </trkpt>
      <trkpt lat="44.82032" lon="5.94656">
        <ele>929</ele>
        <time>2015-07-25T09:30:25Z</time>
      </trkpt>
      <trkpt lat="44.82029" lon="5.94647">
        <ele>929.2</ele>
        <time>2015-07-25T09:30:30Z</time>
      </trkpt>
      <trkpt lat="44.82026" lon="5.94637">
        <ele>929.7</ele>
        <time>2015-07-25T09:30:35Z</time>
      </trkpt>
      <trkpt lat="44.82023" lon="5.94629">
        <ele>930.9</ele>
        <time>2015-07-25T09:30:40Z</time>
      </trkpt>
      <trkpt lat="44.82018" lon="5.94623">
        <ele>932</ele>
        <time>2015-07-25T09:30:45Z</time>
      </trkpt>
      <trkpt lat="44.82012" lon="5.94619">
        <ele>931.8</ele>
        <time>2015-07-25T09:30:50Z</time>
      </trkpt>
      <trkpt lat="44.82008" lon="5.94614">
        <ele>928.5</ele>
        <time>2015-07-25T09:30:55Z</time>
      </trkpt>
      <trkpt lat="44.82001" lon="5.94611">
        <ele>927.7</ele>
        <time>2015-07-25T09:31:00Z</time>
      </trkpt>
      <trkpt lat="44.81994" lon="5.9461">
        <ele>930</ele>
        <time>2015-07-25T09:31:05Z</time>
      </trkpt>
      <trkpt lat="44.81988" lon="5.94608">
        <ele>930</ele>
        <time>2015-07-25T09:31:10Z</time>
      </trkpt>
      <trkpt lat="44.81978" lon="5.94608">
        <ele>934.2</ele>
        <time>2015-07-25T09:31:15Z</time>
      </trkpt>
      <trkpt lat="44.81971" lon="5.94607">
        <ele>936.9</ele>
        <time>2015-07-25T09:31:20Z</time>
      </trkpt>
      <trkpt lat="44.81965" lon="5.94604">
        <ele>939.4</ele>
        <time>2015-07-25T09:31:25Z</time>
      </trkpt>
      <trkpt lat="44.81958" lon="5.94602">
        <ele>937.8</ele>
        <time>2015-07-25T09:31:30Z</time>
      </trkpt>
      <trkpt lat="44.81952" lon="5.94599">
        <ele>935.1</ele>
        <time>2015-07-25T09:31:35Z</time>
      </trkpt>
      <trkpt lat="44.81945" lon="5.94596">
        <ele>936.7</ele>
        <time>2015-07-25T09:31:40Z</time>
      </trkpt>
      <trkpt lat="44.81938" lon="5.94592">
        <ele>938.7</ele>
        <time>2015-07-25T09:31:45Z</time>
      </trkpt>
      <trkpt lat="44.81933" lon="5.94589">
        <ele>938.4</ele>
        <time>2015-07-25T09:31:50Z</time>
      </trkpt>
      <trkpt lat="44.81926" lon="5.94585">
        <ele>938.4</ele>
        <time>2015-07-25T09:31:55Z</time>
      </trkpt>
      <trkpt lat="44.81919" lon="5.94582">
        <ele>939.6</ele>
        <time>2015-07-25T09:32:00Z</time>
      </trkpt>
      <trkpt lat="44.81913" lon="5.94578">
        <ele>939.3</ele>
        <time>2015-07-25T09:32:05Z</time>
      </trkpt>
      <trkpt lat="44.8191" lon="5.9457">
        <ele>938.5</ele>
        <time>2015-07-25T09:32:10Z</time>
      </trkpt>
      <trkpt lat="44.81908" lon="5.9456">
        <ele>938.1</ele>
        <time>2015-07-25T09:32:15Z</time>
      </trkpt>
      <trkpt lat="44.81907" lon="5.94552">
        <ele>937.8</ele>
        <time>2015-07-25T09:32:20Z</time>
      </trkpt>
      <trkpt lat="44.81908" lon="5.94542">
        <ele>937.9</ele>
        <time>2015-07-25T09:32:25Z</time>
      </trkpt>
      <trkpt lat="44.81907" lon="5.94533">
        <ele>938.8</ele>
        <time>2015-07-25T09:32:30Z</time>
      </trkpt>
      <trkpt lat="44.81909" lon="5.94524">
        <ele>940.4</ele>
        <time>2015-07-25T09:32:35Z</time>
      </trkpt>
      <trkpt lat="44.8191" lon="5.94515">
        <ele>941.2</ele>
        <time>2015-07-25T09:32:40Z</time>
      </trkpt>
      <trkpt lat="44.81909" lon="5.94505">
        <ele>940.8</ele>
        <time>2015-07-25T09:32:45Z</time>
      </trkpt>
      <trkpt lat="44.8191" lon="5.94495">
        <ele>940</ele>
        <time>2015-07-25T09:32:50Z</time>
      </trkpt>
      <trkpt lat="44.8191" lon="5.94485">
        <ele>939.2</ele>
        <time>2015-07-25T09:32:55Z</time>
      </trkpt>
      <trkpt lat="44.8191" lon="5.94475">
        <ele>938.7</ele>
        <time>2015-07-25T09:33:00Z</time>
      </trkpt>
      <trkpt lat="44.81908" lon="5.94464">
        <ele>938</ele>
        <time>2015-07-25T09:33:05Z</time>
      </trkpt>
      <trkpt lat="44.81907" lon="5.94454">
        <ele>937.3</ele>
        <time>2015-07-25T09:33:10Z</time>
      </trkpt>
      <trkpt lat="44.81906" lon="5.94444">
        <ele>936.9</ele>
        <time>2015-07-25T09:33:15Z</time>
      </trkpt>
      <trkpt lat="44.81905" lon="5.94434">
        <ele>936.7</ele>
        <time>2015-07-25T09:33:20Z</time>
      </trkpt>
      <trkpt lat="44.81904" lon="5.94424">
        <ele>936.5</ele>
        <time>2015-07-25T09:33:25Z</time>
      </trkpt>
      <trkpt lat="44.81903" lon="5.94415">
        <ele>936.3</ele>
        <time>2015-07-25T09:33:30Z</time>
      </trkpt>
      <trkpt lat="44.81904" lon="5.94405">
        <ele>936.2</ele>
        <time>2015-07-25T09:33:35Z</time>
      </trkpt>
      <trkpt lat="44.81904" lon="5.94395">
        <ele>936</ele>
        <time>2015-07-25T09:33:40Z</time>
      </trkpt>
      <trkpt lat="44.81904" lon="5.94385">
        <ele>936</ele>
        <time>2015-07-25T09:33:45Z</time>
      </trkpt>
      <trkpt lat="44.81904" lon="5.94375">
        <ele>936.2</ele>
        <time>2015-07-25T09:33:50Z</time>
      </trkpt>
      <trkpt lat="44.81902" lon="5.94366">
        <ele>935.7</ele>
        <time>2015-07-25T09:33:55Z</time>
      </trkpt>
      <trkpt lat="44.81901" lon="5.94356">
        <ele>935.9</ele>
        <time>2015-07-25T09:34:00Z</time>
      </trkpt>
      <trkpt lat="44.81901" lon="5.94346">
        <ele>935.8</ele>
        <time>2015-07-25T09:34:05Z</time>
      </trkpt>
      <trkpt lat="44.81902" lon="5.94336">
        <ele>935.8</ele>
        <time>2015-07-25T09:34:10Z</time>
      </trkpt>
      <trkpt lat="44.81902" lon="5.94326">
        <ele>935.9</ele>
        <time>2015-07-25T09:34:15Z</time>
      </trkpt>
      <trkpt lat="44.81902" lon="5.94316">
        <ele>935.5</ele>
        <time>2015-07-25T09:34:20Z</time>
      </trkpt>
      <trkpt lat="44.819" lon="5.94307">
        <ele>935.2</ele>
        <time>2015-07-25T09:34:25Z</time>
      </trkpt>
      <trkpt lat="44.819" lon="5.94297">
        <ele>934.8</ele>
        <time>2015-07-25T09:34:30Z</time>
      </trkpt>
      <trkpt lat="44.81899" lon="5.94288">
        <ele>934.3</ele>
        <time>2015-07-25T09:34:35Z</time>
      </trkpt>
      <trkpt lat="44.81898" lon="5.94279">
        <ele>934.6</ele>
        <time>2015-07-25T09:34:40Z</time>
      </trkpt>
      <trkpt lat="44.81897" lon="5.94269">
        <ele>934.3</ele>
        <time>2015-07-25T09:34:45Z</time>
      </trkpt>
      <trkpt lat="44.81898" lon="5.94259">
        <ele>934.2</ele>
        <time>2015-07-25T09:34:50Z</time>
      </trkpt>
      <trkpt lat="44.81898" lon="5.9425">
        <ele>933.6</ele>
        <time>2015-07-25T09:34:55Z</time>
      </trkpt>
      <trkpt lat="44.81898" lon="5.9424">
        <ele>933</ele>
        <time>2015-07-25T09:35:00Z</time>
      </trkpt>
      <trkpt lat="44.819" lon="5.94231">
        <ele>932.8</ele>
        <time>2015-07-25T09:35:05Z</time>
      </trkpt>
      <trkpt lat="44.81903" lon="5.94222">
        <ele>932.9</ele>
        <time>2015-07-25T09:35:10Z</time>
      </trkpt>
      <trkpt lat="44.81904" lon="5.94213">
        <ele>933.1</ele>
        <time>2015-07-25T09:35:15Z</time>
      </trkpt>
      <trkpt lat="44.819" lon="5.94206">
        <ele>932.7</ele>
        <time>2015-07-25T09:35:20Z</time>
      </trkpt>
      <trkpt lat="44.81897" lon="5.94202">
        <ele>933.9</ele>
        <time>2015-07-25T09:35:25Z</time>
      </trkpt>
      <trkpt lat="44.81897" lon="5.94199">
        <ele>935.1</ele>
        <time>2015-07-25T09:35:30Z</time>
      </trkpt>
      <trkpt lat="44.81896" lon="5.94197">
        <ele>934.5</ele>
        <time>2015-07-25T09:35:35Z</time>
      </trkpt>
      <trkpt lat="44.81899" lon="5.942">
        <ele>934</ele>
        <time>2015-07-25T09:35:40Z</time>
      </trkpt>
      <trkpt lat="44.81904" lon="5.94199">
        <ele>933.6</ele>
        <time>2015-07-25T09:35:45Z</time>
      </trkpt>
      <trkpt lat="44.81909" lon="5.94192">
        <ele>933.2</ele>
        <time>2015-07-25T09:35:50Z</time>
      </trkpt>
      <trkpt lat="44.81912" lon="5.94184">
        <ele>933.5</ele>
        <time>2015-07-25T09:35:55Z</time>
      </trkpt>
      <trkpt lat="44.81915" lon="5.94177">
        <ele>934.6</ele>
        <time>2015-07-25T09:36:00Z</time>
      </trkpt>
      <trkpt lat="44.81918" lon="5.94168">
        <ele>935.1</ele>
        <time>2015-07-25T09:36:05Z</time>
      </trkpt>
      <trkpt lat="44.81921" lon="5.94159">
        <ele>934.1</ele>
        <time>2015-07-25T09:36:10Z</time>
      </trkpt>
      <trkpt lat="44.81923" lon="5.9415">
        <ele>933.6</ele>
        <time>2015-07-25T09:36:15Z</time>
      </trkpt>
      <trkpt lat="44.81923" lon="5.94142">
        <ele>934.1</ele>
        <time>2015-07-25T09:36:20Z</time>
      </trkpt>
      <trkpt lat="44.81925" lon="5.94133">
        <ele>934.4</ele>
        <time>2015-07-25T09:36:25Z</time>
      </trkpt>
      <trkpt lat="44.81925" lon="5.94124">
        <ele>933.9</ele>
        <time>2015-07-25T09:36:30Z</time>
      </trkpt>
      <trkpt lat="44.81924" lon="5.94114">
        <ele>932.4</ele>
        <time>2015-07-25T09:36:35Z</time>
      </trkpt>
      <trkpt lat="44.81923" lon="5.94104">
        <ele>932.6</ele>
        <time>2015-07-25T09:36:40Z</time>
      </trkpt>
      <trkpt lat="44.81922" lon="5.94094">
        <ele>932.5</ele>
        <time>2015-07-25T09:36:45Z</time>
      </trkpt>
      <trkpt lat="44.8192" lon="5.94084">
        <ele>931.8</ele>
        <time>2015-07-25T09:36:50Z</time>
      </trkpt>
      <trkpt lat="44.81918" lon="5.94075">
        <ele>931.6</ele>
        <time>2015-07-25T09:36:55Z</time>
      </trkpt>
      <trkpt lat="44.81917" lon="5.94065">
        <ele>931.4</ele>
        <time>2015-07-25T09:37:00Z</time>
      </trkpt>
      <trkpt lat="44.81915" lon="5.94056">
        <ele>930.2</ele>
        <time>2015-07-25T09:37:05Z</time>
      </trkpt>
      <trkpt lat="44.81913" lon="5.94046">
        <ele>929.7</ele>
        <time>2015-07-25T09:37:10Z</time>
      </trkpt>
      <trkpt lat="44.8191" lon="5.94036">
        <ele>929.9</ele>
        <time>2015-07-25T09:37:15Z</time>
      </trkpt>
      <trkpt lat="44.8191" lon="5.94027">
        <ele>930.1</ele>
        <time>2015-07-25T09:37:20Z</time>
      </trkpt>
      <trkpt lat="44.81909" lon="5.94018">
        <ele>930.2</ele>
        <time>2015-07-25T09:37:25Z</time>
      </trkpt>
      <trkpt lat="44.81908" lon="5.94008">
        <ele>930.6</ele>
        <time>2015-07-25T09:37:30Z</time>
      </trkpt>
      <trkpt lat="44.81907" lon="5.93999">
        <ele>930.3</ele>
        <time>2015-07-25T09:37:35Z</time>
      </trkpt>
      <trkpt lat="44.81906" lon="5.93989">
        <ele>929.8</ele>
        <time>2015-07-25T09:37:40Z</time>
      </trkpt>
      <trkpt lat="44.81904" lon="5.93981">
        <ele>929.8</ele>
        <time>2015-07-25T09:37:45Z</time>
      </trkpt>
      <trkpt lat="44.81903" lon="5.93972">
        <ele>929.9</ele>
        <time>2015-07-25T09:37:50Z</time>
      </trkpt>
      <trkpt lat="44.81902" lon="5.93963">
        <ele>929.9</ele>
        <time>2015-07-25T09:37:55Z</time>
      </trkpt>
      <trkpt lat="44.819" lon="5.93954">
        <ele>929.1</ele>
        <time>2015-07-25T09:38:00Z</time>
      </trkpt>
      <trkpt lat="44.81899" lon="5.93944">
        <ele>928.4</ele>
        <time>2015-07-25T09:38:05Z</time>
      </trkpt>
      <trkpt lat="44.81898" lon="5.93935">
        <ele>928.2</ele>
        <time>2015-07-25T09:38:10Z</time>
      </trkpt>
      <trkpt lat="44.81898" lon="5.93926">
        <ele>927.9</ele>
        <time>2015-07-25T09:38:15Z</time>
      </trkpt>
      <trkpt lat="44.81899" lon="5.93917">
        <ele>927.6</ele>
        <time>2015-07-25T09:38:20Z</time>
      </trkpt>
      <trkpt lat="44.819" lon="5.93907">
        <ele>927.5</ele>
        <time>2015-07-25T09:38:25Z</time>
      </trkpt>
      <trkpt lat="44.81901" lon="5.93897">
        <ele>927</ele>
        <time>2015-07-25T09:38:30Z</time>
      </trkpt>
      <trkpt lat="44.81902" lon="5.93888">
        <ele>925.8</ele>
        <time>2015-07-25T09:38:35Z</time>
      </trkpt>
      <trkpt lat="44.81903" lon="5.93877">
        <ele>925.2</ele>
        <time>2015-07-25T09:38:40Z</time>
      </trkpt>
      <trkpt lat="44.81903" lon="5.93866">
        <ele>924.4</ele>
        <time>2015-07-25T09:38:45Z</time>
      </trkpt>
      <trkpt lat="44.81904" lon="5.93856">
        <ele>923.6</ele>
        <time>2015-07-25T09:38:50Z</time>
      </trkpt>
      <trkpt lat="44.81905" lon="5.93846">
        <ele>923.1</ele>
        <time>2015-07-25T09:38:55Z</time>
      </trkpt>
      <trkpt lat="44.81905" lon="5.93836">
        <ele>922</ele>
        <time>2015-07-25T09:39:00Z</time>
      </trkpt>
      <trkpt lat="44.81904" lon="5.93826">
        <ele>920.4</ele>
        <time>2015-07-25T09:39:05Z</time>
      </trkpt>
      <trkpt lat="44.81903" lon="5.93817">
        <ele>919.5</ele>
        <time>2015-07-25T09:39:10Z</time>
      </trkpt>
      <trkpt lat="44.81903" lon="5.93808">
        <ele>918.6</ele>
        <time>2015-07-25T09:39:15Z</time>
      </trkpt>
      <trkpt lat="44.81902" lon="5.93799">
        <ele>918.3</ele>
        <time>2015-07-25T09:39:20Z</time>
      </trkpt>
      <trkpt lat="44.81902" lon="5.93789">
        <ele>918.4</ele>
        <time>2015-07-25T09:39:25Z</time>
      </trkpt>
      <trkpt lat="44.819" lon="5.9378">
        <ele>916.2</ele>
        <time>2015-07-25T09:39:30Z</time>
      </trkpt>
      <trkpt lat="44.81898" lon="5.93771">
        <ele>914.3</ele>
        <time>2015-07-25T09:39:35Z</time>
      </trkpt>
      <trkpt lat="44.81895" lon="5.93762">
        <ele>913.1</ele>
        <time>2015-07-25T09:39:40Z</time>
      </trkpt>
      <trkpt lat="44.81893" lon="5.93753">
        <ele>912.4</ele>
        <time>2015-07-25T09:39:45Z</time>
      </trkpt>
      <trkpt lat="44.81892" lon="5.93741">
        <ele>914.9</ele>
        <time>2015-07-25T09:39:50Z</time>
      </trkpt>
      <trkpt lat="44.81893" lon="5.93732">
        <ele>915.2</ele>
        <time>2015-07-25T09:39:55Z</time>
      </trkpt>
      <trkpt lat="44.81892" lon="5.93722">
        <ele>914.7</ele>
        <time>2015-07-25T09:40:00Z</time>
      </trkpt>
      <trkpt lat="44.81892" lon="5.93713">
        <ele>913.9</ele>
        <time>2015-07-25T09:40:05Z</time>
      </trkpt>
      <trkpt lat="44.81894" lon="5.93703">
        <ele>913</ele>
        <time>2015-07-25T09:40:10Z</time>
      </trkpt>
      <trkpt lat="44.81894" lon="5.93694">
        <ele>913</ele>
        <time>2015-07-25T09:40:15Z</time>
      </trkpt>
      <trkpt lat="44.81897" lon="5.93686">
        <ele>912.6</ele>
        <time>2015-07-25T09:40:20Z</time>
      </trkpt>
      <trkpt lat="44.819" lon="5.93677">
        <ele>911.5</ele>
        <time>2015-07-25T09:40:25Z</time>
      </trkpt>
      <trkpt lat="44.81903" lon="5.93668">
        <ele>910.5</ele>
        <time>2015-07-25T09:40:30Z</time>
      </trkpt>
      <trkpt lat="44.81906" lon="5.93659">
        <ele>909.6</ele>
        <time>2015-07-25T09:40:35Z</time>
      </trkpt>
      <trkpt lat="44.81909" lon="5.93651">
        <ele>909.4</ele>
        <time>2015-07-25T09:40:40Z</time>
      </trkpt>
      <trkpt lat="44.81913" lon="5.93643">
        <ele>910</ele>
        <time>2015-07-25T09:40:45Z</time>
      </trkpt>
      <trkpt lat="44.81916" lon="5.93635">
        <ele>909.8</ele>
        <time>2015-07-25T09:40:50Z</time>
      </trkpt>
      <trkpt lat="44.8192" lon="5.93625">
        <ele>909.4</ele>
        <time>2015-07-25T09:40:55Z</time>
      </trkpt>
      <trkpt lat="44.81923" lon="5.93617">
        <ele>908.7</ele>
        <time>2015-07-25T09:41:00Z</time>
      </trkpt>
      <trkpt lat="44.81926" lon="5.93609">
        <ele>908.2</ele>
        <time>2015-07-25T09:41:05Z</time>
      </trkpt>
      <trkpt lat="44.81929" lon="5.936">
        <ele>907.8</ele>
        <time>2015-07-25T09:41:10Z</time>
      </trkpt>
      <trkpt lat="44.81931" lon="5.93592">
        <ele>907.1</ele>
        <time>2015-07-25T09:41:15Z</time>
      </trkpt>
      <trkpt lat="44.81935" lon="5.93584">
        <ele>906.4</ele>
        <time>2015-07-25T09:41:20Z</time>
      </trkpt>
      <trkpt lat="44.81939" lon="5.93576">
        <ele>905.6</ele>
        <time>2015-07-25T09:41:25Z</time>
      </trkpt>
      <trkpt lat="44.81943" lon="5.93569">
        <ele>904.8</ele>
        <time>2015-07-25T09:41:30Z</time>
      </trkpt>
      <trkpt lat="44.81947" lon="5.93563">
        <ele>903.9</ele>
        <time>2015-07-25T09:41:35Z</time>
      </trkpt>
      <trkpt lat="44.81952" lon="5.93556">
        <ele>903.5</ele>
        <time>2015-07-25T09:41:40Z</time>
      </trkpt>
      <trkpt lat="44.81956" lon="5.93549">
        <ele>902.9</ele>
        <time>2015-07-25T09:41:45Z</time>
      </trkpt>
      <trkpt lat="44.8196" lon="5.93542">
        <ele>902.4</ele>
        <time>2015-07-25T09:41:50Z</time>
      </trkpt>
      <trkpt lat="44.81964" lon="5.93535">
        <ele>901.8</ele>
        <time>2015-07-25T09:41:55Z</time>
      </trkpt>
      <trkpt lat="44.81967" lon="5.93527">
        <ele>901.4</ele>
        <time>2015-07-25T09:42:00Z</time>
      </trkpt>
      <trkpt lat="44.8197" lon="5.93518">
        <ele>900.9</ele>
        <time>2015-07-25T09:42:05Z</time>
      </trkpt>
      <trkpt lat="44.81973" lon="5.9351">
        <ele>900.5</ele>
        <time>2015-07-25T09:42:10Z</time>
      </trkpt>
      <trkpt lat="44.81975" lon="5.93501">
        <ele>900</ele>
        <time>2015-07-25T09:42:15Z</time>
      </trkpt>
      <trkpt lat="44.81978" lon="5.93493">
        <ele>900.9</ele>
        <time>2015-07-25T09:42:20Z</time>
      </trkpt>
      <trkpt lat="44.81978" lon="5.93484">
        <ele>900</ele>
        <time>2015-07-25T09:42:25Z</time>
      </trkpt>
      <trkpt lat="44.81979" lon="5.93473">
        <ele>899.8</ele>
        <time>2015-07-25T09:42:30Z</time>
      </trkpt>
      <trkpt lat="44.81979" lon="5.93465">
        <ele>899.7</ele>
        <time>2015-07-25T09:42:35Z</time>
      </trkpt>
      <trkpt lat="44.81979" lon="5.93457">
        <ele>897.8</ele>
        <time>2015-07-25T09:42:40Z</time>
      </trkpt>
      <trkpt lat="44.81977" lon="5.93448">
        <ele>891.3</ele>
        <time>2015-07-25T09:42:45Z</time>
      </trkpt>
      <trkpt lat="44.81977" lon="5.93438">
        <ele>891.9</ele>
        <time>2015-07-25T09:42:50Z</time>
      </trkpt>
      <trkpt lat="44.81976" lon="5.93429">
        <ele>893.7</ele>
        <time>2015-07-25T09:42:55Z</time>
      </trkpt>
      <trkpt lat="44.81975" lon="5.93422">
        <ele>892.1</ele>
        <time>2015-07-25T09:43:00Z</time>
      </trkpt>
      <trkpt lat="44.81974" lon="5.9341">
        <ele>892.4</ele>
        <time>2015-07-25T09:43:05Z</time>
      </trkpt>
      <trkpt lat="44.81973" lon="5.93399">
        <ele>893.9</ele>
        <time>2015-07-25T09:43:10Z</time>
      </trkpt>
      <trkpt lat="44.81972" lon="5.9339">
        <ele>893.9</ele>
        <time>2015-07-25T09:43:15Z</time>
      </trkpt>
      <trkpt lat="44.81971" lon="5.9338">
        <ele>895.4</ele>
        <time>2015-07-25T09:43:20Z</time>
      </trkpt>
      <trkpt lat="44.81971" lon="5.93369">
        <ele>893.9</ele>
        <time>2015-07-25T09:43:25Z</time>
      </trkpt>
      <trkpt lat="44.8197" lon="5.9336">
        <ele>893.4</ele>
        <time>2015-07-25T09:43:30Z</time>
      </trkpt>
      <trkpt lat="44.81968" lon="5.93353">
        <ele>893</ele>
        <time>2015-07-25T09:43:35Z</time>
      </trkpt>
      <trkpt lat="44.81968" lon="5.93344">
        <ele>893</ele>
        <time>2015-07-25T09:43:40Z</time>
      </trkpt>
      <trkpt lat="44.81966" lon="5.93334">
        <ele>892.4</ele>
        <time>2015-07-25T09:43:45Z</time>
      </trkpt>
      <trkpt lat="44.81965" lon="5.93324">
        <ele>891.1</ele>
        <time>2015-07-25T09:43:50Z</time>
      </trkpt>
      <trkpt lat="44.81964" lon="5.93316">
        <ele>890.7</ele>
        <time>2015-07-25T09:43:55Z</time>
      </trkpt>
      <trkpt lat="44.81964" lon="5.9331">
        <ele>890.2</ele>
        <time>2015-07-25T09:44:00Z</time>
      </trkpt>
      <trkpt lat="44.81962" lon="5.93301">
        <ele>889.4</ele>
        <time>2015-07-25T09:44:05Z</time>
      </trkpt>
      <trkpt lat="44.81962" lon="5.93292">
        <ele>889.2</ele>
        <time>2015-07-25T09:44:10Z</time>
      </trkpt>
      <trkpt lat="44.8196" lon="5.93283">
        <ele>889</ele>
        <time>2015-07-25T09:44:15Z</time>
      </trkpt>
      <trkpt lat="44.81958" lon="5.93273">
        <ele>888.2</ele>
        <time>2015-07-25T09:44:20Z</time>
      </trkpt>
      <trkpt lat="44.81958" lon="5.93263">
        <ele>887.8</ele>
        <time>2015-07-25T09:44:25Z</time>
      </trkpt>
      <trkpt lat="44.8196" lon="5.93253">
        <ele>887.5</ele>
        <time>2015-07-25T09:44:30Z</time>
      </trkpt>
      <trkpt lat="44.81961" lon="5.93243">
        <ele>887.1</ele>
        <time>2015-07-25T09:44:35Z</time>
      </trkpt>
      <trkpt lat="44.81962" lon="5.93233">
        <ele>887.1</ele>
        <time>2015-07-25T09:44:40Z</time>
      </trkpt>
      <trkpt lat="44.81962" lon="5.93223">
        <ele>886.8</ele>
        <time>2015-07-25T09:44:45Z</time>
      </trkpt>
      <trkpt lat="44.81958" lon="5.93214">
        <ele>886.7</ele>
        <time>2015-07-25T09:44:50Z</time>
      </trkpt>
      <trkpt lat="44.81952" lon="5.93209">
        <ele>885.6</ele>
        <time>2015-07-25T09:44:55Z</time>
      </trkpt>
      <trkpt lat="44.81946" lon="5.93208">
        <ele>885.8</ele>
        <time>2015-07-25T09:45:00Z</time>
      </trkpt>
      <trkpt lat="44.8194" lon="5.9321">
        <ele>884.8</ele>
        <time>2015-07-25T09:45:05Z</time>
      </trkpt>
      <trkpt lat="44.81936" lon="5.93218">
        <ele>883.3</ele>
        <time>2015-07-25T09:45:10Z</time>
      </trkpt>
      <trkpt lat="44.81933" lon="5.93228">
        <ele>880.5</ele>
        <time>2015-07-25T09:45:15Z</time>
      </trkpt>
      <trkpt lat="44.81931" lon="5.93239">
        <ele>878</ele>
        <time>2015-07-25T09:45:20Z</time>
      </trkpt>
      <trkpt lat="44.81929" lon="5.93249">
        <ele>877.1</ele>
        <time>2015-07-25T09:45:25Z</time>
      </trkpt>
      <trkpt lat="44.81928" lon="5.9326">
        <ele>876.9</ele>
        <time>2015-07-25T09:45:30Z</time>
      </trkpt>
      <trkpt lat="44.81926" lon="5.9327">
        <ele>876.7</ele>
        <time>2015-07-25T09:45:35Z</time>
      </trkpt>
      <trkpt lat="44.81923" lon="5.9328">
        <ele>877.7</ele>
        <time>2015-07-25T09:45:40Z</time>
      </trkpt>
      <trkpt lat="44.81919" lon="5.93288">
        <ele>878.2</ele>
        <time>2015-07-25T09:45:45Z</time>
      </trkpt>
      <trkpt lat="44.81914" lon="5.93295">
        <ele>877.9</ele>
        <time>2015-07-25T09:45:50Z</time>
      </trkpt>
      <trkpt lat="44.81909" lon="5.93302">
        <ele>877.5</ele>
        <time>2015-07-25T09:45:55Z</time>
      </trkpt>
      <trkpt lat="44.81903" lon="5.93308">
        <ele>879.3</ele>
        <time>2015-07-25T09:46:00Z</time>
      </trkpt>
      <trkpt lat="44.81896" lon="5.93311">
        <ele>879.6</ele>
        <time>2015-07-25T09:46:05Z</time>
      </trkpt>
      <trkpt lat="44.8189" lon="5.93312">
        <ele>879.8</ele>
        <time>2015-07-25T09:46:10Z</time>
      </trkpt>
      <trkpt lat="44.81883" lon="5.93313">
        <ele>878.9</ele>
        <time>2015-07-25T09:46:15Z</time>
      </trkpt>
      <trkpt lat="44.81876" lon="5.93311">
        <ele>877.1</ele>
        <time>2015-07-25T09:46:20Z</time>
      </trkpt>
      <trkpt lat="44.81871" lon="5.93306">
        <ele>878</ele>
        <time>2015-07-25T09:46:25Z</time>
      </trkpt>
      <trkpt lat="44.81865" lon="5.93301">
        <ele>877.4</ele>
        <time>2015-07-25T09:46:30Z</time>
      </trkpt>
      <trkpt lat="44.81861" lon="5.93294">
        <ele>876</ele>
        <time>2015-07-25T09:46:35Z</time>
      </trkpt>
      <trkpt lat="44.81859" lon="5.93286">
        <ele>875.1</ele>
        <time>2015-07-25T09:46:40Z</time>
      </trkpt>
      <trkpt lat="44.81857" lon="5.93277">
        <ele>874.3</ele>
        <time>2015-07-25T09:46:45Z</time>
      </trkpt>
      <trkpt lat="44.81854" lon="5.93268">
        <ele>873.7</ele>
        <time>2015-07-25T09:46:50Z</time>
      </trkpt>
      <trkpt lat="44.81852" lon="5.93259">
        <ele>873.2</ele>
        <time>2015-07-25T09:46:55Z</time>
      </trkpt>
      <trkpt lat="44.8185" lon="5.93249">
        <ele>872.2</ele>
        <time>2015-07-25T09:47:00Z</time>
      </trkpt>
      <trkpt lat="44.81848" lon="5.9324">
        <ele>871.5</ele>
        <time>2015-07-25T09:47:05Z</time>
      </trkpt>
      <trkpt lat="44.81847" lon="5.93231">
        <ele>870.7</ele>
        <time>2015-07-25T09:47:10Z</time>
      </trkpt>
      <trkpt lat="44.8185" lon="5.93221">
        <ele>869.6</ele>
        <time>2015-07-25T09:47:15Z</time>
      </trkpt>
      <trkpt lat="44.81852" lon="5.93212">
        <ele>868.5</ele>
        <time>2015-07-25T09:47:20Z</time>
      </trkpt>
      <trkpt lat="44.81855" lon="5.93203">
        <ele>868.1</ele>
        <time>2015-07-25T09:47:25Z</time>
      </trkpt>
      <trkpt lat="44.81857" lon="5.93194">
        <ele>868.4</ele>
        <time>2015-07-25T09:47:30Z</time>
      </trkpt>
      <trkpt lat="44.81859" lon="5.93183">
        <ele>867.9</ele>
        <time>2015-07-25T09:47:35Z</time>
      </trkpt>
      <trkpt lat="44.8186" lon="5.93175">
        <ele>868.1</ele>
        <time>2015-07-25T09:47:40Z</time>
      </trkpt>
      <trkpt lat="44.81863" lon="5.93164">
        <ele>869.2</ele>
        <time>2015-07-25T09:47:45Z</time>
      </trkpt>
      <trkpt lat="44.81864" lon="5.93154">
        <ele>868.1</ele>
        <time>2015-07-25T09:47:50Z</time>
      </trkpt>
      <trkpt lat="44.81864" lon="5.93144">
        <ele>867.5</ele>
        <time>2015-07-25T09:47:55Z</time>
      </trkpt>
      <trkpt lat="44.81863" lon="5.93134">
        <ele>866.3</ele>
        <time>2015-07-25T09:48:00Z</time>
      </trkpt>
      <trkpt lat="44.81863" lon="5.93124">
        <ele>865.7</ele>
        <time>2015-07-25T09:48:05Z</time>
      </trkpt>
      <trkpt lat="44.81862" lon="5.93114">
        <ele>864.3</ele>
        <time>2015-07-25T09:48:10Z</time>
      </trkpt>
      <trkpt lat="44.81861" lon="5.93104">
        <ele>863.5</ele>
        <time>2015-07-25T09:48:15Z</time>
      </trkpt>
      <trkpt lat="44.81859" lon="5.93094">
        <ele>862.7</ele>
        <time>2015-07-25T09:48:20Z</time>
      </trkpt>
      <trkpt lat="44.81858" lon="5.93086">
        <ele>862.5</ele>
        <time>2015-07-25T09:48:25Z</time>
      </trkpt>
      <trkpt lat="44.81856" lon="5.93076">
        <ele>862.6</ele>
        <time>2015-07-25T09:48:30Z</time>
      </trkpt>
      <trkpt lat="44.81854" lon="5.93066">
        <ele>863.6</ele>
        <time>2015-07-25T09:48:35Z</time>
      </trkpt>
      <trkpt lat="44.81851" lon="5.93058">
        <ele>864</ele>
        <time>2015-07-25T09:48:40Z</time>
      </trkpt>
      <trkpt lat="44.81849" lon="5.93048">
        <ele>864.5</ele>
        <time>2015-07-25T09:48:45Z</time>
      </trkpt>
      <trkpt lat="44.81851" lon="5.93038">
        <ele>865.7</ele>
        <time>2015-07-25T09:48:50Z</time>
      </trkpt>
      <trkpt lat="44.81851" lon="5.9303">
        <ele>864.6</ele>
        <time>2015-07-25T09:48:55Z</time>
      </trkpt>
      <trkpt lat="44.81851" lon="5.93021">
        <ele>864.7</ele>
        <time>2015-07-25T09:49:00Z</time>
      </trkpt>
      <trkpt lat="44.81851" lon="5.93014">
        <ele>863.6</ele>
        <time>2015-07-25T09:49:05Z</time>
      </trkpt>
      <trkpt lat="44.81852" lon="5.93006">
        <ele>865.2</ele>
        <time>2015-07-25T09:49:10Z</time>
      </trkpt>
      <trkpt lat="44.81853" lon="5.92997">
        <ele>864.7</ele>
        <time>2015-07-25T09:49:15Z</time>
      </trkpt>
      <trkpt lat="44.81854" lon="5.92988">
        <ele>862.8</ele>
        <time>2015-07-25T09:49:20Z</time>
      </trkpt>
      <trkpt lat="44.81855" lon="5.92976">
        <ele>867</ele>
        <time>2015-07-25T09:49:25Z</time>
      </trkpt>
      <trkpt lat="44.81854" lon="5.92966">
        <ele>867.1</ele>
        <time>2015-07-25T09:49:30Z</time>
      </trkpt>
      <trkpt lat="44.81855" lon="5.92955">
        <ele>866.8</ele>
        <time>2015-07-25T09:49:35Z</time>
      </trkpt>
      <trkpt lat="44.81855" lon="5.92945">
        <ele>865.7</ele>
        <time>2015-07-25T09:49:40Z</time>
      </trkpt>
      <trkpt lat="44.81857" lon="5.92933">
        <ele>863.9</ele>
        <time>2015-07-25T09:49:45Z</time>
      </trkpt>
      <trkpt lat="44.81856" lon="5.92923">
        <ele>861.8</ele>
        <time>2015-07-25T09:49:50Z</time>
      </trkpt>
      <trkpt lat="44.81857" lon="5.92911">
        <ele>858.1</ele>
        <time>2015-07-25T09:49:55Z</time>
      </trkpt>
      <trkpt lat="44.81857" lon="5.92901">
        <ele>857.4</ele>
        <time>2015-07-25T09:50:00Z</time>
      </trkpt>
      <trkpt lat="44.81855" lon="5.9289">
        <ele>856.6</ele>
        <time>2015-07-25T09:50:05Z</time>
      </trkpt>
      <trkpt lat="44.81855" lon="5.9288">
        <ele>855.6</ele>
        <time>2015-07-25T09:50:10Z</time>
      </trkpt>
      <trkpt lat="44.81853" lon="5.92871">
        <ele>853.9</ele>
        <time>2015-07-25T09:50:15Z</time>
      </trkpt>
      <trkpt lat="44.81852" lon="5.92861">
        <ele>852.3</ele>
        <time>2015-07-25T09:50:20Z</time>
      </trkpt>
      <trkpt lat="44.81851" lon="5.92853">
        <ele>852</ele>
        <time>2015-07-25T09:50:25Z</time>
      </trkpt>
      <trkpt lat="44.8185" lon="5.92843">
        <ele>850.1</ele>
        <time>2015-07-25T09:50:30Z</time>
      </trkpt>
      <trkpt lat="44.81849" lon="5.92832">
        <ele>848.8</ele>
        <time>2015-07-25T09:50:35Z</time>
      </trkpt>
      <trkpt lat="44.81847" lon="5.92822">
        <ele>848.6</ele>
        <time>2015-07-25T09:50:40Z</time>
      </trkpt>
      <trkpt lat="44.81846" lon="5.92812">
        <ele>848.9</ele>
        <time>2015-07-25T09:50:45Z</time>
      </trkpt>
      <trkpt lat="44.81847" lon="5.92803">
        <ele>846.4</ele>
        <time>2015-07-25T09:50:50Z</time>
      </trkpt>
      <trkpt lat="44.81848" lon="5.92794">
        <ele>844.1</ele>
        <time>2015-07-25T09:50:55Z</time>
      </trkpt>
      <trkpt lat="44.81847" lon="5.92784">
        <ele>843.7</ele>
        <time>2015-07-25T09:51:00Z</time>
      </trkpt>
      <trkpt lat="44.81847" lon="5.92774">
        <ele>843.4</ele>
        <time>2015-07-25T09:51:05Z</time>
      </trkpt>
      <trkpt lat="44.81848" lon="5.92764">
        <ele>841.7</ele>
        <time>2015-07-25T09:51:10Z</time>
      </trkpt>
      <trkpt lat="44.81849" lon="5.92755">
        <ele>841.5</ele>
        <time>2015-07-25T09:51:15Z</time>
      </trkpt>
      <trkpt lat="44.81849" lon="5.92747">
        <ele>841.4</ele>
        <time>2015-07-25T09:51:20Z</time>
      </trkpt>
      <trkpt lat="44.8185" lon="5.92738">
        <ele>839.5</ele>
        <time>2015-07-25T09:51:25Z</time>
      </trkpt>
      <trkpt lat="44.81851" lon="5.9273">
        <ele>839.4</ele>
        <time>2015-07-25T09:51:30Z</time>
      </trkpt>
      <trkpt lat="44.81853" lon="5.92721">
        <ele>841.9</ele>
        <time>2015-07-25T09:51:35Z</time>
      </trkpt>
      <trkpt lat="44.81855" lon="5.92711">
        <ele>843.9</ele>
        <time>2015-07-25T09:51:40Z</time>
      </trkpt>
      <trkpt lat="44.81857" lon="5.92701">
        <ele>845.5</ele>
        <time>2015-07-25T09:51:45Z</time>
      </trkpt>
      <trkpt lat="44.81857" lon="5.92691">
        <ele>846</ele>
        <time>2015-07-25T09:51:50Z</time>
      </trkpt>
      <trkpt lat="44.81857" lon="5.9268">
        <ele>845.8</ele>
        <time>2015-07-25T09:51:55Z</time>
      </trkpt>
      <trkpt lat="44.81854" lon="5.92669">
        <ele>843.7</ele>
        <time>2015-07-25T09:52:00Z</time>
      </trkpt>
      <trkpt lat="44.81851" lon="5.9266">
        <ele>846.6</ele>
        <time>2015-07-25T09:52:05Z</time>
      </trkpt>
      <trkpt lat="44.81846" lon="5.92651">
        <ele>845.8</ele>
        <time>2015-07-25T09:52:10Z</time>
      </trkpt>
      <trkpt lat="44.81841" lon="5.92644">
        <ele>840.2</ele>
        <time>2015-07-25T09:52:15Z</time>
      </trkpt>
      <trkpt lat="44.81836" lon="5.92637">
        <ele>837.4</ele>
        <time>2015-07-25T09:52:20Z</time>
      </trkpt>
      <trkpt lat="44.81831" lon="5.92629">
        <ele>839.9</ele>
        <time>2015-07-25T09:52:25Z</time>
      </trkpt>
      <trkpt lat="44.81827" lon="5.92621">
        <ele>838</ele>
        <time>2015-07-25T09:52:30Z</time>
      </trkpt>
      <trkpt lat="44.81822" lon="5.92614">
        <ele>835.4</ele>
        <time>2015-07-25T09:52:35Z</time>
      </trkpt>
      <trkpt lat="44.8182" lon="5.92605">
        <ele>833.2</ele>
        <time>2015-07-25T09:52:40Z</time>
      </trkpt>
      <trkpt lat="44.81819" lon="5.92595">
        <ele>833.5</ele>
        <time>2015-07-25T09:52:45Z</time>
      </trkpt>
      <trkpt lat="44.81821" lon="5.92584">
        <ele>832.4</ele>
        <time>2015-07-25T09:52:50Z</time>
      </trkpt>
      <trkpt lat="44.81819" lon="5.92575">
        <ele>833.3</ele>
        <time>2015-07-25T09:52:55Z</time>
      </trkpt>
      <trkpt lat="44.81818" lon="5.92565">
        <ele>834.5</ele>
        <time>2015-07-25T09:53:00Z</time>
      </trkpt>
      <trkpt lat="44.81817" lon="5.92556">
        <ele>836.1</ele>
        <time>2015-07-25T09:53:05Z</time>
      </trkpt>
      <trkpt lat="44.81816" lon="5.92548">
        <ele>838.4</ele>
        <time>2015-07-25T09:53:10Z</time>
      </trkpt>
      <trkpt lat="44.81815" lon="5.9254">
        <ele>841.2</ele>
        <time>2015-07-25T09:53:15Z</time>
      </trkpt>
      <trkpt lat="44.81817" lon="5.9253">
        <ele>839.3</ele>
        <time>2015-07-25T09:53:20Z</time>
      </trkpt>
      <trkpt lat="44.81817" lon="5.92521">
        <ele>840.5</ele>
        <time>2015-07-25T09:53:25Z</time>
      </trkpt>
      <trkpt lat="44.81822" lon="5.92509">
        <ele>835.3</ele>
        <time>2015-07-25T09:53:30Z</time>
      </trkpt>
      <trkpt lat="44.81823" lon="5.92498">
        <ele>835.7</ele>
        <time>2015-07-25T09:53:35Z</time>
      </trkpt>
      <trkpt lat="44.81822" lon="5.92488">
        <ele>835.4</ele>
        <time>2015-07-25T09:53:40Z</time>
      </trkpt>
      <trkpt lat="44.81824" lon="5.92478">
        <ele>835.1</ele>
        <time>2015-07-25T09:53:45Z</time>
      </trkpt>
      <trkpt lat="44.81825" lon="5.92468">
        <ele>834.2</ele>
        <time>2015-07-25T09:53:50Z</time>
      </trkpt>
      <trkpt lat="44.81825" lon="5.92455">
        <ele>834.2</ele>
        <time>2015-07-25T09:53:55Z</time>
      </trkpt>
      <trkpt lat="44.81825" lon="5.92447">
        <ele>832.8</ele>
        <time>2015-07-25T09:54:00Z</time>
      </trkpt>
      <trkpt lat="44.81825" lon="5.92437">
        <ele>836.3</ele>
        <time>2015-07-25T09:54:05Z</time>
      </trkpt>
      <trkpt lat="44.81825" lon="5.92428">
        <ele>832.8</ele>
        <time>2015-07-25T09:54:10Z</time>
      </trkpt>
      <trkpt lat="44.81824" lon="5.92418">
        <ele>830.7</ele>
        <time>2015-07-25T09:54:15Z</time>
      </trkpt>
      <trkpt lat="44.81824" lon="5.92408">
        <ele>831.2</ele>
        <time>2015-07-25T09:54:20Z</time>
      </trkpt>
      <trkpt lat="44.81824" lon="5.92398">
        <ele>832.3</ele>
        <time>2015-07-25T09:54:25Z</time>
      </trkpt>
      <trkpt lat="44.81826" lon="5.92387">
        <ele>829</ele>
        <time>2015-07-25T09:54:30Z</time>
      </trkpt>
      <trkpt lat="44.81826" lon="5.92378">
        <ele>827.5</ele>
        <time>2015-07-25T09:54:35Z</time>
      </trkpt>
      <trkpt lat="44.81825" lon="5.92369">
        <ele>825.7</ele>
        <time>2015-07-25T09:54:40Z</time>
      </trkpt>
      <trkpt lat="44.81824" lon="5.92359">
        <ele>826.5</ele>
        <time>2015-07-25T09:54:45Z</time>
      </trkpt>
      <trkpt lat="44.81822" lon="5.9235">
        <ele>824</ele>
        <time>2015-07-25T09:54:50Z</time>
      </trkpt>
      <trkpt lat="44.81822" lon="5.92341">
        <ele>821.3</ele>
        <time>2015-07-25T09:54:55Z</time>
      </trkpt>
      <trkpt lat="44.8182" lon="5.92331">
        <ele>821.1</ele>
        <time>2015-07-25T09:55:00Z</time>
      </trkpt>
      <trkpt lat="44.8182" lon="5.92321">
        <ele>821.3</ele>
        <time>2015-07-25T09:55:05Z</time>
      </trkpt>
      <trkpt lat="44.81818" lon="5.92312">
        <ele>821.6</ele>
        <time>2015-07-25T09:55:10Z</time>
      </trkpt>
      <trkpt lat="44.81818" lon="5.92302">
        <ele>822.8</ele>
        <time>2015-07-25T09:55:15Z</time>
      </trkpt>
      <trkpt lat="44.81818" lon="5.92295">
        <ele>825.6</ele>
        <time>2015-07-25T09:55:20Z</time>
      </trkpt>
      <trkpt lat="44.81819" lon="5.92285">
        <ele>823.3</ele>
        <time>2015-07-25T09:55:25Z</time>
      </trkpt>
      <trkpt lat="44.81821" lon="5.92273">
        <ele>820.3</ele>
        <time>2015-07-25T09:55:30Z</time>
      </trkpt>
      <trkpt lat="44.81823" lon="5.92263">
        <ele>818.3</ele>
        <time>2015-07-25T09:55:35Z</time>
      </trkpt>
      <trkpt lat="44.81823" lon="5.92254">
        <ele>818.5</ele>
        <time>2015-07-25T09:55:40Z</time>
      </trkpt>
      <trkpt lat="44.81825" lon="5.92244">
        <ele>817.4</ele>
        <time>2015-07-25T09:55:45Z</time>
      </trkpt>
      <trkpt lat="44.81825" lon="5.92234">
        <ele>816.9</ele>
        <time>2015-07-25T09:55:50Z</time>
      </trkpt>
      <trkpt lat="44.81825" lon="5.92225">
        <ele>816.2</ele>
        <time>2015-07-25T09:55:55Z</time>
      </trkpt>
      <trkpt lat="44.81825" lon="5.92215">
        <ele>814.7</ele>
        <time>2015-07-25T09:56:00Z</time>
      </trkpt>
      <trkpt lat="44.81825" lon="5.92205">
        <ele>814.8</ele>
        <time>2015-07-25T09:56:05Z</time>
      </trkpt>
      <trkpt lat="44.81825" lon="5.92196">
        <ele>815</ele>
        <time>2015-07-25T09:56:10Z</time>
      </trkpt>
      <trkpt lat="44.81826" lon="5.92186">
        <ele>815.5</ele>
        <time>2015-07-25T09:56:15Z</time>
      </trkpt>
      <trkpt lat="44.81827" lon="5.92177">
        <ele>816.9</ele>
        <time>2015-07-25T09:56:20Z</time>
      </trkpt>
      <trkpt lat="44.81829" lon="5.92166">
        <ele>814.5</ele>
        <time>2015-07-25T09:56:25Z</time>
      </trkpt>
      <trkpt lat="44.81832" lon="5.92156">
        <ele>812.7</ele>
        <time>2015-07-25T09:56:30Z</time>
      </trkpt>
      <trkpt lat="44.81833" lon="5.92146">
        <ele>811.6</ele>
        <time>2015-07-25T09:56:35Z</time>
      </trkpt>
      <trkpt lat="44.81835" lon="5.92137">
        <ele>810.5</ele>
        <time>2015-07-25T09:56:40Z</time>
      </trkpt>
      <trkpt lat="44.81838" lon="5.92126">
        <ele>807.9</ele>
        <time>2015-07-25T09:56:45Z</time>
      </trkpt>
      <trkpt lat="44.81838" lon="5.92115">
        <ele>806.1</ele>
        <time>2015-07-25T09:56:50Z</time>
      </trkpt>
      <trkpt lat="44.81837" lon="5.92104">
        <ele>805.2</ele>
        <time>2015-07-25T09:56:55Z</time>
      </trkpt>
      <trkpt lat="44.81834" lon="5.92094">
        <ele>805</ele>
        <time>2015-07-25T09:57:00Z</time>
      </trkpt>
      <trkpt lat="44.81831" lon="5.92084">
        <ele>805</ele>
        <time>2015-07-25T09:57:05Z</time>
      </trkpt>
      <trkpt lat="44.81828" lon="5.92075">
        <ele>804.2</ele>
        <time>2015-07-25T09:57:10Z</time>
      </trkpt>
      <trkpt lat="44.81826" lon="5.92067">
        <ele>802.8</ele>
        <time>2015-07-25T09:57:15Z</time>
      </trkpt>
      <trkpt lat="44.81824" lon="5.92057">
        <ele>801.9</ele>
        <time>2015-07-25T09:57:20Z</time>
      </trkpt>
      <trkpt lat="44.81822" lon="5.92048">
        <ele>802.1</ele>
        <time>2015-07-25T09:57:25Z</time>
      </trkpt>
      <trkpt lat="44.81822" lon="5.92038">
        <ele>801.6</ele>
        <time>2015-07-25T09:57:30Z</time>
      </trkpt>
      <trkpt lat="44.8182" lon="5.92029">
        <ele>800.9</ele>
        <time>2015-07-25T09:57:35Z</time>
      </trkpt>
      <trkpt lat="44.8182" lon="5.92019">
        <ele>799.5</ele>
        <time>2015-07-25T09:57:40Z</time>
      </trkpt>
      <trkpt lat="44.8182" lon="5.92011">
        <ele>798.1</ele>
        <time>2015-07-25T09:57:45Z</time>
      </trkpt>
      <trkpt lat="44.81819" lon="5.92002">
        <ele>797.9</ele>
        <time>2015-07-25T09:57:50Z</time>
      </trkpt>
      <trkpt lat="44.81819" lon="5.91993">
        <ele>797.6</ele>
        <time>2015-07-25T09:57:55Z</time>
      </trkpt>
      <trkpt lat="44.81819" lon="5.91983">
        <ele>797.6</ele>
        <time>2015-07-25T09:58:00Z</time>
      </trkpt>
      <trkpt lat="44.8182" lon="5.91973">
        <ele>796.1</ele>
        <time>2015-07-25T09:58:05Z</time>
      </trkpt>
      <trkpt lat="44.8182" lon="5.91964">
        <ele>796</ele>
        <time>2015-07-25T09:58:10Z</time>
      </trkpt>
      <trkpt lat="44.81818" lon="5.91954">
        <ele>796.2</ele>
        <time>2015-07-25T09:58:15Z</time>
      </trkpt>
      <trkpt lat="44.81818" lon="5.91945">
        <ele>795.6</ele>
        <time>2015-07-25T09:58:20Z</time>
      </trkpt>
      <trkpt lat="44.81817" lon="5.91935">
        <ele>794</ele>
        <time>2015-07-25T09:58:25Z</time>
      </trkpt>
      <trkpt lat="44.81815" lon="5.91926">
        <ele>792.8</ele>
        <time>2015-07-25T09:58:30Z</time>
      </trkpt>
      <trkpt lat="44.81813" lon="5.91916">
        <ele>792.1</ele>
        <time>2015-07-25T09:58:35Z</time>
      </trkpt>
      <trkpt lat="44.81811" lon="5.91908">
        <ele>790.4</ele>
        <time>2015-07-25T09:58:40Z</time>
      </trkpt>
      <trkpt lat="44.81808" lon="5.91901">
        <ele>789.1</ele>
        <time>2015-07-25T09:58:45Z</time>
      </trkpt>
      <trkpt lat="44.81806" lon="5.91891">
        <ele>789.1</ele>
        <time>2015-07-25T09:58:50Z</time>
      </trkpt>
      <trkpt lat="44.81803" lon="5.91882">
        <ele>789.1</ele>
        <time>2015-07-25T09:58:55Z</time>
      </trkpt>
      <trkpt lat="44.81801" lon="5.91874">
        <ele>789.1</ele>
        <time>2015-07-25T09:59:00Z</time>
      </trkpt>
      <trkpt lat="44.81799" lon="5.91865">
        <ele>788.8</ele>
        <time>2015-07-25T09:59:05Z</time>
      </trkpt>
      <trkpt lat="44.81796" lon="5.91857">
        <ele>787.5</ele>
        <time>2015-07-25T09:59:10Z</time>
      </trkpt>
      <trkpt lat="44.81796" lon="5.91847">
        <ele>787.9</ele>
        <time>2015-07-25T09:59:15Z</time>
      </trkpt>
      <trkpt lat="44.81794" lon="5.91838">
        <ele>786.7</ele>
        <time>2015-07-25T09:59:20Z</time>
      </trkpt>
      <trkpt lat="44.81791" lon="5.9183">
        <ele>786</ele>
        <time>2015-07-25T09:59:25Z</time>
      </trkpt>
      <trkpt lat="44.81786" lon="5.91822">
        <ele>785.4</ele>
        <time>2015-07-25T09:59:30Z</time>
      </trkpt>
      <trkpt lat="44.81782" lon="5.91816">
        <ele>784.8</ele>
        <time>2015-07-25T09:59:35Z</time>
      </trkpt>
      <trkpt lat="44.81776" lon="5.9181">
        <ele>783.9</ele>
        <time>2015-07-25T09:59:40Z</time>
      </trkpt>
      <trkpt lat="44.8177" lon="5.91805">
        <ele>783.5</ele>
        <time>2015-07-25T09:59:45Z</time>
      </trkpt>
      <trkpt lat="44.81764" lon="5.91799">
        <ele>782.2</ele>
        <time>2015-07-25T09:59:50Z</time>
      </trkpt>
      <trkpt lat="44.81758" lon="5.91793">
        <ele>781.2</ele>
        <time>2015-07-25T09:59:55Z</time>
      </trkpt>
      <trkpt lat="44.81752" lon="5.91787">
        <ele>781</ele>
        <time>2015-07-25T10:00:00Z</time>
      </trkpt>
      <trkpt lat="44.81746" lon="5.91782">
        <ele>780.2</ele>
        <time>2015-07-25T10:00:05Z</time>
      </trkpt>
      <trkpt lat="44.8174" lon="5.91777">
        <ele>778.5</ele>
        <time>2015-07-25T10:00:10Z</time>
      </trkpt>
      <trkpt lat="44.81734" lon="5.91773">
        <ele>777.4</ele>
        <time>2015-07-25T10:00:15Z</time>
      </trkpt>
      <trkpt lat="44.81728" lon="5.91768">
        <ele>777.5</ele>
        <time>2015-07-25T10:00:20Z</time>
      </trkpt>
      <trkpt lat="44.81723" lon="5.91762">
        <ele>776.7</ele>
        <time>2015-07-25T10:00:25Z</time>
      </trkpt>
      <trkpt lat="44.81717" lon="5.91758">
        <ele>775.5</ele>
        <time>2015-07-25T10:00:30Z</time>
      </trkpt>
      <trkpt lat="44.81712" lon="5.91753">
        <ele>775.8</ele>
        <time>2015-07-25T10:00:35Z</time>
      </trkpt>
      <trkpt lat="44.81707" lon="5.91747">
        <ele>775.4</ele>
        <time>2015-07-25T10:00:40Z</time>
      </trkpt>
      <trkpt lat="44.81704" lon="5.91739">
        <ele>775</ele>
        <time>2015-07-25T10:00:45Z</time>
      </trkpt>
      <trkpt lat="44.81703" lon="5.9173">
        <ele>775.4</ele>
        <time>2015-07-25T10:00:50Z</time>
      </trkpt>
      <trkpt lat="44.81704" lon="5.91722">
        <ele>776.1</ele>
        <time>2015-07-25T10:00:55Z</time>
      </trkpt>
      <trkpt lat="44.81707" lon="5.91715">
        <ele>775.4</ele>
        <time>2015-07-25T10:01:00Z</time>
      </trkpt>
      <trkpt lat="44.81709" lon="5.91708">
        <ele>774.8</ele>
        <time>2015-07-25T10:01:05Z</time>
      </trkpt>
      <trkpt lat="44.81714" lon="5.91703">
        <ele>774.9</ele>
        <time>2015-07-25T10:01:10Z</time>
      </trkpt>
      <trkpt lat="44.81719" lon="5.91699">
        <ele>775.2</ele>
        <time>2015-07-25T10:01:15Z</time>
      </trkpt>
      <trkpt lat="44.81724" lon="5.91694">
        <ele>775.1</ele>
        <time>2015-07-25T10:01:20Z</time>
      </trkpt>
      <trkpt lat="44.8173" lon="5.91689">
        <ele>775</ele>
        <time>2015-07-25T10:01:25Z</time>
      </trkpt>
      <trkpt lat="44.81736" lon="5.91684">
        <ele>775</ele>
        <time>2015-07-25T10:01:30Z</time>
      </trkpt>
      <trkpt lat="44.81743" lon="5.9168">
        <ele>774.6</ele>
        <time>2015-07-25T10:01:35Z</time>
      </trkpt>
      <trkpt lat="44.81749" lon="5.91676">
        <ele>774.1</ele>
        <time>2015-07-25T10:01:40Z</time>
      </trkpt>
      <trkpt lat="44.81754" lon="5.91673">
        <ele>774.8</ele>
        <time>2015-07-25T10:01:45Z</time>
      </trkpt>
      <trkpt lat="44.8176" lon="5.91669">
        <ele>775.8</ele>
        <time>2015-07-25T10:01:50Z</time>
      </trkpt>
      <trkpt lat="44.81766" lon="5.91664">
        <ele>776.7</ele>
        <time>2015-07-25T10:01:55Z</time>
      </trkpt>
      <trkpt lat="44.81772" lon="5.9166">
        <ele>777.5</ele>
        <time>2015-07-25T10:02:00Z</time>
      </trkpt>
      <trkpt lat="44.81778" lon="5.91655">
        <ele>776.3</ele>
        <time>2015-07-25T10:02:05Z</time>
      </trkpt>
      <trkpt lat="44.81783" lon="5.91649">
        <ele>775.1</ele>
        <time>2015-07-25T10:02:10Z</time>
      </trkpt>
      <trkpt lat="44.81789" lon="5.91643">
        <ele>774.8</ele>
        <time>2015-07-25T10:02:15Z</time>
      </trkpt>
      <trkpt lat="44.81794" lon="5.91638">
        <ele>776.5</ele>
        <time>2015-07-25T10:02:20Z</time>
      </trkpt>
      <trkpt lat="44.81799" lon="5.91632">
        <ele>778</ele>
        <time>2015-07-25T10:02:25Z</time>
      </trkpt>
      <trkpt lat="44.81804" lon="5.91627">
        <ele>779.3</ele>
        <time>2015-07-25T10:02:30Z</time>
      </trkpt>
      <trkpt lat="44.81809" lon="5.91621">
        <ele>779.5</ele>
        <time>2015-07-25T10:02:35Z</time>
      </trkpt>
      <trkpt lat="44.81814" lon="5.91615">
        <ele>780.1</ele>
        <time>2015-07-25T10:02:40Z</time>
      </trkpt>
      <trkpt lat="44.81818" lon="5.91609">
        <ele>780</ele>
        <time>2015-07-25T10:02:45Z</time>
      </trkpt>
      <trkpt lat="44.81824" lon="5.91603">
        <ele>779.6</ele>
        <time>2015-07-25T10:02:50Z</time>
      </trkpt>
      <trkpt lat="44.81829" lon="5.91598">
        <ele>779.6</ele>
        <time>2015-07-25T10:02:55Z</time>
      </trkpt>
      <trkpt lat="44.81835" lon="5.91594">
        <ele>779.4</ele>
        <time>2015-07-25T10:03:00Z</time>
      </trkpt>
      <trkpt lat="44.81841" lon="5.91593">
        <ele>779.2</ele>
        <time>2015-07-25T10:03:05Z</time>
      </trkpt>
      <trkpt lat="44.81848" lon="5.91591">
        <ele>780</ele>
        <time>2015-07-25T10:03:10Z</time>
      </trkpt>
      <trkpt lat="44.81854" lon="5.91588">
        <ele>778.6</ele>
        <time>2015-07-25T10:03:15Z</time>
      </trkpt>
      <trkpt lat="44.81861" lon="5.91587">
        <ele>778.2</ele>
        <time>2015-07-25T10:03:20Z</time>
      </trkpt>
      <trkpt lat="44.81867" lon="5.91586">
        <ele>779.1</ele>
        <time>2015-07-25T10:03:25Z</time>
      </trkpt>
      <trkpt lat="44.81873" lon="5.91587">
        <ele>781.1</ele>
        <time>2015-07-25T10:03:30Z</time>
      </trkpt>
      <trkpt lat="44.81879" lon="5.91588">
        <ele>785</ele>
        <time>2015-07-25T10:03:35Z</time>
      </trkpt>
      <trkpt lat="44.81886" lon="5.91586">
        <ele>782.9</ele>
        <time>2015-07-25T10:03:40Z</time>
      </trkpt>
      <trkpt lat="44.81893" lon="5.91585">
        <ele>781.8</ele>
        <time>2015-07-25T10:03:45Z</time>
      </trkpt>
      <trkpt lat="44.81899" lon="5.91584">
        <ele>782.2</ele>
        <time>2015-07-25T10:03:50Z</time>
      </trkpt>
      <trkpt lat="44.81905" lon="5.91584">
        <ele>782.5</ele>
        <time>2015-07-25T10:03:55Z</time>
      </trkpt>
      <trkpt lat="44.8191" lon="5.91582">
        <ele>785.4</ele>
        <time>2015-07-25T10:04:00Z</time>
      </trkpt>
      <trkpt lat="44.81916" lon="5.91582">
        <ele>790.1</ele>
        <time>2015-07-25T10:04:05Z</time>
      </trkpt>
      <trkpt lat="44.81924" lon="5.91578">
        <ele>788.3</ele>
        <time>2015-07-25T10:04:10Z</time>
      </trkpt>
      <trkpt lat="44.8193" lon="5.91572">
        <ele>787.4</ele>
        <time>2015-07-25T10:04:15Z</time>
      </trkpt>
      <trkpt lat="44.81936" lon="5.91564">
        <ele>786.6</ele>
        <time>2015-07-25T10:04:20Z</time>
      </trkpt>
      <trkpt lat="44.81939" lon="5.91554">
        <ele>784.4</ele>
        <time>2015-07-25T10:04:25Z</time>
      </trkpt>
      <trkpt lat="44.81941" lon="5.91544">
        <ele>783</ele>
        <time>2015-07-25T10:04:30Z</time>
      </trkpt>
      <trkpt lat="44.8194" lon="5.91534">
        <ele>782.4</ele>
        <time>2015-07-25T10:04:35Z</time>
      </trkpt>
      <trkpt lat="44.81939" lon="5.91524">
        <ele>781.5</ele>
        <time>2015-07-25T10:04:40Z</time>
      </trkpt>
      <trkpt lat="44.81937" lon="5.91515">
        <ele>779.8</ele>
        <time>2015-07-25T10:04:45Z</time>
      </trkpt>
      <trkpt lat="44.81934" lon="5.91506">
        <ele>778.4</ele>
        <time>2015-07-25T10:04:50Z</time>
      </trkpt>
      <trkpt lat="44.81931" lon="5.91498">
        <ele>776.8</ele>
        <time>2015-07-25T10:04:55Z</time>
      </trkpt>
      <trkpt lat="44.81926" lon="5.9149">
        <ele>775.7</ele>
        <time>2015-07-25T10:05:00Z</time>
      </trkpt>
      <trkpt lat="44.81922" lon="5.91482">
        <ele>775.1</ele>
        <time>2015-07-25T10:05:05Z</time>
      </trkpt>
      <trkpt lat="44.81918" lon="5.91474">
        <ele>774.8</ele>
        <time>2015-07-25T10:05:10Z</time>
      </trkpt>
      <trkpt lat="44.81915" lon="5.91466">
        <ele>774.5</ele>
        <time>2015-07-25T10:05:15Z</time>
      </trkpt>
      <trkpt lat="44.8191" lon="5.91459">
        <ele>775</ele>
        <time>2015-07-25T10:05:20Z</time>
      </trkpt>
      <trkpt lat="44.81904" lon="5.91453">
        <ele>775.5</ele>
        <time>2015-07-25T10:05:25Z</time>
      </trkpt>
      <trkpt lat="44.81899" lon="5.91447">
        <ele>775.2</ele>
        <time>2015-07-25T10:05:30Z</time>
      </trkpt>
      <trkpt lat="44.81893" lon="5.91442">
        <ele>774.7</ele>
        <time>2015-07-25T10:05:35Z</time>
      </trkpt>
      <trkpt lat="44.81887" lon="5.91437">
        <ele>774.4</ele>
        <time>2015-07-25T10:05:40Z</time>
      </trkpt>
      <trkpt lat="44.81881" lon="5.91434">
        <ele>774.9</ele>
        <time>2015-07-25T10:05:45Z</time>
      </trkpt>
      <trkpt lat="44.81876" lon="5.91432">
        <ele>774.9</ele>
        <time>2015-07-25T10:05:50Z</time>
      </trkpt>
      <trkpt lat="44.8187" lon="5.91428">
        <ele>774.9</ele>
        <time>2015-07-25T10:05:55Z</time>
      </trkpt>
      <trkpt lat="44.81865" lon="5.91422">
        <ele>775</ele>
        <time>2015-07-25T10:06:00Z</time>
      </trkpt>
      <trkpt lat="44.81861" lon="5.91416">
        <ele>775</ele>
        <time>2015-07-25T10:06:05Z</time>
      </trkpt>
      <trkpt lat="44.81856" lon="5.91409">
        <ele>774.9</ele>
        <time>2015-07-25T10:06:10Z</time>
      </trkpt>
      <trkpt lat="44.81852" lon="5.91404">
        <ele>775.4</ele>
        <time>2015-07-25T10:06:15Z</time>
      </trkpt>
      <trkpt lat="44.81848" lon="5.91398">
        <ele>775.7</ele>
        <time>2015-07-25T10:06:20Z</time>
      </trkpt>
      <trkpt lat="44.81844" lon="5.9139">
        <ele>775.5</ele>
        <time>2015-07-25T10:06:25Z</time>
      </trkpt>
      <trkpt lat="44.81841" lon="5.91383">
        <ele>775.3</ele>
        <time>2015-07-25T10:06:30Z</time>
      </trkpt>
      <trkpt lat="44.81839" lon="5.91375">
        <ele>775.1</ele>
        <time>2015-07-25T10:06:35Z</time>
      </trkpt>
      <trkpt lat="44.81837" lon="5.91366">
        <ele>774.9</ele>
        <time>2015-07-25T10:06:40Z</time>
      </trkpt>
      <trkpt lat="44.81833" lon="5.91358">
        <ele>774.4</ele>
        <time>2015-07-25T10:06:45Z</time>
      </trkpt>
      <trkpt lat="44.81831" lon="5.91348">
        <ele>773.6</ele>
        <time>2015-07-25T10:06:50Z</time>
      </trkpt>
      <trkpt lat="44.8183" lon="5.9134">
        <ele>773.2</ele>
        <time>2015-07-25T10:06:55Z</time>
      </trkpt>
      <trkpt lat="44.81828" lon="5.91331">
        <ele>773</ele>
        <time>2015-07-25T10:07:00Z</time>
      </trkpt>
      <trkpt lat="44.81825" lon="5.91322">
        <ele>774</ele>
        <time>2015-07-25T10:07:05Z</time>
      </trkpt>
      <trkpt lat="44.81822" lon="5.91313">
        <ele>774.6</ele>
        <time>2015-07-25T10:07:10Z</time>
      </trkpt>
      <trkpt lat="44.81819" lon="5.91304">
        <ele>775.5</ele>
        <time>2015-07-25T10:07:15Z</time>
      </trkpt>
      <trkpt lat="44.81816" lon="5.91297">
        <ele>777.5</ele>
        <time>2015-07-25T10:07:20Z</time>
      </trkpt>
      <trkpt lat="44.81814" lon="5.91289">
        <ele>778.8</ele>
        <time>2015-07-25T10:07:25Z</time>
      </trkpt>
      <trkpt lat="44.81814" lon="5.9128">
        <ele>778.6</ele>
        <time>2015-07-25T10:07:30Z</time>
      </trkpt>
      <trkpt lat="44.81812" lon="5.91272">
        <ele>778.6</ele>
        <time>2015-07-25T10:07:35Z</time>
      </trkpt>
      <trkpt lat="44.81812" lon="5.91263">
        <ele>778.6</ele>
        <time>2015-07-25T10:07:40Z</time>
      </trkpt>
      <trkpt lat="44.81814" lon="5.91254">
        <ele>778.4</ele>
        <time>2015-07-25T10:07:45Z</time>
      </trkpt>
      <trkpt lat="44.81814" lon="5.91245">
        <ele>778.1</ele>
        <time>2015-07-25T10:07:50Z</time>
      </trkpt>
      <trkpt lat="44.81815" lon="5.91235">
        <ele>777.9</ele>
        <time>2015-07-25T10:07:55Z</time>
      </trkpt>
      <trkpt lat="44.81816" lon="5.91226">
        <ele>778</ele>
        <time>2015-07-25T10:08:00Z</time>
      </trkpt>
      <trkpt lat="44.81816" lon="5.91218">
        <ele>777.9</ele>
        <time>2015-07-25T10:08:05Z</time>
      </trkpt>
      <trkpt lat="44.81817" lon="5.91209">
        <ele>777.8</ele>
        <time>2015-07-25T10:08:10Z</time>
      </trkpt>
      <trkpt lat="44.81818" lon="5.91201">
        <ele>777.9</ele>
        <time>2015-07-25T10:08:15Z</time>
      </trkpt>
      <trkpt lat="44.8182" lon="5.91192">
        <ele>778</ele>
        <time>2015-07-25T10:08:20Z</time>
      </trkpt>
      <trkpt lat="44.8182" lon="5.91183">
        <ele>778.4</ele>
        <time>2015-07-25T10:08:25Z</time>
      </trkpt>
      <trkpt lat="44.81822" lon="5.91175">
        <ele>778.5</ele>
        <time>2015-07-25T10:08:30Z</time>
      </trkpt>
      <trkpt lat="44.81824" lon="5.91166">
        <ele>778.4</ele>
        <time>2015-07-25T10:08:35Z</time>
      </trkpt>
      <trkpt lat="44.81826" lon="5.91158">
        <ele>778.6</ele>
        <time>2015-07-25T10:08:40Z</time>
      </trkpt>
      <trkpt lat="44.81828" lon="5.9115">
        <ele>779.2</ele>
        <time>2015-07-25T10:08:45Z</time>
      </trkpt>
      <trkpt lat="44.8183" lon="5.91143">
        <ele>780.6</ele>
        <time>2015-07-25T10:08:50Z</time>
      </trkpt>
      <trkpt lat="44.81833" lon="5.91135">
        <ele>781.8</ele>
        <time>2015-07-25T10:08:55Z</time>
      </trkpt>
      <trkpt lat="44.81836" lon="5.91127">
        <ele>781.7</ele>
        <time>2015-07-25T10:09:00Z</time>
      </trkpt>
      <trkpt lat="44.81838" lon="5.91118">
        <ele>782.7</ele>
        <time>2015-07-25T10:09:05Z</time>
      </trkpt>
      <trkpt lat="44.81839" lon="5.9111">
        <ele>783.3</ele>
        <time>2015-07-25T10:09:10Z</time>
      </trkpt>
      <trkpt lat="44.81842" lon="5.911">
        <ele>783.4</ele>
        <time>2015-07-25T10:09:15Z</time>
      </trkpt>
      <trkpt lat="44.81843" lon="5.9109">
        <ele>782.7</ele>
        <time>2015-07-25T10:09:20Z</time>
      </trkpt>
      <trkpt lat="44.81844" lon="5.91081">
        <ele>782</ele>
        <time>2015-07-25T10:09:25Z</time>
      </trkpt>
      <trkpt lat="44.81843" lon="5.91072">
        <ele>782.6</ele>
        <time>2015-07-25T10:09:30Z</time>
      </trkpt>
      <trkpt lat="44.81841" lon="5.91063">
        <ele>783</ele>
        <time>2015-07-25T10:09:35Z</time>
      </trkpt>
      <trkpt lat="44.81839" lon="5.91055">
        <ele>784.5</ele>
        <time>2015-07-25T10:09:40Z</time>
      </trkpt>
      <trkpt lat="44.81835" lon="5.91047">
        <ele>784.9</ele>
        <time>2015-07-25T10:09:45Z</time>
      </trkpt>
      <trkpt lat="44.81834" lon="5.91038">
        <ele>783.9</ele>
        <time>2015-07-25T10:09:50Z</time>
      </trkpt>
      <trkpt lat="44.81832" lon="5.91029">
        <ele>783.9</ele>
        <time>2015-07-25T10:09:55Z</time>
      </trkpt>
      <trkpt lat="44.8183" lon="5.91021">
        <ele>784.5</ele>
        <time>2015-07-25T10:10:00Z</time>
      </trkpt>
      <trkpt lat="44.8183" lon="5.91012">
        <ele>784.1</ele>
        <time>2015-07-25T10:10:05Z</time>
      </trkpt>
      <trkpt lat="44.81828" lon="5.91003">
        <ele>784.5</ele>
        <time>2015-07-25T10:10:10Z</time>
      </trkpt>
      <trkpt lat="44.81828" lon="5.90995">
        <ele>784.4</ele>
        <time>2015-07-25T10:10:15Z</time>
      </trkpt>
      <trkpt lat="44.81826" lon="5.90986">
        <ele>784.5</ele>
        <time>2015-07-25T10:10:20Z</time>
      </trkpt>
      <trkpt lat="44.81825" lon="5.90979">
        <ele>784.8</ele>
        <time>2015-07-25T10:10:25Z</time>
      </trkpt>
      <trkpt lat="44.81825" lon="5.90971">
        <ele>785.4</ele>
        <time>2015-07-25T10:10:30Z</time>
      </trkpt>
      <trkpt lat="44.81824" lon="5.90963">
        <ele>786.3</ele>
        <time>2015-07-25T10:10:35Z</time>
      </trkpt>
      <trkpt lat="44.81824" lon="5.90955">
        <ele>787</ele>
        <time>2015-07-25T10:10:40Z</time>
      </trkpt>
      <trkpt lat="44.81824" lon="5.90954">
        <ele>786.7</ele>
        <time>2015-07-25T10:10:45Z</time>
      </trkpt>
      <trkpt lat="44.81825" lon="5.90944">
        <ele>785.9</ele>
        <time>2015-07-25T10:10:50Z</time>
      </trkpt>
      <trkpt lat="44.81825" lon="5.90935">
        <ele>785.6</ele>
        <time>2015-07-25T10:10:55Z</time>
      </trkpt>
      <trkpt lat="44.81828" lon="5.90926">
        <ele>784.8</ele>
        <time>2015-07-25T10:11:00Z</time>
      </trkpt>
      <trkpt lat="44.8183" lon="5.90919">
        <ele>783.5</ele>
        <time>2015-07-25T10:11:05Z</time>
      </trkpt>
      <trkpt lat="44.81831" lon="5.9091">
        <ele>783</ele>
        <time>2015-07-25T10:11:10Z</time>
      </trkpt>
      <trkpt lat="44.81834" lon="5.909">
        <ele>782.2</ele>
        <time>2015-07-25T10:11:15Z</time>
      </trkpt>
      <trkpt lat="44.81835" lon="5.90892">
        <ele>781.5</ele>
        <time>2015-07-25T10:11:20Z</time>
      </trkpt>
      <trkpt lat="44.81836" lon="5.90883">
        <ele>781.5</ele>
        <time>2015-07-25T10:11:25Z</time>
      </trkpt>
      <trkpt lat="44.81836" lon="5.90875">
        <ele>784.8</ele>
        <time>2015-07-25T10:11:30Z</time>
      </trkpt>
      <trkpt lat="44.81838" lon="5.90866">
        <ele>785.5</ele>
        <time>2015-07-25T10:11:35Z</time>
      </trkpt>
      <trkpt lat="44.81839" lon="5.90857">
        <ele>785.5</ele>
        <time>2015-07-25T10:11:40Z</time>
      </trkpt>
      <trkpt lat="44.8184" lon="5.90848">
        <ele>786.7</ele>
        <time>2015-07-25T10:11:45Z</time>
      </trkpt>
      <trkpt lat="44.81838" lon="5.9084">
        <ele>789.4</ele>
        <time>2015-07-25T10:11:50Z</time>
      </trkpt>
      <trkpt lat="44.81838" lon="5.90832">
        <ele>791.3</ele>
        <time>2015-07-25T10:11:55Z</time>
      </trkpt>
      <trkpt lat="44.81835" lon="5.90823">
        <ele>794.8</ele>
        <time>2015-07-25T10:12:00Z</time>
      </trkpt>
      <trkpt lat="44.81831" lon="5.90816">
        <ele>796.8</ele>
        <time>2015-07-25T10:12:05Z</time>
      </trkpt>
      <trkpt lat="44.81826" lon="5.90809">
        <ele>796.7</ele>
        <time>2015-07-25T10:12:10Z</time>
      </trkpt>
      <trkpt lat="44.81821" lon="5.90802">
        <ele>797.9</ele>
        <time>2015-07-25T10:12:15Z</time>
      </trkpt>
      <trkpt lat="44.81817" lon="5.90794">
        <ele>797.7</ele>
        <time>2015-07-25T10:12:20Z</time>
      </trkpt>
      <trkpt lat="44.81813" lon="5.90787">
        <ele>797.6</ele>
        <time>2015-07-25T10:12:25Z</time>
      </trkpt>
      <trkpt lat="44.81809" lon="5.9078">
        <ele>797.4</ele>
        <time>2015-07-25T10:12:30Z</time>
      </trkpt>
      <trkpt lat="44.81805" lon="5.90773">
        <ele>797.4</ele>
        <time>2015-07-25T10:12:35Z</time>
      </trkpt>
      <trkpt lat="44.81801" lon="5.90766">
        <ele>797.6</ele>
        <time>2015-07-25T10:12:40Z</time>
      </trkpt>
      <trkpt lat="44.81797" lon="5.90759">
        <ele>798</ele>
        <time>2015-07-25T10:12:45Z</time>
      </trkpt>
      <trkpt lat="44.81793" lon="5.90752">
        <ele>800</ele>
        <time>2015-07-25T10:12:50Z</time>
      </trkpt>
      <trkpt lat="44.81789" lon="5.90747">
        <ele>800.6</ele>
        <time>2015-07-25T10:12:55Z</time>
      </trkpt>
      <trkpt lat="44.81783" lon="5.90743">
        <ele>801.3</ele>
        <time>2015-07-25T10:13:00Z</time>
      </trkpt>
      <trkpt lat="44.81777" lon="5.90741">
        <ele>803.6</ele>
        <time>2015-07-25T10:13:05Z</time>
      </trkpt>
      <trkpt lat="44.8177" lon="5.9074">
        <ele>805.3</ele>
        <time>2015-07-25T10:13:10Z</time>
      </trkpt>
      <trkpt lat="44.81764" lon="5.9074">
        <ele>806.7</ele>
        <time>2015-07-25T10:13:15Z</time>
      </trkpt>
      <trkpt lat="44.81758" lon="5.90744">
        <ele>807</ele>
        <time>2015-07-25T10:13:20Z</time>
      </trkpt>
      <trkpt lat="44.81752" lon="5.90749">
        <ele>806.5</ele>
        <time>2015-07-25T10:13:25Z</time>
      </trkpt>
      <trkpt lat="44.81746" lon="5.90754">
        <ele>806.2</ele>
        <time>2015-07-25T10:13:30Z</time>
      </trkpt>
      <trkpt lat="44.8174" lon="5.90759">
        <ele>804.7</ele>
        <time>2015-07-25T10:13:35Z</time>
      </trkpt>
      <trkpt lat="44.81733" lon="5.90764">
        <ele>803.4</ele>
        <time>2015-07-25T10:13:40Z</time>
      </trkpt>
      <trkpt lat="44.81727" lon="5.90769">
        <ele>802.9</ele>
        <time>2015-07-25T10:13:45Z</time>
      </trkpt>
      <trkpt lat="44.81722" lon="5.90774">
        <ele>802.4</ele>
        <time>2015-07-25T10:13:50Z</time>
      </trkpt>
      <trkpt lat="44.81716" lon="5.90779">
        <ele>802.1</ele>
        <time>2015-07-25T10:13:55Z</time>
      </trkpt>
      <trkpt lat="44.81711" lon="5.90783">
        <ele>801.9</ele>
        <time>2015-07-25T10:14:00Z</time>
      </trkpt>
      <trkpt lat="44.81705" lon="5.90787">
        <ele>801.7</ele>
        <time>2015-07-25T10:14:05Z</time>
      </trkpt>
      <trkpt lat="44.81699" lon="5.90792">
        <ele>801.9</ele>
        <time>2015-07-25T10:14:10Z</time>
      </trkpt>
      <trkpt lat="44.81693" lon="5.90797">
        <ele>801.8</ele>
        <time>2015-07-25T10:14:15Z</time>
      </trkpt>
      <trkpt lat="44.81688" lon="5.908">
        <ele>802.4</ele>
        <time>2015-07-25T10:14:20Z</time>
      </trkpt>
      <trkpt lat="44.81681" lon="5.908">
        <ele>802.8</ele>
        <time>2015-07-25T10:14:25Z</time>
      </trkpt>
      <trkpt lat="44.81675" lon="5.90799">
        <ele>802.7</ele>
        <time>2015-07-25T10:14:30Z</time>
      </trkpt>
      <trkpt lat="44.8167" lon="5.90795">
        <ele>802.8</ele>
        <time>2015-07-25T10:14:35Z</time>
      </trkpt>
      <trkpt lat="44.81666" lon="5.90789">
        <ele>803.1</ele>
        <time>2015-07-25T10:14:40Z</time>
      </trkpt>
      <trkpt lat="44.81662" lon="5.90782">
        <ele>803.6</ele>
        <time>2015-07-25T10:14:45Z</time>
      </trkpt>
      <trkpt lat="44.81658" lon="5.90775">
        <ele>804.3</ele>
        <time>2015-07-25T10:14:50Z</time>
      </trkpt>
      <trkpt lat="44.81654" lon="5.90768">
        <ele>804.9</ele>
        <time>2015-07-25T10:14:55Z</time>
      </trkpt>
      <trkpt lat="44.81651" lon="5.90761">
        <ele>805.5</ele>
        <time>2015-07-25T10:15:00Z</time>
      </trkpt>
      <trkpt lat="44.81647" lon="5.90753">
        <ele>806.1</ele>
        <time>2015-07-25T10:15:05Z</time>
      </trkpt>
      <trkpt lat="44.81643" lon="5.90746">
        <ele>806.7</ele>
        <time>2015-07-25T10:15:10Z</time>
      </trkpt>
      <trkpt lat="44.8164" lon="5.90738">
        <ele>807.2</ele>
        <time>2015-07-25T10:15:15Z</time>
      </trkpt>
      <trkpt lat="44.81636" lon="5.90731">
        <ele>807.6</ele>
        <time>2015-07-25T10:15:20Z</time>
      </trkpt>
      <trkpt lat="44.81632" lon="5.90724">
        <ele>808.1</ele>
        <time>2015-07-25T10:15:25Z</time>
      </trkpt>
      <trkpt lat="44.81627" lon="5.90718">
        <ele>808.6</ele>
        <time>2015-07-25T10:15:30Z</time>
      </trkpt>
      <trkpt lat="44.8162" lon="5.90716">
        <ele>809.2</ele>
        <time>2015-07-25T10:15:35Z</time>
      </trkpt>
      <trkpt lat="44.81615" lon="5.90719">
        <ele>810.4</ele>
        <time>2015-07-25T10:15:40Z</time>
      </trkpt>
      <trkpt lat="44.81613" lon="5.90728">
        <ele>811.1</ele>
        <time>2015-07-25T10:15:45Z</time>
      </trkpt>
      <trkpt lat="44.81612" lon="5.90737">
        <ele>812.5</ele>
        <time>2015-07-25T10:15:50Z</time>
      </trkpt>
      <trkpt lat="44.81613" lon="5.90746">
        <ele>813.1</ele>
        <time>2015-07-25T10:15:55Z</time>
      </trkpt>
      <trkpt lat="44.81614" lon="5.90754">
        <ele>814.2</ele>
        <time>2015-07-25T10:16:00Z</time>
      </trkpt>
      <trkpt lat="44.81615" lon="5.90763">
        <ele>815</ele>
        <time>2015-07-25T10:16:05Z</time>
      </trkpt>
      <trkpt lat="44.81614" lon="5.90771">
        <ele>815.7</ele>
        <time>2015-07-25T10:16:10Z</time>
      </trkpt>
      <trkpt lat="44.81614" lon="5.90782">
        <ele>816.5</ele>
        <time>2015-07-25T10:16:15Z</time>
      </trkpt>
      <trkpt lat="44.81614" lon="5.90791">
        <ele>817.3</ele>
        <time>2015-07-25T10:16:20Z</time>
      </trkpt>
      <trkpt lat="44.81614" lon="5.90801">
        <ele>817.2</ele>
        <time>2015-07-25T10:16:25Z</time>
      </trkpt>
      <trkpt lat="44.81613" lon="5.90811">
        <ele>817.3</ele>
        <time>2015-07-25T10:16:30Z</time>
      </trkpt>
      <trkpt lat="44.81613" lon="5.90821">
        <ele>817.2</ele>
        <time>2015-07-25T10:16:35Z</time>
      </trkpt>
      <trkpt lat="44.81612" lon="5.9083">
        <ele>817.6</ele>
        <time>2015-07-25T10:16:40Z</time>
      </trkpt>
      <trkpt lat="44.81607" lon="5.90834">
        <ele>816.9</ele>
        <time>2015-07-25T10:16:45Z</time>
      </trkpt>
      <trkpt lat="44.81604" lon="5.90828">
        <ele>815.7</ele>
        <time>2015-07-25T10:16:50Z</time>
      </trkpt>
      <trkpt lat="44.81602" lon="5.9082">
        <ele>815.5</ele>
        <time>2015-07-25T10:16:55Z</time>
      </trkpt>
      <trkpt lat="44.81602" lon="5.90818">
        <ele>815.1</ele>
        <time>2015-07-25T10:17:00Z</time>
      </trkpt>
      <trkpt lat="44.81601" lon="5.9081">
        <ele>815.8</ele>
        <time>2015-07-25T10:17:05Z</time>
      </trkpt>
      <trkpt lat="44.81598" lon="5.90802">
        <ele>816.4</ele>
        <time>2015-07-25T10:17:10Z</time>
      </trkpt>
      <trkpt lat="44.81596" lon="5.90794">
        <ele>816.9</ele>
        <time>2015-07-25T10:17:15Z</time>
      </trkpt>
      <trkpt lat="44.81593" lon="5.90786">
        <ele>817.3</ele>
        <time>2015-07-25T10:17:20Z</time>
      </trkpt>
      <trkpt lat="44.8159" lon="5.90778">
        <ele>817.5</ele>
        <time>2015-07-25T10:17:25Z</time>
      </trkpt>
      <trkpt lat="44.81588" lon="5.9077">
        <ele>817.7</ele>
        <time>2015-07-25T10:17:30Z</time>
      </trkpt>
      <trkpt lat="44.81587" lon="5.90769">
        <ele>818.2</ele>
        <time>2015-07-25T10:17:35Z</time>
      </trkpt>
      <trkpt lat="44.81587" lon="5.90769">
        <ele>818.5</ele>
        <time>2015-07-25T10:17:40Z</time>
      </trkpt>
      <trkpt lat="44.81587" lon="5.90769">
        <ele>819</ele>
        <time>2015-07-25T10:17:45Z</time>
      </trkpt>
      <trkpt lat="44.81585" lon="5.90768">
        <ele>819.5</ele>
        <time>2015-07-25T10:17:50Z</time>
      </trkpt>
      <trkpt lat="44.81587" lon="5.90768">
        <ele>820.7</ele>
        <time>2015-07-25T10:17:55Z</time>
      </trkpt>
      <trkpt lat="44.81588" lon="5.90768">
        <ele>822.1</ele>
        <time>2015-07-25T10:18:00Z</time>
      </trkpt>
      <trkpt lat="44.81588" lon="5.90767">
        <ele>821.8</ele>
        <time>2015-07-25T10:18:05Z</time>
      </trkpt>
      <trkpt lat="44.81587" lon="5.90766">
        <ele>822</ele>
        <time>2015-07-25T10:18:10Z</time>
      </trkpt>
      <trkpt lat="44.81587" lon="5.90767">
        <ele>821</ele>
        <time>2015-07-25T10:18:15Z</time>
      </trkpt>
      <trkpt lat="44.81587" lon="5.90768">
        <ele>820.6</ele>
        <time>2015-07-25T10:18:20Z</time>
      </trkpt>
      <trkpt lat="44.81588" lon="5.90768">
        <ele>820</ele>
        <time>2015-07-25T10:18:25Z</time>
      </trkpt>
      <trkpt lat="44.81587" lon="5.90767">
        <ele>818.7</ele>
        <time>2015-07-25T10:18:30Z</time>
      </trkpt>
      <trkpt lat="44.81587" lon="5.90767">
        <ele>819</ele>
        <time>2015-07-25T10:18:35Z</time>
      </trkpt>
      <trkpt lat="44.81588" lon="5.90768">
        <ele>820.5</ele>
        <time>2015-07-25T10:18:40Z</time>
      </trkpt>
      <trkpt lat="44.81589" lon="5.90772">
        <ele>823.2</ele>
        <time>2015-07-25T10:18:45Z</time>
      </trkpt>
      <trkpt lat="44.81586" lon="5.90771">
        <ele>820.6</ele>
        <time>2015-07-25T10:18:50Z</time>
      </trkpt>
      <trkpt lat="44.81586" lon="5.90769">
        <ele>818.5</ele>
        <time>2015-07-25T10:18:55Z</time>
      </trkpt>
      <trkpt lat="44.81586" lon="5.90765">
        <ele>819.8</ele>
        <time>2015-07-25T10:19:00Z</time>
      </trkpt>
      <trkpt lat="44.81587" lon="5.90764">
        <ele>822.3</ele>
        <time>2015-07-25T10:19:05Z</time>
      </trkpt>
      <trkpt lat="44.81587" lon="5.90763">
        <ele>824.1</ele>
        <time>2015-07-25T10:19:10Z</time>
      </trkpt>
      <trkpt lat="44.81589" lon="5.90765">
        <ele>824.8</ele>
        <time>2015-07-25T10:19:15Z</time>
      </trkpt>
      <trkpt lat="44.81588" lon="5.90767">
        <ele>820.2</ele>
        <time>2015-07-25T10:19:20Z</time>
      </trkpt>
      <trkpt lat="44.81587" lon="5.90767">
        <ele>818.6</ele>
        <time>2015-07-25T10:19:25Z</time>
      </trkpt>
      <trkpt lat="44.81591" lon="5.90768">
        <ele>816.4</ele>
        <time>2015-07-25T10:19:30Z</time>
      </trkpt>
      <trkpt lat="44.8159" lon="5.90769">
        <ele>814.7</ele>
        <time>2015-07-25T10:19:35Z</time>
      </trkpt>
      <trkpt lat="44.8159" lon="5.9077">
        <ele>816.9</ele>
        <time>2015-07-25T10:19:41Z</time>
      </trkpt>
      <trkpt lat="44.81589" lon="5.90769">
        <ele>821.3</ele>
        <time>2015-07-25T10:19:46Z</time>
      </trkpt>
      <trkpt lat="44.81585" lon="5.90768">
        <ele>821.6</ele>
        <time>2015-07-25T10:19:51Z</time>
      </trkpt>
      <trkpt lat="44.81587" lon="5.90763">
        <ele>818.2</ele>
        <time>2015-07-25T10:19:56Z</time>
      </trkpt>
      <trkpt lat="44.81585" lon="5.90766">
        <ele>820.5</ele>
        <time>2015-07-25T10:20:01Z</time>
      </trkpt>
      <trkpt lat="44.81585" lon="5.90766">
        <ele>820.8</ele>
        <time>2015-07-25T10:20:06Z</time>
      </trkpt>
      <trkpt lat="44.8159" lon="5.90767">
        <ele>821.4</ele>
        <time>2015-07-25T10:20:11Z</time>
      </trkpt>
      <trkpt lat="44.8159" lon="5.90763">
        <ele>821.2</ele>
        <time>2015-07-25T10:20:16Z</time>
      </trkpt>
      <trkpt lat="44.81591" lon="5.90765">
        <ele>822</ele>
        <time>2015-07-25T10:20:21Z</time>
      </trkpt>
      <trkpt lat="44.81589" lon="5.90767">
        <ele>821.6</ele>
        <time>2015-07-25T10:20:26Z</time>
      </trkpt>
      <trkpt lat="44.8159" lon="5.90768">
        <ele>821.1</ele>
        <time>2015-07-25T10:20:31Z</time>
      </trkpt>
      <trkpt lat="44.8159" lon="5.9077">
        <ele>820.1</ele>
        <time>2015-07-25T10:20:36Z</time>
      </trkpt>
      <trkpt lat="44.81588" lon="5.9077">
        <ele>816.2</ele>
        <time>2015-07-25T10:20:41Z</time>
      </trkpt>
      <trkpt lat="44.81588" lon="5.9077">
        <ele>819.1</ele>
        <time>2015-07-25T10:20:46Z</time>
      </trkpt>
      <trkpt lat="44.8159" lon="5.9077">
        <ele>820.8</ele>
        <time>2015-07-25T10:20:51Z</time>
      </trkpt>
      <trkpt lat="44.81589" lon="5.90771">
        <ele>821.8</ele>
        <time>2015-07-25T10:20:56Z</time>
      </trkpt>
      <trkpt lat="44.81589" lon="5.90771">
        <ele>824.1</ele>
        <time>2015-07-25T10:21:01Z</time>
      </trkpt>
      <trkpt lat="44.81591" lon="5.90771">
        <ele>829.2</ele>
        <time>2015-07-25T10:21:06Z</time>
      </trkpt>
      <trkpt lat="44.8159" lon="5.90767">
        <ele>827.3</ele>
        <time>2015-07-25T10:21:11Z</time>
      </trkpt>
      <trkpt lat="44.81588" lon="5.90765">
        <ele>822.7</ele>
        <time>2015-07-25T10:21:16Z</time>
      </trkpt>
      <trkpt lat="44.81588" lon="5.90766">
        <ele>820.3</ele>
        <time>2015-07-25T10:21:21Z</time>
      </trkpt>
      <trkpt lat="44.81587" lon="5.90765">
        <ele>820.5</ele>
        <time>2015-07-25T10:21:26Z</time>
      </trkpt>
      <trkpt lat="44.81587" lon="5.90765">
        <ele>820.7</ele>
        <time>2015-07-25T10:21:31Z</time>
      </trkpt>
      <trkpt lat="44.81587" lon="5.90765">
        <ele>819.8</ele>
        <time>2015-07-25T10:21:36Z</time>
      </trkpt>
      <trkpt lat="44.81585" lon="5.90765">
        <ele>820.7</ele>
        <time>2015-07-25T10:21:41Z</time>
      </trkpt>
      <trkpt lat="44.81583" lon="5.90766">
        <ele>821.3</ele>
        <time>2015-07-25T10:21:46Z</time>
      </trkpt>
      <trkpt lat="44.81583" lon="5.90766">
        <ele>820.6</ele>
        <time>2015-07-25T10:21:51Z</time>
      </trkpt>
      <trkpt lat="44.81582" lon="5.90768">
        <ele>817.9</ele>
        <time>2015-07-25T10:21:56Z</time>
      </trkpt>
      <trkpt lat="44.81582" lon="5.90773">
        <ele>811.4</ele>
        <time>2015-07-25T10:22:01Z</time>
      </trkpt>
      <trkpt lat="44.81585" lon="5.9077">
        <ele>809</ele>
        <time>2015-07-25T10:22:06Z</time>
      </trkpt>
      <trkpt lat="44.81587" lon="5.90768">
        <ele>809.1</ele>
        <time>2015-07-25T10:22:11Z</time>
      </trkpt>
      <trkpt lat="44.81587" lon="5.90767">
        <ele>809.7</ele>
        <time>2015-07-25T10:22:16Z</time>
      </trkpt>
      <trkpt lat="44.81587" lon="5.90766">
        <ele>809.4</ele>
        <time>2015-07-25T10:22:21Z</time>
      </trkpt>
      <trkpt lat="44.81588" lon="5.90764">
        <ele>810.5</ele>
        <time>2015-07-25T10:22:26Z</time>
      </trkpt>
      <trkpt lat="44.81588" lon="5.90762">
        <ele>813.2</ele>
        <time>2015-07-25T10:22:31Z</time>
      </trkpt>
      <trkpt lat="44.81588" lon="5.9076">
        <ele>815.4</ele>
        <time>2015-07-25T10:22:36Z</time>
      </trkpt>
      <trkpt lat="44.81588" lon="5.90762">
        <ele>814</ele>
        <time>2015-07-25T10:22:41Z</time>
      </trkpt>
      <trkpt lat="44.81588" lon="5.90761">
        <ele>815.2</ele>
        <time>2015-07-25T10:22:46Z</time>
      </trkpt>
      <trkpt lat="44.81589" lon="5.90758">
        <ele>818.2</ele>
        <time>2015-07-25T10:22:51Z</time>
      </trkpt>
      <trkpt lat="44.81589" lon="5.90756">
        <ele>821.6</ele>
        <time>2015-07-25T10:22:56Z</time>
      </trkpt>
      <trkpt lat="44.81588" lon="5.90754">
        <ele>824.3</ele>
        <time>2015-07-25T10:23:01Z</time>
      </trkpt>
      <trkpt lat="44.81588" lon="5.90754">
        <ele>825.5</ele>
        <time>2015-07-25T10:23:06Z</time>
      </trkpt>
      <trkpt lat="44.81587" lon="5.90753">
        <ele>826.3</ele>
        <time>2015-07-25T10:23:11Z</time>
      </trkpt>
      <trkpt lat="44.81587" lon="5.90754">
        <ele>826.3</ele>
        <time>2015-07-25T10:23:16Z</time>
      </trkpt>
      <trkpt lat="44.81587" lon="5.90753">
        <ele>827.2</ele>
        <time>2015-07-25T10:23:21Z</time>
      </trkpt>
      <trkpt lat="44.81586" lon="5.90755">
        <ele>826.4</ele>
        <time>2015-07-25T10:23:26Z</time>
      </trkpt>
      <trkpt lat="44.81586" lon="5.90755">
        <ele>825.4</ele>
        <time>2015-07-25T10:23:31Z</time>
      </trkpt>
      <trkpt lat="44.81586" lon="5.90755">
        <ele>825.7</ele>
        <time>2015-07-25T10:23:36Z</time>
      </trkpt>
      <trkpt lat="44.81586" lon="5.90757">
        <ele>823.6</ele>
        <time>2015-07-25T10:23:41Z</time>
      </trkpt>
      <trkpt lat="44.81584" lon="5.90758">
        <ele>824.6</ele>
        <time>2015-07-25T10:23:46Z</time>
      </trkpt>
      <trkpt lat="44.81584" lon="5.90764">
        <ele>823.9</ele>
        <time>2015-07-25T10:23:51Z</time>
      </trkpt>
      <trkpt lat="44.81587" lon="5.90763">
        <ele>824.7</ele>
        <time>2015-07-25T10:23:56Z</time>
      </trkpt>
      <trkpt lat="44.81587" lon="5.9076">
        <ele>824.2</ele>
        <time>2015-07-25T10:24:01Z</time>
      </trkpt>
      <trkpt lat="44.81587" lon="5.90761">
        <ele>823.7</ele>
        <time>2015-07-25T10:24:06Z</time>
      </trkpt>
      <trkpt lat="44.81587" lon="5.90761">
        <ele>823.3</ele>
        <time>2015-07-25T10:24:11Z</time>
      </trkpt>
      <trkpt lat="44.81588" lon="5.90762">
        <ele>822.9</ele>
        <time>2015-07-25T10:24:16Z</time>
      </trkpt>
      <trkpt lat="44.81589" lon="5.90762">
        <ele>823.6</ele>
        <time>2015-07-25T10:24:21Z</time>
      </trkpt>
      <trkpt lat="44.81587" lon="5.90761">
        <ele>823.5</ele>
        <time>2015-07-25T10:24:26Z</time>
      </trkpt>
      <trkpt lat="44.81585" lon="5.90759">
        <ele>821.8</ele>
        <time>2015-07-25T10:24:31Z</time>
      </trkpt>
      <trkpt lat="44.81585" lon="5.90757">
        <ele>821.5</ele>
        <time>2015-07-25T10:24:36Z</time>
      </trkpt>
      <trkpt lat="44.81585" lon="5.90755">
        <ele>821.5</ele>
        <time>2015-07-25T10:24:41Z</time>
      </trkpt>
      <trkpt lat="44.81586" lon="5.90754">
        <ele>819.9</ele>
        <time>2015-07-25T10:24:46Z</time>
      </trkpt>
      <trkpt lat="44.81586" lon="5.90754">
        <ele>818</ele>
        <time>2015-07-25T10:24:51Z</time>
      </trkpt>
      <trkpt lat="44.81586" lon="5.90754">
        <ele>817.8</ele>
        <time>2015-07-25T10:24:56Z</time>
      </trkpt>
      <trkpt lat="44.81586" lon="5.90754">
        <ele>817.9</ele>
        <time>2015-07-25T10:25:01Z</time>
      </trkpt>
      <trkpt lat="44.81586" lon="5.90753">
        <ele>819.7</ele>
        <time>2015-07-25T10:25:06Z</time>
      </trkpt>
      <trkpt lat="44.81586" lon="5.90754">
        <ele>819.3</ele>
        <time>2015-07-25T10:25:11Z</time>
      </trkpt>
      <trkpt lat="44.81586" lon="5.90756">
        <ele>817</ele>
        <time>2015-07-25T10:25:16Z</time>
      </trkpt>
      <trkpt lat="44.81586" lon="5.90756">
        <ele>816.9</ele>
        <time>2015-07-25T10:25:21Z</time>
      </trkpt>
      <trkpt lat="44.81586" lon="5.90755">
        <ele>817.5</ele>
        <time>2015-07-25T10:25:26Z</time>
      </trkpt>
      <trkpt lat="44.81585" lon="5.90756">
        <ele>816.6</ele>
        <time>2015-07-25T10:25:31Z</time>
      </trkpt>
      <trkpt lat="44.81585" lon="5.90757">
        <ele>815</ele>
        <time>2015-07-25T10:25:36Z</time>
      </trkpt>
      <trkpt lat="44.81585" lon="5.90758">
        <ele>813.4</ele>
        <time>2015-07-25T10:25:41Z</time>
      </trkpt>
      <trkpt lat="44.81585" lon="5.90758">
        <ele>813.1</ele>
        <time>2015-07-25T10:25:46Z</time>
      </trkpt>
      <trkpt lat="44.81585" lon="5.90758">
        <ele>813.7</ele>
        <time>2015-07-25T10:25:51Z</time>
      </trkpt>
      <trkpt lat="44.81585" lon="5.90758">
        <ele>814.4</ele>
        <time>2015-07-25T10:25:56Z</time>
      </trkpt>
      <trkpt lat="44.81585" lon="5.90757">
        <ele>815.3</ele>
        <time>2015-07-25T10:26:01Z</time>
      </trkpt>
      <trkpt lat="44.81585" lon="5.90757">
        <ele>816.3</ele>
        <time>2015-07-25T10:26:06Z</time>
      </trkpt>
      <trkpt lat="44.81585" lon="5.90756">
        <ele>817.1</ele>
        <time>2015-07-25T10:26:11Z</time>
      </trkpt>
      <trkpt lat="44.81585" lon="5.90756">
        <ele>817.6</ele>
        <time>2015-07-25T10:26:16Z</time>
      </trkpt>
      <trkpt lat="44.81584" lon="5.90757">
        <ele>817.1</ele>
        <time>2015-07-25T10:26:21Z</time>
      </trkpt>
      <trkpt lat="44.81584" lon="5.90757">
        <ele>816.8</ele>
        <time>2015-07-25T10:26:26Z</time>
      </trkpt>
      <trkpt lat="44.81584" lon="5.90758">
        <ele>816.3</ele>
        <time>2015-07-25T10:26:31Z</time>
      </trkpt>
      <trkpt lat="44.81584" lon="5.90758">
        <ele>815.6</ele>
        <time>2015-07-25T10:26:36Z</time>
      </trkpt>
      <trkpt lat="44.81584" lon="5.90759">
        <ele>815.1</ele>
        <time>2015-07-25T10:26:41Z</time>
      </trkpt>
      <trkpt lat="44.81583" lon="5.90759">
        <ele>814.8</ele>
        <time>2015-07-25T10:26:46Z</time>
      </trkpt>
      <trkpt lat="44.81583" lon="5.90759">
        <ele>815</ele>
        <time>2015-07-25T10:26:51Z</time>
      </trkpt>
      <trkpt lat="44.81583" lon="5.90758">
        <ele>815.9</ele>
        <time>2015-07-25T10:26:56Z</time>
      </trkpt>
      <trkpt lat="44.81583" lon="5.90755">
        <ele>820.1</ele>
        <time>2015-07-25T10:27:01Z</time>
      </trkpt>
      <trkpt lat="44.81583" lon="5.90752">
        <ele>824.1</ele>
        <time>2015-07-25T10:27:06Z</time>
      </trkpt>
      <trkpt lat="44.81583" lon="5.90753">
        <ele>824.1</ele>
        <time>2015-07-25T10:27:11Z</time>
      </trkpt>
      <trkpt lat="44.81582" lon="5.90755">
        <ele>824.4</ele>
        <time>2015-07-25T10:27:16Z</time>
      </trkpt>
      <trkpt lat="44.81581" lon="5.90755">
        <ele>825.8</ele>
        <time>2015-07-25T10:27:21Z</time>
      </trkpt>
      <trkpt lat="44.8158" lon="5.90756">
        <ele>827.3</ele>
        <time>2015-07-25T10:27:26Z</time>
      </trkpt>
      <trkpt lat="44.81581" lon="5.90755">
        <ele>827.9</ele>
        <time>2015-07-25T10:27:31Z</time>
      </trkpt>
      <trkpt lat="44.81582" lon="5.90755">
        <ele>828.4</ele>
        <time>2015-07-25T10:27:36Z</time>
      </trkpt>
      <trkpt lat="44.81582" lon="5.90754">
        <ele>829.2</ele>
        <time>2015-07-25T10:27:41Z</time>
      </trkpt>
      <trkpt lat="44.81583" lon="5.90755">
        <ele>829.2</ele>
        <time>2015-07-25T10:27:46Z</time>
      </trkpt>
      <trkpt lat="44.81582" lon="5.90756">
        <ele>828.6</ele>
        <time>2015-07-25T10:27:51Z</time>
      </trkpt>
      <trkpt lat="44.81582" lon="5.90756">
        <ele>828.3</ele>
        <time>2015-07-25T10:27:56Z</time>
      </trkpt>
      <trkpt lat="44.81582" lon="5.90756">
        <ele>828.1</ele>
        <time>2015-07-25T10:28:01Z</time>
      </trkpt>
      <trkpt lat="44.81582" lon="5.90757">
        <ele>827.6</ele>
        <time>2015-07-25T10:28:06Z</time>
      </trkpt>
      <trkpt lat="44.81582" lon="5.90757">
        <ele>827.1</ele>
        <time>2015-07-25T10:28:11Z</time>
      </trkpt>
      <trkpt lat="44.81582" lon="5.9076">
        <ele>824.8</ele>
        <time>2015-07-25T10:28:16Z</time>
      </trkpt>
      <trkpt lat="44.81582" lon="5.90761">
        <ele>821.6</ele>
        <time>2015-07-25T10:28:21Z</time>
      </trkpt>
      <trkpt lat="44.81582" lon="5.90761">
        <ele>821</ele>
        <time>2015-07-25T10:28:26Z</time>
      </trkpt>
      <trkpt lat="44.81582" lon="5.90759">
        <ele>821.9</ele>
        <time>2015-07-25T10:28:31Z</time>
      </trkpt>
      <trkpt lat="44.81582" lon="5.90757">
        <ele>822.7</ele>
        <time>2015-07-25T10:28:36Z</time>
      </trkpt>
      <trkpt lat="44.81583" lon="5.90751">
        <ele>828.4</ele>
        <time>2015-07-25T10:28:41Z</time>
      </trkpt>
      <trkpt lat="44.81583" lon="5.90747">
        <ele>832</ele>
        <time>2015-07-25T10:28:46Z</time>
      </trkpt>
      <trkpt lat="44.81584" lon="5.90745">
        <ele>834.1</ele>
        <time>2015-07-25T10:28:51Z</time>
      </trkpt>
      <trkpt lat="44.81583" lon="5.90747">
        <ele>832.6</ele>
        <time>2015-07-25T10:28:56Z</time>
      </trkpt>
      <trkpt lat="44.81582" lon="5.90749">
        <ele>830.4</ele>
        <time>2015-07-25T10:29:01Z</time>
      </trkpt>
      <trkpt lat="44.81583" lon="5.90749">
        <ele>829.3</ele>
        <time>2015-07-25T10:29:06Z</time>
      </trkpt>
      <trkpt lat="44.81587" lon="5.90746">
        <ele>827.5</ele>
        <time>2015-07-25T10:29:11Z</time>
      </trkpt>
      <trkpt lat="44.81589" lon="5.90745">
        <ele>826.7</ele>
        <time>2015-07-25T10:29:16Z</time>
      </trkpt>
      <trkpt lat="44.8159" lon="5.90744">
        <ele>826.8</ele>
        <time>2015-07-25T10:29:21Z</time>
      </trkpt>
      <trkpt lat="44.81593" lon="5.90741">
        <ele>826.7</ele>
        <time>2015-07-25T10:29:26Z</time>
      </trkpt>
      <trkpt lat="44.81596" lon="5.90739">
        <ele>826.4</ele>
        <time>2015-07-25T10:29:31Z</time>
      </trkpt>
      <trkpt lat="44.81596" lon="5.90739">
        <ele>826.7</ele>
        <time>2015-07-25T10:29:36Z</time>
      </trkpt>
      <trkpt lat="44.81593" lon="5.90737">
        <ele>831.5</ele>
        <time>2015-07-25T10:29:41Z</time>
      </trkpt>
      <trkpt lat="44.8159" lon="5.90738">
        <ele>833.8</ele>
        <time>2015-07-25T10:29:46Z</time>
      </trkpt>
      <trkpt lat="44.81587" lon="5.90741">
        <ele>834.3</ele>
        <time>2015-07-25T10:29:51Z</time>
      </trkpt>
      <trkpt lat="44.81585" lon="5.90742">
        <ele>834.1</ele>
        <time>2015-07-25T10:29:56Z</time>
      </trkpt>
      <trkpt lat="44.81585" lon="5.90743">
        <ele>833.4</ele>
        <time>2015-07-25T10:30:01Z</time>
      </trkpt>
      <trkpt lat="44.81584" lon="5.90744">
        <ele>832.5</ele>
        <time>2015-07-25T10:30:06Z</time>
      </trkpt>
      <trkpt lat="44.81584" lon="5.90745">
        <ele>831.7</ele>
        <time>2015-07-25T10:30:11Z</time>
      </trkpt>
      <trkpt lat="44.81583" lon="5.90746">
        <ele>831</ele>
        <time>2015-07-25T10:30:16Z</time>
      </trkpt>
      <trkpt lat="44.81583" lon="5.90747">
        <ele>830.4</ele>
        <time>2015-07-25T10:30:21Z</time>
      </trkpt>
      <trkpt lat="44.81584" lon="5.90747">
        <ele>829.8</ele>
        <time>2015-07-25T10:30:26Z</time>
      </trkpt>
      <trkpt lat="44.81584" lon="5.90746">
        <ele>830.4</ele>
        <time>2015-07-25T10:30:31Z</time>
      </trkpt>
      <trkpt lat="44.81585" lon="5.90745">
        <ele>831.5</ele>
        <time>2015-07-25T10:30:36Z</time>
      </trkpt>
      <trkpt lat="44.81585" lon="5.90746">
        <ele>830.4</ele>
        <time>2015-07-25T10:30:41Z</time>
      </trkpt>
      <trkpt lat="44.81584" lon="5.90748">
        <ele>827.5</ele>
        <time>2015-07-25T10:30:46Z</time>
      </trkpt>
      <trkpt lat="44.81585" lon="5.90748">
        <ele>827.8</ele>
        <time>2015-07-25T10:30:51Z</time>
      </trkpt>
      <trkpt lat="44.81585" lon="5.9075">
        <ele>824.2</ele>
        <time>2015-07-25T10:30:56Z</time>
      </trkpt>
      <trkpt lat="44.81585" lon="5.9075">
        <ele>824.7</ele>
        <time>2015-07-25T10:31:01Z</time>
      </trkpt>
      <trkpt lat="44.81585" lon="5.9075">
        <ele>824.2</ele>
        <time>2015-07-25T10:31:06Z</time>
      </trkpt>
      <trkpt lat="44.81585" lon="5.90751">
        <ele>823.9</ele>
        <time>2015-07-25T10:31:11Z</time>
      </trkpt>
      <trkpt lat="44.81585" lon="5.90751">
        <ele>823.7</ele>
        <time>2015-07-25T10:31:16Z</time>
      </trkpt>
      <trkpt lat="44.81584" lon="5.90753">
        <ele>822.7</ele>
        <time>2015-07-25T10:31:21Z</time>
      </trkpt>
      <trkpt lat="44.81584" lon="5.90754">
        <ele>821.3</ele>
        <time>2015-07-25T10:31:26Z</time>
      </trkpt>
      <trkpt lat="44.81584" lon="5.90755">
        <ele>820.4</ele>
        <time>2015-07-25T10:31:31Z</time>
      </trkpt>
      <trkpt lat="44.81584" lon="5.90756">
        <ele>820</ele>
        <time>2015-07-25T10:31:36Z</time>
      </trkpt>
      <trkpt lat="44.81584" lon="5.90756">
        <ele>819.4</ele>
        <time>2015-07-25T10:31:41Z</time>
      </trkpt>
      <trkpt lat="44.81584" lon="5.90756">
        <ele>819.7</ele>
        <time>2015-07-25T10:31:46Z</time>
      </trkpt>
      <trkpt lat="44.81584" lon="5.90756">
        <ele>818.9</ele>
        <time>2015-07-25T10:31:51Z</time>
      </trkpt>
      <trkpt lat="44.81585" lon="5.90757">
        <ele>818.3</ele>
        <time>2015-07-25T10:31:56Z</time>
      </trkpt>
      <trkpt lat="44.81585" lon="5.90757">
        <ele>817.9</ele>
        <time>2015-07-25T10:32:01Z</time>
      </trkpt>
      <trkpt lat="44.81585" lon="5.90757">
        <ele>818.2</ele>
        <time>2015-07-25T10:32:06Z</time>
      </trkpt>
      <trkpt lat="44.81585" lon="5.90758">
        <ele>818.1</ele>
        <time>2015-07-25T10:32:11Z</time>
      </trkpt>
      <trkpt lat="44.81585" lon="5.90758">
        <ele>818.5</ele>
        <time>2015-07-25T10:32:16Z</time>
      </trkpt>
      <trkpt lat="44.81585" lon="5.90757">
        <ele>819</ele>
        <time>2015-07-25T10:32:21Z</time>
      </trkpt>
      <trkpt lat="44.81585" lon="5.90757">
        <ele>819.1</ele>
        <time>2015-07-25T10:32:26Z</time>
      </trkpt>
      <trkpt lat="44.81585" lon="5.90757">
        <ele>818.8</ele>
        <time>2015-07-25T10:32:31Z</time>
      </trkpt>
      <trkpt lat="44.81585" lon="5.90757">
        <ele>819</ele>
        <time>2015-07-25T10:32:36Z</time>
      </trkpt>
      <trkpt lat="44.81585" lon="5.90757">
        <ele>819.5</ele>
        <time>2015-07-25T10:32:41Z</time>
      </trkpt>
      <trkpt lat="44.81584" lon="5.90758">
        <ele>819.3</ele>
        <time>2015-07-25T10:32:46Z</time>
      </trkpt>
      <trkpt lat="44.81585" lon="5.90757">
        <ele>820.5</ele>
        <time>2015-07-25T10:32:51Z</time>
      </trkpt>
      <trkpt lat="44.81588" lon="5.90754">
        <ele>821.6</ele>
        <time>2015-07-25T10:32:56Z</time>
      </trkpt>
      <trkpt lat="44.81585" lon="5.90756">
        <ele>821.6</ele>
        <time>2015-07-25T10:33:01Z</time>
      </trkpt>
      <trkpt lat="44.81586" lon="5.90755">
        <ele>821.9</ele>
        <time>2015-07-25T10:33:06Z</time>
      </trkpt>
      <trkpt lat="44.81593" lon="5.90751">
        <ele>819.1</ele>
        <time>2015-07-25T10:33:11Z</time>
      </trkpt>
      <trkpt lat="44.81594" lon="5.90751">
        <ele>818</ele>
        <time>2015-07-25T10:33:16Z</time>
      </trkpt>
      <trkpt lat="44.81594" lon="5.90751">
        <ele>817.5</ele>
        <time>2015-07-25T10:33:21Z</time>
      </trkpt>
      <trkpt lat="44.81593" lon="5.90752">
        <ele>817.4</ele>
        <time>2015-07-25T10:33:26Z</time>
      </trkpt>
      <trkpt lat="44.81593" lon="5.90752">
        <ele>817.5</ele>
        <time>2015-07-25T10:33:31Z</time>
      </trkpt>
      <trkpt lat="44.81592" lon="5.90753">
        <ele>817.8</ele>
        <time>2015-07-25T10:33:36Z</time>
      </trkpt>
      <trkpt lat="44.81591" lon="5.90754">
        <ele>817.6</ele>
        <time>2015-07-25T10:33:41Z</time>
      </trkpt>
      <trkpt lat="44.8159" lon="5.90755">
        <ele>816.8</ele>
        <time>2015-07-25T10:33:46Z</time>
      </trkpt>
      <trkpt lat="44.81589" lon="5.90755">
        <ele>817.4</ele>
        <time>2015-07-25T10:33:51Z</time>
      </trkpt>
      <trkpt lat="44.81588" lon="5.90755">
        <ele>819</ele>
        <time>2015-07-25T10:33:56Z</time>
      </trkpt>
      <trkpt lat="44.81587" lon="5.90754">
        <ele>820.4</ele>
        <time>2015-07-25T10:34:01Z</time>
      </trkpt>
      <trkpt lat="44.81587" lon="5.90754">
        <ele>821.8</ele>
        <time>2015-07-25T10:34:06Z</time>
      </trkpt>
      <trkpt lat="44.81587" lon="5.90754">
        <ele>822.4</ele>
        <time>2015-07-25T10:34:11Z</time>
      </trkpt>
      <trkpt lat="44.81586" lon="5.90754">
        <ele>822.8</ele>
        <time>2015-07-25T10:34:16Z</time>
      </trkpt>
      <trkpt lat="44.81586" lon="5.90754">
        <ele>823</ele>
        <time>2015-07-25T10:34:21Z</time>
      </trkpt>
      <trkpt lat="44.81585" lon="5.90755">
        <ele>821.9</ele>
        <time>2015-07-25T10:34:26Z</time>
      </trkpt>
      <trkpt lat="44.81585" lon="5.90755">
        <ele>821.3</ele>
        <time>2015-07-25T10:34:31Z</time>
      </trkpt>
      <trkpt lat="44.81585" lon="5.90755">
        <ele>820.7</ele>
        <time>2015-07-25T10:34:36Z</time>
      </trkpt>
      <trkpt lat="44.81585" lon="5.90755">
        <ele>820.4</ele>
        <time>2015-07-25T10:34:41Z</time>
      </trkpt>
      <trkpt lat="44.81585" lon="5.90755">
        <ele>820.1</ele>
        <time>2015-07-25T10:34:46Z</time>
      </trkpt>
      <trkpt lat="44.81584" lon="5.90756">
        <ele>819.7</ele>
        <time>2015-07-25T10:34:51Z</time>
      </trkpt>
      <trkpt lat="44.81584" lon="5.90756">
        <ele>819.3</ele>
        <time>2015-07-25T10:34:56Z</time>
      </trkpt>
      <trkpt lat="44.81584" lon="5.90757">
        <ele>818.7</ele>
        <time>2015-07-25T10:35:01Z</time>
      </trkpt>
      <trkpt lat="44.81584" lon="5.90757">
        <ele>818</ele>
        <time>2015-07-25T10:35:06Z</time>
      </trkpt>
      <trkpt lat="44.81584" lon="5.90758">
        <ele>816.2</ele>
        <time>2015-07-25T10:35:11Z</time>
      </trkpt>
      <trkpt lat="44.81584" lon="5.90755">
        <ele>819.6</ele>
        <time>2015-07-25T10:35:16Z</time>
      </trkpt>
      <trkpt lat="44.81584" lon="5.90751">
        <ele>825</ele>
        <time>2015-07-25T10:35:21Z</time>
      </trkpt>
      <trkpt lat="44.81584" lon="5.90749">
        <ele>827.5</ele>
        <time>2015-07-25T10:35:26Z</time>
      </trkpt>
      <trkpt lat="44.81584" lon="5.90747">
        <ele>829.5</ele>
        <time>2015-07-25T10:35:31Z</time>
      </trkpt>
      <trkpt lat="44.81588" lon="5.90744">
        <ele>828.8</ele>
        <time>2015-07-25T10:35:36Z</time>
      </trkpt>
      <trkpt lat="44.81592" lon="5.90741">
        <ele>828.5</ele>
        <time>2015-07-25T10:35:41Z</time>
      </trkpt>
      <trkpt lat="44.81596" lon="5.90738">
        <ele>827.8</ele>
        <time>2015-07-25T10:35:46Z</time>
      </trkpt>
      <trkpt lat="44.816" lon="5.90733">
        <ele>827.8</ele>
        <time>2015-07-25T10:35:51Z</time>
      </trkpt>
      <trkpt lat="44.81591" lon="5.90742">
        <ele>827.4</ele>
        <time>2015-07-25T10:35:56Z</time>
      </trkpt>
      <trkpt lat="44.81585" lon="5.9075">
        <ele>823</ele>
        <time>2015-07-25T10:36:01Z</time>
      </trkpt>
      <trkpt lat="44.81582" lon="5.90757">
        <ele>819.6</ele>
        <time>2015-07-25T10:36:06Z</time>
      </trkpt>
      <trkpt lat="44.81581" lon="5.9076">
        <ele>817.4</ele>
        <time>2015-07-25T10:36:11Z</time>
      </trkpt>
      <trkpt lat="44.81582" lon="5.90756">
        <ele>816.9</ele>
        <time>2015-07-25T10:36:16Z</time>
      </trkpt>
      <trkpt lat="44.81585" lon="5.90755">
        <ele>818.7</ele>
        <time>2015-07-25T10:36:21Z</time>
      </trkpt>
      <trkpt lat="44.81585" lon="5.90754">
        <ele>818.8</ele>
        <time>2015-07-25T10:36:26Z</time>
      </trkpt>
      <trkpt lat="44.81585" lon="5.90755">
        <ele>816.4</ele>
        <time>2015-07-25T10:36:31Z</time>
      </trkpt>
      <trkpt lat="44.81583" lon="5.90758">
        <ele>816.8</ele>
        <time>2015-07-25T10:36:36Z</time>
      </trkpt>
      <trkpt lat="44.81584" lon="5.90758">
        <ele>817.4</ele>
        <time>2015-07-25T10:36:41Z</time>
      </trkpt>
      <trkpt lat="44.81584" lon="5.90758">
        <ele>818.9</ele>
        <time>2015-07-25T10:36:46Z</time>
      </trkpt>
      <trkpt lat="44.81585" lon="5.90758">
        <ele>820.1</ele>
        <time>2015-07-25T10:36:51Z</time>
      </trkpt>
      <trkpt lat="44.8159" lon="5.90758">
        <ele>825.9</ele>
        <time>2015-07-25T10:36:58Z</time>
      </trkpt>
      <trkpt lat="44.81591" lon="5.90755">
        <ele>827.3</ele>
        <time>2015-07-25T10:37:03Z</time>
      </trkpt>
      <trkpt lat="44.81577" lon="5.90765">
        <ele>826.1</ele>
        <time>2015-07-25T10:37:08Z</time>
      </trkpt>
      <trkpt lat="44.81564" lon="5.90775">
        <ele>825.8</ele>
        <time>2015-07-25T10:37:13Z</time>
      </trkpt>
      <trkpt lat="44.81566" lon="5.90759">
        <ele>825.9</ele>
        <time>2015-07-25T10:37:18Z</time>
      </trkpt>
      <trkpt lat="44.8159" lon="5.90758">
        <ele>826.2</ele>
        <time>2015-07-25T10:37:23Z</time>
      </trkpt>
      <trkpt lat="44.81586" lon="5.90762">
        <ele>831.4</ele>
        <time>2015-07-25T10:37:28Z</time>
      </trkpt>
      <trkpt lat="44.81582" lon="5.90761">
        <ele>831.5</ele>
        <time>2015-07-25T10:37:33Z</time>
      </trkpt>
      <trkpt lat="44.81581" lon="5.9076">
        <ele>831.1</ele>
        <time>2015-07-25T10:37:38Z</time>
      </trkpt>
      <trkpt lat="44.81583" lon="5.9076">
        <ele>831.7</ele>
        <time>2015-07-25T10:37:43Z</time>
      </trkpt>
      <trkpt lat="44.81583" lon="5.9076">
        <ele>831.1</ele>
        <time>2015-07-25T10:37:48Z</time>
      </trkpt>
      <trkpt lat="44.81582" lon="5.90762">
        <ele>831.7</ele>
        <time>2015-07-25T10:37:53Z</time>
      </trkpt>
      <trkpt lat="44.8158" lon="5.9076">
        <ele>827.4</ele>
        <time>2015-07-25T10:37:58Z</time>
      </trkpt>
      <trkpt lat="44.8158" lon="5.90759">
        <ele>824.1</ele>
        <time>2015-07-25T10:38:03Z</time>
      </trkpt>
      <trkpt lat="44.81581" lon="5.90758">
        <ele>822.8</ele>
        <time>2015-07-25T10:38:08Z</time>
      </trkpt>
      <trkpt lat="44.81581" lon="5.90757">
        <ele>822.4</ele>
        <time>2015-07-25T10:38:13Z</time>
      </trkpt>
      <trkpt lat="44.81584" lon="5.90759">
        <ele>826.5</ele>
        <time>2015-07-25T10:38:18Z</time>
      </trkpt>
      <trkpt lat="44.81585" lon="5.90757">
        <ele>828.1</ele>
        <time>2015-07-25T10:38:23Z</time>
      </trkpt>
      <trkpt lat="44.81585" lon="5.90755">
        <ele>828.7</ele>
        <time>2015-07-25T10:38:28Z</time>
      </trkpt>
      <trkpt lat="44.81585" lon="5.90752">
        <ele>832.3</ele>
        <time>2015-07-25T10:38:33Z</time>
      </trkpt>
      <trkpt lat="44.81583" lon="5.90752">
        <ele>834.8</ele>
        <time>2015-07-25T10:38:38Z</time>
      </trkpt>
      <trkpt lat="44.8158" lon="5.90753">
        <ele>834.1</ele>
        <time>2015-07-25T10:38:43Z</time>
      </trkpt>
      <trkpt lat="44.81579" lon="5.90756">
        <ele>837.1</ele>
        <time>2015-07-25T10:38:48Z</time>
      </trkpt>
      <trkpt lat="44.81575" lon="5.9076">
        <ele>833.2</ele>
        <time>2015-07-25T10:38:53Z</time>
      </trkpt>
      <trkpt lat="44.81578" lon="5.90762">
        <ele>829.3</ele>
        <time>2015-07-25T10:38:58Z</time>
      </trkpt>
      <trkpt lat="44.81581" lon="5.90764">
        <ele>823.5</ele>
        <time>2015-07-25T10:39:03Z</time>
      </trkpt>
      <trkpt lat="44.81583" lon="5.90764">
        <ele>819.6</ele>
        <time>2015-07-25T10:39:08Z</time>
      </trkpt>
      <trkpt lat="44.81584" lon="5.90763">
        <ele>820.2</ele>
        <time>2015-07-25T10:39:13Z</time>
      </trkpt>
      <trkpt lat="44.81585" lon="5.90761">
        <ele>823.1</ele>
        <time>2015-07-25T10:39:18Z</time>
      </trkpt>
      <trkpt lat="44.81587" lon="5.90761">
        <ele>823.2</ele>
        <time>2015-07-25T10:39:23Z</time>
      </trkpt>
      <trkpt lat="44.81592" lon="5.9076">
        <ele>820.6</ele>
        <time>2015-07-25T10:39:28Z</time>
      </trkpt>
      <trkpt lat="44.81594" lon="5.90759">
        <ele>820.6</ele>
        <time>2015-07-25T10:39:33Z</time>
      </trkpt>
      <trkpt lat="44.81592" lon="5.90758">
        <ele>821</ele>
        <time>2015-07-25T10:39:38Z</time>
      </trkpt>
      <trkpt lat="44.81591" lon="5.90759">
        <ele>814.7</ele>
        <time>2015-07-25T10:39:43Z</time>
      </trkpt>
      <trkpt lat="44.8159" lon="5.90759">
        <ele>816.4</ele>
        <time>2015-07-25T10:39:48Z</time>
      </trkpt>
      <trkpt lat="44.81586" lon="5.90758">
        <ele>822.8</ele>
        <time>2015-07-25T10:39:53Z</time>
      </trkpt>
      <trkpt lat="44.81582" lon="5.90759">
        <ele>831.9</ele>
        <time>2015-07-25T10:39:58Z</time>
      </trkpt>
      <trkpt lat="44.81583" lon="5.90762">
        <ele>832.2</ele>
        <time>2015-07-25T10:40:03Z</time>
      </trkpt>
      <trkpt lat="44.81585" lon="5.90767">
        <ele>845.1</ele>
        <time>2015-07-25T10:40:08Z</time>
      </trkpt>
      <trkpt lat="44.81585" lon="5.90772">
        <ele>857</ele>
        <time>2015-07-25T10:40:13Z</time>
      </trkpt>
      <trkpt lat="44.81585" lon="5.90772">
        <ele>862.1</ele>
        <time>2015-07-25T10:40:18Z</time>
      </trkpt>
      <trkpt lat="44.81589" lon="5.90771">
        <ele>858.8</ele>
        <time>2015-07-25T10:40:23Z</time>
      </trkpt>
      <trkpt lat="44.81585" lon="5.90773">
        <ele>860</ele>
        <time>2015-07-25T10:40:28Z</time>
      </trkpt>
      <trkpt lat="44.81583" lon="5.90774">
        <ele>859.4</ele>
        <time>2015-07-25T10:40:33Z</time>
      </trkpt>
      <trkpt lat="44.8158" lon="5.90771">
        <ele>848.6</ele>
        <time>2015-07-25T10:40:38Z</time>
      </trkpt>
      <trkpt lat="44.81577" lon="5.90768">
        <ele>843.8</ele>
        <time>2015-07-25T10:40:43Z</time>
      </trkpt>
      <trkpt lat="44.81577" lon="5.90764">
        <ele>846.4</ele>
        <time>2015-07-25T10:40:48Z</time>
      </trkpt>
      <trkpt lat="44.81577" lon="5.90759">
        <ele>848.6</ele>
        <time>2015-07-25T10:40:53Z</time>
      </trkpt>
      <trkpt lat="44.81581" lon="5.90759">
        <ele>848.6</ele>
        <time>2015-07-25T10:40:58Z</time>
      </trkpt>
      <trkpt lat="44.8158" lon="5.90763">
        <ele>841.5</ele>
        <time>2015-07-25T10:41:03Z</time>
      </trkpt>
      <trkpt lat="44.81579" lon="5.90765">
        <ele>833.7</ele>
        <time>2015-07-25T10:41:08Z</time>
      </trkpt>
      <trkpt lat="44.8158" lon="5.90767">
        <ele>830.2</ele>
        <time>2015-07-25T10:41:13Z</time>
      </trkpt>
      <trkpt lat="44.81582" lon="5.90768">
        <ele>826</ele>
        <time>2015-07-25T10:41:18Z</time>
      </trkpt>
      <trkpt lat="44.81583" lon="5.90769">
        <ele>823.7</ele>
        <time>2015-07-25T10:41:23Z</time>
      </trkpt>
      <trkpt lat="44.81586" lon="5.90769">
        <ele>824.5</ele>
        <time>2015-07-25T10:41:28Z</time>
      </trkpt>
      <trkpt lat="44.81588" lon="5.90769">
        <ele>824.9</ele>
        <time>2015-07-25T10:41:33Z</time>
      </trkpt>
      <trkpt lat="44.81589" lon="5.90769">
        <ele>825.3</ele>
        <time>2015-07-25T10:41:38Z</time>
      </trkpt>
      <trkpt lat="44.81588" lon="5.90768">
        <ele>825.2</ele>
        <time>2015-07-25T10:41:43Z</time>
      </trkpt>
      <trkpt lat="44.8159" lon="5.90769">
        <ele>825.4</ele>
        <time>2015-07-25T10:41:48Z</time>
      </trkpt>
      <trkpt lat="44.8159" lon="5.90769">
        <ele>824.8</ele>
        <time>2015-07-25T10:41:53Z</time>
      </trkpt>
      <trkpt lat="44.81593" lon="5.9077">
        <ele>828.4</ele>
        <time>2015-07-25T10:41:58Z</time>
      </trkpt>
      <trkpt lat="44.81593" lon="5.90771">
        <ele>829.7</ele>
        <time>2015-07-25T10:42:03Z</time>
      </trkpt>
      <trkpt lat="44.81594" lon="5.90771">
        <ele>829.6</ele>
        <time>2015-07-25T10:42:08Z</time>
      </trkpt>
      <trkpt lat="44.81593" lon="5.9077">
        <ele>827</ele>
        <time>2015-07-25T10:42:13Z</time>
      </trkpt>
      <trkpt lat="44.81593" lon="5.9077">
        <ele>826.9</ele>
        <time>2015-07-25T10:42:18Z</time>
      </trkpt>
      <trkpt lat="44.81594" lon="5.9077">
        <ele>828.6</ele>
        <time>2015-07-25T10:42:23Z</time>
      </trkpt>
      <trkpt lat="44.81591" lon="5.90771">
        <ele>826.2</ele>
        <time>2015-07-25T10:42:28Z</time>
      </trkpt>
      <trkpt lat="44.81585" lon="5.9077">
        <ele>821.4</ele>
        <time>2015-07-25T10:42:33Z</time>
      </trkpt>
      <trkpt lat="44.81585" lon="5.90769">
        <ele>821</ele>
        <time>2015-07-25T10:42:38Z</time>
      </trkpt>
      <trkpt lat="44.81587" lon="5.9077">
        <ele>818.6</ele>
        <time>2015-07-25T10:42:43Z</time>
      </trkpt>
      <trkpt lat="44.81587" lon="5.90769">
        <ele>816.2</ele>
        <time>2015-07-25T10:42:48Z</time>
      </trkpt>
      <trkpt lat="44.81589" lon="5.90769">
        <ele>817.2</ele>
        <time>2015-07-25T10:42:53Z</time>
      </trkpt>
      <trkpt lat="44.81588" lon="5.90772">
        <ele>819.8</ele>
        <time>2015-07-25T10:42:58Z</time>
      </trkpt>
      <trkpt lat="44.81587" lon="5.9077">
        <ele>818.3</ele>
        <time>2015-07-25T10:43:03Z</time>
      </trkpt>
      <trkpt lat="44.81585" lon="5.90768">
        <ele>818.7</ele>
        <time>2015-07-25T10:43:08Z</time>
      </trkpt>
      <trkpt lat="44.81587" lon="5.90768">
        <ele>819.8</ele>
        <time>2015-07-25T10:43:13Z</time>
      </trkpt>
      <trkpt lat="44.81587" lon="5.9077">
        <ele>819.7</ele>
        <time>2015-07-25T10:43:18Z</time>
      </trkpt>
      <trkpt lat="44.81587" lon="5.90771">
        <ele>818.6</ele>
        <time>2015-07-25T10:43:23Z</time>
      </trkpt>
      <trkpt lat="44.81587" lon="5.90771">
        <ele>817.2</ele>
        <time>2015-07-25T10:43:28Z</time>
      </trkpt>
      <trkpt lat="44.81587" lon="5.90771">
        <ele>816.5</ele>
        <time>2015-07-25T10:43:33Z</time>
      </trkpt>
      <trkpt lat="44.81584" lon="5.90769">
        <ele>816.7</ele>
        <time>2015-07-25T10:43:38Z</time>
      </trkpt>
      <trkpt lat="44.81584" lon="5.90768">
        <ele>818.6</ele>
        <time>2015-07-25T10:43:43Z</time>
      </trkpt>
      <trkpt lat="44.81588" lon="5.90768">
        <ele>824.6</ele>
        <time>2015-07-25T10:43:48Z</time>
      </trkpt>
      <trkpt lat="44.81595" lon="5.90765">
        <ele>832.7</ele>
        <time>2015-07-25T10:43:53Z</time>
      </trkpt>
      <trkpt lat="44.81596" lon="5.90764">
        <ele>835.3</ele>
        <time>2015-07-25T10:43:58Z</time>
      </trkpt>
      <trkpt lat="44.81594" lon="5.90765">
        <ele>831.4</ele>
        <time>2015-07-25T10:44:03Z</time>
      </trkpt>
      <trkpt lat="44.81593" lon="5.90766">
        <ele>831.2</ele>
        <time>2015-07-25T10:44:08Z</time>
      </trkpt>
      <trkpt lat="44.8159" lon="5.90771">
        <ele>828.1</ele>
        <time>2015-07-25T10:44:13Z</time>
      </trkpt>
      <trkpt lat="44.81591" lon="5.90768">
        <ele>829.2</ele>
        <time>2015-07-25T10:44:18Z</time>
      </trkpt>
      <trkpt lat="44.81588" lon="5.90766">
        <ele>823.2</ele>
        <time>2015-07-25T10:44:23Z</time>
      </trkpt>
      <trkpt lat="44.81587" lon="5.90766">
        <ele>820.3</ele>
        <time>2015-07-25T10:44:28Z</time>
      </trkpt>
      <trkpt lat="44.81587" lon="5.90765">
        <ele>819.8</ele>
        <time>2015-07-25T10:44:33Z</time>
      </trkpt>
      <trkpt lat="44.81591" lon="5.90766">
        <ele>821.9</ele>
        <time>2015-07-25T10:44:38Z</time>
      </trkpt>
      <trkpt lat="44.81599" lon="5.90767">
        <ele>830.3</ele>
        <time>2015-07-25T10:44:43Z</time>
      </trkpt>
      <trkpt lat="44.81601" lon="5.90766">
        <ele>830.6</ele>
        <time>2015-07-25T10:44:48Z</time>
      </trkpt>
      <trkpt lat="44.81596" lon="5.90765">
        <ele>824.4</ele>
        <time>2015-07-25T10:44:53Z</time>
      </trkpt>
      <trkpt lat="44.81596" lon="5.90766">
        <ele>826.8</ele>
        <time>2015-07-25T10:44:58Z</time>
      </trkpt>
      <trkpt lat="44.81593" lon="5.90764">
        <ele>825.8</ele>
        <time>2015-07-25T10:45:03Z</time>
      </trkpt>
      <trkpt lat="44.81591" lon="5.90765">
        <ele>822.4</ele>
        <time>2015-07-25T10:45:08Z</time>
      </trkpt>
      <trkpt lat="44.81593" lon="5.90766">
        <ele>825.4</ele>
        <time>2015-07-25T10:45:13Z</time>
      </trkpt>
      <trkpt lat="44.81587" lon="5.90765">
        <ele>815</ele>
        <time>2015-07-25T10:45:18Z</time>
      </trkpt>
      <trkpt lat="44.81587" lon="5.90764">
        <ele>818.2</ele>
        <time>2015-07-25T10:45:23Z</time>
      </trkpt>
      <trkpt lat="44.81586" lon="5.90763">
        <ele>817.3</ele>
        <time>2015-07-25T10:45:28Z</time>
      </trkpt>
      <trkpt lat="44.81584" lon="5.90763">
        <ele>813.1</ele>
        <time>2015-07-25T10:45:33Z</time>
      </trkpt>
      <trkpt lat="44.81583" lon="5.90764">
        <ele>812.5</ele>
        <time>2015-07-25T10:45:38Z</time>
      </trkpt>
      <trkpt lat="44.81585" lon="5.90764">
        <ele>814.7</ele>
        <time>2015-07-25T10:45:43Z</time>
      </trkpt>
      <trkpt lat="44.81585" lon="5.90764">
        <ele>814.8</ele>
        <time>2015-07-25T10:45:48Z</time>
      </trkpt>
      <trkpt lat="44.81586" lon="5.90763">
        <ele>816.9</ele>
        <time>2015-07-25T10:45:53Z</time>
      </trkpt>
      <trkpt lat="44.81587" lon="5.90764">
        <ele>819.8</ele>
        <time>2015-07-25T10:45:58Z</time>
      </trkpt>
      <trkpt lat="44.81587" lon="5.90765">
        <ele>820.4</ele>
        <time>2015-07-25T10:46:03Z</time>
      </trkpt>
      <trkpt lat="44.81587" lon="5.90766">
        <ele>821.1</ele>
        <time>2015-07-25T10:46:08Z</time>
      </trkpt>
      <trkpt lat="44.81586" lon="5.90766">
        <ele>822.1</ele>
        <time>2015-07-25T10:46:13Z</time>
      </trkpt>
      <trkpt lat="44.81585" lon="5.90767">
        <ele>820.7</ele>
        <time>2015-07-25T10:46:18Z</time>
      </trkpt>
      <trkpt lat="44.81585" lon="5.90767">
        <ele>821.5</ele>
        <time>2015-07-25T10:46:23Z</time>
      </trkpt>
      <trkpt lat="44.81587" lon="5.90767">
        <ele>821.2</ele>
        <time>2015-07-25T10:46:28Z</time>
      </trkpt>
      <trkpt lat="44.81587" lon="5.90768">
        <ele>818.2</ele>
        <time>2015-07-25T10:46:33Z</time>
      </trkpt>
      <trkpt lat="44.81587" lon="5.90768">
        <ele>819.7</ele>
        <time>2015-07-25T10:46:38Z</time>
      </trkpt>
      <trkpt lat="44.81591" lon="5.9077">
        <ele>822.9</ele>
        <time>2015-07-25T10:46:43Z</time>
      </trkpt>
      <trkpt lat="44.81591" lon="5.90769">
        <ele>823.9</ele>
        <time>2015-07-25T10:46:48Z</time>
      </trkpt>
      <trkpt lat="44.8159" lon="5.90767">
        <ele>823.1</ele>
        <time>2015-07-25T10:46:53Z</time>
      </trkpt>
      <trkpt lat="44.81592" lon="5.90765">
        <ele>823</ele>
        <time>2015-07-25T10:46:58Z</time>
      </trkpt>
      <trkpt lat="44.81593" lon="5.90766">
        <ele>822.7</ele>
        <time>2015-07-25T10:47:03Z</time>
      </trkpt>
      <trkpt lat="44.81591" lon="5.90765">
        <ele>824.1</ele>
        <time>2015-07-25T10:47:08Z</time>
      </trkpt>
      <trkpt lat="44.81592" lon="5.90762">
        <ele>826.9</ele>
        <time>2015-07-25T10:47:13Z</time>
      </trkpt>
      <trkpt lat="44.81591" lon="5.90762">
        <ele>827</ele>
        <time>2015-07-25T10:47:18Z</time>
      </trkpt>
      <trkpt lat="44.81593" lon="5.90762">
        <ele>826.1</ele>
        <time>2015-07-25T10:47:23Z</time>
      </trkpt>
      <trkpt lat="44.81592" lon="5.90761">
        <ele>826.6</ele>
        <time>2015-07-25T10:47:28Z</time>
      </trkpt>
      <trkpt lat="44.81593" lon="5.90762">
        <ele>825.7</ele>
        <time>2015-07-25T10:47:33Z</time>
      </trkpt>
      <trkpt lat="44.81591" lon="5.90763">
        <ele>824.7</ele>
        <time>2015-07-25T10:47:38Z</time>
      </trkpt>
      <trkpt lat="44.8159" lon="5.90763">
        <ele>824.7</ele>
        <time>2015-07-25T10:47:43Z</time>
      </trkpt>
      <trkpt lat="44.81591" lon="5.90763">
        <ele>824.9</ele>
        <time>2015-07-25T10:47:48Z</time>
      </trkpt>
      <trkpt lat="44.8159" lon="5.90764">
        <ele>823.4</ele>
        <time>2015-07-25T10:47:53Z</time>
      </trkpt>
      <trkpt lat="44.81589" lon="5.90764">
        <ele>822.7</ele>
        <time>2015-07-25T10:47:58Z</time>
      </trkpt>
      <trkpt lat="44.81584" lon="5.90766">
        <ele>820</ele>
        <time>2015-07-25T10:48:03Z</time>
      </trkpt>
      <trkpt lat="44.81585" lon="5.90766">
        <ele>820</ele>
        <time>2015-07-25T10:48:08Z</time>
      </trkpt>
      <trkpt lat="44.81584" lon="5.90766">
        <ele>821.2</ele>
        <time>2015-07-25T10:48:13Z</time>
      </trkpt>
      <trkpt lat="44.81583" lon="5.90767">
        <ele>822.5</ele>
        <time>2015-07-25T10:48:20Z</time>
      </trkpt>
      <trkpt lat="44.8158" lon="5.90767">
        <ele>822.8</ele>
        <time>2015-07-25T10:48:25Z</time>
      </trkpt>
      <trkpt lat="44.81582" lon="5.90767">
        <ele>824.1</ele>
        <time>2015-07-25T10:48:30Z</time>
      </trkpt>
      <trkpt lat="44.81584" lon="5.90768">
        <ele>824.7</ele>
        <time>2015-07-25T10:48:35Z</time>
      </trkpt>
      <trkpt lat="44.81588" lon="5.90767">
        <ele>828.6</ele>
        <time>2015-07-25T10:48:40Z</time>
      </trkpt>
      <trkpt lat="44.81588" lon="5.90762">
        <ele>827.9</ele>
        <time>2015-07-25T10:48:45Z</time>
      </trkpt>
      <trkpt lat="44.81587" lon="5.90755">
        <ele>828.6</ele>
        <time>2015-07-25T10:48:50Z</time>
      </trkpt>
      <trkpt lat="44.81585" lon="5.90747">
        <ele>828</ele>
        <time>2015-07-25T10:48:55Z</time>
      </trkpt>
      <trkpt lat="44.81584" lon="5.90739">
        <ele>829.7</ele>
        <time>2015-07-25T10:49:00Z</time>
      </trkpt>
      <trkpt lat="44.81583" lon="5.9073">
        <ele>830.9</ele>
        <time>2015-07-25T10:49:05Z</time>
      </trkpt>
      <trkpt lat="44.8158" lon="5.90723">
        <ele>829.5</ele>
        <time>2015-07-25T10:49:10Z</time>
      </trkpt>
      <trkpt lat="44.81579" lon="5.90714">
        <ele>829.7</ele>
        <time>2015-07-25T10:49:15Z</time>
      </trkpt>
      <trkpt lat="44.8158" lon="5.90705">
        <ele>831.8</ele>
        <time>2015-07-25T10:49:20Z</time>
      </trkpt>
      <trkpt lat="44.81579" lon="5.90698">
        <ele>833.4</ele>
        <time>2015-07-25T10:49:25Z</time>
      </trkpt>
      <trkpt lat="44.81574" lon="5.907">
        <ele>835.9</ele>
        <time>2015-07-25T10:49:30Z</time>
      </trkpt>
      <trkpt lat="44.81569" lon="5.90707">
        <ele>834.2</ele>
        <time>2015-07-25T10:49:35Z</time>
      </trkpt>
      <trkpt lat="44.81564" lon="5.90714">
        <ele>831.9</ele>
        <time>2015-07-25T10:49:40Z</time>
      </trkpt>
      <trkpt lat="44.8156" lon="5.90718">
        <ele>832.4</ele>
        <time>2015-07-25T10:49:45Z</time>
      </trkpt>
      <trkpt lat="44.81558" lon="5.90726">
        <ele>832.7</ele>
        <time>2015-07-25T10:49:50Z</time>
      </trkpt>
      <trkpt lat="44.81553" lon="5.90734">
        <ele>831.8</ele>
        <time>2015-07-25T10:49:55Z</time>
      </trkpt>
      <trkpt lat="44.81549" lon="5.90743">
        <ele>829.1</ele>
        <time>2015-07-25T10:50:00Z</time>
      </trkpt>
      <trkpt lat="44.81545" lon="5.9075">
        <ele>828.9</ele>
        <time>2015-07-25T10:50:05Z</time>
      </trkpt>
      <trkpt lat="44.81541" lon="5.90757">
        <ele>833.2</ele>
        <time>2015-07-25T10:50:10Z</time>
      </trkpt>
      <trkpt lat="44.81544" lon="5.90767">
        <ele>838.2</ele>
        <time>2015-07-25T10:50:15Z</time>
      </trkpt>
      <trkpt lat="44.81545" lon="5.90773">
        <ele>839.7</ele>
        <time>2015-07-25T10:50:20Z</time>
      </trkpt>
      <trkpt lat="44.81547" lon="5.90771">
        <ele>839.1</ele>
        <time>2015-07-25T10:50:25Z</time>
      </trkpt>
      <trkpt lat="44.81548" lon="5.90772">
        <ele>842</ele>
        <time>2015-07-25T10:50:30Z</time>
      </trkpt>
      <trkpt lat="44.81546" lon="5.90773">
        <ele>844.2</ele>
        <time>2015-07-25T10:50:35Z</time>
      </trkpt>
      <trkpt lat="44.81546" lon="5.90776">
        <ele>845.9</ele>
        <time>2015-07-25T10:50:40Z</time>
      </trkpt>
      <trkpt lat="44.81545" lon="5.90781">
        <ele>847.5</ele>
        <time>2015-07-25T10:50:45Z</time>
      </trkpt>
      <trkpt lat="44.81545" lon="5.90786">
        <ele>846.4</ele>
        <time>2015-07-25T10:50:50Z</time>
      </trkpt>
      <trkpt lat="44.81534" lon="5.90791">
        <ele>842.1</ele>
        <time>2015-07-25T10:50:55Z</time>
      </trkpt>
      <trkpt lat="44.81536" lon="5.90795">
        <ele>841.3</ele>
        <time>2015-07-25T10:51:00Z</time>
      </trkpt>
      <trkpt lat="44.81535" lon="5.90795">
        <ele>846.7</ele>
        <time>2015-07-25T10:51:05Z</time>
      </trkpt>
      <trkpt lat="44.8153" lon="5.90798">
        <ele>844.3</ele>
        <time>2015-07-25T10:51:10Z</time>
      </trkpt>
      <trkpt lat="44.81525" lon="5.90808">
        <ele>841.2</ele>
        <time>2015-07-25T10:51:15Z</time>
      </trkpt>
      <trkpt lat="44.81524" lon="5.90816">
        <ele>841.6</ele>
        <time>2015-07-25T10:51:20Z</time>
      </trkpt>
      <trkpt lat="44.81527" lon="5.90823">
        <ele>843.8</ele>
        <time>2015-07-25T10:51:25Z</time>
      </trkpt>
      <trkpt lat="44.81528" lon="5.90827">
        <ele>852.5</ele>
        <time>2015-07-25T10:51:30Z</time>
      </trkpt>
      <trkpt lat="44.81528" lon="5.90831">
        <ele>858.8</ele>
        <time>2015-07-25T10:51:35Z</time>
      </trkpt>
      <trkpt lat="44.81529" lon="5.90832">
        <ele>865.7</ele>
        <time>2015-07-25T10:51:40Z</time>
      </trkpt>
      <trkpt lat="44.81525" lon="5.9083">
        <ele>869.7</ele>
        <time>2015-07-25T10:51:45Z</time>
      </trkpt>
      <trkpt lat="44.81522" lon="5.90832">
        <ele>872.6</ele>
        <time>2015-07-25T10:51:50Z</time>
      </trkpt>
      <trkpt lat="44.81528" lon="5.90845">
        <ele>880.8</ele>
        <time>2015-07-25T10:51:55Z</time>
      </trkpt>
      <trkpt lat="44.81538" lon="5.90861">
        <ele>882.6</ele>
        <time>2015-07-25T10:52:00Z</time>
      </trkpt>
      <trkpt lat="44.81535" lon="5.90872">
        <ele>880.4</ele>
        <time>2015-07-25T10:52:05Z</time>
      </trkpt>
      <trkpt lat="44.81533" lon="5.90883">
        <ele>873.9</ele>
        <time>2015-07-25T10:52:10Z</time>
      </trkpt>
      <trkpt lat="44.8153" lon="5.90893">
        <ele>869.6</ele>
        <time>2015-07-25T10:52:15Z</time>
      </trkpt>
      <trkpt lat="44.8153" lon="5.90902">
        <ele>867.5</ele>
        <time>2015-07-25T10:52:20Z</time>
      </trkpt>
      <trkpt lat="44.81528" lon="5.90913">
        <ele>867.8</ele>
        <time>2015-07-25T10:52:25Z</time>
      </trkpt>
      <trkpt lat="44.8153" lon="5.90923">
        <ele>868.1</ele>
        <time>2015-07-25T10:52:30Z</time>
      </trkpt>
      <trkpt lat="44.81532" lon="5.9093">
        <ele>870.2</ele>
        <time>2015-07-25T10:52:35Z</time>
      </trkpt>
      <trkpt lat="44.81532" lon="5.90939">
        <ele>872.7</ele>
        <time>2015-07-25T10:52:40Z</time>
      </trkpt>
      <trkpt lat="44.81529" lon="5.9095">
        <ele>871.1</ele>
        <time>2015-07-25T10:52:45Z</time>
      </trkpt>
      <trkpt lat="44.8153" lon="5.90962">
        <ele>870.8</ele>
        <time>2015-07-25T10:52:50Z</time>
      </trkpt>
      <trkpt lat="44.81534" lon="5.90971">
        <ele>872.5</ele>
        <time>2015-07-25T10:52:55Z</time>
      </trkpt>
      <trkpt lat="44.81535" lon="5.90976">
        <ele>871.7</ele>
        <time>2015-07-25T10:53:00Z</time>
      </trkpt>
      <trkpt lat="44.81534" lon="5.90977">
        <ele>872</ele>
        <time>2015-07-25T10:53:05Z</time>
      </trkpt>
      <trkpt lat="44.8153" lon="5.90978">
        <ele>870.5</ele>
        <time>2015-07-25T10:53:10Z</time>
      </trkpt>
      <trkpt lat="44.81524" lon="5.90983">
        <ele>869</ele>
        <time>2015-07-25T10:53:15Z</time>
      </trkpt>
      <trkpt lat="44.81522" lon="5.90985">
        <ele>871.7</ele>
        <time>2015-07-25T10:53:20Z</time>
      </trkpt>
      <trkpt lat="44.81516" lon="5.90985">
        <ele>874.5</ele>
        <time>2015-07-25T10:53:25Z</time>
      </trkpt>
      <trkpt lat="44.81508" lon="5.90985">
        <ele>874.7</ele>
        <time>2015-07-25T10:53:30Z</time>
      </trkpt>
      <trkpt lat="44.81505" lon="5.90988">
        <ele>871.5</ele>
        <time>2015-07-25T10:53:35Z</time>
      </trkpt>
      <trkpt lat="44.81498" lon="5.90993">
        <ele>868.2</ele>
        <time>2015-07-25T10:53:40Z</time>
      </trkpt>
      <trkpt lat="44.81489" lon="5.91001">
        <ele>865.8</ele>
        <time>2015-07-25T10:53:47Z</time>
      </trkpt>
      <trkpt lat="44.81478" lon="5.91011">
        <ele>866.9</ele>
        <time>2015-07-25T10:53:52Z</time>
      </trkpt>
      <trkpt lat="44.81472" lon="5.91018">
        <ele>868.8</ele>
        <time>2015-07-25T10:53:57Z</time>
      </trkpt>
      <trkpt lat="44.81466" lon="5.91024">
        <ele>870.8</ele>
        <time>2015-07-25T10:54:02Z</time>
      </trkpt>
      <trkpt lat="44.81455" lon="5.91028">
        <ele>866</ele>
        <time>2015-07-25T10:54:07Z</time>
      </trkpt>
      <trkpt lat="44.8145" lon="5.91033">
        <ele>863.9</ele>
        <time>2015-07-25T10:54:12Z</time>
      </trkpt>
      <trkpt lat="44.81448" lon="5.91039">
        <ele>864.9</ele>
        <time>2015-07-25T10:54:17Z</time>
      </trkpt>
      <trkpt lat="44.81442" lon="5.91042">
        <ele>863.4</ele>
        <time>2015-07-25T10:54:22Z</time>
      </trkpt>
      <trkpt lat="44.81437" lon="5.9105">
        <ele>868</ele>
        <time>2015-07-25T10:54:27Z</time>
      </trkpt>
      <trkpt lat="44.81431" lon="5.91058">
        <ele>866.9</ele>
        <time>2015-07-25T10:54:32Z</time>
      </trkpt>
      <trkpt lat="44.81428" lon="5.91064">
        <ele>872.8</ele>
        <time>2015-07-25T10:54:37Z</time>
      </trkpt>
      <trkpt lat="44.81423" lon="5.91069">
        <ele>871.9</ele>
        <time>2015-07-25T10:54:42Z</time>
      </trkpt>
      <trkpt lat="44.81417" lon="5.91075">
        <ele>871.2</ele>
        <time>2015-07-25T10:54:47Z</time>
      </trkpt>
      <trkpt lat="44.81413" lon="5.9108">
        <ele>872.2</ele>
        <time>2015-07-25T10:54:52Z</time>
      </trkpt>
      <trkpt lat="44.81404" lon="5.91089">
        <ele>867.9</ele>
        <time>2015-07-25T10:54:57Z</time>
      </trkpt>
      <trkpt lat="44.81399" lon="5.91098">
        <ele>866.2</ele>
        <time>2015-07-25T10:55:02Z</time>
      </trkpt>
      <trkpt lat="44.81398" lon="5.91109">
        <ele>862.6</ele>
        <time>2015-07-25T10:55:07Z</time>
      </trkpt>
      <trkpt lat="44.81408" lon="5.91124">
        <ele>874.1</ele>
        <time>2015-07-25T10:55:12Z</time>
      </trkpt>
      <trkpt lat="44.81418" lon="5.91133">
        <ele>875.1</ele>
        <time>2015-07-25T10:55:17Z</time>
      </trkpt>
      <trkpt lat="44.81424" lon="5.91138">
        <ele>874</ele>
        <time>2015-07-25T10:55:22Z</time>
      </trkpt>
      <trkpt lat="44.81431" lon="5.91145">
        <ele>873.7</ele>
        <time>2015-07-25T10:55:27Z</time>
      </trkpt>
      <trkpt lat="44.8143" lon="5.9115">
        <ele>872.4</ele>
        <time>2015-07-25T10:55:32Z</time>
      </trkpt>
      <trkpt lat="44.81422" lon="5.9115">
        <ele>868.3</ele>
        <time>2015-07-25T10:55:37Z</time>
      </trkpt>
      <trkpt lat="44.81417" lon="5.91151">
        <ele>868.1</ele>
        <time>2015-07-25T10:55:42Z</time>
      </trkpt>
      <trkpt lat="44.81411" lon="5.91149">
        <ele>867.8</ele>
        <time>2015-07-25T10:55:47Z</time>
      </trkpt>
      <trkpt lat="44.81411" lon="5.91148">
        <ele>874.9</ele>
        <time>2015-07-25T10:55:52Z</time>
      </trkpt>
      <trkpt lat="44.81408" lon="5.91143">
        <ele>879.6</ele>
        <time>2015-07-25T10:55:57Z</time>
      </trkpt>
      <trkpt lat="44.81404" lon="5.91138">
        <ele>882.4</ele>
        <time>2015-07-25T10:56:02Z</time>
      </trkpt>
      <trkpt lat="44.814" lon="5.91135">
        <ele>887</ele>
        <time>2015-07-25T10:56:07Z</time>
      </trkpt>
      <trkpt lat="44.81393" lon="5.91127">
        <ele>896.6</ele>
        <time>2015-07-25T10:56:12Z</time>
      </trkpt>
      <trkpt lat="44.8139" lon="5.91123">
        <ele>902.7</ele>
        <time>2015-07-25T10:56:17Z</time>
      </trkpt>
      <trkpt lat="44.81386" lon="5.91119">
        <ele>900.3</ele>
        <time>2015-07-25T10:56:22Z</time>
      </trkpt>
      <trkpt lat="44.81385" lon="5.91111">
        <ele>898.3</ele>
        <time>2015-07-25T10:56:27Z</time>
      </trkpt>
      <trkpt lat="44.81386" lon="5.91106">
        <ele>894.6</ele>
        <time>2015-07-25T10:56:32Z</time>
      </trkpt>
      <trkpt lat="44.81387" lon="5.91103">
        <ele>890.5</ele>
        <time>2015-07-25T10:56:37Z</time>
      </trkpt>
      <trkpt lat="44.81389" lon="5.91098">
        <ele>887.6</ele>
        <time>2015-07-25T10:56:42Z</time>
      </trkpt>
      <trkpt lat="44.81391" lon="5.91093">
        <ele>885</ele>
        <time>2015-07-25T10:56:47Z</time>
      </trkpt>
      <trkpt lat="44.81393" lon="5.91088">
        <ele>881.2</ele>
        <time>2015-07-25T10:56:52Z</time>
      </trkpt>
      <trkpt lat="44.81392" lon="5.91081">
        <ele>874.8</ele>
        <time>2015-07-25T10:56:57Z</time>
      </trkpt>
      <trkpt lat="44.81396" lon="5.91076">
        <ele>874.5</ele>
        <time>2015-07-25T10:57:02Z</time>
      </trkpt>
      <trkpt lat="44.81398" lon="5.9107">
        <ele>873.2</ele>
        <time>2015-07-25T10:57:07Z</time>
      </trkpt>
      <trkpt lat="44.814" lon="5.91066">
        <ele>874.4</ele>
        <time>2015-07-25T10:57:12Z</time>
      </trkpt>
      <trkpt lat="44.81404" lon="5.91061">
        <ele>874.9</ele>
        <time>2015-07-25T10:57:17Z</time>
      </trkpt>
      <trkpt lat="44.81409" lon="5.91055">
        <ele>873.4</ele>
        <time>2015-07-25T10:57:22Z</time>
      </trkpt>
      <trkpt lat="44.81415" lon="5.9105">
        <ele>876.1</ele>
        <time>2015-07-25T10:57:27Z</time>
      </trkpt>
      <trkpt lat="44.81421" lon="5.91045">
        <ele>879.4</ele>
        <time>2015-07-25T10:57:32Z</time>
      </trkpt>
      <trkpt lat="44.81424" lon="5.91042">
        <ele>880</ele>
        <time>2015-07-25T10:57:37Z</time>
      </trkpt>
      <trkpt lat="44.81425" lon="5.91037">
        <ele>878.7</ele>
        <time>2015-07-25T10:57:42Z</time>
      </trkpt>
      <trkpt lat="44.81428" lon="5.91031">
        <ele>878.2</ele>
        <time>2015-07-25T10:57:47Z</time>
      </trkpt>
      <trkpt lat="44.81431" lon="5.91026">
        <ele>878.4</ele>
        <time>2015-07-25T10:57:52Z</time>
      </trkpt>
      <trkpt lat="44.81434" lon="5.91021">
        <ele>878.1</ele>
        <time>2015-07-25T10:57:57Z</time>
      </trkpt>
      <trkpt lat="44.81439" lon="5.91018">
        <ele>877.5</ele>
        <time>2015-07-25T10:58:02Z</time>
      </trkpt>
      <trkpt lat="44.81444" lon="5.91013">
        <ele>878</ele>
        <time>2015-07-25T10:58:07Z</time>
      </trkpt>
      <trkpt lat="44.8145" lon="5.91009">
        <ele>879.4</ele>
        <time>2015-07-25T10:58:12Z</time>
      </trkpt>
      <trkpt lat="44.81456" lon="5.91004">
        <ele>882.1</ele>
        <time>2015-07-25T10:58:17Z</time>
      </trkpt>
      <trkpt lat="44.81462" lon="5.90998">
        <ele>883.8</ele>
        <time>2015-07-25T10:58:22Z</time>
      </trkpt>
      <trkpt lat="44.81466" lon="5.90993">
        <ele>884.8</ele>
        <time>2015-07-25T10:58:27Z</time>
      </trkpt>
      <trkpt lat="44.81469" lon="5.90987">
        <ele>885.1</ele>
        <time>2015-07-25T10:58:32Z</time>
      </trkpt>
      <trkpt lat="44.81474" lon="5.90982">
        <ele>886.5</ele>
        <time>2015-07-25T10:58:37Z</time>
      </trkpt>
      <trkpt lat="44.81476" lon="5.90977">
        <ele>885.9</ele>
        <time>2015-07-25T10:58:42Z</time>
      </trkpt>
      <trkpt lat="44.81478" lon="5.90972">
        <ele>883.9</ele>
        <time>2015-07-25T10:58:47Z</time>
      </trkpt>
      <trkpt lat="44.81484" lon="5.90966">
        <ele>885.8</ele>
        <time>2015-07-25T10:58:52Z</time>
      </trkpt>
      <trkpt lat="44.8149" lon="5.90961">
        <ele>886.9</ele>
        <time>2015-07-25T10:58:57Z</time>
      </trkpt>
      <trkpt lat="44.81495" lon="5.90954">
        <ele>888.3</ele>
        <time>2015-07-25T10:59:02Z</time>
      </trkpt>
      <trkpt lat="44.81498" lon="5.90947">
        <ele>890</ele>
        <time>2015-07-25T10:59:07Z</time>
      </trkpt>
      <trkpt lat="44.81497" lon="5.90938">
        <ele>891.2</ele>
        <time>2015-07-25T10:59:12Z</time>
      </trkpt>
      <trkpt lat="44.81497" lon="5.90929">
        <ele>894.1</ele>
        <time>2015-07-25T10:59:17Z</time>
      </trkpt>
      <trkpt lat="44.81493" lon="5.9092">
        <ele>896.8</ele>
        <time>2015-07-25T10:59:22Z</time>
      </trkpt>
      <trkpt lat="44.81485" lon="5.90914">
        <ele>897.2</ele>
        <time>2015-07-25T10:59:27Z</time>
      </trkpt>
      <trkpt lat="44.81477" lon="5.90911">
        <ele>898.2</ele>
        <time>2015-07-25T10:59:32Z</time>
      </trkpt>
      <trkpt lat="44.81469" lon="5.90912">
        <ele>898.3</ele>
        <time>2015-07-25T10:59:37Z</time>
      </trkpt>
      <trkpt lat="44.81463" lon="5.90917">
        <ele>896.6</ele>
        <time>2015-07-25T10:59:42Z</time>
      </trkpt>
      <trkpt lat="44.81458" lon="5.90924">
        <ele>895.7</ele>
        <time>2015-07-25T10:59:47Z</time>
      </trkpt>
      <trkpt lat="44.81456" lon="5.9093">
        <ele>897.4</ele>
        <time>2015-07-25T10:59:52Z</time>
      </trkpt>
      <trkpt lat="44.81453" lon="5.90937">
        <ele>898.9</ele>
        <time>2015-07-25T10:59:57Z</time>
      </trkpt>
      <trkpt lat="44.81448" lon="5.90943">
        <ele>900.9</ele>
        <time>2015-07-25T11:00:02Z</time>
      </trkpt>
      <trkpt lat="44.81443" lon="5.90948">
        <ele>902.8</ele>
        <time>2015-07-25T11:00:07Z</time>
      </trkpt>
      <trkpt lat="44.81438" lon="5.90951">
        <ele>904.8</ele>
        <time>2015-07-25T11:00:12Z</time>
      </trkpt>
      <trkpt lat="44.8143" lon="5.90953">
        <ele>905.6</ele>
        <time>2015-07-25T11:00:17Z</time>
      </trkpt>
      <trkpt lat="44.81426" lon="5.90952">
        <ele>907.9</ele>
        <time>2015-07-25T11:00:22Z</time>
      </trkpt>
      <trkpt lat="44.81419" lon="5.90954">
        <ele>906.9</ele>
        <time>2015-07-25T11:00:27Z</time>
      </trkpt>
      <trkpt lat="44.81411" lon="5.90957">
        <ele>905.6</ele>
        <time>2015-07-25T11:00:32Z</time>
      </trkpt>
      <trkpt lat="44.81405" lon="5.90959">
        <ele>907</ele>
        <time>2015-07-25T11:00:37Z</time>
      </trkpt>
      <trkpt lat="44.814" lon="5.90961">
        <ele>906.6</ele>
        <time>2015-07-25T11:00:42Z</time>
      </trkpt>
      <trkpt lat="44.81394" lon="5.90964">
        <ele>907.4</ele>
        <time>2015-07-25T11:00:47Z</time>
      </trkpt>
      <trkpt lat="44.81387" lon="5.90968">
        <ele>910.6</ele>
        <time>2015-07-25T11:00:52Z</time>
      </trkpt>
      <trkpt lat="44.81379" lon="5.90972">
        <ele>911.7</ele>
        <time>2015-07-25T11:00:57Z</time>
      </trkpt>
      <trkpt lat="44.81373" lon="5.90978">
        <ele>912.4</ele>
        <time>2015-07-25T11:01:02Z</time>
      </trkpt>
      <trkpt lat="44.81368" lon="5.90985">
        <ele>908.9</ele>
        <time>2015-07-25T11:01:07Z</time>
      </trkpt>
      <trkpt lat="44.81363" lon="5.90991">
        <ele>908.9</ele>
        <time>2015-07-25T11:01:12Z</time>
      </trkpt>
      <trkpt lat="44.8136" lon="5.90996">
        <ele>910.4</ele>
        <time>2015-07-25T11:01:17Z</time>
      </trkpt>
      <trkpt lat="44.81355" lon="5.90999">
        <ele>910.6</ele>
        <time>2015-07-25T11:01:22Z</time>
      </trkpt>
      <trkpt lat="44.81349" lon="5.91006">
        <ele>909.6</ele>
        <time>2015-07-25T11:01:27Z</time>
      </trkpt>
      <trkpt lat="44.81344" lon="5.91012">
        <ele>908.8</ele>
        <time>2015-07-25T11:01:32Z</time>
      </trkpt>
      <trkpt lat="44.81339" lon="5.91017">
        <ele>907.7</ele>
        <time>2015-07-25T11:01:37Z</time>
      </trkpt>
      <trkpt lat="44.81333" lon="5.91018">
        <ele>907</ele>
        <time>2015-07-25T11:01:42Z</time>
      </trkpt>
      <trkpt lat="44.81329" lon="5.91013">
        <ele>907.5</ele>
        <time>2015-07-25T11:01:47Z</time>
      </trkpt>
      <trkpt lat="44.81329" lon="5.91007">
        <ele>906.6</ele>
        <time>2015-07-25T11:01:52Z</time>
      </trkpt>
      <trkpt lat="44.81331" lon="5.91002">
        <ele>906</ele>
        <time>2015-07-25T11:01:57Z</time>
      </trkpt>
      <trkpt lat="44.81333" lon="5.90996">
        <ele>905.8</ele>
        <time>2015-07-25T11:02:02Z</time>
      </trkpt>
      <trkpt lat="44.81339" lon="5.9099">
        <ele>906.4</ele>
        <time>2015-07-25T11:02:07Z</time>
      </trkpt>
      <trkpt lat="44.81343" lon="5.90984">
        <ele>906.7</ele>
        <time>2015-07-25T11:02:12Z</time>
      </trkpt>
      <trkpt lat="44.81348" lon="5.90977">
        <ele>907.3</ele>
        <time>2015-07-25T11:02:17Z</time>
      </trkpt>
      <trkpt lat="44.81353" lon="5.90971">
        <ele>908.3</ele>
        <time>2015-07-25T11:02:22Z</time>
      </trkpt>
      <trkpt lat="44.81357" lon="5.90965">
        <ele>909.3</ele>
        <time>2015-07-25T11:02:27Z</time>
      </trkpt>
      <trkpt lat="44.81361" lon="5.90958">
        <ele>910.5</ele>
        <time>2015-07-25T11:02:32Z</time>
      </trkpt>
      <trkpt lat="44.81365" lon="5.90952">
        <ele>910.5</ele>
        <time>2015-07-25T11:02:37Z</time>
      </trkpt>
      <trkpt lat="44.81369" lon="5.90945">
        <ele>910.5</ele>
        <time>2015-07-25T11:02:42Z</time>
      </trkpt>
      <trkpt lat="44.81373" lon="5.90939">
        <ele>910.3</ele>
        <time>2015-07-25T11:02:47Z</time>
      </trkpt>
      <trkpt lat="44.81377" lon="5.90932">
        <ele>910.4</ele>
        <time>2015-07-25T11:02:52Z</time>
      </trkpt>
      <trkpt lat="44.8138" lon="5.90924">
        <ele>910.8</ele>
        <time>2015-07-25T11:02:57Z</time>
      </trkpt>
      <trkpt lat="44.81381" lon="5.90916">
        <ele>910.9</ele>
        <time>2015-07-25T11:03:02Z</time>
      </trkpt>
      <trkpt lat="44.8138" lon="5.90907">
        <ele>911.7</ele>
        <time>2015-07-25T11:03:07Z</time>
      </trkpt>
      <trkpt lat="44.81378" lon="5.90899">
        <ele>912.1</ele>
        <time>2015-07-25T11:03:12Z</time>
      </trkpt>
      <trkpt lat="44.81376" lon="5.90892">
        <ele>912.5</ele>
        <time>2015-07-25T11:03:17Z</time>
      </trkpt>
      <trkpt lat="44.81372" lon="5.90886">
        <ele>912.9</ele>
        <time>2015-07-25T11:03:22Z</time>
      </trkpt>
      <trkpt lat="44.81367" lon="5.9088">
        <ele>913.3</ele>
        <time>2015-07-25T11:03:27Z</time>
      </trkpt>
      <trkpt lat="44.81362" lon="5.90875">
        <ele>913.6</ele>
        <time>2015-07-25T11:03:32Z</time>
      </trkpt>
      <trkpt lat="44.81357" lon="5.90869">
        <ele>914</ele>
        <time>2015-07-25T11:03:37Z</time>
      </trkpt>
      <trkpt lat="44.81352" lon="5.90864">
        <ele>914.7</ele>
        <time>2015-07-25T11:03:42Z</time>
      </trkpt>
      <trkpt lat="44.81349" lon="5.90858">
        <ele>915.6</ele>
        <time>2015-07-25T11:03:47Z</time>
      </trkpt>
      <trkpt lat="44.81344" lon="5.90851">
        <ele>916.2</ele>
        <time>2015-07-25T11:03:52Z</time>
      </trkpt>
      <trkpt lat="44.8134" lon="5.90845">
        <ele>916.1</ele>
        <time>2015-07-25T11:03:57Z</time>
      </trkpt>
      <trkpt lat="44.81336" lon="5.90842">
        <ele>915.5</ele>
        <time>2015-07-25T11:04:02Z</time>
      </trkpt>
      <trkpt lat="44.81336" lon="5.90841">
        <ele>915.2</ele>
        <time>2015-07-25T11:04:07Z</time>
      </trkpt>
      <trkpt lat="44.81334" lon="5.9084">
        <ele>915.3</ele>
        <time>2015-07-25T11:04:12Z</time>
      </trkpt>
      <trkpt lat="44.81329" lon="5.90836">
        <ele>916.2</ele>
        <time>2015-07-25T11:04:17Z</time>
      </trkpt>
      <trkpt lat="44.81327" lon="5.90834">
        <ele>916.9</ele>
        <time>2015-07-25T11:04:22Z</time>
      </trkpt>
      <trkpt lat="44.81322" lon="5.9083">
        <ele>917.6</ele>
        <time>2015-07-25T11:04:27Z</time>
      </trkpt>
      <trkpt lat="44.81316" lon="5.90828">
        <ele>917.6</ele>
        <time>2015-07-25T11:04:32Z</time>
      </trkpt>
      <trkpt lat="44.8131" lon="5.90827">
        <ele>917.8</ele>
        <time>2015-07-25T11:04:37Z</time>
      </trkpt>
      <trkpt lat="44.81305" lon="5.90828">
        <ele>917.9</ele>
        <time>2015-07-25T11:04:42Z</time>
      </trkpt>
      <trkpt lat="44.813" lon="5.90831">
        <ele>918.3</ele>
        <time>2015-07-25T11:04:47Z</time>
      </trkpt>
      <trkpt lat="44.81295" lon="5.90836">
        <ele>918.7</ele>
        <time>2015-07-25T11:04:52Z</time>
      </trkpt>
      <trkpt lat="44.81294" lon="5.90838">
        <ele>918.7</ele>
        <time>2015-07-25T11:04:57Z</time>
      </trkpt>
      <trkpt lat="44.81288" lon="5.90842">
        <ele>919.2</ele>
        <time>2015-07-25T11:05:02Z</time>
      </trkpt>
      <trkpt lat="44.81283" lon="5.90846">
        <ele>920.4</ele>
        <time>2015-07-25T11:05:07Z</time>
      </trkpt>
      <trkpt lat="44.81278" lon="5.90851">
        <ele>921.9</ele>
        <time>2015-07-25T11:05:12Z</time>
      </trkpt>
      <trkpt lat="44.81273" lon="5.90855">
        <ele>923.5</ele>
        <time>2015-07-25T11:05:17Z</time>
      </trkpt>
      <trkpt lat="44.81268" lon="5.9086">
        <ele>923.9</ele>
        <time>2015-07-25T11:05:22Z</time>
      </trkpt>
      <trkpt lat="44.81262" lon="5.90865">
        <ele>924.3</ele>
        <time>2015-07-25T11:05:27Z</time>
      </trkpt>
      <trkpt lat="44.81257" lon="5.9087">
        <ele>925.1</ele>
        <time>2015-07-25T11:05:32Z</time>
      </trkpt>
      <trkpt lat="44.81252" lon="5.90873">
        <ele>925.3</ele>
        <time>2015-07-25T11:05:37Z</time>
      </trkpt>
      <trkpt lat="44.81245" lon="5.90876">
        <ele>926.1</ele>
        <time>2015-07-25T11:05:42Z</time>
      </trkpt>
      <trkpt lat="44.81239" lon="5.90879">
        <ele>926.2</ele>
        <time>2015-07-25T11:05:47Z</time>
      </trkpt>
      <trkpt lat="44.81233" lon="5.90881">
        <ele>925.8</ele>
        <time>2015-07-25T11:05:52Z</time>
      </trkpt>
      <trkpt lat="44.81226" lon="5.90882">
        <ele>926.4</ele>
        <time>2015-07-25T11:05:57Z</time>
      </trkpt>
      <trkpt lat="44.8122" lon="5.90883">
        <ele>927.6</ele>
        <time>2015-07-25T11:06:02Z</time>
      </trkpt>
      <trkpt lat="44.81213" lon="5.90884">
        <ele>928</ele>
        <time>2015-07-25T11:06:07Z</time>
      </trkpt>
      <trkpt lat="44.81207" lon="5.90884">
        <ele>928.1</ele>
        <time>2015-07-25T11:06:12Z</time>
      </trkpt>
      <trkpt lat="44.81201" lon="5.90884">
        <ele>927.8</ele>
        <time>2015-07-25T11:06:17Z</time>
      </trkpt>
      <trkpt lat="44.81194" lon="5.90881">
        <ele>927.5</ele>
        <time>2015-07-25T11:06:22Z</time>
      </trkpt>
      <trkpt lat="44.81188" lon="5.90877">
        <ele>928.2</ele>
        <time>2015-07-25T11:06:27Z</time>
      </trkpt>
      <trkpt lat="44.81182" lon="5.90872">
        <ele>928.4</ele>
        <time>2015-07-25T11:06:32Z</time>
      </trkpt>
      <trkpt lat="44.81176" lon="5.90869">
        <ele>927.6</ele>
        <time>2015-07-25T11:06:37Z</time>
      </trkpt>
      <trkpt lat="44.81172" lon="5.90865">
        <ele>927</ele>
        <time>2015-07-25T11:06:42Z</time>
      </trkpt>
      <trkpt lat="44.81165" lon="5.90861">
        <ele>927.7</ele>
        <time>2015-07-25T11:06:47Z</time>
      </trkpt>
      <trkpt lat="44.81159" lon="5.90856">
        <ele>927.3</ele>
        <time>2015-07-25T11:06:52Z</time>
      </trkpt>
      <trkpt lat="44.81154" lon="5.90852">
        <ele>926.5</ele>
        <time>2015-07-25T11:06:57Z</time>
      </trkpt>
      <trkpt lat="44.81148" lon="5.90846">
        <ele>926.9</ele>
        <time>2015-07-25T11:07:02Z</time>
      </trkpt>
      <trkpt lat="44.81143" lon="5.90842">
        <ele>927.3</ele>
        <time>2015-07-25T11:07:07Z</time>
      </trkpt>
      <trkpt lat="44.81136" lon="5.90838">
        <ele>927.2</ele>
        <time>2015-07-25T11:07:12Z</time>
      </trkpt>
      <trkpt lat="44.8113" lon="5.90833">
        <ele>927.1</ele>
        <time>2015-07-25T11:07:17Z</time>
      </trkpt>
      <trkpt lat="44.81124" lon="5.90828">
        <ele>927</ele>
        <time>2015-07-25T11:07:22Z</time>
      </trkpt>
      <trkpt lat="44.81118" lon="5.90823">
        <ele>927.2</ele>
        <time>2015-07-25T11:07:27Z</time>
      </trkpt>
      <trkpt lat="44.81112" lon="5.9082">
        <ele>927</ele>
        <time>2015-07-25T11:07:32Z</time>
      </trkpt>
      <trkpt lat="44.81107" lon="5.90816">
        <ele>926.9</ele>
        <time>2015-07-25T11:07:37Z</time>
      </trkpt>
      <trkpt lat="44.81101" lon="5.90812">
        <ele>927</ele>
        <time>2015-07-25T11:07:42Z</time>
      </trkpt>
      <trkpt lat="44.81094" lon="5.90808">
        <ele>926.7</ele>
        <time>2015-07-25T11:07:47Z</time>
      </trkpt>
      <trkpt lat="44.81088" lon="5.90805">
        <ele>926.6</ele>
        <time>2015-07-25T11:07:52Z</time>
      </trkpt>
      <trkpt lat="44.81081" lon="5.90802">
        <ele>926.8</ele>
        <time>2015-07-25T11:07:57Z</time>
      </trkpt>
      <trkpt lat="44.81074" lon="5.90799">
        <ele>927</ele>
        <time>2015-07-25T11:08:02Z</time>
      </trkpt>
      <trkpt lat="44.81068" lon="5.90795">
        <ele>927.2</ele>
        <time>2015-07-25T11:08:07Z</time>
      </trkpt>
      <trkpt lat="44.81061" lon="5.90792">
        <ele>927.6</ele>
        <time>2015-07-25T11:08:12Z</time>
      </trkpt>
      <trkpt lat="44.81054" lon="5.90791">
        <ele>927.1</ele>
        <time>2015-07-25T11:08:17Z</time>
      </trkpt>
      <trkpt lat="44.81046" lon="5.90788">
        <ele>927.8</ele>
        <time>2015-07-25T11:08:22Z</time>
      </trkpt>
      <trkpt lat="44.81039" lon="5.90786">
        <ele>928.7</ele>
        <time>2015-07-25T11:08:27Z</time>
      </trkpt>
      <trkpt lat="44.81032" lon="5.90783">
        <ele>929.6</ele>
        <time>2015-07-25T11:08:32Z</time>
      </trkpt>
      <trkpt lat="44.81024" lon="5.90782">
        <ele>930.5</ele>
        <time>2015-07-25T11:08:37Z</time>
      </trkpt>
      <trkpt lat="44.81017" lon="5.90781">
        <ele>930.4</ele>
        <time>2015-07-25T11:08:42Z</time>
      </trkpt>
      <trkpt lat="44.81009" lon="5.90781">
        <ele>930.9</ele>
        <time>2015-07-25T11:08:47Z</time>
      </trkpt>
      <trkpt lat="44.81001" lon="5.90779">
        <ele>931.4</ele>
        <time>2015-07-25T11:08:52Z</time>
      </trkpt>
      <trkpt lat="44.80993" lon="5.90779">
        <ele>931.4</ele>
        <time>2015-07-25T11:08:57Z</time>
      </trkpt>
      <trkpt lat="44.80985" lon="5.9078">
        <ele>931.6</ele>
        <time>2015-07-25T11:09:02Z</time>
      </trkpt>
      <trkpt lat="44.80977" lon="5.90781">
        <ele>932.1</ele>
        <time>2015-07-25T11:09:07Z</time>
      </trkpt>
      <trkpt lat="44.80969" lon="5.90782">
        <ele>932</ele>
        <time>2015-07-25T11:09:12Z</time>
      </trkpt>
      <trkpt lat="44.80961" lon="5.90782">
        <ele>932.2</ele>
        <time>2015-07-25T11:09:17Z</time>
      </trkpt>
      <trkpt lat="44.80954" lon="5.90783">
        <ele>932.5</ele>
        <time>2015-07-25T11:09:22Z</time>
      </trkpt>
      <trkpt lat="44.80947" lon="5.90785">
        <ele>932.4</ele>
        <time>2015-07-25T11:09:27Z</time>
      </trkpt>
      <trkpt lat="44.80939" lon="5.90787">
        <ele>932.8</ele>
        <time>2015-07-25T11:09:32Z</time>
      </trkpt>
      <trkpt lat="44.80932" lon="5.90789">
        <ele>932.1</ele>
        <time>2015-07-25T11:09:37Z</time>
      </trkpt>
      <trkpt lat="44.80924" lon="5.9079">
        <ele>932.3</ele>
        <time>2015-07-25T11:09:42Z</time>
      </trkpt>
      <trkpt lat="44.80917" lon="5.90792">
        <ele>932.7</ele>
        <time>2015-07-25T11:09:47Z</time>
      </trkpt>
      <trkpt lat="44.8091" lon="5.90794">
        <ele>933.4</ele>
        <time>2015-07-25T11:09:52Z</time>
      </trkpt>
      <trkpt lat="44.80903" lon="5.90797">
        <ele>934</ele>
        <time>2015-07-25T11:09:57Z</time>
      </trkpt>
      <trkpt lat="44.80896" lon="5.90798">
        <ele>934.5</ele>
        <time>2015-07-25T11:10:02Z</time>
      </trkpt>
      <trkpt lat="44.80889" lon="5.90799">
        <ele>934.9</ele>
        <time>2015-07-25T11:10:07Z</time>
      </trkpt>
      <trkpt lat="44.80883" lon="5.90801">
        <ele>935</ele>
        <time>2015-07-25T11:10:12Z</time>
      </trkpt>
      <trkpt lat="44.80876" lon="5.90802">
        <ele>934.8</ele>
        <time>2015-07-25T11:10:17Z</time>
      </trkpt>
      <trkpt lat="44.8087" lon="5.90803">
        <ele>934.4</ele>
        <time>2015-07-25T11:10:22Z</time>
      </trkpt>
      <trkpt lat="44.80864" lon="5.90805">
        <ele>934.1</ele>
        <time>2015-07-25T11:10:27Z</time>
      </trkpt>
      <trkpt lat="44.8086" lon="5.90805">
        <ele>935</ele>
        <time>2015-07-25T11:10:32Z</time>
      </trkpt>
      <trkpt lat="44.80859" lon="5.90805">
        <ele>934.8</ele>
        <time>2015-07-25T11:10:37Z</time>
      </trkpt>
      <trkpt lat="44.80861" lon="5.90801">
        <ele>935.3</ele>
        <time>2015-07-25T11:10:42Z</time>
      </trkpt>
      <trkpt lat="44.80861" lon="5.90801">
        <ele>935.1</ele>
        <time>2015-07-25T11:10:47Z</time>
      </trkpt>
      <trkpt lat="44.80861" lon="5.90801">
        <ele>935.3</ele>
        <time>2015-07-25T11:10:52Z</time>
      </trkpt>
      <trkpt lat="44.80866" lon="5.90797">
        <ele>936.2</ele>
        <time>2015-07-25T11:10:57Z</time>
      </trkpt>
      <trkpt lat="44.80871" lon="5.90793">
        <ele>937.7</ele>
        <time>2015-07-25T11:11:02Z</time>
      </trkpt>
      <trkpt lat="44.80876" lon="5.90787">
        <ele>939.1</ele>
        <time>2015-07-25T11:11:07Z</time>
      </trkpt>
      <trkpt lat="44.8088" lon="5.90781">
        <ele>940.1</ele>
        <time>2015-07-25T11:11:12Z</time>
      </trkpt>
      <trkpt lat="44.80882" lon="5.90774">
        <ele>940.4</ele>
        <time>2015-07-25T11:11:17Z</time>
      </trkpt>
      <trkpt lat="44.80885" lon="5.90766">
        <ele>940</ele>
        <time>2015-07-25T11:11:22Z</time>
      </trkpt>
      <trkpt lat="44.80888" lon="5.90758">
        <ele>940.2</ele>
        <time>2015-07-25T11:11:27Z</time>
      </trkpt>
      <trkpt lat="44.80893" lon="5.9075">
        <ele>941.3</ele>
        <time>2015-07-25T11:11:32Z</time>
      </trkpt>
      <trkpt lat="44.80895" lon="5.90742">
        <ele>941.9</ele>
        <time>2015-07-25T11:11:37Z</time>
      </trkpt>
      <trkpt lat="44.80897" lon="5.90733">
        <ele>941.8</ele>
        <time>2015-07-25T11:11:42Z</time>
      </trkpt>
      <trkpt lat="44.80899" lon="5.90723">
        <ele>941.7</ele>
        <time>2015-07-25T11:11:47Z</time>
      </trkpt>
      <trkpt lat="44.809" lon="5.90713">
        <ele>941.9</ele>
        <time>2015-07-25T11:11:52Z</time>
      </trkpt>
      <trkpt lat="44.80901" lon="5.90704">
        <ele>941.3</ele>
        <time>2015-07-25T11:11:57Z</time>
      </trkpt>
      <trkpt lat="44.80903" lon="5.90694">
        <ele>942.8</ele>
        <time>2015-07-25T11:12:02Z</time>
      </trkpt>
      <trkpt lat="44.80904" lon="5.90685">
        <ele>943.8</ele>
        <time>2015-07-25T11:12:07Z</time>
      </trkpt>
      <trkpt lat="44.80905" lon="5.90675">
        <ele>943.5</ele>
        <time>2015-07-25T11:12:12Z</time>
      </trkpt>
      <trkpt lat="44.80904" lon="5.90666">
        <ele>942.9</ele>
        <time>2015-07-25T11:12:17Z</time>
      </trkpt>
      <trkpt lat="44.80904" lon="5.90658">
        <ele>941.9</ele>
        <time>2015-07-25T11:12:22Z</time>
      </trkpt>
      <trkpt lat="44.80904" lon="5.90649">
        <ele>941.5</ele>
        <time>2015-07-25T11:12:27Z</time>
      </trkpt>
      <trkpt lat="44.80905" lon="5.90639">
        <ele>942.2</ele>
        <time>2015-07-25T11:12:32Z</time>
      </trkpt>
      <trkpt lat="44.80906" lon="5.9063">
        <ele>942</ele>
        <time>2015-07-25T11:12:37Z</time>
      </trkpt>
      <trkpt lat="44.80906" lon="5.90621">
        <ele>941.5</ele>
        <time>2015-07-25T11:12:42Z</time>
      </trkpt>
      <trkpt lat="44.80906" lon="5.90612">
        <ele>941.1</ele>
        <time>2015-07-25T11:12:47Z</time>
      </trkpt>
      <trkpt lat="44.80906" lon="5.90602">
        <ele>940.9</ele>
        <time>2015-07-25T11:12:52Z</time>
      </trkpt>
      <trkpt lat="44.80907" lon="5.90592">
        <ele>940.7</ele>
        <time>2015-07-25T11:12:57Z</time>
      </trkpt>
      <trkpt lat="44.80906" lon="5.90583">
        <ele>940.5</ele>
        <time>2015-07-25T11:13:02Z</time>
      </trkpt>
      <trkpt lat="44.80906" lon="5.90574">
        <ele>940.2</ele>
        <time>2015-07-25T11:13:07Z</time>
      </trkpt>
      <trkpt lat="44.80906" lon="5.90565">
        <ele>939.9</ele>
        <time>2015-07-25T11:13:12Z</time>
      </trkpt>
      <trkpt lat="44.80909" lon="5.90556">
        <ele>939.9</ele>
        <time>2015-07-25T11:13:17Z</time>
      </trkpt>
      <trkpt lat="44.80909" lon="5.90546">
        <ele>939.7</ele>
        <time>2015-07-25T11:13:22Z</time>
      </trkpt>
      <trkpt lat="44.8091" lon="5.90536">
        <ele>939.6</ele>
        <time>2015-07-25T11:13:27Z</time>
      </trkpt>
      <trkpt lat="44.80911" lon="5.90527">
        <ele>939.7</ele>
        <time>2015-07-25T11:13:32Z</time>
      </trkpt>
      <trkpt lat="44.80911" lon="5.90517">
        <ele>939.3</ele>
        <time>2015-07-25T11:13:37Z</time>
      </trkpt>
      <trkpt lat="44.80912" lon="5.90508">
        <ele>939.4</ele>
        <time>2015-07-25T11:13:42Z</time>
      </trkpt>
      <trkpt lat="44.80912" lon="5.90498">
        <ele>939.2</ele>
        <time>2015-07-25T11:13:47Z</time>
      </trkpt>
      <trkpt lat="44.80912" lon="5.90489">
        <ele>938.7</ele>
        <time>2015-07-25T11:13:52Z</time>
      </trkpt>
      <trkpt lat="44.80912" lon="5.9048">
        <ele>938.2</ele>
        <time>2015-07-25T11:13:57Z</time>
      </trkpt>
      <trkpt lat="44.80913" lon="5.9047">
        <ele>938.2</ele>
        <time>2015-07-25T11:14:02Z</time>
      </trkpt>
      <trkpt lat="44.80913" lon="5.9046">
        <ele>937.5</ele>
        <time>2015-07-25T11:14:07Z</time>
      </trkpt>
      <trkpt lat="44.80914" lon="5.9045">
        <ele>937.2</ele>
        <time>2015-07-25T11:14:12Z</time>
      </trkpt>
      <trkpt lat="44.80915" lon="5.9044">
        <ele>936.9</ele>
        <time>2015-07-25T11:14:17Z</time>
      </trkpt>
      <trkpt lat="44.80916" lon="5.9043">
        <ele>936.4</ele>
        <time>2015-07-25T11:14:22Z</time>
      </trkpt>
      <trkpt lat="44.80916" lon="5.90421">
        <ele>936.5</ele>
        <time>2015-07-25T11:14:27Z</time>
      </trkpt>
      <trkpt lat="44.80917" lon="5.90411">
        <ele>936.3</ele>
        <time>2015-07-25T11:14:32Z</time>
      </trkpt>
      <trkpt lat="44.80918" lon="5.90402">
        <ele>936.2</ele>
        <time>2015-07-25T11:14:37Z</time>
      </trkpt>
      <trkpt lat="44.80918" lon="5.90392">
        <ele>935.8</ele>
        <time>2015-07-25T11:14:42Z</time>
      </trkpt>
      <trkpt lat="44.80919" lon="5.90383">
        <ele>935.5</ele>
        <time>2015-07-25T11:14:47Z</time>
      </trkpt>
      <trkpt lat="44.80919" lon="5.90374">
        <ele>935.3</ele>
        <time>2015-07-25T11:14:52Z</time>
      </trkpt>
      <trkpt lat="44.80919" lon="5.90365">
        <ele>935</ele>
        <time>2015-07-25T11:14:57Z</time>
      </trkpt>
      <trkpt lat="44.8092" lon="5.90356">
        <ele>935</ele>
        <time>2015-07-25T11:15:02Z</time>
      </trkpt>
      <trkpt lat="44.80921" lon="5.90347">
        <ele>935.7</ele>
        <time>2015-07-25T11:15:07Z</time>
      </trkpt>
      <trkpt lat="44.80921" lon="5.90338">
        <ele>935.2</ele>
        <time>2015-07-25T11:15:12Z</time>
      </trkpt>
      <trkpt lat="44.80922" lon="5.90329">
        <ele>935.3</ele>
        <time>2015-07-25T11:15:17Z</time>
      </trkpt>
      <trkpt lat="44.80922" lon="5.90321">
        <ele>935.5</ele>
        <time>2015-07-25T11:15:22Z</time>
      </trkpt>
      <trkpt lat="44.80922" lon="5.90316">
        <ele>935.3</ele>
        <time>2015-07-25T11:15:27Z</time>
      </trkpt>
      <trkpt lat="44.80922" lon="5.90316">
        <ele>935.3</ele>
        <time>2015-07-25T11:15:32Z</time>
      </trkpt>
      <trkpt lat="44.80923" lon="5.90316">
        <ele>935.3</ele>
        <time>2015-07-25T11:15:37Z</time>
      </trkpt>
      <trkpt lat="44.80923" lon="5.9031">
        <ele>935</ele>
        <time>2015-07-25T11:15:42Z</time>
      </trkpt>
      <trkpt lat="44.80922" lon="5.90301">
        <ele>934.6</ele>
        <time>2015-07-25T11:15:47Z</time>
      </trkpt>
      <trkpt lat="44.80923" lon="5.90293">
        <ele>934.7</ele>
        <time>2015-07-25T11:15:52Z</time>
      </trkpt>
      <trkpt lat="44.80923" lon="5.90284">
        <ele>934.3</ele>
        <time>2015-07-25T11:15:57Z</time>
      </trkpt>
      <trkpt lat="44.80924" lon="5.90275">
        <ele>934.7</ele>
        <time>2015-07-25T11:16:02Z</time>
      </trkpt>
      <trkpt lat="44.80924" lon="5.90266">
        <ele>934.5</ele>
        <time>2015-07-25T11:16:07Z</time>
      </trkpt>
      <trkpt lat="44.80921" lon="5.9026">
        <ele>934.2</ele>
        <time>2015-07-25T11:16:12Z</time>
      </trkpt>
      <trkpt lat="44.80923" lon="5.90252">
        <ele>934</ele>
        <time>2015-07-25T11:16:17Z</time>
      </trkpt>
      <trkpt lat="44.80924" lon="5.90243">
        <ele>933.8</ele>
        <time>2015-07-25T11:16:22Z</time>
      </trkpt>
      <trkpt lat="44.80925" lon="5.90234">
        <ele>933.2</ele>
        <time>2015-07-25T11:16:27Z</time>
      </trkpt>
      <trkpt lat="44.80925" lon="5.90225">
        <ele>932.9</ele>
        <time>2015-07-25T11:16:32Z</time>
      </trkpt>
      <trkpt lat="44.80925" lon="5.90216">
        <ele>932.2</ele>
        <time>2015-07-25T11:16:37Z</time>
      </trkpt>
      <trkpt lat="44.80925" lon="5.90207">
        <ele>932</ele>
        <time>2015-07-25T11:16:42Z</time>
      </trkpt>
      <trkpt lat="44.80925" lon="5.90198">
        <ele>931.9</ele>
        <time>2015-07-25T11:16:47Z</time>
      </trkpt>
      <trkpt lat="44.80925" lon="5.90189">
        <ele>931.7</ele>
        <time>2015-07-25T11:16:52Z</time>
      </trkpt>
      <trkpt lat="44.80925" lon="5.90179">
        <ele>931.7</ele>
        <time>2015-07-25T11:16:57Z</time>
      </trkpt>
      <trkpt lat="44.80926" lon="5.9017">
        <ele>931.5</ele>
        <time>2015-07-25T11:17:02Z</time>
      </trkpt>
      <trkpt lat="44.80928" lon="5.90161">
        <ele>931.2</ele>
        <time>2015-07-25T11:17:07Z</time>
      </trkpt>
      <trkpt lat="44.80928" lon="5.90152">
        <ele>930.9</ele>
        <time>2015-07-25T11:17:12Z</time>
      </trkpt>
      <trkpt lat="44.80929" lon="5.90143">
        <ele>930.5</ele>
        <time>2015-07-25T11:17:17Z</time>
      </trkpt>
      <trkpt lat="44.80929" lon="5.90134">
        <ele>930.4</ele>
        <time>2015-07-25T11:17:22Z</time>
      </trkpt>
      <trkpt lat="44.8093" lon="5.90125">
        <ele>930.2</ele>
        <time>2015-07-25T11:17:27Z</time>
      </trkpt>
      <trkpt lat="44.8093" lon="5.90116">
        <ele>929.7</ele>
        <time>2015-07-25T11:17:32Z</time>
      </trkpt>
      <trkpt lat="44.8093" lon="5.90106">
        <ele>929</ele>
        <time>2015-07-25T11:17:37Z</time>
      </trkpt>
      <trkpt lat="44.8093" lon="5.90097">
        <ele>929.2</ele>
        <time>2015-07-25T11:17:42Z</time>
      </trkpt>
      <trkpt lat="44.80929" lon="5.90088">
        <ele>928.8</ele>
        <time>2015-07-25T11:17:47Z</time>
      </trkpt>
      <trkpt lat="44.80925" lon="5.90079">
        <ele>928.7</ele>
        <time>2015-07-25T11:17:52Z</time>
      </trkpt>
      <trkpt lat="44.80921" lon="5.90072">
        <ele>928.9</ele>
        <time>2015-07-25T11:17:57Z</time>
      </trkpt>
      <trkpt lat="44.80916" lon="5.90065">
        <ele>928.9</ele>
        <time>2015-07-25T11:18:02Z</time>
      </trkpt>
      <trkpt lat="44.8091" lon="5.90058">
        <ele>928.5</ele>
        <time>2015-07-25T11:18:07Z</time>
      </trkpt>
      <trkpt lat="44.80904" lon="5.90051">
        <ele>928.1</ele>
        <time>2015-07-25T11:18:12Z</time>
      </trkpt>
      <trkpt lat="44.80898" lon="5.90044">
        <ele>928.1</ele>
        <time>2015-07-25T11:18:17Z</time>
      </trkpt>
      <trkpt lat="44.80893" lon="5.90037">
        <ele>928.5</ele>
        <time>2015-07-25T11:18:22Z</time>
      </trkpt>
      <trkpt lat="44.80887" lon="5.90031">
        <ele>928.1</ele>
        <time>2015-07-25T11:18:27Z</time>
      </trkpt>
      <trkpt lat="44.80882" lon="5.90025">
        <ele>927.6</ele>
        <time>2015-07-25T11:18:32Z</time>
      </trkpt>
      <trkpt lat="44.80876" lon="5.90018">
        <ele>927.5</ele>
        <time>2015-07-25T11:18:37Z</time>
      </trkpt>
      <trkpt lat="44.80871" lon="5.90011">
        <ele>927.3</ele>
        <time>2015-07-25T11:18:42Z</time>
      </trkpt>
      <trkpt lat="44.80866" lon="5.90004">
        <ele>927.4</ele>
        <time>2015-07-25T11:18:47Z</time>
      </trkpt>
      <trkpt lat="44.80861" lon="5.89998">
        <ele>927.5</ele>
        <time>2015-07-25T11:18:52Z</time>
      </trkpt>
      <trkpt lat="44.80857" lon="5.89991">
        <ele>927.2</ele>
        <time>2015-07-25T11:18:57Z</time>
      </trkpt>
      <trkpt lat="44.80852" lon="5.89984">
        <ele>926.8</ele>
        <time>2015-07-25T11:19:02Z</time>
      </trkpt>
      <trkpt lat="44.80848" lon="5.89977">
        <ele>926.9</ele>
        <time>2015-07-25T11:19:07Z</time>
      </trkpt>
      <trkpt lat="44.80844" lon="5.8997">
        <ele>927.7</ele>
        <time>2015-07-25T11:19:12Z</time>
      </trkpt>
      <trkpt lat="44.80838" lon="5.89964">
        <ele>927</ele>
        <time>2015-07-25T11:19:17Z</time>
      </trkpt>
      <trkpt lat="44.80833" lon="5.89958">
        <ele>927.4</ele>
        <time>2015-07-25T11:19:22Z</time>
      </trkpt>
      <trkpt lat="44.80827" lon="5.89952">
        <ele>927.2</ele>
        <time>2015-07-25T11:19:27Z</time>
      </trkpt>
      <trkpt lat="44.80823" lon="5.89945">
        <ele>926.7</ele>
        <time>2015-07-25T11:19:32Z</time>
      </trkpt>
      <trkpt lat="44.8082" lon="5.89938">
        <ele>927.4</ele>
        <time>2015-07-25T11:19:37Z</time>
      </trkpt>
      <trkpt lat="44.80816" lon="5.89932">
        <ele>928.8</ele>
        <time>2015-07-25T11:19:42Z</time>
      </trkpt>
      <trkpt lat="44.80813" lon="5.89926">
        <ele>930.2</ele>
        <time>2015-07-25T11:19:47Z</time>
      </trkpt>
      <trkpt lat="44.80808" lon="5.8992">
        <ele>930.3</ele>
        <time>2015-07-25T11:19:52Z</time>
      </trkpt>
      <trkpt lat="44.80803" lon="5.89915">
        <ele>929.9</ele>
        <time>2015-07-25T11:19:57Z</time>
      </trkpt>
      <trkpt lat="44.80795" lon="5.89911">
        <ele>927.3</ele>
        <time>2015-07-25T11:20:02Z</time>
      </trkpt>
      <trkpt lat="44.8079" lon="5.89906">
        <ele>927.1</ele>
        <time>2015-07-25T11:20:07Z</time>
      </trkpt>
      <trkpt lat="44.80784" lon="5.89899">
        <ele>926</ele>
        <time>2015-07-25T11:20:12Z</time>
      </trkpt>
      <trkpt lat="44.80779" lon="5.89892">
        <ele>925.6</ele>
        <time>2015-07-25T11:20:17Z</time>
      </trkpt>
      <trkpt lat="44.80773" lon="5.89886">
        <ele>925.9</ele>
        <time>2015-07-25T11:20:22Z</time>
      </trkpt>
      <trkpt lat="44.80771" lon="5.89879">
        <ele>928.3</ele>
        <time>2015-07-25T11:20:27Z</time>
      </trkpt>
      <trkpt lat="44.80767" lon="5.89872">
        <ele>930.4</ele>
        <time>2015-07-25T11:20:32Z</time>
      </trkpt>
      <trkpt lat="44.80762" lon="5.89865">
        <ele>931.1</ele>
        <time>2015-07-25T11:20:37Z</time>
      </trkpt>
      <trkpt lat="44.8076" lon="5.89858">
        <ele>931.1</ele>
        <time>2015-07-25T11:20:42Z</time>
      </trkpt>
      <trkpt lat="44.80765" lon="5.89852">
        <ele>929.2</ele>
        <time>2015-07-25T11:20:47Z</time>
      </trkpt>
      <trkpt lat="44.80769" lon="5.89848">
        <ele>928.1</ele>
        <time>2015-07-25T11:20:52Z</time>
      </trkpt>
      <trkpt lat="44.80772" lon="5.89843">
        <ele>928.2</ele>
        <time>2015-07-25T11:20:57Z</time>
      </trkpt>
      <trkpt lat="44.80776" lon="5.89842">
        <ele>929.8</ele>
        <time>2015-07-25T11:21:02Z</time>
      </trkpt>
      <trkpt lat="44.80782" lon="5.8984">
        <ele>928.7</ele>
        <time>2015-07-25T11:21:07Z</time>
      </trkpt>
      <trkpt lat="44.80789" lon="5.89837">
        <ele>928</ele>
        <time>2015-07-25T11:21:12Z</time>
      </trkpt>
      <trkpt lat="44.80795" lon="5.89834">
        <ele>926.9</ele>
        <time>2015-07-25T11:21:17Z</time>
      </trkpt>
      <trkpt lat="44.80801" lon="5.89829">
        <ele>926.7</ele>
        <time>2015-07-25T11:21:22Z</time>
      </trkpt>
      <trkpt lat="44.80806" lon="5.89824">
        <ele>926.9</ele>
        <time>2015-07-25T11:21:27Z</time>
      </trkpt>
      <trkpt lat="44.80812" lon="5.89819">
        <ele>926.2</ele>
        <time>2015-07-25T11:21:32Z</time>
      </trkpt>
      <trkpt lat="44.80817" lon="5.89814">
        <ele>924.9</ele>
        <time>2015-07-25T11:21:37Z</time>
      </trkpt>
      <trkpt lat="44.80822" lon="5.89809">
        <ele>923.7</ele>
        <time>2015-07-25T11:21:42Z</time>
      </trkpt>
      <trkpt lat="44.80826" lon="5.89804">
        <ele>923.2</ele>
        <time>2015-07-25T11:21:47Z</time>
      </trkpt>
      <trkpt lat="44.80831" lon="5.898">
        <ele>922.9</ele>
        <time>2015-07-25T11:21:52Z</time>
      </trkpt>
      <trkpt lat="44.80836" lon="5.89795">
        <ele>922.1</ele>
        <time>2015-07-25T11:21:57Z</time>
      </trkpt>
      <trkpt lat="44.8084" lon="5.8979">
        <ele>921.8</ele>
        <time>2015-07-25T11:22:02Z</time>
      </trkpt>
      <trkpt lat="44.80846" lon="5.89785">
        <ele>922.3</ele>
        <time>2015-07-25T11:22:07Z</time>
      </trkpt>
      <trkpt lat="44.8085" lon="5.89781">
        <ele>921.5</ele>
        <time>2015-07-25T11:22:12Z</time>
      </trkpt>
      <trkpt lat="44.80856" lon="5.89776">
        <ele>921.7</ele>
        <time>2015-07-25T11:22:17Z</time>
      </trkpt>
      <trkpt lat="44.80861" lon="5.89772">
        <ele>921.6</ele>
        <time>2015-07-25T11:22:22Z</time>
      </trkpt>
      <trkpt lat="44.80867" lon="5.8977">
        <ele>922.1</ele>
        <time>2015-07-25T11:22:27Z</time>
      </trkpt>
      <trkpt lat="44.80873" lon="5.89767">
        <ele>923.1</ele>
        <time>2015-07-25T11:22:32Z</time>
      </trkpt>
      <trkpt lat="44.80878" lon="5.89762">
        <ele>921.5</ele>
        <time>2015-07-25T11:22:37Z</time>
      </trkpt>
      <trkpt lat="44.80883" lon="5.89758">
        <ele>921.5</ele>
        <time>2015-07-25T11:22:42Z</time>
      </trkpt>
      <trkpt lat="44.80887" lon="5.89755">
        <ele>921.5</ele>
        <time>2015-07-25T11:22:47Z</time>
      </trkpt>
      <trkpt lat="44.80888" lon="5.89753">
        <ele>921.7</ele>
        <time>2015-07-25T11:22:52Z</time>
      </trkpt>
      <trkpt lat="44.80889" lon="5.89752">
        <ele>922.6</ele>
        <time>2015-07-25T11:22:57Z</time>
      </trkpt>
      <trkpt lat="44.80893" lon="5.89752">
        <ele>924.6</ele>
        <time>2015-07-25T11:23:02Z</time>
      </trkpt>
      <trkpt lat="44.80896" lon="5.89752">
        <ele>926.2</ele>
        <time>2015-07-25T11:23:07Z</time>
      </trkpt>
      <trkpt lat="44.80896" lon="5.89753">
        <ele>924.5</ele>
        <time>2015-07-25T11:23:12Z</time>
      </trkpt>
      <trkpt lat="44.80898" lon="5.8975">
        <ele>923.5</ele>
        <time>2015-07-25T11:23:17Z</time>
      </trkpt>
      <trkpt lat="44.809" lon="5.89745">
        <ele>921.5</ele>
        <time>2015-07-25T11:23:22Z</time>
      </trkpt>
      <trkpt lat="44.80902" lon="5.89739">
        <ele>920.8</ele>
        <time>2015-07-25T11:23:27Z</time>
      </trkpt>
      <trkpt lat="44.80906" lon="5.89734">
        <ele>921.6</ele>
        <time>2015-07-25T11:23:32Z</time>
      </trkpt>
      <trkpt lat="44.80909" lon="5.89729">
        <ele>921.1</ele>
        <time>2015-07-25T11:23:37Z</time>
      </trkpt>
      <trkpt lat="44.80913" lon="5.89724">
        <ele>921.3</ele>
        <time>2015-07-25T11:23:42Z</time>
      </trkpt>
      <trkpt lat="44.80916" lon="5.89719">
        <ele>920.1</ele>
        <time>2015-07-25T11:23:47Z</time>
      </trkpt>
      <trkpt lat="44.80922" lon="5.89715">
        <ele>921.9</ele>
        <time>2015-07-25T11:23:52Z</time>
      </trkpt>
      <trkpt lat="44.8093" lon="5.89709">
        <ele>923</ele>
        <time>2015-07-25T11:23:57Z</time>
      </trkpt>
      <trkpt lat="44.80935" lon="5.89702">
        <ele>921.2</ele>
        <time>2015-07-25T11:24:02Z</time>
      </trkpt>
      <trkpt lat="44.80941" lon="5.89696">
        <ele>920.8</ele>
        <time>2015-07-25T11:24:07Z</time>
      </trkpt>
      <trkpt lat="44.80948" lon="5.8969">
        <ele>922.8</ele>
        <time>2015-07-25T11:24:12Z</time>
      </trkpt>
      <trkpt lat="44.80953" lon="5.89684">
        <ele>923</ele>
        <time>2015-07-25T11:24:17Z</time>
      </trkpt>
      <trkpt lat="44.80957" lon="5.89679">
        <ele>924.1</ele>
        <time>2015-07-25T11:24:22Z</time>
      </trkpt>
      <trkpt lat="44.80959" lon="5.8967">
        <ele>921.9</ele>
        <time>2015-07-25T11:24:27Z</time>
      </trkpt>
      <trkpt lat="44.80963" lon="5.89659">
        <ele>920.7</ele>
        <time>2015-07-25T11:24:32Z</time>
      </trkpt>
      <trkpt lat="44.80964" lon="5.89649">
        <ele>919.4</ele>
        <time>2015-07-25T11:24:37Z</time>
      </trkpt>
      <trkpt lat="44.80966" lon="5.8964">
        <ele>919.5</ele>
        <time>2015-07-25T11:24:42Z</time>
      </trkpt>
      <trkpt lat="44.80966" lon="5.89634">
        <ele>918.7</ele>
        <time>2015-07-25T11:24:47Z</time>
      </trkpt>
      <trkpt lat="44.80969" lon="5.89626">
        <ele>918.5</ele>
        <time>2015-07-25T11:24:52Z</time>
      </trkpt>
      <trkpt lat="44.80969" lon="5.89617">
        <ele>916.9</ele>
        <time>2015-07-25T11:24:57Z</time>
      </trkpt>
      <trkpt lat="44.80972" lon="5.89609">
        <ele>917.4</ele>
        <time>2015-07-25T11:25:02Z</time>
      </trkpt>
      <trkpt lat="44.80975" lon="5.89606">
        <ele>919.1</ele>
        <time>2015-07-25T11:25:07Z</time>
      </trkpt>
      <trkpt lat="44.80973" lon="5.89606">
        <ele>916.9</ele>
        <time>2015-07-25T11:25:12Z</time>
      </trkpt>
      <trkpt lat="44.80974" lon="5.89606">
        <ele>917.6</ele>
        <time>2015-07-25T11:25:17Z</time>
      </trkpt>
      <trkpt lat="44.80976" lon="5.89604">
        <ele>918.9</ele>
        <time>2015-07-25T11:25:22Z</time>
      </trkpt>
      <trkpt lat="44.80977" lon="5.89603">
        <ele>919.5</ele>
        <time>2015-07-25T11:25:27Z</time>
      </trkpt>
      <trkpt lat="44.80978" lon="5.89602">
        <ele>919.9</ele>
        <time>2015-07-25T11:25:32Z</time>
      </trkpt>
      <trkpt lat="44.8098" lon="5.89597">
        <ele>918.6</ele>
        <time>2015-07-25T11:25:37Z</time>
      </trkpt>
      <trkpt lat="44.80983" lon="5.89592">
        <ele>917.4</ele>
        <time>2015-07-25T11:25:42Z</time>
      </trkpt>
      <trkpt lat="44.80987" lon="5.89587">
        <ele>917.4</ele>
        <time>2015-07-25T11:25:47Z</time>
      </trkpt>
      <trkpt lat="44.80993" lon="5.89582">
        <ele>918.5</ele>
        <time>2015-07-25T11:25:52Z</time>
      </trkpt>
      <trkpt lat="44.80999" lon="5.89578">
        <ele>920.6</ele>
        <time>2015-07-25T11:25:57Z</time>
      </trkpt>
      <trkpt lat="44.81003" lon="5.89572">
        <ele>921.3</ele>
        <time>2015-07-25T11:26:02Z</time>
      </trkpt>
      <trkpt lat="44.81006" lon="5.89564">
        <ele>919.9</ele>
        <time>2015-07-25T11:26:07Z</time>
      </trkpt>
      <trkpt lat="44.81007" lon="5.89559">
        <ele>918.3</ele>
        <time>2015-07-25T11:26:12Z</time>
      </trkpt>
      <trkpt lat="44.81011" lon="5.8955">
        <ele>917.7</ele>
        <time>2015-07-25T11:26:17Z</time>
      </trkpt>
      <trkpt lat="44.81014" lon="5.89541">
        <ele>917.6</ele>
        <time>2015-07-25T11:26:22Z</time>
      </trkpt>
      <trkpt lat="44.81016" lon="5.89532">
        <ele>917.3</ele>
        <time>2015-07-25T11:26:27Z</time>
      </trkpt>
      <trkpt lat="44.8102" lon="5.89523">
        <ele>919.6</ele>
        <time>2015-07-25T11:26:32Z</time>
      </trkpt>
      <trkpt lat="44.81021" lon="5.89514">
        <ele>919.8</ele>
        <time>2015-07-25T11:26:37Z</time>
      </trkpt>
      <trkpt lat="44.81022" lon="5.89505">
        <ele>921.1</ele>
        <time>2015-07-25T11:26:42Z</time>
      </trkpt>
      <trkpt lat="44.8102" lon="5.89497">
        <ele>921</ele>
        <time>2015-07-25T11:26:47Z</time>
      </trkpt>
      <trkpt lat="44.8102" lon="5.89488">
        <ele>920.7</ele>
        <time>2015-07-25T11:26:52Z</time>
      </trkpt>
      <trkpt lat="44.81019" lon="5.8948">
        <ele>920.6</ele>
        <time>2015-07-25T11:26:57Z</time>
      </trkpt>
      <trkpt lat="44.81017" lon="5.8947">
        <ele>917</ele>
        <time>2015-07-25T11:27:02Z</time>
      </trkpt>
      <trkpt lat="44.81015" lon="5.89462">
        <ele>916.2</ele>
        <time>2015-07-25T11:27:07Z</time>
      </trkpt>
      <trkpt lat="44.81014" lon="5.89453">
        <ele>916.3</ele>
        <time>2015-07-25T11:27:12Z</time>
      </trkpt>
      <trkpt lat="44.81013" lon="5.89446">
        <ele>916.3</ele>
        <time>2015-07-25T11:27:17Z</time>
      </trkpt>
      <trkpt lat="44.81011" lon="5.89441">
        <ele>913.4</ele>
        <time>2015-07-25T11:27:22Z</time>
      </trkpt>
      <trkpt lat="44.8101" lon="5.89437">
        <ele>913.5</ele>
        <time>2015-07-25T11:27:27Z</time>
      </trkpt>
      <trkpt lat="44.81007" lon="5.8943">
        <ele>911.8</ele>
        <time>2015-07-25T11:27:32Z</time>
      </trkpt>
      <trkpt lat="44.81004" lon="5.89423">
        <ele>912.5</ele>
        <time>2015-07-25T11:27:37Z</time>
      </trkpt>
      <trkpt lat="44.81003" lon="5.8942">
        <ele>911.2</ele>
        <time>2015-07-25T11:27:42Z</time>
      </trkpt>
      <trkpt lat="44.81" lon="5.89413">
        <ele>912.2</ele>
        <time>2015-07-25T11:27:47Z</time>
      </trkpt>
      <trkpt lat="44.80999" lon="5.89405">
        <ele>912.9</ele>
        <time>2015-07-25T11:27:52Z</time>
      </trkpt>
      <trkpt lat="44.80999" lon="5.89396">
        <ele>910.6</ele>
        <time>2015-07-25T11:27:57Z</time>
      </trkpt>
      <trkpt lat="44.80997" lon="5.89387">
        <ele>909.3</ele>
        <time>2015-07-25T11:28:02Z</time>
      </trkpt>
      <trkpt lat="44.80993" lon="5.89376">
        <ele>910.1</ele>
        <time>2015-07-25T11:28:07Z</time>
      </trkpt>
      <trkpt lat="44.80994" lon="5.89366">
        <ele>909.9</ele>
        <time>2015-07-25T11:28:12Z</time>
      </trkpt>
      <trkpt lat="44.80991" lon="5.8936">
        <ele>908.2</ele>
        <time>2015-07-25T11:28:17Z</time>
      </trkpt>
      <trkpt lat="44.80987" lon="5.8935">
        <ele>912.8</ele>
        <time>2015-07-25T11:28:22Z</time>
      </trkpt>
      <trkpt lat="44.80983" lon="5.8934">
        <ele>913.3</ele>
        <time>2015-07-25T11:28:27Z</time>
      </trkpt>
      <trkpt lat="44.8098" lon="5.89331">
        <ele>913</ele>
        <time>2015-07-25T11:28:32Z</time>
      </trkpt>
      <trkpt lat="44.80981" lon="5.89322">
        <ele>912.2</ele>
        <time>2015-07-25T11:28:37Z</time>
      </trkpt>
      <trkpt lat="44.80983" lon="5.89312">
        <ele>914.4</ele>
        <time>2015-07-25T11:28:42Z</time>
      </trkpt>
      <trkpt lat="44.80983" lon="5.89302">
        <ele>914.9</ele>
        <time>2015-07-25T11:28:47Z</time>
      </trkpt>
      <trkpt lat="44.80984" lon="5.89292">
        <ele>916.2</ele>
        <time>2015-07-25T11:28:52Z</time>
      </trkpt>
      <trkpt lat="44.8098" lon="5.89282">
        <ele>916.5</ele>
        <time>2015-07-25T11:28:57Z</time>
      </trkpt>
      <trkpt lat="44.80978" lon="5.89272">
        <ele>917.6</ele>
        <time>2015-07-25T11:29:02Z</time>
      </trkpt>
      <trkpt lat="44.80974" lon="5.89262">
        <ele>915.9</ele>
        <time>2015-07-25T11:29:07Z</time>
      </trkpt>
      <trkpt lat="44.80968" lon="5.89252">
        <ele>915.6</ele>
        <time>2015-07-25T11:29:12Z</time>
      </trkpt>
      <trkpt lat="44.80962" lon="5.89243">
        <ele>914.6</ele>
        <time>2015-07-25T11:29:17Z</time>
      </trkpt>
      <trkpt lat="44.80956" lon="5.89236">
        <ele>913</ele>
        <time>2015-07-25T11:29:22Z</time>
      </trkpt>
      <trkpt lat="44.80951" lon="5.89229">
        <ele>911.7</ele>
        <time>2015-07-25T11:29:27Z</time>
      </trkpt>
      <trkpt lat="44.80948" lon="5.89221">
        <ele>910.4</ele>
        <time>2015-07-25T11:29:32Z</time>
      </trkpt>
      <trkpt lat="44.80944" lon="5.89214">
        <ele>908.6</ele>
        <time>2015-07-25T11:29:37Z</time>
      </trkpt>
      <trkpt lat="44.80937" lon="5.89206">
        <ele>906.2</ele>
        <time>2015-07-25T11:29:42Z</time>
      </trkpt>
      <trkpt lat="44.80931" lon="5.892">
        <ele>904.4</ele>
        <time>2015-07-25T11:29:47Z</time>
      </trkpt>
      <trkpt lat="44.80927" lon="5.89194">
        <ele>905.7</ele>
        <time>2015-07-25T11:29:52Z</time>
      </trkpt>
      <trkpt lat="44.80928" lon="5.89185">
        <ele>908</ele>
        <time>2015-07-25T11:29:57Z</time>
      </trkpt>
      <trkpt lat="44.80929" lon="5.89177">
        <ele>906.7</ele>
        <time>2015-07-25T11:30:02Z</time>
      </trkpt>
      <trkpt lat="44.80931" lon="5.89169">
        <ele>907.2</ele>
        <time>2015-07-25T11:30:07Z</time>
      </trkpt>
      <trkpt lat="44.80932" lon="5.89165">
        <ele>907.9</ele>
        <time>2015-07-25T11:30:12Z</time>
      </trkpt>
      <trkpt lat="44.80935" lon="5.8916">
        <ele>907.6</ele>
        <time>2015-07-25T11:30:17Z</time>
      </trkpt>
      <trkpt lat="44.80934" lon="5.8916">
        <ele>909.5</ele>
        <time>2015-07-25T11:30:22Z</time>
      </trkpt>
      <trkpt lat="44.80933" lon="5.89156">
        <ele>909.1</ele>
        <time>2015-07-25T11:30:27Z</time>
      </trkpt>
      <trkpt lat="44.80938" lon="5.89152">
        <ele>911.2</ele>
        <time>2015-07-25T11:30:32Z</time>
      </trkpt>
      <trkpt lat="44.80939" lon="5.89147">
        <ele>911.4</ele>
        <time>2015-07-25T11:30:37Z</time>
      </trkpt>
      <trkpt lat="44.80943" lon="5.8914">
        <ele>911.4</ele>
        <time>2015-07-25T11:30:42Z</time>
      </trkpt>
      <trkpt lat="44.80947" lon="5.89133">
        <ele>911.1</ele>
        <time>2015-07-25T11:30:47Z</time>
      </trkpt>
      <trkpt lat="44.80949" lon="5.89125">
        <ele>910.5</ele>
        <time>2015-07-25T11:30:52Z</time>
      </trkpt>
      <trkpt lat="44.80953" lon="5.89117">
        <ele>910.3</ele>
        <time>2015-07-25T11:30:57Z</time>
      </trkpt>
      <trkpt lat="44.80956" lon="5.8911">
        <ele>911.1</ele>
        <time>2015-07-25T11:31:02Z</time>
      </trkpt>
      <trkpt lat="44.80958" lon="5.89102">
        <ele>911.5</ele>
        <time>2015-07-25T11:31:07Z</time>
      </trkpt>
      <trkpt lat="44.8096" lon="5.891">
        <ele>912</ele>
        <time>2015-07-25T11:31:12Z</time>
      </trkpt>
      <trkpt lat="44.80961" lon="5.891">
        <ele>913.1</ele>
        <time>2015-07-25T11:31:17Z</time>
      </trkpt>
      <trkpt lat="44.80964" lon="5.89098">
        <ele>915</ele>
        <time>2015-07-25T11:31:22Z</time>
      </trkpt>
      <trkpt lat="44.80966" lon="5.89098">
        <ele>918.1</ele>
        <time>2015-07-25T11:31:27Z</time>
      </trkpt>
      <trkpt lat="44.80967" lon="5.89099">
        <ele>920.1</ele>
        <time>2015-07-25T11:31:32Z</time>
      </trkpt>
      <trkpt lat="44.80965" lon="5.89099">
        <ele>918.3</ele>
        <time>2015-07-25T11:31:37Z</time>
      </trkpt>
      <trkpt lat="44.80964" lon="5.89099">
        <ele>917.8</ele>
        <time>2015-07-25T11:31:42Z</time>
      </trkpt>
      <trkpt lat="44.80964" lon="5.89098">
        <ele>917.3</ele>
        <time>2015-07-25T11:31:47Z</time>
      </trkpt>
      <trkpt lat="44.80964" lon="5.89098">
        <ele>917.2</ele>
        <time>2015-07-25T11:31:52Z</time>
      </trkpt>
      <trkpt lat="44.80966" lon="5.89098">
        <ele>918.8</ele>
        <time>2015-07-25T11:31:57Z</time>
      </trkpt>
      <trkpt lat="44.80966" lon="5.89097">
        <ele>918.3</ele>
        <time>2015-07-25T11:32:02Z</time>
      </trkpt>
      <trkpt lat="44.80965" lon="5.89097">
        <ele>917.3</ele>
        <time>2015-07-25T11:32:07Z</time>
      </trkpt>
      <trkpt lat="44.80964" lon="5.89097">
        <ele>916.9</ele>
        <time>2015-07-25T11:32:12Z</time>
      </trkpt>
      <trkpt lat="44.80964" lon="5.89097">
        <ele>916.5</ele>
        <time>2015-07-25T11:32:17Z</time>
      </trkpt>
      <trkpt lat="44.80965" lon="5.89093">
        <ele>915.8</ele>
        <time>2015-07-25T11:32:22Z</time>
      </trkpt>
      <trkpt lat="44.80965" lon="5.89087">
        <ele>914.9</ele>
        <time>2015-07-25T11:32:27Z</time>
      </trkpt>
      <trkpt lat="44.80965" lon="5.89086">
        <ele>914.2</ele>
        <time>2015-07-25T11:32:32Z</time>
      </trkpt>
      <trkpt lat="44.80967" lon="5.89081">
        <ele>913.9</ele>
        <time>2015-07-25T11:32:37Z</time>
      </trkpt>
      <trkpt lat="44.80969" lon="5.89078">
        <ele>914.1</ele>
        <time>2015-07-25T11:32:42Z</time>
      </trkpt>
      <trkpt lat="44.80971" lon="5.89078">
        <ele>914.8</ele>
        <time>2015-07-25T11:32:47Z</time>
      </trkpt>
      <trkpt lat="44.80972" lon="5.89077">
        <ele>915.7</ele>
        <time>2015-07-25T11:32:52Z</time>
      </trkpt>
      <trkpt lat="44.80974" lon="5.89075">
        <ele>916.5</ele>
        <time>2015-07-25T11:32:57Z</time>
      </trkpt>
      <trkpt lat="44.80976" lon="5.8907">
        <ele>915.7</ele>
        <time>2015-07-25T11:33:02Z</time>
      </trkpt>
      <trkpt lat="44.80978" lon="5.89065">
        <ele>914.6</ele>
        <time>2015-07-25T11:33:07Z</time>
      </trkpt>
      <trkpt lat="44.80979" lon="5.89059">
        <ele>914.6</ele>
        <time>2015-07-25T11:33:12Z</time>
      </trkpt>
      <trkpt lat="44.80982" lon="5.89058">
        <ele>914.4</ele>
        <time>2015-07-25T11:33:17Z</time>
      </trkpt>
      <trkpt lat="44.80981" lon="5.89058">
        <ele>913.7</ele>
        <time>2015-07-25T11:33:22Z</time>
      </trkpt>
      <trkpt lat="44.8098" lon="5.89058">
        <ele>913.3</ele>
        <time>2015-07-25T11:33:27Z</time>
      </trkpt>
      <trkpt lat="44.8098" lon="5.89057">
        <ele>912.5</ele>
        <time>2015-07-25T11:33:32Z</time>
      </trkpt>
      <trkpt lat="44.80981" lon="5.89057">
        <ele>911.6</ele>
        <time>2015-07-25T11:33:37Z</time>
      </trkpt>
      <trkpt lat="44.8098" lon="5.89057">
        <ele>911.2</ele>
        <time>2015-07-25T11:33:42Z</time>
      </trkpt>
      <trkpt lat="44.8098" lon="5.89058">
        <ele>911.2</ele>
        <time>2015-07-25T11:33:47Z</time>
      </trkpt>
      <trkpt lat="44.8098" lon="5.89058">
        <ele>910.8</ele>
        <time>2015-07-25T11:33:52Z</time>
      </trkpt>
      <trkpt lat="44.8098" lon="5.89059">
        <ele>912.1</ele>
        <time>2015-07-25T11:33:57Z</time>
      </trkpt>
      <trkpt lat="44.8098" lon="5.89059">
        <ele>911.9</ele>
        <time>2015-07-25T11:34:02Z</time>
      </trkpt>
      <trkpt lat="44.80979" lon="5.8906">
        <ele>912.1</ele>
        <time>2015-07-25T11:34:07Z</time>
      </trkpt>
      <trkpt lat="44.80979" lon="5.8906">
        <ele>912.6</ele>
        <time>2015-07-25T11:34:12Z</time>
      </trkpt>
      <trkpt lat="44.80979" lon="5.8906">
        <ele>912.3</ele>
        <time>2015-07-25T11:34:17Z</time>
      </trkpt>
      <trkpt lat="44.80978" lon="5.8906">
        <ele>910.9</ele>
        <time>2015-07-25T11:34:22Z</time>
      </trkpt>
      <trkpt lat="44.80978" lon="5.8906">
        <ele>910.8</ele>
        <time>2015-07-25T11:34:27Z</time>
      </trkpt>
      <trkpt lat="44.80978" lon="5.8906">
        <ele>911.1</ele>
        <time>2015-07-25T11:34:32Z</time>
      </trkpt>
      <trkpt lat="44.80977" lon="5.89061">
        <ele>912</ele>
        <time>2015-07-25T11:34:37Z</time>
      </trkpt>
      <trkpt lat="44.80978" lon="5.89062">
        <ele>912.4</ele>
        <time>2015-07-25T11:34:42Z</time>
      </trkpt>
      <trkpt lat="44.80978" lon="5.89062">
        <ele>912.8</ele>
        <time>2015-07-25T11:34:47Z</time>
      </trkpt>
      <trkpt lat="44.80978" lon="5.89062">
        <ele>912.7</ele>
        <time>2015-07-25T11:34:52Z</time>
      </trkpt>
      <trkpt lat="44.80978" lon="5.89061">
        <ele>913.1</ele>
        <time>2015-07-25T11:34:57Z</time>
      </trkpt>
      <trkpt lat="44.80977" lon="5.89061">
        <ele>914.6</ele>
        <time>2015-07-25T11:35:02Z</time>
      </trkpt>
      <trkpt lat="44.80977" lon="5.89062">
        <ele>914.9</ele>
        <time>2015-07-25T11:35:07Z</time>
      </trkpt>
      <trkpt lat="44.80977" lon="5.89062">
        <ele>915</ele>
        <time>2015-07-25T11:35:12Z</time>
      </trkpt>
      <trkpt lat="44.8098" lon="5.89059">
        <ele>914</ele>
        <time>2015-07-25T11:35:17Z</time>
      </trkpt>
      <trkpt lat="44.80985" lon="5.89053">
        <ele>912.2</ele>
        <time>2015-07-25T11:35:22Z</time>
      </trkpt>
      <trkpt lat="44.80989" lon="5.89047">
        <ele>911.2</ele>
        <time>2015-07-25T11:35:27Z</time>
      </trkpt>
      <trkpt lat="44.80991" lon="5.89042">
        <ele>910.9</ele>
        <time>2015-07-25T11:35:32Z</time>
      </trkpt>
      <trkpt lat="44.80995" lon="5.89033">
        <ele>909.8</ele>
        <time>2015-07-25T11:35:37Z</time>
      </trkpt>
      <trkpt lat="44.80999" lon="5.89023">
        <ele>907.9</ele>
        <time>2015-07-25T11:35:42Z</time>
      </trkpt>
      <trkpt lat="44.81001" lon="5.89015">
        <ele>908.3</ele>
        <time>2015-07-25T11:35:47Z</time>
      </trkpt>
      <trkpt lat="44.81007" lon="5.89002">
        <ele>908.7</ele>
        <time>2015-07-25T11:35:52Z</time>
      </trkpt>
      <trkpt lat="44.81012" lon="5.88992">
        <ele>909.7</ele>
        <time>2015-07-25T11:35:57Z</time>
      </trkpt>
      <trkpt lat="44.81014" lon="5.88983">
        <ele>908.4</ele>
        <time>2015-07-25T11:36:02Z</time>
      </trkpt>
      <trkpt lat="44.81016" lon="5.88973">
        <ele>908.4</ele>
        <time>2015-07-25T11:36:07Z</time>
      </trkpt>
      <trkpt lat="44.8102" lon="5.88964">
        <ele>908.1</ele>
        <time>2015-07-25T11:36:12Z</time>
      </trkpt>
      <trkpt lat="44.81024" lon="5.88956">
        <ele>907.5</ele>
        <time>2015-07-25T11:36:17Z</time>
      </trkpt>
      <trkpt lat="44.81028" lon="5.8895">
        <ele>908.2</ele>
        <time>2015-07-25T11:36:22Z</time>
      </trkpt>
      <trkpt lat="44.81033" lon="5.88944">
        <ele>909.5</ele>
        <time>2015-07-25T11:36:27Z</time>
      </trkpt>
      <trkpt lat="44.81038" lon="5.88937">
        <ele>910.5</ele>
        <time>2015-07-25T11:36:32Z</time>
      </trkpt>
      <trkpt lat="44.81043" lon="5.8893">
        <ele>911.9</ele>
        <time>2015-07-25T11:36:37Z</time>
      </trkpt>
      <trkpt lat="44.81047" lon="5.88923">
        <ele>913.4</ele>
        <time>2015-07-25T11:36:42Z</time>
      </trkpt>
      <trkpt lat="44.81052" lon="5.88915">
        <ele>913.2</ele>
        <time>2015-07-25T11:36:47Z</time>
      </trkpt>
      <trkpt lat="44.81055" lon="5.88906">
        <ele>913.1</ele>
        <time>2015-07-25T11:36:52Z</time>
      </trkpt>
      <trkpt lat="44.81057" lon="5.88898">
        <ele>913</ele>
        <time>2015-07-25T11:36:57Z</time>
      </trkpt>
      <trkpt lat="44.81062" lon="5.8889">
        <ele>914.4</ele>
        <time>2015-07-25T11:37:02Z</time>
      </trkpt>
      <trkpt lat="44.81064" lon="5.88886">
        <ele>915.6</ele>
        <time>2015-07-25T11:37:07Z</time>
      </trkpt>
      <trkpt lat="44.81066" lon="5.88881">
        <ele>914.5</ele>
        <time>2015-07-25T11:37:12Z</time>
      </trkpt>
      <trkpt lat="44.81066" lon="5.88881">
        <ele>916.6</ele>
        <time>2015-07-25T11:37:17Z</time>
      </trkpt>
      <trkpt lat="44.81068" lon="5.88881">
        <ele>918.5</ele>
        <time>2015-07-25T11:37:22Z</time>
      </trkpt>
      <trkpt lat="44.81069" lon="5.88879">
        <ele>918.5</ele>
        <time>2015-07-25T11:37:27Z</time>
      </trkpt>
      <trkpt lat="44.81072" lon="5.88874">
        <ele>917.5</ele>
        <time>2015-07-25T11:37:32Z</time>
      </trkpt>
      <trkpt lat="44.81075" lon="5.88869">
        <ele>918.9</ele>
        <time>2015-07-25T11:37:37Z</time>
      </trkpt>
      <trkpt lat="44.8108" lon="5.88864">
        <ele>919.7</ele>
        <time>2015-07-25T11:37:42Z</time>
      </trkpt>
      <trkpt lat="44.81083" lon="5.8886">
        <ele>917.6</ele>
        <time>2015-07-25T11:37:47Z</time>
      </trkpt>
      <trkpt lat="44.81086" lon="5.88855">
        <ele>914.6</ele>
        <time>2015-07-25T11:37:52Z</time>
      </trkpt>
      <trkpt lat="44.8109" lon="5.88847">
        <ele>912.3</ele>
        <time>2015-07-25T11:37:57Z</time>
      </trkpt>
      <trkpt lat="44.81093" lon="5.88839">
        <ele>909.4</ele>
        <time>2015-07-25T11:38:02Z</time>
      </trkpt>
      <trkpt lat="44.81096" lon="5.8883">
        <ele>907.8</ele>
        <time>2015-07-25T11:38:07Z</time>
      </trkpt>
      <trkpt lat="44.811" lon="5.88822">
        <ele>907.8</ele>
        <time>2015-07-25T11:38:12Z</time>
      </trkpt>
      <trkpt lat="44.81103" lon="5.88813">
        <ele>906.7</ele>
        <time>2015-07-25T11:38:17Z</time>
      </trkpt>
      <trkpt lat="44.81105" lon="5.88804">
        <ele>907.4</ele>
        <time>2015-07-25T11:38:22Z</time>
      </trkpt>
      <trkpt lat="44.81108" lon="5.88794">
        <ele>910.2</ele>
        <time>2015-07-25T11:38:27Z</time>
      </trkpt>
      <trkpt lat="44.8111" lon="5.88786">
        <ele>911.3</ele>
        <time>2015-07-25T11:38:32Z</time>
      </trkpt>
      <trkpt lat="44.81112" lon="5.88775">
        <ele>911.8</ele>
        <time>2015-07-25T11:38:37Z</time>
      </trkpt>
      <trkpt lat="44.81113" lon="5.88763">
        <ele>911</ele>
        <time>2015-07-25T11:38:42Z</time>
      </trkpt>
      <trkpt lat="44.81114" lon="5.88752">
        <ele>910.8</ele>
        <time>2015-07-25T11:38:47Z</time>
      </trkpt>
      <trkpt lat="44.81112" lon="5.88741">
        <ele>907.7</ele>
        <time>2015-07-25T11:38:52Z</time>
      </trkpt>
      <trkpt lat="44.81114" lon="5.88731">
        <ele>905.2</ele>
        <time>2015-07-25T11:38:57Z</time>
      </trkpt>
      <trkpt lat="44.81115" lon="5.88722">
        <ele>904.4</ele>
        <time>2015-07-25T11:39:02Z</time>
      </trkpt>
      <trkpt lat="44.81117" lon="5.88711">
        <ele>903.3</ele>
        <time>2015-07-25T11:39:07Z</time>
      </trkpt>
      <trkpt lat="44.81117" lon="5.88702">
        <ele>901.2</ele>
        <time>2015-07-25T11:39:12Z</time>
      </trkpt>
      <trkpt lat="44.81118" lon="5.88692">
        <ele>898.6</ele>
        <time>2015-07-25T11:39:17Z</time>
      </trkpt>
      <trkpt lat="44.81122" lon="5.88683">
        <ele>900.4</ele>
        <time>2015-07-25T11:39:22Z</time>
      </trkpt>
      <trkpt lat="44.81125" lon="5.88674">
        <ele>900.7</ele>
        <time>2015-07-25T11:39:27Z</time>
      </trkpt>
      <trkpt lat="44.81126" lon="5.88664">
        <ele>900</ele>
        <time>2015-07-25T11:39:32Z</time>
      </trkpt>
      <trkpt lat="44.81127" lon="5.8866">
        <ele>901.6</ele>
        <time>2015-07-25T11:39:37Z</time>
      </trkpt>
      <trkpt lat="44.81129" lon="5.88654">
        <ele>902.2</ele>
        <time>2015-07-25T11:39:42Z</time>
      </trkpt>
      <trkpt lat="44.81131" lon="5.88645">
        <ele>901.9</ele>
        <time>2015-07-25T11:39:47Z</time>
      </trkpt>
      <trkpt lat="44.81131" lon="5.88637">
        <ele>902.7</ele>
        <time>2015-07-25T11:39:52Z</time>
      </trkpt>
      <trkpt lat="44.81131" lon="5.88629">
        <ele>903</ele>
        <time>2015-07-25T11:39:57Z</time>
      </trkpt>
      <trkpt lat="44.81131" lon="5.88621">
        <ele>903.6</ele>
        <time>2015-07-25T11:40:02Z</time>
      </trkpt>
      <trkpt lat="44.81134" lon="5.88611">
        <ele>904.3</ele>
        <time>2015-07-25T11:40:07Z</time>
      </trkpt>
      <trkpt lat="44.81135" lon="5.88602">
        <ele>905.5</ele>
        <time>2015-07-25T11:40:12Z</time>
      </trkpt>
      <trkpt lat="44.81136" lon="5.88594">
        <ele>906.4</ele>
        <time>2015-07-25T11:40:17Z</time>
      </trkpt>
      <trkpt lat="44.81135" lon="5.88592">
        <ele>906.2</ele>
        <time>2015-07-25T11:40:22Z</time>
      </trkpt>
      <trkpt lat="44.81136" lon="5.88585">
        <ele>906.8</ele>
        <time>2015-07-25T11:40:27Z</time>
      </trkpt>
      <trkpt lat="44.81137" lon="5.88577">
        <ele>907.9</ele>
        <time>2015-07-25T11:40:32Z</time>
      </trkpt>
      <trkpt lat="44.81138" lon="5.88569">
        <ele>909</ele>
        <time>2015-07-25T11:40:37Z</time>
      </trkpt>
      <trkpt lat="44.81139" lon="5.88561">
        <ele>909.4</ele>
        <time>2015-07-25T11:40:42Z</time>
      </trkpt>
      <trkpt lat="44.8114" lon="5.88552">
        <ele>910.6</ele>
        <time>2015-07-25T11:40:47Z</time>
      </trkpt>
      <trkpt lat="44.8114" lon="5.88544">
        <ele>911.2</ele>
        <time>2015-07-25T11:40:52Z</time>
      </trkpt>
      <trkpt lat="44.81141" lon="5.88536">
        <ele>912</ele>
        <time>2015-07-25T11:40:57Z</time>
      </trkpt>
      <trkpt lat="44.81141" lon="5.88526">
        <ele>910.4</ele>
        <time>2015-07-25T11:41:02Z</time>
      </trkpt>
      <trkpt lat="44.8114" lon="5.88517">
        <ele>909.9</ele>
        <time>2015-07-25T11:41:07Z</time>
      </trkpt>
      <trkpt lat="44.8114" lon="5.88509">
        <ele>909.9</ele>
        <time>2015-07-25T11:41:12Z</time>
      </trkpt>
      <trkpt lat="44.8114" lon="5.88501">
        <ele>910.3</ele>
        <time>2015-07-25T11:41:17Z</time>
      </trkpt>
      <trkpt lat="44.8114" lon="5.88496">
        <ele>911.4</ele>
        <time>2015-07-25T11:41:22Z</time>
      </trkpt>
      <trkpt lat="44.81141" lon="5.88487">
        <ele>912.6</ele>
        <time>2015-07-25T11:41:27Z</time>
      </trkpt>
      <trkpt lat="44.81141" lon="5.88478">
        <ele>912.6</ele>
        <time>2015-07-25T11:41:32Z</time>
      </trkpt>
      <trkpt lat="44.81141" lon="5.8847">
        <ele>912.8</ele>
        <time>2015-07-25T11:41:37Z</time>
      </trkpt>
      <trkpt lat="44.8114" lon="5.88461">
        <ele>913.3</ele>
        <time>2015-07-25T11:41:42Z</time>
      </trkpt>
      <trkpt lat="44.81141" lon="5.88454">
        <ele>913.1</ele>
        <time>2015-07-25T11:41:47Z</time>
      </trkpt>
      <trkpt lat="44.81143" lon="5.88446">
        <ele>913.2</ele>
        <time>2015-07-25T11:41:52Z</time>
      </trkpt>
      <trkpt lat="44.81146" lon="5.88438">
        <ele>912.8</ele>
        <time>2015-07-25T11:41:57Z</time>
      </trkpt>
      <trkpt lat="44.8115" lon="5.88431">
        <ele>912.6</ele>
        <time>2015-07-25T11:42:02Z</time>
      </trkpt>
      <trkpt lat="44.81154" lon="5.88424">
        <ele>912.7</ele>
        <time>2015-07-25T11:42:07Z</time>
      </trkpt>
      <trkpt lat="44.81157" lon="5.88416">
        <ele>912.9</ele>
        <time>2015-07-25T11:42:12Z</time>
      </trkpt>
      <trkpt lat="44.81161" lon="5.88408">
        <ele>913.2</ele>
        <time>2015-07-25T11:42:17Z</time>
      </trkpt>
      <trkpt lat="44.81164" lon="5.884">
        <ele>913.2</ele>
        <time>2015-07-25T11:42:22Z</time>
      </trkpt>
      <trkpt lat="44.81168" lon="5.88391">
        <ele>913</ele>
        <time>2015-07-25T11:42:27Z</time>
      </trkpt>
      <trkpt lat="44.81171" lon="5.88383">
        <ele>912.9</ele>
        <time>2015-07-25T11:42:32Z</time>
      </trkpt>
      <trkpt lat="44.81174" lon="5.88374">
        <ele>913.2</ele>
        <time>2015-07-25T11:42:37Z</time>
      </trkpt>
      <trkpt lat="44.81178" lon="5.88366">
        <ele>914.3</ele>
        <time>2015-07-25T11:42:42Z</time>
      </trkpt>
      <trkpt lat="44.8118" lon="5.88358">
        <ele>914.3</ele>
        <time>2015-07-25T11:42:47Z</time>
      </trkpt>
      <trkpt lat="44.81182" lon="5.8835">
        <ele>914.5</ele>
        <time>2015-07-25T11:42:52Z</time>
      </trkpt>
      <trkpt lat="44.81185" lon="5.88341">
        <ele>915.2</ele>
        <time>2015-07-25T11:42:57Z</time>
      </trkpt>
      <trkpt lat="44.81187" lon="5.88332">
        <ele>915.6</ele>
        <time>2015-07-25T11:43:02Z</time>
      </trkpt>
      <trkpt lat="44.81189" lon="5.88323">
        <ele>916</ele>
        <time>2015-07-25T11:43:07Z</time>
      </trkpt>
      <trkpt lat="44.81191" lon="5.88314">
        <ele>916</ele>
        <time>2015-07-25T11:43:12Z</time>
      </trkpt>
      <trkpt lat="44.81193" lon="5.88306">
        <ele>915.8</ele>
        <time>2015-07-25T11:43:17Z</time>
      </trkpt>
      <trkpt lat="44.81196" lon="5.88298">
        <ele>915.7</ele>
        <time>2015-07-25T11:43:22Z</time>
      </trkpt>
      <trkpt lat="44.81198" lon="5.88289">
        <ele>915.6</ele>
        <time>2015-07-25T11:43:27Z</time>
      </trkpt>
      <trkpt lat="44.812" lon="5.8828">
        <ele>915.8</ele>
        <time>2015-07-25T11:43:32Z</time>
      </trkpt>
      <trkpt lat="44.81202" lon="5.88272">
        <ele>915.7</ele>
        <time>2015-07-25T11:43:37Z</time>
      </trkpt>
      <trkpt lat="44.81204" lon="5.88264">
        <ele>915.5</ele>
        <time>2015-07-25T11:43:42Z</time>
      </trkpt>
      <trkpt lat="44.81205" lon="5.88255">
        <ele>915.5</ele>
        <time>2015-07-25T11:43:47Z</time>
      </trkpt>
      <trkpt lat="44.81207" lon="5.88246">
        <ele>915.4</ele>
        <time>2015-07-25T11:43:52Z</time>
      </trkpt>
      <trkpt lat="44.81209" lon="5.88239">
        <ele>915.3</ele>
        <time>2015-07-25T11:43:57Z</time>
      </trkpt>
      <trkpt lat="44.8121" lon="5.8823">
        <ele>915.2</ele>
        <time>2015-07-25T11:44:02Z</time>
      </trkpt>
      <trkpt lat="44.81213" lon="5.88221">
        <ele>915.3</ele>
        <time>2015-07-25T11:44:07Z</time>
      </trkpt>
      <trkpt lat="44.81215" lon="5.88213">
        <ele>915.3</ele>
        <time>2015-07-25T11:44:12Z</time>
      </trkpt>
      <trkpt lat="44.81217" lon="5.88204">
        <ele>915.4</ele>
        <time>2015-07-25T11:44:17Z</time>
      </trkpt>
      <trkpt lat="44.81219" lon="5.88196">
        <ele>915.3</ele>
        <time>2015-07-25T11:44:22Z</time>
      </trkpt>
      <trkpt lat="44.81222" lon="5.88188">
        <ele>915.7</ele>
        <time>2015-07-25T11:44:27Z</time>
      </trkpt>
      <trkpt lat="44.81224" lon="5.88179">
        <ele>915.4</ele>
        <time>2015-07-25T11:44:32Z</time>
      </trkpt>
      <trkpt lat="44.81225" lon="5.8817">
        <ele>915.3</ele>
        <time>2015-07-25T11:44:37Z</time>
      </trkpt>
      <trkpt lat="44.81228" lon="5.88161">
        <ele>916.4</ele>
        <time>2015-07-25T11:44:42Z</time>
      </trkpt>
      <trkpt lat="44.81229" lon="5.88153">
        <ele>915.8</ele>
        <time>2015-07-25T11:44:47Z</time>
      </trkpt>
      <trkpt lat="44.81229" lon="5.88144">
        <ele>915.8</ele>
        <time>2015-07-25T11:44:52Z</time>
      </trkpt>
      <trkpt lat="44.8123" lon="5.88136">
        <ele>915.3</ele>
        <time>2015-07-25T11:44:57Z</time>
      </trkpt>
      <trkpt lat="44.81231" lon="5.88128">
        <ele>913.7</ele>
        <time>2015-07-25T11:45:02Z</time>
      </trkpt>
      <trkpt lat="44.81233" lon="5.8812">
        <ele>912.5</ele>
        <time>2015-07-25T11:45:07Z</time>
      </trkpt>
      <trkpt lat="44.81235" lon="5.8811">
        <ele>912.2</ele>
        <time>2015-07-25T11:45:12Z</time>
      </trkpt>
      <trkpt lat="44.81237" lon="5.88102">
        <ele>914.4</ele>
        <time>2015-07-25T11:45:17Z</time>
      </trkpt>
      <trkpt lat="44.81235" lon="5.88093">
        <ele>914.8</ele>
        <time>2015-07-25T11:45:22Z</time>
      </trkpt>
      <trkpt lat="44.81234" lon="5.88086">
        <ele>913.5</ele>
        <time>2015-07-25T11:45:27Z</time>
      </trkpt>
      <trkpt lat="44.81231" lon="5.88083">
        <ele>911.5</ele>
        <time>2015-07-25T11:45:32Z</time>
      </trkpt>
      <trkpt lat="44.8123" lon="5.88081">
        <ele>913.1</ele>
        <time>2015-07-25T11:45:37Z</time>
      </trkpt>
      <trkpt lat="44.81229" lon="5.88079">
        <ele>913.7</ele>
        <time>2015-07-25T11:45:42Z</time>
      </trkpt>
      <trkpt lat="44.81229" lon="5.88079">
        <ele>915.5</ele>
        <time>2015-07-25T11:45:47Z</time>
      </trkpt>
      <trkpt lat="44.81228" lon="5.88077">
        <ele>915.8</ele>
        <time>2015-07-25T11:45:52Z</time>
      </trkpt>
      <trkpt lat="44.81228" lon="5.88077">
        <ele>917.7</ele>
        <time>2015-07-25T11:45:57Z</time>
      </trkpt>
      <trkpt lat="44.81228" lon="5.88076">
        <ele>917.9</ele>
        <time>2015-07-25T11:46:02Z</time>
      </trkpt>
      <trkpt lat="44.81227" lon="5.88076">
        <ele>918.2</ele>
        <time>2015-07-25T11:46:07Z</time>
      </trkpt>
      <trkpt lat="44.81227" lon="5.88075">
        <ele>919.5</ele>
        <time>2015-07-25T11:46:12Z</time>
      </trkpt>
      <trkpt lat="44.81227" lon="5.88076">
        <ele>920.1</ele>
        <time>2015-07-25T11:46:17Z</time>
      </trkpt>
      <trkpt lat="44.81227" lon="5.88077">
        <ele>920.7</ele>
        <time>2015-07-25T11:46:22Z</time>
      </trkpt>
      <trkpt lat="44.81226" lon="5.88076">
        <ele>920.9</ele>
        <time>2015-07-25T11:46:27Z</time>
      </trkpt>
      <trkpt lat="44.81226" lon="5.88076">
        <ele>920.7</ele>
        <time>2015-07-25T11:46:32Z</time>
      </trkpt>
      <trkpt lat="44.81226" lon="5.88076">
        <ele>920.2</ele>
        <time>2015-07-25T11:46:37Z</time>
      </trkpt>
      <trkpt lat="44.81226" lon="5.88076">
        <ele>919.5</ele>
        <time>2015-07-25T11:46:42Z</time>
      </trkpt>
      <trkpt lat="44.81226" lon="5.88076">
        <ele>919.2</ele>
        <time>2015-07-25T11:46:47Z</time>
      </trkpt>
      <trkpt lat="44.81226" lon="5.88076">
        <ele>918.9</ele>
        <time>2015-07-25T11:46:52Z</time>
      </trkpt>
      <trkpt lat="44.81226" lon="5.88076">
        <ele>916.3</ele>
        <time>2015-07-25T11:46:57Z</time>
      </trkpt>
      <trkpt lat="44.81228" lon="5.88079">
        <ele>915.5</ele>
        <time>2015-07-25T11:47:02Z</time>
      </trkpt>
      <trkpt lat="44.81229" lon="5.88074">
        <ele>916.5</ele>
        <time>2015-07-25T11:47:07Z</time>
      </trkpt>
      <trkpt lat="44.81229" lon="5.88073">
        <ele>916.4</ele>
        <time>2015-07-25T11:47:12Z</time>
      </trkpt>
      <trkpt lat="44.8123" lon="5.88074">
        <ele>916.2</ele>
        <time>2015-07-25T11:47:17Z</time>
      </trkpt>
      <trkpt lat="44.81231" lon="5.88074">
        <ele>916.6</ele>
        <time>2015-07-25T11:47:22Z</time>
      </trkpt>
      <trkpt lat="44.81231" lon="5.88073">
        <ele>915.9</ele>
        <time>2015-07-25T11:47:27Z</time>
      </trkpt>
      <trkpt lat="44.8123" lon="5.88072">
        <ele>915.4</ele>
        <time>2015-07-25T11:47:32Z</time>
      </trkpt>
      <trkpt lat="44.8123" lon="5.88066">
        <ele>914.9</ele>
        <time>2015-07-25T11:47:37Z</time>
      </trkpt>
      <trkpt lat="44.81229" lon="5.88059">
        <ele>913.8</ele>
        <time>2015-07-25T11:47:42Z</time>
      </trkpt>
      <trkpt lat="44.81229" lon="5.88052">
        <ele>912.9</ele>
        <time>2015-07-25T11:47:47Z</time>
      </trkpt>
      <trkpt lat="44.81231" lon="5.88045">
        <ele>912.4</ele>
        <time>2015-07-25T11:47:52Z</time>
      </trkpt>
      <trkpt lat="44.81233" lon="5.88038">
        <ele>912.5</ele>
        <time>2015-07-25T11:47:57Z</time>
      </trkpt>
      <trkpt lat="44.81233" lon="5.8803">
        <ele>912.5</ele>
        <time>2015-07-25T11:48:02Z</time>
      </trkpt>
      <trkpt lat="44.81236" lon="5.88023">
        <ele>912.8</ele>
        <time>2015-07-25T11:48:07Z</time>
      </trkpt>
      <trkpt lat="44.8124" lon="5.88019">
        <ele>913.7</ele>
        <time>2015-07-25T11:48:12Z</time>
      </trkpt>
      <trkpt lat="44.81244" lon="5.88016">
        <ele>913.8</ele>
        <time>2015-07-25T11:48:17Z</time>
      </trkpt>
      <trkpt lat="44.81247" lon="5.88013">
        <ele>912.9</ele>
        <time>2015-07-25T11:48:22Z</time>
      </trkpt>
      <trkpt lat="44.81248" lon="5.88009">
        <ele>912.6</ele>
        <time>2015-07-25T11:48:27Z</time>
      </trkpt>
      <trkpt lat="44.81247" lon="5.88007">
        <ele>911.7</ele>
        <time>2015-07-25T11:48:32Z</time>
      </trkpt>
      <trkpt lat="44.81249" lon="5.88007">
        <ele>914.3</ele>
        <time>2015-07-25T11:48:37Z</time>
      </trkpt>
      <trkpt lat="44.81247" lon="5.88009">
        <ele>915</ele>
        <time>2015-07-25T11:48:42Z</time>
      </trkpt>
      <trkpt lat="44.81246" lon="5.88006">
        <ele>912</ele>
        <time>2015-07-25T11:48:47Z</time>
      </trkpt>
      <trkpt lat="44.81249" lon="5.88003">
        <ele>911.1</ele>
        <time>2015-07-25T11:48:52Z</time>
      </trkpt>
      <trkpt lat="44.81252" lon="5.87998">
        <ele>908.5</ele>
        <time>2015-07-25T11:48:57Z</time>
      </trkpt>
      <trkpt lat="44.81252" lon="5.87991">
        <ele>905.5</ele>
        <time>2015-07-25T11:49:02Z</time>
      </trkpt>
      <trkpt lat="44.81252" lon="5.87983">
        <ele>904.4</ele>
        <time>2015-07-25T11:49:07Z</time>
      </trkpt>
      <trkpt lat="44.81251" lon="5.87974">
        <ele>902.4</ele>
        <time>2015-07-25T11:49:12Z</time>
      </trkpt>
      <trkpt lat="44.81247" lon="5.87967">
        <ele>900.7</ele>
        <time>2015-07-25T11:49:17Z</time>
      </trkpt>
      <trkpt lat="44.81244" lon="5.87959">
        <ele>902.5</ele>
        <time>2015-07-25T11:49:22Z</time>
      </trkpt>
      <trkpt lat="44.81241" lon="5.87953">
        <ele>904.2</ele>
        <time>2015-07-25T11:49:27Z</time>
      </trkpt>
      <trkpt lat="44.81236" lon="5.87949">
        <ele>903.1</ele>
        <time>2015-07-25T11:49:32Z</time>
      </trkpt>
      <trkpt lat="44.81234" lon="5.87943">
        <ele>901.4</ele>
        <time>2015-07-25T11:49:37Z</time>
      </trkpt>
      <trkpt lat="44.81235" lon="5.87942">
        <ele>905.2</ele>
        <time>2015-07-25T11:49:42Z</time>
      </trkpt>
      <trkpt lat="44.81235" lon="5.87938">
        <ele>905.9</ele>
        <time>2015-07-25T11:49:47Z</time>
      </trkpt>
      <trkpt lat="44.81235" lon="5.87934">
        <ele>907.7</ele>
        <time>2015-07-25T11:49:52Z</time>
      </trkpt>
      <trkpt lat="44.81233" lon="5.87934">
        <ele>907.6</ele>
        <time>2015-07-25T11:49:57Z</time>
      </trkpt>
      <trkpt lat="44.81232" lon="5.87935">
        <ele>905.7</ele>
        <time>2015-07-25T11:50:02Z</time>
      </trkpt>
      <trkpt lat="44.81231" lon="5.87935">
        <ele>905.3</ele>
        <time>2015-07-25T11:50:07Z</time>
      </trkpt>
      <trkpt lat="44.81232" lon="5.87935">
        <ele>906.1</ele>
        <time>2015-07-25T11:50:12Z</time>
      </trkpt>
      <trkpt lat="44.81231" lon="5.87935">
        <ele>906.2</ele>
        <time>2015-07-25T11:50:17Z</time>
      </trkpt>
      <trkpt lat="44.81228" lon="5.87932">
        <ele>904.9</ele>
        <time>2015-07-25T11:50:22Z</time>
      </trkpt>
      <trkpt lat="44.81228" lon="5.87929">
        <ele>904.9</ele>
        <time>2015-07-25T11:50:27Z</time>
      </trkpt>
      <trkpt lat="44.81226" lon="5.87926">
        <ele>903.8</ele>
        <time>2015-07-25T11:50:32Z</time>
      </trkpt>
      <trkpt lat="44.81227" lon="5.87919">
        <ele>901.5</ele>
        <time>2015-07-25T11:50:37Z</time>
      </trkpt>
      <trkpt lat="44.81226" lon="5.87916">
        <ele>901.2</ele>
        <time>2015-07-25T11:50:42Z</time>
      </trkpt>
      <trkpt lat="44.81227" lon="5.87911">
        <ele>898.3</ele>
        <time>2015-07-25T11:50:47Z</time>
      </trkpt>
      <trkpt lat="44.81229" lon="5.87902">
        <ele>894.4</ele>
        <time>2015-07-25T11:50:52Z</time>
      </trkpt>
      <trkpt lat="44.81233" lon="5.87897">
        <ele>895.3</ele>
        <time>2015-07-25T11:50:57Z</time>
      </trkpt>
      <trkpt lat="44.81235" lon="5.87894">
        <ele>893.9</ele>
        <time>2015-07-25T11:51:02Z</time>
      </trkpt>
      <trkpt lat="44.81237" lon="5.87891">
        <ele>893.7</ele>
        <time>2015-07-25T11:51:07Z</time>
      </trkpt>
      <trkpt lat="44.81237" lon="5.87885">
        <ele>893.3</ele>
        <time>2015-07-25T11:51:12Z</time>
      </trkpt>
      <trkpt lat="44.81239" lon="5.87881">
        <ele>893.5</ele>
        <time>2015-07-25T11:51:17Z</time>
      </trkpt>
      <trkpt lat="44.81242" lon="5.87876">
        <ele>893.5</ele>
        <time>2015-07-25T11:51:22Z</time>
      </trkpt>
      <trkpt lat="44.81242" lon="5.87869">
        <ele>891.4</ele>
        <time>2015-07-25T11:51:27Z</time>
      </trkpt>
      <trkpt lat="44.81243" lon="5.87864">
        <ele>890.1</ele>
        <time>2015-07-25T11:51:32Z</time>
      </trkpt>
      <trkpt lat="44.81243" lon="5.87861">
        <ele>888.8</ele>
        <time>2015-07-25T11:51:37Z</time>
      </trkpt>
      <trkpt lat="44.81245" lon="5.87854">
        <ele>887.5</ele>
        <time>2015-07-25T11:51:42Z</time>
      </trkpt>
      <trkpt lat="44.81245" lon="5.8785">
        <ele>886.4</ele>
        <time>2015-07-25T11:51:47Z</time>
      </trkpt>
      <trkpt lat="44.8125" lon="5.87844">
        <ele>887.3</ele>
        <time>2015-07-25T11:51:52Z</time>
      </trkpt>
      <trkpt lat="44.81251" lon="5.87838">
        <ele>885.3</ele>
        <time>2015-07-25T11:51:57Z</time>
      </trkpt>
      <trkpt lat="44.81254" lon="5.87833">
        <ele>883.9</ele>
        <time>2015-07-25T11:52:02Z</time>
      </trkpt>
      <trkpt lat="44.81256" lon="5.87827">
        <ele>882.3</ele>
        <time>2015-07-25T11:52:07Z</time>
      </trkpt>
      <trkpt lat="44.81259" lon="5.87821">
        <ele>882.3</ele>
        <time>2015-07-25T11:52:12Z</time>
      </trkpt>
      <trkpt lat="44.8126" lon="5.87815">
        <ele>880.4</ele>
        <time>2015-07-25T11:52:17Z</time>
      </trkpt>
      <trkpt lat="44.81263" lon="5.87808">
        <ele>878.5</ele>
        <time>2015-07-25T11:52:22Z</time>
      </trkpt>
      <trkpt lat="44.81265" lon="5.87799">
        <ele>876.5</ele>
        <time>2015-07-25T11:52:27Z</time>
      </trkpt>
      <trkpt lat="44.81267" lon="5.87791">
        <ele>875.8</ele>
        <time>2015-07-25T11:52:32Z</time>
      </trkpt>
      <trkpt lat="44.81271" lon="5.87784">
        <ele>876.2</ele>
        <time>2015-07-25T11:52:37Z</time>
      </trkpt>
      <trkpt lat="44.81275" lon="5.87776">
        <ele>876.8</ele>
        <time>2015-07-25T11:52:42Z</time>
      </trkpt>
      <trkpt lat="44.81276" lon="5.87767">
        <ele>874.3</ele>
        <time>2015-07-25T11:52:47Z</time>
      </trkpt>
      <trkpt lat="44.81278" lon="5.87758">
        <ele>872.2</ele>
        <time>2015-07-25T11:52:52Z</time>
      </trkpt>
      <trkpt lat="44.81283" lon="5.87749">
        <ele>873.5</ele>
        <time>2015-07-25T11:52:57Z</time>
      </trkpt>
      <trkpt lat="44.81287" lon="5.8774">
        <ele>873.2</ele>
        <time>2015-07-25T11:53:02Z</time>
      </trkpt>
      <trkpt lat="44.81289" lon="5.87734">
        <ele>872.3</ele>
        <time>2015-07-25T11:53:07Z</time>
      </trkpt>
      <trkpt lat="44.81291" lon="5.87726">
        <ele>870.7</ele>
        <time>2015-07-25T11:53:12Z</time>
      </trkpt>
      <trkpt lat="44.81292" lon="5.87718">
        <ele>869.1</ele>
        <time>2015-07-25T11:53:17Z</time>
      </trkpt>
      <trkpt lat="44.81296" lon="5.87709">
        <ele>868.8</ele>
        <time>2015-07-25T11:53:22Z</time>
      </trkpt>
      <trkpt lat="44.813" lon="5.877">
        <ele>870.6</ele>
        <time>2015-07-25T11:53:27Z</time>
      </trkpt>
      <trkpt lat="44.81302" lon="5.87691">
        <ele>870.3</ele>
        <time>2015-07-25T11:53:32Z</time>
      </trkpt>
      <trkpt lat="44.81302" lon="5.87683">
        <ele>868.1</ele>
        <time>2015-07-25T11:53:37Z</time>
      </trkpt>
      <trkpt lat="44.81299" lon="5.87676">
        <ele>863.4</ele>
        <time>2015-07-25T11:53:42Z</time>
      </trkpt>
      <trkpt lat="44.81296" lon="5.87668">
        <ele>861.5</ele>
        <time>2015-07-25T11:53:47Z</time>
      </trkpt>
      <trkpt lat="44.81293" lon="5.87661">
        <ele>859.4</ele>
        <time>2015-07-25T11:53:52Z</time>
      </trkpt>
      <trkpt lat="44.81291" lon="5.87655">
        <ele>856.5</ele>
        <time>2015-07-25T11:53:57Z</time>
      </trkpt>
      <trkpt lat="44.8129" lon="5.8765">
        <ele>855</ele>
        <time>2015-07-25T11:54:02Z</time>
      </trkpt>
      <trkpt lat="44.81286" lon="5.87642">
        <ele>850.9</ele>
        <time>2015-07-25T11:54:07Z</time>
      </trkpt>
      <trkpt lat="44.81284" lon="5.87634">
        <ele>849.7</ele>
        <time>2015-07-25T11:54:12Z</time>
      </trkpt>
      <trkpt lat="44.81284" lon="5.87623">
        <ele>850.2</ele>
        <time>2015-07-25T11:54:17Z</time>
      </trkpt>
      <trkpt lat="44.81284" lon="5.87613">
        <ele>851.8</ele>
        <time>2015-07-25T11:54:22Z</time>
      </trkpt>
      <trkpt lat="44.81287" lon="5.87603">
        <ele>854.3</ele>
        <time>2015-07-25T11:54:27Z</time>
      </trkpt>
      <trkpt lat="44.81288" lon="5.87594">
        <ele>855</ele>
        <time>2015-07-25T11:54:32Z</time>
      </trkpt>
      <trkpt lat="44.81289" lon="5.87588">
        <ele>855.1</ele>
        <time>2015-07-25T11:54:37Z</time>
      </trkpt>
      <trkpt lat="44.81291" lon="5.87586">
        <ele>856.3</ele>
        <time>2015-07-25T11:54:42Z</time>
      </trkpt>
      <trkpt lat="44.8129" lon="5.87583">
        <ele>857.4</ele>
        <time>2015-07-25T11:54:47Z</time>
      </trkpt>
      <trkpt lat="44.81289" lon="5.87575">
        <ele>858.2</ele>
        <time>2015-07-25T11:54:52Z</time>
      </trkpt>
      <trkpt lat="44.81286" lon="5.87565">
        <ele>857.2</ele>
        <time>2015-07-25T11:54:57Z</time>
      </trkpt>
      <trkpt lat="44.81281" lon="5.87559">
        <ele>854.8</ele>
        <time>2015-07-25T11:55:02Z</time>
      </trkpt>
      <trkpt lat="44.81275" lon="5.87554">
        <ele>851.7</ele>
        <time>2015-07-25T11:55:07Z</time>
      </trkpt>
      <trkpt lat="44.81273" lon="5.87548">
        <ele>850.2</ele>
        <time>2015-07-25T11:55:12Z</time>
      </trkpt>
      <trkpt lat="44.8127" lon="5.8754">
        <ele>849.5</ele>
        <time>2015-07-25T11:55:17Z</time>
      </trkpt>
      <trkpt lat="44.81267" lon="5.87534">
        <ele>843.7</ele>
        <time>2015-07-25T11:55:22Z</time>
      </trkpt>
      <trkpt lat="44.81263" lon="5.87528">
        <ele>840.8</ele>
        <time>2015-07-25T11:55:27Z</time>
      </trkpt>
      <trkpt lat="44.81261" lon="5.87518">
        <ele>838.5</ele>
        <time>2015-07-25T11:55:32Z</time>
      </trkpt>
      <trkpt lat="44.81258" lon="5.87511">
        <ele>837.2</ele>
        <time>2015-07-25T11:55:37Z</time>
      </trkpt>
      <trkpt lat="44.81257" lon="5.87502">
        <ele>836.6</ele>
        <time>2015-07-25T11:55:42Z</time>
      </trkpt>
      <trkpt lat="44.81257" lon="5.87496">
        <ele>841.4</ele>
        <time>2015-07-25T11:55:47Z</time>
      </trkpt>
      <trkpt lat="44.81258" lon="5.87489">
        <ele>844</ele>
        <time>2015-07-25T11:55:52Z</time>
      </trkpt>
      <trkpt lat="44.81257" lon="5.87482">
        <ele>846.6</ele>
        <time>2015-07-25T11:55:57Z</time>
      </trkpt>
      <trkpt lat="44.81258" lon="5.87473">
        <ele>848.9</ele>
        <time>2015-07-25T11:56:02Z</time>
      </trkpt>
      <trkpt lat="44.81255" lon="5.87464">
        <ele>849.9</ele>
        <time>2015-07-25T11:56:07Z</time>
      </trkpt>
      <trkpt lat="44.81255" lon="5.87456">
        <ele>851.6</ele>
        <time>2015-07-25T11:56:12Z</time>
      </trkpt>
      <trkpt lat="44.81257" lon="5.87445">
        <ele>852.8</ele>
        <time>2015-07-25T11:56:17Z</time>
      </trkpt>
      <trkpt lat="44.81255" lon="5.87435">
        <ele>853.2</ele>
        <time>2015-07-25T11:56:22Z</time>
      </trkpt>
      <trkpt lat="44.81252" lon="5.87425">
        <ele>855.6</ele>
        <time>2015-07-25T11:56:27Z</time>
      </trkpt>
      <trkpt lat="44.81255" lon="5.87422">
        <ele>862.4</ele>
        <time>2015-07-25T11:56:32Z</time>
      </trkpt>
      <trkpt lat="44.81252" lon="5.87418">
        <ele>863.1</ele>
        <time>2015-07-25T11:56:37Z</time>
      </trkpt>
      <trkpt lat="44.81248" lon="5.8741">
        <ele>862.4</ele>
        <time>2015-07-25T11:56:42Z</time>
      </trkpt>
      <trkpt lat="44.81246" lon="5.87401">
        <ele>863.7</ele>
        <time>2015-07-25T11:56:47Z</time>
      </trkpt>
      <trkpt lat="44.81244" lon="5.87395">
        <ele>864.9</ele>
        <time>2015-07-25T11:56:52Z</time>
      </trkpt>
      <trkpt lat="44.81242" lon="5.87385">
        <ele>866.4</ele>
        <time>2015-07-25T11:56:57Z</time>
      </trkpt>
      <trkpt lat="44.81237" lon="5.87378">
        <ele>865.6</ele>
        <time>2015-07-25T11:57:02Z</time>
      </trkpt>
      <trkpt lat="44.81232" lon="5.8737">
        <ele>864.5</ele>
        <time>2015-07-25T11:57:07Z</time>
      </trkpt>
      <trkpt lat="44.81232" lon="5.87364">
        <ele>873.7</ele>
        <time>2015-07-25T11:57:12Z</time>
      </trkpt>
      <trkpt lat="44.81231" lon="5.87356">
        <ele>877.7</ele>
        <time>2015-07-25T11:57:17Z</time>
      </trkpt>
      <trkpt lat="44.81228" lon="5.87348">
        <ele>877.2</ele>
        <time>2015-07-25T11:57:22Z</time>
      </trkpt>
      <trkpt lat="44.81221" lon="5.87342">
        <ele>866.2</ele>
        <time>2015-07-25T11:57:27Z</time>
      </trkpt>
      <trkpt lat="44.81215" lon="5.87338">
        <ele>857.4</ele>
        <time>2015-07-25T11:57:32Z</time>
      </trkpt>
      <trkpt lat="44.8121" lon="5.87327">
        <ele>851.1</ele>
        <time>2015-07-25T11:57:37Z</time>
      </trkpt>
      <trkpt lat="44.8121" lon="5.87317">
        <ele>849.7</ele>
        <time>2015-07-25T11:57:42Z</time>
      </trkpt>
      <trkpt lat="44.8121" lon="5.87314">
        <ele>852.4</ele>
        <time>2015-07-25T11:57:47Z</time>
      </trkpt>
      <trkpt lat="44.81215" lon="5.87313">
        <ele>855.5</ele>
        <time>2015-07-25T11:57:52Z</time>
      </trkpt>
      <trkpt lat="44.81214" lon="5.87312">
        <ele>854</ele>
        <time>2015-07-25T11:57:57Z</time>
      </trkpt>
      <trkpt lat="44.81216" lon="5.8732">
        <ele>853.9</ele>
        <time>2015-07-25T11:58:02Z</time>
      </trkpt>
      <trkpt lat="44.81218" lon="5.87324">
        <ele>854.3</ele>
        <time>2015-07-25T11:58:07Z</time>
      </trkpt>
      <trkpt lat="44.81221" lon="5.87328">
        <ele>852.9</ele>
        <time>2015-07-25T11:58:12Z</time>
      </trkpt>
      <trkpt lat="44.81226" lon="5.87331">
        <ele>851.5</ele>
        <time>2015-07-25T11:58:17Z</time>
      </trkpt>
      <trkpt lat="44.81231" lon="5.87333">
        <ele>850.7</ele>
        <time>2015-07-25T11:58:22Z</time>
      </trkpt>
      <trkpt lat="44.81237" lon="5.87336">
        <ele>850.9</ele>
        <time>2015-07-25T11:58:27Z</time>
      </trkpt>
      <trkpt lat="44.81242" lon="5.87339">
        <ele>851.8</ele>
        <time>2015-07-25T11:58:32Z</time>
      </trkpt>
      <trkpt lat="44.81247" lon="5.87341">
        <ele>852.7</ele>
        <time>2015-07-25T11:58:37Z</time>
      </trkpt>
      <trkpt lat="44.81252" lon="5.87343">
        <ele>853.2</ele>
        <time>2015-07-25T11:58:42Z</time>
      </trkpt>
      <trkpt lat="44.81255" lon="5.87345">
        <ele>854.9</ele>
        <time>2015-07-25T11:58:47Z</time>
      </trkpt>
      <trkpt lat="44.8126" lon="5.8735">
        <ele>855.7</ele>
        <time>2015-07-25T11:58:52Z</time>
      </trkpt>
      <trkpt lat="44.81265" lon="5.87349">
        <ele>855</ele>
        <time>2015-07-25T11:58:57Z</time>
      </trkpt>
      <trkpt lat="44.81271" lon="5.87352">
        <ele>856</ele>
        <time>2015-07-25T11:59:02Z</time>
      </trkpt>
      <trkpt lat="44.81276" lon="5.87355">
        <ele>856.1</ele>
        <time>2015-07-25T11:59:07Z</time>
      </trkpt>
      <trkpt lat="44.81278" lon="5.8736">
        <ele>858.1</ele>
        <time>2015-07-25T11:59:12Z</time>
      </trkpt>
      <trkpt lat="44.81281" lon="5.87367">
        <ele>857.5</ele>
        <time>2015-07-25T11:59:17Z</time>
      </trkpt>
      <trkpt lat="44.81286" lon="5.87368">
        <ele>855.1</ele>
        <time>2015-07-25T11:59:22Z</time>
      </trkpt>
      <trkpt lat="44.81294" lon="5.87374">
        <ele>854.7</ele>
        <time>2015-07-25T11:59:29Z</time>
      </trkpt>
      <trkpt lat="44.81302" lon="5.87378">
        <ele>855.4</ele>
        <time>2015-07-25T11:59:34Z</time>
      </trkpt>
      <trkpt lat="44.81307" lon="5.87381">
        <ele>855.7</ele>
        <time>2015-07-25T11:59:39Z</time>
      </trkpt>
      <trkpt lat="44.81308" lon="5.87385">
        <ele>857.7</ele>
        <time>2015-07-25T11:59:44Z</time>
      </trkpt>
      <trkpt lat="44.81307" lon="5.87383">
        <ele>856.2</ele>
        <time>2015-07-25T11:59:49Z</time>
      </trkpt>
      <trkpt lat="44.8131" lon="5.87383">
        <ele>857.1</ele>
        <time>2015-07-25T11:59:54Z</time>
      </trkpt>
      <trkpt lat="44.8131" lon="5.87383">
        <ele>857.4</ele>
        <time>2015-07-25T11:59:59Z</time>
      </trkpt>
      <trkpt lat="44.8131" lon="5.87384">
        <ele>855.1</ele>
        <time>2015-07-25T12:00:04Z</time>
      </trkpt>
      <trkpt lat="44.8131" lon="5.87385">
        <ele>852.7</ele>
        <time>2015-07-25T12:00:09Z</time>
      </trkpt>
      <trkpt lat="44.81312" lon="5.87383">
        <ele>850.8</ele>
        <time>2015-07-25T12:00:14Z</time>
      </trkpt>
      <trkpt lat="44.81314" lon="5.87383">
        <ele>852</ele>
        <time>2015-07-25T12:00:19Z</time>
      </trkpt>
      <trkpt lat="44.81313" lon="5.87384">
        <ele>852.4</ele>
        <time>2015-07-25T12:00:24Z</time>
      </trkpt>
      <trkpt lat="44.81312" lon="5.87385">
        <ele>851.9</ele>
        <time>2015-07-25T12:00:29Z</time>
      </trkpt>
      <trkpt lat="44.8131" lon="5.87386">
        <ele>852.7</ele>
        <time>2015-07-25T12:00:34Z</time>
      </trkpt>
      <trkpt lat="44.81311" lon="5.87385">
        <ele>852.6</ele>
        <time>2015-07-25T12:00:39Z</time>
      </trkpt>
      <trkpt lat="44.81311" lon="5.87383">
        <ele>851.8</ele>
        <time>2015-07-25T12:00:44Z</time>
      </trkpt>
      <trkpt lat="44.81313" lon="5.87381">
        <ele>851</ele>
        <time>2015-07-25T12:00:49Z</time>
      </trkpt>
      <trkpt lat="44.81315" lon="5.8738">
        <ele>852.8</ele>
        <time>2015-07-25T12:00:54Z</time>
      </trkpt>
      <trkpt lat="44.81314" lon="5.87381">
        <ele>852.6</ele>
        <time>2015-07-25T12:00:59Z</time>
      </trkpt>
      <trkpt lat="44.81313" lon="5.87381">
        <ele>854</ele>
        <time>2015-07-25T12:01:04Z</time>
      </trkpt>
      <trkpt lat="44.8131" lon="5.87382">
        <ele>853.7</ele>
        <time>2015-07-25T12:01:09Z</time>
      </trkpt>
      <trkpt lat="44.8131" lon="5.87385">
        <ele>855.7</ele>
        <time>2015-07-25T12:01:14Z</time>
      </trkpt>
      <trkpt lat="44.8131" lon="5.87386">
        <ele>853</ele>
        <time>2015-07-25T12:01:19Z</time>
      </trkpt>
      <trkpt lat="44.81313" lon="5.87388">
        <ele>852.4</ele>
        <time>2015-07-25T12:01:24Z</time>
      </trkpt>
      <trkpt lat="44.8132" lon="5.87391">
        <ele>853.8</ele>
        <time>2015-07-25T12:01:29Z</time>
      </trkpt>
      <trkpt lat="44.81323" lon="5.87393">
        <ele>854.7</ele>
        <time>2015-07-25T12:01:34Z</time>
      </trkpt>
      <trkpt lat="44.81323" lon="5.8739">
        <ele>857.2</ele>
        <time>2015-07-25T12:01:39Z</time>
      </trkpt>
      <trkpt lat="44.81323" lon="5.87387">
        <ele>857.1</ele>
        <time>2015-07-25T12:01:44Z</time>
      </trkpt>
      <trkpt lat="44.81323" lon="5.87385">
        <ele>856.4</ele>
        <time>2015-07-25T12:01:49Z</time>
      </trkpt>
      <trkpt lat="44.81323" lon="5.87384">
        <ele>853.9</ele>
        <time>2015-07-25T12:01:54Z</time>
      </trkpt>
      <trkpt lat="44.81326" lon="5.87392">
        <ele>860.4</ele>
        <time>2015-07-25T12:01:59Z</time>
      </trkpt>
      <trkpt lat="44.8133" lon="5.87393">
        <ele>859.8</ele>
        <time>2015-07-25T12:02:04Z</time>
      </trkpt>
      <trkpt lat="44.81336" lon="5.87394">
        <ele>859.2</ele>
        <time>2015-07-25T12:02:09Z</time>
      </trkpt>
      <trkpt lat="44.81342" lon="5.87396">
        <ele>860.8</ele>
        <time>2015-07-25T12:02:15Z</time>
      </trkpt>
      <trkpt lat="44.81348" lon="5.87394">
        <ele>857.4</ele>
        <time>2015-07-25T12:02:20Z</time>
      </trkpt>
      <trkpt lat="44.81352" lon="5.87394">
        <ele>855.5</ele>
        <time>2015-07-25T12:02:25Z</time>
      </trkpt>
      <trkpt lat="44.81359" lon="5.87398">
        <ele>857.8</ele>
        <time>2015-07-25T12:02:30Z</time>
      </trkpt>
      <trkpt lat="44.81367" lon="5.87402">
        <ele>857.9</ele>
        <time>2015-07-25T12:02:35Z</time>
      </trkpt>
      <trkpt lat="44.8137" lon="5.87406">
        <ele>859.5</ele>
        <time>2015-07-25T12:02:40Z</time>
      </trkpt>
      <trkpt lat="44.81375" lon="5.87409">
        <ele>860.2</ele>
        <time>2015-07-25T12:02:45Z</time>
      </trkpt>
      <trkpt lat="44.81378" lon="5.87411">
        <ele>861.6</ele>
        <time>2015-07-25T12:02:50Z</time>
      </trkpt>
      <trkpt lat="44.81384" lon="5.87413">
        <ele>862</ele>
        <time>2015-07-25T12:02:55Z</time>
      </trkpt>
      <trkpt lat="44.81389" lon="5.87416">
        <ele>862.3</ele>
        <time>2015-07-25T12:03:00Z</time>
      </trkpt>
      <trkpt lat="44.81391" lon="5.87418">
        <ele>860.8</ele>
        <time>2015-07-25T12:03:06Z</time>
      </trkpt>
      <trkpt lat="44.81398" lon="5.87421">
        <ele>860.3</ele>
        <time>2015-07-25T12:03:11Z</time>
      </trkpt>
      <trkpt lat="44.81402" lon="5.87426">
        <ele>859.4</ele>
        <time>2015-07-25T12:03:16Z</time>
      </trkpt>
      <trkpt lat="44.81408" lon="5.87428">
        <ele>858.5</ele>
        <time>2015-07-25T12:03:21Z</time>
      </trkpt>
      <trkpt lat="44.81411" lon="5.87437">
        <ele>860.9</ele>
        <time>2015-07-25T12:03:26Z</time>
      </trkpt>
      <trkpt lat="44.81413" lon="5.87439">
        <ele>861</ele>
        <time>2015-07-25T12:03:31Z</time>
      </trkpt>
      <trkpt lat="44.81415" lon="5.87441">
        <ele>861.7</ele>
        <time>2015-07-25T12:03:36Z</time>
      </trkpt>
      <trkpt lat="44.81422" lon="5.87438">
        <ele>862</ele>
        <time>2015-07-25T12:03:41Z</time>
      </trkpt>
      <trkpt lat="44.81429" lon="5.87434">
        <ele>860.1</ele>
        <time>2015-07-25T12:03:46Z</time>
      </trkpt>
      <trkpt lat="44.81434" lon="5.87434">
        <ele>859.9</ele>
        <time>2015-07-25T12:03:51Z</time>
      </trkpt>
      <trkpt lat="44.81439" lon="5.87433">
        <ele>862.7</ele>
        <time>2015-07-25T12:03:56Z</time>
      </trkpt>
      <trkpt lat="44.81443" lon="5.87438">
        <ele>865.5</ele>
        <time>2015-07-25T12:04:01Z</time>
      </trkpt>
      <trkpt lat="44.81448" lon="5.87441">
        <ele>866.7</ele>
        <time>2015-07-25T12:04:06Z</time>
      </trkpt>
      <trkpt lat="44.81454" lon="5.87438">
        <ele>865.7</ele>
        <time>2015-07-25T12:04:11Z</time>
      </trkpt>
      <trkpt lat="44.81455" lon="5.87431">
        <ele>862.2</ele>
        <time>2015-07-25T12:04:16Z</time>
      </trkpt>
      <trkpt lat="44.81456" lon="5.8743">
        <ele>861.5</ele>
        <time>2015-07-25T12:04:21Z</time>
      </trkpt>
      <trkpt lat="44.81456" lon="5.87424">
        <ele>861.2</ele>
        <time>2015-07-25T12:04:26Z</time>
      </trkpt>
      <trkpt lat="44.81457" lon="5.87422">
        <ele>862.2</ele>
        <time>2015-07-25T12:04:31Z</time>
      </trkpt>
      <trkpt lat="44.81461" lon="5.87422">
        <ele>865.1</ele>
        <time>2015-07-25T12:04:36Z</time>
      </trkpt>
      <trkpt lat="44.81462" lon="5.87424">
        <ele>868.7</ele>
        <time>2015-07-25T12:04:41Z</time>
      </trkpt>
      <trkpt lat="44.81466" lon="5.87427">
        <ele>870.5</ele>
        <time>2015-07-25T12:04:46Z</time>
      </trkpt>
      <trkpt lat="44.8147" lon="5.87425">
        <ele>870.1</ele>
        <time>2015-07-25T12:04:51Z</time>
      </trkpt>
      <trkpt lat="44.81473" lon="5.87419">
        <ele>869</ele>
        <time>2015-07-25T12:04:56Z</time>
      </trkpt>
      <trkpt lat="44.81476" lon="5.87413">
        <ele>868.8</ele>
        <time>2015-07-25T12:05:01Z</time>
      </trkpt>
      <trkpt lat="44.81475" lon="5.87406">
        <ele>867.2</ele>
        <time>2015-07-25T12:05:06Z</time>
      </trkpt>
      <trkpt lat="44.81477" lon="5.87401">
        <ele>866.5</ele>
        <time>2015-07-25T12:05:11Z</time>
      </trkpt>
      <trkpt lat="44.8148" lon="5.87403">
        <ele>869.2</ele>
        <time>2015-07-25T12:05:16Z</time>
      </trkpt>
      <trkpt lat="44.81485" lon="5.87406">
        <ele>872.7</ele>
        <time>2015-07-25T12:05:21Z</time>
      </trkpt>
      <trkpt lat="44.81487" lon="5.87407">
        <ele>877.5</ele>
        <time>2015-07-25T12:05:26Z</time>
      </trkpt>
      <trkpt lat="44.81489" lon="5.87409">
        <ele>877.2</ele>
        <time>2015-07-25T12:05:31Z</time>
      </trkpt>
      <trkpt lat="44.81493" lon="5.87412">
        <ele>879.5</ele>
        <time>2015-07-25T12:05:36Z</time>
      </trkpt>
      <trkpt lat="44.81499" lon="5.87418">
        <ele>881.7</ele>
        <time>2015-07-25T12:05:41Z</time>
      </trkpt>
      <trkpt lat="44.81501" lon="5.87426">
        <ele>885.4</ele>
        <time>2015-07-25T12:05:48Z</time>
      </trkpt>
      <trkpt lat="44.815" lon="5.87426">
        <ele>888.4</ele>
        <time>2015-07-25T12:05:53Z</time>
      </trkpt>
      <trkpt lat="44.81502" lon="5.8742">
        <ele>887</ele>
        <time>2015-07-25T12:05:58Z</time>
      </trkpt>
      <trkpt lat="44.81504" lon="5.87417">
        <ele>887.7</ele>
        <time>2015-07-25T12:06:03Z</time>
      </trkpt>
      <trkpt lat="44.81503" lon="5.87416">
        <ele>891</ele>
        <time>2015-07-25T12:06:08Z</time>
      </trkpt>
      <trkpt lat="44.81503" lon="5.87415">
        <ele>891.8</ele>
        <time>2015-07-25T12:06:13Z</time>
      </trkpt>
      <trkpt lat="44.81505" lon="5.87419">
        <ele>891.3</ele>
        <time>2015-07-25T12:06:18Z</time>
      </trkpt>
      <trkpt lat="44.81508" lon="5.8742">
        <ele>888.3</ele>
        <time>2015-07-25T12:06:23Z</time>
      </trkpt>
      <trkpt lat="44.81513" lon="5.87423">
        <ele>886.1</ele>
        <time>2015-07-25T12:06:28Z</time>
      </trkpt>
      <trkpt lat="44.81515" lon="5.87426">
        <ele>884.7</ele>
        <time>2015-07-25T12:06:33Z</time>
      </trkpt>
      <trkpt lat="44.81516" lon="5.87429">
        <ele>884.1</ele>
        <time>2015-07-25T12:06:38Z</time>
      </trkpt>
      <trkpt lat="44.81517" lon="5.87434">
        <ele>887.2</ele>
        <time>2015-07-25T12:06:43Z</time>
      </trkpt>
      <trkpt lat="44.81516" lon="5.87434">
        <ele>884.9</ele>
        <time>2015-07-25T12:06:48Z</time>
      </trkpt>
      <trkpt lat="44.81517" lon="5.87435">
        <ele>886.1</ele>
        <time>2015-07-25T12:06:53Z</time>
      </trkpt>
      <trkpt lat="44.8152" lon="5.87431">
        <ele>881.9</ele>
        <time>2015-07-25T12:06:58Z</time>
      </trkpt>
      <trkpt lat="44.81521" lon="5.87429">
        <ele>882.4</ele>
        <time>2015-07-25T12:07:03Z</time>
      </trkpt>
      <trkpt lat="44.81521" lon="5.87431">
        <ele>883.3</ele>
        <time>2015-07-25T12:07:08Z</time>
      </trkpt>
      <trkpt lat="44.81523" lon="5.8743">
        <ele>880.8</ele>
        <time>2015-07-25T12:07:13Z</time>
      </trkpt>
      <trkpt lat="44.81524" lon="5.87427">
        <ele>880.2</ele>
        <time>2015-07-25T12:07:18Z</time>
      </trkpt>
      <trkpt lat="44.81523" lon="5.87425">
        <ele>880.6</ele>
        <time>2015-07-25T12:07:23Z</time>
      </trkpt>
      <trkpt lat="44.81522" lon="5.87423">
        <ele>880.7</ele>
        <time>2015-07-25T12:07:28Z</time>
      </trkpt>
      <trkpt lat="44.81522" lon="5.87423">
        <ele>885.5</ele>
        <time>2015-07-25T12:07:33Z</time>
      </trkpt>
      <trkpt lat="44.81522" lon="5.87425">
        <ele>887.5</ele>
        <time>2015-07-25T12:07:38Z</time>
      </trkpt>
      <trkpt lat="44.81521" lon="5.87423">
        <ele>886.7</ele>
        <time>2015-07-25T12:07:43Z</time>
      </trkpt>
      <trkpt lat="44.81521" lon="5.87424">
        <ele>889.1</ele>
        <time>2015-07-25T12:07:48Z</time>
      </trkpt>
      <trkpt lat="44.81523" lon="5.87424">
        <ele>892.5</ele>
        <time>2015-07-25T12:07:54Z</time>
      </trkpt>
      <trkpt lat="44.81523" lon="5.8742">
        <ele>890.6</ele>
        <time>2015-07-25T12:07:59Z</time>
      </trkpt>
      <trkpt lat="44.81522" lon="5.87421">
        <ele>892.5</ele>
        <time>2015-07-25T12:08:04Z</time>
      </trkpt>
      <trkpt lat="44.81521" lon="5.87421">
        <ele>892.8</ele>
        <time>2015-07-25T12:08:09Z</time>
      </trkpt>
      <trkpt lat="44.81519" lon="5.87422">
        <ele>894.4</ele>
        <time>2015-07-25T12:08:14Z</time>
      </trkpt>
      <trkpt lat="44.81519" lon="5.87422">
        <ele>899.1</ele>
        <time>2015-07-25T12:08:19Z</time>
      </trkpt>
      <trkpt lat="44.81519" lon="5.87421">
        <ele>899.1</ele>
        <time>2015-07-25T12:08:24Z</time>
      </trkpt>
      <trkpt lat="44.81519" lon="5.87421">
        <ele>896.3</ele>
        <time>2015-07-25T12:08:29Z</time>
      </trkpt>
      <trkpt lat="44.81517" lon="5.87422">
        <ele>898.5</ele>
        <time>2015-07-25T12:08:34Z</time>
      </trkpt>
      <trkpt lat="44.81518" lon="5.87421">
        <ele>900.2</ele>
        <time>2015-07-25T12:08:39Z</time>
      </trkpt>
      <trkpt lat="44.81517" lon="5.87423">
        <ele>901.1</ele>
        <time>2015-07-25T12:08:44Z</time>
      </trkpt>
      <trkpt lat="44.81517" lon="5.8742">
        <ele>898.5</ele>
        <time>2015-07-25T12:08:49Z</time>
      </trkpt>
      <trkpt lat="44.81511" lon="5.87425">
        <ele>909.7</ele>
        <time>2015-07-25T12:08:54Z</time>
      </trkpt>
      <trkpt lat="44.81507" lon="5.87429">
        <ele>918.8</ele>
        <time>2015-07-25T12:08:59Z</time>
      </trkpt>
      <trkpt lat="44.81509" lon="5.87426">
        <ele>919.5</ele>
        <time>2015-07-25T12:09:04Z</time>
      </trkpt>
      <trkpt lat="44.81514" lon="5.87425">
        <ele>917.2</ele>
        <time>2015-07-25T12:09:09Z</time>
      </trkpt>
      <trkpt lat="44.81518" lon="5.87427">
        <ele>915.4</ele>
        <time>2015-07-25T12:09:16Z</time>
      </trkpt>
      <trkpt lat="44.81521" lon="5.87435">
        <ele>916.9</ele>
        <time>2015-07-25T12:09:21Z</time>
      </trkpt>
      <trkpt lat="44.81521" lon="5.87432">
        <ele>912</ele>
        <time>2015-07-25T12:09:26Z</time>
      </trkpt>
      <trkpt lat="44.81522" lon="5.87431">
        <ele>911.9</ele>
        <time>2015-07-25T12:09:31Z</time>
      </trkpt>
      <trkpt lat="44.81524" lon="5.87431">
        <ele>913.6</ele>
        <time>2015-07-25T12:09:36Z</time>
      </trkpt>
      <trkpt lat="44.81522" lon="5.87429">
        <ele>909.4</ele>
        <time>2015-07-25T12:09:41Z</time>
      </trkpt>
      <trkpt lat="44.81522" lon="5.87427">
        <ele>905.7</ele>
        <time>2015-07-25T12:09:46Z</time>
      </trkpt>
      <trkpt lat="44.81521" lon="5.87426">
        <ele>903.9</ele>
        <time>2015-07-25T12:09:51Z</time>
      </trkpt>
      <trkpt lat="44.81521" lon="5.87426">
        <ele>902.3</ele>
        <time>2015-07-25T12:09:56Z</time>
      </trkpt>
      <trkpt lat="44.81523" lon="5.87424">
        <ele>896.5</ele>
        <time>2015-07-25T12:10:01Z</time>
      </trkpt>
      <trkpt lat="44.81523" lon="5.87419">
        <ele>888.8</ele>
        <time>2015-07-25T12:10:06Z</time>
      </trkpt>
      <trkpt lat="44.81522" lon="5.87414">
        <ele>881.9</ele>
        <time>2015-07-25T12:10:11Z</time>
      </trkpt>
      <trkpt lat="44.81521" lon="5.87416">
        <ele>884.1</ele>
        <time>2015-07-25T12:10:16Z</time>
      </trkpt>
      <trkpt lat="44.81518" lon="5.8742">
        <ele>889.4</ele>
        <time>2015-07-25T12:10:21Z</time>
      </trkpt>
      <trkpt lat="44.81521" lon="5.87419">
        <ele>889.6</ele>
        <time>2015-07-25T12:10:26Z</time>
      </trkpt>
      <trkpt lat="44.81523" lon="5.87418">
        <ele>889</ele>
        <time>2015-07-25T12:10:31Z</time>
      </trkpt>
      <trkpt lat="44.81523" lon="5.87415">
        <ele>890.8</ele>
        <time>2015-07-25T12:10:36Z</time>
      </trkpt>
      <trkpt lat="44.81524" lon="5.87417">
        <ele>893.5</ele>
        <time>2015-07-25T12:10:41Z</time>
      </trkpt>
      <trkpt lat="44.81523" lon="5.87418">
        <ele>895.7</ele>
        <time>2015-07-25T12:10:46Z</time>
      </trkpt>
      <trkpt lat="44.81524" lon="5.87422">
        <ele>900.4</ele>
        <time>2015-07-25T12:10:51Z</time>
      </trkpt>
      <trkpt lat="44.81522" lon="5.87418">
        <ele>895.3</ele>
        <time>2015-07-25T12:10:56Z</time>
      </trkpt>
      <trkpt lat="44.81522" lon="5.8742">
        <ele>896.7</ele>
        <time>2015-07-25T12:11:01Z</time>
      </trkpt>
      <trkpt lat="44.81524" lon="5.87422">
        <ele>901.8</ele>
        <time>2015-07-25T12:11:06Z</time>
      </trkpt>
      <trkpt lat="44.81523" lon="5.87421">
        <ele>906.3</ele>
        <time>2015-07-25T12:11:11Z</time>
      </trkpt>
      <trkpt lat="44.81521" lon="5.8742">
        <ele>903.3</ele>
        <time>2015-07-25T12:11:16Z</time>
      </trkpt>
      <trkpt lat="44.81521" lon="5.8742">
        <ele>905</ele>
        <time>2015-07-25T12:11:21Z</time>
      </trkpt>
      <trkpt lat="44.8152" lon="5.8742">
        <ele>905.1</ele>
        <time>2015-07-25T12:11:26Z</time>
      </trkpt>
      <trkpt lat="44.81521" lon="5.87419">
        <ele>903.5</ele>
        <time>2015-07-25T12:11:31Z</time>
      </trkpt>
      <trkpt lat="44.81522" lon="5.8742">
        <ele>903.7</ele>
        <time>2015-07-25T12:11:36Z</time>
      </trkpt>
      <trkpt lat="44.8152" lon="5.87417">
        <ele>897.7</ele>
        <time>2015-07-25T12:11:41Z</time>
      </trkpt>
      <trkpt lat="44.81519" lon="5.87418">
        <ele>900.4</ele>
        <time>2015-07-25T12:11:46Z</time>
      </trkpt>
      <trkpt lat="44.81521" lon="5.87417">
        <ele>899.8</ele>
        <time>2015-07-25T12:11:51Z</time>
      </trkpt>
      <trkpt lat="44.81521" lon="5.87418">
        <ele>898.7</ele>
        <time>2015-07-25T12:11:56Z</time>
      </trkpt>
      <trkpt lat="44.8152" lon="5.87418">
        <ele>896.4</ele>
        <time>2015-07-25T12:12:01Z</time>
      </trkpt>
      <trkpt lat="44.81519" lon="5.87422">
        <ele>896.8</ele>
        <time>2015-07-25T12:12:06Z</time>
      </trkpt>
      <trkpt lat="44.81515" lon="5.87424">
        <ele>890.6</ele>
        <time>2015-07-25T12:12:11Z</time>
      </trkpt>
      <trkpt lat="44.8151" lon="5.87427">
        <ele>887.3</ele>
        <time>2015-07-25T12:12:16Z</time>
      </trkpt>
      <trkpt lat="44.81512" lon="5.87429">
        <ele>883.7</ele>
        <time>2015-07-25T12:12:21Z</time>
      </trkpt>
      <trkpt lat="44.81514" lon="5.87433">
        <ele>886.7</ele>
        <time>2015-07-25T12:12:26Z</time>
      </trkpt>
      <trkpt lat="44.81514" lon="5.87433">
        <ele>889.4</ele>
        <time>2015-07-25T12:12:31Z</time>
      </trkpt>
      <trkpt lat="44.81516" lon="5.87431">
        <ele>888</ele>
        <time>2015-07-25T12:12:36Z</time>
      </trkpt>
      <trkpt lat="44.81517" lon="5.87431">
        <ele>888.3</ele>
        <time>2015-07-25T12:12:41Z</time>
      </trkpt>
      <trkpt lat="44.81518" lon="5.87432">
        <ele>888.5</ele>
        <time>2015-07-25T12:12:46Z</time>
      </trkpt>
      <trkpt lat="44.81519" lon="5.87431">
        <ele>888.4</ele>
        <time>2015-07-25T12:12:51Z</time>
      </trkpt>
      <trkpt lat="44.81517" lon="5.87432">
        <ele>891</ele>
        <time>2015-07-25T12:12:56Z</time>
      </trkpt>
      <trkpt lat="44.81517" lon="5.87432">
        <ele>893.4</ele>
        <time>2015-07-25T12:13:01Z</time>
      </trkpt>
      <trkpt lat="44.81519" lon="5.87428">
        <ele>892.3</ele>
        <time>2015-07-25T12:13:06Z</time>
      </trkpt>
      <trkpt lat="44.8152" lon="5.87423">
        <ele>888.3</ele>
        <time>2015-07-25T12:13:11Z</time>
      </trkpt>
      <trkpt lat="44.8152" lon="5.87419">
        <ele>885.6</ele>
        <time>2015-07-25T12:13:16Z</time>
      </trkpt>
      <trkpt lat="44.8152" lon="5.87418">
        <ele>886.3</ele>
        <time>2015-07-25T12:13:21Z</time>
      </trkpt>
      <trkpt lat="44.81522" lon="5.8742">
        <ele>890.3</ele>
        <time>2015-07-25T12:13:26Z</time>
      </trkpt>
      <trkpt lat="44.81522" lon="5.87418">
        <ele>885.9</ele>
        <time>2015-07-25T12:13:31Z</time>
      </trkpt>
      <trkpt lat="44.81524" lon="5.87418">
        <ele>888.2</ele>
        <time>2015-07-25T12:13:36Z</time>
      </trkpt>
      <trkpt lat="44.81524" lon="5.87418">
        <ele>890.7</ele>
        <time>2015-07-25T12:13:41Z</time>
      </trkpt>
      <trkpt lat="44.81525" lon="5.87417">
        <ele>888.7</ele>
        <time>2015-07-25T12:13:46Z</time>
      </trkpt>
      <trkpt lat="44.81524" lon="5.8742">
        <ele>887.7</ele>
        <time>2015-07-25T12:13:51Z</time>
      </trkpt>
      <trkpt lat="44.81522" lon="5.87427">
        <ele>893.3</ele>
        <time>2015-07-25T12:13:56Z</time>
      </trkpt>
      <trkpt lat="44.81522" lon="5.87429">
        <ele>892.7</ele>
        <time>2015-07-25T12:14:01Z</time>
      </trkpt>
      <trkpt lat="44.81522" lon="5.87431">
        <ele>893.7</ele>
        <time>2015-07-25T12:14:06Z</time>
      </trkpt>
      <trkpt lat="44.81521" lon="5.87432">
        <ele>895.4</ele>
        <time>2015-07-25T12:14:11Z</time>
      </trkpt>
      <trkpt lat="44.8152" lon="5.87432">
        <ele>895.9</ele>
        <time>2015-07-25T12:14:16Z</time>
      </trkpt>
      <trkpt lat="44.81519" lon="5.87433">
        <ele>896.8</ele>
        <time>2015-07-25T12:14:21Z</time>
      </trkpt>
      <trkpt lat="44.81519" lon="5.87428">
        <ele>895.7</ele>
        <time>2015-07-25T12:14:26Z</time>
      </trkpt>
      <trkpt lat="44.81522" lon="5.87424">
        <ele>889.3</ele>
        <time>2015-07-25T12:14:31Z</time>
      </trkpt>
      <trkpt lat="44.81524" lon="5.87422">
        <ele>887.7</ele>
        <time>2015-07-25T12:14:36Z</time>
      </trkpt>
      <trkpt lat="44.81525" lon="5.87422">
        <ele>886.4</ele>
        <time>2015-07-25T12:14:41Z</time>
      </trkpt>
      <trkpt lat="44.81525" lon="5.87422">
        <ele>886</ele>
        <time>2015-07-25T12:14:46Z</time>
      </trkpt>
      <trkpt lat="44.81526" lon="5.87421">
        <ele>885.5</ele>
        <time>2015-07-25T12:14:51Z</time>
      </trkpt>
      <trkpt lat="44.81526" lon="5.87421">
        <ele>885.6</ele>
        <time>2015-07-25T12:14:56Z</time>
      </trkpt>
      <trkpt lat="44.81527" lon="5.87421">
        <ele>886.8</ele>
        <time>2015-07-25T12:15:01Z</time>
      </trkpt>
      <trkpt lat="44.81525" lon="5.87419">
        <ele>883.8</ele>
        <time>2015-07-25T12:15:06Z</time>
      </trkpt>
      <trkpt lat="44.81526" lon="5.87417">
        <ele>884.7</ele>
        <time>2015-07-25T12:15:11Z</time>
      </trkpt>
      <trkpt lat="44.81526" lon="5.87418">
        <ele>886.2</ele>
        <time>2015-07-25T12:15:16Z</time>
      </trkpt>
      <trkpt lat="44.81527" lon="5.87419">
        <ele>886.6</ele>
        <time>2015-07-25T12:15:21Z</time>
      </trkpt>
      <trkpt lat="44.81524" lon="5.87419">
        <ele>886.3</ele>
        <time>2015-07-25T12:15:26Z</time>
      </trkpt>
      <trkpt lat="44.81524" lon="5.87421">
        <ele>886.6</ele>
        <time>2015-07-25T12:15:31Z</time>
      </trkpt>
      <trkpt lat="44.81523" lon="5.87421">
        <ele>885.6</ele>
        <time>2015-07-25T12:15:36Z</time>
      </trkpt>
      <trkpt lat="44.81522" lon="5.87418">
        <ele>883.6</ele>
        <time>2015-07-25T12:15:41Z</time>
      </trkpt>
      <trkpt lat="44.81524" lon="5.87421">
        <ele>884.7</ele>
        <time>2015-07-25T12:15:46Z</time>
      </trkpt>
      <trkpt lat="44.81524" lon="5.87421">
        <ele>883.8</ele>
        <time>2015-07-25T12:15:51Z</time>
      </trkpt>
      <trkpt lat="44.81523" lon="5.87418">
        <ele>882</ele>
        <time>2015-07-25T12:15:56Z</time>
      </trkpt>
      <trkpt lat="44.81522" lon="5.87418">
        <ele>883.7</ele>
        <time>2015-07-25T12:16:01Z</time>
      </trkpt>
      <trkpt lat="44.81522" lon="5.87424">
        <ele>889.2</ele>
        <time>2015-07-25T12:16:06Z</time>
      </trkpt>
      <trkpt lat="44.81521" lon="5.87426">
        <ele>887.7</ele>
        <time>2015-07-25T12:16:11Z</time>
      </trkpt>
      <trkpt lat="44.81525" lon="5.87429">
        <ele>889.3</ele>
        <time>2015-07-25T12:16:16Z</time>
      </trkpt>
      <trkpt lat="44.81525" lon="5.87431">
        <ele>892</ele>
        <time>2015-07-25T12:16:21Z</time>
      </trkpt>
      <trkpt lat="44.81525" lon="5.87425">
        <ele>888.8</ele>
        <time>2015-07-25T12:16:26Z</time>
      </trkpt>
      <trkpt lat="44.81526" lon="5.87427">
        <ele>890.7</ele>
        <time>2015-07-25T12:16:31Z</time>
      </trkpt>
      <trkpt lat="44.81526" lon="5.87433">
        <ele>894.9</ele>
        <time>2015-07-25T12:16:36Z</time>
      </trkpt>
      <trkpt lat="44.81528" lon="5.87435">
        <ele>896.1</ele>
        <time>2015-07-25T12:16:41Z</time>
      </trkpt>
      <trkpt lat="44.81528" lon="5.87438">
        <ele>898.9</ele>
        <time>2015-07-25T12:16:46Z</time>
      </trkpt>
      <trkpt lat="44.81531" lon="5.87439">
        <ele>897.6</ele>
        <time>2015-07-25T12:16:51Z</time>
      </trkpt>
      <trkpt lat="44.81534" lon="5.8744">
        <ele>897.1</ele>
        <time>2015-07-25T12:16:56Z</time>
      </trkpt>
      <trkpt lat="44.81537" lon="5.87441">
        <ele>893.1</ele>
        <time>2015-07-25T12:17:01Z</time>
      </trkpt>
      <trkpt lat="44.81542" lon="5.87444">
        <ele>892.1</ele>
        <time>2015-07-25T12:17:06Z</time>
      </trkpt>
      <trkpt lat="44.81546" lon="5.8745">
        <ele>893.2</ele>
        <time>2015-07-25T12:17:11Z</time>
      </trkpt>
      <trkpt lat="44.81551" lon="5.87453">
        <ele>892.3</ele>
        <time>2015-07-25T12:17:16Z</time>
      </trkpt>
      <trkpt lat="44.81554" lon="5.87459">
        <ele>896.1</ele>
        <time>2015-07-25T12:17:21Z</time>
      </trkpt>
      <trkpt lat="44.81557" lon="5.87464">
        <ele>897</ele>
        <time>2015-07-25T12:17:26Z</time>
      </trkpt>
      <trkpt lat="44.81561" lon="5.87471">
        <ele>898.8</ele>
        <time>2015-07-25T12:17:31Z</time>
      </trkpt>
      <trkpt lat="44.81564" lon="5.87477">
        <ele>900.2</ele>
        <time>2015-07-25T12:17:36Z</time>
      </trkpt>
      <trkpt lat="44.81568" lon="5.87481">
        <ele>899.5</ele>
        <time>2015-07-25T12:17:41Z</time>
      </trkpt>
      <trkpt lat="44.81572" lon="5.87485">
        <ele>901.6</ele>
        <time>2015-07-25T12:17:46Z</time>
      </trkpt>
      <trkpt lat="44.81575" lon="5.87491">
        <ele>902.7</ele>
        <time>2015-07-25T12:17:51Z</time>
      </trkpt>
      <trkpt lat="44.81579" lon="5.87495">
        <ele>903.3</ele>
        <time>2015-07-25T12:17:56Z</time>
      </trkpt>
      <trkpt lat="44.81583" lon="5.875">
        <ele>903.4</ele>
        <time>2015-07-25T12:18:01Z</time>
      </trkpt>
      <trkpt lat="44.81588" lon="5.87504">
        <ele>903.6</ele>
        <time>2015-07-25T12:18:06Z</time>
      </trkpt>
      <trkpt lat="44.81593" lon="5.87508">
        <ele>901.2</ele>
        <time>2015-07-25T12:18:11Z</time>
      </trkpt>
      <trkpt lat="44.81598" lon="5.87512">
        <ele>901.1</ele>
        <time>2015-07-25T12:18:16Z</time>
      </trkpt>
      <trkpt lat="44.81603" lon="5.8752">
        <ele>904.6</ele>
        <time>2015-07-25T12:18:21Z</time>
      </trkpt>
      <trkpt lat="44.81609" lon="5.87524">
        <ele>904.8</ele>
        <time>2015-07-25T12:18:26Z</time>
      </trkpt>
      <trkpt lat="44.81615" lon="5.87527">
        <ele>903.3</ele>
        <time>2015-07-25T12:18:31Z</time>
      </trkpt>
      <trkpt lat="44.8162" lon="5.8753">
        <ele>902.3</ele>
        <time>2015-07-25T12:18:36Z</time>
      </trkpt>
      <trkpt lat="44.81627" lon="5.87531">
        <ele>899.8</ele>
        <time>2015-07-25T12:18:41Z</time>
      </trkpt>
      <trkpt lat="44.8163" lon="5.87535">
        <ele>898.8</ele>
        <time>2015-07-25T12:18:46Z</time>
      </trkpt>
      <trkpt lat="44.81634" lon="5.8754">
        <ele>898.4</ele>
        <time>2015-07-25T12:18:51Z</time>
      </trkpt>
      <trkpt lat="44.81638" lon="5.87544">
        <ele>897.5</ele>
        <time>2015-07-25T12:18:56Z</time>
      </trkpt>
      <trkpt lat="44.81642" lon="5.87549">
        <ele>895.5</ele>
        <time>2015-07-25T12:19:01Z</time>
      </trkpt>
      <trkpt lat="44.81646" lon="5.87554">
        <ele>894.2</ele>
        <time>2015-07-25T12:19:06Z</time>
      </trkpt>
      <trkpt lat="44.81651" lon="5.8756">
        <ele>893.1</ele>
        <time>2015-07-25T12:19:11Z</time>
      </trkpt>
      <trkpt lat="44.81656" lon="5.87564">
        <ele>892.1</ele>
        <time>2015-07-25T12:19:16Z</time>
      </trkpt>
      <trkpt lat="44.81657" lon="5.87564">
        <ele>891.6</ele>
        <time>2015-07-25T12:19:21Z</time>
      </trkpt>
      <trkpt lat="44.81659" lon="5.87565">
        <ele>891.2</ele>
        <time>2015-07-25T12:19:26Z</time>
      </trkpt>
      <trkpt lat="44.81664" lon="5.87567">
        <ele>891</ele>
        <time>2015-07-25T12:19:31Z</time>
      </trkpt>
      <trkpt lat="44.81668" lon="5.87571">
        <ele>892.7</ele>
        <time>2015-07-25T12:19:36Z</time>
      </trkpt>
      <trkpt lat="44.8167" lon="5.87572">
        <ele>894.1</ele>
        <time>2015-07-25T12:19:41Z</time>
      </trkpt>
      <trkpt lat="44.81673" lon="5.87574">
        <ele>893.3</ele>
        <time>2015-07-25T12:19:46Z</time>
      </trkpt>
      <trkpt lat="44.81675" lon="5.87577">
        <ele>891.7</ele>
        <time>2015-07-25T12:19:51Z</time>
      </trkpt>
      <trkpt lat="44.81669" lon="5.87578">
        <ele>888.4</ele>
        <time>2015-07-25T12:19:56Z</time>
      </trkpt>
      <trkpt lat="44.81664" lon="5.87579">
        <ele>887.4</ele>
        <time>2015-07-25T12:20:01Z</time>
      </trkpt>
      <trkpt lat="44.81659" lon="5.87582">
        <ele>886.2</ele>
        <time>2015-07-25T12:20:06Z</time>
      </trkpt>
      <trkpt lat="44.81655" lon="5.87585">
        <ele>884.4</ele>
        <time>2015-07-25T12:20:11Z</time>
      </trkpt>
      <trkpt lat="44.81654" lon="5.87584">
        <ele>883.9</ele>
        <time>2015-07-25T12:20:16Z</time>
      </trkpt>
      <trkpt lat="44.81654" lon="5.87584">
        <ele>883.6</ele>
        <time>2015-07-25T12:20:21Z</time>
      </trkpt>
      <trkpt lat="44.81654" lon="5.87584">
        <ele>883.5</ele>
        <time>2015-07-25T12:20:26Z</time>
      </trkpt>
      <trkpt lat="44.81652" lon="5.87583">
        <ele>882.6</ele>
        <time>2015-07-25T12:20:31Z</time>
      </trkpt>
      <trkpt lat="44.81652" lon="5.87583">
        <ele>881.4</ele>
        <time>2015-07-25T12:20:36Z</time>
      </trkpt>
      <trkpt lat="44.81651" lon="5.87584">
        <ele>881.2</ele>
        <time>2015-07-25T12:20:41Z</time>
      </trkpt>
      <trkpt lat="44.81652" lon="5.87586">
        <ele>887.9</ele>
        <time>2015-07-25T12:20:46Z</time>
      </trkpt>
      <trkpt lat="44.81653" lon="5.87586">
        <ele>887.7</ele>
        <time>2015-07-25T12:20:51Z</time>
      </trkpt>
      <trkpt lat="44.81652" lon="5.87585">
        <ele>886</ele>
        <time>2015-07-25T12:20:56Z</time>
      </trkpt>
      <trkpt lat="44.81652" lon="5.87586">
        <ele>886</ele>
        <time>2015-07-25T12:21:01Z</time>
      </trkpt>
      <trkpt lat="44.81652" lon="5.87586">
        <ele>886.8</ele>
        <time>2015-07-25T12:21:06Z</time>
      </trkpt>
      <trkpt lat="44.81651" lon="5.87583">
        <ele>884.4</ele>
        <time>2015-07-25T12:21:11Z</time>
      </trkpt>
      <trkpt lat="44.8165" lon="5.87582">
        <ele>880.6</ele>
        <time>2015-07-25T12:21:16Z</time>
      </trkpt>
      <trkpt lat="44.81652" lon="5.87582">
        <ele>879.8</ele>
        <time>2015-07-25T12:21:21Z</time>
      </trkpt>
      <trkpt lat="44.81652" lon="5.87581">
        <ele>879.5</ele>
        <time>2015-07-25T12:21:26Z</time>
      </trkpt>
      <trkpt lat="44.81653" lon="5.87582">
        <ele>881</ele>
        <time>2015-07-25T12:21:31Z</time>
      </trkpt>
      <trkpt lat="44.81652" lon="5.87583">
        <ele>881.6</ele>
        <time>2015-07-25T12:21:36Z</time>
      </trkpt>
      <trkpt lat="44.81651" lon="5.87581">
        <ele>876.1</ele>
        <time>2015-07-25T12:21:41Z</time>
      </trkpt>
      <trkpt lat="44.81651" lon="5.87581">
        <ele>875</ele>
        <time>2015-07-25T12:21:46Z</time>
      </trkpt>
      <trkpt lat="44.8165" lon="5.87581">
        <ele>874.1</ele>
        <time>2015-07-25T12:21:51Z</time>
      </trkpt>
      <trkpt lat="44.8165" lon="5.87581">
        <ele>874.5</ele>
        <time>2015-07-25T12:21:56Z</time>
      </trkpt>
      <trkpt lat="44.81652" lon="5.87583">
        <ele>881.7</ele>
        <time>2015-07-25T12:22:01Z</time>
      </trkpt>
      <trkpt lat="44.81652" lon="5.87583">
        <ele>880.3</ele>
        <time>2015-07-25T12:22:06Z</time>
      </trkpt>
      <trkpt lat="44.81653" lon="5.87583">
        <ele>881.9</ele>
        <time>2015-07-25T12:22:11Z</time>
      </trkpt>
      <trkpt lat="44.81653" lon="5.87584">
        <ele>884.1</ele>
        <time>2015-07-25T12:22:16Z</time>
      </trkpt>
      <trkpt lat="44.81653" lon="5.87584">
        <ele>884.5</ele>
        <time>2015-07-25T12:22:21Z</time>
      </trkpt>
      <trkpt lat="44.81653" lon="5.87584">
        <ele>885</ele>
        <time>2015-07-25T12:22:26Z</time>
      </trkpt>
      <trkpt lat="44.81652" lon="5.87584">
        <ele>885.1</ele>
        <time>2015-07-25T12:22:31Z</time>
      </trkpt>
      <trkpt lat="44.81649" lon="5.87586">
        <ele>885.4</ele>
        <time>2015-07-25T12:22:36Z</time>
      </trkpt>
      <trkpt lat="44.81649" lon="5.87587">
        <ele>886.8</ele>
        <time>2015-07-25T12:22:41Z</time>
      </trkpt>
      <trkpt lat="44.81647" lon="5.87588">
        <ele>886</ele>
        <time>2015-07-25T12:22:46Z</time>
      </trkpt>
      <trkpt lat="44.81646" lon="5.87586">
        <ele>886.3</ele>
        <time>2015-07-25T12:22:51Z</time>
      </trkpt>
      <trkpt lat="44.81647" lon="5.87585">
        <ele>886.9</ele>
        <time>2015-07-25T12:22:56Z</time>
      </trkpt>
      <trkpt lat="44.81645" lon="5.87582">
        <ele>883.6</ele>
        <time>2015-07-25T12:23:01Z</time>
      </trkpt>
      <trkpt lat="44.81642" lon="5.87583">
        <ele>890.6</ele>
        <time>2015-07-25T12:23:06Z</time>
      </trkpt>
      <trkpt lat="44.81644" lon="5.87584">
        <ele>890.7</ele>
        <time>2015-07-25T12:23:11Z</time>
      </trkpt>
      <trkpt lat="44.81644" lon="5.87588">
        <ele>891.7</ele>
        <time>2015-07-25T12:23:16Z</time>
      </trkpt>
      <trkpt lat="44.81642" lon="5.87586">
        <ele>888.4</ele>
        <time>2015-07-25T12:23:21Z</time>
      </trkpt>
      <trkpt lat="44.81639" lon="5.87584">
        <ele>890.7</ele>
        <time>2015-07-25T12:23:26Z</time>
      </trkpt>
      <trkpt lat="44.81636" lon="5.87582">
        <ele>886.7</ele>
        <time>2015-07-25T12:23:31Z</time>
      </trkpt>
      <trkpt lat="44.81635" lon="5.87582">
        <ele>884.2</ele>
        <time>2015-07-25T12:23:36Z</time>
      </trkpt>
      <trkpt lat="44.81634" lon="5.87582">
        <ele>882.2</ele>
        <time>2015-07-25T12:23:41Z</time>
      </trkpt>
      <trkpt lat="44.81634" lon="5.87581">
        <ele>880.5</ele>
        <time>2015-07-25T12:23:46Z</time>
      </trkpt>
      <trkpt lat="44.81633" lon="5.87581">
        <ele>883.9</ele>
        <time>2015-07-25T12:23:51Z</time>
      </trkpt>
      <trkpt lat="44.81633" lon="5.87582">
        <ele>885.5</ele>
        <time>2015-07-25T12:23:56Z</time>
      </trkpt>
      <trkpt lat="44.81631" lon="5.87583">
        <ele>887.4</ele>
        <time>2015-07-25T12:24:01Z</time>
      </trkpt>
      <trkpt lat="44.81631" lon="5.87584">
        <ele>888.9</ele>
        <time>2015-07-25T12:24:06Z</time>
      </trkpt>
      <trkpt lat="44.81631" lon="5.87585">
        <ele>889.5</ele>
        <time>2015-07-25T12:24:11Z</time>
      </trkpt>
      <trkpt lat="44.81631" lon="5.87585">
        <ele>890.5</ele>
        <time>2015-07-25T12:24:16Z</time>
      </trkpt>
      <trkpt lat="44.8163" lon="5.87586">
        <ele>891.7</ele>
        <time>2015-07-25T12:24:21Z</time>
      </trkpt>
      <trkpt lat="44.8163" lon="5.87586">
        <ele>892.7</ele>
        <time>2015-07-25T12:24:26Z</time>
      </trkpt>
      <trkpt lat="44.81632" lon="5.87586">
        <ele>891</ele>
        <time>2015-07-25T12:24:31Z</time>
      </trkpt>
      <trkpt lat="44.81634" lon="5.87585">
        <ele>886.8</ele>
        <time>2015-07-25T12:24:36Z</time>
      </trkpt>
      <trkpt lat="44.81633" lon="5.87584">
        <ele>886.3</ele>
        <time>2015-07-25T12:24:41Z</time>
      </trkpt>
      <trkpt lat="44.81633" lon="5.87583">
        <ele>884.1</ele>
        <time>2015-07-25T12:24:46Z</time>
      </trkpt>
      <trkpt lat="44.81633" lon="5.87582">
        <ele>883</ele>
        <time>2015-07-25T12:24:51Z</time>
      </trkpt>
      <trkpt lat="44.81634" lon="5.87582">
        <ele>883.8</ele>
        <time>2015-07-25T12:24:56Z</time>
      </trkpt>
      <trkpt lat="44.81634" lon="5.87582">
        <ele>883.8</ele>
        <time>2015-07-25T12:25:01Z</time>
      </trkpt>
      <trkpt lat="44.81636" lon="5.87583">
        <ele>881.5</ele>
        <time>2015-07-25T12:25:06Z</time>
      </trkpt>
      <trkpt lat="44.81633" lon="5.87584">
        <ele>879.8</ele>
        <time>2015-07-25T12:25:12Z</time>
      </trkpt>
      <trkpt lat="44.81633" lon="5.87582">
        <ele>880.3</ele>
        <time>2015-07-25T12:25:17Z</time>
      </trkpt>
      <trkpt lat="44.81634" lon="5.87582">
        <ele>879.9</ele>
        <time>2015-07-25T12:25:22Z</time>
      </trkpt>
      <trkpt lat="44.81634" lon="5.87581">
        <ele>880.4</ele>
        <time>2015-07-25T12:25:27Z</time>
      </trkpt>
      <trkpt lat="44.81634" lon="5.87583">
        <ele>885.6</ele>
        <time>2015-07-25T12:25:32Z</time>
      </trkpt>
      <trkpt lat="44.81635" lon="5.87585">
        <ele>890</ele>
        <time>2015-07-25T12:25:37Z</time>
      </trkpt>
      <trkpt lat="44.81635" lon="5.87585">
        <ele>890.3</ele>
        <time>2015-07-25T12:25:42Z</time>
      </trkpt>
      <trkpt lat="44.81635" lon="5.87584">
        <ele>890.2</ele>
        <time>2015-07-25T12:25:47Z</time>
      </trkpt>
      <trkpt lat="44.81634" lon="5.87584">
        <ele>888.8</ele>
        <time>2015-07-25T12:25:52Z</time>
      </trkpt>
      <trkpt lat="44.81634" lon="5.87583">
        <ele>888.5</ele>
        <time>2015-07-25T12:25:57Z</time>
      </trkpt>
      <trkpt lat="44.81635" lon="5.87582">
        <ele>887</ele>
        <time>2015-07-25T12:26:02Z</time>
      </trkpt>
      <trkpt lat="44.81636" lon="5.87581">
        <ele>886.3</ele>
        <time>2015-07-25T12:26:07Z</time>
      </trkpt>
      <trkpt lat="44.81636" lon="5.8758">
        <ele>884.6</ele>
        <time>2015-07-25T12:26:12Z</time>
      </trkpt>
      <trkpt lat="44.81635" lon="5.87579">
        <ele>883.9</ele>
        <time>2015-07-25T12:26:17Z</time>
      </trkpt>
      <trkpt lat="44.81633" lon="5.87579">
        <ele>884.2</ele>
        <time>2015-07-25T12:26:22Z</time>
      </trkpt>
      <trkpt lat="44.8163" lon="5.87579">
        <ele>883.1</ele>
        <time>2015-07-25T12:26:27Z</time>
      </trkpt>
      <trkpt lat="44.81627" lon="5.87579">
        <ele>883.1</ele>
        <time>2015-07-25T12:26:32Z</time>
      </trkpt>
      <trkpt lat="44.81627" lon="5.87578">
        <ele>879</ele>
        <time>2015-07-25T12:26:37Z</time>
      </trkpt>
      <trkpt lat="44.81629" lon="5.87576">
        <ele>875</ele>
        <time>2015-07-25T12:26:42Z</time>
      </trkpt>
      <trkpt lat="44.8163" lon="5.87576">
        <ele>876.3</ele>
        <time>2015-07-25T12:26:47Z</time>
      </trkpt>
      <trkpt lat="44.81634" lon="5.87574">
        <ele>868.4</ele>
        <time>2015-07-25T12:26:52Z</time>
      </trkpt>
      <trkpt lat="44.81633" lon="5.87577">
        <ele>874.7</ele>
        <time>2015-07-25T12:26:57Z</time>
      </trkpt>
      <trkpt lat="44.81633" lon="5.87578">
        <ele>880</ele>
        <time>2015-07-25T12:27:02Z</time>
      </trkpt>
      <trkpt lat="44.81634" lon="5.87579">
        <ele>879</ele>
        <time>2015-07-25T12:27:07Z</time>
      </trkpt>
      <trkpt lat="44.81635" lon="5.87579">
        <ele>877</ele>
        <time>2015-07-25T12:27:12Z</time>
      </trkpt>
      <trkpt lat="44.81634" lon="5.87579">
        <ele>877.5</ele>
        <time>2015-07-25T12:27:17Z</time>
      </trkpt>
      <trkpt lat="44.81635" lon="5.87579">
        <ele>876.8</ele>
        <time>2015-07-25T12:27:22Z</time>
      </trkpt>
      <trkpt lat="44.81635" lon="5.87579">
        <ele>876.5</ele>
        <time>2015-07-25T12:27:27Z</time>
      </trkpt>
      <trkpt lat="44.81634" lon="5.8758">
        <ele>880.3</ele>
        <time>2015-07-25T12:27:32Z</time>
      </trkpt>
      <trkpt lat="44.81633" lon="5.87581">
        <ele>884.9</ele>
        <time>2015-07-25T12:27:37Z</time>
      </trkpt>
      <trkpt lat="44.81634" lon="5.87582">
        <ele>885.8</ele>
        <time>2015-07-25T12:27:42Z</time>
      </trkpt>
      <trkpt lat="44.81633" lon="5.87583">
        <ele>890.3</ele>
        <time>2015-07-25T12:27:47Z</time>
      </trkpt>
      <trkpt lat="44.81633" lon="5.87583">
        <ele>893.1</ele>
        <time>2015-07-25T12:27:52Z</time>
      </trkpt>
      <trkpt lat="44.81633" lon="5.87582">
        <ele>890.9</ele>
        <time>2015-07-25T12:27:57Z</time>
      </trkpt>
      <trkpt lat="44.81633" lon="5.87582">
        <ele>890.6</ele>
        <time>2015-07-25T12:28:02Z</time>
      </trkpt>
      <trkpt lat="44.81634" lon="5.87583">
        <ele>890.2</ele>
        <time>2015-07-25T12:28:07Z</time>
      </trkpt>
      <trkpt lat="44.81635" lon="5.87583">
        <ele>888</ele>
        <time>2015-07-25T12:28:12Z</time>
      </trkpt>
      <trkpt lat="44.81635" lon="5.87582">
        <ele>886.8</ele>
        <time>2015-07-25T12:28:17Z</time>
      </trkpt>
      <trkpt lat="44.81635" lon="5.87582">
        <ele>886.4</ele>
        <time>2015-07-25T12:28:22Z</time>
      </trkpt>
      <trkpt lat="44.81635" lon="5.87582">
        <ele>885.9</ele>
        <time>2015-07-25T12:28:27Z</time>
      </trkpt>
      <trkpt lat="44.81635" lon="5.87581">
        <ele>885.4</ele>
        <time>2015-07-25T12:28:32Z</time>
      </trkpt>
      <trkpt lat="44.81636" lon="5.87583">
        <ele>885</ele>
        <time>2015-07-25T12:28:37Z</time>
      </trkpt>
      <trkpt lat="44.81639" lon="5.87585">
        <ele>886.2</ele>
        <time>2015-07-25T12:28:42Z</time>
      </trkpt>
      <trkpt lat="44.81639" lon="5.87588">
        <ele>887.2</ele>
        <time>2015-07-25T12:28:47Z</time>
      </trkpt>
      <trkpt lat="44.81641" lon="5.87589">
        <ele>888</ele>
        <time>2015-07-25T12:28:52Z</time>
      </trkpt>
      <trkpt lat="44.81641" lon="5.87589">
        <ele>888.9</ele>
        <time>2015-07-25T12:28:57Z</time>
      </trkpt>
      <trkpt lat="44.81644" lon="5.8759">
        <ele>886.6</ele>
        <time>2015-07-25T12:29:02Z</time>
      </trkpt>
      <trkpt lat="44.81646" lon="5.87592">
        <ele>881.6</ele>
        <time>2015-07-25T12:29:07Z</time>
      </trkpt>
      <trkpt lat="44.81649" lon="5.87591">
        <ele>876.5</ele>
        <time>2015-07-25T12:29:12Z</time>
      </trkpt>
      <trkpt lat="44.81651" lon="5.87588">
        <ele>870.5</ele>
        <time>2015-07-25T12:29:17Z</time>
      </trkpt>
      <trkpt lat="44.81651" lon="5.87589">
        <ele>870.4</ele>
        <time>2015-07-25T12:29:22Z</time>
      </trkpt>
      <trkpt lat="44.81647" lon="5.876">
        <ele>872.8</ele>
        <time>2015-07-25T12:29:27Z</time>
      </trkpt>
      <trkpt lat="44.81646" lon="5.87602">
        <ele>873.1</ele>
        <time>2015-07-25T12:29:32Z</time>
      </trkpt>
      <trkpt lat="44.81645" lon="5.8759">
        <ele>881.2</ele>
        <time>2015-07-25T12:29:37Z</time>
      </trkpt>
      <trkpt lat="44.8164" lon="5.87591">
        <ele>885.6</ele>
        <time>2015-07-25T12:29:42Z</time>
      </trkpt>
      <trkpt lat="44.81641" lon="5.87591">
        <ele>881.4</ele>
        <time>2015-07-25T12:29:47Z</time>
      </trkpt>
      <trkpt lat="44.81643" lon="5.87589">
        <ele>876</ele>
        <time>2015-07-25T12:29:52Z</time>
      </trkpt>
      <trkpt lat="44.81645" lon="5.87588">
        <ele>871.7</ele>
        <time>2015-07-25T12:29:57Z</time>
      </trkpt>
      <trkpt lat="44.81645" lon="5.87588">
        <ele>873</ele>
        <time>2015-07-25T12:30:02Z</time>
      </trkpt>
      <trkpt lat="44.81646" lon="5.87587">
        <ele>873.3</ele>
        <time>2015-07-25T12:30:07Z</time>
      </trkpt>
      <trkpt lat="44.81648" lon="5.87588">
        <ele>872.9</ele>
        <time>2015-07-25T12:30:12Z</time>
      </trkpt>
      <trkpt lat="44.81649" lon="5.87589">
        <ele>874.7</ele>
        <time>2015-07-25T12:30:17Z</time>
      </trkpt>
      <trkpt lat="44.81649" lon="5.87591">
        <ele>874.6</ele>
        <time>2015-07-25T12:30:22Z</time>
      </trkpt>
      <trkpt lat="44.81648" lon="5.87587">
        <ele>867.7</ele>
        <time>2015-07-25T12:30:27Z</time>
      </trkpt>
      <trkpt lat="44.81646" lon="5.87586">
        <ele>865.7</ele>
        <time>2015-07-25T12:30:32Z</time>
      </trkpt>
      <trkpt lat="44.81648" lon="5.87584">
        <ele>868.8</ele>
        <time>2015-07-25T12:30:37Z</time>
      </trkpt>
      <trkpt lat="44.81648" lon="5.87584">
        <ele>871.3</ele>
        <time>2015-07-25T12:30:42Z</time>
      </trkpt>
      <trkpt lat="44.81649" lon="5.87586">
        <ele>874.5</ele>
        <time>2015-07-25T12:30:47Z</time>
      </trkpt>
      <trkpt lat="44.81648" lon="5.87589">
        <ele>874.8</ele>
        <time>2015-07-25T12:30:52Z</time>
      </trkpt>
      <trkpt lat="44.81647" lon="5.87588">
        <ele>871.3</ele>
        <time>2015-07-25T12:30:57Z</time>
      </trkpt>
      <trkpt lat="44.81645" lon="5.87583">
        <ele>863.5</ele>
        <time>2015-07-25T12:31:02Z</time>
      </trkpt>
      <trkpt lat="44.81644" lon="5.87583">
        <ele>862.4</ele>
        <time>2015-07-25T12:31:07Z</time>
      </trkpt>
      <trkpt lat="44.81651" lon="5.8759">
        <ele>864.5</ele>
        <time>2015-07-25T12:31:14Z</time>
      </trkpt>
      <trkpt lat="44.81653" lon="5.87592">
        <ele>870.5</ele>
        <time>2015-07-25T12:31:19Z</time>
      </trkpt>
      <trkpt lat="44.81653" lon="5.87594">
        <ele>872.1</ele>
        <time>2015-07-25T12:31:24Z</time>
      </trkpt>
      <trkpt lat="44.81654" lon="5.87595">
        <ele>874.5</ele>
        <time>2015-07-25T12:31:29Z</time>
      </trkpt>
      <trkpt lat="44.81656" lon="5.876">
        <ele>879.2</ele>
        <time>2015-07-25T12:31:34Z</time>
      </trkpt>
      <trkpt lat="44.81656" lon="5.87601">
        <ele>880.7</ele>
        <time>2015-07-25T12:31:39Z</time>
      </trkpt>
      <trkpt lat="44.81659" lon="5.87601">
        <ele>880</ele>
        <time>2015-07-25T12:31:44Z</time>
      </trkpt>
      <trkpt lat="44.81659" lon="5.87597">
        <ele>875.7</ele>
        <time>2015-07-25T12:31:49Z</time>
      </trkpt>
      <trkpt lat="44.81656" lon="5.87594">
        <ele>876.7</ele>
        <time>2015-07-25T12:31:54Z</time>
      </trkpt>
      <trkpt lat="44.81655" lon="5.87594">
        <ele>878.9</ele>
        <time>2015-07-25T12:31:59Z</time>
      </trkpt>
      <trkpt lat="44.81654" lon="5.87594">
        <ele>886.9</ele>
        <time>2015-07-25T12:32:04Z</time>
      </trkpt>
      <trkpt lat="44.81652" lon="5.87594">
        <ele>892.8</ele>
        <time>2015-07-25T12:32:09Z</time>
      </trkpt>
      <trkpt lat="44.81652" lon="5.87593">
        <ele>902.2</ele>
        <time>2015-07-25T12:32:14Z</time>
      </trkpt>
      <trkpt lat="44.81652" lon="5.87593">
        <ele>903.9</ele>
        <time>2015-07-25T12:32:19Z</time>
      </trkpt>
      <trkpt lat="44.81651" lon="5.87594">
        <ele>901.6</ele>
        <time>2015-07-25T12:32:24Z</time>
      </trkpt>
      <trkpt lat="44.8165" lon="5.87595">
        <ele>897.9</ele>
        <time>2015-07-25T12:32:29Z</time>
      </trkpt>
      <trkpt lat="44.81652" lon="5.87593">
        <ele>889.3</ele>
        <time>2015-07-25T12:32:34Z</time>
      </trkpt>
      <trkpt lat="44.81652" lon="5.87593">
        <ele>877.4</ele>
        <time>2015-07-25T12:32:39Z</time>
      </trkpt>
      <trkpt lat="44.81652" lon="5.87592">
        <ele>874</ele>
        <time>2015-07-25T12:32:44Z</time>
      </trkpt>
      <trkpt lat="44.81653" lon="5.87591">
        <ele>872.3</ele>
        <time>2015-07-25T12:32:49Z</time>
      </trkpt>
      <trkpt lat="44.81653" lon="5.87591">
        <ele>868.7</ele>
        <time>2015-07-25T12:32:54Z</time>
      </trkpt>
      <trkpt lat="44.81654" lon="5.8759">
        <ele>874.6</ele>
        <time>2015-07-25T12:32:59Z</time>
      </trkpt>
      <trkpt lat="44.81654" lon="5.8759">
        <ele>874.4</ele>
        <time>2015-07-25T12:33:04Z</time>
      </trkpt>
      <trkpt lat="44.81654" lon="5.8759">
        <ele>874.6</ele>
        <time>2015-07-25T12:33:09Z</time>
      </trkpt>
      <trkpt lat="44.81654" lon="5.8759">
        <ele>874.1</ele>
        <time>2015-07-25T12:33:14Z</time>
      </trkpt>
      <trkpt lat="44.81654" lon="5.8759">
        <ele>874.9</ele>
        <time>2015-07-25T12:33:19Z</time>
      </trkpt>
      <trkpt lat="44.81655" lon="5.87591">
        <ele>876.9</ele>
        <time>2015-07-25T12:33:24Z</time>
      </trkpt>
      <trkpt lat="44.81654" lon="5.87592">
        <ele>875.5</ele>
        <time>2015-07-25T12:33:29Z</time>
      </trkpt>
      <trkpt lat="44.81655" lon="5.87593">
        <ele>873.8</ele>
        <time>2015-07-25T12:33:34Z</time>
      </trkpt>
      <trkpt lat="44.81654" lon="5.87592">
        <ele>870.1</ele>
        <time>2015-07-25T12:33:39Z</time>
      </trkpt>
      <trkpt lat="44.81655" lon="5.87592">
        <ele>867.5</ele>
        <time>2015-07-25T12:33:44Z</time>
      </trkpt>
      <trkpt lat="44.81657" lon="5.87595">
        <ele>869.9</ele>
        <time>2015-07-25T12:33:49Z</time>
      </trkpt>
      <trkpt lat="44.81656" lon="5.87593">
        <ele>868.6</ele>
        <time>2015-07-25T12:33:54Z</time>
      </trkpt>
      <trkpt lat="44.81654" lon="5.87592">
        <ele>866.6</ele>
        <time>2015-07-25T12:33:59Z</time>
      </trkpt>
      <trkpt lat="44.81653" lon="5.87591">
        <ele>860.9</ele>
        <time>2015-07-25T12:34:04Z</time>
      </trkpt>
      <trkpt lat="44.81653" lon="5.87591">
        <ele>860.9</ele>
        <time>2015-07-25T12:34:09Z</time>
      </trkpt>
      <trkpt lat="44.81654" lon="5.87593">
        <ele>859</ele>
        <time>2015-07-25T12:34:14Z</time>
      </trkpt>
      <trkpt lat="44.81656" lon="5.87595">
        <ele>867.3</ele>
        <time>2015-07-25T12:34:19Z</time>
      </trkpt>
      <trkpt lat="44.81656" lon="5.87594">
        <ele>868.4</ele>
        <time>2015-07-25T12:34:24Z</time>
      </trkpt>
      <trkpt lat="44.81656" lon="5.87595">
        <ele>877</ele>
        <time>2015-07-25T12:34:29Z</time>
      </trkpt>
      <trkpt lat="44.81656" lon="5.87594">
        <ele>879.3</ele>
        <time>2015-07-25T12:34:34Z</time>
      </trkpt>
      <trkpt lat="44.81656" lon="5.87594">
        <ele>881</ele>
        <time>2015-07-25T12:34:39Z</time>
      </trkpt>
      <trkpt lat="44.81656" lon="5.87593">
        <ele>883</ele>
        <time>2015-07-25T12:34:44Z</time>
      </trkpt>
      <trkpt lat="44.81656" lon="5.87593">
        <ele>882.1</ele>
        <time>2015-07-25T12:34:49Z</time>
      </trkpt>
      <trkpt lat="44.81655" lon="5.87593">
        <ele>881.5</ele>
        <time>2015-07-25T12:34:54Z</time>
      </trkpt>
      <trkpt lat="44.81655" lon="5.87592">
        <ele>879.4</ele>
        <time>2015-07-25T12:34:59Z</time>
      </trkpt>
      <trkpt lat="44.81654" lon="5.87592">
        <ele>877.2</ele>
        <time>2015-07-25T12:35:04Z</time>
      </trkpt>
      <trkpt lat="44.81655" lon="5.87593">
        <ele>877.1</ele>
        <time>2015-07-25T12:35:09Z</time>
      </trkpt>
      <trkpt lat="44.81656" lon="5.87594">
        <ele>879.1</ele>
        <time>2015-07-25T12:35:14Z</time>
      </trkpt>
      <trkpt lat="44.81656" lon="5.87594">
        <ele>881.9</ele>
        <time>2015-07-25T12:35:19Z</time>
      </trkpt>
      <trkpt lat="44.81657" lon="5.87593">
        <ele>881.8</ele>
        <time>2015-07-25T12:35:24Z</time>
      </trkpt>
      <trkpt lat="44.81656" lon="5.87593">
        <ele>879.5</ele>
        <time>2015-07-25T12:35:29Z</time>
      </trkpt>
      <trkpt lat="44.81656" lon="5.87594">
        <ele>878.1</ele>
        <time>2015-07-25T12:35:34Z</time>
      </trkpt>
      <trkpt lat="44.81655" lon="5.87595">
        <ele>876.1</ele>
        <time>2015-07-25T12:35:39Z</time>
      </trkpt>
      <trkpt lat="44.81655" lon="5.87596">
        <ele>874.8</ele>
        <time>2015-07-25T12:35:44Z</time>
      </trkpt>
      <trkpt lat="44.81656" lon="5.87597">
        <ele>878.5</ele>
        <time>2015-07-25T12:35:49Z</time>
      </trkpt>
      <trkpt lat="44.81657" lon="5.87597">
        <ele>881.7</ele>
        <time>2015-07-25T12:35:54Z</time>
      </trkpt>
      <trkpt lat="44.81657" lon="5.87599">
        <ele>886</ele>
        <time>2015-07-25T12:35:59Z</time>
      </trkpt>
      <trkpt lat="44.81656" lon="5.87598">
        <ele>887.8</ele>
        <time>2015-07-25T12:36:04Z</time>
      </trkpt>
      <trkpt lat="44.81656" lon="5.87599">
        <ele>892.4</ele>
        <time>2015-07-25T12:36:09Z</time>
      </trkpt>
      <trkpt lat="44.81658" lon="5.87602">
        <ele>902.8</ele>
        <time>2015-07-25T12:36:14Z</time>
      </trkpt>
      <trkpt lat="44.81659" lon="5.876">
        <ele>898.4</ele>
        <time>2015-07-25T12:36:19Z</time>
      </trkpt>
      <trkpt lat="44.8166" lon="5.876">
        <ele>902.7</ele>
        <time>2015-07-25T12:36:24Z</time>
      </trkpt>
      <trkpt lat="44.81659" lon="5.87598">
        <ele>902.9</ele>
        <time>2015-07-25T12:36:29Z</time>
      </trkpt>
      <trkpt lat="44.81659" lon="5.87597">
        <ele>900.9</ele>
        <time>2015-07-25T12:36:34Z</time>
      </trkpt>
      <trkpt lat="44.81658" lon="5.87594">
        <ele>896.9</ele>
        <time>2015-07-25T12:36:39Z</time>
      </trkpt>
      <trkpt lat="44.81656" lon="5.87596">
        <ele>890.1</ele>
        <time>2015-07-25T12:36:44Z</time>
      </trkpt>
      <trkpt lat="44.81658" lon="5.87595">
        <ele>884.5</ele>
        <time>2015-07-25T12:36:49Z</time>
      </trkpt>
      <trkpt lat="44.81659" lon="5.87594">
        <ele>879.2</ele>
        <time>2015-07-25T12:36:54Z</time>
      </trkpt>
      <trkpt lat="44.8166" lon="5.87593">
        <ele>874.1</ele>
        <time>2015-07-25T12:36:59Z</time>
      </trkpt>
      <trkpt lat="44.81658" lon="5.87593">
        <ele>871.2</ele>
        <time>2015-07-25T12:37:04Z</time>
      </trkpt>
      <trkpt lat="44.81659" lon="5.87593">
        <ele>868.6</ele>
        <time>2015-07-25T12:37:09Z</time>
      </trkpt>
      <trkpt lat="44.81658" lon="5.87593">
        <ele>867.5</ele>
        <time>2015-07-25T12:37:14Z</time>
      </trkpt>
      <trkpt lat="44.8166" lon="5.87592">
        <ele>867.5</ele>
        <time>2015-07-25T12:37:19Z</time>
      </trkpt>
      <trkpt lat="44.81661" lon="5.87595">
        <ele>869.6</ele>
        <time>2015-07-25T12:37:24Z</time>
      </trkpt>
      <trkpt lat="44.81662" lon="5.87593">
        <ele>869.8</ele>
        <time>2015-07-25T12:37:29Z</time>
      </trkpt>
      <trkpt lat="44.81659" lon="5.87593">
        <ele>871.8</ele>
        <time>2015-07-25T12:37:34Z</time>
      </trkpt>
      <trkpt lat="44.81659" lon="5.87592">
        <ele>871.7</ele>
        <time>2015-07-25T12:37:39Z</time>
      </trkpt>
      <trkpt lat="44.81657" lon="5.87594">
        <ele>874</ele>
        <time>2015-07-25T12:37:44Z</time>
      </trkpt>
      <trkpt lat="44.81659" lon="5.87595">
        <ele>881.5</ele>
        <time>2015-07-25T12:37:49Z</time>
      </trkpt>
      <trkpt lat="44.81659" lon="5.87593">
        <ele>886.5</ele>
        <time>2015-07-25T12:37:54Z</time>
      </trkpt>
      <trkpt lat="44.81657" lon="5.87595">
        <ele>893.4</ele>
        <time>2015-07-25T12:37:59Z</time>
      </trkpt>
      <trkpt lat="44.81657" lon="5.87596">
        <ele>896.6</ele>
        <time>2015-07-25T12:38:04Z</time>
      </trkpt>
      <trkpt lat="44.81659" lon="5.87596">
        <ele>897.8</ele>
        <time>2015-07-25T12:38:09Z</time>
      </trkpt>
      <trkpt lat="44.81656" lon="5.87596">
        <ele>899.5</ele>
        <time>2015-07-25T12:38:14Z</time>
      </trkpt>
      <trkpt lat="44.81656" lon="5.87596">
        <ele>901.6</ele>
        <time>2015-07-25T12:38:19Z</time>
      </trkpt>
      <trkpt lat="44.81655" lon="5.87597">
        <ele>904.9</ele>
        <time>2015-07-25T12:38:24Z</time>
      </trkpt>
      <trkpt lat="44.81655" lon="5.87596">
        <ele>904.4</ele>
        <time>2015-07-25T12:38:29Z</time>
      </trkpt>
      <trkpt lat="44.81653" lon="5.87593">
        <ele>899</ele>
        <time>2015-07-25T12:38:34Z</time>
      </trkpt>
      <trkpt lat="44.81653" lon="5.87593">
        <ele>897.3</ele>
        <time>2015-07-25T12:38:39Z</time>
      </trkpt>
      <trkpt lat="44.81654" lon="5.87592">
        <ele>891.6</ele>
        <time>2015-07-25T12:38:44Z</time>
      </trkpt>
      <trkpt lat="44.81655" lon="5.87592">
        <ele>886.2</ele>
        <time>2015-07-25T12:38:49Z</time>
      </trkpt>
      <trkpt lat="44.81657" lon="5.8759">
        <ele>881.7</ele>
        <time>2015-07-25T12:38:54Z</time>
      </trkpt>
      <trkpt lat="44.81658" lon="5.8759">
        <ele>883.7</ele>
        <time>2015-07-25T12:38:59Z</time>
      </trkpt>
      <trkpt lat="44.81657" lon="5.87589">
        <ele>884.8</ele>
        <time>2015-07-25T12:39:04Z</time>
      </trkpt>
      <trkpt lat="44.81656" lon="5.87591">
        <ele>885.7</ele>
        <time>2015-07-25T12:39:09Z</time>
      </trkpt>
      <trkpt lat="44.81656" lon="5.87592">
        <ele>888.6</ele>
        <time>2015-07-25T12:39:14Z</time>
      </trkpt>
      <trkpt lat="44.81656" lon="5.87593">
        <ele>888.6</ele>
        <time>2015-07-25T12:39:19Z</time>
      </trkpt>
      <trkpt lat="44.81656" lon="5.87593">
        <ele>888.4</ele>
        <time>2015-07-25T12:39:24Z</time>
      </trkpt>
      <trkpt lat="44.81657" lon="5.87592">
        <ele>887.7</ele>
        <time>2015-07-25T12:39:29Z</time>
      </trkpt>
      <trkpt lat="44.81656" lon="5.87593">
        <ele>886.3</ele>
        <time>2015-07-25T12:39:34Z</time>
      </trkpt>
      <trkpt lat="44.81654" lon="5.87595">
        <ele>886</ele>
        <time>2015-07-25T12:39:39Z</time>
      </trkpt>
      <trkpt lat="44.81653" lon="5.87594">
        <ele>882.3</ele>
        <time>2015-07-25T12:39:44Z</time>
      </trkpt>
      <trkpt lat="44.81653" lon="5.87593">
        <ele>883.9</ele>
        <time>2015-07-25T12:39:49Z</time>
      </trkpt>
      <trkpt lat="44.81653" lon="5.87594">
        <ele>888.2</ele>
        <time>2015-07-25T12:39:54Z</time>
      </trkpt>
      <trkpt lat="44.81653" lon="5.87595">
        <ele>894.2</ele>
        <time>2015-07-25T12:39:59Z</time>
      </trkpt>
      <trkpt lat="44.81653" lon="5.87595">
        <ele>896.6</ele>
        <time>2015-07-25T12:40:04Z</time>
      </trkpt>
      <trkpt lat="44.81654" lon="5.87594">
        <ele>894</ele>
        <time>2015-07-25T12:40:09Z</time>
      </trkpt>
      <trkpt lat="44.81655" lon="5.87594">
        <ele>891.3</ele>
        <time>2015-07-25T12:40:14Z</time>
      </trkpt>
      <trkpt lat="44.81656" lon="5.87593">
        <ele>888.3</ele>
        <time>2015-07-25T12:40:19Z</time>
      </trkpt>
      <trkpt lat="44.81656" lon="5.87593">
        <ele>884.3</ele>
        <time>2015-07-25T12:40:24Z</time>
      </trkpt>
      <trkpt lat="44.81656" lon="5.87593">
        <ele>879.9</ele>
        <time>2015-07-25T12:40:29Z</time>
      </trkpt>
      <trkpt lat="44.81656" lon="5.87593">
        <ele>878.6</ele>
        <time>2015-07-25T12:40:34Z</time>
      </trkpt>
      <trkpt lat="44.81656" lon="5.87592">
        <ele>878.4</ele>
        <time>2015-07-25T12:40:39Z</time>
      </trkpt>
      <trkpt lat="44.81655" lon="5.87592">
        <ele>877.9</ele>
        <time>2015-07-25T12:40:44Z</time>
      </trkpt>
      <trkpt lat="44.81655" lon="5.87592">
        <ele>876.7</ele>
        <time>2015-07-25T12:40:49Z</time>
      </trkpt>
      <trkpt lat="44.81656" lon="5.87591">
        <ele>874.9</ele>
        <time>2015-07-25T12:40:54Z</time>
      </trkpt>
      <trkpt lat="44.81656" lon="5.8759">
        <ele>876.1</ele>
        <time>2015-07-25T12:40:59Z</time>
      </trkpt>
      <trkpt lat="44.81656" lon="5.87592">
        <ele>876.9</ele>
        <time>2015-07-25T12:41:04Z</time>
      </trkpt>
      <trkpt lat="44.81656" lon="5.8759">
        <ele>877.3</ele>
        <time>2015-07-25T12:41:09Z</time>
      </trkpt>
      <trkpt lat="44.81655" lon="5.87592">
        <ele>880.4</ele>
        <time>2015-07-25T12:41:14Z</time>
      </trkpt>
      <trkpt lat="44.81654" lon="5.87592">
        <ele>881.2</ele>
        <time>2015-07-25T12:41:19Z</time>
      </trkpt>
      <trkpt lat="44.81657" lon="5.8759">
        <ele>884.9</ele>
        <time>2015-07-25T12:41:24Z</time>
      </trkpt>
      <trkpt lat="44.81658" lon="5.87588">
        <ele>889.7</ele>
        <time>2015-07-25T12:41:29Z</time>
      </trkpt>
      <trkpt lat="44.81659" lon="5.87587">
        <ele>890.5</ele>
        <time>2015-07-25T12:41:34Z</time>
      </trkpt>
      <trkpt lat="44.8166" lon="5.87586">
        <ele>891.5</ele>
        <time>2015-07-25T12:41:39Z</time>
      </trkpt>
      <trkpt lat="44.81656" lon="5.8759">
        <ele>893.5</ele>
        <time>2015-07-25T12:41:44Z</time>
      </trkpt>
      <trkpt lat="44.81657" lon="5.87589">
        <ele>892</ele>
        <time>2015-07-25T12:41:49Z</time>
      </trkpt>
      <trkpt lat="44.81657" lon="5.87589">
        <ele>890.9</ele>
        <time>2015-07-25T12:41:54Z</time>
      </trkpt>
      <trkpt lat="44.8166" lon="5.87586">
        <ele>888.6</ele>
        <time>2015-07-25T12:41:59Z</time>
      </trkpt>
      <trkpt lat="44.81662" lon="5.87583">
        <ele>885.5</ele>
        <time>2015-07-25T12:42:04Z</time>
      </trkpt>
      <trkpt lat="44.81662" lon="5.87584">
        <ele>882.1</ele>
        <time>2015-07-25T12:42:09Z</time>
      </trkpt>
      <trkpt lat="44.81661" lon="5.87584">
        <ele>881.9</ele>
        <time>2015-07-25T12:42:14Z</time>
      </trkpt>
      <trkpt lat="44.8166" lon="5.87585">
        <ele>881.7</ele>
        <time>2015-07-25T12:42:19Z</time>
      </trkpt>
      <trkpt lat="44.81663" lon="5.87581">
        <ele>881.6</ele>
        <time>2015-07-25T12:42:24Z</time>
      </trkpt>
      <trkpt lat="44.81665" lon="5.87578">
        <ele>882.8</ele>
        <time>2015-07-25T12:42:29Z</time>
      </trkpt>
      <trkpt lat="44.81667" lon="5.87577">
        <ele>880.1</ele>
        <time>2015-07-25T12:42:34Z</time>
      </trkpt>
      <trkpt lat="44.81666" lon="5.87578">
        <ele>877.8</ele>
        <time>2015-07-25T12:42:39Z</time>
      </trkpt>
      <trkpt lat="44.81664" lon="5.87581">
        <ele>871.5</ele>
        <time>2015-07-25T12:42:44Z</time>
      </trkpt>
      <trkpt lat="44.81662" lon="5.87583">
        <ele>870</ele>
        <time>2015-07-25T12:42:49Z</time>
      </trkpt>
      <trkpt lat="44.81664" lon="5.87581">
        <ele>869.6</ele>
        <time>2015-07-25T12:42:54Z</time>
      </trkpt>
      <trkpt lat="44.81664" lon="5.87582">
        <ele>861.5</ele>
        <time>2015-07-25T12:42:59Z</time>
      </trkpt>
      <trkpt lat="44.81662" lon="5.87584">
        <ele>856.9</ele>
        <time>2015-07-25T12:43:04Z</time>
      </trkpt>
      <trkpt lat="44.81666" lon="5.87579">
        <ele>852.1</ele>
        <time>2015-07-25T12:43:09Z</time>
      </trkpt>
      <trkpt lat="44.81669" lon="5.87577">
        <ele>851.7</ele>
        <time>2015-07-25T12:43:14Z</time>
      </trkpt>
      <trkpt lat="44.81666" lon="5.87578">
        <ele>853.5</ele>
        <time>2015-07-25T12:43:19Z</time>
      </trkpt>
      <trkpt lat="44.81664" lon="5.87579">
        <ele>851.6</ele>
        <time>2015-07-25T12:43:24Z</time>
      </trkpt>
      <trkpt lat="44.81659" lon="5.87582">
        <ele>847.2</ele>
        <time>2015-07-25T12:43:29Z</time>
      </trkpt>
      <trkpt lat="44.81656" lon="5.87586">
        <ele>853.8</ele>
        <time>2015-07-25T12:43:34Z</time>
      </trkpt>
      <trkpt lat="44.81654" lon="5.87587">
        <ele>858.7</ele>
        <time>2015-07-25T12:43:39Z</time>
      </trkpt>
      <trkpt lat="44.81656" lon="5.87587">
        <ele>861.6</ele>
        <time>2015-07-25T12:43:44Z</time>
      </trkpt>
      <trkpt lat="44.81653" lon="5.87587">
        <ele>860.1</ele>
        <time>2015-07-25T12:43:49Z</time>
      </trkpt>
      <trkpt lat="44.81651" lon="5.87588">
        <ele>859.7</ele>
        <time>2015-07-25T12:43:54Z</time>
      </trkpt>
      <trkpt lat="44.81653" lon="5.87588">
        <ele>862.4</ele>
        <time>2015-07-25T12:43:59Z</time>
      </trkpt>
      <trkpt lat="44.81649" lon="5.8759">
        <ele>871.4</ele>
        <time>2015-07-25T12:44:04Z</time>
      </trkpt>
      <trkpt lat="44.81646" lon="5.87592">
        <ele>883.2</ele>
        <time>2015-07-25T12:44:09Z</time>
      </trkpt>
      <trkpt lat="44.81648" lon="5.87594">
        <ele>896.1</ele>
        <time>2015-07-25T12:44:14Z</time>
      </trkpt>
      <trkpt lat="44.81649" lon="5.87595">
        <ele>903</ele>
        <time>2015-07-25T12:44:19Z</time>
      </trkpt>
      <trkpt lat="44.81648" lon="5.87596">
        <ele>909.6</ele>
        <time>2015-07-25T12:44:24Z</time>
      </trkpt>
      <trkpt lat="44.81645" lon="5.876">
        <ele>921.2</ele>
        <time>2015-07-25T12:44:29Z</time>
      </trkpt>
      <trkpt lat="44.81646" lon="5.876">
        <ele>914.1</ele>
        <time>2015-07-25T12:44:34Z</time>
      </trkpt>
      <trkpt lat="44.81646" lon="5.87599">
        <ele>908.9</ele>
        <time>2015-07-25T12:44:39Z</time>
      </trkpt>
      <trkpt lat="44.81646" lon="5.87599">
        <ele>902.7</ele>
        <time>2015-07-25T12:44:44Z</time>
      </trkpt>
      <trkpt lat="44.81648" lon="5.87598">
        <ele>904.3</ele>
        <time>2015-07-25T12:44:49Z</time>
      </trkpt>
      <trkpt lat="44.81648" lon="5.87597">
        <ele>902</ele>
        <time>2015-07-25T12:44:54Z</time>
      </trkpt>
      <trkpt lat="44.81651" lon="5.87594">
        <ele>899.6</ele>
        <time>2015-07-25T12:44:59Z</time>
      </trkpt>
      <trkpt lat="44.81649" lon="5.87596">
        <ele>899.3</ele>
        <time>2015-07-25T12:45:04Z</time>
      </trkpt>
      <trkpt lat="44.81646" lon="5.87599">
        <ele>900.9</ele>
        <time>2015-07-25T12:45:09Z</time>
      </trkpt>
      <trkpt lat="44.81647" lon="5.87598">
        <ele>899</ele>
        <time>2015-07-25T12:45:14Z</time>
      </trkpt>
      <trkpt lat="44.81648" lon="5.87597">
        <ele>897</ele>
        <time>2015-07-25T12:45:19Z</time>
      </trkpt>
      <trkpt lat="44.81647" lon="5.87598">
        <ele>896.2</ele>
        <time>2015-07-25T12:45:24Z</time>
      </trkpt>
      <trkpt lat="44.81649" lon="5.87596">
        <ele>891.4</ele>
        <time>2015-07-25T12:45:29Z</time>
      </trkpt>
      <trkpt lat="44.81653" lon="5.87592">
        <ele>877.3</ele>
        <time>2015-07-25T12:45:34Z</time>
      </trkpt>
      <trkpt lat="44.81656" lon="5.87589">
        <ele>868.6</ele>
        <time>2015-07-25T12:45:39Z</time>
      </trkpt>
      <trkpt lat="44.81659" lon="5.87586">
        <ele>854.2</ele>
        <time>2015-07-25T12:45:44Z</time>
      </trkpt>
      <trkpt lat="44.81661" lon="5.87583">
        <ele>848.8</ele>
        <time>2015-07-25T12:45:49Z</time>
      </trkpt>
      <trkpt lat="44.81662" lon="5.87581">
        <ele>839.5</ele>
        <time>2015-07-25T12:45:54Z</time>
      </trkpt>
      <trkpt lat="44.81661" lon="5.87582">
        <ele>841.1</ele>
        <time>2015-07-25T12:45:59Z</time>
      </trkpt>
      <trkpt lat="44.8166" lon="5.87582">
        <ele>854</ele>
        <time>2015-07-25T12:46:04Z</time>
      </trkpt>
      <trkpt lat="44.81657" lon="5.87585">
        <ele>866</ele>
        <time>2015-07-25T12:46:09Z</time>
      </trkpt>
      <trkpt lat="44.81653" lon="5.87583">
        <ele>876.9</ele>
        <time>2015-07-25T12:46:14Z</time>
      </trkpt>
      <trkpt lat="44.81653" lon="5.87585">
        <ele>880.7</ele>
        <time>2015-07-25T12:46:19Z</time>
      </trkpt>
      <trkpt lat="44.81656" lon="5.87586">
        <ele>880.9</ele>
        <time>2015-07-25T12:46:24Z</time>
      </trkpt>
      <trkpt lat="44.81654" lon="5.87589">
        <ele>881.1</ele>
        <time>2015-07-25T12:46:29Z</time>
      </trkpt>
      <trkpt lat="44.81652" lon="5.87591">
        <ele>877.8</ele>
        <time>2015-07-25T12:46:34Z</time>
      </trkpt>
      <trkpt lat="44.81652" lon="5.87591">
        <ele>875.9</ele>
        <time>2015-07-25T12:46:39Z</time>
      </trkpt>
      <trkpt lat="44.81651" lon="5.87593">
        <ele>872.6</ele>
        <time>2015-07-25T12:46:44Z</time>
      </trkpt>
      <trkpt lat="44.81652" lon="5.87591">
        <ele>871.9</ele>
        <time>2015-07-25T12:46:49Z</time>
      </trkpt>
      <trkpt lat="44.81654" lon="5.87588">
        <ele>872.8</ele>
        <time>2015-07-25T12:46:54Z</time>
      </trkpt>
      <trkpt lat="44.81656" lon="5.87587">
        <ele>874.3</ele>
        <time>2015-07-25T12:46:59Z</time>
      </trkpt>
      <trkpt lat="44.81656" lon="5.87586">
        <ele>876</ele>
        <time>2015-07-25T12:47:04Z</time>
      </trkpt>
      <trkpt lat="44.81656" lon="5.87587">
        <ele>876.3</ele>
        <time>2015-07-25T12:47:09Z</time>
      </trkpt>
      <trkpt lat="44.81655" lon="5.87587">
        <ele>877.1</ele>
        <time>2015-07-25T12:47:14Z</time>
      </trkpt>
      <trkpt lat="44.81656" lon="5.87588">
        <ele>876.6</ele>
        <time>2015-07-25T12:47:19Z</time>
      </trkpt>
      <trkpt lat="44.81655" lon="5.87588">
        <ele>871.5</ele>
        <time>2015-07-25T12:47:24Z</time>
      </trkpt>
      <trkpt lat="44.81655" lon="5.87589">
        <ele>864.2</ele>
        <time>2015-07-25T12:47:29Z</time>
      </trkpt>
      <trkpt lat="44.81654" lon="5.87589">
        <ele>863.8</ele>
        <time>2015-07-25T12:47:34Z</time>
      </trkpt>
      <trkpt lat="44.81653" lon="5.87589">
        <ele>864.6</ele>
        <time>2015-07-25T12:47:39Z</time>
      </trkpt>
      <trkpt lat="44.81659" lon="5.87582">
        <ele>860.4</ele>
        <time>2015-07-25T12:47:44Z</time>
      </trkpt>
      <trkpt lat="44.81662" lon="5.87579">
        <ele>865.5</ele>
        <time>2015-07-25T12:47:49Z</time>
      </trkpt>
      <trkpt lat="44.81661" lon="5.8758">
        <ele>863.5</ele>
        <time>2015-07-25T12:47:54Z</time>
      </trkpt>
      <trkpt lat="44.81663" lon="5.87579">
        <ele>853.6</ele>
        <time>2015-07-25T12:47:59Z</time>
      </trkpt>
      <trkpt lat="44.81661" lon="5.87581">
        <ele>846.4</ele>
        <time>2015-07-25T12:48:04Z</time>
      </trkpt>
      <trkpt lat="44.81661" lon="5.87581">
        <ele>853.3</ele>
        <time>2015-07-25T12:48:09Z</time>
      </trkpt>
      <trkpt lat="44.81661" lon="5.87581">
        <ele>849.4</ele>
        <time>2015-07-25T12:48:14Z</time>
      </trkpt>
      <trkpt lat="44.81659" lon="5.87583">
        <ele>852.8</ele>
        <time>2015-07-25T12:48:19Z</time>
      </trkpt>
      <trkpt lat="44.8166" lon="5.87581">
        <ele>859.1</ele>
        <time>2015-07-25T12:48:24Z</time>
      </trkpt>
      <trkpt lat="44.81659" lon="5.87582">
        <ele>864.4</ele>
        <time>2015-07-25T12:48:29Z</time>
      </trkpt>
      <trkpt lat="44.81659" lon="5.87583">
        <ele>863.2</ele>
        <time>2015-07-25T12:48:34Z</time>
      </trkpt>
      <trkpt lat="44.81658" lon="5.87583">
        <ele>868.5</ele>
        <time>2015-07-25T12:48:39Z</time>
      </trkpt>
      <trkpt lat="44.81659" lon="5.87583">
        <ele>870.9</ele>
        <time>2015-07-25T12:48:44Z</time>
      </trkpt>
      <trkpt lat="44.81659" lon="5.87583">
        <ele>872.1</ele>
        <time>2015-07-25T12:48:49Z</time>
      </trkpt>
      <trkpt lat="44.81658" lon="5.87584">
        <ele>873</ele>
        <time>2015-07-25T12:48:54Z</time>
      </trkpt>
      <trkpt lat="44.81659" lon="5.87582">
        <ele>875.3</ele>
        <time>2015-07-25T12:48:59Z</time>
      </trkpt>
      <trkpt lat="44.8166" lon="5.87581">
        <ele>877.6</ele>
        <time>2015-07-25T12:49:04Z</time>
      </trkpt>
      <trkpt lat="44.8166" lon="5.87582">
        <ele>878.4</ele>
        <time>2015-07-25T12:49:09Z</time>
      </trkpt>
      <trkpt lat="44.8166" lon="5.87583">
        <ele>879.3</ele>
        <time>2015-07-25T12:49:14Z</time>
      </trkpt>
      <trkpt lat="44.8166" lon="5.87584">
        <ele>880</ele>
        <time>2015-07-25T12:49:19Z</time>
      </trkpt>
      <trkpt lat="44.8166" lon="5.87584">
        <ele>879.1</ele>
        <time>2015-07-25T12:49:24Z</time>
      </trkpt>
      <trkpt lat="44.8166" lon="5.87586">
        <ele>879.1</ele>
        <time>2015-07-25T12:49:29Z</time>
      </trkpt>
      <trkpt lat="44.81659" lon="5.87586">
        <ele>877.1</ele>
        <time>2015-07-25T12:49:34Z</time>
      </trkpt>
      <trkpt lat="44.81658" lon="5.87587">
        <ele>875.9</ele>
        <time>2015-07-25T12:49:39Z</time>
      </trkpt>
      <trkpt lat="44.81658" lon="5.87588">
        <ele>876</ele>
        <time>2015-07-25T12:49:44Z</time>
      </trkpt>
      <trkpt lat="44.81658" lon="5.87587">
        <ele>875.4</ele>
        <time>2015-07-25T12:49:49Z</time>
      </trkpt>
      <trkpt lat="44.81657" lon="5.87587">
        <ele>876.4</ele>
        <time>2015-07-25T12:49:54Z</time>
      </trkpt>
      <trkpt lat="44.81653" lon="5.87586">
        <ele>870.8</ele>
        <time>2015-07-25T12:50:01Z</time>
      </trkpt>
      <trkpt lat="44.81653" lon="5.87584">
        <ele>867.8</ele>
        <time>2015-07-25T12:50:06Z</time>
      </trkpt>
      <trkpt lat="44.81655" lon="5.87586">
        <ele>869.7</ele>
        <time>2015-07-25T12:50:11Z</time>
      </trkpt>
      <trkpt lat="44.81656" lon="5.87585">
        <ele>873.1</ele>
        <time>2015-07-25T12:50:16Z</time>
      </trkpt>
      <trkpt lat="44.81656" lon="5.87586">
        <ele>872.8</ele>
        <time>2015-07-25T12:50:21Z</time>
      </trkpt>
      <trkpt lat="44.81653" lon="5.87584">
        <ele>868.8</ele>
        <time>2015-07-25T12:50:26Z</time>
      </trkpt>
      <trkpt lat="44.81653" lon="5.87581">
        <ele>868.7</ele>
        <time>2015-07-25T12:50:31Z</time>
      </trkpt>
      <trkpt lat="44.81652" lon="5.8758">
        <ele>868.6</ele>
        <time>2015-07-25T12:50:36Z</time>
      </trkpt>
      <trkpt lat="44.81651" lon="5.87581">
        <ele>868.3</ele>
        <time>2015-07-25T12:50:41Z</time>
      </trkpt>
      <trkpt lat="44.81652" lon="5.87581">
        <ele>871</ele>
        <time>2015-07-25T12:50:46Z</time>
      </trkpt>
      <trkpt lat="44.81653" lon="5.87583">
        <ele>872.8</ele>
        <time>2015-07-25T12:50:51Z</time>
      </trkpt>
      <trkpt lat="44.81653" lon="5.87584">
        <ele>871.7</ele>
        <time>2015-07-25T12:50:56Z</time>
      </trkpt>
      <trkpt lat="44.81654" lon="5.87586">
        <ele>874.4</ele>
        <time>2015-07-25T12:51:01Z</time>
      </trkpt>
      <trkpt lat="44.81654" lon="5.87586">
        <ele>875.1</ele>
        <time>2015-07-25T12:51:06Z</time>
      </trkpt>
      <trkpt lat="44.81657" lon="5.87591">
        <ele>883.1</ele>
        <time>2015-07-25T12:51:11Z</time>
      </trkpt>
      <trkpt lat="44.81659" lon="5.87594">
        <ele>885.3</ele>
        <time>2015-07-25T12:51:16Z</time>
      </trkpt>
      <trkpt lat="44.81659" lon="5.87594">
        <ele>884.3</ele>
        <time>2015-07-25T12:51:21Z</time>
      </trkpt>
      <trkpt lat="44.81659" lon="5.87595">
        <ele>884.7</ele>
        <time>2015-07-25T12:51:26Z</time>
      </trkpt>
      <trkpt lat="44.81658" lon="5.87593">
        <ele>881.6</ele>
        <time>2015-07-25T12:51:31Z</time>
      </trkpt>
      <trkpt lat="44.81657" lon="5.87595">
        <ele>876.5</ele>
        <time>2015-07-25T12:51:36Z</time>
      </trkpt>
      <trkpt lat="44.81657" lon="5.87592">
        <ele>874.3</ele>
        <time>2015-07-25T12:51:41Z</time>
      </trkpt>
      <trkpt lat="44.81658" lon="5.87593">
        <ele>877.8</ele>
        <time>2015-07-25T12:51:46Z</time>
      </trkpt>
      <trkpt lat="44.81657" lon="5.87593">
        <ele>877.4</ele>
        <time>2015-07-25T12:51:51Z</time>
      </trkpt>
      <trkpt lat="44.81657" lon="5.87592">
        <ele>879.4</ele>
        <time>2015-07-25T12:51:56Z</time>
      </trkpt>
      <trkpt lat="44.81657" lon="5.87593">
        <ele>880.2</ele>
        <time>2015-07-25T12:52:01Z</time>
      </trkpt>
      <trkpt lat="44.81656" lon="5.87594">
        <ele>878.6</ele>
        <time>2015-07-25T12:52:06Z</time>
      </trkpt>
      <trkpt lat="44.81657" lon="5.87595">
        <ele>878.2</ele>
        <time>2015-07-25T12:52:11Z</time>
      </trkpt>
      <trkpt lat="44.81657" lon="5.87595">
        <ele>878.7</ele>
        <time>2015-07-25T12:52:16Z</time>
      </trkpt>
      <trkpt lat="44.81656" lon="5.87595">
        <ele>879</ele>
        <time>2015-07-25T12:52:21Z</time>
      </trkpt>
      <trkpt lat="44.81656" lon="5.87595">
        <ele>877.3</ele>
        <time>2015-07-25T12:52:26Z</time>
      </trkpt>
      <trkpt lat="44.81656" lon="5.87595">
        <ele>875.2</ele>
        <time>2015-07-25T12:52:31Z</time>
      </trkpt>
      <trkpt lat="44.81657" lon="5.87595">
        <ele>878.2</ele>
        <time>2015-07-25T12:52:36Z</time>
      </trkpt>
      <trkpt lat="44.81659" lon="5.87595">
        <ele>885.8</ele>
        <time>2015-07-25T12:52:41Z</time>
      </trkpt>
      <trkpt lat="44.81659" lon="5.87597">
        <ele>884.4</ele>
        <time>2015-07-25T12:52:46Z</time>
      </trkpt>
      <trkpt lat="44.81659" lon="5.87597">
        <ele>880.9</ele>
        <time>2015-07-25T12:52:51Z</time>
      </trkpt>
      <trkpt lat="44.81659" lon="5.87597">
        <ele>877.3</ele>
        <time>2015-07-25T12:52:56Z</time>
      </trkpt>
      <trkpt lat="44.81658" lon="5.87597">
        <ele>877.1</ele>
        <time>2015-07-25T12:53:01Z</time>
      </trkpt>
      <trkpt lat="44.81657" lon="5.87597">
        <ele>876.7</ele>
        <time>2015-07-25T12:53:06Z</time>
      </trkpt>
      <trkpt lat="44.81659" lon="5.87598">
        <ele>879.7</ele>
        <time>2015-07-25T12:53:11Z</time>
      </trkpt>
      <trkpt lat="44.81657" lon="5.87598">
        <ele>873.9</ele>
        <time>2015-07-25T12:53:16Z</time>
      </trkpt>
      <trkpt lat="44.81657" lon="5.87597">
        <ele>874.7</ele>
        <time>2015-07-25T12:53:21Z</time>
      </trkpt>
      <trkpt lat="44.81657" lon="5.87596">
        <ele>875.2</ele>
        <time>2015-07-25T12:53:26Z</time>
      </trkpt>
      <trkpt lat="44.81658" lon="5.87595">
        <ele>876.8</ele>
        <time>2015-07-25T12:53:31Z</time>
      </trkpt>
      <trkpt lat="44.81658" lon="5.87595">
        <ele>878.2</ele>
        <time>2015-07-25T12:53:36Z</time>
      </trkpt>
      <trkpt lat="44.81656" lon="5.87596">
        <ele>875.6</ele>
        <time>2015-07-25T12:53:41Z</time>
      </trkpt>
      <trkpt lat="44.81656" lon="5.87595">
        <ele>872.8</ele>
        <time>2015-07-25T12:53:46Z</time>
      </trkpt>
      <trkpt lat="44.81658" lon="5.87595">
        <ele>875.8</ele>
        <time>2015-07-25T12:53:51Z</time>
      </trkpt>
      <trkpt lat="44.81657" lon="5.87596">
        <ele>877.8</ele>
        <time>2015-07-25T12:53:56Z</time>
      </trkpt>
      <trkpt lat="44.81656" lon="5.87599">
        <ele>884.3</ele>
        <time>2015-07-25T12:54:01Z</time>
      </trkpt>
      <trkpt lat="44.81654" lon="5.87602">
        <ele>893.6</ele>
        <time>2015-07-25T12:54:06Z</time>
      </trkpt>
      <trkpt lat="44.81651" lon="5.87602">
        <ele>891.4</ele>
        <time>2015-07-25T12:54:11Z</time>
      </trkpt>
      <trkpt lat="44.81653" lon="5.87602">
        <ele>887.2</ele>
        <time>2015-07-25T12:54:16Z</time>
      </trkpt>
      <trkpt lat="44.81654" lon="5.87603">
        <ele>888.6</ele>
        <time>2015-07-25T12:54:21Z</time>
      </trkpt>
      <trkpt lat="44.81651" lon="5.87602">
        <ele>889.8</ele>
        <time>2015-07-25T12:54:26Z</time>
      </trkpt>
      <trkpt lat="44.81651" lon="5.87598">
        <ele>884.2</ele>
        <time>2015-07-25T12:54:31Z</time>
      </trkpt>
      <trkpt lat="44.81653" lon="5.87593">
        <ele>883</ele>
        <time>2015-07-25T12:54:36Z</time>
      </trkpt>
      <trkpt lat="44.81652" lon="5.87593">
        <ele>881.6</ele>
        <time>2015-07-25T12:54:41Z</time>
      </trkpt>
      <trkpt lat="44.81651" lon="5.87592">
        <ele>880</ele>
        <time>2015-07-25T12:54:46Z</time>
      </trkpt>
      <trkpt lat="44.81651" lon="5.8759">
        <ele>880</ele>
        <time>2015-07-25T12:54:51Z</time>
      </trkpt>
      <trkpt lat="44.81648" lon="5.87586">
        <ele>882.8</ele>
        <time>2015-07-25T12:54:56Z</time>
      </trkpt>
      <trkpt lat="44.81646" lon="5.87586">
        <ele>882.9</ele>
        <time>2015-07-25T12:55:01Z</time>
      </trkpt>
      <trkpt lat="44.81643" lon="5.87584">
        <ele>879.9</ele>
        <time>2015-07-25T12:55:06Z</time>
      </trkpt>
      <trkpt lat="44.8164" lon="5.87582">
        <ele>879.1</ele>
        <time>2015-07-25T12:55:11Z</time>
      </trkpt>
      <trkpt lat="44.81634" lon="5.8758">
        <ele>878.7</ele>
        <time>2015-07-25T12:55:16Z</time>
      </trkpt>
      <trkpt lat="44.81633" lon="5.8758">
        <ele>878.1</ele>
        <time>2015-07-25T12:55:21Z</time>
      </trkpt>
      <trkpt lat="44.81632" lon="5.87579">
        <ele>877.8</ele>
        <time>2015-07-25T12:55:26Z</time>
      </trkpt>
      <trkpt lat="44.81631" lon="5.8758">
        <ele>877.1</ele>
        <time>2015-07-25T12:55:31Z</time>
      </trkpt>
      <trkpt lat="44.8163" lon="5.87581">
        <ele>877.6</ele>
        <time>2015-07-25T12:55:36Z</time>
      </trkpt>
      <trkpt lat="44.81631" lon="5.87581">
        <ele>876.7</ele>
        <time>2015-07-25T12:55:41Z</time>
      </trkpt>
      <trkpt lat="44.81632" lon="5.87582">
        <ele>877.5</ele>
        <time>2015-07-25T12:55:46Z</time>
      </trkpt>
      <trkpt lat="44.81632" lon="5.87582">
        <ele>883</ele>
        <time>2015-07-25T12:55:51Z</time>
      </trkpt>
      <trkpt lat="44.81632" lon="5.87582">
        <ele>883.4</ele>
        <time>2015-07-25T12:55:56Z</time>
      </trkpt>
      <trkpt lat="44.81632" lon="5.87582">
        <ele>884</ele>
        <time>2015-07-25T12:56:01Z</time>
      </trkpt>
      <trkpt lat="44.81632" lon="5.87583">
        <ele>883.8</ele>
        <time>2015-07-25T12:56:06Z</time>
      </trkpt>
      <trkpt lat="44.81631" lon="5.87581">
        <ele>882.9</ele>
        <time>2015-07-25T12:56:11Z</time>
      </trkpt>
      <trkpt lat="44.81631" lon="5.87581">
        <ele>881.7</ele>
        <time>2015-07-25T12:56:16Z</time>
      </trkpt>
      <trkpt lat="44.81632" lon="5.8758">
        <ele>880.9</ele>
        <time>2015-07-25T12:56:21Z</time>
      </trkpt>
      <trkpt lat="44.8163" lon="5.8758">
        <ele>880.8</ele>
        <time>2015-07-25T12:56:26Z</time>
      </trkpt>
      <trkpt lat="44.81629" lon="5.87581">
        <ele>881.4</ele>
        <time>2015-07-25T12:56:31Z</time>
      </trkpt>
      <trkpt lat="44.81629" lon="5.8758">
        <ele>881.3</ele>
        <time>2015-07-25T12:56:36Z</time>
      </trkpt>
      <trkpt lat="44.81632" lon="5.87583">
        <ele>881.8</ele>
        <time>2015-07-25T12:56:41Z</time>
      </trkpt>
      <trkpt lat="44.81635" lon="5.87585">
        <ele>881.8</ele>
        <time>2015-07-25T12:56:46Z</time>
      </trkpt>
      <trkpt lat="44.81637" lon="5.87584">
        <ele>880.5</ele>
        <time>2015-07-25T12:56:51Z</time>
      </trkpt>
      <trkpt lat="44.81641" lon="5.87588">
        <ele>879.3</ele>
        <time>2015-07-25T12:56:56Z</time>
      </trkpt>
      <trkpt lat="44.81646" lon="5.87588">
        <ele>880.5</ele>
        <time>2015-07-25T12:57:01Z</time>
      </trkpt>
      <trkpt lat="44.8165" lon="5.87586">
        <ele>880.9</ele>
        <time>2015-07-25T12:57:06Z</time>
      </trkpt>
      <trkpt lat="44.81651" lon="5.87585">
        <ele>880.5</ele>
        <time>2015-07-25T12:57:11Z</time>
      </trkpt>
      <trkpt lat="44.81651" lon="5.87585">
        <ele>879.8</ele>
        <time>2015-07-25T12:57:16Z</time>
      </trkpt>
      <trkpt lat="44.81651" lon="5.87586">
        <ele>882</ele>
        <time>2015-07-25T12:57:21Z</time>
      </trkpt>
      <trkpt lat="44.81655" lon="5.87584">
        <ele>882</ele>
        <time>2015-07-25T12:57:26Z</time>
      </trkpt>
      <trkpt lat="44.81657" lon="5.87583">
        <ele>884.6</ele>
        <time>2015-07-25T12:57:31Z</time>
      </trkpt>
      <trkpt lat="44.81662" lon="5.87579">
        <ele>884.6</ele>
        <time>2015-07-25T12:57:36Z</time>
      </trkpt>
      <trkpt lat="44.8167" lon="5.87578">
        <ele>886.9</ele>
        <time>2015-07-25T12:57:41Z</time>
      </trkpt>
      <trkpt lat="44.81674" lon="5.87574">
        <ele>887.1</ele>
        <time>2015-07-25T12:57:46Z</time>
      </trkpt>
      <trkpt lat="44.81671" lon="5.87571">
        <ele>887.7</ele>
        <time>2015-07-25T12:57:51Z</time>
      </trkpt>
      <trkpt lat="44.81666" lon="5.87568">
        <ele>887.4</ele>
        <time>2015-07-25T12:57:56Z</time>
      </trkpt>
      <trkpt lat="44.81661" lon="5.87564">
        <ele>887.6</ele>
        <time>2015-07-25T12:58:01Z</time>
      </trkpt>
      <trkpt lat="44.81654" lon="5.8756">
        <ele>888.8</ele>
        <time>2015-07-25T12:58:06Z</time>
      </trkpt>
      <trkpt lat="44.81649" lon="5.87555">
        <ele>889</ele>
        <time>2015-07-25T12:58:11Z</time>
      </trkpt>
      <trkpt lat="44.81643" lon="5.8755">
        <ele>888.1</ele>
        <time>2015-07-25T12:58:16Z</time>
      </trkpt>
      <trkpt lat="44.81638" lon="5.87545">
        <ele>887.4</ele>
        <time>2015-07-25T12:58:21Z</time>
      </trkpt>
      <trkpt lat="44.81633" lon="5.87539">
        <ele>886.3</ele>
        <time>2015-07-25T12:58:26Z</time>
      </trkpt>
      <trkpt lat="44.81628" lon="5.87532">
        <ele>886.5</ele>
        <time>2015-07-25T12:58:31Z</time>
      </trkpt>
      <trkpt lat="44.81623" lon="5.87527">
        <ele>887.8</ele>
        <time>2015-07-25T12:58:36Z</time>
      </trkpt>
      <trkpt lat="44.81619" lon="5.8752">
        <ele>888.4</ele>
        <time>2015-07-25T12:58:41Z</time>
      </trkpt>
      <trkpt lat="44.81614" lon="5.87513">
        <ele>889.1</ele>
        <time>2015-07-25T12:58:46Z</time>
      </trkpt>
      <trkpt lat="44.8161" lon="5.87506">
        <ele>889.7</ele>
        <time>2015-07-25T12:58:51Z</time>
      </trkpt>
      <trkpt lat="44.81607" lon="5.87497">
        <ele>891.1</ele>
        <time>2015-07-25T12:58:56Z</time>
      </trkpt>
      <trkpt lat="44.81603" lon="5.87489">
        <ele>892.2</ele>
        <time>2015-07-25T12:59:01Z</time>
      </trkpt>
      <trkpt lat="44.816" lon="5.8748">
        <ele>894.2</ele>
        <time>2015-07-25T12:59:06Z</time>
      </trkpt>
      <trkpt lat="44.81596" lon="5.87473">
        <ele>895.3</ele>
        <time>2015-07-25T12:59:11Z</time>
      </trkpt>
      <trkpt lat="44.81591" lon="5.87466">
        <ele>895.1</ele>
        <time>2015-07-25T12:59:16Z</time>
      </trkpt>
      <trkpt lat="44.81587" lon="5.8746">
        <ele>896.7</ele>
        <time>2015-07-25T12:59:21Z</time>
      </trkpt>
      <trkpt lat="44.81584" lon="5.87453">
        <ele>898.3</ele>
        <time>2015-07-25T12:59:26Z</time>
      </trkpt>
      <trkpt lat="44.81583" lon="5.87446">
        <ele>901.5</ele>
        <time>2015-07-25T12:59:31Z</time>
      </trkpt>
      <trkpt lat="44.8158" lon="5.87438">
        <ele>902.8</ele>
        <time>2015-07-25T12:59:36Z</time>
      </trkpt>
      <trkpt lat="44.81577" lon="5.87431">
        <ele>903.7</ele>
        <time>2015-07-25T12:59:41Z</time>
      </trkpt>
      <trkpt lat="44.81573" lon="5.87423">
        <ele>904.7</ele>
        <time>2015-07-25T12:59:46Z</time>
      </trkpt>
      <trkpt lat="44.8157" lon="5.87415">
        <ele>904.8</ele>
        <time>2015-07-25T12:59:51Z</time>
      </trkpt>
      <trkpt lat="44.81566" lon="5.87408">
        <ele>905</ele>
        <time>2015-07-25T12:59:56Z</time>
      </trkpt>
      <trkpt lat="44.81562" lon="5.87401">
        <ele>905.7</ele>
        <time>2015-07-25T13:00:01Z</time>
      </trkpt>
      <trkpt lat="44.81558" lon="5.87394">
        <ele>905.7</ele>
        <time>2015-07-25T13:00:06Z</time>
      </trkpt>
      <trkpt lat="44.81555" lon="5.87388">
        <ele>903.9</ele>
        <time>2015-07-25T13:00:11Z</time>
      </trkpt>
      <trkpt lat="44.81552" lon="5.87381">
        <ele>904.5</ele>
        <time>2015-07-25T13:00:16Z</time>
      </trkpt>
      <trkpt lat="44.81548" lon="5.87372">
        <ele>904.2</ele>
        <time>2015-07-25T13:00:21Z</time>
      </trkpt>
      <trkpt lat="44.81545" lon="5.87364">
        <ele>905</ele>
        <time>2015-07-25T13:00:26Z</time>
      </trkpt>
      <trkpt lat="44.81542" lon="5.87356">
        <ele>905.9</ele>
        <time>2015-07-25T13:00:31Z</time>
      </trkpt>
      <trkpt lat="44.8154" lon="5.87348">
        <ele>905.2</ele>
        <time>2015-07-25T13:00:36Z</time>
      </trkpt>
      <trkpt lat="44.81537" lon="5.8734">
        <ele>905.8</ele>
        <time>2015-07-25T13:00:41Z</time>
      </trkpt>
      <trkpt lat="44.81533" lon="5.87333">
        <ele>906.6</ele>
        <time>2015-07-25T13:00:46Z</time>
      </trkpt>
      <trkpt lat="44.81528" lon="5.87326">
        <ele>906.9</ele>
        <time>2015-07-25T13:00:51Z</time>
      </trkpt>
      <trkpt lat="44.81524" lon="5.8732">
        <ele>907.5</ele>
        <time>2015-07-25T13:00:56Z</time>
      </trkpt>
      <trkpt lat="44.81519" lon="5.87315">
        <ele>907.8</ele>
        <time>2015-07-25T13:01:01Z</time>
      </trkpt>
      <trkpt lat="44.81514" lon="5.8731">
        <ele>908.1</ele>
        <time>2015-07-25T13:01:06Z</time>
      </trkpt>
      <trkpt lat="44.81508" lon="5.87306">
        <ele>908.6</ele>
        <time>2015-07-25T13:01:11Z</time>
      </trkpt>
      <trkpt lat="44.81502" lon="5.87302">
        <ele>908.8</ele>
        <time>2015-07-25T13:01:16Z</time>
      </trkpt>
      <trkpt lat="44.81497" lon="5.87299">
        <ele>909.2</ele>
        <time>2015-07-25T13:01:21Z</time>
      </trkpt>
      <trkpt lat="44.81491" lon="5.87296">
        <ele>909.8</ele>
        <time>2015-07-25T13:01:26Z</time>
      </trkpt>
      <trkpt lat="44.81485" lon="5.87291">
        <ele>910.8</ele>
        <time>2015-07-25T13:01:31Z</time>
      </trkpt>
      <trkpt lat="44.81479" lon="5.87287">
        <ele>911.6</ele>
        <time>2015-07-25T13:01:36Z</time>
      </trkpt>
      <trkpt lat="44.81473" lon="5.87283">
        <ele>911.7</ele>
        <time>2015-07-25T13:01:41Z</time>
      </trkpt>
      <trkpt lat="44.81468" lon="5.87278">
        <ele>911.9</ele>
        <time>2015-07-25T13:01:46Z</time>
      </trkpt>
      <trkpt lat="44.81462" lon="5.87274">
        <ele>912.2</ele>
        <time>2015-07-25T13:01:51Z</time>
      </trkpt>
      <trkpt lat="44.81456" lon="5.87269">
        <ele>912.5</ele>
        <time>2015-07-25T13:01:56Z</time>
      </trkpt>
      <trkpt lat="44.8145" lon="5.87266">
        <ele>912.8</ele>
        <time>2015-07-25T13:02:01Z</time>
      </trkpt>
      <trkpt lat="44.81444" lon="5.87262">
        <ele>913</ele>
        <time>2015-07-25T13:02:06Z</time>
      </trkpt>
      <trkpt lat="44.81438" lon="5.87257">
        <ele>913.5</ele>
        <time>2015-07-25T13:02:11Z</time>
      </trkpt>
      <trkpt lat="44.81432" lon="5.87253">
        <ele>914</ele>
        <time>2015-07-25T13:02:16Z</time>
      </trkpt>
      <trkpt lat="44.81425" lon="5.87248">
        <ele>914.4</ele>
        <time>2015-07-25T13:02:21Z</time>
      </trkpt>
      <trkpt lat="44.81419" lon="5.87243">
        <ele>914.9</ele>
        <time>2015-07-25T13:02:26Z</time>
      </trkpt>
      <trkpt lat="44.81413" lon="5.87239">
        <ele>915.4</ele>
        <time>2015-07-25T13:02:31Z</time>
      </trkpt>
      <trkpt lat="44.81407" lon="5.87234">
        <ele>915.6</ele>
        <time>2015-07-25T13:02:36Z</time>
      </trkpt>
      <trkpt lat="44.81401" lon="5.8723">
        <ele>915.6</ele>
        <time>2015-07-25T13:02:41Z</time>
      </trkpt>
      <trkpt lat="44.81395" lon="5.87226">
        <ele>915.9</ele>
        <time>2015-07-25T13:02:46Z</time>
      </trkpt>
      <trkpt lat="44.81389" lon="5.87221">
        <ele>916.1</ele>
        <time>2015-07-25T13:02:51Z</time>
      </trkpt>
      <trkpt lat="44.81383" lon="5.87217">
        <ele>916.6</ele>
        <time>2015-07-25T13:02:56Z</time>
      </trkpt>
      <trkpt lat="44.81377" lon="5.87213">
        <ele>917</ele>
        <time>2015-07-25T13:03:01Z</time>
      </trkpt>
      <trkpt lat="44.81371" lon="5.87208">
        <ele>917.1</ele>
        <time>2015-07-25T13:03:06Z</time>
      </trkpt>
      <trkpt lat="44.81365" lon="5.87203">
        <ele>917.4</ele>
        <time>2015-07-25T13:03:11Z</time>
      </trkpt>
      <trkpt lat="44.8136" lon="5.87198">
        <ele>917.7</ele>
        <time>2015-07-25T13:03:16Z</time>
      </trkpt>
      <trkpt lat="44.81353" lon="5.87194">
        <ele>918</ele>
        <time>2015-07-25T13:03:21Z</time>
      </trkpt>
      <trkpt lat="44.81347" lon="5.8719">
        <ele>918.2</ele>
        <time>2015-07-25T13:03:26Z</time>
      </trkpt>
      <trkpt lat="44.81341" lon="5.87186">
        <ele>918.5</ele>
        <time>2015-07-25T13:03:31Z</time>
      </trkpt>
      <trkpt lat="44.81335" lon="5.87182">
        <ele>918.8</ele>
        <time>2015-07-25T13:03:36Z</time>
      </trkpt>
      <trkpt lat="44.81329" lon="5.87178">
        <ele>919</ele>
        <time>2015-07-25T13:03:41Z</time>
      </trkpt>
      <trkpt lat="44.81323" lon="5.87174">
        <ele>919.3</ele>
        <time>2015-07-25T13:03:46Z</time>
      </trkpt>
      <trkpt lat="44.81318" lon="5.87168">
        <ele>919.3</ele>
        <time>2015-07-25T13:03:51Z</time>
      </trkpt>
      <trkpt lat="44.81314" lon="5.87162">
        <ele>919.7</ele>
        <time>2015-07-25T13:03:56Z</time>
      </trkpt>
      <trkpt lat="44.8131" lon="5.87154">
        <ele>920.1</ele>
        <time>2015-07-25T13:04:01Z</time>
      </trkpt>
      <trkpt lat="44.81308" lon="5.87145">
        <ele>920.4</ele>
        <time>2015-07-25T13:04:06Z</time>
      </trkpt>
      <trkpt lat="44.81306" lon="5.87136">
        <ele>920.7</ele>
        <time>2015-07-25T13:04:11Z</time>
      </trkpt>
      <trkpt lat="44.81303" lon="5.87128">
        <ele>921</ele>
        <time>2015-07-25T13:04:16Z</time>
      </trkpt>
      <trkpt lat="44.813" lon="5.8712">
        <ele>921.2</ele>
        <time>2015-07-25T13:04:21Z</time>
      </trkpt>
      <trkpt lat="44.81297" lon="5.87113">
        <ele>920.9</ele>
        <time>2015-07-25T13:04:26Z</time>
      </trkpt>
      <trkpt lat="44.81293" lon="5.87105">
        <ele>920.9</ele>
        <time>2015-07-25T13:04:31Z</time>
      </trkpt>
      <trkpt lat="44.81291" lon="5.87101">
        <ele>921</ele>
        <time>2015-07-25T13:04:36Z</time>
      </trkpt>
      <trkpt lat="44.81289" lon="5.87097">
        <ele>921.2</ele>
        <time>2015-07-25T13:04:41Z</time>
      </trkpt>
      <trkpt lat="44.81284" lon="5.87092">
        <ele>921.4</ele>
        <time>2015-07-25T13:04:46Z</time>
      </trkpt>
      <trkpt lat="44.81279" lon="5.87087">
        <ele>921.7</ele>
        <time>2015-07-25T13:04:51Z</time>
      </trkpt>
      <trkpt lat="44.81274" lon="5.87081">
        <ele>922</ele>
        <time>2015-07-25T13:04:56Z</time>
      </trkpt>
      <trkpt lat="44.81271" lon="5.87074">
        <ele>922.3</ele>
        <time>2015-07-25T13:05:01Z</time>
      </trkpt>
      <trkpt lat="44.81269" lon="5.87067">
        <ele>922.7</ele>
        <time>2015-07-25T13:05:06Z</time>
      </trkpt>
      <trkpt lat="44.8127" lon="5.87058">
        <ele>922.8</ele>
        <time>2015-07-25T13:05:11Z</time>
      </trkpt>
      <trkpt lat="44.81272" lon="5.8705">
        <ele>923.2</ele>
        <time>2015-07-25T13:05:16Z</time>
      </trkpt>
      <trkpt lat="44.81276" lon="5.87043">
        <ele>923.5</ele>
        <time>2015-07-25T13:05:21Z</time>
      </trkpt>
      <trkpt lat="44.8128" lon="5.87036">
        <ele>923.9</ele>
        <time>2015-07-25T13:05:26Z</time>
      </trkpt>
      <trkpt lat="44.81284" lon="5.87028">
        <ele>924.3</ele>
        <time>2015-07-25T13:05:31Z</time>
      </trkpt>
      <trkpt lat="44.81288" lon="5.87021">
        <ele>924.8</ele>
        <time>2015-07-25T13:05:36Z</time>
      </trkpt>
      <trkpt lat="44.81292" lon="5.87014">
        <ele>925.2</ele>
        <time>2015-07-25T13:05:41Z</time>
      </trkpt>
      <trkpt lat="44.81295" lon="5.87008">
        <ele>925.6</ele>
        <time>2015-07-25T13:05:46Z</time>
      </trkpt>
      <trkpt lat="44.81297" lon="5.87006">
        <ele>925.9</ele>
        <time>2015-07-25T13:05:51Z</time>
      </trkpt>
      <trkpt lat="44.813" lon="5.86998">
        <ele>925.8</ele>
        <time>2015-07-25T13:05:56Z</time>
      </trkpt>
      <trkpt lat="44.81304" lon="5.86991">
        <ele>926.2</ele>
        <time>2015-07-25T13:06:01Z</time>
      </trkpt>
      <trkpt lat="44.81308" lon="5.86984">
        <ele>926.5</ele>
        <time>2015-07-25T13:06:06Z</time>
      </trkpt>
      <trkpt lat="44.81311" lon="5.86977">
        <ele>926.7</ele>
        <time>2015-07-25T13:06:11Z</time>
      </trkpt>
      <trkpt lat="44.81316" lon="5.86969">
        <ele>927</ele>
        <time>2015-07-25T13:06:16Z</time>
      </trkpt>
      <trkpt lat="44.8132" lon="5.86962">
        <ele>927.4</ele>
        <time>2015-07-25T13:06:21Z</time>
      </trkpt>
      <trkpt lat="44.81324" lon="5.86954">
        <ele>927.6</ele>
        <time>2015-07-25T13:06:26Z</time>
      </trkpt>
      <trkpt lat="44.81327" lon="5.86947">
        <ele>927.8</ele>
        <time>2015-07-25T13:06:31Z</time>
      </trkpt>
      <trkpt lat="44.81331" lon="5.8694">
        <ele>927.9</ele>
        <time>2015-07-25T13:06:36Z</time>
      </trkpt>
      <trkpt lat="44.81335" lon="5.86933">
        <ele>928.1</ele>
        <time>2015-07-25T13:06:41Z</time>
      </trkpt>
      <trkpt lat="44.81339" lon="5.86926">
        <ele>928.2</ele>
        <time>2015-07-25T13:06:46Z</time>
      </trkpt>
      <trkpt lat="44.81343" lon="5.86919">
        <ele>928.3</ele>
        <time>2015-07-25T13:06:51Z</time>
      </trkpt>
      <trkpt lat="44.81346" lon="5.86912">
        <ele>928.4</ele>
        <time>2015-07-25T13:06:56Z</time>
      </trkpt>
      <trkpt lat="44.81349" lon="5.86905">
        <ele>928.2</ele>
        <time>2015-07-25T13:07:01Z</time>
      </trkpt>
      <trkpt lat="44.81352" lon="5.86897">
        <ele>927.9</ele>
        <time>2015-07-25T13:07:06Z</time>
      </trkpt>
      <trkpt lat="44.81355" lon="5.8689">
        <ele>927.8</ele>
        <time>2015-07-25T13:07:11Z</time>
      </trkpt>
      <trkpt lat="44.81359" lon="5.86883">
        <ele>928</ele>
        <time>2015-07-25T13:07:16Z</time>
      </trkpt>
      <trkpt lat="44.81362" lon="5.86876">
        <ele>928</ele>
        <time>2015-07-25T13:07:21Z</time>
      </trkpt>
      <trkpt lat="44.81366" lon="5.86869">
        <ele>928</ele>
        <time>2015-07-25T13:07:26Z</time>
      </trkpt>
      <trkpt lat="44.81369" lon="5.86861">
        <ele>928.1</ele>
        <time>2015-07-25T13:07:31Z</time>
      </trkpt>
      <trkpt lat="44.81373" lon="5.86854">
        <ele>928.2</ele>
        <time>2015-07-25T13:07:36Z</time>
      </trkpt>
      <trkpt lat="44.81376" lon="5.86847">
        <ele>928.2</ele>
        <time>2015-07-25T13:07:41Z</time>
      </trkpt>
      <trkpt lat="44.81379" lon="5.8684">
        <ele>928.2</ele>
        <time>2015-07-25T13:07:46Z</time>
      </trkpt>
      <trkpt lat="44.81382" lon="5.86833">
        <ele>928.2</ele>
        <time>2015-07-25T13:07:51Z</time>
      </trkpt>
      <trkpt lat="44.81385" lon="5.86826">
        <ele>928.2</ele>
        <time>2015-07-25T13:07:56Z</time>
      </trkpt>
      <trkpt lat="44.81389" lon="5.86819">
        <ele>928.2</ele>
        <time>2015-07-25T13:08:01Z</time>
      </trkpt>
      <trkpt lat="44.81392" lon="5.86811">
        <ele>928.1</ele>
        <time>2015-07-25T13:08:06Z</time>
      </trkpt>
      <trkpt lat="44.81395" lon="5.86802">
        <ele>928.1</ele>
        <time>2015-07-25T13:08:11Z</time>
      </trkpt>
      <trkpt lat="44.81399" lon="5.86794">
        <ele>928.2</ele>
        <time>2015-07-25T13:08:16Z</time>
      </trkpt>
      <trkpt lat="44.81403" lon="5.86786">
        <ele>928.1</ele>
        <time>2015-07-25T13:08:21Z</time>
      </trkpt>
      <trkpt lat="44.81405" lon="5.86779">
        <ele>928.2</ele>
        <time>2015-07-25T13:08:26Z</time>
      </trkpt>
      <trkpt lat="44.81409" lon="5.86772">
        <ele>928.3</ele>
        <time>2015-07-25T13:08:31Z</time>
      </trkpt>
      <trkpt lat="44.81412" lon="5.86764">
        <ele>928.4</ele>
        <time>2015-07-25T13:08:36Z</time>
      </trkpt>
      <trkpt lat="44.81416" lon="5.86756">
        <ele>928.6</ele>
        <time>2015-07-25T13:08:41Z</time>
      </trkpt>
      <trkpt lat="44.81419" lon="5.86749">
        <ele>928.7</ele>
        <time>2015-07-25T13:08:46Z</time>
      </trkpt>
      <trkpt lat="44.81423" lon="5.86742">
        <ele>928.8</ele>
        <time>2015-07-25T13:08:51Z</time>
      </trkpt>
      <trkpt lat="44.81426" lon="5.86734">
        <ele>928.4</ele>
        <time>2015-07-25T13:08:56Z</time>
      </trkpt>
      <trkpt lat="44.81429" lon="5.86726">
        <ele>927.9</ele>
        <time>2015-07-25T13:09:01Z</time>
      </trkpt>
      <trkpt lat="44.81432" lon="5.86718">
        <ele>928.1</ele>
        <time>2015-07-25T13:09:06Z</time>
      </trkpt>
      <trkpt lat="44.81435" lon="5.86711">
        <ele>928.3</ele>
        <time>2015-07-25T13:09:11Z</time>
      </trkpt>
      <trkpt lat="44.81439" lon="5.86704">
        <ele>928.5</ele>
        <time>2015-07-25T13:09:16Z</time>
      </trkpt>
      <trkpt lat="44.81441" lon="5.86697">
        <ele>928.9</ele>
        <time>2015-07-25T13:09:21Z</time>
      </trkpt>
      <trkpt lat="44.81445" lon="5.86689">
        <ele>929.3</ele>
        <time>2015-07-25T13:09:26Z</time>
      </trkpt>
      <trkpt lat="44.81448" lon="5.86682">
        <ele>929.7</ele>
        <time>2015-07-25T13:09:31Z</time>
      </trkpt>
      <trkpt lat="44.81451" lon="5.86674">
        <ele>930.1</ele>
        <time>2015-07-25T13:09:36Z</time>
      </trkpt>
      <trkpt lat="44.81453" lon="5.86666">
        <ele>930.1</ele>
        <time>2015-07-25T13:09:41Z</time>
      </trkpt>
      <trkpt lat="44.81456" lon="5.86658">
        <ele>930.5</ele>
        <time>2015-07-25T13:09:46Z</time>
      </trkpt>
      <trkpt lat="44.81458" lon="5.86651">
        <ele>930.7</ele>
        <time>2015-07-25T13:09:51Z</time>
      </trkpt>
      <trkpt lat="44.8146" lon="5.86643">
        <ele>930.9</ele>
        <time>2015-07-25T13:09:56Z</time>
      </trkpt>
      <trkpt lat="44.81459" lon="5.86635">
        <ele>930.4</ele>
        <time>2015-07-25T13:10:01Z</time>
      </trkpt>
      <trkpt lat="44.81454" lon="5.86629">
        <ele>930.1</ele>
        <time>2015-07-25T13:10:06Z</time>
      </trkpt>
      <trkpt lat="44.81449" lon="5.86628">
        <ele>930.3</ele>
        <time>2015-07-25T13:10:11Z</time>
      </trkpt>
      <trkpt lat="44.81442" lon="5.86628">
        <ele>929.3</ele>
        <time>2015-07-25T13:10:16Z</time>
      </trkpt>
      <trkpt lat="44.81436" lon="5.8663">
        <ele>929.4</ele>
        <time>2015-07-25T13:10:21Z</time>
      </trkpt>
      <trkpt lat="44.81431" lon="5.86632">
        <ele>929.3</ele>
        <time>2015-07-25T13:10:26Z</time>
      </trkpt>
      <trkpt lat="44.81424" lon="5.86634">
        <ele>930.1</ele>
        <time>2015-07-25T13:10:31Z</time>
      </trkpt>
      <trkpt lat="44.81419" lon="5.86635">
        <ele>931</ele>
        <time>2015-07-25T13:10:36Z</time>
      </trkpt>
      <trkpt lat="44.81412" lon="5.86637">
        <ele>931.7</ele>
        <time>2015-07-25T13:10:41Z</time>
      </trkpt>
      <trkpt lat="44.81406" lon="5.86639">
        <ele>932.3</ele>
        <time>2015-07-25T13:10:46Z</time>
      </trkpt>
      <trkpt lat="44.81399" lon="5.86641">
        <ele>932.2</ele>
        <time>2015-07-25T13:10:51Z</time>
      </trkpt>
      <trkpt lat="44.81394" lon="5.86644">
        <ele>932</ele>
        <time>2015-07-25T13:10:56Z</time>
      </trkpt>
      <trkpt lat="44.81388" lon="5.86647">
        <ele>931.4</ele>
        <time>2015-07-25T13:11:01Z</time>
      </trkpt>
      <trkpt lat="44.81382" lon="5.8665">
        <ele>931.6</ele>
        <time>2015-07-25T13:11:06Z</time>
      </trkpt>
      <trkpt lat="44.81375" lon="5.86653">
        <ele>932.1</ele>
        <time>2015-07-25T13:11:11Z</time>
      </trkpt>
      <trkpt lat="44.8137" lon="5.86656">
        <ele>932.4</ele>
        <time>2015-07-25T13:11:16Z</time>
      </trkpt>
      <trkpt lat="44.81364" lon="5.86658">
        <ele>933.9</ele>
        <time>2015-07-25T13:11:21Z</time>
      </trkpt>
      <trkpt lat="44.81359" lon="5.86659">
        <ele>935.2</ele>
        <time>2015-07-25T13:11:26Z</time>
      </trkpt>
      <trkpt lat="44.81359" lon="5.86658">
        <ele>935.5</ele>
        <time>2015-07-25T13:11:31Z</time>
      </trkpt>
      <trkpt lat="44.81358" lon="5.8666">
        <ele>935.7</ele>
        <time>2015-07-25T13:11:36Z</time>
      </trkpt>
      <trkpt lat="44.81354" lon="5.86662">
        <ele>937</ele>
        <time>2015-07-25T13:11:41Z</time>
      </trkpt>
      <trkpt lat="44.81348" lon="5.86661">
        <ele>938.2</ele>
        <time>2015-07-25T13:11:46Z</time>
      </trkpt>
      <trkpt lat="44.81342" lon="5.86661">
        <ele>938.9</ele>
        <time>2015-07-25T13:11:51Z</time>
      </trkpt>
      <trkpt lat="44.81335" lon="5.86659">
        <ele>939.8</ele>
        <time>2015-07-25T13:11:56Z</time>
      </trkpt>
      <trkpt lat="44.81329" lon="5.86658">
        <ele>941.3</ele>
        <time>2015-07-25T13:12:01Z</time>
      </trkpt>
      <trkpt lat="44.81322" lon="5.86657">
        <ele>941.1</ele>
        <time>2015-07-25T13:12:06Z</time>
      </trkpt>
      <trkpt lat="44.81316" lon="5.86656">
        <ele>941.8</ele>
        <time>2015-07-25T13:12:11Z</time>
      </trkpt>
      <trkpt lat="44.81309" lon="5.86655">
        <ele>942.2</ele>
        <time>2015-07-25T13:12:16Z</time>
      </trkpt>
      <trkpt lat="44.81303" lon="5.86656">
        <ele>941.8</ele>
        <time>2015-07-25T13:12:21Z</time>
      </trkpt>
      <trkpt lat="44.81297" lon="5.86657">
        <ele>941.4</ele>
        <time>2015-07-25T13:12:26Z</time>
      </trkpt>
      <trkpt lat="44.81294" lon="5.86657">
        <ele>942.6</ele>
        <time>2015-07-25T13:12:31Z</time>
      </trkpt>
      <trkpt lat="44.81289" lon="5.86657">
        <ele>942.9</ele>
        <time>2015-07-25T13:12:36Z</time>
      </trkpt>
      <trkpt lat="44.81286" lon="5.86657">
        <ele>944.3</ele>
        <time>2015-07-25T13:12:41Z</time>
      </trkpt>
      <trkpt lat="44.81277" lon="5.86656">
        <ele>942.3</ele>
        <time>2015-07-25T13:12:46Z</time>
      </trkpt>
      <trkpt lat="44.8127" lon="5.86655">
        <ele>941</ele>
        <time>2015-07-25T13:12:51Z</time>
      </trkpt>
      <trkpt lat="44.81263" lon="5.86656">
        <ele>941.7</ele>
        <time>2015-07-25T13:12:56Z</time>
      </trkpt>
      <trkpt lat="44.81257" lon="5.86654">
        <ele>941.9</ele>
        <time>2015-07-25T13:13:01Z</time>
      </trkpt>
      <trkpt lat="44.81251" lon="5.86652">
        <ele>941.6</ele>
        <time>2015-07-25T13:13:06Z</time>
      </trkpt>
      <trkpt lat="44.81248" lon="5.86648">
        <ele>940.8</ele>
        <time>2015-07-25T13:13:11Z</time>
      </trkpt>
      <trkpt lat="44.81244" lon="5.86647">
        <ele>940.7</ele>
        <time>2015-07-25T13:13:16Z</time>
      </trkpt>
      <trkpt lat="44.81238" lon="5.86646">
        <ele>940.5</ele>
        <time>2015-07-25T13:13:21Z</time>
      </trkpt>
      <trkpt lat="44.81232" lon="5.86643">
        <ele>940.9</ele>
        <time>2015-07-25T13:13:26Z</time>
      </trkpt>
      <trkpt lat="44.81226" lon="5.86642">
        <ele>940.8</ele>
        <time>2015-07-25T13:13:31Z</time>
      </trkpt>
      <trkpt lat="44.81222" lon="5.8664">
        <ele>940.6</ele>
        <time>2015-07-25T13:13:36Z</time>
      </trkpt>
      <trkpt lat="44.81222" lon="5.86639">
        <ele>941.1</ele>
        <time>2015-07-25T13:13:41Z</time>
      </trkpt>
      <trkpt lat="44.81221" lon="5.86638">
        <ele>941.9</ele>
        <time>2015-07-25T13:13:46Z</time>
      </trkpt>
      <trkpt lat="44.81221" lon="5.86638">
        <ele>942.5</ele>
        <time>2015-07-25T13:13:51Z</time>
      </trkpt>
      <trkpt lat="44.81221" lon="5.86638">
        <ele>942.9</ele>
        <time>2015-07-25T13:13:56Z</time>
      </trkpt>
      <trkpt lat="44.81224" lon="5.8664">
        <ele>942.5</ele>
        <time>2015-07-25T13:14:01Z</time>
      </trkpt>
      <trkpt lat="44.81228" lon="5.86641">
        <ele>941.4</ele>
        <time>2015-07-25T13:14:06Z</time>
      </trkpt>
      <trkpt lat="44.81228" lon="5.86642">
        <ele>941.4</ele>
        <time>2015-07-25T13:14:11Z</time>
      </trkpt>
      <trkpt lat="44.81228" lon="5.86642">
        <ele>941.4</ele>
        <time>2015-07-25T13:14:16Z</time>
      </trkpt>
      <trkpt lat="44.81232" lon="5.86644">
        <ele>941.7</ele>
        <time>2015-07-25T13:14:21Z</time>
      </trkpt>
      <trkpt lat="44.81238" lon="5.86647">
        <ele>940.4</ele>
        <time>2015-07-25T13:14:26Z</time>
      </trkpt>
      <trkpt lat="44.81244" lon="5.8665">
        <ele>939.9</ele>
        <time>2015-07-25T13:14:31Z</time>
      </trkpt>
      <trkpt lat="44.8125" lon="5.86654">
        <ele>939</ele>
        <time>2015-07-25T13:14:36Z</time>
      </trkpt>
      <trkpt lat="44.81255" lon="5.86657">
        <ele>938.5</ele>
        <time>2015-07-25T13:14:41Z</time>
      </trkpt>
      <trkpt lat="44.81262" lon="5.8666">
        <ele>938.1</ele>
        <time>2015-07-25T13:14:46Z</time>
      </trkpt>
      <trkpt lat="44.81268" lon="5.8666">
        <ele>937.6</ele>
        <time>2015-07-25T13:14:51Z</time>
      </trkpt>
      <trkpt lat="44.81275" lon="5.86662">
        <ele>937</ele>
        <time>2015-07-25T13:14:56Z</time>
      </trkpt>
      <trkpt lat="44.81283" lon="5.86662">
        <ele>936.8</ele>
        <time>2015-07-25T13:15:01Z</time>
      </trkpt>
      <trkpt lat="44.81289" lon="5.86662">
        <ele>936.1</ele>
        <time>2015-07-25T13:15:06Z</time>
      </trkpt>
      <trkpt lat="44.81296" lon="5.86662">
        <ele>935.1</ele>
        <time>2015-07-25T13:15:11Z</time>
      </trkpt>
      <trkpt lat="44.81303" lon="5.86663">
        <ele>934.7</ele>
        <time>2015-07-25T13:15:16Z</time>
      </trkpt>
      <trkpt lat="44.8131" lon="5.86663">
        <ele>934.4</ele>
        <time>2015-07-25T13:15:21Z</time>
      </trkpt>
      <trkpt lat="44.81317" lon="5.86662">
        <ele>933.9</ele>
        <time>2015-07-25T13:15:26Z</time>
      </trkpt>
      <trkpt lat="44.81324" lon="5.86662">
        <ele>933.4</ele>
        <time>2015-07-25T13:15:31Z</time>
      </trkpt>
      <trkpt lat="44.81331" lon="5.86663">
        <ele>933</ele>
        <time>2015-07-25T13:15:36Z</time>
      </trkpt>
      <trkpt lat="44.81338" lon="5.86663">
        <ele>932.7</ele>
        <time>2015-07-25T13:15:41Z</time>
      </trkpt>
      <trkpt lat="44.81345" lon="5.86664">
        <ele>932.4</ele>
        <time>2015-07-25T13:15:46Z</time>
      </trkpt>
      <trkpt lat="44.81352" lon="5.86664">
        <ele>931.8</ele>
        <time>2015-07-25T13:15:51Z</time>
      </trkpt>
      <trkpt lat="44.81359" lon="5.86663">
        <ele>931.6</ele>
        <time>2015-07-25T13:15:56Z</time>
      </trkpt>
      <trkpt lat="44.81365" lon="5.86661">
        <ele>931.7</ele>
        <time>2015-07-25T13:16:01Z</time>
      </trkpt>
      <trkpt lat="44.81372" lon="5.86659">
        <ele>931.7</ele>
        <time>2015-07-25T13:16:06Z</time>
      </trkpt>
      <trkpt lat="44.81378" lon="5.86657">
        <ele>931.8</ele>
        <time>2015-07-25T13:16:11Z</time>
      </trkpt>
      <trkpt lat="44.81385" lon="5.86654">
        <ele>931.8</ele>
        <time>2015-07-25T13:16:16Z</time>
      </trkpt>
      <trkpt lat="44.8139" lon="5.86651">
        <ele>931.6</ele>
        <time>2015-07-25T13:16:21Z</time>
      </trkpt>
      <trkpt lat="44.81397" lon="5.86648">
        <ele>931.4</ele>
        <time>2015-07-25T13:16:26Z</time>
      </trkpt>
      <trkpt lat="44.81403" lon="5.86646">
        <ele>931.2</ele>
        <time>2015-07-25T13:16:31Z</time>
      </trkpt>
      <trkpt lat="44.8141" lon="5.86643">
        <ele>930.9</ele>
        <time>2015-07-25T13:16:36Z</time>
      </trkpt>
      <trkpt lat="44.81416" lon="5.86641">
        <ele>930.7</ele>
        <time>2015-07-25T13:16:41Z</time>
      </trkpt>
      <trkpt lat="44.81423" lon="5.86637">
        <ele>930.2</ele>
        <time>2015-07-25T13:16:46Z</time>
      </trkpt>
      <trkpt lat="44.8143" lon="5.86634">
        <ele>929.1</ele>
        <time>2015-07-25T13:16:51Z</time>
      </trkpt>
      <trkpt lat="44.81436" lon="5.86631">
        <ele>929</ele>
        <time>2015-07-25T13:16:56Z</time>
      </trkpt>
      <trkpt lat="44.8144" lon="5.86628">
        <ele>929</ele>
        <time>2015-07-25T13:17:01Z</time>
      </trkpt>
      <trkpt lat="44.8144" lon="5.86627">
        <ele>929.2</ele>
        <time>2015-07-25T13:17:06Z</time>
      </trkpt>
      <trkpt lat="44.81445" lon="5.86625">
        <ele>929.6</ele>
        <time>2015-07-25T13:17:11Z</time>
      </trkpt>
      <trkpt lat="44.8145" lon="5.86622">
        <ele>929.9</ele>
        <time>2015-07-25T13:17:16Z</time>
      </trkpt>
      <trkpt lat="44.81456" lon="5.86621">
        <ele>930.1</ele>
        <time>2015-07-25T13:17:21Z</time>
      </trkpt>
      <trkpt lat="44.81461" lon="5.86618">
        <ele>929.8</ele>
        <time>2015-07-25T13:17:26Z</time>
      </trkpt>
      <trkpt lat="44.81467" lon="5.86613">
        <ele>929.3</ele>
        <time>2015-07-25T13:17:31Z</time>
      </trkpt>
      <trkpt lat="44.81473" lon="5.8661">
        <ele>929</ele>
        <time>2015-07-25T13:17:36Z</time>
      </trkpt>
      <trkpt lat="44.81479" lon="5.86607">
        <ele>928.8</ele>
        <time>2015-07-25T13:17:41Z</time>
      </trkpt>
      <trkpt lat="44.81486" lon="5.86604">
        <ele>928.3</ele>
        <time>2015-07-25T13:17:46Z</time>
      </trkpt>
      <trkpt lat="44.81492" lon="5.866">
        <ele>928</ele>
        <time>2015-07-25T13:17:51Z</time>
      </trkpt>
      <trkpt lat="44.81498" lon="5.86596">
        <ele>927.6</ele>
        <time>2015-07-25T13:17:56Z</time>
      </trkpt>
      <trkpt lat="44.81504" lon="5.86592">
        <ele>927.2</ele>
        <time>2015-07-25T13:18:01Z</time>
      </trkpt>
      <trkpt lat="44.81511" lon="5.86588">
        <ele>927.2</ele>
        <time>2015-07-25T13:18:06Z</time>
      </trkpt>
      <trkpt lat="44.81517" lon="5.86583">
        <ele>926.7</ele>
        <time>2015-07-25T13:18:11Z</time>
      </trkpt>
      <trkpt lat="44.81522" lon="5.86579">
        <ele>926.2</ele>
        <time>2015-07-25T13:18:16Z</time>
      </trkpt>
      <trkpt lat="44.81529" lon="5.86575">
        <ele>925.9</ele>
        <time>2015-07-25T13:18:21Z</time>
      </trkpt>
      <trkpt lat="44.81533" lon="5.86573">
        <ele>924.6</ele>
        <time>2015-07-25T13:18:26Z</time>
      </trkpt>
      <trkpt lat="44.81539" lon="5.86572">
        <ele>924.2</ele>
        <time>2015-07-25T13:18:31Z</time>
      </trkpt>
      <trkpt lat="44.81546" lon="5.86573">
        <ele>923.9</ele>
        <time>2015-07-25T13:18:36Z</time>
      </trkpt>
      <trkpt lat="44.81552" lon="5.86578">
        <ele>924.3</ele>
        <time>2015-07-25T13:18:41Z</time>
      </trkpt>
      <trkpt lat="44.81558" lon="5.8658">
        <ele>923.6</ele>
        <time>2015-07-25T13:18:46Z</time>
      </trkpt>
      <trkpt lat="44.81565" lon="5.86581">
        <ele>923.4</ele>
        <time>2015-07-25T13:18:51Z</time>
      </trkpt>
      <trkpt lat="44.81572" lon="5.86584">
        <ele>922</ele>
        <time>2015-07-25T13:18:56Z</time>
      </trkpt>
      <trkpt lat="44.81579" lon="5.86587">
        <ele>921.8</ele>
        <time>2015-07-25T13:19:01Z</time>
      </trkpt>
      <trkpt lat="44.81586" lon="5.86591">
        <ele>922.5</ele>
        <time>2015-07-25T13:19:06Z</time>
      </trkpt>
      <trkpt lat="44.81592" lon="5.86594">
        <ele>921.4</ele>
        <time>2015-07-25T13:19:11Z</time>
      </trkpt>
      <trkpt lat="44.81598" lon="5.86597">
        <ele>920.9</ele>
        <time>2015-07-25T13:19:16Z</time>
      </trkpt>
      <trkpt lat="44.81605" lon="5.866">
        <ele>920.1</ele>
        <time>2015-07-25T13:19:21Z</time>
      </trkpt>
      <trkpt lat="44.81612" lon="5.86603">
        <ele>919.4</ele>
        <time>2015-07-25T13:19:26Z</time>
      </trkpt>
      <trkpt lat="44.81618" lon="5.86604">
        <ele>919.1</ele>
        <time>2015-07-25T13:19:31Z</time>
      </trkpt>
      <trkpt lat="44.81625" lon="5.86606">
        <ele>918.7</ele>
        <time>2015-07-25T13:19:36Z</time>
      </trkpt>
      <trkpt lat="44.81632" lon="5.86607">
        <ele>918</ele>
        <time>2015-07-25T13:19:41Z</time>
      </trkpt>
      <trkpt lat="44.81639" lon="5.86609">
        <ele>917.5</ele>
        <time>2015-07-25T13:19:46Z</time>
      </trkpt>
      <trkpt lat="44.81647" lon="5.86612">
        <ele>917</ele>
        <time>2015-07-25T13:19:51Z</time>
      </trkpt>
      <trkpt lat="44.81654" lon="5.86615">
        <ele>916.9</ele>
        <time>2015-07-25T13:19:56Z</time>
      </trkpt>
      <trkpt lat="44.81661" lon="5.86617">
        <ele>916.4</ele>
        <time>2015-07-25T13:20:01Z</time>
      </trkpt>
      <trkpt lat="44.81668" lon="5.8662">
        <ele>916.3</ele>
        <time>2015-07-25T13:20:06Z</time>
      </trkpt>
      <trkpt lat="44.81675" lon="5.86622">
        <ele>915.8</ele>
        <time>2015-07-25T13:20:11Z</time>
      </trkpt>
      <trkpt lat="44.81682" lon="5.86625">
        <ele>915.3</ele>
        <time>2015-07-25T13:20:16Z</time>
      </trkpt>
      <trkpt lat="44.81688" lon="5.86629">
        <ele>915.3</ele>
        <time>2015-07-25T13:20:21Z</time>
      </trkpt>
      <trkpt lat="44.81695" lon="5.86631">
        <ele>914.7</ele>
        <time>2015-07-25T13:20:26Z</time>
      </trkpt>
      <trkpt lat="44.81702" lon="5.86634">
        <ele>914.3</ele>
        <time>2015-07-25T13:20:31Z</time>
      </trkpt>
      <trkpt lat="44.81708" lon="5.86636">
        <ele>913.8</ele>
        <time>2015-07-25T13:20:36Z</time>
      </trkpt>
      <trkpt lat="44.81715" lon="5.86638">
        <ele>913.8</ele>
        <time>2015-07-25T13:20:41Z</time>
      </trkpt>
      <trkpt lat="44.8172" lon="5.86639">
        <ele>912.9</ele>
        <time>2015-07-25T13:20:46Z</time>
      </trkpt>
      <trkpt lat="44.81724" lon="5.86639">
        <ele>912.2</ele>
        <time>2015-07-25T13:20:51Z</time>
      </trkpt>
      <trkpt lat="44.81724" lon="5.86632">
        <ele>911.3</ele>
        <time>2015-07-25T13:20:56Z</time>
      </trkpt>
      <trkpt lat="44.8172" lon="5.86628">
        <ele>910.3</ele>
        <time>2015-07-25T13:21:01Z</time>
      </trkpt>
      <trkpt lat="44.81715" lon="5.86625">
        <ele>908.5</ele>
        <time>2015-07-25T13:21:06Z</time>
      </trkpt>
      <trkpt lat="44.81711" lon="5.86625">
        <ele>908.6</ele>
        <time>2015-07-25T13:21:11Z</time>
      </trkpt>
      <trkpt lat="44.81705" lon="5.86622">
        <ele>907.5</ele>
        <time>2015-07-25T13:21:16Z</time>
      </trkpt>
      <trkpt lat="44.81697" lon="5.86615">
        <ele>906.7</ele>
        <time>2015-07-25T13:21:21Z</time>
      </trkpt>
      <trkpt lat="44.81688" lon="5.86608">
        <ele>906.7</ele>
        <time>2015-07-25T13:21:26Z</time>
      </trkpt>
      <trkpt lat="44.81681" lon="5.86603">
        <ele>907.5</ele>
        <time>2015-07-25T13:21:31Z</time>
      </trkpt>
      <trkpt lat="44.81675" lon="5.86598">
        <ele>908.2</ele>
        <time>2015-07-25T13:21:36Z</time>
      </trkpt>
      <trkpt lat="44.81666" lon="5.86592">
        <ele>909.6</ele>
        <time>2015-07-25T13:21:41Z</time>
      </trkpt>
      <trkpt lat="44.81659" lon="5.86588">
        <ele>910</ele>
        <time>2015-07-25T13:21:46Z</time>
      </trkpt>
      <trkpt lat="44.81652" lon="5.86585">
        <ele>910.9</ele>
        <time>2015-07-25T13:21:51Z</time>
      </trkpt>
      <trkpt lat="44.81646" lon="5.86582">
        <ele>911.7</ele>
        <time>2015-07-25T13:21:56Z</time>
      </trkpt>
      <trkpt lat="44.81636" lon="5.86575">
        <ele>912.5</ele>
        <time>2015-07-25T13:22:01Z</time>
      </trkpt>
      <trkpt lat="44.81629" lon="5.86573">
        <ele>912.3</ele>
        <time>2015-07-25T13:22:06Z</time>
      </trkpt>
      <trkpt lat="44.81623" lon="5.86569">
        <ele>911.2</ele>
        <time>2015-07-25T13:22:11Z</time>
      </trkpt>
      <trkpt lat="44.81616" lon="5.86567">
        <ele>910.6</ele>
        <time>2015-07-25T13:22:16Z</time>
      </trkpt>
      <trkpt lat="44.81609" lon="5.86562">
        <ele>910.3</ele>
        <time>2015-07-25T13:22:21Z</time>
      </trkpt>
      <trkpt lat="44.81601" lon="5.86558">
        <ele>908.5</ele>
        <time>2015-07-25T13:22:26Z</time>
      </trkpt>
      <trkpt lat="44.81595" lon="5.86553">
        <ele>907.6</ele>
        <time>2015-07-25T13:22:31Z</time>
      </trkpt>
      <trkpt lat="44.81588" lon="5.86549">
        <ele>906.7</ele>
        <time>2015-07-25T13:22:36Z</time>
      </trkpt>
      <trkpt lat="44.81582" lon="5.86543">
        <ele>907</ele>
        <time>2015-07-25T13:22:41Z</time>
      </trkpt>
      <trkpt lat="44.81576" lon="5.86535">
        <ele>907.5</ele>
        <time>2015-07-25T13:22:46Z</time>
      </trkpt>
      <trkpt lat="44.81569" lon="5.86529">
        <ele>908.6</ele>
        <time>2015-07-25T13:22:51Z</time>
      </trkpt>
      <trkpt lat="44.81563" lon="5.86524">
        <ele>906.1</ele>
        <time>2015-07-25T13:22:56Z</time>
      </trkpt>
      <trkpt lat="44.81556" lon="5.86518">
        <ele>906.1</ele>
        <time>2015-07-25T13:23:01Z</time>
      </trkpt>
      <trkpt lat="44.81548" lon="5.86513">
        <ele>907.6</ele>
        <time>2015-07-25T13:23:06Z</time>
      </trkpt>
      <trkpt lat="44.81541" lon="5.8651">
        <ele>909.7</ele>
        <time>2015-07-25T13:23:11Z</time>
      </trkpt>
      <trkpt lat="44.81533" lon="5.86509">
        <ele>910.9</ele>
        <time>2015-07-25T13:23:16Z</time>
      </trkpt>
      <trkpt lat="44.81526" lon="5.86508">
        <ele>911.5</ele>
        <time>2015-07-25T13:23:21Z</time>
      </trkpt>
      <trkpt lat="44.81519" lon="5.8651">
        <ele>911.1</ele>
        <time>2015-07-25T13:23:26Z</time>
      </trkpt>
      <trkpt lat="44.81512" lon="5.86513">
        <ele>913</ele>
        <time>2015-07-25T13:23:31Z</time>
      </trkpt>
      <trkpt lat="44.81503" lon="5.86515">
        <ele>916.2</ele>
        <time>2015-07-25T13:23:36Z</time>
      </trkpt>
      <trkpt lat="44.81497" lon="5.86519">
        <ele>914.4</ele>
        <time>2015-07-25T13:23:41Z</time>
      </trkpt>
      <trkpt lat="44.81489" lon="5.86523">
        <ele>916.1</ele>
        <time>2015-07-25T13:23:46Z</time>
      </trkpt>
      <trkpt lat="44.81484" lon="5.86529">
        <ele>911.5</ele>
        <time>2015-07-25T13:23:51Z</time>
      </trkpt>
      <trkpt lat="44.81478" lon="5.86534">
        <ele>909</ele>
        <time>2015-07-25T13:23:56Z</time>
      </trkpt>
      <trkpt lat="44.81471" lon="5.86536">
        <ele>910.6</ele>
        <time>2015-07-25T13:24:01Z</time>
      </trkpt>
      <trkpt lat="44.81463" lon="5.86539">
        <ele>911.1</ele>
        <time>2015-07-25T13:24:06Z</time>
      </trkpt>
      <trkpt lat="44.81453" lon="5.86542">
        <ele>912.8</ele>
        <time>2015-07-25T13:24:11Z</time>
      </trkpt>
      <trkpt lat="44.81446" lon="5.86544">
        <ele>912.1</ele>
        <time>2015-07-25T13:24:16Z</time>
      </trkpt>
      <trkpt lat="44.81439" lon="5.86545">
        <ele>911.2</ele>
        <time>2015-07-25T13:24:21Z</time>
      </trkpt>
      <trkpt lat="44.81434" lon="5.86545">
        <ele>909.8</ele>
        <time>2015-07-25T13:24:26Z</time>
      </trkpt>
      <trkpt lat="44.81427" lon="5.86546">
        <ele>907.5</ele>
        <time>2015-07-25T13:24:31Z</time>
      </trkpt>
      <trkpt lat="44.81421" lon="5.86548">
        <ele>906.1</ele>
        <time>2015-07-25T13:24:36Z</time>
      </trkpt>
      <trkpt lat="44.81413" lon="5.86549">
        <ele>905.7</ele>
        <time>2015-07-25T13:24:41Z</time>
      </trkpt>
      <trkpt lat="44.81404" lon="5.86547">
        <ele>907</ele>
        <time>2015-07-25T13:24:46Z</time>
      </trkpt>
      <trkpt lat="44.81395" lon="5.86546">
        <ele>907.7</ele>
        <time>2015-07-25T13:24:51Z</time>
      </trkpt>
      <trkpt lat="44.81388" lon="5.86544">
        <ele>907.2</ele>
        <time>2015-07-25T13:24:56Z</time>
      </trkpt>
      <trkpt lat="44.81377" lon="5.86543">
        <ele>911</ele>
        <time>2015-07-25T13:25:01Z</time>
      </trkpt>
      <trkpt lat="44.81369" lon="5.86544">
        <ele>909.5</ele>
        <time>2015-07-25T13:25:06Z</time>
      </trkpt>
      <trkpt lat="44.81362" lon="5.86543">
        <ele>908.2</ele>
        <time>2015-07-25T13:25:11Z</time>
      </trkpt>
      <trkpt lat="44.81354" lon="5.86542">
        <ele>907.3</ele>
        <time>2015-07-25T13:25:16Z</time>
      </trkpt>
      <trkpt lat="44.81347" lon="5.86544">
        <ele>905</ele>
        <time>2015-07-25T13:25:21Z</time>
      </trkpt>
      <trkpt lat="44.81339" lon="5.86543">
        <ele>905.1</ele>
        <time>2015-07-25T13:25:26Z</time>
      </trkpt>
      <trkpt lat="44.81331" lon="5.86542">
        <ele>905.8</ele>
        <time>2015-07-25T13:25:31Z</time>
      </trkpt>
      <trkpt lat="44.81324" lon="5.8654">
        <ele>904.9</ele>
        <time>2015-07-25T13:25:36Z</time>
      </trkpt>
      <trkpt lat="44.81316" lon="5.86539">
        <ele>903.1</ele>
        <time>2015-07-25T13:25:41Z</time>
      </trkpt>
      <trkpt lat="44.8131" lon="5.86538">
        <ele>899.7</ele>
        <time>2015-07-25T13:25:46Z</time>
      </trkpt>
      <trkpt lat="44.81304" lon="5.86536">
        <ele>895.9</ele>
        <time>2015-07-25T13:25:51Z</time>
      </trkpt>
      <trkpt lat="44.81297" lon="5.86533">
        <ele>893</ele>
        <time>2015-07-25T13:25:56Z</time>
      </trkpt>
      <trkpt lat="44.81291" lon="5.86528">
        <ele>891.7</ele>
        <time>2015-07-25T13:26:01Z</time>
      </trkpt>
      <trkpt lat="44.81286" lon="5.86524">
        <ele>889.9</ele>
        <time>2015-07-25T13:26:06Z</time>
      </trkpt>
      <trkpt lat="44.81279" lon="5.86519">
        <ele>888.7</ele>
        <time>2015-07-25T13:26:11Z</time>
      </trkpt>
      <trkpt lat="44.81273" lon="5.86513">
        <ele>888.6</ele>
        <time>2015-07-25T13:26:16Z</time>
      </trkpt>
      <trkpt lat="44.81266" lon="5.86506">
        <ele>890.2</ele>
        <time>2015-07-25T13:26:21Z</time>
      </trkpt>
      <trkpt lat="44.81259" lon="5.865">
        <ele>891.5</ele>
        <time>2015-07-25T13:26:26Z</time>
      </trkpt>
      <trkpt lat="44.81253" lon="5.86495">
        <ele>891.1</ele>
        <time>2015-07-25T13:26:31Z</time>
      </trkpt>
      <trkpt lat="44.81247" lon="5.86491">
        <ele>888</ele>
        <time>2015-07-25T13:26:36Z</time>
      </trkpt>
      <trkpt lat="44.81241" lon="5.86487">
        <ele>887.5</ele>
        <time>2015-07-25T13:26:41Z</time>
      </trkpt>
      <trkpt lat="44.81232" lon="5.86482">
        <ele>888.9</ele>
        <time>2015-07-25T13:26:46Z</time>
      </trkpt>
      <trkpt lat="44.81225" lon="5.86477">
        <ele>888.8</ele>
        <time>2015-07-25T13:26:51Z</time>
      </trkpt>
      <trkpt lat="44.81218" lon="5.86471">
        <ele>891</ele>
        <time>2015-07-25T13:26:56Z</time>
      </trkpt>
      <trkpt lat="44.81212" lon="5.86466">
        <ele>891.6</ele>
        <time>2015-07-25T13:27:01Z</time>
      </trkpt>
      <trkpt lat="44.81207" lon="5.8646">
        <ele>890</ele>
        <time>2015-07-25T13:27:06Z</time>
      </trkpt>
      <trkpt lat="44.81205" lon="5.86454">
        <ele>887.5</ele>
        <time>2015-07-25T13:27:11Z</time>
      </trkpt>
      <trkpt lat="44.81207" lon="5.86448">
        <ele>885.7</ele>
        <time>2015-07-25T13:27:16Z</time>
      </trkpt>
      <trkpt lat="44.81207" lon="5.8644">
        <ele>885.6</ele>
        <time>2015-07-25T13:27:21Z</time>
      </trkpt>
      <trkpt lat="44.81211" lon="5.86433">
        <ele>886.1</ele>
        <time>2015-07-25T13:27:26Z</time>
      </trkpt>
      <trkpt lat="44.81214" lon="5.86425">
        <ele>887.3</ele>
        <time>2015-07-25T13:27:31Z</time>
      </trkpt>
      <trkpt lat="44.81218" lon="5.86418">
        <ele>888</ele>
        <time>2015-07-25T13:27:36Z</time>
      </trkpt>
      <trkpt lat="44.8122" lon="5.86411">
        <ele>886.7</ele>
        <time>2015-07-25T13:27:41Z</time>
      </trkpt>
      <trkpt lat="44.81224" lon="5.86405">
        <ele>886</ele>
        <time>2015-07-25T13:27:46Z</time>
      </trkpt>
      <trkpt lat="44.81228" lon="5.864">
        <ele>885.9</ele>
        <time>2015-07-25T13:27:51Z</time>
      </trkpt>
      <trkpt lat="44.81233" lon="5.86396">
        <ele>886.1</ele>
        <time>2015-07-25T13:27:56Z</time>
      </trkpt>
      <trkpt lat="44.81237" lon="5.86391">
        <ele>886.6</ele>
        <time>2015-07-25T13:28:01Z</time>
      </trkpt>
      <trkpt lat="44.81242" lon="5.86387">
        <ele>886.9</ele>
        <time>2015-07-25T13:28:06Z</time>
      </trkpt>
      <trkpt lat="44.81247" lon="5.86382">
        <ele>887.5</ele>
        <time>2015-07-25T13:28:11Z</time>
      </trkpt>
      <trkpt lat="44.81252" lon="5.86376">
        <ele>888.2</ele>
        <time>2015-07-25T13:28:16Z</time>
      </trkpt>
      <trkpt lat="44.81256" lon="5.86372">
        <ele>888.4</ele>
        <time>2015-07-25T13:28:21Z</time>
      </trkpt>
      <trkpt lat="44.81261" lon="5.86366">
        <ele>889.2</ele>
        <time>2015-07-25T13:28:26Z</time>
      </trkpt>
      <trkpt lat="44.81265" lon="5.86361">
        <ele>889.6</ele>
        <time>2015-07-25T13:28:31Z</time>
      </trkpt>
      <trkpt lat="44.81269" lon="5.86354">
        <ele>889.4</ele>
        <time>2015-07-25T13:28:36Z</time>
      </trkpt>
      <trkpt lat="44.81273" lon="5.86349">
        <ele>889.4</ele>
        <time>2015-07-25T13:28:41Z</time>
      </trkpt>
      <trkpt lat="44.81277" lon="5.86342">
        <ele>889.7</ele>
        <time>2015-07-25T13:28:46Z</time>
      </trkpt>
      <trkpt lat="44.81281" lon="5.86335">
        <ele>891.1</ele>
        <time>2015-07-25T13:28:51Z</time>
      </trkpt>
      <trkpt lat="44.81285" lon="5.86329">
        <ele>894.7</ele>
        <time>2015-07-25T13:28:56Z</time>
      </trkpt>
      <trkpt lat="44.81289" lon="5.86323">
        <ele>895.6</ele>
        <time>2015-07-25T13:29:01Z</time>
      </trkpt>
      <trkpt lat="44.8129" lon="5.86316">
        <ele>893.4</ele>
        <time>2015-07-25T13:29:06Z</time>
      </trkpt>
      <trkpt lat="44.81295" lon="5.8631">
        <ele>894.7</ele>
        <time>2015-07-25T13:29:11Z</time>
      </trkpt>
      <trkpt lat="44.813" lon="5.86304">
        <ele>898.4</ele>
        <time>2015-07-25T13:29:16Z</time>
      </trkpt>
      <trkpt lat="44.81304" lon="5.86298">
        <ele>901.9</ele>
        <time>2015-07-25T13:29:21Z</time>
      </trkpt>
      <trkpt lat="44.81308" lon="5.86291">
        <ele>904.7</ele>
        <time>2015-07-25T13:29:26Z</time>
      </trkpt>
      <trkpt lat="44.81311" lon="5.86285">
        <ele>906.5</ele>
        <time>2015-07-25T13:29:31Z</time>
      </trkpt>
      <trkpt lat="44.81314" lon="5.86278">
        <ele>908.6</ele>
        <time>2015-07-25T13:29:36Z</time>
      </trkpt>
      <trkpt lat="44.81318" lon="5.86272">
        <ele>911.5</ele>
        <time>2015-07-25T13:29:41Z</time>
      </trkpt>
      <trkpt lat="44.8132" lon="5.86265">
        <ele>911.6</ele>
        <time>2015-07-25T13:29:46Z</time>
      </trkpt>
      <trkpt lat="44.81323" lon="5.86257">
        <ele>910.6</ele>
        <time>2015-07-25T13:29:51Z</time>
      </trkpt>
      <trkpt lat="44.81322" lon="5.86248">
        <ele>907.5</ele>
        <time>2015-07-25T13:29:56Z</time>
      </trkpt>
      <trkpt lat="44.81324" lon="5.8624">
        <ele>904.9</ele>
        <time>2015-07-25T13:30:01Z</time>
      </trkpt>
      <trkpt lat="44.81327" lon="5.86233">
        <ele>904.8</ele>
        <time>2015-07-25T13:30:06Z</time>
      </trkpt>
      <trkpt lat="44.8133" lon="5.86227">
        <ele>903.8</ele>
        <time>2015-07-25T13:30:11Z</time>
      </trkpt>
      <trkpt lat="44.81331" lon="5.86223">
        <ele>902</ele>
        <time>2015-07-25T13:30:16Z</time>
      </trkpt>
      <trkpt lat="44.81334" lon="5.86218">
        <ele>899.9</ele>
        <time>2015-07-25T13:30:21Z</time>
      </trkpt>
      <trkpt lat="44.81338" lon="5.86212">
        <ele>900.1</ele>
        <time>2015-07-25T13:30:26Z</time>
      </trkpt>
      <trkpt lat="44.81342" lon="5.86207">
        <ele>900.7</ele>
        <time>2015-07-25T13:30:31Z</time>
      </trkpt>
      <trkpt lat="44.81346" lon="5.86203">
        <ele>900.8</ele>
        <time>2015-07-25T13:30:36Z</time>
      </trkpt>
      <trkpt lat="44.8135" lon="5.86199">
        <ele>900.8</ele>
        <time>2015-07-25T13:30:41Z</time>
      </trkpt>
      <trkpt lat="44.81355" lon="5.86195">
        <ele>901.3</ele>
        <time>2015-07-25T13:30:46Z</time>
      </trkpt>
      <trkpt lat="44.8136" lon="5.86192">
        <ele>901.8</ele>
        <time>2015-07-25T13:30:51Z</time>
      </trkpt>
      <trkpt lat="44.81365" lon="5.86188">
        <ele>902</ele>
        <time>2015-07-25T13:30:56Z</time>
      </trkpt>
      <trkpt lat="44.81369" lon="5.86183">
        <ele>902.4</ele>
        <time>2015-07-25T13:31:01Z</time>
      </trkpt>
      <trkpt lat="44.81375" lon="5.8618">
        <ele>903</ele>
        <time>2015-07-25T13:31:06Z</time>
      </trkpt>
      <trkpt lat="44.8138" lon="5.86176">
        <ele>903.2</ele>
        <time>2015-07-25T13:31:11Z</time>
      </trkpt>
      <trkpt lat="44.81385" lon="5.86172">
        <ele>903.6</ele>
        <time>2015-07-25T13:31:16Z</time>
      </trkpt>
      <trkpt lat="44.8139" lon="5.86169">
        <ele>904.4</ele>
        <time>2015-07-25T13:31:21Z</time>
      </trkpt>
      <trkpt lat="44.81395" lon="5.86165">
        <ele>904.9</ele>
        <time>2015-07-25T13:31:26Z</time>
      </trkpt>
      <trkpt lat="44.81401" lon="5.86161">
        <ele>905.5</ele>
        <time>2015-07-25T13:31:31Z</time>
      </trkpt>
      <trkpt lat="44.81406" lon="5.86158">
        <ele>906.1</ele>
        <time>2015-07-25T13:31:36Z</time>
      </trkpt>
      <trkpt lat="44.81411" lon="5.86154">
        <ele>906.7</ele>
        <time>2015-07-25T13:31:41Z</time>
      </trkpt>
      <trkpt lat="44.81416" lon="5.86151">
        <ele>907.5</ele>
        <time>2015-07-25T13:31:46Z</time>
      </trkpt>
      <trkpt lat="44.8142" lon="5.86148">
        <ele>907.9</ele>
        <time>2015-07-25T13:31:51Z</time>
      </trkpt>
      <trkpt lat="44.81424" lon="5.86145">
        <ele>908.6</ele>
        <time>2015-07-25T13:31:56Z</time>
      </trkpt>
      <trkpt lat="44.81429" lon="5.8614">
        <ele>909.2</ele>
        <time>2015-07-25T13:32:01Z</time>
      </trkpt>
      <trkpt lat="44.81434" lon="5.86137">
        <ele>910.1</ele>
        <time>2015-07-25T13:32:06Z</time>
      </trkpt>
      <trkpt lat="44.8144" lon="5.86134">
        <ele>911.5</ele>
        <time>2015-07-25T13:32:11Z</time>
      </trkpt>
      <trkpt lat="44.81445" lon="5.86132">
        <ele>912.7</ele>
        <time>2015-07-25T13:32:16Z</time>
      </trkpt>
      <trkpt lat="44.8145" lon="5.8613">
        <ele>913.4</ele>
        <time>2015-07-25T13:32:21Z</time>
      </trkpt>
      <trkpt lat="44.81456" lon="5.86129">
        <ele>914.2</ele>
        <time>2015-07-25T13:32:26Z</time>
      </trkpt>
      <trkpt lat="44.81462" lon="5.86129">
        <ele>915.6</ele>
        <time>2015-07-25T13:32:31Z</time>
      </trkpt>
      <trkpt lat="44.81467" lon="5.86129">
        <ele>917.1</ele>
        <time>2015-07-25T13:32:36Z</time>
      </trkpt>
      <trkpt lat="44.81472" lon="5.86129">
        <ele>918.7</ele>
        <time>2015-07-25T13:32:41Z</time>
      </trkpt>
      <trkpt lat="44.81477" lon="5.86128">
        <ele>919.5</ele>
        <time>2015-07-25T13:32:46Z</time>
      </trkpt>
      <trkpt lat="44.81483" lon="5.86128">
        <ele>920.2</ele>
        <time>2015-07-25T13:32:51Z</time>
      </trkpt>
      <trkpt lat="44.81487" lon="5.86128">
        <ele>921.5</ele>
        <time>2015-07-25T13:32:56Z</time>
      </trkpt>
      <trkpt lat="44.81492" lon="5.86131">
        <ele>922.3</ele>
        <time>2015-07-25T13:33:01Z</time>
      </trkpt>
      <trkpt lat="44.81497" lon="5.86132">
        <ele>924.1</ele>
        <time>2015-07-25T13:33:06Z</time>
      </trkpt>
      <trkpt lat="44.81503" lon="5.86133">
        <ele>923.9</ele>
        <time>2015-07-25T13:33:11Z</time>
      </trkpt>
      <trkpt lat="44.81509" lon="5.86132">
        <ele>922.1</ele>
        <time>2015-07-25T13:33:16Z</time>
      </trkpt>
      <trkpt lat="44.81513" lon="5.8613">
        <ele>920.2</ele>
        <time>2015-07-25T13:33:21Z</time>
      </trkpt>
      <trkpt lat="44.81512" lon="5.86132">
        <ele>921.5</ele>
        <time>2015-07-25T13:33:26Z</time>
      </trkpt>
      <trkpt lat="44.81514" lon="5.8613">
        <ele>918.9</ele>
        <time>2015-07-25T13:33:31Z</time>
      </trkpt>
      <trkpt lat="44.8152" lon="5.86129">
        <ele>918.1</ele>
        <time>2015-07-25T13:33:36Z</time>
      </trkpt>
      <trkpt lat="44.81525" lon="5.86128">
        <ele>918</ele>
        <time>2015-07-25T13:33:41Z</time>
      </trkpt>
      <trkpt lat="44.81531" lon="5.86126">
        <ele>919.1</ele>
        <time>2015-07-25T13:33:46Z</time>
      </trkpt>
      <trkpt lat="44.81536" lon="5.86124">
        <ele>919.6</ele>
        <time>2015-07-25T13:33:51Z</time>
      </trkpt>
      <trkpt lat="44.81542" lon="5.86123">
        <ele>920.9</ele>
        <time>2015-07-25T13:33:56Z</time>
      </trkpt>
      <trkpt lat="44.81548" lon="5.8612">
        <ele>921.7</ele>
        <time>2015-07-25T13:34:01Z</time>
      </trkpt>
      <trkpt lat="44.81553" lon="5.86117">
        <ele>922.2</ele>
        <time>2015-07-25T13:34:06Z</time>
      </trkpt>
      <trkpt lat="44.81558" lon="5.86114">
        <ele>922.9</ele>
        <time>2015-07-25T13:34:11Z</time>
      </trkpt>
      <trkpt lat="44.81564" lon="5.86111">
        <ele>923.5</ele>
        <time>2015-07-25T13:34:16Z</time>
      </trkpt>
      <trkpt lat="44.8157" lon="5.86109">
        <ele>924.1</ele>
        <time>2015-07-25T13:34:21Z</time>
      </trkpt>
      <trkpt lat="44.81575" lon="5.86106">
        <ele>924.6</ele>
        <time>2015-07-25T13:34:26Z</time>
      </trkpt>
      <trkpt lat="44.8158" lon="5.86103">
        <ele>925</ele>
        <time>2015-07-25T13:34:31Z</time>
      </trkpt>
      <trkpt lat="44.81586" lon="5.861">
        <ele>925.7</ele>
        <time>2015-07-25T13:34:36Z</time>
      </trkpt>
      <trkpt lat="44.8159" lon="5.86097">
        <ele>927</ele>
        <time>2015-07-25T13:34:41Z</time>
      </trkpt>
      <trkpt lat="44.81596" lon="5.86093">
        <ele>927.1</ele>
        <time>2015-07-25T13:34:46Z</time>
      </trkpt>
      <trkpt lat="44.81601" lon="5.86088">
        <ele>928.7</ele>
        <time>2015-07-25T13:34:51Z</time>
      </trkpt>
      <trkpt lat="44.81604" lon="5.86082">
        <ele>927.4</ele>
        <time>2015-07-25T13:34:56Z</time>
      </trkpt>
      <trkpt lat="44.81607" lon="5.86076">
        <ele>927.6</ele>
        <time>2015-07-25T13:35:01Z</time>
      </trkpt>
      <trkpt lat="44.8161" lon="5.8607">
        <ele>927.4</ele>
        <time>2015-07-25T13:35:06Z</time>
      </trkpt>
      <trkpt lat="44.81614" lon="5.86064">
        <ele>927.4</ele>
        <time>2015-07-25T13:35:11Z</time>
      </trkpt>
      <trkpt lat="44.81618" lon="5.86059">
        <ele>928.9</ele>
        <time>2015-07-25T13:35:16Z</time>
      </trkpt>
      <trkpt lat="44.81623" lon="5.86054">
        <ele>929.9</ele>
        <time>2015-07-25T13:35:21Z</time>
      </trkpt>
      <trkpt lat="44.81627" lon="5.86048">
        <ele>931.7</ele>
        <time>2015-07-25T13:35:26Z</time>
      </trkpt>
      <trkpt lat="44.8163" lon="5.86042">
        <ele>931.8</ele>
        <time>2015-07-25T13:35:31Z</time>
      </trkpt>
      <trkpt lat="44.81634" lon="5.86036">
        <ele>932.6</ele>
        <time>2015-07-25T13:35:36Z</time>
      </trkpt>
      <trkpt lat="44.81637" lon="5.8603">
        <ele>932.1</ele>
        <time>2015-07-25T13:35:41Z</time>
      </trkpt>
      <trkpt lat="44.81642" lon="5.86026">
        <ele>935.2</ele>
        <time>2015-07-25T13:35:46Z</time>
      </trkpt>
      <trkpt lat="44.81646" lon="5.86019">
        <ele>936.2</ele>
        <time>2015-07-25T13:35:51Z</time>
      </trkpt>
      <trkpt lat="44.8165" lon="5.86013">
        <ele>936.9</ele>
        <time>2015-07-25T13:35:56Z</time>
      </trkpt>
      <trkpt lat="44.81655" lon="5.86008">
        <ele>939.3</ele>
        <time>2015-07-25T13:36:01Z</time>
      </trkpt>
      <trkpt lat="44.81657" lon="5.86001">
        <ele>938.6</ele>
        <time>2015-07-25T13:36:06Z</time>
      </trkpt>
      <trkpt lat="44.81659" lon="5.85994">
        <ele>937.1</ele>
        <time>2015-07-25T13:36:11Z</time>
      </trkpt>
      <trkpt lat="44.81661" lon="5.85987">
        <ele>936.7</ele>
        <time>2015-07-25T13:36:16Z</time>
      </trkpt>
      <trkpt lat="44.81663" lon="5.8598">
        <ele>937</ele>
        <time>2015-07-25T13:36:21Z</time>
      </trkpt>
      <trkpt lat="44.81665" lon="5.85974">
        <ele>936.4</ele>
        <time>2015-07-25T13:36:26Z</time>
      </trkpt>
      <trkpt lat="44.81668" lon="5.85968">
        <ele>937.4</ele>
        <time>2015-07-25T13:36:31Z</time>
      </trkpt>
      <trkpt lat="44.81669" lon="5.85962">
        <ele>939.2</ele>
        <time>2015-07-25T13:36:36Z</time>
      </trkpt>
      <trkpt lat="44.81672" lon="5.85956">
        <ele>941.5</ele>
        <time>2015-07-25T13:36:41Z</time>
      </trkpt>
      <trkpt lat="44.81672" lon="5.85948">
        <ele>941.7</ele>
        <time>2015-07-25T13:36:46Z</time>
      </trkpt>
      <trkpt lat="44.81673" lon="5.8594">
        <ele>942.7</ele>
        <time>2015-07-25T13:36:51Z</time>
      </trkpt>
      <trkpt lat="44.81675" lon="5.85932">
        <ele>944.1</ele>
        <time>2015-07-25T13:36:56Z</time>
      </trkpt>
      <trkpt lat="44.8168" lon="5.85926">
        <ele>948.3</ele>
        <time>2015-07-25T13:37:01Z</time>
      </trkpt>
      <trkpt lat="44.81684" lon="5.8592">
        <ele>951.3</ele>
        <time>2015-07-25T13:37:06Z</time>
      </trkpt>
      <trkpt lat="44.81687" lon="5.85915">
        <ele>949.7</ele>
        <time>2015-07-25T13:37:11Z</time>
      </trkpt>
      <trkpt lat="44.81691" lon="5.85915">
        <ele>947.8</ele>
        <time>2015-07-25T13:37:16Z</time>
      </trkpt>
      <trkpt lat="44.81695" lon="5.85918">
        <ele>945.1</ele>
        <time>2015-07-25T13:37:21Z</time>
      </trkpt>
      <trkpt lat="44.81698" lon="5.85923">
        <ele>943.7</ele>
        <time>2015-07-25T13:37:26Z</time>
      </trkpt>
      <trkpt lat="44.81697" lon="5.85929">
        <ele>947.2</ele>
        <time>2015-07-25T13:37:31Z</time>
      </trkpt>
      <trkpt lat="44.817" lon="5.85936">
        <ele>947.3</ele>
        <time>2015-07-25T13:37:36Z</time>
      </trkpt>
      <trkpt lat="44.81704" lon="5.85941">
        <ele>946.9</ele>
        <time>2015-07-25T13:37:41Z</time>
      </trkpt>
      <trkpt lat="44.81709" lon="5.85947">
        <ele>946.9</ele>
        <time>2015-07-25T13:37:46Z</time>
      </trkpt>
      <trkpt lat="44.81714" lon="5.85952">
        <ele>945.4</ele>
        <time>2015-07-25T13:37:51Z</time>
      </trkpt>
      <trkpt lat="44.81719" lon="5.85958">
        <ele>944.6</ele>
        <time>2015-07-25T13:37:56Z</time>
      </trkpt>
      <trkpt lat="44.81722" lon="5.85965">
        <ele>946.8</ele>
        <time>2015-07-25T13:38:01Z</time>
      </trkpt>
      <trkpt lat="44.81726" lon="5.85971">
        <ele>948.9</ele>
        <time>2015-07-25T13:38:06Z</time>
      </trkpt>
      <trkpt lat="44.8173" lon="5.85976">
        <ele>949</ele>
        <time>2015-07-25T13:38:11Z</time>
      </trkpt>
      <trkpt lat="44.81733" lon="5.85978">
        <ele>948.6</ele>
        <time>2015-07-25T13:38:16Z</time>
      </trkpt>
      <trkpt lat="44.81737" lon="5.85983">
        <ele>948.5</ele>
        <time>2015-07-25T13:38:21Z</time>
      </trkpt>
      <trkpt lat="44.81742" lon="5.85988">
        <ele>948.8</ele>
        <time>2015-07-25T13:38:26Z</time>
      </trkpt>
      <trkpt lat="44.81746" lon="5.85993">
        <ele>949</ele>
        <time>2015-07-25T13:38:31Z</time>
      </trkpt>
      <trkpt lat="44.81751" lon="5.85997">
        <ele>948.9</ele>
        <time>2015-07-25T13:38:36Z</time>
      </trkpt>
      <trkpt lat="44.81756" lon="5.86001">
        <ele>948.5</ele>
        <time>2015-07-25T13:38:41Z</time>
      </trkpt>
      <trkpt lat="44.81759" lon="5.86005">
        <ele>948.6</ele>
        <time>2015-07-25T13:38:46Z</time>
      </trkpt>
      <trkpt lat="44.81765" lon="5.86009">
        <ele>946.3</ele>
        <time>2015-07-25T13:38:51Z</time>
      </trkpt>
      <trkpt lat="44.8177" lon="5.86014">
        <ele>945.5</ele>
        <time>2015-07-25T13:38:56Z</time>
      </trkpt>
      <trkpt lat="44.81775" lon="5.86017">
        <ele>944.4</ele>
        <time>2015-07-25T13:39:01Z</time>
      </trkpt>
      <trkpt lat="44.81779" lon="5.86021">
        <ele>943.8</ele>
        <time>2015-07-25T13:39:06Z</time>
      </trkpt>
      <trkpt lat="44.81785" lon="5.86025">
        <ele>943.8</ele>
        <time>2015-07-25T13:39:11Z</time>
      </trkpt>
      <trkpt lat="44.81789" lon="5.86028">
        <ele>944.5</ele>
        <time>2015-07-25T13:39:16Z</time>
      </trkpt>
      <trkpt lat="44.81796" lon="5.8603">
        <ele>945.4</ele>
        <time>2015-07-25T13:39:21Z</time>
      </trkpt>
      <trkpt lat="44.81801" lon="5.86032">
        <ele>946.1</ele>
        <time>2015-07-25T13:39:26Z</time>
      </trkpt>
      <trkpt lat="44.81806" lon="5.86034">
        <ele>946.1</ele>
        <time>2015-07-25T13:39:31Z</time>
      </trkpt>
      <trkpt lat="44.81812" lon="5.86033">
        <ele>946.2</ele>
        <time>2015-07-25T13:39:36Z</time>
      </trkpt>
      <trkpt lat="44.81817" lon="5.86033">
        <ele>946.8</ele>
        <time>2015-07-25T13:39:41Z</time>
      </trkpt>
      <trkpt lat="44.81823" lon="5.86035">
        <ele>948.7</ele>
        <time>2015-07-25T13:39:46Z</time>
      </trkpt>
      <trkpt lat="44.81829" lon="5.86036">
        <ele>950</ele>
        <time>2015-07-25T13:39:51Z</time>
      </trkpt>
      <trkpt lat="44.81834" lon="5.86038">
        <ele>951.2</ele>
        <time>2015-07-25T13:39:56Z</time>
      </trkpt>
      <trkpt lat="44.81839" lon="5.86041">
        <ele>952.6</ele>
        <time>2015-07-25T13:40:01Z</time>
      </trkpt>
      <trkpt lat="44.81843" lon="5.86046">
        <ele>953.6</ele>
        <time>2015-07-25T13:40:06Z</time>
      </trkpt>
      <trkpt lat="44.81846" lon="5.8605">
        <ele>956.4</ele>
        <time>2015-07-25T13:40:11Z</time>
      </trkpt>
      <trkpt lat="44.8185" lon="5.86055">
        <ele>957.9</ele>
        <time>2015-07-25T13:40:16Z</time>
      </trkpt>
      <trkpt lat="44.81852" lon="5.86063">
        <ele>960.8</ele>
        <time>2015-07-25T13:40:21Z</time>
      </trkpt>
      <trkpt lat="44.81861" lon="5.86068">
        <ele>958.1</ele>
        <time>2015-07-25T13:40:26Z</time>
      </trkpt>
      <trkpt lat="44.81867" lon="5.86072">
        <ele>957.9</ele>
        <time>2015-07-25T13:40:31Z</time>
      </trkpt>
      <trkpt lat="44.81873" lon="5.86075">
        <ele>957.2</ele>
        <time>2015-07-25T13:40:36Z</time>
      </trkpt>
      <trkpt lat="44.81878" lon="5.86075">
        <ele>956.8</ele>
        <time>2015-07-25T13:40:41Z</time>
      </trkpt>
      <trkpt lat="44.81881" lon="5.86077">
        <ele>957.3</ele>
        <time>2015-07-25T13:40:46Z</time>
      </trkpt>
      <trkpt lat="44.81886" lon="5.86078">
        <ele>957</ele>
        <time>2015-07-25T13:40:51Z</time>
      </trkpt>
      <trkpt lat="44.81889" lon="5.86078">
        <ele>955.9</ele>
        <time>2015-07-25T13:40:56Z</time>
      </trkpt>
      <trkpt lat="44.81896" lon="5.86078">
        <ele>958.5</ele>
        <time>2015-07-25T13:41:01Z</time>
      </trkpt>
      <trkpt lat="44.819" lon="5.86071">
        <ele>958.1</ele>
        <time>2015-07-25T13:41:06Z</time>
      </trkpt>
      <trkpt lat="44.81902" lon="5.86072">
        <ele>959.6</ele>
        <time>2015-07-25T13:41:11Z</time>
      </trkpt>
      <trkpt lat="44.81902" lon="5.86072">
        <ele>960.2</ele>
        <time>2015-07-25T13:41:16Z</time>
      </trkpt>
      <trkpt lat="44.81905" lon="5.86067">
        <ele>959</ele>
        <time>2015-07-25T13:41:21Z</time>
      </trkpt>
      <trkpt lat="44.81909" lon="5.86061">
        <ele>957.3</ele>
        <time>2015-07-25T13:41:26Z</time>
      </trkpt>
      <trkpt lat="44.81913" lon="5.86056">
        <ele>955.7</ele>
        <time>2015-07-25T13:41:31Z</time>
      </trkpt>
      <trkpt lat="44.81917" lon="5.8605">
        <ele>953.7</ele>
        <time>2015-07-25T13:41:36Z</time>
      </trkpt>
      <trkpt lat="44.81922" lon="5.86046">
        <ele>953.1</ele>
        <time>2015-07-25T13:41:41Z</time>
      </trkpt>
      <trkpt lat="44.81927" lon="5.86042">
        <ele>952.4</ele>
        <time>2015-07-25T13:41:46Z</time>
      </trkpt>
      <trkpt lat="44.81932" lon="5.86037">
        <ele>951.1</ele>
        <time>2015-07-25T13:41:51Z</time>
      </trkpt>
      <trkpt lat="44.81937" lon="5.86032">
        <ele>949.4</ele>
        <time>2015-07-25T13:41:56Z</time>
      </trkpt>
      <trkpt lat="44.81941" lon="5.86028">
        <ele>947.3</ele>
        <time>2015-07-25T13:42:01Z</time>
      </trkpt>
      <trkpt lat="44.81946" lon="5.86023">
        <ele>944.4</ele>
        <time>2015-07-25T13:42:06Z</time>
      </trkpt>
      <trkpt lat="44.81951" lon="5.8602">
        <ele>943.8</ele>
        <time>2015-07-25T13:42:11Z</time>
      </trkpt>
      <trkpt lat="44.81958" lon="5.86016">
        <ele>942.7</ele>
        <time>2015-07-25T13:42:16Z</time>
      </trkpt>
      <trkpt lat="44.81964" lon="5.86011">
        <ele>941.6</ele>
        <time>2015-07-25T13:42:21Z</time>
      </trkpt>
      <trkpt lat="44.81969" lon="5.86005">
        <ele>940.7</ele>
        <time>2015-07-25T13:42:26Z</time>
      </trkpt>
      <trkpt lat="44.81973" lon="5.85999">
        <ele>940.7</ele>
        <time>2015-07-25T13:42:31Z</time>
      </trkpt>
      <trkpt lat="44.81976" lon="5.85993">
        <ele>940.4</ele>
        <time>2015-07-25T13:42:36Z</time>
      </trkpt>
      <trkpt lat="44.81981" lon="5.85986">
        <ele>938.7</ele>
        <time>2015-07-25T13:42:41Z</time>
      </trkpt>
      <trkpt lat="44.81987" lon="5.85978">
        <ele>937.3</ele>
        <time>2015-07-25T13:42:46Z</time>
      </trkpt>
      <trkpt lat="44.81991" lon="5.8597">
        <ele>934.2</ele>
        <time>2015-07-25T13:42:51Z</time>
      </trkpt>
      <trkpt lat="44.81992" lon="5.85961">
        <ele>932.3</ele>
        <time>2015-07-25T13:42:56Z</time>
      </trkpt>
      <trkpt lat="44.81997" lon="5.85952">
        <ele>932.2</ele>
        <time>2015-07-25T13:43:01Z</time>
      </trkpt>
      <trkpt lat="44.81999" lon="5.8594">
        <ele>931.4</ele>
        <time>2015-07-25T13:43:06Z</time>
      </trkpt>
      <trkpt lat="44.82002" lon="5.85931">
        <ele>931.1</ele>
        <time>2015-07-25T13:43:11Z</time>
      </trkpt>
      <trkpt lat="44.82007" lon="5.85923">
        <ele>931.6</ele>
        <time>2015-07-25T13:43:16Z</time>
      </trkpt>
      <trkpt lat="44.82012" lon="5.85916">
        <ele>933.3</ele>
        <time>2015-07-25T13:43:21Z</time>
      </trkpt>
      <trkpt lat="44.82016" lon="5.85908">
        <ele>934.2</ele>
        <time>2015-07-25T13:43:26Z</time>
      </trkpt>
      <trkpt lat="44.82021" lon="5.85899">
        <ele>934.9</ele>
        <time>2015-07-25T13:43:31Z</time>
      </trkpt>
      <trkpt lat="44.82023" lon="5.8589">
        <ele>934.2</ele>
        <time>2015-07-25T13:43:36Z</time>
      </trkpt>
      <trkpt lat="44.82024" lon="5.8588">
        <ele>932.9</ele>
        <time>2015-07-25T13:43:41Z</time>
      </trkpt>
      <trkpt lat="44.82027" lon="5.85872">
        <ele>933.7</ele>
        <time>2015-07-25T13:43:46Z</time>
      </trkpt>
      <trkpt lat="44.8203" lon="5.85864">
        <ele>933.6</ele>
        <time>2015-07-25T13:43:51Z</time>
      </trkpt>
      <trkpt lat="44.82034" lon="5.85856">
        <ele>932.7</ele>
        <time>2015-07-25T13:43:56Z</time>
      </trkpt>
      <trkpt lat="44.8204" lon="5.85848">
        <ele>932</ele>
        <time>2015-07-25T13:44:01Z</time>
      </trkpt>
      <trkpt lat="44.82044" lon="5.85839">
        <ele>929</ele>
        <time>2015-07-25T13:44:06Z</time>
      </trkpt>
      <trkpt lat="44.8205" lon="5.85831">
        <ele>929.4</ele>
        <time>2015-07-25T13:44:11Z</time>
      </trkpt>
      <trkpt lat="44.82054" lon="5.85821">
        <ele>928</ele>
        <time>2015-07-25T13:44:16Z</time>
      </trkpt>
      <trkpt lat="44.82056" lon="5.85811">
        <ele>926.6</ele>
        <time>2015-07-25T13:44:21Z</time>
      </trkpt>
      <trkpt lat="44.82058" lon="5.85804">
        <ele>926.9</ele>
        <time>2015-07-25T13:44:26Z</time>
      </trkpt>
      <trkpt lat="44.82061" lon="5.85793">
        <ele>925.5</ele>
        <time>2015-07-25T13:44:31Z</time>
      </trkpt>
      <trkpt lat="44.82065" lon="5.85783">
        <ele>925.6</ele>
        <time>2015-07-25T13:44:36Z</time>
      </trkpt>
      <trkpt lat="44.82066" lon="5.85775">
        <ele>924.8</ele>
        <time>2015-07-25T13:44:41Z</time>
      </trkpt>
      <trkpt lat="44.82068" lon="5.85768">
        <ele>925.8</ele>
        <time>2015-07-25T13:44:46Z</time>
      </trkpt>
      <trkpt lat="44.82071" lon="5.8576">
        <ele>925.5</ele>
        <time>2015-07-25T13:44:51Z</time>
      </trkpt>
      <trkpt lat="44.82072" lon="5.85753">
        <ele>926.2</ele>
        <time>2015-07-25T13:44:56Z</time>
      </trkpt>
      <trkpt lat="44.82073" lon="5.85744">
        <ele>924.7</ele>
        <time>2015-07-25T13:45:01Z</time>
      </trkpt>
      <trkpt lat="44.82073" lon="5.85735">
        <ele>923</ele>
        <time>2015-07-25T13:45:06Z</time>
      </trkpt>
      <trkpt lat="44.82076" lon="5.85723">
        <ele>923.9</ele>
        <time>2015-07-25T13:45:11Z</time>
      </trkpt>
      <trkpt lat="44.82078" lon="5.85713">
        <ele>924.8</ele>
        <time>2015-07-25T13:45:16Z</time>
      </trkpt>
      <trkpt lat="44.8208" lon="5.85704">
        <ele>924.2</ele>
        <time>2015-07-25T13:45:21Z</time>
      </trkpt>
      <trkpt lat="44.82084" lon="5.85696">
        <ele>925.2</ele>
        <time>2015-07-25T13:45:26Z</time>
      </trkpt>
      <trkpt lat="44.82089" lon="5.85689">
        <ele>924.4</ele>
        <time>2015-07-25T13:45:31Z</time>
      </trkpt>
      <trkpt lat="44.82093" lon="5.85683">
        <ele>924</ele>
        <time>2015-07-25T13:45:36Z</time>
      </trkpt>
      <trkpt lat="44.821" lon="5.85681">
        <ele>923.7</ele>
        <time>2015-07-25T13:45:41Z</time>
      </trkpt>
      <trkpt lat="44.82106" lon="5.85678">
        <ele>922.7</ele>
        <time>2015-07-25T13:45:46Z</time>
      </trkpt>
      <trkpt lat="44.82111" lon="5.85675">
        <ele>921.9</ele>
        <time>2015-07-25T13:45:51Z</time>
      </trkpt>
      <trkpt lat="44.82115" lon="5.85676">
        <ele>921</ele>
        <time>2015-07-25T13:45:56Z</time>
      </trkpt>
      <trkpt lat="44.8212" lon="5.85674">
        <ele>920.1</ele>
        <time>2015-07-25T13:46:01Z</time>
      </trkpt>
      <trkpt lat="44.8212" lon="5.85672">
        <ele>918.4</ele>
        <time>2015-07-25T13:46:06Z</time>
      </trkpt>
      <trkpt lat="44.82121" lon="5.85671">
        <ele>919.9</ele>
        <time>2015-07-25T13:46:11Z</time>
      </trkpt>
      <trkpt lat="44.82121" lon="5.85672">
        <ele>921.8</ele>
        <time>2015-07-25T13:46:16Z</time>
      </trkpt>
      <trkpt lat="44.82122" lon="5.85673">
        <ele>924.7</ele>
        <time>2015-07-25T13:46:21Z</time>
      </trkpt>
      <trkpt lat="44.82123" lon="5.85674">
        <ele>928.2</ele>
        <time>2015-07-25T13:46:26Z</time>
      </trkpt>
      <trkpt lat="44.82125" lon="5.85677">
        <ele>928.2</ele>
        <time>2015-07-25T13:46:31Z</time>
      </trkpt>
      <trkpt lat="44.8213" lon="5.85674">
        <ele>926</ele>
        <time>2015-07-25T13:46:36Z</time>
      </trkpt>
      <trkpt lat="44.82135" lon="5.85668">
        <ele>925.5</ele>
        <time>2015-07-25T13:46:41Z</time>
      </trkpt>
      <trkpt lat="44.8214" lon="5.85662">
        <ele>924.8</ele>
        <time>2015-07-25T13:46:46Z</time>
      </trkpt>
      <trkpt lat="44.82144" lon="5.85655">
        <ele>924</ele>
        <time>2015-07-25T13:46:51Z</time>
      </trkpt>
      <trkpt lat="44.8215" lon="5.85648">
        <ele>923.9</ele>
        <time>2015-07-25T13:46:56Z</time>
      </trkpt>
      <trkpt lat="44.82154" lon="5.85643">
        <ele>923.8</ele>
        <time>2015-07-25T13:47:01Z</time>
      </trkpt>
      <trkpt lat="44.82159" lon="5.8564">
        <ele>923.6</ele>
        <time>2015-07-25T13:47:06Z</time>
      </trkpt>
      <trkpt lat="44.82163" lon="5.85638">
        <ele>923</ele>
        <time>2015-07-25T13:47:11Z</time>
      </trkpt>
      <trkpt lat="44.82168" lon="5.85635">
        <ele>921.9</ele>
        <time>2015-07-25T13:47:16Z</time>
      </trkpt>
      <trkpt lat="44.82174" lon="5.85634">
        <ele>919.4</ele>
        <time>2015-07-25T13:47:21Z</time>
      </trkpt>
      <trkpt lat="44.8218" lon="5.8563">
        <ele>917.9</ele>
        <time>2015-07-25T13:47:26Z</time>
      </trkpt>
      <trkpt lat="44.82187" lon="5.85627">
        <ele>917.3</ele>
        <time>2015-07-25T13:47:31Z</time>
      </trkpt>
      <trkpt lat="44.82193" lon="5.85623">
        <ele>916.4</ele>
        <time>2015-07-25T13:47:36Z</time>
      </trkpt>
      <trkpt lat="44.822" lon="5.85619">
        <ele>914.4</ele>
        <time>2015-07-25T13:47:41Z</time>
      </trkpt>
      <trkpt lat="44.82206" lon="5.85614">
        <ele>913.9</ele>
        <time>2015-07-25T13:47:46Z</time>
      </trkpt>
      <trkpt lat="44.82211" lon="5.85608">
        <ele>916.5</ele>
        <time>2015-07-25T13:47:51Z</time>
      </trkpt>
      <trkpt lat="44.8221" lon="5.85603">
        <ele>916.4</ele>
        <time>2015-07-25T13:47:56Z</time>
      </trkpt>
      <trkpt lat="44.82208" lon="5.85598">
        <ele>917.7</ele>
        <time>2015-07-25T13:48:01Z</time>
      </trkpt>
      <trkpt lat="44.8221" lon="5.85593">
        <ele>918.1</ele>
        <time>2015-07-25T13:48:06Z</time>
      </trkpt>
      <trkpt lat="44.82211" lon="5.85587">
        <ele>916.8</ele>
        <time>2015-07-25T13:48:11Z</time>
      </trkpt>
      <trkpt lat="44.82216" lon="5.85582">
        <ele>917.6</ele>
        <time>2015-07-25T13:48:16Z</time>
      </trkpt>
      <trkpt lat="44.8222" lon="5.85576">
        <ele>918.8</ele>
        <time>2015-07-25T13:48:21Z</time>
      </trkpt>
      <trkpt lat="44.82223" lon="5.85566">
        <ele>915.7</ele>
        <time>2015-07-25T13:48:26Z</time>
      </trkpt>
      <trkpt lat="44.82227" lon="5.85561">
        <ele>917.6</ele>
        <time>2015-07-25T13:48:31Z</time>
      </trkpt>
      <trkpt lat="44.82234" lon="5.85557">
        <ele>916.3</ele>
        <time>2015-07-25T13:48:36Z</time>
      </trkpt>
      <trkpt lat="44.82243" lon="5.85553">
        <ele>918.2</ele>
        <time>2015-07-25T13:48:41Z</time>
      </trkpt>
      <trkpt lat="44.82249" lon="5.8555">
        <ele>919.1</ele>
        <time>2015-07-25T13:48:46Z</time>
      </trkpt>
      <trkpt lat="44.82255" lon="5.85547">
        <ele>916.5</ele>
        <time>2015-07-25T13:48:51Z</time>
      </trkpt>
      <trkpt lat="44.82261" lon="5.85545">
        <ele>915.8</ele>
        <time>2015-07-25T13:48:56Z</time>
      </trkpt>
      <trkpt lat="44.82264" lon="5.85544">
        <ele>914.5</ele>
        <time>2015-07-25T13:49:01Z</time>
      </trkpt>
      <trkpt lat="44.82265" lon="5.85544">
        <ele>914</ele>
        <time>2015-07-25T13:49:06Z</time>
      </trkpt>
      <trkpt lat="44.82264" lon="5.85543">
        <ele>913.5</ele>
        <time>2015-07-25T13:49:11Z</time>
      </trkpt>
      <trkpt lat="44.82263" lon="5.85541">
        <ele>911.4</ele>
        <time>2015-07-25T13:49:16Z</time>
      </trkpt>
      <trkpt lat="44.82263" lon="5.85539">
        <ele>909.9</ele>
        <time>2015-07-25T13:49:21Z</time>
      </trkpt>
      <trkpt lat="44.82265" lon="5.85538">
        <ele>912.7</ele>
        <time>2015-07-25T13:49:26Z</time>
      </trkpt>
      <trkpt lat="44.82268" lon="5.85539">
        <ele>914.7</ele>
        <time>2015-07-25T13:49:31Z</time>
      </trkpt>
      <trkpt lat="44.82269" lon="5.85538">
        <ele>916</ele>
        <time>2015-07-25T13:49:36Z</time>
      </trkpt>
      <trkpt lat="44.82268" lon="5.85536">
        <ele>916</ele>
        <time>2015-07-25T13:49:41Z</time>
      </trkpt>
      <trkpt lat="44.82267" lon="5.85537">
        <ele>915.7</ele>
        <time>2015-07-25T13:49:46Z</time>
      </trkpt>
      <trkpt lat="44.82266" lon="5.85536">
        <ele>915</ele>
        <time>2015-07-25T13:49:51Z</time>
      </trkpt>
      <trkpt lat="44.82267" lon="5.85536">
        <ele>914.6</ele>
        <time>2015-07-25T13:49:56Z</time>
      </trkpt>
      <trkpt lat="44.82266" lon="5.85536">
        <ele>913.4</ele>
        <time>2015-07-25T13:50:01Z</time>
      </trkpt>
      <trkpt lat="44.82265" lon="5.85536">
        <ele>914.4</ele>
        <time>2015-07-25T13:50:06Z</time>
      </trkpt>
      <trkpt lat="44.82265" lon="5.8554">
        <ele>914.5</ele>
        <time>2015-07-25T13:50:13Z</time>
      </trkpt>
      <trkpt lat="44.82263" lon="5.85537">
        <ele>908.5</ele>
        <time>2015-07-25T13:50:18Z</time>
      </trkpt>
      <trkpt lat="44.82262" lon="5.85538">
        <ele>909.6</ele>
        <time>2015-07-25T13:50:23Z</time>
      </trkpt>
      <trkpt lat="44.82258" lon="5.85539">
        <ele>909.6</ele>
        <time>2015-07-25T13:50:30Z</time>
      </trkpt>
      <trkpt lat="44.82254" lon="5.85538">
        <ele>909.9</ele>
        <time>2015-07-25T13:50:35Z</time>
      </trkpt>
      <trkpt lat="44.82247" lon="5.85539">
        <ele>913.1</ele>
        <time>2015-07-25T13:50:40Z</time>
      </trkpt>
      <trkpt lat="44.8224" lon="5.85542">
        <ele>913.3</ele>
        <time>2015-07-25T13:50:45Z</time>
      </trkpt>
      <trkpt lat="44.82236" lon="5.85546">
        <ele>912.5</ele>
        <time>2015-07-25T13:50:50Z</time>
      </trkpt>
      <trkpt lat="44.82229" lon="5.8555">
        <ele>910</ele>
        <time>2015-07-25T13:50:55Z</time>
      </trkpt>
      <trkpt lat="44.82222" lon="5.85554">
        <ele>911.9</ele>
        <time>2015-07-25T13:51:00Z</time>
      </trkpt>
      <trkpt lat="44.82215" lon="5.85561">
        <ele>915.2</ele>
        <time>2015-07-25T13:51:05Z</time>
      </trkpt>
      <trkpt lat="44.82209" lon="5.85567">
        <ele>918</ele>
        <time>2015-07-25T13:51:10Z</time>
      </trkpt>
      <trkpt lat="44.82207" lon="5.85568">
        <ele>918.2</ele>
        <time>2015-07-25T13:51:15Z</time>
      </trkpt>
      <trkpt lat="44.82207" lon="5.85568">
        <ele>917.4</ele>
        <time>2015-07-25T13:51:20Z</time>
      </trkpt>
      <trkpt lat="44.82208" lon="5.85569">
        <ele>918</ele>
        <time>2015-07-25T13:51:25Z</time>
      </trkpt>
      <trkpt lat="44.82208" lon="5.85572">
        <ele>919.8</ele>
        <time>2015-07-25T13:51:30Z</time>
      </trkpt>
      <trkpt lat="44.8221" lon="5.85571">
        <ele>918.2</ele>
        <time>2015-07-25T13:51:35Z</time>
      </trkpt>
      <trkpt lat="44.82216" lon="5.8557">
        <ele>916.7</ele>
        <time>2015-07-25T13:51:40Z</time>
      </trkpt>
      <trkpt lat="44.8222" lon="5.85567">
        <ele>914.8</ele>
        <time>2015-07-25T13:51:45Z</time>
      </trkpt>
      <trkpt lat="44.82222" lon="5.85565">
        <ele>913</ele>
        <time>2015-07-25T13:51:50Z</time>
      </trkpt>
      <trkpt lat="44.82224" lon="5.85562">
        <ele>912.9</ele>
        <time>2015-07-25T13:51:55Z</time>
      </trkpt>
      <trkpt lat="44.82225" lon="5.85561">
        <ele>912.3</ele>
        <time>2015-07-25T13:52:00Z</time>
      </trkpt>
      <trkpt lat="44.82228" lon="5.8556">
        <ele>916.1</ele>
        <time>2015-07-25T13:52:05Z</time>
      </trkpt>
      <trkpt lat="44.82225" lon="5.85558">
        <ele>919.4</ele>
        <time>2015-07-25T13:52:10Z</time>
      </trkpt>
      <trkpt lat="44.82223" lon="5.85559">
        <ele>920.3</ele>
        <time>2015-07-25T13:52:15Z</time>
      </trkpt>
      <trkpt lat="44.82226" lon="5.85561">
        <ele>920.3</ele>
        <time>2015-07-25T13:52:20Z</time>
      </trkpt>
      <trkpt lat="44.82226" lon="5.85561">
        <ele>920.6</ele>
        <time>2015-07-25T13:52:25Z</time>
      </trkpt>
      <trkpt lat="44.8223" lon="5.85559">
        <ele>919.9</ele>
        <time>2015-07-25T13:52:30Z</time>
      </trkpt>
      <trkpt lat="44.82232" lon="5.85557">
        <ele>920</ele>
        <time>2015-07-25T13:52:35Z</time>
      </trkpt>
      <trkpt lat="44.82237" lon="5.85555">
        <ele>917.6</ele>
        <time>2015-07-25T13:52:40Z</time>
      </trkpt>
      <trkpt lat="44.82238" lon="5.85553">
        <ele>914.8</ele>
        <time>2015-07-25T13:52:45Z</time>
      </trkpt>
      <trkpt lat="44.82242" lon="5.85551">
        <ele>913.4</ele>
        <time>2015-07-25T13:52:50Z</time>
      </trkpt>
      <trkpt lat="44.82245" lon="5.85549">
        <ele>913.1</ele>
        <time>2015-07-25T13:52:55Z</time>
      </trkpt>
      <trkpt lat="44.8225" lon="5.85547">
        <ele>913.7</ele>
        <time>2015-07-25T13:53:00Z</time>
      </trkpt>
      <trkpt lat="44.82253" lon="5.85544">
        <ele>913</ele>
        <time>2015-07-25T13:53:05Z</time>
      </trkpt>
      <trkpt lat="44.82249" lon="5.85546">
        <ele>914.9</ele>
        <time>2015-07-25T13:53:10Z</time>
      </trkpt>
      <trkpt lat="44.82245" lon="5.85545">
        <ele>915.5</ele>
        <time>2015-07-25T13:53:15Z</time>
      </trkpt>
      <trkpt lat="44.82241" lon="5.85547">
        <ele>916.1</ele>
        <time>2015-07-25T13:53:20Z</time>
      </trkpt>
      <trkpt lat="44.82235" lon="5.85547">
        <ele>914.7</ele>
        <time>2015-07-25T13:53:25Z</time>
      </trkpt>
      <trkpt lat="44.82232" lon="5.85548">
        <ele>913.3</ele>
        <time>2015-07-25T13:53:30Z</time>
      </trkpt>
      <trkpt lat="44.82228" lon="5.8555">
        <ele>911.3</ele>
        <time>2015-07-25T13:53:35Z</time>
      </trkpt>
      <trkpt lat="44.82222" lon="5.85557">
        <ele>913.7</ele>
        <time>2015-07-25T13:53:42Z</time>
      </trkpt>
      <trkpt lat="44.8222" lon="5.85561">
        <ele>913.4</ele>
        <time>2015-07-25T13:53:47Z</time>
      </trkpt>
      <trkpt lat="44.82217" lon="5.85563">
        <ele>912.6</ele>
        <time>2015-07-25T13:53:52Z</time>
      </trkpt>
      <trkpt lat="44.82214" lon="5.85567">
        <ele>913.1</ele>
        <time>2015-07-25T13:53:57Z</time>
      </trkpt>
      <trkpt lat="44.82211" lon="5.85572">
        <ele>914.1</ele>
        <time>2015-07-25T13:54:02Z</time>
      </trkpt>
      <trkpt lat="44.82208" lon="5.85577">
        <ele>913.8</ele>
        <time>2015-07-25T13:54:07Z</time>
      </trkpt>
      <trkpt lat="44.82204" lon="5.85584">
        <ele>914.7</ele>
        <time>2015-07-25T13:54:12Z</time>
      </trkpt>
      <trkpt lat="44.82203" lon="5.85591">
        <ele>914.4</ele>
        <time>2015-07-25T13:54:17Z</time>
      </trkpt>
      <trkpt lat="44.82203" lon="5.85596">
        <ele>916.7</ele>
        <time>2015-07-25T13:54:22Z</time>
      </trkpt>
      <trkpt lat="44.82204" lon="5.85599">
        <ele>916.5</ele>
        <time>2015-07-25T13:54:27Z</time>
      </trkpt>
      <trkpt lat="44.82203" lon="5.85598">
        <ele>914.9</ele>
        <time>2015-07-25T13:54:32Z</time>
      </trkpt>
      <trkpt lat="44.82204" lon="5.85597">
        <ele>912.7</ele>
        <time>2015-07-25T13:54:37Z</time>
      </trkpt>
      <trkpt lat="44.82206" lon="5.85595">
        <ele>912.7</ele>
        <time>2015-07-25T13:54:42Z</time>
      </trkpt>
      <trkpt lat="44.82212" lon="5.85594">
        <ele>914.1</ele>
        <time>2015-07-25T13:54:47Z</time>
      </trkpt>
      <trkpt lat="44.82213" lon="5.85594">
        <ele>915</ele>
        <time>2015-07-25T13:54:52Z</time>
      </trkpt>
      <trkpt lat="44.82209" lon="5.85596">
        <ele>914.7</ele>
        <time>2015-07-25T13:54:57Z</time>
      </trkpt>
      <trkpt lat="44.82209" lon="5.85602">
        <ele>916</ele>
        <time>2015-07-25T13:55:02Z</time>
      </trkpt>
      <trkpt lat="44.8221" lon="5.85602">
        <ele>916.6</ele>
        <time>2015-07-25T13:55:07Z</time>
      </trkpt>
      <trkpt lat="44.8221" lon="5.85603">
        <ele>917.6</ele>
        <time>2015-07-25T13:55:12Z</time>
      </trkpt>
      <trkpt lat="44.82211" lon="5.85603">
        <ele>917.1</ele>
        <time>2015-07-25T13:55:17Z</time>
      </trkpt>
      <trkpt lat="44.82212" lon="5.85598">
        <ele>920.5</ele>
        <time>2015-07-25T13:55:22Z</time>
      </trkpt>
      <trkpt lat="44.82213" lon="5.85599">
        <ele>920.9</ele>
        <time>2015-07-25T13:55:27Z</time>
      </trkpt>
      <trkpt lat="44.82217" lon="5.85597">
        <ele>924.4</ele>
        <time>2015-07-25T13:55:32Z</time>
      </trkpt>
      <trkpt lat="44.82218" lon="5.85597">
        <ele>923.8</ele>
        <time>2015-07-25T13:55:37Z</time>
      </trkpt>
      <trkpt lat="44.82216" lon="5.85599">
        <ele>922.2</ele>
        <time>2015-07-25T13:55:42Z</time>
      </trkpt>
      <trkpt lat="44.82216" lon="5.85599">
        <ele>919.6</ele>
        <time>2015-07-25T13:55:47Z</time>
      </trkpt>
      <trkpt lat="44.82216" lon="5.85599">
        <ele>917.9</ele>
        <time>2015-07-25T13:55:52Z</time>
      </trkpt>
      <trkpt lat="44.82212" lon="5.85599">
        <ele>914.3</ele>
        <time>2015-07-25T13:55:57Z</time>
      </trkpt>
      <trkpt lat="44.82211" lon="5.856">
        <ele>914.9</ele>
        <time>2015-07-25T13:56:02Z</time>
      </trkpt>
      <trkpt lat="44.82217" lon="5.85599">
        <ele>916.5</ele>
        <time>2015-07-25T13:56:07Z</time>
      </trkpt>
      <trkpt lat="44.82218" lon="5.85599">
        <ele>915.8</ele>
        <time>2015-07-25T13:56:12Z</time>
      </trkpt>
      <trkpt lat="44.82217" lon="5.85599">
        <ele>916</ele>
        <time>2015-07-25T13:56:17Z</time>
      </trkpt>
      <trkpt lat="44.82217" lon="5.85597">
        <ele>915.9</ele>
        <time>2015-07-25T13:56:22Z</time>
      </trkpt>
      <trkpt lat="44.82214" lon="5.85597">
        <ele>914</ele>
        <time>2015-07-25T13:56:27Z</time>
      </trkpt>
      <trkpt lat="44.82213" lon="5.85599">
        <ele>914.9</ele>
        <time>2015-07-25T13:56:32Z</time>
      </trkpt>
      <trkpt lat="44.82209" lon="5.85598">
        <ele>912.6</ele>
        <time>2015-07-25T13:56:37Z</time>
      </trkpt>
      <trkpt lat="44.82208" lon="5.85601">
        <ele>913.2</ele>
        <time>2015-07-25T13:56:42Z</time>
      </trkpt>
      <trkpt lat="44.82211" lon="5.85601">
        <ele>914.4</ele>
        <time>2015-07-25T13:56:47Z</time>
      </trkpt>
      <trkpt lat="44.82212" lon="5.85603">
        <ele>915.5</ele>
        <time>2015-07-25T13:56:52Z</time>
      </trkpt>
      <trkpt lat="44.82211" lon="5.85603">
        <ele>915.4</ele>
        <time>2015-07-25T13:56:57Z</time>
      </trkpt>
      <trkpt lat="44.82211" lon="5.85606">
        <ele>915.1</ele>
        <time>2015-07-25T13:57:02Z</time>
      </trkpt>
      <trkpt lat="44.82214" lon="5.85607">
        <ele>916.7</ele>
        <time>2015-07-25T13:57:07Z</time>
      </trkpt>
      <trkpt lat="44.82219" lon="5.85607">
        <ele>914.9</ele>
        <time>2015-07-25T13:57:12Z</time>
      </trkpt>
      <trkpt lat="44.82224" lon="5.85608">
        <ele>913.3</ele>
        <time>2015-07-25T13:57:17Z</time>
      </trkpt>
      <trkpt lat="44.8223" lon="5.85609">
        <ele>913.3</ele>
        <time>2015-07-25T13:57:22Z</time>
      </trkpt>
      <trkpt lat="44.82235" lon="5.8561">
        <ele>913.5</ele>
        <time>2015-07-25T13:57:27Z</time>
      </trkpt>
      <trkpt lat="44.82241" lon="5.85608">
        <ele>910.9</ele>
        <time>2015-07-25T13:57:32Z</time>
      </trkpt>
      <trkpt lat="44.82245" lon="5.85611">
        <ele>908.5</ele>
        <time>2015-07-25T13:57:37Z</time>
      </trkpt>
      <trkpt lat="44.82249" lon="5.85616">
        <ele>906.2</ele>
        <time>2015-07-25T13:57:42Z</time>
      </trkpt>
      <trkpt lat="44.82254" lon="5.8562">
        <ele>903.2</ele>
        <time>2015-07-25T13:57:47Z</time>
      </trkpt>
      <trkpt lat="44.82259" lon="5.85623">
        <ele>900.6</ele>
        <time>2015-07-25T13:57:52Z</time>
      </trkpt>
      <trkpt lat="44.82265" lon="5.85623">
        <ele>897.2</ele>
        <time>2015-07-25T13:57:57Z</time>
      </trkpt>
      <trkpt lat="44.82269" lon="5.85627">
        <ele>895.4</ele>
        <time>2015-07-25T13:58:02Z</time>
      </trkpt>
      <trkpt lat="44.82272" lon="5.85633">
        <ele>894.1</ele>
        <time>2015-07-25T13:58:07Z</time>
      </trkpt>
      <trkpt lat="44.82276" lon="5.85641">
        <ele>895.8</ele>
        <time>2015-07-25T13:58:12Z</time>
      </trkpt>
      <trkpt lat="44.82281" lon="5.85647">
        <ele>894.2</ele>
        <time>2015-07-25T13:58:17Z</time>
      </trkpt>
      <trkpt lat="44.82285" lon="5.85656">
        <ele>892.2</ele>
        <time>2015-07-25T13:58:22Z</time>
      </trkpt>
      <trkpt lat="44.82288" lon="5.85664">
        <ele>889.7</ele>
        <time>2015-07-25T13:58:27Z</time>
      </trkpt>
      <trkpt lat="44.82293" lon="5.85668">
        <ele>887.6</ele>
        <time>2015-07-25T13:58:32Z</time>
      </trkpt>
      <trkpt lat="44.82298" lon="5.8567">
        <ele>886.4</ele>
        <time>2015-07-25T13:58:37Z</time>
      </trkpt>
      <trkpt lat="44.82304" lon="5.85667">
        <ele>886</ele>
        <time>2015-07-25T13:58:42Z</time>
      </trkpt>
      <trkpt lat="44.8231" lon="5.85661">
        <ele>885.4</ele>
        <time>2015-07-25T13:58:47Z</time>
      </trkpt>
      <trkpt lat="44.82314" lon="5.85655">
        <ele>885.6</ele>
        <time>2015-07-25T13:58:52Z</time>
      </trkpt>
      <trkpt lat="44.82318" lon="5.8565">
        <ele>886.9</ele>
        <time>2015-07-25T13:58:57Z</time>
      </trkpt>
      <trkpt lat="44.82323" lon="5.85644">
        <ele>889.1</ele>
        <time>2015-07-25T13:59:02Z</time>
      </trkpt>
      <trkpt lat="44.82328" lon="5.85637">
        <ele>890.6</ele>
        <time>2015-07-25T13:59:07Z</time>
      </trkpt>
      <trkpt lat="44.82333" lon="5.85632">
        <ele>892.6</ele>
        <time>2015-07-25T13:59:12Z</time>
      </trkpt>
      <trkpt lat="44.82337" lon="5.85627">
        <ele>894.2</ele>
        <time>2015-07-25T13:59:17Z</time>
      </trkpt>
      <trkpt lat="44.82341" lon="5.85621">
        <ele>895.2</ele>
        <time>2015-07-25T13:59:22Z</time>
      </trkpt>
      <trkpt lat="44.82344" lon="5.85613">
        <ele>894.8</ele>
        <time>2015-07-25T13:59:27Z</time>
      </trkpt>
      <trkpt lat="44.82346" lon="5.85605">
        <ele>894.3</ele>
        <time>2015-07-25T13:59:32Z</time>
      </trkpt>
      <trkpt lat="44.82349" lon="5.85596">
        <ele>892.7</ele>
        <time>2015-07-25T13:59:37Z</time>
      </trkpt>
      <trkpt lat="44.82351" lon="5.85588">
        <ele>892</ele>
        <time>2015-07-25T13:59:42Z</time>
      </trkpt>
      <trkpt lat="44.82352" lon="5.85579">
        <ele>892</ele>
        <time>2015-07-25T13:59:47Z</time>
      </trkpt>
      <trkpt lat="44.82353" lon="5.85571">
        <ele>892.1</ele>
        <time>2015-07-25T13:59:52Z</time>
      </trkpt>
      <trkpt lat="44.82355" lon="5.85563">
        <ele>892.6</ele>
        <time>2015-07-25T13:59:57Z</time>
      </trkpt>
      <trkpt lat="44.82355" lon="5.85554">
        <ele>893.2</ele>
        <time>2015-07-25T14:00:02Z</time>
      </trkpt>
      <trkpt lat="44.82355" lon="5.85544">
        <ele>893.5</ele>
        <time>2015-07-25T14:00:07Z</time>
      </trkpt>
      <trkpt lat="44.82357" lon="5.85534">
        <ele>895.8</ele>
        <time>2015-07-25T14:00:12Z</time>
      </trkpt>
      <trkpt lat="44.82356" lon="5.85525">
        <ele>895.8</ele>
        <time>2015-07-25T14:00:17Z</time>
      </trkpt>
      <trkpt lat="44.82355" lon="5.85515">
        <ele>894.1</ele>
        <time>2015-07-25T14:00:22Z</time>
      </trkpt>
      <trkpt lat="44.82354" lon="5.85505">
        <ele>893.5</ele>
        <time>2015-07-25T14:00:27Z</time>
      </trkpt>
      <trkpt lat="44.82355" lon="5.85495">
        <ele>893.5</ele>
        <time>2015-07-25T14:00:32Z</time>
      </trkpt>
      <trkpt lat="44.82356" lon="5.85485">
        <ele>892.9</ele>
        <time>2015-07-25T14:00:37Z</time>
      </trkpt>
      <trkpt lat="44.82356" lon="5.85476">
        <ele>893</ele>
        <time>2015-07-25T14:00:42Z</time>
      </trkpt>
      <trkpt lat="44.82359" lon="5.85467">
        <ele>893.1</ele>
        <time>2015-07-25T14:00:47Z</time>
      </trkpt>
      <trkpt lat="44.82363" lon="5.85463">
        <ele>894.7</ele>
        <time>2015-07-25T14:00:52Z</time>
      </trkpt>
      <trkpt lat="44.82369" lon="5.85461">
        <ele>896.1</ele>
        <time>2015-07-25T14:00:57Z</time>
      </trkpt>
      <trkpt lat="44.82375" lon="5.85463">
        <ele>898.1</ele>
        <time>2015-07-25T14:01:02Z</time>
      </trkpt>
      <trkpt lat="44.82381" lon="5.85466">
        <ele>900.1</ele>
        <time>2015-07-25T14:01:07Z</time>
      </trkpt>
      <trkpt lat="44.82387" lon="5.85468">
        <ele>901.9</ele>
        <time>2015-07-25T14:01:12Z</time>
      </trkpt>
      <trkpt lat="44.82394" lon="5.85469">
        <ele>902.4</ele>
        <time>2015-07-25T14:01:17Z</time>
      </trkpt>
      <trkpt lat="44.82401" lon="5.85467">
        <ele>900</ele>
        <time>2015-07-25T14:01:22Z</time>
      </trkpt>
      <trkpt lat="44.82408" lon="5.85466">
        <ele>898.2</ele>
        <time>2015-07-25T14:01:27Z</time>
      </trkpt>
      <trkpt lat="44.82415" lon="5.85466">
        <ele>897.7</ele>
        <time>2015-07-25T14:01:32Z</time>
      </trkpt>
      <trkpt lat="44.82422" lon="5.85466">
        <ele>897</ele>
        <time>2015-07-25T14:01:37Z</time>
      </trkpt>
      <trkpt lat="44.82429" lon="5.85465">
        <ele>896.6</ele>
        <time>2015-07-25T14:01:42Z</time>
      </trkpt>
      <trkpt lat="44.82436" lon="5.85464">
        <ele>895.6</ele>
        <time>2015-07-25T14:01:47Z</time>
      </trkpt>
      <trkpt lat="44.82443" lon="5.85462">
        <ele>895.1</ele>
        <time>2015-07-25T14:01:52Z</time>
      </trkpt>
      <trkpt lat="44.8245" lon="5.85461">
        <ele>895</ele>
        <time>2015-07-25T14:01:57Z</time>
      </trkpt>
      <trkpt lat="44.82457" lon="5.8546">
        <ele>895.9</ele>
        <time>2015-07-25T14:02:02Z</time>
      </trkpt>
      <trkpt lat="44.82464" lon="5.85458">
        <ele>897.3</ele>
        <time>2015-07-25T14:02:07Z</time>
      </trkpt>
      <trkpt lat="44.8247" lon="5.85454">
        <ele>898</ele>
        <time>2015-07-25T14:02:12Z</time>
      </trkpt>
      <trkpt lat="44.82475" lon="5.85449">
        <ele>898.8</ele>
        <time>2015-07-25T14:02:17Z</time>
      </trkpt>
      <trkpt lat="44.8248" lon="5.85439">
        <ele>895.4</ele>
        <time>2015-07-25T14:02:22Z</time>
      </trkpt>
      <trkpt lat="44.82481" lon="5.85434">
        <ele>894</ele>
        <time>2015-07-25T14:02:27Z</time>
      </trkpt>
      <trkpt lat="44.8248" lon="5.85433">
        <ele>893.5</ele>
        <time>2015-07-25T14:02:32Z</time>
      </trkpt>
      <trkpt lat="44.82481" lon="5.85433">
        <ele>893.2</ele>
        <time>2015-07-25T14:02:37Z</time>
      </trkpt>
      <trkpt lat="44.82481" lon="5.85432">
        <ele>893.3</ele>
        <time>2015-07-25T14:02:42Z</time>
      </trkpt>
      <trkpt lat="44.82481" lon="5.85432">
        <ele>893.3</ele>
        <time>2015-07-25T14:02:47Z</time>
      </trkpt>
      <trkpt lat="44.8248" lon="5.85431">
        <ele>893.4</ele>
        <time>2015-07-25T14:02:52Z</time>
      </trkpt>
      <trkpt lat="44.82484" lon="5.85424">
        <ele>894.2</ele>
        <time>2015-07-25T14:02:57Z</time>
      </trkpt>
      <trkpt lat="44.82487" lon="5.85416">
        <ele>893.8</ele>
        <time>2015-07-25T14:03:02Z</time>
      </trkpt>
      <trkpt lat="44.8249" lon="5.85409">
        <ele>893.8</ele>
        <time>2015-07-25T14:03:07Z</time>
      </trkpt>
      <trkpt lat="44.82494" lon="5.85401">
        <ele>894.1</ele>
        <time>2015-07-25T14:03:12Z</time>
      </trkpt>
      <trkpt lat="44.825" lon="5.85386">
        <ele>894.3</ele>
        <time>2015-07-25T14:03:17Z</time>
      </trkpt>
      <trkpt lat="44.82507" lon="5.8537">
        <ele>894.5</ele>
        <time>2015-07-25T14:03:22Z</time>
      </trkpt>
      <trkpt lat="44.82514" lon="5.85353">
        <ele>893.9</ele>
        <time>2015-07-25T14:03:27Z</time>
      </trkpt>
      <trkpt lat="44.82522" lon="5.85337">
        <ele>893.6</ele>
        <time>2015-07-25T14:03:32Z</time>
      </trkpt>
      <trkpt lat="44.82526" lon="5.85325">
        <ele>893.6</ele>
        <time>2015-07-25T14:03:37Z</time>
      </trkpt>
      <trkpt lat="44.8253" lon="5.85316">
        <ele>893.8</ele>
        <time>2015-07-25T14:03:42Z</time>
      </trkpt>
      <trkpt lat="44.82533" lon="5.85308">
        <ele>893.8</ele>
        <time>2015-07-25T14:03:47Z</time>
      </trkpt>
      <trkpt lat="44.82537" lon="5.85299">
        <ele>893.7</ele>
        <time>2015-07-25T14:03:52Z</time>
      </trkpt>
      <trkpt lat="44.82541" lon="5.85291">
        <ele>893.6</ele>
        <time>2015-07-25T14:03:57Z</time>
      </trkpt>
      <trkpt lat="44.82544" lon="5.85282">
        <ele>893.6</ele>
        <time>2015-07-25T14:04:02Z</time>
      </trkpt>
      <trkpt lat="44.82548" lon="5.85274">
        <ele>893.6</ele>
        <time>2015-07-25T14:04:07Z</time>
      </trkpt>
      <trkpt lat="44.82552" lon="5.85266">
        <ele>893.6</ele>
        <time>2015-07-25T14:04:12Z</time>
      </trkpt>
      <trkpt lat="44.82555" lon="5.85257">
        <ele>893.1</ele>
        <time>2015-07-25T14:04:17Z</time>
      </trkpt>
      <trkpt lat="44.82561" lon="5.85244">
        <ele>893</ele>
        <time>2015-07-25T14:04:22Z</time>
      </trkpt>
      <trkpt lat="44.82567" lon="5.8523">
        <ele>893.1</ele>
        <time>2015-07-25T14:04:27Z</time>
      </trkpt>
      <trkpt lat="44.82572" lon="5.85221">
        <ele>893.1</ele>
        <time>2015-07-25T14:04:32Z</time>
      </trkpt>
      <trkpt lat="44.82576" lon="5.85213">
        <ele>893</ele>
        <time>2015-07-25T14:04:37Z</time>
      </trkpt>
      <trkpt lat="44.82581" lon="5.852">
        <ele>892.6</ele>
        <time>2015-07-25T14:04:42Z</time>
      </trkpt>
      <trkpt lat="44.82588" lon="5.85184">
        <ele>892.4</ele>
        <time>2015-07-25T14:04:47Z</time>
      </trkpt>
      <trkpt lat="44.82594" lon="5.85169">
        <ele>892.2</ele>
        <time>2015-07-25T14:04:52Z</time>
      </trkpt>
      <trkpt lat="44.82599" lon="5.85155">
        <ele>892.5</ele>
        <time>2015-07-25T14:04:57Z</time>
      </trkpt>
      <trkpt lat="44.82607" lon="5.85139">
        <ele>892.8</ele>
        <time>2015-07-25T14:05:02Z</time>
      </trkpt>
      <trkpt lat="44.82612" lon="5.85126">
        <ele>892.6</ele>
        <time>2015-07-25T14:05:07Z</time>
      </trkpt>
      <trkpt lat="44.82615" lon="5.85117">
        <ele>892.9</ele>
        <time>2015-07-25T14:05:12Z</time>
      </trkpt>
      <trkpt lat="44.82618" lon="5.85108">
        <ele>893</ele>
        <time>2015-07-25T14:05:17Z</time>
      </trkpt>
      <trkpt lat="44.82621" lon="5.851">
        <ele>893.3</ele>
        <time>2015-07-25T14:05:22Z</time>
      </trkpt>
      <trkpt lat="44.82625" lon="5.85091">
        <ele>893.4</ele>
        <time>2015-07-25T14:05:27Z</time>
      </trkpt>
      <trkpt lat="44.82629" lon="5.85082">
        <ele>893.6</ele>
        <time>2015-07-25T14:05:32Z</time>
      </trkpt>
      <trkpt lat="44.82632" lon="5.85073">
        <ele>893.7</ele>
        <time>2015-07-25T14:05:37Z</time>
      </trkpt>
      <trkpt lat="44.82636" lon="5.85064">
        <ele>893.8</ele>
        <time>2015-07-25T14:05:42Z</time>
      </trkpt>
      <trkpt lat="44.82639" lon="5.85055">
        <ele>894.1</ele>
        <time>2015-07-25T14:05:47Z</time>
      </trkpt>
      <trkpt lat="44.82643" lon="5.85047">
        <ele>894.3</ele>
        <time>2015-07-25T14:05:52Z</time>
      </trkpt>
      <trkpt lat="44.82647" lon="5.85039">
        <ele>894.5</ele>
        <time>2015-07-25T14:05:57Z</time>
      </trkpt>
      <trkpt lat="44.8265" lon="5.85031">
        <ele>894.8</ele>
        <time>2015-07-25T14:06:02Z</time>
      </trkpt>
      <trkpt lat="44.82654" lon="5.85022">
        <ele>894.6</ele>
        <time>2015-07-25T14:06:07Z</time>
      </trkpt>
      <trkpt lat="44.82657" lon="5.85015">
        <ele>894.6</ele>
        <time>2015-07-25T14:06:12Z</time>
      </trkpt>
      <trkpt lat="44.8266" lon="5.85006">
        <ele>894.7</ele>
        <time>2015-07-25T14:06:17Z</time>
      </trkpt>
      <trkpt lat="44.82665" lon="5.84998">
        <ele>894.6</ele>
        <time>2015-07-25T14:06:22Z</time>
      </trkpt>
      <trkpt lat="44.82668" lon="5.84989">
        <ele>895</ele>
        <time>2015-07-25T14:06:27Z</time>
      </trkpt>
      <trkpt lat="44.82672" lon="5.8498">
        <ele>895.4</ele>
        <time>2015-07-25T14:06:32Z</time>
      </trkpt>
      <trkpt lat="44.82675" lon="5.84972">
        <ele>896</ele>
        <time>2015-07-25T14:06:37Z</time>
      </trkpt>
      <trkpt lat="44.82679" lon="5.84964">
        <ele>896.6</ele>
        <time>2015-07-25T14:06:42Z</time>
      </trkpt>
      <trkpt lat="44.82683" lon="5.84956">
        <ele>896.6</ele>
        <time>2015-07-25T14:06:47Z</time>
      </trkpt>
      <trkpt lat="44.82687" lon="5.84948">
        <ele>896.9</ele>
        <time>2015-07-25T14:06:52Z</time>
      </trkpt>
      <trkpt lat="44.8269" lon="5.8494">
        <ele>897.1</ele>
        <time>2015-07-25T14:06:57Z</time>
      </trkpt>
      <trkpt lat="44.82694" lon="5.84933">
        <ele>897.4</ele>
        <time>2015-07-25T14:07:02Z</time>
      </trkpt>
      <trkpt lat="44.82698" lon="5.84925">
        <ele>897.5</ele>
        <time>2015-07-25T14:07:07Z</time>
      </trkpt>
      <trkpt lat="44.82701" lon="5.84917">
        <ele>898</ele>
        <time>2015-07-25T14:07:12Z</time>
      </trkpt>
      <trkpt lat="44.82705" lon="5.84906">
        <ele>898.6</ele>
        <time>2015-07-25T14:07:17Z</time>
      </trkpt>
      <trkpt lat="44.82711" lon="5.84893">
        <ele>899.4</ele>
        <time>2015-07-25T14:07:22Z</time>
      </trkpt>
      <trkpt lat="44.82715" lon="5.84884">
        <ele>899.8</ele>
        <time>2015-07-25T14:07:27Z</time>
      </trkpt>
      <trkpt lat="44.8272" lon="5.84876">
        <ele>900.1</ele>
        <time>2015-07-25T14:07:32Z</time>
      </trkpt>
      <trkpt lat="44.82724" lon="5.84867">
        <ele>900.5</ele>
        <time>2015-07-25T14:07:37Z</time>
      </trkpt>
      <trkpt lat="44.82728" lon="5.84858">
        <ele>901.1</ele>
        <time>2015-07-25T14:07:42Z</time>
      </trkpt>
      <trkpt lat="44.82733" lon="5.84847">
        <ele>901.5</ele>
        <time>2015-07-25T14:07:47Z</time>
      </trkpt>
      <trkpt lat="44.82737" lon="5.84839">
        <ele>901.9</ele>
        <time>2015-07-25T14:07:52Z</time>
      </trkpt>
      <trkpt lat="44.8274" lon="5.84831">
        <ele>902.4</ele>
        <time>2015-07-25T14:07:57Z</time>
      </trkpt>
      <trkpt lat="44.82744" lon="5.84823">
        <ele>902.8</ele>
        <time>2015-07-25T14:08:02Z</time>
      </trkpt>
      <trkpt lat="44.82748" lon="5.84812">
        <ele>903.5</ele>
        <time>2015-07-25T14:08:07Z</time>
      </trkpt>
      <trkpt lat="44.82753" lon="5.84804">
        <ele>903.9</ele>
        <time>2015-07-25T14:08:12Z</time>
      </trkpt>
      <trkpt lat="44.82757" lon="5.84796">
        <ele>904.4</ele>
        <time>2015-07-25T14:08:17Z</time>
      </trkpt>
      <trkpt lat="44.8276" lon="5.84788">
        <ele>904.9</ele>
        <time>2015-07-25T14:08:22Z</time>
      </trkpt>
      <trkpt lat="44.82763" lon="5.84781">
        <ele>905.2</ele>
        <time>2015-07-25T14:08:27Z</time>
      </trkpt>
      <trkpt lat="44.82766" lon="5.84773">
        <ele>905.9</ele>
        <time>2015-07-25T14:08:32Z</time>
      </trkpt>
      <trkpt lat="44.8277" lon="5.84766">
        <ele>906.1</ele>
        <time>2015-07-25T14:08:37Z</time>
      </trkpt>
      <trkpt lat="44.82774" lon="5.84758">
        <ele>906.6</ele>
        <time>2015-07-25T14:08:42Z</time>
      </trkpt>
      <trkpt lat="44.82778" lon="5.84751">
        <ele>907.1</ele>
        <time>2015-07-25T14:08:47Z</time>
      </trkpt>
      <trkpt lat="44.82782" lon="5.84743">
        <ele>907.6</ele>
        <time>2015-07-25T14:08:52Z</time>
      </trkpt>
      <trkpt lat="44.82784" lon="5.84735">
        <ele>907.4</ele>
        <time>2015-07-25T14:08:57Z</time>
      </trkpt>
      <trkpt lat="44.82787" lon="5.84726">
        <ele>906.4</ele>
        <time>2015-07-25T14:09:02Z</time>
      </trkpt>
      <trkpt lat="44.82788" lon="5.84716">
        <ele>906.5</ele>
        <time>2015-07-25T14:09:07Z</time>
      </trkpt>
      <trkpt lat="44.8279" lon="5.84702">
        <ele>906.2</ele>
        <time>2015-07-25T14:09:12Z</time>
      </trkpt>
      <trkpt lat="44.82787" lon="5.84683">
        <ele>905.4</ele>
        <time>2015-07-25T14:09:17Z</time>
      </trkpt>
      <trkpt lat="44.82785" lon="5.84666">
        <ele>905.8</ele>
        <time>2015-07-25T14:09:22Z</time>
      </trkpt>
      <trkpt lat="44.82783" lon="5.8465">
        <ele>907.3</ele>
        <time>2015-07-25T14:09:27Z</time>
      </trkpt>
      <trkpt lat="44.82781" lon="5.84636">
        <ele>909.1</ele>
        <time>2015-07-25T14:09:32Z</time>
      </trkpt>
      <trkpt lat="44.8278" lon="5.84631">
        <ele>909.6</ele>
        <time>2015-07-25T14:09:37Z</time>
      </trkpt>
      <trkpt lat="44.8278" lon="5.84631">
        <ele>909.9</ele>
        <time>2015-07-25T14:09:42Z</time>
      </trkpt>
      <trkpt lat="44.8278" lon="5.8463">
        <ele>911.5</ele>
        <time>2015-07-25T14:09:47Z</time>
      </trkpt>
      <trkpt lat="44.82781" lon="5.84629">
        <ele>913.1</ele>
        <time>2015-07-25T14:09:52Z</time>
      </trkpt>
      <trkpt lat="44.82782" lon="5.84622">
        <ele>913.5</ele>
        <time>2015-07-25T14:09:57Z</time>
      </trkpt>
      <trkpt lat="44.82781" lon="5.84613">
        <ele>913.9</ele>
        <time>2015-07-25T14:10:02Z</time>
      </trkpt>
      <trkpt lat="44.82781" lon="5.84605">
        <ele>914.4</ele>
        <time>2015-07-25T14:10:07Z</time>
      </trkpt>
      <trkpt lat="44.8278" lon="5.84597">
        <ele>915.1</ele>
        <time>2015-07-25T14:10:12Z</time>
      </trkpt>
      <trkpt lat="44.82779" lon="5.84589">
        <ele>915.7</ele>
        <time>2015-07-25T14:10:17Z</time>
      </trkpt>
      <trkpt lat="44.82779" lon="5.8458">
        <ele>916.3</ele>
        <time>2015-07-25T14:10:22Z</time>
      </trkpt>
      <trkpt lat="44.82777" lon="5.84572">
        <ele>916.1</ele>
        <time>2015-07-25T14:10:27Z</time>
      </trkpt>
      <trkpt lat="44.82775" lon="5.84563">
        <ele>915.6</ele>
        <time>2015-07-25T14:10:32Z</time>
      </trkpt>
      <trkpt lat="44.82774" lon="5.84555">
        <ele>915.2</ele>
        <time>2015-07-25T14:10:37Z</time>
      </trkpt>
      <trkpt lat="44.82771" lon="5.84546">
        <ele>914.9</ele>
        <time>2015-07-25T14:10:42Z</time>
      </trkpt>
      <trkpt lat="44.82769" lon="5.84538">
        <ele>914.8</ele>
        <time>2015-07-25T14:10:47Z</time>
      </trkpt>
      <trkpt lat="44.82766" lon="5.84529">
        <ele>914.6</ele>
        <time>2015-07-25T14:10:52Z</time>
      </trkpt>
      <trkpt lat="44.82765" lon="5.84521">
        <ele>915.7</ele>
        <time>2015-07-25T14:10:57Z</time>
      </trkpt>
      <trkpt lat="44.82764" lon="5.84512">
        <ele>916.9</ele>
        <time>2015-07-25T14:11:02Z</time>
      </trkpt>
      <trkpt lat="44.82761" lon="5.84505">
        <ele>916.9</ele>
        <time>2015-07-25T14:11:07Z</time>
      </trkpt>
      <trkpt lat="44.82757" lon="5.84496">
        <ele>916.3</ele>
        <time>2015-07-25T14:11:12Z</time>
      </trkpt>
      <trkpt lat="44.82754" lon="5.84487">
        <ele>916</ele>
        <time>2015-07-25T14:11:17Z</time>
      </trkpt>
      <trkpt lat="44.82751" lon="5.84478">
        <ele>916.2</ele>
        <time>2015-07-25T14:11:22Z</time>
      </trkpt>
      <trkpt lat="44.82748" lon="5.84469">
        <ele>916.4</ele>
        <time>2015-07-25T14:11:27Z</time>
      </trkpt>
      <trkpt lat="44.82745" lon="5.84461">
        <ele>916.1</ele>
        <time>2015-07-25T14:11:32Z</time>
      </trkpt>
      <trkpt lat="44.82743" lon="5.84452">
        <ele>916.2</ele>
        <time>2015-07-25T14:11:37Z</time>
      </trkpt>
      <trkpt lat="44.8274" lon="5.84443">
        <ele>916.3</ele>
        <time>2015-07-25T14:11:42Z</time>
      </trkpt>
      <trkpt lat="44.82739" lon="5.84435">
        <ele>917.5</ele>
        <time>2015-07-25T14:11:47Z</time>
      </trkpt>
      <trkpt lat="44.82738" lon="5.84427">
        <ele>919.4</ele>
        <time>2015-07-25T14:11:52Z</time>
      </trkpt>
      <trkpt lat="44.82736" lon="5.84419">
        <ele>917.9</ele>
        <time>2015-07-25T14:11:57Z</time>
      </trkpt>
      <trkpt lat="44.82734" lon="5.8441">
        <ele>916.8</ele>
        <time>2015-07-25T14:12:02Z</time>
      </trkpt>
      <trkpt lat="44.82732" lon="5.844">
        <ele>915.4</ele>
        <time>2015-07-25T14:12:07Z</time>
      </trkpt>
      <trkpt lat="44.82731" lon="5.8439">
        <ele>914.2</ele>
        <time>2015-07-25T14:12:12Z</time>
      </trkpt>
      <trkpt lat="44.82732" lon="5.84379">
        <ele>914.8</ele>
        <time>2015-07-25T14:12:17Z</time>
      </trkpt>
      <trkpt lat="44.82734" lon="5.84369">
        <ele>915.6</ele>
        <time>2015-07-25T14:12:22Z</time>
      </trkpt>
      <trkpt lat="44.82733" lon="5.84359">
        <ele>915.1</ele>
        <time>2015-07-25T14:12:27Z</time>
      </trkpt>
      <trkpt lat="44.82731" lon="5.8435">
        <ele>914.3</ele>
        <time>2015-07-25T14:12:32Z</time>
      </trkpt>
      <trkpt lat="44.82729" lon="5.8434">
        <ele>913.6</ele>
        <time>2015-07-25T14:12:37Z</time>
      </trkpt>
      <trkpt lat="44.82726" lon="5.8433">
        <ele>912.7</ele>
        <time>2015-07-25T14:12:42Z</time>
      </trkpt>
      <trkpt lat="44.82724" lon="5.84321">
        <ele>912.1</ele>
        <time>2015-07-25T14:12:47Z</time>
      </trkpt>
      <trkpt lat="44.82721" lon="5.84312">
        <ele>911.4</ele>
        <time>2015-07-25T14:12:52Z</time>
      </trkpt>
      <trkpt lat="44.82718" lon="5.84303">
        <ele>910.6</ele>
        <time>2015-07-25T14:12:57Z</time>
      </trkpt>
      <trkpt lat="44.82714" lon="5.84294">
        <ele>909.8</ele>
        <time>2015-07-25T14:13:02Z</time>
      </trkpt>
      <trkpt lat="44.82711" lon="5.84285">
        <ele>909.3</ele>
        <time>2015-07-25T14:13:07Z</time>
      </trkpt>
      <trkpt lat="44.82707" lon="5.84277">
        <ele>908.7</ele>
        <time>2015-07-25T14:13:12Z</time>
      </trkpt>
      <trkpt lat="44.82708" lon="5.84268">
        <ele>911.6</ele>
        <time>2015-07-25T14:13:17Z</time>
      </trkpt>
      <trkpt lat="44.82703" lon="5.84261">
        <ele>910.3</ele>
        <time>2015-07-25T14:13:22Z</time>
      </trkpt>
      <trkpt lat="44.82702" lon="5.84252">
        <ele>910.7</ele>
        <time>2015-07-25T14:13:27Z</time>
      </trkpt>
      <trkpt lat="44.82701" lon="5.84243">
        <ele>910.6</ele>
        <time>2015-07-25T14:13:32Z</time>
      </trkpt>
      <trkpt lat="44.827" lon="5.84233">
        <ele>910.6</ele>
        <time>2015-07-25T14:13:37Z</time>
      </trkpt>
      <trkpt lat="44.82698" lon="5.84224">
        <ele>909.6</ele>
        <time>2015-07-25T14:13:42Z</time>
      </trkpt>
      <trkpt lat="44.82696" lon="5.84214">
        <ele>909</ele>
        <time>2015-07-25T14:13:47Z</time>
      </trkpt>
      <trkpt lat="44.82695" lon="5.84203">
        <ele>908.5</ele>
        <time>2015-07-25T14:13:52Z</time>
      </trkpt>
      <trkpt lat="44.82695" lon="5.84196">
        <ele>908.9</ele>
        <time>2015-07-25T14:13:57Z</time>
      </trkpt>
      <trkpt lat="44.82695" lon="5.84186">
        <ele>908.3</ele>
        <time>2015-07-25T14:14:02Z</time>
      </trkpt>
      <trkpt lat="44.82695" lon="5.84176">
        <ele>908.1</ele>
        <time>2015-07-25T14:14:07Z</time>
      </trkpt>
      <trkpt lat="44.82697" lon="5.84167">
        <ele>907.8</ele>
        <time>2015-07-25T14:14:12Z</time>
      </trkpt>
      <trkpt lat="44.82701" lon="5.84158">
        <ele>907.8</ele>
        <time>2015-07-25T14:14:17Z</time>
      </trkpt>
      <trkpt lat="44.82705" lon="5.8415">
        <ele>908</ele>
        <time>2015-07-25T14:14:22Z</time>
      </trkpt>
      <trkpt lat="44.82708" lon="5.84141">
        <ele>907.8</ele>
        <time>2015-07-25T14:14:27Z</time>
      </trkpt>
      <trkpt lat="44.82713" lon="5.84133">
        <ele>907.4</ele>
        <time>2015-07-25T14:14:32Z</time>
      </trkpt>
      <trkpt lat="44.82718" lon="5.84125">
        <ele>907.4</ele>
        <time>2015-07-25T14:14:37Z</time>
      </trkpt>
      <trkpt lat="44.82723" lon="5.84115">
        <ele>906.9</ele>
        <time>2015-07-25T14:14:42Z</time>
      </trkpt>
      <trkpt lat="44.82728" lon="5.84106">
        <ele>907.7</ele>
        <time>2015-07-25T14:14:47Z</time>
      </trkpt>
      <trkpt lat="44.82733" lon="5.84097">
        <ele>908.9</ele>
        <time>2015-07-25T14:14:52Z</time>
      </trkpt>
      <trkpt lat="44.82737" lon="5.84089">
        <ele>909.8</ele>
        <time>2015-07-25T14:14:57Z</time>
      </trkpt>
      <trkpt lat="44.82741" lon="5.8408">
        <ele>910.5</ele>
        <time>2015-07-25T14:15:02Z</time>
      </trkpt>
      <trkpt lat="44.82745" lon="5.84072">
        <ele>911.1</ele>
        <time>2015-07-25T14:15:07Z</time>
      </trkpt>
      <trkpt lat="44.8275" lon="5.84064">
        <ele>911.5</ele>
        <time>2015-07-25T14:15:12Z</time>
      </trkpt>
      <trkpt lat="44.82754" lon="5.84056">
        <ele>911.6</ele>
        <time>2015-07-25T14:15:17Z</time>
      </trkpt>
      <trkpt lat="44.82758" lon="5.84048">
        <ele>911.9</ele>
        <time>2015-07-25T14:15:22Z</time>
      </trkpt>
      <trkpt lat="44.82761" lon="5.8404">
        <ele>911.9</ele>
        <time>2015-07-25T14:15:27Z</time>
      </trkpt>
      <trkpt lat="44.82766" lon="5.84033">
        <ele>912</ele>
        <time>2015-07-25T14:15:32Z</time>
      </trkpt>
      <trkpt lat="44.82771" lon="5.84029">
        <ele>911.6</ele>
        <time>2015-07-25T14:15:37Z</time>
      </trkpt>
      <trkpt lat="44.82776" lon="5.84025">
        <ele>911.2</ele>
        <time>2015-07-25T14:15:42Z</time>
      </trkpt>
      <trkpt lat="44.8278" lon="5.84018">
        <ele>910.6</ele>
        <time>2015-07-25T14:15:47Z</time>
      </trkpt>
      <trkpt lat="44.82782" lon="5.8401">
        <ele>910.2</ele>
        <time>2015-07-25T14:15:52Z</time>
      </trkpt>
      <trkpt lat="44.82783" lon="5.84001">
        <ele>910.4</ele>
        <time>2015-07-25T14:15:57Z</time>
      </trkpt>
      <trkpt lat="44.8278" lon="5.83993">
        <ele>910.6</ele>
        <time>2015-07-25T14:16:02Z</time>
      </trkpt>
      <trkpt lat="44.82778" lon="5.83984">
        <ele>911.1</ele>
        <time>2015-07-25T14:16:07Z</time>
      </trkpt>
      <trkpt lat="44.82777" lon="5.83975">
        <ele>911.5</ele>
        <time>2015-07-25T14:16:12Z</time>
      </trkpt>
      <trkpt lat="44.82777" lon="5.83966">
        <ele>911.9</ele>
        <time>2015-07-25T14:16:17Z</time>
      </trkpt>
      <trkpt lat="44.82777" lon="5.83956">
        <ele>912.1</ele>
        <time>2015-07-25T14:16:22Z</time>
      </trkpt>
      <trkpt lat="44.82779" lon="5.83948">
        <ele>911.6</ele>
        <time>2015-07-25T14:16:27Z</time>
      </trkpt>
      <trkpt lat="44.82782" lon="5.83939">
        <ele>910.8</ele>
        <time>2015-07-25T14:16:32Z</time>
      </trkpt>
      <trkpt lat="44.82785" lon="5.83929">
        <ele>910.3</ele>
        <time>2015-07-25T14:16:37Z</time>
      </trkpt>
      <trkpt lat="44.82785" lon="5.8392">
        <ele>909.4</ele>
        <time>2015-07-25T14:16:42Z</time>
      </trkpt>
      <trkpt lat="44.82787" lon="5.83909">
        <ele>909.3</ele>
        <time>2015-07-25T14:16:47Z</time>
      </trkpt>
      <trkpt lat="44.8279" lon="5.83899">
        <ele>909.7</ele>
        <time>2015-07-25T14:16:52Z</time>
      </trkpt>
      <trkpt lat="44.8279" lon="5.83889">
        <ele>909.2</ele>
        <time>2015-07-25T14:16:57Z</time>
      </trkpt>
      <trkpt lat="44.82789" lon="5.8388">
        <ele>908.5</ele>
        <time>2015-07-25T14:17:02Z</time>
      </trkpt>
      <trkpt lat="44.82787" lon="5.83871">
        <ele>908.9</ele>
        <time>2015-07-25T14:17:07Z</time>
      </trkpt>
      <trkpt lat="44.82784" lon="5.83863">
        <ele>909</ele>
        <time>2015-07-25T14:17:12Z</time>
      </trkpt>
      <trkpt lat="44.82779" lon="5.83854">
        <ele>910.6</ele>
        <time>2015-07-25T14:17:17Z</time>
      </trkpt>
      <trkpt lat="44.82775" lon="5.83845">
        <ele>911.2</ele>
        <time>2015-07-25T14:17:22Z</time>
      </trkpt>
      <trkpt lat="44.82773" lon="5.83835">
        <ele>911.8</ele>
        <time>2015-07-25T14:17:27Z</time>
      </trkpt>
      <trkpt lat="44.82771" lon="5.83824">
        <ele>912.5</ele>
        <time>2015-07-25T14:17:32Z</time>
      </trkpt>
      <trkpt lat="44.8277" lon="5.83815">
        <ele>912.6</ele>
        <time>2015-07-25T14:17:37Z</time>
      </trkpt>
      <trkpt lat="44.82774" lon="5.83804">
        <ele>913.5</ele>
        <time>2015-07-25T14:17:42Z</time>
      </trkpt>
      <trkpt lat="44.82776" lon="5.83796">
        <ele>914.1</ele>
        <time>2015-07-25T14:17:47Z</time>
      </trkpt>
      <trkpt lat="44.82778" lon="5.83787">
        <ele>914.1</ele>
        <time>2015-07-25T14:17:52Z</time>
      </trkpt>
      <trkpt lat="44.8278" lon="5.83779">
        <ele>913.9</ele>
        <time>2015-07-25T14:17:57Z</time>
      </trkpt>
      <trkpt lat="44.82782" lon="5.8377">
        <ele>913.9</ele>
        <time>2015-07-25T14:18:02Z</time>
      </trkpt>
      <trkpt lat="44.82784" lon="5.83762">
        <ele>913.5</ele>
        <time>2015-07-25T14:18:07Z</time>
      </trkpt>
      <trkpt lat="44.82787" lon="5.83753">
        <ele>912.7</ele>
        <time>2015-07-25T14:18:12Z</time>
      </trkpt>
      <trkpt lat="44.82789" lon="5.83744">
        <ele>912.3</ele>
        <time>2015-07-25T14:18:17Z</time>
      </trkpt>
      <trkpt lat="44.82792" lon="5.83735">
        <ele>911.5</ele>
        <time>2015-07-25T14:18:22Z</time>
      </trkpt>
      <trkpt lat="44.82794" lon="5.83726">
        <ele>911.9</ele>
        <time>2015-07-25T14:18:27Z</time>
      </trkpt>
      <trkpt lat="44.82796" lon="5.83718">
        <ele>913.5</ele>
        <time>2015-07-25T14:18:32Z</time>
      </trkpt>
      <trkpt lat="44.82796" lon="5.83709">
        <ele>912.9</ele>
        <time>2015-07-25T14:18:37Z</time>
      </trkpt>
      <trkpt lat="44.82796" lon="5.837">
        <ele>914.3</ele>
        <time>2015-07-25T14:18:42Z</time>
      </trkpt>
      <trkpt lat="44.82795" lon="5.8369">
        <ele>915.3</ele>
        <time>2015-07-25T14:18:47Z</time>
      </trkpt>
      <trkpt lat="44.82795" lon="5.8368">
        <ele>916.8</ele>
        <time>2015-07-25T14:18:52Z</time>
      </trkpt>
      <trkpt lat="44.82794" lon="5.83671">
        <ele>917.8</ele>
        <time>2015-07-25T14:18:57Z</time>
      </trkpt>
      <trkpt lat="44.82794" lon="5.83663">
        <ele>920.2</ele>
        <time>2015-07-25T14:19:02Z</time>
      </trkpt>
      <trkpt lat="44.82795" lon="5.83654">
        <ele>922.4</ele>
        <time>2015-07-25T14:19:07Z</time>
      </trkpt>
      <trkpt lat="44.82798" lon="5.83645">
        <ele>922.2</ele>
        <time>2015-07-25T14:19:12Z</time>
      </trkpt>
      <trkpt lat="44.82798" lon="5.83635">
        <ele>921.6</ele>
        <time>2015-07-25T14:19:17Z</time>
      </trkpt>
      <trkpt lat="44.828" lon="5.83623">
        <ele>917.2</ele>
        <time>2015-07-25T14:19:22Z</time>
      </trkpt>
      <trkpt lat="44.828" lon="5.83612">
        <ele>915.4</ele>
        <time>2015-07-25T14:19:27Z</time>
      </trkpt>
      <trkpt lat="44.828" lon="5.83603">
        <ele>914.9</ele>
        <time>2015-07-25T14:19:32Z</time>
      </trkpt>
      <trkpt lat="44.82801" lon="5.83593">
        <ele>914.4</ele>
        <time>2015-07-25T14:19:37Z</time>
      </trkpt>
      <trkpt lat="44.82802" lon="5.83583">
        <ele>914.9</ele>
        <time>2015-07-25T14:19:42Z</time>
      </trkpt>
      <trkpt lat="44.82803" lon="5.83574">
        <ele>915.3</ele>
        <time>2015-07-25T14:19:47Z</time>
      </trkpt>
      <trkpt lat="44.82804" lon="5.83564">
        <ele>916.2</ele>
        <time>2015-07-25T14:19:52Z</time>
      </trkpt>
      <trkpt lat="44.82806" lon="5.83555">
        <ele>916.9</ele>
        <time>2015-07-25T14:19:57Z</time>
      </trkpt>
      <trkpt lat="44.82806" lon="5.83545">
        <ele>917.8</ele>
        <time>2015-07-25T14:20:02Z</time>
      </trkpt>
      <trkpt lat="44.82808" lon="5.83536">
        <ele>918.4</ele>
        <time>2015-07-25T14:20:07Z</time>
      </trkpt>
      <trkpt lat="44.82809" lon="5.83526">
        <ele>919</ele>
        <time>2015-07-25T14:20:12Z</time>
      </trkpt>
      <trkpt lat="44.8281" lon="5.83516">
        <ele>919.7</ele>
        <time>2015-07-25T14:20:17Z</time>
      </trkpt>
      <trkpt lat="44.82812" lon="5.83508">
        <ele>920.8</ele>
        <time>2015-07-25T14:20:22Z</time>
      </trkpt>
      <trkpt lat="44.82814" lon="5.83498">
        <ele>921.6</ele>
        <time>2015-07-25T14:20:27Z</time>
      </trkpt>
      <trkpt lat="44.82816" lon="5.83489">
        <ele>922.1</ele>
        <time>2015-07-25T14:20:32Z</time>
      </trkpt>
      <trkpt lat="44.82818" lon="5.83479">
        <ele>922.6</ele>
        <time>2015-07-25T14:20:37Z</time>
      </trkpt>
      <trkpt lat="44.8282" lon="5.83469">
        <ele>922.9</ele>
        <time>2015-07-25T14:20:42Z</time>
      </trkpt>
      <trkpt lat="44.82823" lon="5.8346">
        <ele>923.1</ele>
        <time>2015-07-25T14:20:47Z</time>
      </trkpt>
      <trkpt lat="44.82826" lon="5.83452">
        <ele>923.3</ele>
        <time>2015-07-25T14:20:52Z</time>
      </trkpt>
      <trkpt lat="44.82831" lon="5.83445">
        <ele>923.7</ele>
        <time>2015-07-25T14:20:57Z</time>
      </trkpt>
      <trkpt lat="44.82835" lon="5.83438">
        <ele>923.4</ele>
        <time>2015-07-25T14:21:02Z</time>
      </trkpt>
      <trkpt lat="44.8284" lon="5.83432">
        <ele>923.9</ele>
        <time>2015-07-25T14:21:07Z</time>
      </trkpt>
      <trkpt lat="44.82845" lon="5.83425">
        <ele>923.3</ele>
        <time>2015-07-25T14:21:12Z</time>
      </trkpt>
      <trkpt lat="44.8285" lon="5.83418">
        <ele>923.7</ele>
        <time>2015-07-25T14:21:17Z</time>
      </trkpt>
      <trkpt lat="44.82855" lon="5.83411">
        <ele>923.7</ele>
        <time>2015-07-25T14:21:22Z</time>
      </trkpt>
      <trkpt lat="44.82861" lon="5.83404">
        <ele>923.6</ele>
        <time>2015-07-25T14:21:27Z</time>
      </trkpt>
      <trkpt lat="44.82866" lon="5.83397">
        <ele>923.5</ele>
        <time>2015-07-25T14:21:32Z</time>
      </trkpt>
      <trkpt lat="44.82871" lon="5.83391">
        <ele>923.4</ele>
        <time>2015-07-25T14:21:37Z</time>
      </trkpt>
      <trkpt lat="44.82876" lon="5.83384">
        <ele>922.7</ele>
        <time>2015-07-25T14:21:42Z</time>
      </trkpt>
      <trkpt lat="44.82881" lon="5.83377">
        <ele>922.7</ele>
        <time>2015-07-25T14:21:47Z</time>
      </trkpt>
      <trkpt lat="44.82887" lon="5.83371">
        <ele>923</ele>
        <time>2015-07-25T14:21:52Z</time>
      </trkpt>
      <trkpt lat="44.82892" lon="5.83364">
        <ele>923.7</ele>
        <time>2015-07-25T14:21:57Z</time>
      </trkpt>
      <trkpt lat="44.82898" lon="5.83358">
        <ele>924</ele>
        <time>2015-07-25T14:22:02Z</time>
      </trkpt>
      <trkpt lat="44.82903" lon="5.83353">
        <ele>924.6</ele>
        <time>2015-07-25T14:22:07Z</time>
      </trkpt>
      <trkpt lat="44.82908" lon="5.83347">
        <ele>925.6</ele>
        <time>2015-07-25T14:22:12Z</time>
      </trkpt>
      <trkpt lat="44.82913" lon="5.8334">
        <ele>926</ele>
        <time>2015-07-25T14:22:17Z</time>
      </trkpt>
      <trkpt lat="44.82918" lon="5.83334">
        <ele>926.2</ele>
        <time>2015-07-25T14:22:22Z</time>
      </trkpt>
      <trkpt lat="44.82924" lon="5.83328">
        <ele>926.4</ele>
        <time>2015-07-25T14:22:27Z</time>
      </trkpt>
      <trkpt lat="44.82929" lon="5.83323">
        <ele>926.9</ele>
        <time>2015-07-25T14:22:32Z</time>
      </trkpt>
      <trkpt lat="44.82934" lon="5.83316">
        <ele>927</ele>
        <time>2015-07-25T14:22:37Z</time>
      </trkpt>
      <trkpt lat="44.8294" lon="5.83311">
        <ele>927.9</ele>
        <time>2015-07-25T14:22:42Z</time>
      </trkpt>
      <trkpt lat="44.82945" lon="5.83306">
        <ele>928.1</ele>
        <time>2015-07-25T14:22:47Z</time>
      </trkpt>
      <trkpt lat="44.82951" lon="5.833">
        <ele>928.9</ele>
        <time>2015-07-25T14:22:52Z</time>
      </trkpt>
      <trkpt lat="44.82956" lon="5.83295">
        <ele>930.2</ele>
        <time>2015-07-25T14:22:57Z</time>
      </trkpt>
      <trkpt lat="44.82961" lon="5.83288">
        <ele>929.9</ele>
        <time>2015-07-25T14:23:02Z</time>
      </trkpt>
      <trkpt lat="44.82966" lon="5.83282">
        <ele>931.1</ele>
        <time>2015-07-25T14:23:07Z</time>
      </trkpt>
      <trkpt lat="44.82971" lon="5.83276">
        <ele>933.1</ele>
        <time>2015-07-25T14:23:12Z</time>
      </trkpt>
      <trkpt lat="44.82976" lon="5.83271">
        <ele>934.8</ele>
        <time>2015-07-25T14:23:17Z</time>
      </trkpt>
      <trkpt lat="44.82982" lon="5.83269">
        <ele>937.1</ele>
        <time>2015-07-25T14:23:22Z</time>
      </trkpt>
      <trkpt lat="44.82988" lon="5.83266">
        <ele>938.7</ele>
        <time>2015-07-25T14:23:27Z</time>
      </trkpt>
      <trkpt lat="44.82995" lon="5.83265">
        <ele>940.4</ele>
        <time>2015-07-25T14:23:32Z</time>
      </trkpt>
      <trkpt lat="44.83002" lon="5.83263">
        <ele>941.5</ele>
        <time>2015-07-25T14:23:37Z</time>
      </trkpt>
      <trkpt lat="44.83009" lon="5.83261">
        <ele>941.4</ele>
        <time>2015-07-25T14:23:42Z</time>
      </trkpt>
      <trkpt lat="44.83016" lon="5.8326">
        <ele>941.2</ele>
        <time>2015-07-25T14:23:47Z</time>
      </trkpt>
      <trkpt lat="44.83023" lon="5.83258">
        <ele>941</ele>
        <time>2015-07-25T14:23:52Z</time>
      </trkpt>
      <trkpt lat="44.8303" lon="5.83257">
        <ele>940.8</ele>
        <time>2015-07-25T14:23:57Z</time>
      </trkpt>
      <trkpt lat="44.83037" lon="5.83257">
        <ele>940.7</ele>
        <time>2015-07-25T14:24:02Z</time>
      </trkpt>
      <trkpt lat="44.83044" lon="5.83255">
        <ele>940.4</ele>
        <time>2015-07-25T14:24:07Z</time>
      </trkpt>
      <trkpt lat="44.83051" lon="5.83252">
        <ele>940.8</ele>
        <time>2015-07-25T14:24:12Z</time>
      </trkpt>
      <trkpt lat="44.83057" lon="5.83247">
        <ele>940.2</ele>
        <time>2015-07-25T14:24:17Z</time>
      </trkpt>
      <trkpt lat="44.83062" lon="5.83241">
        <ele>940.1</ele>
        <time>2015-07-25T14:24:22Z</time>
      </trkpt>
      <trkpt lat="44.83067" lon="5.83234">
        <ele>940.5</ele>
        <time>2015-07-25T14:24:27Z</time>
      </trkpt>
      <trkpt lat="44.83072" lon="5.83226">
        <ele>941</ele>
        <time>2015-07-25T14:24:32Z</time>
      </trkpt>
      <trkpt lat="44.83076" lon="5.83219">
        <ele>941.5</ele>
        <time>2015-07-25T14:24:37Z</time>
      </trkpt>
      <trkpt lat="44.83079" lon="5.83211">
        <ele>942</ele>
        <time>2015-07-25T14:24:42Z</time>
      </trkpt>
      <trkpt lat="44.83083" lon="5.83202">
        <ele>942.5</ele>
        <time>2015-07-25T14:24:47Z</time>
      </trkpt>
      <trkpt lat="44.83086" lon="5.83194">
        <ele>943</ele>
        <time>2015-07-25T14:24:52Z</time>
      </trkpt>
      <trkpt lat="44.83089" lon="5.83186">
        <ele>943.6</ele>
        <time>2015-07-25T14:24:57Z</time>
      </trkpt>
      <trkpt lat="44.83092" lon="5.83178">
        <ele>944.2</ele>
        <time>2015-07-25T14:25:02Z</time>
      </trkpt>
      <trkpt lat="44.83094" lon="5.83169">
        <ele>944.7</ele>
        <time>2015-07-25T14:25:07Z</time>
      </trkpt>
      <trkpt lat="44.83096" lon="5.8316">
        <ele>945.2</ele>
        <time>2015-07-25T14:25:12Z</time>
      </trkpt>
      <trkpt lat="44.83099" lon="5.83152">
        <ele>945.7</ele>
        <time>2015-07-25T14:25:17Z</time>
      </trkpt>
      <trkpt lat="44.83101" lon="5.83143">
        <ele>946.2</ele>
        <time>2015-07-25T14:25:22Z</time>
      </trkpt>
      <trkpt lat="44.83103" lon="5.83135">
        <ele>946.7</ele>
        <time>2015-07-25T14:25:27Z</time>
      </trkpt>
      <trkpt lat="44.83105" lon="5.83126">
        <ele>946.8</ele>
        <time>2015-07-25T14:25:32Z</time>
      </trkpt>
      <trkpt lat="44.83106" lon="5.83119">
        <ele>946.3</ele>
        <time>2015-07-25T14:25:37Z</time>
      </trkpt>
      <trkpt lat="44.83109" lon="5.83112">
        <ele>945.2</ele>
        <time>2015-07-25T14:25:42Z</time>
      </trkpt>
      <trkpt lat="44.83112" lon="5.83106">
        <ele>944.3</ele>
        <time>2015-07-25T14:25:47Z</time>
      </trkpt>
      <trkpt lat="44.83115" lon="5.83099">
        <ele>943.1</ele>
        <time>2015-07-25T14:25:52Z</time>
      </trkpt>
      <trkpt lat="44.83117" lon="5.83093">
        <ele>941.3</ele>
        <time>2015-07-25T14:25:57Z</time>
      </trkpt>
      <trkpt lat="44.83121" lon="5.83087">
        <ele>941.1</ele>
        <time>2015-07-25T14:26:02Z</time>
      </trkpt>
      <trkpt lat="44.83125" lon="5.83081">
        <ele>940.8</ele>
        <time>2015-07-25T14:26:07Z</time>
      </trkpt>
      <trkpt lat="44.8313" lon="5.83074">
        <ele>941.4</ele>
        <time>2015-07-25T14:26:12Z</time>
      </trkpt>
      <trkpt lat="44.83138" lon="5.83067">
        <ele>944.2</ele>
        <time>2015-07-25T14:26:17Z</time>
      </trkpt>
      <trkpt lat="44.83144" lon="5.8306">
        <ele>945.6</ele>
        <time>2015-07-25T14:26:22Z</time>
      </trkpt>
      <trkpt lat="44.8315" lon="5.83053">
        <ele>947.4</ele>
        <time>2015-07-25T14:26:27Z</time>
      </trkpt>
      <trkpt lat="44.83156" lon="5.83046">
        <ele>948.9</ele>
        <time>2015-07-25T14:26:32Z</time>
      </trkpt>
      <trkpt lat="44.8316" lon="5.83038">
        <ele>949.4</ele>
        <time>2015-07-25T14:26:37Z</time>
      </trkpt>
      <trkpt lat="44.83165" lon="5.8303">
        <ele>950.8</ele>
        <time>2015-07-25T14:26:42Z</time>
      </trkpt>
      <trkpt lat="44.83168" lon="5.83023">
        <ele>952.2</ele>
        <time>2015-07-25T14:26:47Z</time>
      </trkpt>
      <trkpt lat="44.83172" lon="5.83013">
        <ele>952.2</ele>
        <time>2015-07-25T14:26:52Z</time>
      </trkpt>
      <trkpt lat="44.83175" lon="5.83006">
        <ele>952.7</ele>
        <time>2015-07-25T14:26:57Z</time>
      </trkpt>
      <trkpt lat="44.83178" lon="5.82998">
        <ele>953.6</ele>
        <time>2015-07-25T14:27:02Z</time>
      </trkpt>
      <trkpt lat="44.83181" lon="5.8299">
        <ele>954.7</ele>
        <time>2015-07-25T14:27:07Z</time>
      </trkpt>
      <trkpt lat="44.83186" lon="5.82982">
        <ele>955.6</ele>
        <time>2015-07-25T14:27:12Z</time>
      </trkpt>
      <trkpt lat="44.8319" lon="5.82975">
        <ele>956.9</ele>
        <time>2015-07-25T14:27:17Z</time>
      </trkpt>
      <trkpt lat="44.83193" lon="5.82967">
        <ele>957.9</ele>
        <time>2015-07-25T14:27:22Z</time>
      </trkpt>
      <trkpt lat="44.83197" lon="5.82959">
        <ele>959.1</ele>
        <time>2015-07-25T14:27:27Z</time>
      </trkpt>
      <trkpt lat="44.832" lon="5.82951">
        <ele>960</ele>
        <time>2015-07-25T14:27:32Z</time>
      </trkpt>
      <trkpt lat="44.83205" lon="5.82945">
        <ele>960.8</ele>
        <time>2015-07-25T14:27:37Z</time>
      </trkpt>
      <trkpt lat="44.83212" lon="5.8294">
        <ele>961.2</ele>
        <time>2015-07-25T14:27:42Z</time>
      </trkpt>
      <trkpt lat="44.83219" lon="5.82937">
        <ele>961.3</ele>
        <time>2015-07-25T14:27:47Z</time>
      </trkpt>
      <trkpt lat="44.83226" lon="5.82934">
        <ele>961.4</ele>
        <time>2015-07-25T14:27:52Z</time>
      </trkpt>
      <trkpt lat="44.83233" lon="5.82933">
        <ele>962</ele>
        <time>2015-07-25T14:27:57Z</time>
      </trkpt>
      <trkpt lat="44.83239" lon="5.82932">
        <ele>962.4</ele>
        <time>2015-07-25T14:28:02Z</time>
      </trkpt>
      <trkpt lat="44.83247" lon="5.82928">
        <ele>962.2</ele>
        <time>2015-07-25T14:28:07Z</time>
      </trkpt>
      <trkpt lat="44.83254" lon="5.82924">
        <ele>962.1</ele>
        <time>2015-07-25T14:28:12Z</time>
      </trkpt>
      <trkpt lat="44.8326" lon="5.82919">
        <ele>961.8</ele>
        <time>2015-07-25T14:28:17Z</time>
      </trkpt>
      <trkpt lat="44.83266" lon="5.82912">
        <ele>961.4</ele>
        <time>2015-07-25T14:28:22Z</time>
      </trkpt>
      <trkpt lat="44.83271" lon="5.82905">
        <ele>960.3</ele>
        <time>2015-07-25T14:28:27Z</time>
      </trkpt>
      <trkpt lat="44.83277" lon="5.82901">
        <ele>961</ele>
        <time>2015-07-25T14:28:32Z</time>
      </trkpt>
      <trkpt lat="44.83283" lon="5.82897">
        <ele>963.1</ele>
        <time>2015-07-25T14:28:37Z</time>
      </trkpt>
      <trkpt lat="44.83288" lon="5.82893">
        <ele>963.1</ele>
        <time>2015-07-25T14:28:42Z</time>
      </trkpt>
      <trkpt lat="44.83294" lon="5.82886">
        <ele>961.7</ele>
        <time>2015-07-25T14:28:47Z</time>
      </trkpt>
      <trkpt lat="44.833" lon="5.8288">
        <ele>961.6</ele>
        <time>2015-07-25T14:28:52Z</time>
      </trkpt>
      <trkpt lat="44.83307" lon="5.82875">
        <ele>959.7</ele>
        <time>2015-07-25T14:28:57Z</time>
      </trkpt>
      <trkpt lat="44.83315" lon="5.82873">
        <ele>959.8</ele>
        <time>2015-07-25T14:29:02Z</time>
      </trkpt>
      <trkpt lat="44.83322" lon="5.8287">
        <ele>958.7</ele>
        <time>2015-07-25T14:29:07Z</time>
      </trkpt>
      <trkpt lat="44.83329" lon="5.82866">
        <ele>958.6</ele>
        <time>2015-07-25T14:29:12Z</time>
      </trkpt>
      <trkpt lat="44.83336" lon="5.82861">
        <ele>958.1</ele>
        <time>2015-07-25T14:29:17Z</time>
      </trkpt>
      <trkpt lat="44.83344" lon="5.82858">
        <ele>957.9</ele>
        <time>2015-07-25T14:29:22Z</time>
      </trkpt>
      <trkpt lat="44.83351" lon="5.82853">
        <ele>957.6</ele>
        <time>2015-07-25T14:29:27Z</time>
      </trkpt>
      <trkpt lat="44.83355" lon="5.82849">
        <ele>957.1</ele>
        <time>2015-07-25T14:29:32Z</time>
      </trkpt>
      <trkpt lat="44.8336" lon="5.82849">
        <ele>957.8</ele>
        <time>2015-07-25T14:29:37Z</time>
      </trkpt>
      <trkpt lat="44.83366" lon="5.82848">
        <ele>957.5</ele>
        <time>2015-07-25T14:29:42Z</time>
      </trkpt>
      <trkpt lat="44.83374" lon="5.82846">
        <ele>957.9</ele>
        <time>2015-07-25T14:29:47Z</time>
      </trkpt>
      <trkpt lat="44.83381" lon="5.82844">
        <ele>957.8</ele>
        <time>2015-07-25T14:29:52Z</time>
      </trkpt>
      <trkpt lat="44.83389" lon="5.82842">
        <ele>957.9</ele>
        <time>2015-07-25T14:29:57Z</time>
      </trkpt>
      <trkpt lat="44.83396" lon="5.8284">
        <ele>958.3</ele>
        <time>2015-07-25T14:30:02Z</time>
      </trkpt>
      <trkpt lat="44.83403" lon="5.82838">
        <ele>958.6</ele>
        <time>2015-07-25T14:30:07Z</time>
      </trkpt>
      <trkpt lat="44.83411" lon="5.82834">
        <ele>958.8</ele>
        <time>2015-07-25T14:30:12Z</time>
      </trkpt>
      <trkpt lat="44.83418" lon="5.82829">
        <ele>959</ele>
        <time>2015-07-25T14:30:17Z</time>
      </trkpt>
      <trkpt lat="44.83424" lon="5.82822">
        <ele>958.9</ele>
        <time>2015-07-25T14:30:22Z</time>
      </trkpt>
      <trkpt lat="44.83429" lon="5.82814">
        <ele>958.1</ele>
        <time>2015-07-25T14:30:27Z</time>
      </trkpt>
      <trkpt lat="44.83434" lon="5.82807">
        <ele>958</ele>
        <time>2015-07-25T14:30:32Z</time>
      </trkpt>
      <trkpt lat="44.83439" lon="5.82804">
        <ele>957.8</ele>
        <time>2015-07-25T14:30:37Z</time>
      </trkpt>
      <trkpt lat="44.83445" lon="5.82808">
        <ele>959.6</ele>
        <time>2015-07-25T14:30:42Z</time>
      </trkpt>
      <trkpt lat="44.83451" lon="5.82812">
        <ele>959.6</ele>
        <time>2015-07-25T14:30:47Z</time>
      </trkpt>
      <trkpt lat="44.83458" lon="5.82813">
        <ele>959.1</ele>
        <time>2015-07-25T14:30:52Z</time>
      </trkpt>
      <trkpt lat="44.83465" lon="5.8281">
        <ele>958</ele>
        <time>2015-07-25T14:30:57Z</time>
      </trkpt>
      <trkpt lat="44.83471" lon="5.82808">
        <ele>957.1</ele>
        <time>2015-07-25T14:31:02Z</time>
      </trkpt>
      <trkpt lat="44.83478" lon="5.82807">
        <ele>956.7</ele>
        <time>2015-07-25T14:31:07Z</time>
      </trkpt>
      <trkpt lat="44.83485" lon="5.82806">
        <ele>956.8</ele>
        <time>2015-07-25T14:31:12Z</time>
      </trkpt>
      <trkpt lat="44.83492" lon="5.82807">
        <ele>957.2</ele>
        <time>2015-07-25T14:31:17Z</time>
      </trkpt>
      <trkpt lat="44.83499" lon="5.8281">
        <ele>958.2</ele>
        <time>2015-07-25T14:31:22Z</time>
      </trkpt>
      <trkpt lat="44.83505" lon="5.82813">
        <ele>959.4</ele>
        <time>2015-07-25T14:31:27Z</time>
      </trkpt>
      <trkpt lat="44.83511" lon="5.82819">
        <ele>960.4</ele>
        <time>2015-07-25T14:31:32Z</time>
      </trkpt>
      <trkpt lat="44.83517" lon="5.82825">
        <ele>961.6</ele>
        <time>2015-07-25T14:31:37Z</time>
      </trkpt>
      <trkpt lat="44.83521" lon="5.82832">
        <ele>963.1</ele>
        <time>2015-07-25T14:31:42Z</time>
      </trkpt>
      <trkpt lat="44.83524" lon="5.82841">
        <ele>964.3</ele>
        <time>2015-07-25T14:31:47Z</time>
      </trkpt>
      <trkpt lat="44.83527" lon="5.8285">
        <ele>965.4</ele>
        <time>2015-07-25T14:31:52Z</time>
      </trkpt>
      <trkpt lat="44.83532" lon="5.82855">
        <ele>967.2</ele>
        <time>2015-07-25T14:31:57Z</time>
      </trkpt>
      <trkpt lat="44.83539" lon="5.82854">
        <ele>967.8</ele>
        <time>2015-07-25T14:32:02Z</time>
      </trkpt>
      <trkpt lat="44.83545" lon="5.8285">
        <ele>968.1</ele>
        <time>2015-07-25T14:32:07Z</time>
      </trkpt>
      <trkpt lat="44.8355" lon="5.82846">
        <ele>968.1</ele>
        <time>2015-07-25T14:32:12Z</time>
      </trkpt>
      <trkpt lat="44.83556" lon="5.82842">
        <ele>967.7</ele>
        <time>2015-07-25T14:32:17Z</time>
      </trkpt>
      <trkpt lat="44.83563" lon="5.82838">
        <ele>967.1</ele>
        <time>2015-07-25T14:32:22Z</time>
      </trkpt>
      <trkpt lat="44.8357" lon="5.82834">
        <ele>966.2</ele>
        <time>2015-07-25T14:32:27Z</time>
      </trkpt>
      <trkpt lat="44.83576" lon="5.82829">
        <ele>965.7</ele>
        <time>2015-07-25T14:32:32Z</time>
      </trkpt>
      <trkpt lat="44.83583" lon="5.82824">
        <ele>965.3</ele>
        <time>2015-07-25T14:32:37Z</time>
      </trkpt>
      <trkpt lat="44.83589" lon="5.82818">
        <ele>964.6</ele>
        <time>2015-07-25T14:32:42Z</time>
      </trkpt>
      <trkpt lat="44.83595" lon="5.82812">
        <ele>964.5</ele>
        <time>2015-07-25T14:32:47Z</time>
      </trkpt>
      <trkpt lat="44.83601" lon="5.82806">
        <ele>964.6</ele>
        <time>2015-07-25T14:32:52Z</time>
      </trkpt>
      <trkpt lat="44.83608" lon="5.82799">
        <ele>964.6</ele>
        <time>2015-07-25T14:32:57Z</time>
      </trkpt>
      <trkpt lat="44.83613" lon="5.82791">
        <ele>964.6</ele>
        <time>2015-07-25T14:33:02Z</time>
      </trkpt>
      <trkpt lat="44.83618" lon="5.82784">
        <ele>964.8</ele>
        <time>2015-07-25T14:33:07Z</time>
      </trkpt>
      <trkpt lat="44.83624" lon="5.82777">
        <ele>964.9</ele>
        <time>2015-07-25T14:33:12Z</time>
      </trkpt>
      <trkpt lat="44.83628" lon="5.82769">
        <ele>965</ele>
        <time>2015-07-25T14:33:17Z</time>
      </trkpt>
      <trkpt lat="44.83632" lon="5.8276">
        <ele>965.2</ele>
        <time>2015-07-25T14:33:22Z</time>
      </trkpt>
      <trkpt lat="44.83636" lon="5.82752">
        <ele>965.2</ele>
        <time>2015-07-25T14:33:27Z</time>
      </trkpt>
      <trkpt lat="44.83637" lon="5.82744">
        <ele>964.5</ele>
        <time>2015-07-25T14:33:32Z</time>
      </trkpt>
      <trkpt lat="44.83639" lon="5.8274">
        <ele>963.8</ele>
        <time>2015-07-25T14:33:37Z</time>
      </trkpt>
      <trkpt lat="44.83643" lon="5.82732">
        <ele>963.1</ele>
        <time>2015-07-25T14:33:42Z</time>
      </trkpt>
      <trkpt lat="44.83646" lon="5.82723">
        <ele>962.4</ele>
        <time>2015-07-25T14:33:47Z</time>
      </trkpt>
      <trkpt lat="44.83649" lon="5.82715">
        <ele>962.2</ele>
        <time>2015-07-25T14:33:52Z</time>
      </trkpt>
      <trkpt lat="44.83654" lon="5.82708">
        <ele>962.7</ele>
        <time>2015-07-25T14:33:57Z</time>
      </trkpt>
      <trkpt lat="44.8366" lon="5.82702">
        <ele>963.3</ele>
        <time>2015-07-25T14:34:02Z</time>
      </trkpt>
      <trkpt lat="44.83667" lon="5.827">
        <ele>964</ele>
        <time>2015-07-25T14:34:07Z</time>
      </trkpt>
      <trkpt lat="44.83674" lon="5.82698">
        <ele>964.4</ele>
        <time>2015-07-25T14:34:12Z</time>
      </trkpt>
      <trkpt lat="44.83681" lon="5.82694">
        <ele>964.2</ele>
        <time>2015-07-25T14:34:17Z</time>
      </trkpt>
      <trkpt lat="44.83687" lon="5.82687">
        <ele>963.9</ele>
        <time>2015-07-25T14:34:22Z</time>
      </trkpt>
      <trkpt lat="44.83693" lon="5.82679">
        <ele>964</ele>
        <time>2015-07-25T14:34:27Z</time>
      </trkpt>
      <trkpt lat="44.83697" lon="5.82671">
        <ele>964.1</ele>
        <time>2015-07-25T14:34:32Z</time>
      </trkpt>
      <trkpt lat="44.83701" lon="5.82664">
        <ele>963.8</ele>
        <time>2015-07-25T14:34:37Z</time>
      </trkpt>
      <trkpt lat="44.83705" lon="5.82655">
        <ele>963.8</ele>
        <time>2015-07-25T14:34:42Z</time>
      </trkpt>
      <trkpt lat="44.83708" lon="5.82646">
        <ele>963.5</ele>
        <time>2015-07-25T14:34:47Z</time>
      </trkpt>
      <trkpt lat="44.83712" lon="5.82639">
        <ele>962.8</ele>
        <time>2015-07-25T14:34:52Z</time>
      </trkpt>
      <trkpt lat="44.83716" lon="5.82631">
        <ele>961.7</ele>
        <time>2015-07-25T14:34:57Z</time>
      </trkpt>
      <trkpt lat="44.83719" lon="5.82622">
        <ele>959.7</ele>
        <time>2015-07-25T14:35:02Z</time>
      </trkpt>
      <trkpt lat="44.83722" lon="5.82614">
        <ele>959.2</ele>
        <time>2015-07-25T14:35:07Z</time>
      </trkpt>
      <trkpt lat="44.83726" lon="5.82606">
        <ele>958.6</ele>
        <time>2015-07-25T14:35:12Z</time>
      </trkpt>
      <trkpt lat="44.8373" lon="5.82597">
        <ele>956</ele>
        <time>2015-07-25T14:35:17Z</time>
      </trkpt>
      <trkpt lat="44.83737" lon="5.8259">
        <ele>956.4</ele>
        <time>2015-07-25T14:35:22Z</time>
      </trkpt>
      <trkpt lat="44.83742" lon="5.82582">
        <ele>955.5</ele>
        <time>2015-07-25T14:35:27Z</time>
      </trkpt>
      <trkpt lat="44.83747" lon="5.82574">
        <ele>953.7</ele>
        <time>2015-07-25T14:35:32Z</time>
      </trkpt>
      <trkpt lat="44.83752" lon="5.82564">
        <ele>953.2</ele>
        <time>2015-07-25T14:35:37Z</time>
      </trkpt>
      <trkpt lat="44.83757" lon="5.82555">
        <ele>952.4</ele>
        <time>2015-07-25T14:35:42Z</time>
      </trkpt>
      <trkpt lat="44.83762" lon="5.82546">
        <ele>952.2</ele>
        <time>2015-07-25T14:35:47Z</time>
      </trkpt>
      <trkpt lat="44.83767" lon="5.82538">
        <ele>952.6</ele>
        <time>2015-07-25T14:35:52Z</time>
      </trkpt>
      <trkpt lat="44.83772" lon="5.8253">
        <ele>952.8</ele>
        <time>2015-07-25T14:35:57Z</time>
      </trkpt>
      <trkpt lat="44.83777" lon="5.82522">
        <ele>952.9</ele>
        <time>2015-07-25T14:36:02Z</time>
      </trkpt>
      <trkpt lat="44.83782" lon="5.82513">
        <ele>953.1</ele>
        <time>2015-07-25T14:36:07Z</time>
      </trkpt>
      <trkpt lat="44.83788" lon="5.82505">
        <ele>953</ele>
        <time>2015-07-25T14:36:12Z</time>
      </trkpt>
      <trkpt lat="44.83794" lon="5.82497">
        <ele>953.2</ele>
        <time>2015-07-25T14:36:17Z</time>
      </trkpt>
      <trkpt lat="44.83799" lon="5.8249">
        <ele>953.5</ele>
        <time>2015-07-25T14:36:22Z</time>
      </trkpt>
      <trkpt lat="44.83804" lon="5.82481">
        <ele>953.5</ele>
        <time>2015-07-25T14:36:27Z</time>
      </trkpt>
      <trkpt lat="44.83807" lon="5.82472">
        <ele>953.5</ele>
        <time>2015-07-25T14:36:32Z</time>
      </trkpt>
      <trkpt lat="44.83811" lon="5.82462">
        <ele>953.6</ele>
        <time>2015-07-25T14:36:37Z</time>
      </trkpt>
      <trkpt lat="44.83814" lon="5.82453">
        <ele>953.4</ele>
        <time>2015-07-25T14:36:42Z</time>
      </trkpt>
      <trkpt lat="44.83819" lon="5.82444">
        <ele>953.2</ele>
        <time>2015-07-25T14:36:47Z</time>
      </trkpt>
      <trkpt lat="44.83823" lon="5.82435">
        <ele>953.2</ele>
        <time>2015-07-25T14:36:52Z</time>
      </trkpt>
      <trkpt lat="44.83827" lon="5.82426">
        <ele>953.3</ele>
        <time>2015-07-25T14:36:57Z</time>
      </trkpt>
      <trkpt lat="44.8383" lon="5.82416">
        <ele>953.6</ele>
        <time>2015-07-25T14:37:02Z</time>
      </trkpt>
      <trkpt lat="44.83832" lon="5.82407">
        <ele>953.9</ele>
        <time>2015-07-25T14:37:07Z</time>
      </trkpt>
      <trkpt lat="44.83834" lon="5.82397">
        <ele>954.2</ele>
        <time>2015-07-25T14:37:12Z</time>
      </trkpt>
      <trkpt lat="44.83836" lon="5.82388">
        <ele>954.5</ele>
        <time>2015-07-25T14:37:17Z</time>
      </trkpt>
      <trkpt lat="44.83838" lon="5.82378">
        <ele>954.8</ele>
        <time>2015-07-25T14:37:22Z</time>
      </trkpt>
      <trkpt lat="44.83839" lon="5.8237">
        <ele>954.9</ele>
        <time>2015-07-25T14:37:27Z</time>
      </trkpt>
      <trkpt lat="44.83841" lon="5.8236">
        <ele>955.2</ele>
        <time>2015-07-25T14:37:32Z</time>
      </trkpt>
      <trkpt lat="44.83844" lon="5.82351">
        <ele>955.6</ele>
        <time>2015-07-25T14:37:37Z</time>
      </trkpt>
      <trkpt lat="44.83846" lon="5.82342">
        <ele>955.9</ele>
        <time>2015-07-25T14:37:42Z</time>
      </trkpt>
      <trkpt lat="44.83848" lon="5.82333">
        <ele>955.8</ele>
        <time>2015-07-25T14:37:47Z</time>
      </trkpt>
      <trkpt lat="44.83851" lon="5.82323">
        <ele>956.1</ele>
        <time>2015-07-25T14:37:52Z</time>
      </trkpt>
      <trkpt lat="44.83854" lon="5.82314">
        <ele>956.1</ele>
        <time>2015-07-25T14:37:57Z</time>
      </trkpt>
      <trkpt lat="44.83857" lon="5.82305">
        <ele>956.1</ele>
        <time>2015-07-25T14:38:02Z</time>
      </trkpt>
      <trkpt lat="44.8386" lon="5.82297">
        <ele>956.3</ele>
        <time>2015-07-25T14:38:07Z</time>
      </trkpt>
      <trkpt lat="44.83863" lon="5.82288">
        <ele>955.5</ele>
        <time>2015-07-25T14:38:12Z</time>
      </trkpt>
      <trkpt lat="44.83866" lon="5.82279">
        <ele>955.2</ele>
        <time>2015-07-25T14:38:17Z</time>
      </trkpt>
      <trkpt lat="44.8387" lon="5.82271">
        <ele>955.2</ele>
        <time>2015-07-25T14:38:22Z</time>
      </trkpt>
      <trkpt lat="44.83872" lon="5.82263">
        <ele>954.1</ele>
        <time>2015-07-25T14:38:27Z</time>
      </trkpt>
      <trkpt lat="44.83876" lon="5.82254">
        <ele>954.4</ele>
        <time>2015-07-25T14:38:32Z</time>
      </trkpt>
      <trkpt lat="44.83879" lon="5.82244">
        <ele>954.7</ele>
        <time>2015-07-25T14:38:37Z</time>
      </trkpt>
      <trkpt lat="44.83882" lon="5.82235">
        <ele>955.3</ele>
        <time>2015-07-25T14:38:42Z</time>
      </trkpt>
      <trkpt lat="44.83885" lon="5.82227">
        <ele>956.4</ele>
        <time>2015-07-25T14:38:47Z</time>
      </trkpt>
      <trkpt lat="44.83887" lon="5.82217">
        <ele>957.1</ele>
        <time>2015-07-25T14:38:52Z</time>
      </trkpt>
      <trkpt lat="44.83891" lon="5.82208">
        <ele>958.1</ele>
        <time>2015-07-25T14:38:57Z</time>
      </trkpt>
      <trkpt lat="44.83895" lon="5.82199">
        <ele>958.9</ele>
        <time>2015-07-25T14:39:02Z</time>
      </trkpt>
      <trkpt lat="44.83897" lon="5.8219">
        <ele>959.5</ele>
        <time>2015-07-25T14:39:07Z</time>
      </trkpt>
      <trkpt lat="44.839" lon="5.82181">
        <ele>960.1</ele>
        <time>2015-07-25T14:39:12Z</time>
      </trkpt>
      <trkpt lat="44.83902" lon="5.82171">
        <ele>960.8</ele>
        <time>2015-07-25T14:39:17Z</time>
      </trkpt>
      <trkpt lat="44.83905" lon="5.82162">
        <ele>961.2</ele>
        <time>2015-07-25T14:39:22Z</time>
      </trkpt>
      <trkpt lat="44.83907" lon="5.82153">
        <ele>961.7</ele>
        <time>2015-07-25T14:39:27Z</time>
      </trkpt>
      <trkpt lat="44.8391" lon="5.82144">
        <ele>962.2</ele>
        <time>2015-07-25T14:39:32Z</time>
      </trkpt>
      <trkpt lat="44.83913" lon="5.82136">
        <ele>962.7</ele>
        <time>2015-07-25T14:39:37Z</time>
      </trkpt>
      <trkpt lat="44.83917" lon="5.82127">
        <ele>963.2</ele>
        <time>2015-07-25T14:39:42Z</time>
      </trkpt>
      <trkpt lat="44.8392" lon="5.82119">
        <ele>963.7</ele>
        <time>2015-07-25T14:39:47Z</time>
      </trkpt>
      <trkpt lat="44.83923" lon="5.8211">
        <ele>964.2</ele>
        <time>2015-07-25T14:39:52Z</time>
      </trkpt>
      <trkpt lat="44.83926" lon="5.82101">
        <ele>964.6</ele>
        <time>2015-07-25T14:39:57Z</time>
      </trkpt>
      <trkpt lat="44.83929" lon="5.82093">
        <ele>964.9</ele>
        <time>2015-07-25T14:40:02Z</time>
      </trkpt>
      <trkpt lat="44.83933" lon="5.82084">
        <ele>965.2</ele>
        <time>2015-07-25T14:40:07Z</time>
      </trkpt>
      <trkpt lat="44.83936" lon="5.82076">
        <ele>965.7</ele>
        <time>2015-07-25T14:40:12Z</time>
      </trkpt>
      <trkpt lat="44.83939" lon="5.82067">
        <ele>966</ele>
        <time>2015-07-25T14:40:17Z</time>
      </trkpt>
      <trkpt lat="44.83943" lon="5.82058">
        <ele>966.6</ele>
        <time>2015-07-25T14:40:22Z</time>
      </trkpt>
      <trkpt lat="44.83947" lon="5.8205">
        <ele>967</ele>
        <time>2015-07-25T14:40:27Z</time>
      </trkpt>
      <trkpt lat="44.83951" lon="5.82042">
        <ele>967.4</ele>
        <time>2015-07-25T14:40:32Z</time>
      </trkpt>
      <trkpt lat="44.83954" lon="5.82033">
        <ele>967.8</ele>
        <time>2015-07-25T14:40:37Z</time>
      </trkpt>
      <trkpt lat="44.83958" lon="5.82025">
        <ele>968</ele>
        <time>2015-07-25T14:40:42Z</time>
      </trkpt>
      <trkpt lat="44.83961" lon="5.82016">
        <ele>968.2</ele>
        <time>2015-07-25T14:40:47Z</time>
      </trkpt>
      <trkpt lat="44.83963" lon="5.82005">
        <ele>968.5</ele>
        <time>2015-07-25T14:40:52Z</time>
      </trkpt>
      <trkpt lat="44.83964" lon="5.81996">
        <ele>969.1</ele>
        <time>2015-07-25T14:40:57Z</time>
      </trkpt>
      <trkpt lat="44.83967" lon="5.81987">
        <ele>969.8</ele>
        <time>2015-07-25T14:41:02Z</time>
      </trkpt>
      <trkpt lat="44.83968" lon="5.81977">
        <ele>970.4</ele>
        <time>2015-07-25T14:41:07Z</time>
      </trkpt>
      <trkpt lat="44.83971" lon="5.81968">
        <ele>970.7</ele>
        <time>2015-07-25T14:41:12Z</time>
      </trkpt>
      <trkpt lat="44.83974" lon="5.81959">
        <ele>971.2</ele>
        <time>2015-07-25T14:41:17Z</time>
      </trkpt>
      <trkpt lat="44.83976" lon="5.81948">
        <ele>972.1</ele>
        <time>2015-07-25T14:41:22Z</time>
      </trkpt>
      <trkpt lat="44.83975" lon="5.81931">
        <ele>972.7</ele>
        <time>2015-07-25T14:41:27Z</time>
      </trkpt>
      <trkpt lat="44.83974" lon="5.8192">
        <ele>973.1</ele>
        <time>2015-07-25T14:41:32Z</time>
      </trkpt>
      <trkpt lat="44.83975" lon="5.81911">
        <ele>973.5</ele>
        <time>2015-07-25T14:41:37Z</time>
      </trkpt>
      <trkpt lat="44.83975" lon="5.81901">
        <ele>973.8</ele>
        <time>2015-07-25T14:41:42Z</time>
      </trkpt>
      <trkpt lat="44.83976" lon="5.81891">
        <ele>973.8</ele>
        <time>2015-07-25T14:41:47Z</time>
      </trkpt>
      <trkpt lat="44.83976" lon="5.81881">
        <ele>973.7</ele>
        <time>2015-07-25T14:41:52Z</time>
      </trkpt>
      <trkpt lat="44.83975" lon="5.81871">
        <ele>973.9</ele>
        <time>2015-07-25T14:41:57Z</time>
      </trkpt>
      <trkpt lat="44.83973" lon="5.81861">
        <ele>974</ele>
        <time>2015-07-25T14:42:02Z</time>
      </trkpt>
      <trkpt lat="44.8397" lon="5.81852">
        <ele>974</ele>
        <time>2015-07-25T14:42:07Z</time>
      </trkpt>
      <trkpt lat="44.83967" lon="5.81844">
        <ele>974.1</ele>
        <time>2015-07-25T14:42:12Z</time>
      </trkpt>
      <trkpt lat="44.83962" lon="5.81837">
        <ele>974</ele>
        <time>2015-07-25T14:42:17Z</time>
      </trkpt>
      <trkpt lat="44.83955" lon="5.81833">
        <ele>974</ele>
        <time>2015-07-25T14:42:22Z</time>
      </trkpt>
      <trkpt lat="44.83949" lon="5.81832">
        <ele>974.5</ele>
        <time>2015-07-25T14:42:27Z</time>
      </trkpt>
      <trkpt lat="44.83943" lon="5.81828">
        <ele>974.6</ele>
        <time>2015-07-25T14:42:32Z</time>
      </trkpt>
      <trkpt lat="44.83937" lon="5.81827">
        <ele>974.9</ele>
        <time>2015-07-25T14:42:37Z</time>
      </trkpt>
      <trkpt lat="44.83931" lon="5.81826">
        <ele>975.8</ele>
        <time>2015-07-25T14:42:42Z</time>
      </trkpt>
      <trkpt lat="44.83924" lon="5.81824">
        <ele>976.3</ele>
        <time>2015-07-25T14:42:47Z</time>
      </trkpt>
      <trkpt lat="44.83918" lon="5.81821">
        <ele>975.3</ele>
        <time>2015-07-25T14:42:52Z</time>
      </trkpt>
      <trkpt lat="44.83912" lon="5.81813">
        <ele>974.5</ele>
        <time>2015-07-25T14:42:57Z</time>
      </trkpt>
      <trkpt lat="44.83908" lon="5.81804">
        <ele>973.9</ele>
        <time>2015-07-25T14:43:02Z</time>
      </trkpt>
      <trkpt lat="44.83902" lon="5.81797">
        <ele>972.9</ele>
        <time>2015-07-25T14:43:07Z</time>
      </trkpt>
      <trkpt lat="44.83898" lon="5.8179">
        <ele>972.6</ele>
        <time>2015-07-25T14:43:12Z</time>
      </trkpt>
      <trkpt lat="44.83893" lon="5.81782">
        <ele>972.5</ele>
        <time>2015-07-25T14:43:17Z</time>
      </trkpt>
      <trkpt lat="44.83889" lon="5.81775">
        <ele>972.7</ele>
        <time>2015-07-25T14:43:22Z</time>
      </trkpt>
      <trkpt lat="44.83883" lon="5.81769">
        <ele>972.7</ele>
        <time>2015-07-25T14:43:27Z</time>
      </trkpt>
      <trkpt lat="44.83877" lon="5.81761">
        <ele>972.7</ele>
        <time>2015-07-25T14:43:32Z</time>
      </trkpt>
      <trkpt lat="44.83872" lon="5.81753">
        <ele>972.1</ele>
        <time>2015-07-25T14:43:37Z</time>
      </trkpt>
      <trkpt lat="44.83868" lon="5.81744">
        <ele>971.2</ele>
        <time>2015-07-25T14:43:42Z</time>
      </trkpt>
      <trkpt lat="44.83864" lon="5.81735">
        <ele>970.2</ele>
        <time>2015-07-25T14:43:47Z</time>
      </trkpt>
      <trkpt lat="44.83861" lon="5.81726">
        <ele>970.4</ele>
        <time>2015-07-25T14:43:52Z</time>
      </trkpt>
      <trkpt lat="44.83857" lon="5.81718">
        <ele>968.9</ele>
        <time>2015-07-25T14:43:57Z</time>
      </trkpt>
      <trkpt lat="44.83854" lon="5.81712">
        <ele>967.7</ele>
        <time>2015-07-25T14:44:02Z</time>
      </trkpt>
      <trkpt lat="44.83852" lon="5.81702">
        <ele>966.2</ele>
        <time>2015-07-25T14:44:07Z</time>
      </trkpt>
      <trkpt lat="44.8385" lon="5.81691">
        <ele>966.9</ele>
        <time>2015-07-25T14:44:12Z</time>
      </trkpt>
      <trkpt lat="44.83846" lon="5.81681">
        <ele>967.8</ele>
        <time>2015-07-25T14:44:17Z</time>
      </trkpt>
      <trkpt lat="44.83842" lon="5.81669">
        <ele>965.3</ele>
        <time>2015-07-25T14:44:22Z</time>
      </trkpt>
      <trkpt lat="44.83839" lon="5.81659">
        <ele>964.5</ele>
        <time>2015-07-25T14:44:27Z</time>
      </trkpt>
      <trkpt lat="44.83837" lon="5.81648">
        <ele>963.1</ele>
        <time>2015-07-25T14:44:32Z</time>
      </trkpt>
      <trkpt lat="44.83835" lon="5.81639">
        <ele>961.8</ele>
        <time>2015-07-25T14:44:37Z</time>
      </trkpt>
      <trkpt lat="44.83834" lon="5.81626">
        <ele>961.8</ele>
        <time>2015-07-25T14:44:42Z</time>
      </trkpt>
      <trkpt lat="44.8383" lon="5.81613">
        <ele>959.2</ele>
        <time>2015-07-25T14:44:47Z</time>
      </trkpt>
      <trkpt lat="44.83824" lon="5.81603">
        <ele>958.1</ele>
        <time>2015-07-25T14:44:52Z</time>
      </trkpt>
      <trkpt lat="44.8382" lon="5.81593">
        <ele>957.8</ele>
        <time>2015-07-25T14:44:57Z</time>
      </trkpt>
      <trkpt lat="44.83819" lon="5.81584">
        <ele>963.1</ele>
        <time>2015-07-25T14:45:02Z</time>
      </trkpt>
      <trkpt lat="44.83816" lon="5.81576">
        <ele>963.8</ele>
        <time>2015-07-25T14:45:07Z</time>
      </trkpt>
      <trkpt lat="44.83812" lon="5.81567">
        <ele>964.3</ele>
        <time>2015-07-25T14:45:12Z</time>
      </trkpt>
      <trkpt lat="44.83807" lon="5.8156">
        <ele>964.6</ele>
        <time>2015-07-25T14:45:17Z</time>
      </trkpt>
      <trkpt lat="44.83804" lon="5.8155">
        <ele>964.5</ele>
        <time>2015-07-25T14:45:22Z</time>
      </trkpt>
      <trkpt lat="44.83801" lon="5.81541">
        <ele>968.8</ele>
        <time>2015-07-25T14:45:27Z</time>
      </trkpt>
      <trkpt lat="44.83797" lon="5.81533">
        <ele>969.2</ele>
        <time>2015-07-25T14:45:32Z</time>
      </trkpt>
      <trkpt lat="44.83795" lon="5.81523">
        <ele>972.8</ele>
        <time>2015-07-25T14:45:37Z</time>
      </trkpt>
      <trkpt lat="44.83791" lon="5.81512">
        <ele>970.9</ele>
        <time>2015-07-25T14:45:42Z</time>
      </trkpt>
      <trkpt lat="44.8379" lon="5.81504">
        <ele>968.7</ele>
        <time>2015-07-25T14:45:47Z</time>
      </trkpt>
      <trkpt lat="44.8379" lon="5.81494">
        <ele>967.4</ele>
        <time>2015-07-25T14:45:52Z</time>
      </trkpt>
      <trkpt lat="44.83792" lon="5.81483">
        <ele>970</ele>
        <time>2015-07-25T14:45:57Z</time>
      </trkpt>
      <trkpt lat="44.83794" lon="5.81473">
        <ele>970.6</ele>
        <time>2015-07-25T14:46:02Z</time>
      </trkpt>
      <trkpt lat="44.83793" lon="5.81464">
        <ele>970.1</ele>
        <time>2015-07-25T14:46:07Z</time>
      </trkpt>
      <trkpt lat="44.83793" lon="5.81454">
        <ele>969.2</ele>
        <time>2015-07-25T14:46:12Z</time>
      </trkpt>
      <trkpt lat="44.83793" lon="5.81444">
        <ele>970</ele>
        <time>2015-07-25T14:46:17Z</time>
      </trkpt>
      <trkpt lat="44.83794" lon="5.81434">
        <ele>970.1</ele>
        <time>2015-07-25T14:46:22Z</time>
      </trkpt>
      <trkpt lat="44.83796" lon="5.81425">
        <ele>969.7</ele>
        <time>2015-07-25T14:46:27Z</time>
      </trkpt>
      <trkpt lat="44.83801" lon="5.81416">
        <ele>970.3</ele>
        <time>2015-07-25T14:46:32Z</time>
      </trkpt>
      <trkpt lat="44.83805" lon="5.81407">
        <ele>970.2</ele>
        <time>2015-07-25T14:46:37Z</time>
      </trkpt>
      <trkpt lat="44.83807" lon="5.81397">
        <ele>968.2</ele>
        <time>2015-07-25T14:46:42Z</time>
      </trkpt>
      <trkpt lat="44.83808" lon="5.81388">
        <ele>966.5</ele>
        <time>2015-07-25T14:46:47Z</time>
      </trkpt>
      <trkpt lat="44.83811" lon="5.81379">
        <ele>965.5</ele>
        <time>2015-07-25T14:46:52Z</time>
      </trkpt>
      <trkpt lat="44.83813" lon="5.81368">
        <ele>964.7</ele>
        <time>2015-07-25T14:46:57Z</time>
      </trkpt>
      <trkpt lat="44.83814" lon="5.81357">
        <ele>964.4</ele>
        <time>2015-07-25T14:47:02Z</time>
      </trkpt>
      <trkpt lat="44.83814" lon="5.81348">
        <ele>963.7</ele>
        <time>2015-07-25T14:47:07Z</time>
      </trkpt>
      <trkpt lat="44.83816" lon="5.81338">
        <ele>964.5</ele>
        <time>2015-07-25T14:47:12Z</time>
      </trkpt>
      <trkpt lat="44.83818" lon="5.81327">
        <ele>964.7</ele>
        <time>2015-07-25T14:47:17Z</time>
      </trkpt>
      <trkpt lat="44.8382" lon="5.81316">
        <ele>965.4</ele>
        <time>2015-07-25T14:47:22Z</time>
      </trkpt>
      <trkpt lat="44.83823" lon="5.81306">
        <ele>964.3</ele>
        <time>2015-07-25T14:47:27Z</time>
      </trkpt>
      <trkpt lat="44.83825" lon="5.81296">
        <ele>964.2</ele>
        <time>2015-07-25T14:47:32Z</time>
      </trkpt>
      <trkpt lat="44.83826" lon="5.81286">
        <ele>962.8</ele>
        <time>2015-07-25T14:47:37Z</time>
      </trkpt>
      <trkpt lat="44.83827" lon="5.81275">
        <ele>962.4</ele>
        <time>2015-07-25T14:47:42Z</time>
      </trkpt>
      <trkpt lat="44.83828" lon="5.81264">
        <ele>962.5</ele>
        <time>2015-07-25T14:47:47Z</time>
      </trkpt>
      <trkpt lat="44.83829" lon="5.81253">
        <ele>962.7</ele>
        <time>2015-07-25T14:47:52Z</time>
      </trkpt>
      <trkpt lat="44.83832" lon="5.81247">
        <ele>962.8</ele>
        <time>2015-07-25T14:47:57Z</time>
      </trkpt>
      <trkpt lat="44.83836" lon="5.81254">
        <ele>962.6</ele>
        <time>2015-07-25T14:48:02Z</time>
      </trkpt>
      <trkpt lat="44.83838" lon="5.81263">
        <ele>962.5</ele>
        <time>2015-07-25T14:48:07Z</time>
      </trkpt>
      <trkpt lat="44.83844" lon="5.81269">
        <ele>960.8</ele>
        <time>2015-07-25T14:48:12Z</time>
      </trkpt>
      <trkpt lat="44.83852" lon="5.81271">
        <ele>960.4</ele>
        <time>2015-07-25T14:48:17Z</time>
      </trkpt>
      <trkpt lat="44.83859" lon="5.81267">
        <ele>958.8</ele>
        <time>2015-07-25T14:48:22Z</time>
      </trkpt>
      <trkpt lat="44.83866" lon="5.81263">
        <ele>957.8</ele>
        <time>2015-07-25T14:48:27Z</time>
      </trkpt>
      <trkpt lat="44.83873" lon="5.81259">
        <ele>957.2</ele>
        <time>2015-07-25T14:48:32Z</time>
      </trkpt>
      <trkpt lat="44.8388" lon="5.81258">
        <ele>957.3</ele>
        <time>2015-07-25T14:48:37Z</time>
      </trkpt>
      <trkpt lat="44.83888" lon="5.81256">
        <ele>957.2</ele>
        <time>2015-07-25T14:48:42Z</time>
      </trkpt>
      <trkpt lat="44.83895" lon="5.81256">
        <ele>956.7</ele>
        <time>2015-07-25T14:48:47Z</time>
      </trkpt>
      <trkpt lat="44.83902" lon="5.81256">
        <ele>956.3</ele>
        <time>2015-07-25T14:48:52Z</time>
      </trkpt>
      <trkpt lat="44.8391" lon="5.81259">
        <ele>956.1</ele>
        <time>2015-07-25T14:48:57Z</time>
      </trkpt>
      <trkpt lat="44.83917" lon="5.8126">
        <ele>955.4</ele>
        <time>2015-07-25T14:49:02Z</time>
      </trkpt>
      <trkpt lat="44.83925" lon="5.8126">
        <ele>954.6</ele>
        <time>2015-07-25T14:49:07Z</time>
      </trkpt>
      <trkpt lat="44.83933" lon="5.81258">
        <ele>952.6</ele>
        <time>2015-07-25T14:49:12Z</time>
      </trkpt>
      <trkpt lat="44.83941" lon="5.81258">
        <ele>952.6</ele>
        <time>2015-07-25T14:49:17Z</time>
      </trkpt>
      <trkpt lat="44.83949" lon="5.81258">
        <ele>951.2</ele>
        <time>2015-07-25T14:49:22Z</time>
      </trkpt>
      <trkpt lat="44.83957" lon="5.8126">
        <ele>950.5</ele>
        <time>2015-07-25T14:49:27Z</time>
      </trkpt>
      <trkpt lat="44.83965" lon="5.81263">
        <ele>950.1</ele>
        <time>2015-07-25T14:49:32Z</time>
      </trkpt>
      <trkpt lat="44.83973" lon="5.81265">
        <ele>949.1</ele>
        <time>2015-07-25T14:49:37Z</time>
      </trkpt>
      <trkpt lat="44.83981" lon="5.81268">
        <ele>947.6</ele>
        <time>2015-07-25T14:49:42Z</time>
      </trkpt>
      <trkpt lat="44.83989" lon="5.81271">
        <ele>946.3</ele>
        <time>2015-07-25T14:49:47Z</time>
      </trkpt>
      <trkpt lat="44.83997" lon="5.81274">
        <ele>944.8</ele>
        <time>2015-07-25T14:49:52Z</time>
      </trkpt>
      <trkpt lat="44.84005" lon="5.81275">
        <ele>943.6</ele>
        <time>2015-07-25T14:49:57Z</time>
      </trkpt>
      <trkpt lat="44.84012" lon="5.81276">
        <ele>943.5</ele>
        <time>2015-07-25T14:50:02Z</time>
      </trkpt>
      <trkpt lat="44.8402" lon="5.81277">
        <ele>943</ele>
        <time>2015-07-25T14:50:07Z</time>
      </trkpt>
      <trkpt lat="44.84028" lon="5.81279">
        <ele>942.3</ele>
        <time>2015-07-25T14:50:12Z</time>
      </trkpt>
      <trkpt lat="44.84035" lon="5.8128">
        <ele>943</ele>
        <time>2015-07-25T14:50:17Z</time>
      </trkpt>
      <trkpt lat="44.84043" lon="5.81274">
        <ele>942.1</ele>
        <time>2015-07-25T14:50:22Z</time>
      </trkpt>
      <trkpt lat="44.8405" lon="5.81269">
        <ele>940.2</ele>
        <time>2015-07-25T14:50:27Z</time>
      </trkpt>
      <trkpt lat="44.84058" lon="5.81265">
        <ele>938.6</ele>
        <time>2015-07-25T14:50:32Z</time>
      </trkpt>
      <trkpt lat="44.84065" lon="5.8126">
        <ele>937.6</ele>
        <time>2015-07-25T14:50:37Z</time>
      </trkpt>
      <trkpt lat="44.84072" lon="5.81255">
        <ele>936.7</ele>
        <time>2015-07-25T14:50:42Z</time>
      </trkpt>
      <trkpt lat="44.84078" lon="5.81249">
        <ele>935.6</ele>
        <time>2015-07-25T14:50:47Z</time>
      </trkpt>
      <trkpt lat="44.84084" lon="5.81242">
        <ele>934.6</ele>
        <time>2015-07-25T14:50:52Z</time>
      </trkpt>
      <trkpt lat="44.84091" lon="5.81234">
        <ele>933.9</ele>
        <time>2015-07-25T14:50:57Z</time>
      </trkpt>
      <trkpt lat="44.84097" lon="5.81226">
        <ele>933.2</ele>
        <time>2015-07-25T14:51:02Z</time>
      </trkpt>
      <trkpt lat="44.84103" lon="5.81219">
        <ele>932.5</ele>
        <time>2015-07-25T14:51:07Z</time>
      </trkpt>
      <trkpt lat="44.84109" lon="5.81212">
        <ele>931.6</ele>
        <time>2015-07-25T14:51:12Z</time>
      </trkpt>
      <trkpt lat="44.84116" lon="5.81206">
        <ele>930.9</ele>
        <time>2015-07-25T14:51:17Z</time>
      </trkpt>
      <trkpt lat="44.84122" lon="5.812">
        <ele>930.4</ele>
        <time>2015-07-25T14:51:22Z</time>
      </trkpt>
      <trkpt lat="44.84128" lon="5.81193">
        <ele>929.6</ele>
        <time>2015-07-25T14:51:27Z</time>
      </trkpt>
      <trkpt lat="44.84135" lon="5.81186">
        <ele>928.7</ele>
        <time>2015-07-25T14:51:32Z</time>
      </trkpt>
      <trkpt lat="44.8414" lon="5.81179">
        <ele>927.9</ele>
        <time>2015-07-25T14:51:37Z</time>
      </trkpt>
      <trkpt lat="44.84146" lon="5.81171">
        <ele>927</ele>
        <time>2015-07-25T14:51:42Z</time>
      </trkpt>
      <trkpt lat="44.84151" lon="5.81162">
        <ele>926.4</ele>
        <time>2015-07-25T14:51:47Z</time>
      </trkpt>
      <trkpt lat="44.84155" lon="5.81152">
        <ele>925.7</ele>
        <time>2015-07-25T14:51:52Z</time>
      </trkpt>
      <trkpt lat="44.84159" lon="5.81142">
        <ele>925</ele>
        <time>2015-07-25T14:51:57Z</time>
      </trkpt>
      <trkpt lat="44.84163" lon="5.81133">
        <ele>924.2</ele>
        <time>2015-07-25T14:52:02Z</time>
      </trkpt>
      <trkpt lat="44.84166" lon="5.81124">
        <ele>924.1</ele>
        <time>2015-07-25T14:52:07Z</time>
      </trkpt>
      <trkpt lat="44.84172" lon="5.81116">
        <ele>923.8</ele>
        <time>2015-07-25T14:52:12Z</time>
      </trkpt>
      <trkpt lat="44.84176" lon="5.81107">
        <ele>923.7</ele>
        <time>2015-07-25T14:52:17Z</time>
      </trkpt>
      <trkpt lat="44.84181" lon="5.81098">
        <ele>923.4</ele>
        <time>2015-07-25T14:52:22Z</time>
      </trkpt>
      <trkpt lat="44.84185" lon="5.81089">
        <ele>923.3</ele>
        <time>2015-07-25T14:52:27Z</time>
      </trkpt>
      <trkpt lat="44.8419" lon="5.81082">
        <ele>922.6</ele>
        <time>2015-07-25T14:52:32Z</time>
      </trkpt>
      <trkpt lat="44.84198" lon="5.81081">
        <ele>922.2</ele>
        <time>2015-07-25T14:52:37Z</time>
      </trkpt>
      <trkpt lat="44.84206" lon="5.81082">
        <ele>922.2</ele>
        <time>2015-07-25T14:52:42Z</time>
      </trkpt>
      <trkpt lat="44.84213" lon="5.81085">
        <ele>922.2</ele>
        <time>2015-07-25T14:52:47Z</time>
      </trkpt>
      <trkpt lat="44.84221" lon="5.81088">
        <ele>922.1</ele>
        <time>2015-07-25T14:52:52Z</time>
      </trkpt>
      <trkpt lat="44.84229" lon="5.81091">
        <ele>921.9</ele>
        <time>2015-07-25T14:52:57Z</time>
      </trkpt>
      <trkpt lat="44.84237" lon="5.81093">
        <ele>921.8</ele>
        <time>2015-07-25T14:53:02Z</time>
      </trkpt>
      <trkpt lat="44.84245" lon="5.81096">
        <ele>921.8</ele>
        <time>2015-07-25T14:53:07Z</time>
      </trkpt>
      <trkpt lat="44.84253" lon="5.81098">
        <ele>921.7</ele>
        <time>2015-07-25T14:53:12Z</time>
      </trkpt>
      <trkpt lat="44.8426" lon="5.81099">
        <ele>921.3</ele>
        <time>2015-07-25T14:53:17Z</time>
      </trkpt>
      <trkpt lat="44.84268" lon="5.811">
        <ele>921</ele>
        <time>2015-07-25T14:53:22Z</time>
      </trkpt>
      <trkpt lat="44.84276" lon="5.81101">
        <ele>920.6</ele>
        <time>2015-07-25T14:53:27Z</time>
      </trkpt>
      <trkpt lat="44.84284" lon="5.81103">
        <ele>920.3</ele>
        <time>2015-07-25T14:53:32Z</time>
      </trkpt>
      <trkpt lat="44.84292" lon="5.81106">
        <ele>920</ele>
        <time>2015-07-25T14:53:37Z</time>
      </trkpt>
      <trkpt lat="44.84299" lon="5.8111">
        <ele>919.5</ele>
        <time>2015-07-25T14:53:42Z</time>
      </trkpt>
      <trkpt lat="44.84306" lon="5.81114">
        <ele>919.1</ele>
        <time>2015-07-25T14:53:47Z</time>
      </trkpt>
      <trkpt lat="44.84314" lon="5.81118">
        <ele>918.5</ele>
        <time>2015-07-25T14:53:52Z</time>
      </trkpt>
      <trkpt lat="44.84321" lon="5.81123">
        <ele>918.2</ele>
        <time>2015-07-25T14:53:57Z</time>
      </trkpt>
      <trkpt lat="44.84329" lon="5.81127">
        <ele>917.8</ele>
        <time>2015-07-25T14:54:02Z</time>
      </trkpt>
      <trkpt lat="44.84335" lon="5.81132">
        <ele>917.2</ele>
        <time>2015-07-25T14:54:07Z</time>
      </trkpt>
      <trkpt lat="44.84343" lon="5.81137">
        <ele>917</ele>
        <time>2015-07-25T14:54:12Z</time>
      </trkpt>
      <trkpt lat="44.8435" lon="5.81141">
        <ele>916.8</ele>
        <time>2015-07-25T14:54:17Z</time>
      </trkpt>
      <trkpt lat="44.84358" lon="5.81145">
        <ele>916.5</ele>
        <time>2015-07-25T14:54:22Z</time>
      </trkpt>
      <trkpt lat="44.84365" lon="5.81148">
        <ele>916.1</ele>
        <time>2015-07-25T14:54:27Z</time>
      </trkpt>
      <trkpt lat="44.84373" lon="5.81151">
        <ele>915.5</ele>
        <time>2015-07-25T14:54:32Z</time>
      </trkpt>
      <trkpt lat="44.84381" lon="5.81154">
        <ele>915.2</ele>
        <time>2015-07-25T14:54:37Z</time>
      </trkpt>
      <trkpt lat="44.84388" lon="5.81158">
        <ele>914.8</ele>
        <time>2015-07-25T14:54:42Z</time>
      </trkpt>
      <trkpt lat="44.84396" lon="5.81161">
        <ele>914.3</ele>
        <time>2015-07-25T14:54:47Z</time>
      </trkpt>
      <trkpt lat="44.84404" lon="5.81164">
        <ele>913.7</ele>
        <time>2015-07-25T14:54:52Z</time>
      </trkpt>
      <trkpt lat="44.84411" lon="5.81167">
        <ele>913.1</ele>
        <time>2015-07-25T14:54:57Z</time>
      </trkpt>
      <trkpt lat="44.84417" lon="5.8117">
        <ele>912.6</ele>
        <time>2015-07-25T14:55:02Z</time>
      </trkpt>
      <trkpt lat="44.84425" lon="5.81172">
        <ele>912.2</ele>
        <time>2015-07-25T14:55:07Z</time>
      </trkpt>
      <trkpt lat="44.84432" lon="5.81174">
        <ele>911.7</ele>
        <time>2015-07-25T14:55:12Z</time>
      </trkpt>
      <trkpt lat="44.8444" lon="5.81174">
        <ele>911.3</ele>
        <time>2015-07-25T14:55:17Z</time>
      </trkpt>
      <trkpt lat="44.84447" lon="5.81172">
        <ele>911.2</ele>
        <time>2015-07-25T14:55:22Z</time>
      </trkpt>
      <trkpt lat="44.84455" lon="5.81171">
        <ele>910.6</ele>
        <time>2015-07-25T14:55:27Z</time>
      </trkpt>
      <trkpt lat="44.84462" lon="5.81172">
        <ele>910.1</ele>
        <time>2015-07-25T14:55:32Z</time>
      </trkpt>
      <trkpt lat="44.8447" lon="5.81173">
        <ele>909.5</ele>
        <time>2015-07-25T14:55:37Z</time>
      </trkpt>
      <trkpt lat="44.84478" lon="5.81175">
        <ele>909.5</ele>
        <time>2015-07-25T14:55:42Z</time>
      </trkpt>
      <trkpt lat="44.84486" lon="5.81176">
        <ele>909.2</ele>
        <time>2015-07-25T14:55:47Z</time>
      </trkpt>
      <trkpt lat="44.84494" lon="5.81178">
        <ele>908.8</ele>
        <time>2015-07-25T14:55:52Z</time>
      </trkpt>
      <trkpt lat="44.84502" lon="5.81178">
        <ele>908.4</ele>
        <time>2015-07-25T14:55:57Z</time>
      </trkpt>
      <trkpt lat="44.8451" lon="5.81178">
        <ele>908.5</ele>
        <time>2015-07-25T14:56:02Z</time>
      </trkpt>
      <trkpt lat="44.84518" lon="5.81177">
        <ele>908.5</ele>
        <time>2015-07-25T14:56:07Z</time>
      </trkpt>
      <trkpt lat="44.84525" lon="5.81172">
        <ele>907.6</ele>
        <time>2015-07-25T14:56:12Z</time>
      </trkpt>
      <trkpt lat="44.84531" lon="5.81165">
        <ele>906.6</ele>
        <time>2015-07-25T14:56:17Z</time>
      </trkpt>
      <trkpt lat="44.84535" lon="5.81156">
        <ele>905.4</ele>
        <time>2015-07-25T14:56:22Z</time>
      </trkpt>
      <trkpt lat="44.84539" lon="5.81147">
        <ele>904.5</ele>
        <time>2015-07-25T14:56:27Z</time>
      </trkpt>
      <trkpt lat="44.84543" lon="5.81136">
        <ele>903.9</ele>
        <time>2015-07-25T14:56:32Z</time>
      </trkpt>
      <trkpt lat="44.84546" lon="5.81126">
        <ele>903.9</ele>
        <time>2015-07-25T14:56:37Z</time>
      </trkpt>
      <trkpt lat="44.84548" lon="5.81115">
        <ele>903.8</ele>
        <time>2015-07-25T14:56:42Z</time>
      </trkpt>
      <trkpt lat="44.84549" lon="5.81104">
        <ele>903.2</ele>
        <time>2015-07-25T14:56:47Z</time>
      </trkpt>
      <trkpt lat="44.8455" lon="5.81093">
        <ele>902.5</ele>
        <time>2015-07-25T14:56:52Z</time>
      </trkpt>
      <trkpt lat="44.84551" lon="5.81082">
        <ele>901.8</ele>
        <time>2015-07-25T14:56:57Z</time>
      </trkpt>
      <trkpt lat="44.84552" lon="5.8107">
        <ele>901.2</ele>
        <time>2015-07-25T14:57:02Z</time>
      </trkpt>
      <trkpt lat="44.84554" lon="5.8106">
        <ele>900.8</ele>
        <time>2015-07-25T14:57:07Z</time>
      </trkpt>
      <trkpt lat="44.84556" lon="5.81049">
        <ele>900.7</ele>
        <time>2015-07-25T14:57:12Z</time>
      </trkpt>
      <trkpt lat="44.84558" lon="5.81038">
        <ele>900.1</ele>
        <time>2015-07-25T14:57:17Z</time>
      </trkpt>
      <trkpt lat="44.8456" lon="5.81027">
        <ele>899.4</ele>
        <time>2015-07-25T14:57:22Z</time>
      </trkpt>
      <trkpt lat="44.84563" lon="5.81016">
        <ele>898.9</ele>
        <time>2015-07-25T14:57:27Z</time>
      </trkpt>
      <trkpt lat="44.84566" lon="5.81005">
        <ele>898.4</ele>
        <time>2015-07-25T14:57:32Z</time>
      </trkpt>
      <trkpt lat="44.84568" lon="5.80995">
        <ele>898.1</ele>
        <time>2015-07-25T14:57:37Z</time>
      </trkpt>
      <trkpt lat="44.84572" lon="5.80984">
        <ele>897.8</ele>
        <time>2015-07-25T14:57:42Z</time>
      </trkpt>
      <trkpt lat="44.84575" lon="5.80974">
        <ele>897.5</ele>
        <time>2015-07-25T14:57:47Z</time>
      </trkpt>
      <trkpt lat="44.84577" lon="5.80963">
        <ele>897.1</ele>
        <time>2015-07-25T14:57:52Z</time>
      </trkpt>
      <trkpt lat="44.8458" lon="5.80953">
        <ele>896.8</ele>
        <time>2015-07-25T14:57:57Z</time>
      </trkpt>
      <trkpt lat="44.84581" lon="5.80942">
        <ele>895.9</ele>
        <time>2015-07-25T14:58:02Z</time>
      </trkpt>
      <trkpt lat="44.84584" lon="5.80932">
        <ele>896.5</ele>
        <time>2015-07-25T14:58:07Z</time>
      </trkpt>
      <trkpt lat="44.84586" lon="5.80921">
        <ele>896.6</ele>
        <time>2015-07-25T14:58:12Z</time>
      </trkpt>
      <trkpt lat="44.84588" lon="5.8091">
        <ele>896.4</ele>
        <time>2015-07-25T14:58:17Z</time>
      </trkpt>
      <trkpt lat="44.84589" lon="5.80899">
        <ele>896.2</ele>
        <time>2015-07-25T14:58:22Z</time>
      </trkpt>
      <trkpt lat="44.84591" lon="5.80888">
        <ele>896</ele>
        <time>2015-07-25T14:58:27Z</time>
      </trkpt>
      <trkpt lat="44.84593" lon="5.80877">
        <ele>895.9</ele>
        <time>2015-07-25T14:58:32Z</time>
      </trkpt>
      <trkpt lat="44.84593" lon="5.80866">
        <ele>895.8</ele>
        <time>2015-07-25T14:58:37Z</time>
      </trkpt>
      <trkpt lat="44.84594" lon="5.80855">
        <ele>895.6</ele>
        <time>2015-07-25T14:58:42Z</time>
      </trkpt>
      <trkpt lat="44.84594" lon="5.80844">
        <ele>895.5</ele>
        <time>2015-07-25T14:58:47Z</time>
      </trkpt>
      <trkpt lat="44.84595" lon="5.80833">
        <ele>895.1</ele>
        <time>2015-07-25T14:58:52Z</time>
      </trkpt>
      <trkpt lat="44.84594" lon="5.80822">
        <ele>894.7</ele>
        <time>2015-07-25T14:58:57Z</time>
      </trkpt>
      <trkpt lat="44.84594" lon="5.8081">
        <ele>894.2</ele>
        <time>2015-07-25T14:59:02Z</time>
      </trkpt>
      <trkpt lat="44.84594" lon="5.80799">
        <ele>893.8</ele>
        <time>2015-07-25T14:59:07Z</time>
      </trkpt>
      <trkpt lat="44.84594" lon="5.80787">
        <ele>893.7</ele>
        <time>2015-07-25T14:59:12Z</time>
      </trkpt>
      <trkpt lat="44.84593" lon="5.80776">
        <ele>893.4</ele>
        <time>2015-07-25T14:59:17Z</time>
      </trkpt>
      <trkpt lat="44.84594" lon="5.80765">
        <ele>893</ele>
        <time>2015-07-25T14:59:22Z</time>
      </trkpt>
      <trkpt lat="44.84594" lon="5.80754">
        <ele>892.6</ele>
        <time>2015-07-25T14:59:27Z</time>
      </trkpt>
      <trkpt lat="44.84593" lon="5.80743">
        <ele>892.2</ele>
        <time>2015-07-25T14:59:32Z</time>
      </trkpt>
      <trkpt lat="44.84592" lon="5.80732">
        <ele>891.8</ele>
        <time>2015-07-25T14:59:37Z</time>
      </trkpt>
      <trkpt lat="44.84592" lon="5.80721">
        <ele>891.5</ele>
        <time>2015-07-25T14:59:42Z</time>
      </trkpt>
      <trkpt lat="44.84595" lon="5.80707">
        <ele>893.9</ele>
        <time>2015-07-25T14:59:49Z</time>
      </trkpt>
      <trkpt lat="44.84595" lon="5.80692">
        <ele>894.2</ele>
        <time>2015-07-25T14:59:56Z</time>
      </trkpt>
      <trkpt lat="44.84594" lon="5.80681">
        <ele>893.9</ele>
        <time>2015-07-25T15:00:01Z</time>
      </trkpt>
      <trkpt lat="44.84594" lon="5.80669">
        <ele>893</ele>
        <time>2015-07-25T15:00:06Z</time>
      </trkpt>
      <trkpt lat="44.84594" lon="5.80657">
        <ele>893.4</ele>
        <time>2015-07-25T15:00:11Z</time>
      </trkpt>
      <trkpt lat="44.84596" lon="5.80646">
        <ele>893.1</ele>
        <time>2015-07-25T15:00:16Z</time>
      </trkpt>
      <trkpt lat="44.84595" lon="5.80635">
        <ele>891.5</ele>
        <time>2015-07-25T15:00:21Z</time>
      </trkpt>
      <trkpt lat="44.84595" lon="5.80624">
        <ele>890.1</ele>
        <time>2015-07-25T15:00:26Z</time>
      </trkpt>
      <trkpt lat="44.84597" lon="5.80613">
        <ele>891.3</ele>
        <time>2015-07-25T15:00:31Z</time>
      </trkpt>
      <trkpt lat="44.84598" lon="5.80602">
        <ele>891.9</ele>
        <time>2015-07-25T15:00:36Z</time>
      </trkpt>
      <trkpt lat="44.84599" lon="5.80592">
        <ele>892.7</ele>
        <time>2015-07-25T15:00:41Z</time>
      </trkpt>
      <trkpt lat="44.846" lon="5.80582">
        <ele>892.9</ele>
        <time>2015-07-25T15:00:46Z</time>
      </trkpt>
      <trkpt lat="44.84602" lon="5.80567">
        <ele>893.4</ele>
        <time>2015-07-25T15:00:53Z</time>
      </trkpt>
      <trkpt lat="44.84602" lon="5.80557">
        <ele>892.5</ele>
        <time>2015-07-25T15:00:58Z</time>
      </trkpt>
      <trkpt lat="44.84603" lon="5.80546">
        <ele>891.7</ele>
        <time>2015-07-25T15:01:03Z</time>
      </trkpt>
      <trkpt lat="44.84603" lon="5.80532">
        <ele>888.9</ele>
        <time>2015-07-25T15:01:08Z</time>
      </trkpt>
      <trkpt lat="44.84605" lon="5.80521">
        <ele>887.3</ele>
        <time>2015-07-25T15:01:13Z</time>
      </trkpt>
      <trkpt lat="44.84607" lon="5.8051">
        <ele>886.4</ele>
        <time>2015-07-25T15:01:18Z</time>
      </trkpt>
      <trkpt lat="44.84609" lon="5.80498">
        <ele>885.7</ele>
        <time>2015-07-25T15:01:23Z</time>
      </trkpt>
      <trkpt lat="44.84609" lon="5.80488">
        <ele>884.1</ele>
        <time>2015-07-25T15:01:28Z</time>
      </trkpt>
      <trkpt lat="44.8461" lon="5.80477">
        <ele>883.8</ele>
        <time>2015-07-25T15:01:33Z</time>
      </trkpt>
      <trkpt lat="44.84613" lon="5.80465">
        <ele>884.2</ele>
        <time>2015-07-25T15:01:38Z</time>
      </trkpt>
      <trkpt lat="44.84616" lon="5.80455">
        <ele>884.6</ele>
        <time>2015-07-25T15:01:43Z</time>
      </trkpt>
      <trkpt lat="44.84618" lon="5.80443">
        <ele>884</ele>
        <time>2015-07-25T15:01:48Z</time>
      </trkpt>
      <trkpt lat="44.8462" lon="5.80432">
        <ele>884.1</ele>
        <time>2015-07-25T15:01:53Z</time>
      </trkpt>
      <trkpt lat="44.84621" lon="5.80422">
        <ele>884.9</ele>
        <time>2015-07-25T15:01:58Z</time>
      </trkpt>
      <trkpt lat="44.84622" lon="5.8041">
        <ele>885</ele>
        <time>2015-07-25T15:02:03Z</time>
      </trkpt>
      <trkpt lat="44.84623" lon="5.80399">
        <ele>885.2</ele>
        <time>2015-07-25T15:02:08Z</time>
      </trkpt>
      <trkpt lat="44.84622" lon="5.80388">
        <ele>884.2</ele>
        <time>2015-07-25T15:02:13Z</time>
      </trkpt>
      <trkpt lat="44.84621" lon="5.80377">
        <ele>883.1</ele>
        <time>2015-07-25T15:02:18Z</time>
      </trkpt>
      <trkpt lat="44.8462" lon="5.80365">
        <ele>882.4</ele>
        <time>2015-07-25T15:02:23Z</time>
      </trkpt>
      <trkpt lat="44.84619" lon="5.80353">
        <ele>883.5</ele>
        <time>2015-07-25T15:02:28Z</time>
      </trkpt>
      <trkpt lat="44.84618" lon="5.80342">
        <ele>883</ele>
        <time>2015-07-25T15:02:33Z</time>
      </trkpt>
      <trkpt lat="44.84618" lon="5.80331">
        <ele>882.5</ele>
        <time>2015-07-25T15:02:38Z</time>
      </trkpt>
      <trkpt lat="44.84618" lon="5.8032">
        <ele>882.2</ele>
        <time>2015-07-25T15:02:43Z</time>
      </trkpt>
      <trkpt lat="44.84617" lon="5.80309">
        <ele>881.7</ele>
        <time>2015-07-25T15:02:48Z</time>
      </trkpt>
      <trkpt lat="44.84616" lon="5.80297">
        <ele>881.2</ele>
        <time>2015-07-25T15:02:53Z</time>
      </trkpt>
      <trkpt lat="44.84615" lon="5.80285">
        <ele>880.5</ele>
        <time>2015-07-25T15:02:58Z</time>
      </trkpt>
      <trkpt lat="44.84615" lon="5.80274">
        <ele>880.3</ele>
        <time>2015-07-25T15:03:03Z</time>
      </trkpt>
      <trkpt lat="44.84615" lon="5.80263">
        <ele>880.1</ele>
        <time>2015-07-25T15:03:08Z</time>
      </trkpt>
      <trkpt lat="44.84615" lon="5.80252">
        <ele>879.8</ele>
        <time>2015-07-25T15:03:13Z</time>
      </trkpt>
      <trkpt lat="44.84616" lon="5.80242">
        <ele>880.1</ele>
        <time>2015-07-25T15:03:18Z</time>
      </trkpt>
      <trkpt lat="44.84618" lon="5.80231">
        <ele>880.1</ele>
        <time>2015-07-25T15:03:23Z</time>
      </trkpt>
      <trkpt lat="44.84619" lon="5.8022">
        <ele>879.9</ele>
        <time>2015-07-25T15:03:28Z</time>
      </trkpt>
      <trkpt lat="44.84622" lon="5.80211">
        <ele>879.7</ele>
        <time>2015-07-25T15:03:33Z</time>
      </trkpt>
      <trkpt lat="44.84624" lon="5.80201">
        <ele>879.1</ele>
        <time>2015-07-25T15:03:38Z</time>
      </trkpt>
      <trkpt lat="44.84628" lon="5.80192">
        <ele>879.2</ele>
        <time>2015-07-25T15:03:43Z</time>
      </trkpt>
      <trkpt lat="44.8463" lon="5.80181">
        <ele>879.1</ele>
        <time>2015-07-25T15:03:48Z</time>
      </trkpt>
      <trkpt lat="44.84632" lon="5.80171">
        <ele>879</ele>
        <time>2015-07-25T15:03:53Z</time>
      </trkpt>
      <trkpt lat="44.84635" lon="5.80162">
        <ele>878.9</ele>
        <time>2015-07-25T15:03:58Z</time>
      </trkpt>
      <trkpt lat="44.84638" lon="5.80152">
        <ele>878.8</ele>
        <time>2015-07-25T15:04:03Z</time>
      </trkpt>
      <trkpt lat="44.84642" lon="5.80143">
        <ele>877.9</ele>
        <time>2015-07-25T15:04:08Z</time>
      </trkpt>
      <trkpt lat="44.84646" lon="5.80133">
        <ele>877.8</ele>
        <time>2015-07-25T15:04:13Z</time>
      </trkpt>
      <trkpt lat="44.84649" lon="5.80124">
        <ele>877.7</ele>
        <time>2015-07-25T15:04:18Z</time>
      </trkpt>
      <trkpt lat="44.84651" lon="5.80116">
        <ele>877</ele>
        <time>2015-07-25T15:04:23Z</time>
      </trkpt>
      <trkpt lat="44.84655" lon="5.80107">
        <ele>876.9</ele>
        <time>2015-07-25T15:04:28Z</time>
      </trkpt>
      <trkpt lat="44.84659" lon="5.80098">
        <ele>877.3</ele>
        <time>2015-07-25T15:04:33Z</time>
      </trkpt>
      <trkpt lat="44.84662" lon="5.80088">
        <ele>877.5</ele>
        <time>2015-07-25T15:04:38Z</time>
      </trkpt>
      <trkpt lat="44.84665" lon="5.80078">
        <ele>878</ele>
        <time>2015-07-25T15:04:43Z</time>
      </trkpt>
      <trkpt lat="44.84668" lon="5.80069">
        <ele>878.3</ele>
        <time>2015-07-25T15:04:48Z</time>
      </trkpt>
      <trkpt lat="44.84671" lon="5.80059">
        <ele>878.4</ele>
        <time>2015-07-25T15:04:53Z</time>
      </trkpt>
      <trkpt lat="44.84674" lon="5.80049">
        <ele>878</ele>
        <time>2015-07-25T15:04:58Z</time>
      </trkpt>
      <trkpt lat="44.84677" lon="5.8004">
        <ele>877.9</ele>
        <time>2015-07-25T15:05:03Z</time>
      </trkpt>
      <trkpt lat="44.84681" lon="5.80031">
        <ele>877.8</ele>
        <time>2015-07-25T15:05:08Z</time>
      </trkpt>
      <trkpt lat="44.84684" lon="5.80022">
        <ele>878</ele>
        <time>2015-07-25T15:05:13Z</time>
      </trkpt>
      <trkpt lat="44.84689" lon="5.80013">
        <ele>878</ele>
        <time>2015-07-25T15:05:18Z</time>
      </trkpt>
      <trkpt lat="44.84693" lon="5.80005">
        <ele>877.8</ele>
        <time>2015-07-25T15:05:23Z</time>
      </trkpt>
      <trkpt lat="44.84697" lon="5.79996">
        <ele>879</ele>
        <time>2015-07-25T15:05:28Z</time>
      </trkpt>
      <trkpt lat="44.84703" lon="5.79988">
        <ele>879.4</ele>
        <time>2015-07-25T15:05:33Z</time>
      </trkpt>
      <trkpt lat="44.84707" lon="5.79979">
        <ele>878.4</ele>
        <time>2015-07-25T15:05:38Z</time>
      </trkpt>
      <trkpt lat="44.84712" lon="5.7997">
        <ele>878</ele>
        <time>2015-07-25T15:05:43Z</time>
      </trkpt>
      <trkpt lat="44.84716" lon="5.79961">
        <ele>877.5</ele>
        <time>2015-07-25T15:05:48Z</time>
      </trkpt>
      <trkpt lat="44.84721" lon="5.79954">
        <ele>878.9</ele>
        <time>2015-07-25T15:05:53Z</time>
      </trkpt>
      <trkpt lat="44.84728" lon="5.7995">
        <ele>878.9</ele>
        <time>2015-07-25T15:05:58Z</time>
      </trkpt>
      <trkpt lat="44.84736" lon="5.79951">
        <ele>879.8</ele>
        <time>2015-07-25T15:06:03Z</time>
      </trkpt>
      <trkpt lat="44.84743" lon="5.79954">
        <ele>881</ele>
        <time>2015-07-25T15:06:08Z</time>
      </trkpt>
      <trkpt lat="44.8475" lon="5.79958">
        <ele>881.3</ele>
        <time>2015-07-25T15:06:13Z</time>
      </trkpt>
      <trkpt lat="44.84757" lon="5.79961">
        <ele>880.6</ele>
        <time>2015-07-25T15:06:18Z</time>
      </trkpt>
      <trkpt lat="44.84765" lon="5.79962">
        <ele>879.9</ele>
        <time>2015-07-25T15:06:23Z</time>
      </trkpt>
      <trkpt lat="44.84773" lon="5.79961">
        <ele>880.3</ele>
        <time>2015-07-25T15:06:28Z</time>
      </trkpt>
      <trkpt lat="44.84781" lon="5.79959">
        <ele>881.1</ele>
        <time>2015-07-25T15:06:33Z</time>
      </trkpt>
      <trkpt lat="44.84787" lon="5.79955">
        <ele>881.4</ele>
        <time>2015-07-25T15:06:38Z</time>
      </trkpt>
      <trkpt lat="44.84793" lon="5.79949">
        <ele>881.2</ele>
        <time>2015-07-25T15:06:43Z</time>
      </trkpt>
      <trkpt lat="44.84798" lon="5.79942">
        <ele>879.6</ele>
        <time>2015-07-25T15:06:48Z</time>
      </trkpt>
      <trkpt lat="44.84802" lon="5.79934">
        <ele>877.3</ele>
        <time>2015-07-25T15:06:53Z</time>
      </trkpt>
      <trkpt lat="44.84805" lon="5.79925">
        <ele>876.4</ele>
        <time>2015-07-25T15:06:58Z</time>
      </trkpt>
      <trkpt lat="44.84808" lon="5.79915">
        <ele>875.5</ele>
        <time>2015-07-25T15:07:03Z</time>
      </trkpt>
      <trkpt lat="44.8481" lon="5.79904">
        <ele>874.8</ele>
        <time>2015-07-25T15:07:08Z</time>
      </trkpt>
      <trkpt lat="44.8481" lon="5.79893">
        <ele>873.9</ele>
        <time>2015-07-25T15:07:13Z</time>
      </trkpt>
      <trkpt lat="44.84808" lon="5.79882">
        <ele>873.6</ele>
        <time>2015-07-25T15:07:18Z</time>
      </trkpt>
      <trkpt lat="44.84806" lon="5.79872">
        <ele>873.3</ele>
        <time>2015-07-25T15:07:23Z</time>
      </trkpt>
      <trkpt lat="44.84803" lon="5.79862">
        <ele>874</ele>
        <time>2015-07-25T15:07:28Z</time>
      </trkpt>
      <trkpt lat="44.848" lon="5.79852">
        <ele>873.5</ele>
        <time>2015-07-25T15:07:33Z</time>
      </trkpt>
      <trkpt lat="44.848" lon="5.79841">
        <ele>873.1</ele>
        <time>2015-07-25T15:07:38Z</time>
      </trkpt>
      <trkpt lat="44.84799" lon="5.79832">
        <ele>872.5</ele>
        <time>2015-07-25T15:07:43Z</time>
      </trkpt>
      <trkpt lat="44.84799" lon="5.79822">
        <ele>871</ele>
        <time>2015-07-25T15:07:48Z</time>
      </trkpt>
      <trkpt lat="44.848" lon="5.79811">
        <ele>870.8</ele>
        <time>2015-07-25T15:07:53Z</time>
      </trkpt>
      <trkpt lat="44.84803" lon="5.79801">
        <ele>871.8</ele>
        <time>2015-07-25T15:07:58Z</time>
      </trkpt>
      <trkpt lat="44.84804" lon="5.7979">
        <ele>872.4</ele>
        <time>2015-07-25T15:08:03Z</time>
      </trkpt>
      <trkpt lat="44.84803" lon="5.7978">
        <ele>871.7</ele>
        <time>2015-07-25T15:08:08Z</time>
      </trkpt>
      <trkpt lat="44.84804" lon="5.79771">
        <ele>872.8</ele>
        <time>2015-07-25T15:08:13Z</time>
      </trkpt>
      <trkpt lat="44.84807" lon="5.79764">
        <ele>874.7</ele>
        <time>2015-07-25T15:08:18Z</time>
      </trkpt>
      <trkpt lat="44.84812" lon="5.79768">
        <ele>874.9</ele>
        <time>2015-07-25T15:08:23Z</time>
      </trkpt>
      <trkpt lat="44.8482" lon="5.7977">
        <ele>875.4</ele>
        <time>2015-07-25T15:08:28Z</time>
      </trkpt>
      <trkpt lat="44.84827" lon="5.79768">
        <ele>876.8</ele>
        <time>2015-07-25T15:08:33Z</time>
      </trkpt>
      <trkpt lat="44.84834" lon="5.79766">
        <ele>879.2</ele>
        <time>2015-07-25T15:08:38Z</time>
      </trkpt>
      <trkpt lat="44.84842" lon="5.79764">
        <ele>881.9</ele>
        <time>2015-07-25T15:08:43Z</time>
      </trkpt>
      <trkpt lat="44.84848" lon="5.79762">
        <ele>884.9</ele>
        <time>2015-07-25T15:08:48Z</time>
      </trkpt>
      <trkpt lat="44.84853" lon="5.7976">
        <ele>880.3</ele>
        <time>2015-07-25T15:08:53Z</time>
      </trkpt>
      <trkpt lat="44.84848" lon="5.79759">
        <ele>878</ele>
        <time>2015-07-25T15:08:58Z</time>
      </trkpt>
      <trkpt lat="44.84842" lon="5.79761">
        <ele>876.4</ele>
        <time>2015-07-25T15:09:03Z</time>
      </trkpt>
      <trkpt lat="44.84835" lon="5.79762">
        <ele>876.8</ele>
        <time>2015-07-25T15:09:08Z</time>
      </trkpt>
      <trkpt lat="44.84828" lon="5.79763">
        <ele>877.1</ele>
        <time>2015-07-25T15:09:13Z</time>
      </trkpt>
      <trkpt lat="44.8482" lon="5.79764">
        <ele>877.1</ele>
        <time>2015-07-25T15:09:18Z</time>
      </trkpt>
      <trkpt lat="44.84813" lon="5.79763">
        <ele>877.5</ele>
        <time>2015-07-25T15:09:23Z</time>
      </trkpt>
      <trkpt lat="44.84807" lon="5.7976">
        <ele>877.4</ele>
        <time>2015-07-25T15:09:28Z</time>
      </trkpt>
      <trkpt lat="44.84805" lon="5.79768">
        <ele>877.5</ele>
        <time>2015-07-25T15:09:33Z</time>
      </trkpt>
      <trkpt lat="44.84805" lon="5.79773">
        <ele>877.7</ele>
        <time>2015-07-25T15:09:38Z</time>
      </trkpt>
      <trkpt lat="44.84805" lon="5.79773">
        <ele>878.5</ele>
        <time>2015-07-25T15:09:43Z</time>
      </trkpt>
      <trkpt lat="44.84805" lon="5.79772">
        <ele>877.7</ele>
        <time>2015-07-25T15:09:48Z</time>
      </trkpt>
      <trkpt lat="44.84805" lon="5.79774">
        <ele>877.1</ele>
        <time>2015-07-25T15:09:53Z</time>
      </trkpt>
      <trkpt lat="44.84805" lon="5.79774">
        <ele>878.4</ele>
        <time>2015-07-25T15:09:58Z</time>
      </trkpt>
      <trkpt lat="44.84805" lon="5.79778">
        <ele>879.7</ele>
        <time>2015-07-25T15:10:03Z</time>
      </trkpt>
      <trkpt lat="44.84805" lon="5.79786">
        <ele>879.8</ele>
        <time>2015-07-25T15:10:08Z</time>
      </trkpt>
      <trkpt lat="44.84805" lon="5.79788">
        <ele>879</ele>
        <time>2015-07-25T15:10:13Z</time>
      </trkpt>
      <trkpt lat="44.84803" lon="5.7979">
        <ele>878.7</ele>
        <time>2015-07-25T15:10:18Z</time>
      </trkpt>
      <trkpt lat="44.84802" lon="5.79799">
        <ele>877.4</ele>
        <time>2015-07-25T15:10:23Z</time>
      </trkpt>
      <trkpt lat="44.84802" lon="5.79808">
        <ele>877</ele>
        <time>2015-07-25T15:10:28Z</time>
      </trkpt>
      <trkpt lat="44.848" lon="5.79817">
        <ele>876.4</ele>
        <time>2015-07-25T15:10:33Z</time>
      </trkpt>
      <trkpt lat="44.84801" lon="5.79826">
        <ele>876.1</ele>
        <time>2015-07-25T15:10:38Z</time>
      </trkpt>
      <trkpt lat="44.84807" lon="5.79823">
        <ele>874.9</ele>
        <time>2015-07-25T15:10:43Z</time>
      </trkpt>
      <trkpt lat="44.8481" lon="5.79813">
        <ele>873.3</ele>
        <time>2015-07-25T15:10:48Z</time>
      </trkpt>
      <trkpt lat="44.84813" lon="5.79805">
        <ele>873</ele>
        <time>2015-07-25T15:10:53Z</time>
      </trkpt>
      <trkpt lat="44.84817" lon="5.79797">
        <ele>872.6</ele>
        <time>2015-07-25T15:10:58Z</time>
      </trkpt>
      <trkpt lat="44.84819" lon="5.79792">
        <ele>871.8</ele>
        <time>2015-07-25T15:11:03Z</time>
      </trkpt>
      <trkpt lat="44.84821" lon="5.79791">
        <ele>872.4</ele>
        <time>2015-07-25T15:11:08Z</time>
      </trkpt>
      <trkpt lat="44.84826" lon="5.79795">
        <ele>872.6</ele>
        <time>2015-07-25T15:11:13Z</time>
      </trkpt>
      <trkpt lat="44.84827" lon="5.79804">
        <ele>873</ele>
        <time>2015-07-25T15:11:18Z</time>
      </trkpt>
      <trkpt lat="44.84831" lon="5.79811">
        <ele>875.5</ele>
        <time>2015-07-25T15:11:23Z</time>
      </trkpt>
      <trkpt lat="44.84837" lon="5.79811">
        <ele>876</ele>
        <time>2015-07-25T15:11:28Z</time>
      </trkpt>
      <trkpt lat="44.84845" lon="5.7981">
        <ele>876.6</ele>
        <time>2015-07-25T15:11:33Z</time>
      </trkpt>
      <trkpt lat="44.8485" lon="5.7981">
        <ele>876.4</ele>
        <time>2015-07-25T15:11:38Z</time>
      </trkpt>
      <trkpt lat="44.84855" lon="5.79804">
        <ele>875</ele>
        <time>2015-07-25T15:11:43Z</time>
      </trkpt>
      <trkpt lat="44.84858" lon="5.79795">
        <ele>872.5</ele>
        <time>2015-07-25T15:11:48Z</time>
      </trkpt>
      <trkpt lat="44.84861" lon="5.79787">
        <ele>872</ele>
        <time>2015-07-25T15:11:53Z</time>
      </trkpt>
      <trkpt lat="44.84865" lon="5.79779">
        <ele>874.1</ele>
        <time>2015-07-25T15:11:58Z</time>
      </trkpt>
      <trkpt lat="44.8487" lon="5.79772">
        <ele>875.1</ele>
        <time>2015-07-25T15:12:03Z</time>
      </trkpt>
      <trkpt lat="44.84876" lon="5.79768">
        <ele>874.7</ele>
        <time>2015-07-25T15:12:08Z</time>
      </trkpt>
      <trkpt lat="44.84883" lon="5.79765">
        <ele>874.6</ele>
        <time>2015-07-25T15:12:13Z</time>
      </trkpt>
      <trkpt lat="44.8489" lon="5.79763">
        <ele>874.7</ele>
        <time>2015-07-25T15:12:18Z</time>
      </trkpt>
      <trkpt lat="44.84898" lon="5.7976">
        <ele>874</ele>
        <time>2015-07-25T15:12:23Z</time>
      </trkpt>
      <trkpt lat="44.84906" lon="5.79757">
        <ele>872.9</ele>
        <time>2015-07-25T15:12:28Z</time>
      </trkpt>
      <trkpt lat="44.84913" lon="5.79755">
        <ele>872.9</ele>
        <time>2015-07-25T15:12:33Z</time>
      </trkpt>
      <trkpt lat="44.84921" lon="5.79754">
        <ele>873.2</ele>
        <time>2015-07-25T15:12:38Z</time>
      </trkpt>
      <trkpt lat="44.84928" lon="5.79751">
        <ele>871.8</ele>
        <time>2015-07-25T15:12:43Z</time>
      </trkpt>
      <trkpt lat="44.84935" lon="5.79748">
        <ele>871.4</ele>
        <time>2015-07-25T15:12:48Z</time>
      </trkpt>
      <trkpt lat="44.84943" lon="5.79746">
        <ele>872</ele>
        <time>2015-07-25T15:12:53Z</time>
      </trkpt>
      <trkpt lat="44.8495" lon="5.79744">
        <ele>872.4</ele>
        <time>2015-07-25T15:12:58Z</time>
      </trkpt>
      <trkpt lat="44.84958" lon="5.79742">
        <ele>872.4</ele>
        <time>2015-07-25T15:13:03Z</time>
      </trkpt>
      <trkpt lat="44.84964" lon="5.7974">
        <ele>873.5</ele>
        <time>2015-07-25T15:13:08Z</time>
      </trkpt>
      <trkpt lat="44.84971" lon="5.79738">
        <ele>874.3</ele>
        <time>2015-07-25T15:13:13Z</time>
      </trkpt>
      <trkpt lat="44.84979" lon="5.79738">
        <ele>874.2</ele>
        <time>2015-07-25T15:13:18Z</time>
      </trkpt>
      <trkpt lat="44.84985" lon="5.79737">
        <ele>872.5</ele>
        <time>2015-07-25T15:13:23Z</time>
      </trkpt>
      <trkpt lat="44.84993" lon="5.79735">
        <ele>873.1</ele>
        <time>2015-07-25T15:13:28Z</time>
      </trkpt>
      <trkpt lat="44.85" lon="5.79732">
        <ele>875.7</ele>
        <time>2015-07-25T15:13:33Z</time>
      </trkpt>
      <trkpt lat="44.85007" lon="5.79733">
        <ele>877.8</ele>
        <time>2015-07-25T15:13:38Z</time>
      </trkpt>
      <trkpt lat="44.85013" lon="5.79733">
        <ele>880.7</ele>
        <time>2015-07-25T15:13:43Z</time>
      </trkpt>
      <trkpt lat="44.8502" lon="5.79733">
        <ele>882.5</ele>
        <time>2015-07-25T15:13:48Z</time>
      </trkpt>
      <trkpt lat="44.85028" lon="5.79733">
        <ele>885.6</ele>
        <time>2015-07-25T15:13:53Z</time>
      </trkpt>
      <trkpt lat="44.85036" lon="5.79729">
        <ele>886.3</ele>
        <time>2015-07-25T15:13:58Z</time>
      </trkpt>
      <trkpt lat="44.85043" lon="5.79727">
        <ele>886.9</ele>
        <time>2015-07-25T15:14:03Z</time>
      </trkpt>
      <trkpt lat="44.85051" lon="5.79723">
        <ele>882.3</ele>
        <time>2015-07-25T15:14:08Z</time>
      </trkpt>
      <trkpt lat="44.85059" lon="5.79718">
        <ele>879.8</ele>
        <time>2015-07-25T15:14:13Z</time>
      </trkpt>
      <trkpt lat="44.85067" lon="5.79717">
        <ele>880.9</ele>
        <time>2015-07-25T15:14:18Z</time>
      </trkpt>
      <trkpt lat="44.85074" lon="5.79715">
        <ele>879.9</ele>
        <time>2015-07-25T15:14:23Z</time>
      </trkpt>
      <trkpt lat="44.85082" lon="5.79713">
        <ele>881.8</ele>
        <time>2015-07-25T15:14:28Z</time>
      </trkpt>
      <trkpt lat="44.8509" lon="5.7971">
        <ele>879.8</ele>
        <time>2015-07-25T15:14:33Z</time>
      </trkpt>
      <trkpt lat="44.85098" lon="5.79709">
        <ele>879.3</ele>
        <time>2015-07-25T15:14:38Z</time>
      </trkpt>
      <trkpt lat="44.85106" lon="5.79709">
        <ele>878.5</ele>
        <time>2015-07-25T15:14:43Z</time>
      </trkpt>
      <trkpt lat="44.85114" lon="5.7971">
        <ele>878.8</ele>
        <time>2015-07-25T15:14:48Z</time>
      </trkpt>
      <trkpt lat="44.85121" lon="5.79711">
        <ele>879.3</ele>
        <time>2015-07-25T15:14:53Z</time>
      </trkpt>
      <trkpt lat="44.85128" lon="5.79713">
        <ele>880.8</ele>
        <time>2015-07-25T15:14:58Z</time>
      </trkpt>
      <trkpt lat="44.85131" lon="5.79712">
        <ele>881.5</ele>
        <time>2015-07-25T15:15:03Z</time>
      </trkpt>
      <trkpt lat="44.85127" lon="5.79707">
        <ele>881.2</ele>
        <time>2015-07-25T15:15:08Z</time>
      </trkpt>
      <trkpt lat="44.85124" lon="5.79708">
        <ele>881</ele>
        <time>2015-07-25T15:15:13Z</time>
      </trkpt>
      <trkpt lat="44.85127" lon="5.7971">
        <ele>881</ele>
        <time>2015-07-25T15:15:18Z</time>
      </trkpt>
      <trkpt lat="44.85126" lon="5.79712">
        <ele>879</ele>
        <time>2015-07-25T15:15:23Z</time>
      </trkpt>
      <trkpt lat="44.85127" lon="5.79717">
        <ele>875.2</ele>
        <time>2015-07-25T15:15:28Z</time>
      </trkpt>
      <trkpt lat="44.85131" lon="5.79718">
        <ele>870.7</ele>
        <time>2015-07-25T15:15:33Z</time>
      </trkpt>
      <trkpt lat="44.85135" lon="5.79717">
        <ele>866.8</ele>
        <time>2015-07-25T15:15:38Z</time>
      </trkpt>
      <trkpt lat="44.8514" lon="5.79715">
        <ele>865.4</ele>
        <time>2015-07-25T15:15:43Z</time>
      </trkpt>
      <trkpt lat="44.85144" lon="5.79713">
        <ele>863.3</ele>
        <time>2015-07-25T15:15:48Z</time>
      </trkpt>
      <trkpt lat="44.8515" lon="5.79713">
        <ele>865.9</ele>
        <time>2015-07-25T15:15:53Z</time>
      </trkpt>
      <trkpt lat="44.85157" lon="5.79708">
        <ele>867.6</ele>
        <time>2015-07-25T15:15:58Z</time>
      </trkpt>
      <trkpt lat="44.85163" lon="5.79703">
        <ele>869.2</ele>
        <time>2015-07-25T15:16:03Z</time>
      </trkpt>
      <trkpt lat="44.8517" lon="5.79698">
        <ele>870.5</ele>
        <time>2015-07-25T15:16:08Z</time>
      </trkpt>
      <trkpt lat="44.85176" lon="5.79695">
        <ele>872</ele>
        <time>2015-07-25T15:16:13Z</time>
      </trkpt>
      <trkpt lat="44.85183" lon="5.79693">
        <ele>872.4</ele>
        <time>2015-07-25T15:16:18Z</time>
      </trkpt>
      <trkpt lat="44.85191" lon="5.79691">
        <ele>873.9</ele>
        <time>2015-07-25T15:16:23Z</time>
      </trkpt>
      <trkpt lat="44.85199" lon="5.79689">
        <ele>872.1</ele>
        <time>2015-07-25T15:16:28Z</time>
      </trkpt>
      <trkpt lat="44.85207" lon="5.79687">
        <ele>871.2</ele>
        <time>2015-07-25T15:16:33Z</time>
      </trkpt>
      <trkpt lat="44.85214" lon="5.79683">
        <ele>868.7</ele>
        <time>2015-07-25T15:16:38Z</time>
      </trkpt>
      <trkpt lat="44.85218" lon="5.79674">
        <ele>867.1</ele>
        <time>2015-07-25T15:16:43Z</time>
      </trkpt>
      <trkpt lat="44.85219" lon="5.79663">
        <ele>865.7</ele>
        <time>2015-07-25T15:16:48Z</time>
      </trkpt>
      <trkpt lat="44.85219" lon="5.79654">
        <ele>865.7</ele>
        <time>2015-07-25T15:16:53Z</time>
      </trkpt>
      <trkpt lat="44.85219" lon="5.79653">
        <ele>865.2</ele>
        <time>2015-07-25T15:16:58Z</time>
      </trkpt>
      <trkpt lat="44.85221" lon="5.79652">
        <ele>866</ele>
        <time>2015-07-25T15:17:03Z</time>
      </trkpt>
      <trkpt lat="44.85222" lon="5.79652">
        <ele>867.3</ele>
        <time>2015-07-25T15:17:08Z</time>
      </trkpt>
      <trkpt lat="44.85223" lon="5.79655">
        <ele>868.9</ele>
        <time>2015-07-25T15:17:13Z</time>
      </trkpt>
      <trkpt lat="44.85222" lon="5.79664">
        <ele>869.7</ele>
        <time>2015-07-25T15:17:18Z</time>
      </trkpt>
      <trkpt lat="44.8522" lon="5.79672">
        <ele>869.6</ele>
        <time>2015-07-25T15:17:23Z</time>
      </trkpt>
      <trkpt lat="44.85218" lon="5.7968">
        <ele>869</ele>
        <time>2015-07-25T15:17:28Z</time>
      </trkpt>
      <trkpt lat="44.85214" lon="5.79686">
        <ele>868.5</ele>
        <time>2015-07-25T15:17:33Z</time>
      </trkpt>
      <trkpt lat="44.85214" lon="5.79691">
        <ele>869.3</ele>
        <time>2015-07-25T15:17:38Z</time>
      </trkpt>
      <trkpt lat="44.85215" lon="5.79693">
        <ele>869.8</ele>
        <time>2015-07-25T15:17:43Z</time>
      </trkpt>
      <trkpt lat="44.85216" lon="5.79701">
        <ele>869.9</ele>
        <time>2015-07-25T15:17:48Z</time>
      </trkpt>
      <trkpt lat="44.85222" lon="5.79709">
        <ele>870.6</ele>
        <time>2015-07-25T15:17:53Z</time>
      </trkpt>
      <trkpt lat="44.85228" lon="5.7971">
        <ele>872.2</ele>
        <time>2015-07-25T15:17:58Z</time>
      </trkpt>
      <trkpt lat="44.85235" lon="5.79709">
        <ele>872.7</ele>
        <time>2015-07-25T15:18:03Z</time>
      </trkpt>
      <trkpt lat="44.85243" lon="5.79709">
        <ele>872.6</ele>
        <time>2015-07-25T15:18:08Z</time>
      </trkpt>
      <trkpt lat="44.8525" lon="5.79708">
        <ele>872.9</ele>
        <time>2015-07-25T15:18:13Z</time>
      </trkpt>
      <trkpt lat="44.85257" lon="5.79707">
        <ele>873.5</ele>
        <time>2015-07-25T15:18:18Z</time>
      </trkpt>
      <trkpt lat="44.85264" lon="5.79707">
        <ele>873.6</ele>
        <time>2015-07-25T15:18:23Z</time>
      </trkpt>
      <trkpt lat="44.85272" lon="5.79707">
        <ele>873.7</ele>
        <time>2015-07-25T15:18:28Z</time>
      </trkpt>
      <trkpt lat="44.85279" lon="5.79707">
        <ele>872.4</ele>
        <time>2015-07-25T15:18:33Z</time>
      </trkpt>
      <trkpt lat="44.85286" lon="5.79708">
        <ele>870.8</ele>
        <time>2015-07-25T15:18:38Z</time>
      </trkpt>
      <trkpt lat="44.85293" lon="5.7971">
        <ele>869.6</ele>
        <time>2015-07-25T15:18:43Z</time>
      </trkpt>
      <trkpt lat="44.853" lon="5.79711">
        <ele>868.7</ele>
        <time>2015-07-25T15:18:48Z</time>
      </trkpt>
      <trkpt lat="44.85306" lon="5.79707">
        <ele>867.1</ele>
        <time>2015-07-25T15:18:53Z</time>
      </trkpt>
      <trkpt lat="44.8531" lon="5.79701">
        <ele>865.6</ele>
        <time>2015-07-25T15:18:58Z</time>
      </trkpt>
      <trkpt lat="44.85318" lon="5.79703">
        <ele>865.9</ele>
        <time>2015-07-25T15:19:03Z</time>
      </trkpt>
      <trkpt lat="44.85323" lon="5.797">
        <ele>864</ele>
        <time>2015-07-25T15:19:08Z</time>
      </trkpt>
      <trkpt lat="44.85328" lon="5.79694">
        <ele>862.1</ele>
        <time>2015-07-25T15:19:13Z</time>
      </trkpt>
      <trkpt lat="44.85336" lon="5.79689">
        <ele>863.5</ele>
        <time>2015-07-25T15:19:18Z</time>
      </trkpt>
      <trkpt lat="44.85346" lon="5.79689">
        <ele>867</ele>
        <time>2015-07-25T15:19:23Z</time>
      </trkpt>
      <trkpt lat="44.8535" lon="5.79692">
        <ele>868.6</ele>
        <time>2015-07-25T15:19:28Z</time>
      </trkpt>
      <trkpt lat="44.85356" lon="5.79692">
        <ele>868.6</ele>
        <time>2015-07-25T15:19:33Z</time>
      </trkpt>
      <trkpt lat="44.85362" lon="5.79694">
        <ele>869.9</ele>
        <time>2015-07-25T15:19:38Z</time>
      </trkpt>
      <trkpt lat="44.85364" lon="5.79699">
        <ele>870.8</ele>
        <time>2015-07-25T15:19:43Z</time>
      </trkpt>
      <trkpt lat="44.8537" lon="5.79695">
        <ele>870.6</ele>
        <time>2015-07-25T15:19:48Z</time>
      </trkpt>
      <trkpt lat="44.85376" lon="5.79691">
        <ele>871.4</ele>
        <time>2015-07-25T15:19:53Z</time>
      </trkpt>
      <trkpt lat="44.85384" lon="5.79689">
        <ele>870.6</ele>
        <time>2015-07-25T15:19:58Z</time>
      </trkpt>
      <trkpt lat="44.85389" lon="5.79687">
        <ele>870.4</ele>
        <time>2015-07-25T15:20:03Z</time>
      </trkpt>
      <trkpt lat="44.85392" lon="5.79683">
        <ele>867.9</ele>
        <time>2015-07-25T15:20:08Z</time>
      </trkpt>
      <trkpt lat="44.85396" lon="5.79678">
        <ele>865.8</ele>
        <time>2015-07-25T15:20:13Z</time>
      </trkpt>
      <trkpt lat="44.85401" lon="5.79675">
        <ele>860.2</ele>
        <time>2015-07-25T15:20:18Z</time>
      </trkpt>
      <trkpt lat="44.85411" lon="5.79665">
        <ele>860.1</ele>
        <time>2015-07-25T15:20:23Z</time>
      </trkpt>
      <trkpt lat="44.85415" lon="5.79659">
        <ele>858.4</ele>
        <time>2015-07-25T15:20:28Z</time>
      </trkpt>
      <trkpt lat="44.85419" lon="5.79653">
        <ele>855.2</ele>
        <time>2015-07-25T15:20:33Z</time>
      </trkpt>
      <trkpt lat="44.85422" lon="5.79645">
        <ele>852.7</ele>
        <time>2015-07-25T15:20:38Z</time>
      </trkpt>
      <trkpt lat="44.85425" lon="5.79637">
        <ele>850.4</ele>
        <time>2015-07-25T15:20:43Z</time>
      </trkpt>
      <trkpt lat="44.85431" lon="5.79632">
        <ele>849.3</ele>
        <time>2015-07-25T15:20:48Z</time>
      </trkpt>
      <trkpt lat="44.85439" lon="5.79632">
        <ele>849.9</ele>
        <time>2015-07-25T15:20:53Z</time>
      </trkpt>
      <trkpt lat="44.85446" lon="5.79635">
        <ele>850.4</ele>
        <time>2015-07-25T15:20:58Z</time>
      </trkpt>
      <trkpt lat="44.85453" lon="5.79635">
        <ele>851.8</ele>
        <time>2015-07-25T15:21:03Z</time>
      </trkpt>
      <trkpt lat="44.8546" lon="5.79635">
        <ele>852.6</ele>
        <time>2015-07-25T15:21:08Z</time>
      </trkpt>
      <trkpt lat="44.85468" lon="5.79635">
        <ele>854.7</ele>
        <time>2015-07-25T15:21:13Z</time>
      </trkpt>
      <trkpt lat="44.85475" lon="5.79635">
        <ele>853.5</ele>
        <time>2015-07-25T15:21:18Z</time>
      </trkpt>
      <trkpt lat="44.85484" lon="5.79633">
        <ele>854.8</ele>
        <time>2015-07-25T15:21:23Z</time>
      </trkpt>
      <trkpt lat="44.85491" lon="5.79632">
        <ele>856.2</ele>
        <time>2015-07-25T15:21:28Z</time>
      </trkpt>
      <trkpt lat="44.85502" lon="5.79635">
        <ele>861.9</ele>
        <time>2015-07-25T15:21:33Z</time>
      </trkpt>
      <trkpt lat="44.85509" lon="5.79633">
        <ele>859.6</ele>
        <time>2015-07-25T15:21:38Z</time>
      </trkpt>
      <trkpt lat="44.85514" lon="5.79627">
        <ele>856.2</ele>
        <time>2015-07-25T15:21:43Z</time>
      </trkpt>
      <trkpt lat="44.8552" lon="5.79623">
        <ele>856.8</ele>
        <time>2015-07-25T15:21:48Z</time>
      </trkpt>
      <trkpt lat="44.85524" lon="5.7962">
        <ele>855</ele>
        <time>2015-07-25T15:21:53Z</time>
      </trkpt>
      <trkpt lat="44.85527" lon="5.7962">
        <ele>856.3</ele>
        <time>2015-07-25T15:21:58Z</time>
      </trkpt>
      <trkpt lat="44.85528" lon="5.79619">
        <ele>855.7</ele>
        <time>2015-07-25T15:22:03Z</time>
      </trkpt>
      <trkpt lat="44.85532" lon="5.79616">
        <ele>855.3</ele>
        <time>2015-07-25T15:22:08Z</time>
      </trkpt>
      <trkpt lat="44.85535" lon="5.79614">
        <ele>856</ele>
        <time>2015-07-25T15:22:13Z</time>
      </trkpt>
      <trkpt lat="44.85536" lon="5.79613">
        <ele>857.3</ele>
        <time>2015-07-25T15:22:18Z</time>
      </trkpt>
      <trkpt lat="44.85537" lon="5.79612">
        <ele>856.9</ele>
        <time>2015-07-25T15:22:23Z</time>
      </trkpt>
      <trkpt lat="44.85538" lon="5.79612">
        <ele>858.2</ele>
        <time>2015-07-25T15:22:28Z</time>
      </trkpt>
      <trkpt lat="44.85538" lon="5.7961">
        <ele>857.8</ele>
        <time>2015-07-25T15:22:33Z</time>
      </trkpt>
      <trkpt lat="44.85535" lon="5.7961">
        <ele>857.5</ele>
        <time>2015-07-25T15:22:38Z</time>
      </trkpt>
      <trkpt lat="44.85535" lon="5.79612">
        <ele>857.4</ele>
        <time>2015-07-25T15:22:43Z</time>
      </trkpt>
      <trkpt lat="44.85531" lon="5.79617">
        <ele>855.2</ele>
        <time>2015-07-25T15:22:48Z</time>
      </trkpt>
      <trkpt lat="44.85533" lon="5.79623">
        <ele>853.9</ele>
        <time>2015-07-25T15:22:53Z</time>
      </trkpt>
      <trkpt lat="44.85537" lon="5.79617">
        <ele>852.8</ele>
        <time>2015-07-25T15:22:58Z</time>
      </trkpt>
      <trkpt lat="44.85538" lon="5.79608">
        <ele>852.3</ele>
        <time>2015-07-25T15:23:03Z</time>
      </trkpt>
      <trkpt lat="44.8554" lon="5.79602">
        <ele>854.7</ele>
        <time>2015-07-25T15:23:08Z</time>
      </trkpt>
      <trkpt lat="44.85537" lon="5.79596">
        <ele>855.2</ele>
        <time>2015-07-25T15:23:13Z</time>
      </trkpt>
      <trkpt lat="44.85536" lon="5.79591">
        <ele>853.8</ele>
        <time>2015-07-25T15:23:18Z</time>
      </trkpt>
      <trkpt lat="44.85533" lon="5.79584">
        <ele>854</ele>
        <time>2015-07-25T15:23:23Z</time>
      </trkpt>
      <trkpt lat="44.85531" lon="5.79574">
        <ele>854.3</ele>
        <time>2015-07-25T15:23:28Z</time>
      </trkpt>
      <trkpt lat="44.85529" lon="5.79564">
        <ele>855.4</ele>
        <time>2015-07-25T15:23:33Z</time>
      </trkpt>
      <trkpt lat="44.85526" lon="5.79554">
        <ele>856.4</ele>
        <time>2015-07-25T15:23:38Z</time>
      </trkpt>
      <trkpt lat="44.85522" lon="5.79552">
        <ele>856.3</ele>
        <time>2015-07-25T15:23:43Z</time>
      </trkpt>
      <trkpt lat="44.85522" lon="5.7955">
        <ele>857.3</ele>
        <time>2015-07-25T15:23:48Z</time>
      </trkpt>
      <trkpt lat="44.85521" lon="5.79549">
        <ele>857.3</ele>
        <time>2015-07-25T15:23:53Z</time>
      </trkpt>
      <trkpt lat="44.85519" lon="5.79547">
        <ele>857.4</ele>
        <time>2015-07-25T15:23:58Z</time>
      </trkpt>
      <trkpt lat="44.8552" lon="5.79546">
        <ele>856.7</ele>
        <time>2015-07-25T15:24:03Z</time>
      </trkpt>
      <trkpt lat="44.8552" lon="5.79545">
        <ele>857.2</ele>
        <time>2015-07-25T15:24:08Z</time>
      </trkpt>
      <trkpt lat="44.85519" lon="5.79544">
        <ele>857.4</ele>
        <time>2015-07-25T15:24:13Z</time>
      </trkpt>
      <trkpt lat="44.85519" lon="5.79544">
        <ele>857.6</ele>
        <time>2015-07-25T15:24:18Z</time>
      </trkpt>
      <trkpt lat="44.85519" lon="5.79545">
        <ele>857.1</ele>
        <time>2015-07-25T15:24:23Z</time>
      </trkpt>
      <trkpt lat="44.85519" lon="5.79546">
        <ele>857.1</ele>
        <time>2015-07-25T15:24:28Z</time>
      </trkpt>
      <trkpt lat="44.85521" lon="5.79549">
        <ele>860.1</ele>
        <time>2015-07-25T15:24:33Z</time>
      </trkpt>
      <trkpt lat="44.85518" lon="5.79548">
        <ele>860.2</ele>
        <time>2015-07-25T15:24:38Z</time>
      </trkpt>
      <trkpt lat="44.85517" lon="5.79547">
        <ele>859.8</ele>
        <time>2015-07-25T15:24:43Z</time>
      </trkpt>
      <trkpt lat="44.85517" lon="5.79547">
        <ele>858.8</ele>
        <time>2015-07-25T15:24:48Z</time>
      </trkpt>
      <trkpt lat="44.85517" lon="5.79547">
        <ele>857.5</ele>
        <time>2015-07-25T15:24:53Z</time>
      </trkpt>
      <trkpt lat="44.85518" lon="5.79547">
        <ele>856.3</ele>
        <time>2015-07-25T15:24:58Z</time>
      </trkpt>
      <trkpt lat="44.85518" lon="5.79547">
        <ele>853.4</ele>
        <time>2015-07-25T15:25:03Z</time>
      </trkpt>
      <trkpt lat="44.85518" lon="5.79546">
        <ele>854.1</ele>
        <time>2015-07-25T15:25:08Z</time>
      </trkpt>
      <trkpt lat="44.85518" lon="5.79546">
        <ele>853.7</ele>
        <time>2015-07-25T15:25:13Z</time>
      </trkpt>
      <trkpt lat="44.85518" lon="5.79545">
        <ele>855.8</ele>
        <time>2015-07-25T15:25:18Z</time>
      </trkpt>
      <trkpt lat="44.85519" lon="5.79545">
        <ele>857</ele>
        <time>2015-07-25T15:25:23Z</time>
      </trkpt>
      <trkpt lat="44.85519" lon="5.79544">
        <ele>856.6</ele>
        <time>2015-07-25T15:25:28Z</time>
      </trkpt>
      <trkpt lat="44.85519" lon="5.79544">
        <ele>856</ele>
        <time>2015-07-25T15:25:33Z</time>
      </trkpt>
      <trkpt lat="44.85519" lon="5.79542">
        <ele>856</ele>
        <time>2015-07-25T15:25:38Z</time>
      </trkpt>
      <trkpt lat="44.85519" lon="5.79544">
        <ele>854.8</ele>
        <time>2015-07-25T15:25:43Z</time>
      </trkpt>
      <trkpt lat="44.85519" lon="5.79543">
        <ele>854.8</ele>
        <time>2015-07-25T15:25:48Z</time>
      </trkpt>
      <trkpt lat="44.85519" lon="5.79544">
        <ele>855.5</ele>
        <time>2015-07-25T15:25:53Z</time>
      </trkpt>
      <trkpt lat="44.8552" lon="5.79547">
        <ele>855</ele>
        <time>2015-07-25T15:25:58Z</time>
      </trkpt>
      <trkpt lat="44.85521" lon="5.79548">
        <ele>853.5</ele>
        <time>2015-07-25T15:26:03Z</time>
      </trkpt>
    </trkseg>
  </trk>
</gpx>